<?xml version="1.0" encoding="UTF-8" standalone="no" ?>
<gpx xmlns="http://www.topografix.com/GPX/1/1" xmlns:xsi="http://www.w3.org/2001/XMLSchema-instance" xsi:schemaLocation="http://www.topografix.com/GPX/1/1 http://www.topografix.com/GPX/1/1/gpx.xsd" version="1.1" creator="VisuGPX - https://www.visugpx.com">
  <metadata>
    <name>Mtp_Juvignac_Villeneuve_02082020</name>
  </metadata>
  <trk>
    <name><![CDATA[Move]]></name>
    <trkseg>
      <trkpt lat="43.61171" lon="3.82752">
        <ele>59.099998474121</ele>
        <time>2020-08-02T05:29:32.000Z</time>
      </trkpt>
      <trkpt lat="43.61171" lon="3.82754">
        <ele>58.400001525879</ele>
        <time>2020-08-02T05:30:13.000Z</time>
      </trkpt>
      <trkpt lat="43.61171" lon="3.82753">
        <ele>58.10355987055</ele>
        <time>2020-08-02T05:30:19.000Z</time>
      </trkpt>
      <trkpt lat="43.61171" lon="3.8275">
        <ele>60</ele>
        <time>2020-08-02T05:30:31.000Z</time>
      </trkpt>
      <trkpt lat="43.61171" lon="3.82749">
        <ele>60</ele>
        <time>2020-08-02T05:30:38.000Z</time>
      </trkpt>
      <trkpt lat="43.61171" lon="3.82749">
        <ele>60</ele>
        <time>2020-08-02T05:30:39.000Z</time>
      </trkpt>
      <trkpt lat="43.61171" lon="3.82746">
        <ele>60</ele>
        <time>2020-08-02T05:30:43.000Z</time>
      </trkpt>
      <trkpt lat="43.61171" lon="3.82746">
        <ele>60</ele>
        <time>2020-08-02T05:30:48.000Z</time>
      </trkpt>
      <trkpt lat="43.61171" lon="3.82747">
        <ele>58</ele>
        <time>2020-08-02T05:33:59.000Z</time>
      </trkpt>
      <trkpt lat="43.61171" lon="3.82744">
        <ele>58</ele>
        <time>2020-08-02T05:34:00.000Z</time>
      </trkpt>
      <trkpt lat="43.61171" lon="3.8274">
        <ele>58</ele>
        <time>2020-08-02T05:34:01.000Z</time>
      </trkpt>
      <trkpt lat="43.61171" lon="3.82736">
        <ele>58</ele>
        <time>2020-08-02T05:34:02.000Z</time>
      </trkpt>
      <trkpt lat="43.61172" lon="3.82731">
        <ele>58</ele>
        <time>2020-08-02T05:34:03.000Z</time>
      </trkpt>
      <trkpt lat="43.61173" lon="3.82726">
        <ele>58</ele>
        <time>2020-08-02T05:34:04.000Z</time>
      </trkpt>
      <trkpt lat="43.61174" lon="3.82722">
        <ele>58</ele>
        <time>2020-08-02T05:34:05.000Z</time>
      </trkpt>
      <trkpt lat="43.61175" lon="3.82717">
        <ele>58</ele>
        <time>2020-08-02T05:34:06.000Z</time>
      </trkpt>
      <trkpt lat="43.61176" lon="3.82713">
        <ele>58</ele>
        <time>2020-08-02T05:34:07.000Z</time>
      </trkpt>
      <trkpt lat="43.61177" lon="3.82708">
        <ele>58</ele>
        <time>2020-08-02T05:34:08.000Z</time>
      </trkpt>
      <trkpt lat="43.61178" lon="3.82703">
        <ele>58</ele>
        <time>2020-08-02T05:34:09.000Z</time>
      </trkpt>
      <trkpt lat="43.61178" lon="3.82698">
        <ele>58</ele>
        <time>2020-08-02T05:34:10.000Z</time>
      </trkpt>
      <trkpt lat="43.61179" lon="3.82694">
        <ele>58</ele>
        <time>2020-08-02T05:34:11.000Z</time>
      </trkpt>
      <trkpt lat="43.6118" lon="3.8269">
        <ele>58</ele>
        <time>2020-08-02T05:34:12.000Z</time>
      </trkpt>
      <trkpt lat="43.61181" lon="3.82685">
        <ele>58</ele>
        <time>2020-08-02T05:34:13.000Z</time>
      </trkpt>
      <trkpt lat="43.61181" lon="3.82681">
        <ele>58</ele>
        <time>2020-08-02T05:34:14.000Z</time>
      </trkpt>
      <trkpt lat="43.61182" lon="3.82675">
        <ele>58</ele>
        <time>2020-08-02T05:34:15.000Z</time>
      </trkpt>
      <trkpt lat="43.61182" lon="3.8267">
        <ele>58</ele>
        <time>2020-08-02T05:34:16.000Z</time>
      </trkpt>
      <trkpt lat="43.61183" lon="3.82666">
        <ele>58</ele>
        <time>2020-08-02T05:34:17.000Z</time>
      </trkpt>
      <trkpt lat="43.61184" lon="3.82661">
        <ele>58</ele>
        <time>2020-08-02T05:34:18.000Z</time>
      </trkpt>
      <trkpt lat="43.61185" lon="3.82656">
        <ele>58</ele>
        <time>2020-08-02T05:34:19.000Z</time>
      </trkpt>
      <trkpt lat="43.61185" lon="3.82651">
        <ele>58</ele>
        <time>2020-08-02T05:34:20.000Z</time>
      </trkpt>
      <trkpt lat="43.61186" lon="3.82646">
        <ele>58</ele>
        <time>2020-08-02T05:34:21.000Z</time>
      </trkpt>
      <trkpt lat="43.61186" lon="3.82641">
        <ele>58</ele>
        <time>2020-08-02T05:34:22.000Z</time>
      </trkpt>
      <trkpt lat="43.61187" lon="3.82637">
        <ele>58</ele>
        <time>2020-08-02T05:34:23.000Z</time>
      </trkpt>
      <trkpt lat="43.61188" lon="3.82632">
        <ele>58</ele>
        <time>2020-08-02T05:34:24.000Z</time>
      </trkpt>
      <trkpt lat="43.6119" lon="3.82628">
        <ele>58</ele>
        <time>2020-08-02T05:34:25.000Z</time>
      </trkpt>
      <trkpt lat="43.61191" lon="3.82624">
        <ele>58</ele>
        <time>2020-08-02T05:34:26.000Z</time>
      </trkpt>
      <trkpt lat="43.61191" lon="3.82609">
        <ele>58</ele>
        <time>2020-08-02T05:34:29.000Z</time>
      </trkpt>
      <trkpt lat="43.61195" lon="3.82596">
        <ele>58</ele>
        <time>2020-08-02T05:34:32.000Z</time>
      </trkpt>
      <trkpt lat="43.61197" lon="3.82582">
        <ele>58</ele>
        <time>2020-08-02T05:34:35.000Z</time>
      </trkpt>
      <trkpt lat="43.61196" lon="3.82571">
        <ele>58</ele>
        <time>2020-08-02T05:34:37.000Z</time>
      </trkpt>
      <trkpt lat="43.61195" lon="3.82565">
        <ele>58</ele>
        <time>2020-08-02T05:34:38.000Z</time>
      </trkpt>
      <trkpt lat="43.61195" lon="3.82561">
        <ele>58.049341754386</ele>
        <time>2020-08-02T05:34:39.000Z</time>
      </trkpt>
      <trkpt lat="43.61196" lon="3.82558">
        <ele>58.158990877193</ele>
        <time>2020-08-02T05:34:40.000Z</time>
      </trkpt>
      <trkpt lat="43.61195" lon="3.82555">
        <ele>58.487938245614</ele>
        <time>2020-08-02T05:34:43.000Z</time>
      </trkpt>
      <trkpt lat="43.61195" lon="3.82555">
        <ele>58.993779159744</ele>
        <time>2020-08-02T05:34:48.000Z</time>
      </trkpt>
      <trkpt lat="43.61199" lon="3.82547">
        <ele>58</ele>
        <time>2020-08-02T05:35:33.000Z</time>
      </trkpt>
      <trkpt lat="43.61201" lon="3.82545">
        <ele>58</ele>
        <time>2020-08-02T05:35:34.000Z</time>
      </trkpt>
      <trkpt lat="43.61203" lon="3.82544">
        <ele>58</ele>
        <time>2020-08-02T05:35:35.000Z</time>
      </trkpt>
      <trkpt lat="43.61205" lon="3.82542">
        <ele>58</ele>
        <time>2020-08-02T05:35:36.000Z</time>
      </trkpt>
      <trkpt lat="43.61207" lon="3.82541">
        <ele>58</ele>
        <time>2020-08-02T05:35:37.000Z</time>
      </trkpt>
      <trkpt lat="43.61209" lon="3.82539">
        <ele>58</ele>
        <time>2020-08-02T05:35:38.000Z</time>
      </trkpt>
      <trkpt lat="43.61212" lon="3.82537">
        <ele>58</ele>
        <time>2020-08-02T05:35:39.000Z</time>
      </trkpt>
      <trkpt lat="43.61214" lon="3.82536">
        <ele>58</ele>
        <time>2020-08-02T05:35:40.000Z</time>
      </trkpt>
      <trkpt lat="43.61217" lon="3.82534">
        <ele>58</ele>
        <time>2020-08-02T05:35:41.000Z</time>
      </trkpt>
      <trkpt lat="43.61219" lon="3.82532">
        <ele>58</ele>
        <time>2020-08-02T05:35:42.000Z</time>
      </trkpt>
      <trkpt lat="43.61221" lon="3.82531">
        <ele>58</ele>
        <time>2020-08-02T05:35:43.000Z</time>
      </trkpt>
      <trkpt lat="43.61224" lon="3.82529">
        <ele>58</ele>
        <time>2020-08-02T05:35:44.000Z</time>
      </trkpt>
      <trkpt lat="43.61226" lon="3.82527">
        <ele>58</ele>
        <time>2020-08-02T05:35:45.000Z</time>
      </trkpt>
      <trkpt lat="43.6123" lon="3.82525">
        <ele>58</ele>
        <time>2020-08-02T05:35:46.000Z</time>
      </trkpt>
      <trkpt lat="43.61233" lon="3.82523">
        <ele>58</ele>
        <time>2020-08-02T05:35:47.000Z</time>
      </trkpt>
      <trkpt lat="43.61236" lon="3.82522">
        <ele>58</ele>
        <time>2020-08-02T05:35:48.000Z</time>
      </trkpt>
      <trkpt lat="43.61239" lon="3.8252">
        <ele>58</ele>
        <time>2020-08-02T05:35:49.000Z</time>
      </trkpt>
      <trkpt lat="43.61243" lon="3.82518">
        <ele>58</ele>
        <time>2020-08-02T05:35:50.000Z</time>
      </trkpt>
      <trkpt lat="43.61247" lon="3.82516">
        <ele>58</ele>
        <time>2020-08-02T05:35:51.000Z</time>
      </trkpt>
      <trkpt lat="43.6125" lon="3.82513">
        <ele>58</ele>
        <time>2020-08-02T05:35:52.000Z</time>
      </trkpt>
      <trkpt lat="43.61254" lon="3.82512">
        <ele>58</ele>
        <time>2020-08-02T05:35:53.000Z</time>
      </trkpt>
      <trkpt lat="43.61258" lon="3.8251">
        <ele>57.909377710219</ele>
        <time>2020-08-02T05:35:54.000Z</time>
      </trkpt>
      <trkpt lat="43.61262" lon="3.82508">
        <ele>57.804003738837</ele>
        <time>2020-08-02T05:35:55.000Z</time>
      </trkpt>
      <trkpt lat="43.61265" lon="3.82505">
        <ele>57.698629767456</ele>
        <time>2020-08-02T05:35:56.000Z</time>
      </trkpt>
      <trkpt lat="43.61269" lon="3.82501">
        <ele>57.593255796074</ele>
        <time>2020-08-02T05:35:57.000Z</time>
      </trkpt>
      <trkpt lat="43.61273" lon="3.82498">
        <ele>57.487881824693</ele>
        <time>2020-08-02T05:35:58.000Z</time>
      </trkpt>
      <trkpt lat="43.61277" lon="3.82495">
        <ele>57.382507853311</ele>
        <time>2020-08-02T05:35:59.000Z</time>
      </trkpt>
      <trkpt lat="43.61281" lon="3.82491">
        <ele>57.27713388193</ele>
        <time>2020-08-02T05:36:00.000Z</time>
      </trkpt>
      <trkpt lat="43.61284" lon="3.82488">
        <ele>57.171759910549</ele>
        <time>2020-08-02T05:36:01.000Z</time>
      </trkpt>
      <trkpt lat="43.61288" lon="3.82483">
        <ele>57.066385939167</ele>
        <time>2020-08-02T05:36:02.000Z</time>
      </trkpt>
      <trkpt lat="43.61291" lon="3.82478">
        <ele>56.962701935484</ele>
        <time>2020-08-02T05:36:03.000Z</time>
      </trkpt>
      <trkpt lat="43.61294" lon="3.82473">
        <ele>56.861895483871</ele>
        <time>2020-08-02T05:36:04.000Z</time>
      </trkpt>
      <trkpt lat="43.61296" lon="3.82467">
        <ele>56.761089032258</ele>
        <time>2020-08-02T05:36:05.000Z</time>
      </trkpt>
      <trkpt lat="43.61299" lon="3.82462">
        <ele>56.660282580645</ele>
        <time>2020-08-02T05:36:06.000Z</time>
      </trkpt>
      <trkpt lat="43.61301" lon="3.82457">
        <ele>56.559476129032</ele>
        <time>2020-08-02T05:36:07.000Z</time>
      </trkpt>
      <trkpt lat="43.61303" lon="3.82452">
        <ele>56.458669677419</ele>
        <time>2020-08-02T05:36:08.000Z</time>
      </trkpt>
      <trkpt lat="43.61305" lon="3.82447">
        <ele>56.357863225806</ele>
        <time>2020-08-02T05:36:09.000Z</time>
      </trkpt>
      <trkpt lat="43.61307" lon="3.82441">
        <ele>56.257056774194</ele>
        <time>2020-08-02T05:36:10.000Z</time>
      </trkpt>
      <trkpt lat="43.61308" lon="3.82435">
        <ele>56.156250322581</ele>
        <time>2020-08-02T05:36:11.000Z</time>
      </trkpt>
      <trkpt lat="43.61309" lon="3.82429">
        <ele>56.055443870968</ele>
        <time>2020-08-02T05:36:12.000Z</time>
      </trkpt>
      <trkpt lat="43.61309" lon="3.82422">
        <ele>56</ele>
        <time>2020-08-02T05:36:13.000Z</time>
      </trkpt>
      <trkpt lat="43.61309" lon="3.82417">
        <ele>56</ele>
        <time>2020-08-02T05:36:14.000Z</time>
      </trkpt>
      <trkpt lat="43.6131" lon="3.82411">
        <ele>56</ele>
        <time>2020-08-02T05:36:15.000Z</time>
      </trkpt>
      <trkpt lat="43.6131" lon="3.82405">
        <ele>56</ele>
        <time>2020-08-02T05:36:16.000Z</time>
      </trkpt>
      <trkpt lat="43.61311" lon="3.82399">
        <ele>56</ele>
        <time>2020-08-02T05:36:17.000Z</time>
      </trkpt>
      <trkpt lat="43.61311" lon="3.82394">
        <ele>56</ele>
        <time>2020-08-02T05:36:18.000Z</time>
      </trkpt>
      <trkpt lat="43.6131" lon="3.82388">
        <ele>56</ele>
        <time>2020-08-02T05:36:19.000Z</time>
      </trkpt>
      <trkpt lat="43.61309" lon="3.82381">
        <ele>56</ele>
        <time>2020-08-02T05:36:20.000Z</time>
      </trkpt>
      <trkpt lat="43.61309" lon="3.82375">
        <ele>56</ele>
        <time>2020-08-02T05:36:21.000Z</time>
      </trkpt>
      <trkpt lat="43.61307" lon="3.82368">
        <ele>56</ele>
        <time>2020-08-02T05:36:22.000Z</time>
      </trkpt>
      <trkpt lat="43.61306" lon="3.82362">
        <ele>55.95500032</ele>
        <time>2020-08-02T05:36:23.000Z</time>
      </trkpt>
      <trkpt lat="43.61305" lon="3.82355">
        <ele>55.85500032</ele>
        <time>2020-08-02T05:36:24.000Z</time>
      </trkpt>
      <trkpt lat="43.61304" lon="3.82349">
        <ele>55.75500032</ele>
        <time>2020-08-02T05:36:25.000Z</time>
      </trkpt>
      <trkpt lat="43.61304" lon="3.82344">
        <ele>55.65500032</ele>
        <time>2020-08-02T05:36:26.000Z</time>
      </trkpt>
      <trkpt lat="43.61304" lon="3.82339">
        <ele>55.55500032</ele>
        <time>2020-08-02T05:36:27.000Z</time>
      </trkpt>
      <trkpt lat="43.61304" lon="3.82334">
        <ele>55.45500032</ele>
        <time>2020-08-02T05:36:28.000Z</time>
      </trkpt>
      <trkpt lat="43.61304" lon="3.82329">
        <ele>55.35500032</ele>
        <time>2020-08-02T05:36:29.000Z</time>
      </trkpt>
      <trkpt lat="43.61306" lon="3.82323">
        <ele>55.25500032</ele>
        <time>2020-08-02T05:36:30.000Z</time>
      </trkpt>
      <trkpt lat="43.61307" lon="3.82317">
        <ele>55.15500032</ele>
        <time>2020-08-02T05:36:31.000Z</time>
      </trkpt>
      <trkpt lat="43.61311" lon="3.82312">
        <ele>55.05500032</ele>
        <time>2020-08-02T05:36:32.000Z</time>
      </trkpt>
      <trkpt lat="43.61315" lon="3.82307">
        <ele>55</ele>
        <time>2020-08-02T05:36:33.000Z</time>
      </trkpt>
      <trkpt lat="43.61319" lon="3.82303">
        <ele>55</ele>
        <time>2020-08-02T05:36:34.000Z</time>
      </trkpt>
      <trkpt lat="43.61322" lon="3.823">
        <ele>55</ele>
        <time>2020-08-02T05:36:35.000Z</time>
      </trkpt>
      <trkpt lat="43.61325" lon="3.82298">
        <ele>55</ele>
        <time>2020-08-02T05:36:36.000Z</time>
      </trkpt>
      <trkpt lat="43.61328" lon="3.82295">
        <ele>55</ele>
        <time>2020-08-02T05:36:37.000Z</time>
      </trkpt>
      <trkpt lat="43.61331" lon="3.82293">
        <ele>55</ele>
        <time>2020-08-02T05:36:38.000Z</time>
      </trkpt>
      <trkpt lat="43.61334" lon="3.8229">
        <ele>55</ele>
        <time>2020-08-02T05:36:39.000Z</time>
      </trkpt>
      <trkpt lat="43.61338" lon="3.82287">
        <ele>55</ele>
        <time>2020-08-02T05:36:40.000Z</time>
      </trkpt>
      <trkpt lat="43.61341" lon="3.82283">
        <ele>55</ele>
        <time>2020-08-02T05:36:41.000Z</time>
      </trkpt>
      <trkpt lat="43.61345" lon="3.82279">
        <ele>55</ele>
        <time>2020-08-02T05:36:42.000Z</time>
      </trkpt>
      <trkpt lat="43.61349" lon="3.82276">
        <ele>54.95500032</ele>
        <time>2020-08-02T05:36:43.000Z</time>
      </trkpt>
      <trkpt lat="43.61354" lon="3.82272">
        <ele>54.85500032</ele>
        <time>2020-08-02T05:36:44.000Z</time>
      </trkpt>
      <trkpt lat="43.61359" lon="3.82269">
        <ele>54.75500032</ele>
        <time>2020-08-02T05:36:45.000Z</time>
      </trkpt>
      <trkpt lat="43.61364" lon="3.82266">
        <ele>54.65500032</ele>
        <time>2020-08-02T05:36:46.000Z</time>
      </trkpt>
      <trkpt lat="43.61369" lon="3.82263">
        <ele>54.55500032</ele>
        <time>2020-08-02T05:36:47.000Z</time>
      </trkpt>
      <trkpt lat="43.61373" lon="3.82261">
        <ele>54.45500032</ele>
        <time>2020-08-02T05:36:48.000Z</time>
      </trkpt>
      <trkpt lat="43.61378" lon="3.82259">
        <ele>54.35500032</ele>
        <time>2020-08-02T05:36:49.000Z</time>
      </trkpt>
      <trkpt lat="43.61383" lon="3.82257">
        <ele>54.25500032</ele>
        <time>2020-08-02T05:36:50.000Z</time>
      </trkpt>
      <trkpt lat="43.61387" lon="3.82256">
        <ele>54.15500032</ele>
        <time>2020-08-02T05:36:51.000Z</time>
      </trkpt>
      <trkpt lat="43.6139" lon="3.82254">
        <ele>54.05500032</ele>
        <time>2020-08-02T05:36:52.000Z</time>
      </trkpt>
      <trkpt lat="43.61394" lon="3.82251">
        <ele>53.91000064</ele>
        <time>2020-08-02T05:36:53.000Z</time>
      </trkpt>
      <trkpt lat="43.61398" lon="3.82247">
        <ele>53.71000064</ele>
        <time>2020-08-02T05:36:54.000Z</time>
      </trkpt>
      <trkpt lat="43.61402" lon="3.82243">
        <ele>53.51000064</ele>
        <time>2020-08-02T05:36:55.000Z</time>
      </trkpt>
      <trkpt lat="43.61407" lon="3.8224">
        <ele>53.31000064</ele>
        <time>2020-08-02T05:36:56.000Z</time>
      </trkpt>
      <trkpt lat="43.61412" lon="3.82236">
        <ele>53.11000064</ele>
        <time>2020-08-02T05:36:57.000Z</time>
      </trkpt>
      <trkpt lat="43.61416" lon="3.82233">
        <ele>52.91000064</ele>
        <time>2020-08-02T05:36:58.000Z</time>
      </trkpt>
      <trkpt lat="43.6142" lon="3.82231">
        <ele>52.71000064</ele>
        <time>2020-08-02T05:36:59.000Z</time>
      </trkpt>
      <trkpt lat="43.61424" lon="3.82228">
        <ele>52.51000064</ele>
        <time>2020-08-02T05:37:00.000Z</time>
      </trkpt>
      <trkpt lat="43.61428" lon="3.82226">
        <ele>52.31000064</ele>
        <time>2020-08-02T05:37:01.000Z</time>
      </trkpt>
      <trkpt lat="43.61432" lon="3.82224">
        <ele>52.11000064</ele>
        <time>2020-08-02T05:37:02.000Z</time>
      </trkpt>
      <trkpt lat="43.61436" lon="3.82222">
        <ele>51.95500032</ele>
        <time>2020-08-02T05:37:03.000Z</time>
      </trkpt>
      <trkpt lat="43.61441" lon="3.82219">
        <ele>51.85500032</ele>
        <time>2020-08-02T05:37:04.000Z</time>
      </trkpt>
      <trkpt lat="43.61447" lon="3.82216">
        <ele>51.75500032</ele>
        <time>2020-08-02T05:37:05.000Z</time>
      </trkpt>
      <trkpt lat="43.61458" lon="3.8221">
        <ele>51.55500032</ele>
        <time>2020-08-02T05:37:07.000Z</time>
      </trkpt>
      <trkpt lat="43.61463" lon="3.82209">
        <ele>51.45500032</ele>
        <time>2020-08-02T05:37:08.000Z</time>
      </trkpt>
      <trkpt lat="43.61469" lon="3.82207">
        <ele>51.35500032</ele>
        <time>2020-08-02T05:37:09.000Z</time>
      </trkpt>
      <trkpt lat="43.61474" lon="3.82205">
        <ele>51.25500032</ele>
        <time>2020-08-02T05:37:10.000Z</time>
      </trkpt>
      <trkpt lat="43.61478" lon="3.82204">
        <ele>51.15500032</ele>
        <time>2020-08-02T05:37:11.000Z</time>
      </trkpt>
      <trkpt lat="43.61483" lon="3.82204">
        <ele>51.05500032</ele>
        <time>2020-08-02T05:37:12.000Z</time>
      </trkpt>
      <trkpt lat="43.61487" lon="3.82203">
        <ele>50.95500032</ele>
        <time>2020-08-02T05:37:13.000Z</time>
      </trkpt>
      <trkpt lat="43.61491" lon="3.82203">
        <ele>50.85500032</ele>
        <time>2020-08-02T05:37:14.000Z</time>
      </trkpt>
      <trkpt lat="43.61495" lon="3.82204">
        <ele>50.75500032</ele>
        <time>2020-08-02T05:37:15.000Z</time>
      </trkpt>
      <trkpt lat="43.61499" lon="3.82204">
        <ele>50.65500032</ele>
        <time>2020-08-02T05:37:16.000Z</time>
      </trkpt>
      <trkpt lat="43.61503" lon="3.82204">
        <ele>50.55500032</ele>
        <time>2020-08-02T05:37:17.000Z</time>
      </trkpt>
      <trkpt lat="43.61507" lon="3.82203">
        <ele>50.45500032</ele>
        <time>2020-08-02T05:37:18.000Z</time>
      </trkpt>
      <trkpt lat="43.6151" lon="3.82201">
        <ele>50.35500032</ele>
        <time>2020-08-02T05:37:19.000Z</time>
      </trkpt>
      <trkpt lat="43.61513" lon="3.82198">
        <ele>50.25500032</ele>
        <time>2020-08-02T05:37:20.000Z</time>
      </trkpt>
      <trkpt lat="43.61515" lon="3.82195">
        <ele>50.15500032</ele>
        <time>2020-08-02T05:37:21.000Z</time>
      </trkpt>
      <trkpt lat="43.61516" lon="3.82191">
        <ele>50.05500032</ele>
        <time>2020-08-02T05:37:22.000Z</time>
      </trkpt>
      <trkpt lat="43.61517" lon="3.82186">
        <ele>49.956353379211</ele>
        <time>2020-08-02T05:37:23.000Z</time>
      </trkpt>
      <trkpt lat="43.61518" lon="3.8218">
        <ele>49.859360198841</ele>
        <time>2020-08-02T05:37:24.000Z</time>
      </trkpt>
      <trkpt lat="43.61518" lon="3.82175">
        <ele>49.76236701847</ele>
        <time>2020-08-02T05:37:25.000Z</time>
      </trkpt>
      <trkpt lat="43.61517" lon="3.82169">
        <ele>49.665373838099</ele>
        <time>2020-08-02T05:37:26.000Z</time>
      </trkpt>
      <trkpt lat="43.61517" lon="3.82163">
        <ele>49.568380657729</ele>
        <time>2020-08-02T05:37:27.000Z</time>
      </trkpt>
      <trkpt lat="43.61517" lon="3.82157">
        <ele>49.471387477358</ele>
        <time>2020-08-02T05:37:28.000Z</time>
      </trkpt>
      <trkpt lat="43.61518" lon="3.82151">
        <ele>49.374394296987</ele>
        <time>2020-08-02T05:37:29.000Z</time>
      </trkpt>
      <trkpt lat="43.61519" lon="3.82145">
        <ele>49.277401116617</ele>
        <time>2020-08-02T05:37:30.000Z</time>
      </trkpt>
      <trkpt lat="43.6152" lon="3.82138">
        <ele>49.180407936246</ele>
        <time>2020-08-02T05:37:31.000Z</time>
      </trkpt>
      <trkpt lat="43.6152" lon="3.82132">
        <ele>49.083414755875</ele>
        <time>2020-08-02T05:37:32.000Z</time>
      </trkpt>
      <trkpt lat="43.61521" lon="3.82125">
        <ele>48.97200128</ele>
        <time>2020-08-02T05:37:33.000Z</time>
      </trkpt>
      <trkpt lat="43.61522" lon="3.82119">
        <ele>48.77200128</ele>
        <time>2020-08-02T05:37:34.000Z</time>
      </trkpt>
      <trkpt lat="43.61524" lon="3.82113">
        <ele>48.57200128</ele>
        <time>2020-08-02T05:37:35.000Z</time>
      </trkpt>
      <trkpt lat="43.61525" lon="3.82107">
        <ele>48.37200128</ele>
        <time>2020-08-02T05:37:36.000Z</time>
      </trkpt>
      <trkpt lat="43.61525" lon="3.82101">
        <ele>48.17200128</ele>
        <time>2020-08-02T05:37:37.000Z</time>
      </trkpt>
      <trkpt lat="43.61526" lon="3.82094">
        <ele>47.97200128</ele>
        <time>2020-08-02T05:37:38.000Z</time>
      </trkpt>
      <trkpt lat="43.61527" lon="3.82087">
        <ele>47.77200128</ele>
        <time>2020-08-02T05:37:39.000Z</time>
      </trkpt>
      <trkpt lat="43.61527" lon="3.8208">
        <ele>47.57200128</ele>
        <time>2020-08-02T05:37:40.000Z</time>
      </trkpt>
      <trkpt lat="43.61527" lon="3.82073">
        <ele>47.37200128</ele>
        <time>2020-08-02T05:37:41.000Z</time>
      </trkpt>
      <trkpt lat="43.61528" lon="3.82064">
        <ele>47.17200128</ele>
        <time>2020-08-02T05:37:42.000Z</time>
      </trkpt>
      <trkpt lat="43.61528" lon="3.82056">
        <ele>46.97194515235</ele>
        <time>2020-08-02T05:37:43.000Z</time>
      </trkpt>
      <trkpt lat="43.61529" lon="3.82049">
        <ele>46.771544222233</ele>
        <time>2020-08-02T05:37:44.000Z</time>
      </trkpt>
      <trkpt lat="43.61529" lon="3.82042">
        <ele>46.571143292116</ele>
        <time>2020-08-02T05:37:45.000Z</time>
      </trkpt>
      <trkpt lat="43.6153" lon="3.82035">
        <ele>46.370742361999</ele>
        <time>2020-08-02T05:37:46.000Z</time>
      </trkpt>
      <trkpt lat="43.61531" lon="3.82028">
        <ele>46.170341431882</ele>
        <time>2020-08-02T05:37:47.000Z</time>
      </trkpt>
      <trkpt lat="43.61532" lon="3.82021">
        <ele>45.969940501765</ele>
        <time>2020-08-02T05:37:48.000Z</time>
      </trkpt>
      <trkpt lat="43.61533" lon="3.82014">
        <ele>45.769539571649</ele>
        <time>2020-08-02T05:37:49.000Z</time>
      </trkpt>
      <trkpt lat="43.61535" lon="3.82007">
        <ele>45.569138641532</ele>
        <time>2020-08-02T05:37:50.000Z</time>
      </trkpt>
      <trkpt lat="43.61536" lon="3.82001">
        <ele>45.368737711415</ele>
        <time>2020-08-02T05:37:51.000Z</time>
      </trkpt>
      <trkpt lat="43.61537" lon="3.81994">
        <ele>45.168336781298</ele>
        <time>2020-08-02T05:37:52.000Z</time>
      </trkpt>
      <trkpt lat="43.61539" lon="3.81987">
        <ele>44.967145768966</ele>
        <time>2020-08-02T05:37:53.000Z</time>
      </trkpt>
      <trkpt lat="43.6154" lon="3.8198">
        <ele>44.761806825007</ele>
        <time>2020-08-02T05:37:54.000Z</time>
      </trkpt>
      <trkpt lat="43.61541" lon="3.81973">
        <ele>44.556467881047</ele>
        <time>2020-08-02T05:37:55.000Z</time>
      </trkpt>
      <trkpt lat="43.61541" lon="3.81966">
        <ele>44.351128937087</ele>
        <time>2020-08-02T05:37:56.000Z</time>
      </trkpt>
      <trkpt lat="43.61542" lon="3.81958">
        <ele>44.145789993127</ele>
        <time>2020-08-02T05:37:57.000Z</time>
      </trkpt>
      <trkpt lat="43.61544" lon="3.81952">
        <ele>43.940451049167</ele>
        <time>2020-08-02T05:37:58.000Z</time>
      </trkpt>
      <trkpt lat="43.61545" lon="3.81945">
        <ele>43.735112105207</ele>
        <time>2020-08-02T05:37:59.000Z</time>
      </trkpt>
      <trkpt lat="43.61547" lon="3.81938">
        <ele>43.529773161247</ele>
        <time>2020-08-02T05:38:00.000Z</time>
      </trkpt>
      <trkpt lat="43.61548" lon="3.81931">
        <ele>43.324434217287</ele>
        <time>2020-08-02T05:38:01.000Z</time>
      </trkpt>
      <trkpt lat="43.6155" lon="3.81923">
        <ele>43.119095273328</ele>
        <time>2020-08-02T05:38:02.000Z</time>
      </trkpt>
      <trkpt lat="43.61551" lon="3.81916">
        <ele>42.959143397176</ele>
        <time>2020-08-02T05:38:03.000Z</time>
      </trkpt>
      <trkpt lat="43.61551" lon="3.81909">
        <ele>42.861867253706</ele>
        <time>2020-08-02T05:38:04.000Z</time>
      </trkpt>
      <trkpt lat="43.61552" lon="3.81902">
        <ele>42.764591110237</ele>
        <time>2020-08-02T05:38:05.000Z</time>
      </trkpt>
      <trkpt lat="43.61553" lon="3.81896">
        <ele>42.667314966767</ele>
        <time>2020-08-02T05:38:06.000Z</time>
      </trkpt>
      <trkpt lat="43.61553" lon="3.81889">
        <ele>42.570038823298</ele>
        <time>2020-08-02T05:38:07.000Z</time>
      </trkpt>
      <trkpt lat="43.61553" lon="3.81882">
        <ele>42.472762679829</ele>
        <time>2020-08-02T05:38:08.000Z</time>
      </trkpt>
      <trkpt lat="43.61553" lon="3.81875">
        <ele>42.375486536359</ele>
        <time>2020-08-02T05:38:09.000Z</time>
      </trkpt>
      <trkpt lat="43.61553" lon="3.8187">
        <ele>42.27821039289</ele>
        <time>2020-08-02T05:38:10.000Z</time>
      </trkpt>
      <trkpt lat="43.61552" lon="3.81865">
        <ele>42.18093424942</ele>
        <time>2020-08-02T05:38:11.000Z</time>
      </trkpt>
      <trkpt lat="43.61552" lon="3.8186">
        <ele>42.083658105951</ele>
        <time>2020-08-02T05:38:12.000Z</time>
      </trkpt>
      <trkpt lat="43.61551" lon="3.81856">
        <ele>41.985552771287</ele>
        <time>2020-08-02T05:38:13.000Z</time>
      </trkpt>
      <trkpt lat="43.6155" lon="3.81851">
        <ele>41.8823535628</ele>
        <time>2020-08-02T05:38:14.000Z</time>
      </trkpt>
      <trkpt lat="43.61549" lon="3.81846">
        <ele>41.779154354313</ele>
        <time>2020-08-02T05:38:15.000Z</time>
      </trkpt>
      <trkpt lat="43.61547" lon="3.81841">
        <ele>41.675955145826</ele>
        <time>2020-08-02T05:38:16.000Z</time>
      </trkpt>
      <trkpt lat="43.61546" lon="3.81836">
        <ele>41.572755937339</ele>
        <time>2020-08-02T05:38:17.000Z</time>
      </trkpt>
      <trkpt lat="43.61544" lon="3.8183">
        <ele>41.469556728853</ele>
        <time>2020-08-02T05:38:18.000Z</time>
      </trkpt>
      <trkpt lat="43.61543" lon="3.81825">
        <ele>41.366357520366</ele>
        <time>2020-08-02T05:38:19.000Z</time>
      </trkpt>
      <trkpt lat="43.61541" lon="3.81819">
        <ele>41.263158311879</ele>
        <time>2020-08-02T05:38:20.000Z</time>
      </trkpt>
      <trkpt lat="43.6154" lon="3.81814">
        <ele>41.159959103392</ele>
        <time>2020-08-02T05:38:21.000Z</time>
      </trkpt>
      <trkpt lat="43.61539" lon="3.81809">
        <ele>41.056759894905</ele>
        <time>2020-08-02T05:38:22.000Z</time>
      </trkpt>
      <trkpt lat="43.61537" lon="3.81804">
        <ele>41.04499968</ele>
        <time>2020-08-02T05:38:23.000Z</time>
      </trkpt>
      <trkpt lat="43.61536" lon="3.81799">
        <ele>41.14499968</ele>
        <time>2020-08-02T05:38:24.000Z</time>
      </trkpt>
      <trkpt lat="43.61534" lon="3.81794">
        <ele>41.24499968</ele>
        <time>2020-08-02T05:38:25.000Z</time>
      </trkpt>
      <trkpt lat="43.61533" lon="3.81789">
        <ele>41.34499968</ele>
        <time>2020-08-02T05:38:26.000Z</time>
      </trkpt>
      <trkpt lat="43.61532" lon="3.81784">
        <ele>41.44499968</ele>
        <time>2020-08-02T05:38:27.000Z</time>
      </trkpt>
      <trkpt lat="43.6153" lon="3.81779">
        <ele>41.54499968</ele>
        <time>2020-08-02T05:38:28.000Z</time>
      </trkpt>
      <trkpt lat="43.61529" lon="3.81774">
        <ele>41.64499968</ele>
        <time>2020-08-02T05:38:29.000Z</time>
      </trkpt>
      <trkpt lat="43.61528" lon="3.81769">
        <ele>41.74499968</ele>
        <time>2020-08-02T05:38:30.000Z</time>
      </trkpt>
      <trkpt lat="43.61526" lon="3.81764">
        <ele>41.84499968</ele>
        <time>2020-08-02T05:38:31.000Z</time>
      </trkpt>
      <trkpt lat="43.61525" lon="3.8176">
        <ele>41.94499968</ele>
        <time>2020-08-02T05:38:32.000Z</time>
      </trkpt>
      <trkpt lat="43.61524" lon="3.81755">
        <ele>42</ele>
        <time>2020-08-02T05:38:33.000Z</time>
      </trkpt>
      <trkpt lat="43.61523" lon="3.8175">
        <ele>42</ele>
        <time>2020-08-02T05:38:34.000Z</time>
      </trkpt>
      <trkpt lat="43.61521" lon="3.81745">
        <ele>42</ele>
        <time>2020-08-02T05:38:35.000Z</time>
      </trkpt>
      <trkpt lat="43.6152" lon="3.8174">
        <ele>42</ele>
        <time>2020-08-02T05:38:36.000Z</time>
      </trkpt>
      <trkpt lat="43.61519" lon="3.81735">
        <ele>42</ele>
        <time>2020-08-02T05:38:37.000Z</time>
      </trkpt>
      <trkpt lat="43.61517" lon="3.8173">
        <ele>42</ele>
        <time>2020-08-02T05:38:38.000Z</time>
      </trkpt>
      <trkpt lat="43.61516" lon="3.81725">
        <ele>42</ele>
        <time>2020-08-02T05:38:39.000Z</time>
      </trkpt>
      <trkpt lat="43.61515" lon="3.8172">
        <ele>42</ele>
        <time>2020-08-02T05:38:40.000Z</time>
      </trkpt>
      <trkpt lat="43.61513" lon="3.81715">
        <ele>42</ele>
        <time>2020-08-02T05:38:41.000Z</time>
      </trkpt>
      <trkpt lat="43.61512" lon="3.8171">
        <ele>42</ele>
        <time>2020-08-02T05:38:42.000Z</time>
      </trkpt>
      <trkpt lat="43.6151" lon="3.81705">
        <ele>42.04499968</ele>
        <time>2020-08-02T05:38:43.000Z</time>
      </trkpt>
      <trkpt lat="43.61509" lon="3.81699">
        <ele>42.14499968</ele>
        <time>2020-08-02T05:38:44.000Z</time>
      </trkpt>
      <trkpt lat="43.61508" lon="3.81694">
        <ele>42.24499968</ele>
        <time>2020-08-02T05:38:45.000Z</time>
      </trkpt>
      <trkpt lat="43.61507" lon="3.81689">
        <ele>42.34499968</ele>
        <time>2020-08-02T05:38:46.000Z</time>
      </trkpt>
      <trkpt lat="43.61505" lon="3.81684">
        <ele>42.44499968</ele>
        <time>2020-08-02T05:38:47.000Z</time>
      </trkpt>
      <trkpt lat="43.61504" lon="3.81679">
        <ele>42.54499968</ele>
        <time>2020-08-02T05:38:48.000Z</time>
      </trkpt>
      <trkpt lat="43.61502" lon="3.81674">
        <ele>42.64499968</ele>
        <time>2020-08-02T05:38:49.000Z</time>
      </trkpt>
      <trkpt lat="43.615" lon="3.81669">
        <ele>42.74499968</ele>
        <time>2020-08-02T05:38:50.000Z</time>
      </trkpt>
      <trkpt lat="43.61499" lon="3.81664">
        <ele>42.84499968</ele>
        <time>2020-08-02T05:38:51.000Z</time>
      </trkpt>
      <trkpt lat="43.61497" lon="3.81658">
        <ele>42.94499968</ele>
        <time>2020-08-02T05:38:52.000Z</time>
      </trkpt>
      <trkpt lat="43.61496" lon="3.81653">
        <ele>42.957627394427</ele>
        <time>2020-08-02T05:38:53.000Z</time>
      </trkpt>
      <trkpt lat="43.61494" lon="3.81647">
        <ele>42.863465379113</ele>
        <time>2020-08-02T05:38:54.000Z</time>
      </trkpt>
      <trkpt lat="43.61492" lon="3.81641">
        <ele>42.769303363799</ele>
        <time>2020-08-02T05:38:55.000Z</time>
      </trkpt>
      <trkpt lat="43.61491" lon="3.81635">
        <ele>42.675141348484</ele>
        <time>2020-08-02T05:38:56.000Z</time>
      </trkpt>
      <trkpt lat="43.61489" lon="3.8163">
        <ele>42.58097933317</ele>
        <time>2020-08-02T05:38:57.000Z</time>
      </trkpt>
      <trkpt lat="43.61487" lon="3.81624">
        <ele>42.486817317856</ele>
        <time>2020-08-02T05:38:58.000Z</time>
      </trkpt>
      <trkpt lat="43.61485" lon="3.81619">
        <ele>42.392655302542</ele>
        <time>2020-08-02T05:38:59.000Z</time>
      </trkpt>
      <trkpt lat="43.61483" lon="3.81614">
        <ele>42.298493287228</ele>
        <time>2020-08-02T05:39:00.000Z</time>
      </trkpt>
      <trkpt lat="43.61482" lon="3.81609">
        <ele>42.204331271913</ele>
        <time>2020-08-02T05:39:01.000Z</time>
      </trkpt>
      <trkpt lat="43.6148" lon="3.81604">
        <ele>42.110169256599</ele>
        <time>2020-08-02T05:39:02.000Z</time>
      </trkpt>
      <trkpt lat="43.61479" lon="3.81599">
        <ele>42.016007241285</ele>
        <time>2020-08-02T05:39:03.000Z</time>
      </trkpt>
      <trkpt lat="43.61478" lon="3.81594">
        <ele>42</ele>
        <time>2020-08-02T05:39:04.000Z</time>
      </trkpt>
      <trkpt lat="43.61477" lon="3.81589">
        <ele>42</ele>
        <time>2020-08-02T05:39:05.000Z</time>
      </trkpt>
      <trkpt lat="43.61477" lon="3.81585">
        <ele>42</ele>
        <time>2020-08-02T05:39:06.000Z</time>
      </trkpt>
      <trkpt lat="43.61477" lon="3.81581">
        <ele>42</ele>
        <time>2020-08-02T05:39:07.000Z</time>
      </trkpt>
      <trkpt lat="43.61476" lon="3.81577">
        <ele>42</ele>
        <time>2020-08-02T05:39:08.000Z</time>
      </trkpt>
      <trkpt lat="43.61476" lon="3.81574">
        <ele>42</ele>
        <time>2020-08-02T05:39:09.000Z</time>
      </trkpt>
      <trkpt lat="43.61475" lon="3.81571">
        <ele>42</ele>
        <time>2020-08-02T05:39:10.000Z</time>
      </trkpt>
      <trkpt lat="43.61474" lon="3.81569">
        <ele>42</ele>
        <time>2020-08-02T05:39:11.000Z</time>
      </trkpt>
      <trkpt lat="43.61473" lon="3.81565">
        <ele>41.982053206125</ele>
        <time>2020-08-02T05:39:13.000Z</time>
      </trkpt>
      <trkpt lat="43.61471" lon="3.81563">
        <ele>41.882352340625</ele>
        <time>2020-08-02T05:39:14.000Z</time>
      </trkpt>
      <trkpt lat="43.61469" lon="3.81562">
        <ele>41.682950609627</ele>
        <time>2020-08-02T05:39:16.000Z</time>
      </trkpt>
      <trkpt lat="43.61466" lon="3.81567">
        <ele>41.483548878628</ele>
        <time>2020-08-02T05:39:18.000Z</time>
      </trkpt>
      <trkpt lat="43.61466" lon="3.81571">
        <ele>41.383848013129</ele>
        <time>2020-08-02T05:39:19.000Z</time>
      </trkpt>
      <trkpt lat="43.61465" lon="3.81575">
        <ele>41.28414714763</ele>
        <time>2020-08-02T05:39:20.000Z</time>
      </trkpt>
      <trkpt lat="43.61464" lon="3.81579">
        <ele>41.184446282131</ele>
        <time>2020-08-02T05:39:21.000Z</time>
      </trkpt>
      <trkpt lat="43.61463" lon="3.81584">
        <ele>41.084745416632</ele>
        <time>2020-08-02T05:39:22.000Z</time>
      </trkpt>
      <trkpt lat="43.61462" lon="3.81589">
        <ele>40.969071525561</ele>
        <time>2020-08-02T05:39:23.000Z</time>
      </trkpt>
      <trkpt lat="43.6146" lon="3.81594">
        <ele>40.762886094591</ele>
        <time>2020-08-02T05:39:24.000Z</time>
      </trkpt>
      <trkpt lat="43.61459" lon="3.81599">
        <ele>40.55670066362</ele>
        <time>2020-08-02T05:39:25.000Z</time>
      </trkpt>
      <trkpt lat="43.61457" lon="3.81605">
        <ele>40.35051523265</ele>
        <time>2020-08-02T05:39:26.000Z</time>
      </trkpt>
      <trkpt lat="43.61456" lon="3.81611">
        <ele>40.144329801679</ele>
        <time>2020-08-02T05:39:27.000Z</time>
      </trkpt>
      <trkpt lat="43.61455" lon="3.81616">
        <ele>39.938144370709</ele>
        <time>2020-08-02T05:39:28.000Z</time>
      </trkpt>
      <trkpt lat="43.61454" lon="3.81622">
        <ele>39.731958939738</ele>
        <time>2020-08-02T05:39:29.000Z</time>
      </trkpt>
      <trkpt lat="43.61453" lon="3.81627">
        <ele>39.525773508768</ele>
        <time>2020-08-02T05:39:30.000Z</time>
      </trkpt>
      <trkpt lat="43.61453" lon="3.81632">
        <ele>39.319588077798</ele>
        <time>2020-08-02T05:39:31.000Z</time>
      </trkpt>
      <trkpt lat="43.61452" lon="3.81638">
        <ele>39.113402646827</ele>
        <time>2020-08-02T05:39:32.000Z</time>
      </trkpt>
      <trkpt lat="43.61452" lon="3.81643">
        <ele>38.955357460318</ele>
        <time>2020-08-02T05:39:33.000Z</time>
      </trkpt>
      <trkpt lat="43.61453" lon="3.81649">
        <ele>38.856151111111</ele>
        <time>2020-08-02T05:39:34.000Z</time>
      </trkpt>
      <trkpt lat="43.61454" lon="3.81655">
        <ele>38.756944761905</ele>
        <time>2020-08-02T05:39:35.000Z</time>
      </trkpt>
      <trkpt lat="43.61454" lon="3.81661">
        <ele>38.657738412698</ele>
        <time>2020-08-02T05:39:36.000Z</time>
      </trkpt>
      <trkpt lat="43.61454" lon="3.81667">
        <ele>38.558532063492</ele>
        <time>2020-08-02T05:39:37.000Z</time>
      </trkpt>
      <trkpt lat="43.61454" lon="3.81673">
        <ele>38.459325714286</ele>
        <time>2020-08-02T05:39:38.000Z</time>
      </trkpt>
      <trkpt lat="43.61453" lon="3.81679">
        <ele>38.360119365079</ele>
        <time>2020-08-02T05:39:39.000Z</time>
      </trkpt>
      <trkpt lat="43.6145" lon="3.81684">
        <ele>38.260913015873</ele>
        <time>2020-08-02T05:39:40.000Z</time>
      </trkpt>
      <trkpt lat="43.61445" lon="3.81687">
        <ele>38.161706666667</ele>
        <time>2020-08-02T05:39:41.000Z</time>
      </trkpt>
      <trkpt lat="43.61441" lon="3.81689">
        <ele>38.06250031746</ele>
        <time>2020-08-02T05:39:42.000Z</time>
      </trkpt>
      <trkpt lat="43.61437" lon="3.8169">
        <ele>38</ele>
        <time>2020-08-02T05:39:43.000Z</time>
      </trkpt>
      <trkpt lat="43.61434" lon="3.8169">
        <ele>38</ele>
        <time>2020-08-02T05:39:44.000Z</time>
      </trkpt>
      <trkpt lat="43.6143" lon="3.81691">
        <ele>38</ele>
        <time>2020-08-02T05:39:45.000Z</time>
      </trkpt>
      <trkpt lat="43.61426" lon="3.81692">
        <ele>38</ele>
        <time>2020-08-02T05:39:46.000Z</time>
      </trkpt>
      <trkpt lat="43.61423" lon="3.81693">
        <ele>38</ele>
        <time>2020-08-02T05:39:47.000Z</time>
      </trkpt>
      <trkpt lat="43.61421" lon="3.81693">
        <ele>38</ele>
        <time>2020-08-02T05:39:48.000Z</time>
      </trkpt>
      <trkpt lat="43.61419" lon="3.81694">
        <ele>38</ele>
        <time>2020-08-02T05:39:49.000Z</time>
      </trkpt>
      <trkpt lat="43.61418" lon="3.81696">
        <ele>38</ele>
        <time>2020-08-02T05:39:50.000Z</time>
      </trkpt>
      <trkpt lat="43.61417" lon="3.81698">
        <ele>38</ele>
        <time>2020-08-02T05:39:51.000Z</time>
      </trkpt>
      <trkpt lat="43.61416" lon="3.81702">
        <ele>38</ele>
        <time>2020-08-02T05:39:52.000Z</time>
      </trkpt>
      <trkpt lat="43.61415" lon="3.81706">
        <ele>38</ele>
        <time>2020-08-02T05:39:53.000Z</time>
      </trkpt>
      <trkpt lat="43.61414" lon="3.8171">
        <ele>38</ele>
        <time>2020-08-02T05:39:54.000Z</time>
      </trkpt>
      <trkpt lat="43.61412" lon="3.81715">
        <ele>38</ele>
        <time>2020-08-02T05:39:55.000Z</time>
      </trkpt>
      <trkpt lat="43.6141" lon="3.81719">
        <ele>38</ele>
        <time>2020-08-02T05:39:56.000Z</time>
      </trkpt>
      <trkpt lat="43.61407" lon="3.81723">
        <ele>38</ele>
        <time>2020-08-02T05:39:57.000Z</time>
      </trkpt>
      <trkpt lat="43.61405" lon="3.81727">
        <ele>38</ele>
        <time>2020-08-02T05:39:58.000Z</time>
      </trkpt>
      <trkpt lat="43.61403" lon="3.8173">
        <ele>38</ele>
        <time>2020-08-02T05:39:59.000Z</time>
      </trkpt>
      <trkpt lat="43.614" lon="3.81733">
        <ele>38</ele>
        <time>2020-08-02T05:40:00.000Z</time>
      </trkpt>
      <trkpt lat="43.61397" lon="3.81736">
        <ele>38</ele>
        <time>2020-08-02T05:40:01.000Z</time>
      </trkpt>
      <trkpt lat="43.61394" lon="3.81737">
        <ele>38</ele>
        <time>2020-08-02T05:40:02.000Z</time>
      </trkpt>
      <trkpt lat="43.61392" lon="3.8174">
        <ele>38</ele>
        <time>2020-08-02T05:40:03.000Z</time>
      </trkpt>
      <trkpt lat="43.61387" lon="3.81742">
        <ele>38</ele>
        <time>2020-08-02T05:40:04.000Z</time>
      </trkpt>
      <trkpt lat="43.61381" lon="3.81744">
        <ele>38</ele>
        <time>2020-08-02T05:40:05.000Z</time>
      </trkpt>
      <trkpt lat="43.61376" lon="3.81746">
        <ele>38</ele>
        <time>2020-08-02T05:40:06.000Z</time>
      </trkpt>
      <trkpt lat="43.61371" lon="3.81748">
        <ele>38</ele>
        <time>2020-08-02T05:40:07.000Z</time>
      </trkpt>
      <trkpt lat="43.61366" lon="3.81749">
        <ele>38</ele>
        <time>2020-08-02T05:40:08.000Z</time>
      </trkpt>
      <trkpt lat="43.61361" lon="3.81751">
        <ele>38</ele>
        <time>2020-08-02T05:40:09.000Z</time>
      </trkpt>
      <trkpt lat="43.61357" lon="3.81752">
        <ele>38</ele>
        <time>2020-08-02T05:40:10.000Z</time>
      </trkpt>
      <trkpt lat="43.61352" lon="3.81753">
        <ele>38</ele>
        <time>2020-08-02T05:40:11.000Z</time>
      </trkpt>
      <trkpt lat="43.61348" lon="3.81755">
        <ele>38</ele>
        <time>2020-08-02T05:40:12.000Z</time>
      </trkpt>
      <trkpt lat="43.61344" lon="3.81756">
        <ele>38.029471219512</ele>
        <time>2020-08-02T05:40:13.000Z</time>
      </trkpt>
      <trkpt lat="43.6134" lon="3.81756">
        <ele>38.131097235772</ele>
        <time>2020-08-02T05:40:14.000Z</time>
      </trkpt>
      <trkpt lat="43.61335" lon="3.81757">
        <ele>38.232723252032</ele>
        <time>2020-08-02T05:40:15.000Z</time>
      </trkpt>
      <trkpt lat="43.61331" lon="3.81758">
        <ele>38.334349268293</ele>
        <time>2020-08-02T05:40:16.000Z</time>
      </trkpt>
      <trkpt lat="43.61327" lon="3.81758">
        <ele>38.435975284553</ele>
        <time>2020-08-02T05:40:17.000Z</time>
      </trkpt>
      <trkpt lat="43.61323" lon="3.81758">
        <ele>38.537601300813</ele>
        <time>2020-08-02T05:40:18.000Z</time>
      </trkpt>
      <trkpt lat="43.61319" lon="3.81758">
        <ele>38.639227317073</ele>
        <time>2020-08-02T05:40:19.000Z</time>
      </trkpt>
      <trkpt lat="43.61316" lon="3.81758">
        <ele>38.740853333333</ele>
        <time>2020-08-02T05:40:20.000Z</time>
      </trkpt>
      <trkpt lat="43.61312" lon="3.81759">
        <ele>38.842479349594</ele>
        <time>2020-08-02T05:40:21.000Z</time>
      </trkpt>
      <trkpt lat="43.61308" lon="3.81759">
        <ele>38.944105365854</ele>
        <time>2020-08-02T05:40:22.000Z</time>
      </trkpt>
      <trkpt lat="43.61304" lon="3.81759">
        <ele>39.04499968</ele>
        <time>2020-08-02T05:40:23.000Z</time>
      </trkpt>
      <trkpt lat="43.613" lon="3.81759">
        <ele>39.14499968</ele>
        <time>2020-08-02T05:40:24.000Z</time>
      </trkpt>
      <trkpt lat="43.61297" lon="3.81759">
        <ele>39.24499968</ele>
        <time>2020-08-02T05:40:25.000Z</time>
      </trkpt>
      <trkpt lat="43.61293" lon="3.81759">
        <ele>39.34499968</ele>
        <time>2020-08-02T05:40:26.000Z</time>
      </trkpt>
      <trkpt lat="43.61289" lon="3.8176">
        <ele>39.44499968</ele>
        <time>2020-08-02T05:40:27.000Z</time>
      </trkpt>
      <trkpt lat="43.61286" lon="3.8176">
        <ele>39.54499968</ele>
        <time>2020-08-02T05:40:28.000Z</time>
      </trkpt>
      <trkpt lat="43.61282" lon="3.81761">
        <ele>39.64499968</ele>
        <time>2020-08-02T05:40:29.000Z</time>
      </trkpt>
      <trkpt lat="43.61279" lon="3.81762">
        <ele>39.74499968</ele>
        <time>2020-08-02T05:40:30.000Z</time>
      </trkpt>
      <trkpt lat="43.61276" lon="3.81763">
        <ele>39.84499968</ele>
        <time>2020-08-02T05:40:31.000Z</time>
      </trkpt>
      <trkpt lat="43.61272" lon="3.81764">
        <ele>39.94499968</ele>
        <time>2020-08-02T05:40:32.000Z</time>
      </trkpt>
      <trkpt lat="43.61269" lon="3.81766">
        <ele>40</ele>
        <time>2020-08-02T05:40:33.000Z</time>
      </trkpt>
      <trkpt lat="43.61266" lon="3.81768">
        <ele>40</ele>
        <time>2020-08-02T05:40:34.000Z</time>
      </trkpt>
      <trkpt lat="43.61262" lon="3.8177">
        <ele>40</ele>
        <time>2020-08-02T05:40:35.000Z</time>
      </trkpt>
      <trkpt lat="43.61258" lon="3.81772">
        <ele>40</ele>
        <time>2020-08-02T05:40:36.000Z</time>
      </trkpt>
      <trkpt lat="43.61254" lon="3.81775">
        <ele>40</ele>
        <time>2020-08-02T05:40:37.000Z</time>
      </trkpt>
      <trkpt lat="43.6125" lon="3.81777">
        <ele>40</ele>
        <time>2020-08-02T05:40:38.000Z</time>
      </trkpt>
      <trkpt lat="43.6124" lon="3.81783">
        <ele>40</ele>
        <time>2020-08-02T05:40:40.000Z</time>
      </trkpt>
      <trkpt lat="43.61235" lon="3.81785">
        <ele>40</ele>
        <time>2020-08-02T05:40:41.000Z</time>
      </trkpt>
      <trkpt lat="43.6123" lon="3.81789">
        <ele>40</ele>
        <time>2020-08-02T05:40:42.000Z</time>
      </trkpt>
      <trkpt lat="43.61225" lon="3.81792">
        <ele>40</ele>
        <time>2020-08-02T05:40:43.000Z</time>
      </trkpt>
      <trkpt lat="43.61222" lon="3.81795">
        <ele>40</ele>
        <time>2020-08-02T05:40:44.000Z</time>
      </trkpt>
      <trkpt lat="43.61219" lon="3.81798">
        <ele>40</ele>
        <time>2020-08-02T05:40:45.000Z</time>
      </trkpt>
      <trkpt lat="43.61216" lon="3.81801">
        <ele>40</ele>
        <time>2020-08-02T05:40:46.000Z</time>
      </trkpt>
      <trkpt lat="43.61213" lon="3.81804">
        <ele>40</ele>
        <time>2020-08-02T05:40:47.000Z</time>
      </trkpt>
      <trkpt lat="43.61209" lon="3.81807">
        <ele>40</ele>
        <time>2020-08-02T05:40:48.000Z</time>
      </trkpt>
      <trkpt lat="43.61206" lon="3.8181">
        <ele>40</ele>
        <time>2020-08-02T05:40:49.000Z</time>
      </trkpt>
      <trkpt lat="43.61202" lon="3.81813">
        <ele>40</ele>
        <time>2020-08-02T05:40:50.000Z</time>
      </trkpt>
      <trkpt lat="43.61199" lon="3.81816">
        <ele>40</ele>
        <time>2020-08-02T05:40:51.000Z</time>
      </trkpt>
      <trkpt lat="43.61195" lon="3.81819">
        <ele>40</ele>
        <time>2020-08-02T05:40:52.000Z</time>
      </trkpt>
      <trkpt lat="43.6119" lon="3.81822">
        <ele>39.95500032</ele>
        <time>2020-08-02T05:40:53.000Z</time>
      </trkpt>
      <trkpt lat="43.61185" lon="3.81825">
        <ele>39.85500032</ele>
        <time>2020-08-02T05:40:54.000Z</time>
      </trkpt>
      <trkpt lat="43.61181" lon="3.81828">
        <ele>39.75500032</ele>
        <time>2020-08-02T05:40:55.000Z</time>
      </trkpt>
      <trkpt lat="43.61176" lon="3.8183">
        <ele>39.65500032</ele>
        <time>2020-08-02T05:40:56.000Z</time>
      </trkpt>
      <trkpt lat="43.61173" lon="3.81833">
        <ele>39.55500032</ele>
        <time>2020-08-02T05:40:57.000Z</time>
      </trkpt>
      <trkpt lat="43.61169" lon="3.81836">
        <ele>39.45500032</ele>
        <time>2020-08-02T05:40:58.000Z</time>
      </trkpt>
      <trkpt lat="43.61165" lon="3.81839">
        <ele>39.35500032</ele>
        <time>2020-08-02T05:40:59.000Z</time>
      </trkpt>
      <trkpt lat="43.61162" lon="3.81842">
        <ele>39.25500032</ele>
        <time>2020-08-02T05:41:00.000Z</time>
      </trkpt>
      <trkpt lat="43.61158" lon="3.81844">
        <ele>39.15500032</ele>
        <time>2020-08-02T05:41:01.000Z</time>
      </trkpt>
      <trkpt lat="43.61154" lon="3.81847">
        <ele>39.05500032</ele>
        <time>2020-08-02T05:41:02.000Z</time>
      </trkpt>
      <trkpt lat="43.6115" lon="3.8185">
        <ele>38.95500032</ele>
        <time>2020-08-02T05:41:03.000Z</time>
      </trkpt>
      <trkpt lat="43.61147" lon="3.81852">
        <ele>38.85500032</ele>
        <time>2020-08-02T05:41:04.000Z</time>
      </trkpt>
      <trkpt lat="43.61143" lon="3.81855">
        <ele>38.75500032</ele>
        <time>2020-08-02T05:41:05.000Z</time>
      </trkpt>
      <trkpt lat="43.61139" lon="3.81858">
        <ele>38.65500032</ele>
        <time>2020-08-02T05:41:06.000Z</time>
      </trkpt>
      <trkpt lat="43.61135" lon="3.81861">
        <ele>38.55500032</ele>
        <time>2020-08-02T05:41:07.000Z</time>
      </trkpt>
      <trkpt lat="43.61132" lon="3.81863">
        <ele>38.45500032</ele>
        <time>2020-08-02T05:41:08.000Z</time>
      </trkpt>
      <trkpt lat="43.61129" lon="3.81866">
        <ele>38.35500032</ele>
        <time>2020-08-02T05:41:09.000Z</time>
      </trkpt>
      <trkpt lat="43.61126" lon="3.81868">
        <ele>38.25500032</ele>
        <time>2020-08-02T05:41:10.000Z</time>
      </trkpt>
      <trkpt lat="43.61122" lon="3.8187">
        <ele>38.15500032</ele>
        <time>2020-08-02T05:41:11.000Z</time>
      </trkpt>
      <trkpt lat="43.61118" lon="3.81872">
        <ele>38.05500032</ele>
        <time>2020-08-02T05:41:12.000Z</time>
      </trkpt>
      <trkpt lat="43.61114" lon="3.81873">
        <ele>38</ele>
        <time>2020-08-02T05:41:13.000Z</time>
      </trkpt>
      <trkpt lat="43.6111" lon="3.81874">
        <ele>38</ele>
        <time>2020-08-02T05:41:14.000Z</time>
      </trkpt>
      <trkpt lat="43.61105" lon="3.81875">
        <ele>38</ele>
        <time>2020-08-02T05:41:15.000Z</time>
      </trkpt>
      <trkpt lat="43.61101" lon="3.81877">
        <ele>38</ele>
        <time>2020-08-02T05:41:16.000Z</time>
      </trkpt>
      <trkpt lat="43.61097" lon="3.81879">
        <ele>38</ele>
        <time>2020-08-02T05:41:17.000Z</time>
      </trkpt>
      <trkpt lat="43.61093" lon="3.8188">
        <ele>38</ele>
        <time>2020-08-02T05:41:18.000Z</time>
      </trkpt>
      <trkpt lat="43.61089" lon="3.81881">
        <ele>38</ele>
        <time>2020-08-02T05:41:19.000Z</time>
      </trkpt>
      <trkpt lat="43.61086" lon="3.81882">
        <ele>38</ele>
        <time>2020-08-02T05:41:20.000Z</time>
      </trkpt>
      <trkpt lat="43.61082" lon="3.81884">
        <ele>38</ele>
        <time>2020-08-02T05:41:21.000Z</time>
      </trkpt>
      <trkpt lat="43.61078" lon="3.81884">
        <ele>38</ele>
        <time>2020-08-02T05:41:22.000Z</time>
      </trkpt>
      <trkpt lat="43.61075" lon="3.81886">
        <ele>37.95500032</ele>
        <time>2020-08-02T05:41:23.000Z</time>
      </trkpt>
      <trkpt lat="43.61071" lon="3.81887">
        <ele>37.85500032</ele>
        <time>2020-08-02T05:41:24.000Z</time>
      </trkpt>
      <trkpt lat="43.61067" lon="3.81889">
        <ele>37.75500032</ele>
        <time>2020-08-02T05:41:25.000Z</time>
      </trkpt>
      <trkpt lat="43.61064" lon="3.8189">
        <ele>37.65500032</ele>
        <time>2020-08-02T05:41:26.000Z</time>
      </trkpt>
      <trkpt lat="43.6106" lon="3.81892">
        <ele>37.55500032</ele>
        <time>2020-08-02T05:41:27.000Z</time>
      </trkpt>
      <trkpt lat="43.61056" lon="3.81893">
        <ele>37.45500032</ele>
        <time>2020-08-02T05:41:28.000Z</time>
      </trkpt>
      <trkpt lat="43.61052" lon="3.81895">
        <ele>37.35500032</ele>
        <time>2020-08-02T05:41:29.000Z</time>
      </trkpt>
      <trkpt lat="43.61048" lon="3.81896">
        <ele>37.25500032</ele>
        <time>2020-08-02T05:41:30.000Z</time>
      </trkpt>
      <trkpt lat="43.61044" lon="3.81897">
        <ele>37.15500032</ele>
        <time>2020-08-02T05:41:31.000Z</time>
      </trkpt>
      <trkpt lat="43.6104" lon="3.81899">
        <ele>37.05500032</ele>
        <time>2020-08-02T05:41:32.000Z</time>
      </trkpt>
      <trkpt lat="43.61037" lon="3.81901">
        <ele>37</ele>
        <time>2020-08-02T05:41:33.000Z</time>
      </trkpt>
      <trkpt lat="43.61033" lon="3.81902">
        <ele>37</ele>
        <time>2020-08-02T05:41:34.000Z</time>
      </trkpt>
      <trkpt lat="43.6103" lon="3.81905">
        <ele>37</ele>
        <time>2020-08-02T05:41:35.000Z</time>
      </trkpt>
      <trkpt lat="43.61026" lon="3.81907">
        <ele>37</ele>
        <time>2020-08-02T05:41:36.000Z</time>
      </trkpt>
      <trkpt lat="43.61023" lon="3.81909">
        <ele>37</ele>
        <time>2020-08-02T05:41:37.000Z</time>
      </trkpt>
      <trkpt lat="43.61019" lon="3.81911">
        <ele>37</ele>
        <time>2020-08-02T05:41:38.000Z</time>
      </trkpt>
      <trkpt lat="43.61016" lon="3.81913">
        <ele>37</ele>
        <time>2020-08-02T05:41:39.000Z</time>
      </trkpt>
      <trkpt lat="43.61012" lon="3.81915">
        <ele>37</ele>
        <time>2020-08-02T05:41:40.000Z</time>
      </trkpt>
      <trkpt lat="43.61008" lon="3.81917">
        <ele>37</ele>
        <time>2020-08-02T05:41:41.000Z</time>
      </trkpt>
      <trkpt lat="43.61005" lon="3.81918">
        <ele>37</ele>
        <time>2020-08-02T05:41:42.000Z</time>
      </trkpt>
      <trkpt lat="43.61003" lon="3.81919">
        <ele>37</ele>
        <time>2020-08-02T05:41:43.000Z</time>
      </trkpt>
      <trkpt lat="43.61001" lon="3.8192">
        <ele>37</ele>
        <time>2020-08-02T05:41:44.000Z</time>
      </trkpt>
      <trkpt lat="43.60997" lon="3.81923">
        <ele>37</ele>
        <time>2020-08-02T05:41:46.000Z</time>
      </trkpt>
      <trkpt lat="43.60996" lon="3.81925">
        <ele>37</ele>
        <time>2020-08-02T05:41:47.000Z</time>
      </trkpt>
      <trkpt lat="43.60994" lon="3.81927">
        <ele>37</ele>
        <time>2020-08-02T05:41:48.000Z</time>
      </trkpt>
      <trkpt lat="43.60992" lon="3.81929">
        <ele>37</ele>
        <time>2020-08-02T05:41:49.000Z</time>
      </trkpt>
      <trkpt lat="43.60989" lon="3.8193">
        <ele>37</ele>
        <time>2020-08-02T05:41:50.000Z</time>
      </trkpt>
      <trkpt lat="43.60986" lon="3.81932">
        <ele>37</ele>
        <time>2020-08-02T05:41:51.000Z</time>
      </trkpt>
      <trkpt lat="43.60983" lon="3.81932">
        <ele>37</ele>
        <time>2020-08-02T05:41:52.000Z</time>
      </trkpt>
      <trkpt lat="43.60981" lon="3.81933">
        <ele>37</ele>
        <time>2020-08-02T05:41:53.000Z</time>
      </trkpt>
      <trkpt lat="43.60978" lon="3.81934">
        <ele>37</ele>
        <time>2020-08-02T05:41:54.000Z</time>
      </trkpt>
      <trkpt lat="43.60975" lon="3.81935">
        <ele>37</ele>
        <time>2020-08-02T05:41:55.000Z</time>
      </trkpt>
      <trkpt lat="43.60973" lon="3.81936">
        <ele>37</ele>
        <time>2020-08-02T05:41:56.000Z</time>
      </trkpt>
      <trkpt lat="43.60971" lon="3.81936">
        <ele>37</ele>
        <time>2020-08-02T05:41:57.000Z</time>
      </trkpt>
      <trkpt lat="43.60959" lon="3.8194">
        <ele>37</ele>
        <time>2020-08-02T05:42:01.000Z</time>
      </trkpt>
      <trkpt lat="43.60949" lon="3.81939">
        <ele>36.523809997686</ele>
        <time>2020-08-02T05:42:05.000Z</time>
      </trkpt>
      <trkpt lat="43.60946" lon="3.81938">
        <ele>36.13508295746</ele>
        <time>2020-08-02T05:42:07.000Z</time>
      </trkpt>
      <trkpt lat="43.60942" lon="3.81939">
        <ele>35.746355917234</ele>
        <time>2020-08-02T05:42:09.000Z</time>
      </trkpt>
      <trkpt lat="43.60939" lon="3.81941">
        <ele>35.357628877008</ele>
        <time>2020-08-02T05:42:11.000Z</time>
      </trkpt>
      <trkpt lat="43.60938" lon="3.81942">
        <ele>35.163265356895</ele>
        <time>2020-08-02T05:42:12.000Z</time>
      </trkpt>
      <trkpt lat="43.60936" lon="3.81944">
        <ele>35</ele>
        <time>2020-08-02T05:42:13.000Z</time>
      </trkpt>
      <trkpt lat="43.60933" lon="3.81945">
        <ele>35</ele>
        <time>2020-08-02T05:42:14.000Z</time>
      </trkpt>
      <trkpt lat="43.6093" lon="3.81946">
        <ele>35</ele>
        <time>2020-08-02T05:42:15.000Z</time>
      </trkpt>
      <trkpt lat="43.60927" lon="3.81947">
        <ele>35</ele>
        <time>2020-08-02T05:42:16.000Z</time>
      </trkpt>
      <trkpt lat="43.60924" lon="3.81948">
        <ele>35</ele>
        <time>2020-08-02T05:42:17.000Z</time>
      </trkpt>
      <trkpt lat="43.60922" lon="3.81946">
        <ele>35</ele>
        <time>2020-08-02T05:42:18.000Z</time>
      </trkpt>
      <trkpt lat="43.60921" lon="3.81944">
        <ele>35</ele>
        <time>2020-08-02T05:42:19.000Z</time>
      </trkpt>
      <trkpt lat="43.60921" lon="3.81941">
        <ele>35</ele>
        <time>2020-08-02T05:42:21.000Z</time>
      </trkpt>
      <trkpt lat="43.60921" lon="3.81939">
        <ele>35</ele>
        <time>2020-08-02T05:42:25.000Z</time>
      </trkpt>
      <trkpt lat="43.60921" lon="3.81937">
        <ele>34.94696969697</ele>
        <time>2020-08-02T05:42:31.000Z</time>
      </trkpt>
      <trkpt lat="43.6091" lon="3.8193">
        <ele>34</ele>
        <time>2020-08-02T05:42:36.000Z</time>
      </trkpt>
      <trkpt lat="43.60907" lon="3.81931">
        <ele>34</ele>
        <time>2020-08-02T05:42:37.000Z</time>
      </trkpt>
      <trkpt lat="43.60904" lon="3.81931">
        <ele>34</ele>
        <time>2020-08-02T05:42:38.000Z</time>
      </trkpt>
      <trkpt lat="43.60902" lon="3.81932">
        <ele>34</ele>
        <time>2020-08-02T05:42:39.000Z</time>
      </trkpt>
      <trkpt lat="43.609" lon="3.81933">
        <ele>34</ele>
        <time>2020-08-02T05:42:40.000Z</time>
      </trkpt>
      <trkpt lat="43.60898" lon="3.81934">
        <ele>34</ele>
        <time>2020-08-02T05:42:41.000Z</time>
      </trkpt>
      <trkpt lat="43.60895" lon="3.81934">
        <ele>34</ele>
        <time>2020-08-02T05:42:42.000Z</time>
      </trkpt>
      <trkpt lat="43.60893" lon="3.81934">
        <ele>34</ele>
        <time>2020-08-02T05:42:43.000Z</time>
      </trkpt>
      <trkpt lat="43.6089" lon="3.81935">
        <ele>34</ele>
        <time>2020-08-02T05:42:44.000Z</time>
      </trkpt>
      <trkpt lat="43.60886" lon="3.81936">
        <ele>34</ele>
        <time>2020-08-02T05:42:45.000Z</time>
      </trkpt>
      <trkpt lat="43.60883" lon="3.81937">
        <ele>33.956268518956</ele>
        <time>2020-08-02T05:42:46.000Z</time>
      </trkpt>
      <trkpt lat="43.6088" lon="3.81938">
        <ele>33.8590867589</ele>
        <time>2020-08-02T05:42:47.000Z</time>
      </trkpt>
      <trkpt lat="43.60876" lon="3.81938">
        <ele>33.761904998843</ele>
        <time>2020-08-02T05:42:48.000Z</time>
      </trkpt>
      <trkpt lat="43.60873" lon="3.81939">
        <ele>33.664723238787</ele>
        <time>2020-08-02T05:42:49.000Z</time>
      </trkpt>
      <trkpt lat="43.6087" lon="3.8194">
        <ele>33.56754147873</ele>
        <time>2020-08-02T05:42:50.000Z</time>
      </trkpt>
      <trkpt lat="43.60866" lon="3.8194">
        <ele>33.470359718674</ele>
        <time>2020-08-02T05:42:51.000Z</time>
      </trkpt>
      <trkpt lat="43.60862" lon="3.81941">
        <ele>33.373177958617</ele>
        <time>2020-08-02T05:42:52.000Z</time>
      </trkpt>
      <trkpt lat="43.60859" lon="3.81942">
        <ele>33.27599619856</ele>
        <time>2020-08-02T05:42:53.000Z</time>
      </trkpt>
      <trkpt lat="43.60855" lon="3.81942">
        <ele>33.178814438504</ele>
        <time>2020-08-02T05:42:54.000Z</time>
      </trkpt>
      <trkpt lat="43.60851" lon="3.81943">
        <ele>33.081632678447</ele>
        <time>2020-08-02T05:42:55.000Z</time>
      </trkpt>
      <trkpt lat="43.60847" lon="3.81943">
        <ele>33</ele>
        <time>2020-08-02T05:42:56.000Z</time>
      </trkpt>
      <trkpt lat="43.60844" lon="3.81943">
        <ele>33</ele>
        <time>2020-08-02T05:42:57.000Z</time>
      </trkpt>
      <trkpt lat="43.6084" lon="3.81942">
        <ele>33</ele>
        <time>2020-08-02T05:42:58.000Z</time>
      </trkpt>
      <trkpt lat="43.60836" lon="3.81942">
        <ele>33</ele>
        <time>2020-08-02T05:42:59.000Z</time>
      </trkpt>
      <trkpt lat="43.60832" lon="3.81942">
        <ele>33</ele>
        <time>2020-08-02T05:43:00.000Z</time>
      </trkpt>
      <trkpt lat="43.60829" lon="3.81941">
        <ele>33</ele>
        <time>2020-08-02T05:43:01.000Z</time>
      </trkpt>
      <trkpt lat="43.60825" lon="3.8194">
        <ele>33</ele>
        <time>2020-08-02T05:43:02.000Z</time>
      </trkpt>
      <trkpt lat="43.60821" lon="3.81939">
        <ele>33</ele>
        <time>2020-08-02T05:43:03.000Z</time>
      </trkpt>
      <trkpt lat="43.60818" lon="3.81939">
        <ele>33</ele>
        <time>2020-08-02T05:43:04.000Z</time>
      </trkpt>
      <trkpt lat="43.60814" lon="3.81938">
        <ele>33</ele>
        <time>2020-08-02T05:43:05.000Z</time>
      </trkpt>
      <trkpt lat="43.6081" lon="3.81937">
        <ele>33.044378410653</ele>
        <time>2020-08-02T05:43:06.000Z</time>
      </trkpt>
      <trkpt lat="43.60807" lon="3.81936">
        <ele>33.142997802287</ele>
        <time>2020-08-02T05:43:07.000Z</time>
      </trkpt>
      <trkpt lat="43.60803" lon="3.81935">
        <ele>33.24161719392</ele>
        <time>2020-08-02T05:43:08.000Z</time>
      </trkpt>
      <trkpt lat="43.60799" lon="3.81934">
        <ele>33.340236585554</ele>
        <time>2020-08-02T05:43:09.000Z</time>
      </trkpt>
      <trkpt lat="43.60796" lon="3.81933">
        <ele>33.438855977187</ele>
        <time>2020-08-02T05:43:10.000Z</time>
      </trkpt>
      <trkpt lat="43.60793" lon="3.81931">
        <ele>33.537475368821</ele>
        <time>2020-08-02T05:43:11.000Z</time>
      </trkpt>
      <trkpt lat="43.6079" lon="3.81929">
        <ele>33.636094760454</ele>
        <time>2020-08-02T05:43:12.000Z</time>
      </trkpt>
      <trkpt lat="43.60787" lon="3.81927">
        <ele>33.734714152088</ele>
        <time>2020-08-02T05:43:13.000Z</time>
      </trkpt>
      <trkpt lat="43.60783" lon="3.81924">
        <ele>33.833333543721</ele>
        <time>2020-08-02T05:43:14.000Z</time>
      </trkpt>
      <trkpt lat="43.6078" lon="3.81922">
        <ele>33.931952935355</ele>
        <time>2020-08-02T05:43:15.000Z</time>
      </trkpt>
      <trkpt lat="43.60777" lon="3.8192">
        <ele>34</ele>
        <time>2020-08-02T05:43:16.000Z</time>
      </trkpt>
      <trkpt lat="43.60774" lon="3.81917">
        <ele>34</ele>
        <time>2020-08-02T05:43:17.000Z</time>
      </trkpt>
      <trkpt lat="43.60771" lon="3.81915">
        <ele>34</ele>
        <time>2020-08-02T05:43:18.000Z</time>
      </trkpt>
      <trkpt lat="43.60768" lon="3.81912">
        <ele>34</ele>
        <time>2020-08-02T05:43:19.000Z</time>
      </trkpt>
      <trkpt lat="43.60765" lon="3.8191">
        <ele>34</ele>
        <time>2020-08-02T05:43:20.000Z</time>
      </trkpt>
      <trkpt lat="43.60763" lon="3.81908">
        <ele>34</ele>
        <time>2020-08-02T05:43:21.000Z</time>
      </trkpt>
      <trkpt lat="43.6076" lon="3.81905">
        <ele>34</ele>
        <time>2020-08-02T05:43:22.000Z</time>
      </trkpt>
      <trkpt lat="43.60757" lon="3.81902">
        <ele>34</ele>
        <time>2020-08-02T05:43:23.000Z</time>
      </trkpt>
      <trkpt lat="43.60754" lon="3.819">
        <ele>34</ele>
        <time>2020-08-02T05:43:24.000Z</time>
      </trkpt>
      <trkpt lat="43.60751" lon="3.81896">
        <ele>34</ele>
        <time>2020-08-02T05:43:25.000Z</time>
      </trkpt>
      <trkpt lat="43.60748" lon="3.81893">
        <ele>34</ele>
        <time>2020-08-02T05:43:26.000Z</time>
      </trkpt>
      <trkpt lat="43.60745" lon="3.81889">
        <ele>34</ele>
        <time>2020-08-02T05:43:27.000Z</time>
      </trkpt>
      <trkpt lat="43.60743" lon="3.81886">
        <ele>34</ele>
        <time>2020-08-02T05:43:28.000Z</time>
      </trkpt>
      <trkpt lat="43.60741" lon="3.81882">
        <ele>34</ele>
        <time>2020-08-02T05:43:29.000Z</time>
      </trkpt>
      <trkpt lat="43.60739" lon="3.81878">
        <ele>34</ele>
        <time>2020-08-02T05:43:30.000Z</time>
      </trkpt>
      <trkpt lat="43.60737" lon="3.81874">
        <ele>34</ele>
        <time>2020-08-02T05:43:31.000Z</time>
      </trkpt>
      <trkpt lat="43.60735" lon="3.8187">
        <ele>34</ele>
        <time>2020-08-02T05:43:32.000Z</time>
      </trkpt>
      <trkpt lat="43.60733" lon="3.81866">
        <ele>34</ele>
        <time>2020-08-02T05:43:33.000Z</time>
      </trkpt>
      <trkpt lat="43.60731" lon="3.81862">
        <ele>34</ele>
        <time>2020-08-02T05:43:34.000Z</time>
      </trkpt>
      <trkpt lat="43.60728" lon="3.81858">
        <ele>34</ele>
        <time>2020-08-02T05:43:35.000Z</time>
      </trkpt>
      <trkpt lat="43.60726" lon="3.81855">
        <ele>34</ele>
        <time>2020-08-02T05:43:36.000Z</time>
      </trkpt>
      <trkpt lat="43.60724" lon="3.81851">
        <ele>34</ele>
        <time>2020-08-02T05:43:37.000Z</time>
      </trkpt>
      <trkpt lat="43.60722" lon="3.81847">
        <ele>34</ele>
        <time>2020-08-02T05:43:38.000Z</time>
      </trkpt>
      <trkpt lat="43.6072" lon="3.81843">
        <ele>34</ele>
        <time>2020-08-02T05:43:39.000Z</time>
      </trkpt>
      <trkpt lat="43.60717" lon="3.81839">
        <ele>34</ele>
        <time>2020-08-02T05:43:40.000Z</time>
      </trkpt>
      <trkpt lat="43.60715" lon="3.81836">
        <ele>34</ele>
        <time>2020-08-02T05:43:41.000Z</time>
      </trkpt>
      <trkpt lat="43.60713" lon="3.81832">
        <ele>34</ele>
        <time>2020-08-02T05:43:42.000Z</time>
      </trkpt>
      <trkpt lat="43.60711" lon="3.81829">
        <ele>34</ele>
        <time>2020-08-02T05:43:43.000Z</time>
      </trkpt>
      <trkpt lat="43.60709" lon="3.81825">
        <ele>34</ele>
        <time>2020-08-02T05:43:44.000Z</time>
      </trkpt>
      <trkpt lat="43.60706" lon="3.81822">
        <ele>34</ele>
        <time>2020-08-02T05:43:45.000Z</time>
      </trkpt>
      <trkpt lat="43.60704" lon="3.81818">
        <ele>33.96659951417</ele>
        <time>2020-08-02T05:43:46.000Z</time>
      </trkpt>
      <trkpt lat="43.60702" lon="3.81814">
        <ele>33.865384939271</ele>
        <time>2020-08-02T05:43:47.000Z</time>
      </trkpt>
      <trkpt lat="43.60699" lon="3.8181">
        <ele>33.764170364372</ele>
        <time>2020-08-02T05:43:48.000Z</time>
      </trkpt>
      <trkpt lat="43.60697" lon="3.81806">
        <ele>33.662955789474</ele>
        <time>2020-08-02T05:43:49.000Z</time>
      </trkpt>
      <trkpt lat="43.60695" lon="3.81802">
        <ele>33.561741214575</ele>
        <time>2020-08-02T05:43:50.000Z</time>
      </trkpt>
      <trkpt lat="43.60693" lon="3.81799">
        <ele>33.460526639676</ele>
        <time>2020-08-02T05:43:51.000Z</time>
      </trkpt>
      <trkpt lat="43.60691" lon="3.81795">
        <ele>33.359312064777</ele>
        <time>2020-08-02T05:43:52.000Z</time>
      </trkpt>
      <trkpt lat="43.60689" lon="3.81792">
        <ele>33.258097489879</ele>
        <time>2020-08-02T05:43:53.000Z</time>
      </trkpt>
      <trkpt lat="43.60687" lon="3.81789">
        <ele>33.15688291498</ele>
        <time>2020-08-02T05:43:54.000Z</time>
      </trkpt>
      <trkpt lat="43.60685" lon="3.81787">
        <ele>33.055668340081</ele>
        <time>2020-08-02T05:43:55.000Z</time>
      </trkpt>
      <trkpt lat="43.60683" lon="3.81786">
        <ele>33.04499968</ele>
        <time>2020-08-02T05:43:56.000Z</time>
      </trkpt>
      <trkpt lat="43.60681" lon="3.81785">
        <ele>33.14499968</ele>
        <time>2020-08-02T05:43:57.000Z</time>
      </trkpt>
      <trkpt lat="43.60679" lon="3.81786">
        <ele>33.24499968</ele>
        <time>2020-08-02T05:43:58.000Z</time>
      </trkpt>
      <trkpt lat="43.60677" lon="3.81788">
        <ele>33.34499968</ele>
        <time>2020-08-02T05:43:59.000Z</time>
      </trkpt>
      <trkpt lat="43.60675" lon="3.8179">
        <ele>33.44499968</ele>
        <time>2020-08-02T05:44:00.000Z</time>
      </trkpt>
      <trkpt lat="43.60673" lon="3.81793">
        <ele>33.54499968</ele>
        <time>2020-08-02T05:44:01.000Z</time>
      </trkpt>
      <trkpt lat="43.60671" lon="3.81795">
        <ele>33.64499968</ele>
        <time>2020-08-02T05:44:02.000Z</time>
      </trkpt>
      <trkpt lat="43.60645" lon="3.81825">
        <ele>34</ele>
        <time>2020-08-02T05:44:15.000Z</time>
      </trkpt>
      <trkpt lat="43.60641" lon="3.8184">
        <ele>34.2249984</ele>
        <time>2020-08-02T05:44:16.000Z</time>
      </trkpt>
      <trkpt lat="43.60638" lon="3.81853">
        <ele>36.2249984</ele>
        <time>2020-08-02T05:44:20.000Z</time>
      </trkpt>
      <trkpt lat="43.60637" lon="3.81857">
        <ele>38.2249984</ele>
        <time>2020-08-02T05:44:24.000Z</time>
      </trkpt>
      <trkpt lat="43.60635" lon="3.81858">
        <ele>38.310689729691</ele>
        <time>2020-08-02T05:44:29.000Z</time>
      </trkpt>
      <trkpt lat="43.60632" lon="3.81859">
        <ele>37.711288938674</ele>
        <time>2020-08-02T05:44:32.000Z</time>
      </trkpt>
      <trkpt lat="43.6063" lon="3.8186">
        <ele>37.511488675001</ele>
        <time>2020-08-02T05:44:33.000Z</time>
      </trkpt>
      <trkpt lat="43.60628" lon="3.81861">
        <ele>37.311688411329</ele>
        <time>2020-08-02T05:44:34.000Z</time>
      </trkpt>
      <trkpt lat="43.60626" lon="3.81863">
        <ele>37.111888147657</ele>
        <time>2020-08-02T05:44:35.000Z</time>
      </trkpt>
      <trkpt lat="43.60624" lon="3.81866">
        <ele>36.867867910193</ele>
        <time>2020-08-02T05:44:36.000Z</time>
      </trkpt>
      <trkpt lat="43.60623" lon="3.81869">
        <ele>36.567567706084</ele>
        <time>2020-08-02T05:44:37.000Z</time>
      </trkpt>
      <trkpt lat="43.60621" lon="3.81873">
        <ele>36.267267501976</ele>
        <time>2020-08-02T05:44:38.000Z</time>
      </trkpt>
      <trkpt lat="43.60619" lon="3.81877">
        <ele>35.966967297868</ele>
        <time>2020-08-02T05:44:39.000Z</time>
      </trkpt>
      <trkpt lat="43.60617" lon="3.8188">
        <ele>35.66666709376</ele>
        <time>2020-08-02T05:44:40.000Z</time>
      </trkpt>
      <trkpt lat="43.60615" lon="3.81884">
        <ele>35.366366889652</ele>
        <time>2020-08-02T05:44:41.000Z</time>
      </trkpt>
      <trkpt lat="43.60613" lon="3.81888">
        <ele>35.066066685544</ele>
        <time>2020-08-02T05:44:42.000Z</time>
      </trkpt>
      <trkpt lat="43.60611" lon="3.81892">
        <ele>34.765766481436</ele>
        <time>2020-08-02T05:44:43.000Z</time>
      </trkpt>
      <trkpt lat="43.60609" lon="3.81896">
        <ele>34.465466277328</ele>
        <time>2020-08-02T05:44:44.000Z</time>
      </trkpt>
      <trkpt lat="43.60607" lon="3.81901">
        <ele>34.16516607322</ele>
        <time>2020-08-02T05:44:45.000Z</time>
      </trkpt>
      <trkpt lat="43.60604" lon="3.81905">
        <ele>33.955357460318</ele>
        <time>2020-08-02T05:44:46.000Z</time>
      </trkpt>
      <trkpt lat="43.60602" lon="3.81909">
        <ele>33.856151111111</ele>
        <time>2020-08-02T05:44:47.000Z</time>
      </trkpt>
      <trkpt lat="43.606" lon="3.81913">
        <ele>33.756944761905</ele>
        <time>2020-08-02T05:44:48.000Z</time>
      </trkpt>
      <trkpt lat="43.60598" lon="3.81917">
        <ele>33.657738412698</ele>
        <time>2020-08-02T05:44:49.000Z</time>
      </trkpt>
      <trkpt lat="43.60595" lon="3.81921">
        <ele>33.558532063492</ele>
        <time>2020-08-02T05:44:50.000Z</time>
      </trkpt>
      <trkpt lat="43.60593" lon="3.81925">
        <ele>33.459325714286</ele>
        <time>2020-08-02T05:44:51.000Z</time>
      </trkpt>
      <trkpt lat="43.60591" lon="3.81928">
        <ele>33.360119365079</ele>
        <time>2020-08-02T05:44:52.000Z</time>
      </trkpt>
      <trkpt lat="43.60588" lon="3.81931">
        <ele>33.260913015873</ele>
        <time>2020-08-02T05:44:53.000Z</time>
      </trkpt>
      <trkpt lat="43.60585" lon="3.81933">
        <ele>33.161706666667</ele>
        <time>2020-08-02T05:44:54.000Z</time>
      </trkpt>
      <trkpt lat="43.60581" lon="3.81934">
        <ele>33.06250031746</ele>
        <time>2020-08-02T05:44:55.000Z</time>
      </trkpt>
      <trkpt lat="43.60578" lon="3.81934">
        <ele>32.962701935484</ele>
        <time>2020-08-02T05:44:56.000Z</time>
      </trkpt>
      <trkpt lat="43.60574" lon="3.81934">
        <ele>32.861895483871</ele>
        <time>2020-08-02T05:44:57.000Z</time>
      </trkpt>
      <trkpt lat="43.6057" lon="3.81932">
        <ele>32.761089032258</ele>
        <time>2020-08-02T05:44:58.000Z</time>
      </trkpt>
      <trkpt lat="43.60567" lon="3.8193">
        <ele>32.660282580645</ele>
        <time>2020-08-02T05:44:59.000Z</time>
      </trkpt>
      <trkpt lat="43.60563" lon="3.81927">
        <ele>32.559476129032</ele>
        <time>2020-08-02T05:45:00.000Z</time>
      </trkpt>
      <trkpt lat="43.6056" lon="3.81924">
        <ele>32.458669677419</ele>
        <time>2020-08-02T05:45:01.000Z</time>
      </trkpt>
      <trkpt lat="43.60556" lon="3.81921">
        <ele>32.357863225806</ele>
        <time>2020-08-02T05:45:02.000Z</time>
      </trkpt>
      <trkpt lat="43.60553" lon="3.81917">
        <ele>32.257056774194</ele>
        <time>2020-08-02T05:45:03.000Z</time>
      </trkpt>
      <trkpt lat="43.6055" lon="3.81914">
        <ele>32.156250322581</ele>
        <time>2020-08-02T05:45:04.000Z</time>
      </trkpt>
      <trkpt lat="43.60546" lon="3.8191">
        <ele>32.055443870968</ele>
        <time>2020-08-02T05:45:05.000Z</time>
      </trkpt>
      <trkpt lat="43.60543" lon="3.81906">
        <ele>32</ele>
        <time>2020-08-02T05:45:06.000Z</time>
      </trkpt>
      <trkpt lat="43.60539" lon="3.81903">
        <ele>32</ele>
        <time>2020-08-02T05:45:07.000Z</time>
      </trkpt>
      <trkpt lat="43.60535" lon="3.81899">
        <ele>32</ele>
        <time>2020-08-02T05:45:08.000Z</time>
      </trkpt>
      <trkpt lat="43.60532" lon="3.81895">
        <ele>32</ele>
        <time>2020-08-02T05:45:09.000Z</time>
      </trkpt>
      <trkpt lat="43.60529" lon="3.81891">
        <ele>32</ele>
        <time>2020-08-02T05:45:10.000Z</time>
      </trkpt>
      <trkpt lat="43.60525" lon="3.81887">
        <ele>32</ele>
        <time>2020-08-02T05:45:11.000Z</time>
      </trkpt>
      <trkpt lat="43.60522" lon="3.81883">
        <ele>32</ele>
        <time>2020-08-02T05:45:12.000Z</time>
      </trkpt>
      <trkpt lat="43.60519" lon="3.81879">
        <ele>32</ele>
        <time>2020-08-02T05:45:13.000Z</time>
      </trkpt>
      <trkpt lat="43.60516" lon="3.81875">
        <ele>32</ele>
        <time>2020-08-02T05:45:14.000Z</time>
      </trkpt>
      <trkpt lat="43.60513" lon="3.81872">
        <ele>32</ele>
        <time>2020-08-02T05:45:15.000Z</time>
      </trkpt>
      <trkpt lat="43.6051" lon="3.81868">
        <ele>32</ele>
        <time>2020-08-02T05:45:16.000Z</time>
      </trkpt>
      <trkpt lat="43.60507" lon="3.81865">
        <ele>32</ele>
        <time>2020-08-02T05:45:17.000Z</time>
      </trkpt>
      <trkpt lat="43.60503" lon="3.81862">
        <ele>32</ele>
        <time>2020-08-02T05:45:18.000Z</time>
      </trkpt>
      <trkpt lat="43.60499" lon="3.8186">
        <ele>32</ele>
        <time>2020-08-02T05:45:19.000Z</time>
      </trkpt>
      <trkpt lat="43.60496" lon="3.81858">
        <ele>32</ele>
        <time>2020-08-02T05:45:20.000Z</time>
      </trkpt>
      <trkpt lat="43.60492" lon="3.81856">
        <ele>32</ele>
        <time>2020-08-02T05:45:21.000Z</time>
      </trkpt>
      <trkpt lat="43.60488" lon="3.81854">
        <ele>32</ele>
        <time>2020-08-02T05:45:22.000Z</time>
      </trkpt>
      <trkpt lat="43.60484" lon="3.81853">
        <ele>32</ele>
        <time>2020-08-02T05:45:23.000Z</time>
      </trkpt>
      <trkpt lat="43.60479" lon="3.81852">
        <ele>32</ele>
        <time>2020-08-02T05:45:24.000Z</time>
      </trkpt>
      <trkpt lat="43.60475" lon="3.81851">
        <ele>32</ele>
        <time>2020-08-02T05:45:25.000Z</time>
      </trkpt>
      <trkpt lat="43.60471" lon="3.81849">
        <ele>32</ele>
        <time>2020-08-02T05:45:26.000Z</time>
      </trkpt>
      <trkpt lat="43.60467" lon="3.81848">
        <ele>32</ele>
        <time>2020-08-02T05:45:27.000Z</time>
      </trkpt>
      <trkpt lat="43.60463" lon="3.81847">
        <ele>32</ele>
        <time>2020-08-02T05:45:28.000Z</time>
      </trkpt>
      <trkpt lat="43.60459" lon="3.81845">
        <ele>32</ele>
        <time>2020-08-02T05:45:29.000Z</time>
      </trkpt>
      <trkpt lat="43.60455" lon="3.81843">
        <ele>32</ele>
        <time>2020-08-02T05:45:30.000Z</time>
      </trkpt>
      <trkpt lat="43.60451" lon="3.81842">
        <ele>32</ele>
        <time>2020-08-02T05:45:31.000Z</time>
      </trkpt>
      <trkpt lat="43.60447" lon="3.8184">
        <ele>32</ele>
        <time>2020-08-02T05:45:32.000Z</time>
      </trkpt>
      <trkpt lat="43.60442" lon="3.81838">
        <ele>32</ele>
        <time>2020-08-02T05:45:33.000Z</time>
      </trkpt>
      <trkpt lat="43.60438" lon="3.81836">
        <ele>32</ele>
        <time>2020-08-02T05:45:34.000Z</time>
      </trkpt>
      <trkpt lat="43.60434" lon="3.81835">
        <ele>32</ele>
        <time>2020-08-02T05:45:35.000Z</time>
      </trkpt>
      <trkpt lat="43.6043" lon="3.81833">
        <ele>32</ele>
        <time>2020-08-02T05:45:36.000Z</time>
      </trkpt>
      <trkpt lat="43.60426" lon="3.81832">
        <ele>32</ele>
        <time>2020-08-02T05:45:37.000Z</time>
      </trkpt>
      <trkpt lat="43.60422" lon="3.81831">
        <ele>32</ele>
        <time>2020-08-02T05:45:38.000Z</time>
      </trkpt>
      <trkpt lat="43.60418" lon="3.81829">
        <ele>32</ele>
        <time>2020-08-02T05:45:39.000Z</time>
      </trkpt>
      <trkpt lat="43.60414" lon="3.81828">
        <ele>32</ele>
        <time>2020-08-02T05:45:40.000Z</time>
      </trkpt>
      <trkpt lat="43.60409" lon="3.81827">
        <ele>32</ele>
        <time>2020-08-02T05:45:41.000Z</time>
      </trkpt>
      <trkpt lat="43.60405" lon="3.81826">
        <ele>32</ele>
        <time>2020-08-02T05:45:42.000Z</time>
      </trkpt>
      <trkpt lat="43.60401" lon="3.81824">
        <ele>32</ele>
        <time>2020-08-02T05:45:43.000Z</time>
      </trkpt>
      <trkpt lat="43.60397" lon="3.81824">
        <ele>32</ele>
        <time>2020-08-02T05:45:44.000Z</time>
      </trkpt>
      <trkpt lat="43.60393" lon="3.81823">
        <ele>32</ele>
        <time>2020-08-02T05:45:45.000Z</time>
      </trkpt>
      <trkpt lat="43.60389" lon="3.81822">
        <ele>32</ele>
        <time>2020-08-02T05:45:46.000Z</time>
      </trkpt>
      <trkpt lat="43.60386" lon="3.81821">
        <ele>32</ele>
        <time>2020-08-02T05:45:47.000Z</time>
      </trkpt>
      <trkpt lat="43.60382" lon="3.8182">
        <ele>32</ele>
        <time>2020-08-02T05:45:48.000Z</time>
      </trkpt>
      <trkpt lat="43.60378" lon="3.81818">
        <ele>32</ele>
        <time>2020-08-02T05:45:49.000Z</time>
      </trkpt>
      <trkpt lat="43.60374" lon="3.81817">
        <ele>32</ele>
        <time>2020-08-02T05:45:50.000Z</time>
      </trkpt>
      <trkpt lat="43.60371" lon="3.81815">
        <ele>32</ele>
        <time>2020-08-02T05:45:51.000Z</time>
      </trkpt>
      <trkpt lat="43.60367" lon="3.81812">
        <ele>32</ele>
        <time>2020-08-02T05:45:52.000Z</time>
      </trkpt>
      <trkpt lat="43.60364" lon="3.81809">
        <ele>32</ele>
        <time>2020-08-02T05:45:53.000Z</time>
      </trkpt>
      <trkpt lat="43.60361" lon="3.81806">
        <ele>32</ele>
        <time>2020-08-02T05:45:54.000Z</time>
      </trkpt>
      <trkpt lat="43.60358" lon="3.81802">
        <ele>32</ele>
        <time>2020-08-02T05:45:55.000Z</time>
      </trkpt>
      <trkpt lat="43.60355" lon="3.81798">
        <ele>32</ele>
        <time>2020-08-02T05:45:56.000Z</time>
      </trkpt>
      <trkpt lat="43.60352" lon="3.81794">
        <ele>32</ele>
        <time>2020-08-02T05:45:57.000Z</time>
      </trkpt>
      <trkpt lat="43.60349" lon="3.81791">
        <ele>32</ele>
        <time>2020-08-02T05:45:58.000Z</time>
      </trkpt>
      <trkpt lat="43.60346" lon="3.81787">
        <ele>32</ele>
        <time>2020-08-02T05:45:59.000Z</time>
      </trkpt>
      <trkpt lat="43.60344" lon="3.81783">
        <ele>32</ele>
        <time>2020-08-02T05:46:00.000Z</time>
      </trkpt>
      <trkpt lat="43.60341" lon="3.8178">
        <ele>32</ele>
        <time>2020-08-02T05:46:01.000Z</time>
      </trkpt>
      <trkpt lat="43.60338" lon="3.81776">
        <ele>32</ele>
        <time>2020-08-02T05:46:02.000Z</time>
      </trkpt>
      <trkpt lat="43.60335" lon="3.81773">
        <ele>32</ele>
        <time>2020-08-02T05:46:03.000Z</time>
      </trkpt>
      <trkpt lat="43.60333" lon="3.8177">
        <ele>32</ele>
        <time>2020-08-02T05:46:04.000Z</time>
      </trkpt>
      <trkpt lat="43.6033" lon="3.81766">
        <ele>32</ele>
        <time>2020-08-02T05:46:05.000Z</time>
      </trkpt>
      <trkpt lat="43.60328" lon="3.81763">
        <ele>32.016243660099</ele>
        <time>2020-08-02T05:46:06.000Z</time>
      </trkpt>
      <trkpt lat="43.60326" lon="3.81759">
        <ele>32.117766535721</ele>
        <time>2020-08-02T05:46:07.000Z</time>
      </trkpt>
      <trkpt lat="43.60324" lon="3.81754">
        <ele>32.219289411343</ele>
        <time>2020-08-02T05:46:08.000Z</time>
      </trkpt>
      <trkpt lat="43.60322" lon="3.8175">
        <ele>32.320812286964</ele>
        <time>2020-08-02T05:46:09.000Z</time>
      </trkpt>
      <trkpt lat="43.60321" lon="3.81745">
        <ele>32.422335162586</ele>
        <time>2020-08-02T05:46:10.000Z</time>
      </trkpt>
      <trkpt lat="43.6032" lon="3.81739">
        <ele>32.523858038208</ele>
        <time>2020-08-02T05:46:11.000Z</time>
      </trkpt>
      <trkpt lat="43.60318" lon="3.81734">
        <ele>32.625380913829</ele>
        <time>2020-08-02T05:46:12.000Z</time>
      </trkpt>
      <trkpt lat="43.60317" lon="3.81728">
        <ele>32.726903789451</ele>
        <time>2020-08-02T05:46:13.000Z</time>
      </trkpt>
      <trkpt lat="43.60317" lon="3.81723">
        <ele>32.828426665073</ele>
        <time>2020-08-02T05:46:14.000Z</time>
      </trkpt>
      <trkpt lat="43.60316" lon="3.81718">
        <ele>32.929949540694</ele>
        <time>2020-08-02T05:46:15.000Z</time>
      </trkpt>
      <trkpt lat="43.60317" lon="3.81713">
        <ele>33.031440466408</ele>
        <time>2020-08-02T05:46:16.000Z</time>
      </trkpt>
      <trkpt lat="43.60317" lon="3.81708">
        <ele>33.132860278874</ele>
        <time>2020-08-02T05:46:17.000Z</time>
      </trkpt>
      <trkpt lat="43.60318" lon="3.81698">
        <ele>33.335699903805</ele>
        <time>2020-08-02T05:46:19.000Z</time>
      </trkpt>
      <trkpt lat="43.60319" lon="3.81694">
        <ele>33.437119716271</ele>
        <time>2020-08-02T05:46:20.000Z</time>
      </trkpt>
      <trkpt lat="43.60319" lon="3.81688">
        <ele>33.538539528737</ele>
        <time>2020-08-02T05:46:21.000Z</time>
      </trkpt>
      <trkpt lat="43.60319" lon="3.81683">
        <ele>33.639959341203</ele>
        <time>2020-08-02T05:46:22.000Z</time>
      </trkpt>
      <trkpt lat="43.60319" lon="3.81677">
        <ele>33.741379153669</ele>
        <time>2020-08-02T05:46:23.000Z</time>
      </trkpt>
      <trkpt lat="43.6032" lon="3.81673">
        <ele>33.842798966135</ele>
        <time>2020-08-02T05:46:24.000Z</time>
      </trkpt>
      <trkpt lat="43.60319" lon="3.81667">
        <ele>33.9442187786</ele>
        <time>2020-08-02T05:46:25.000Z</time>
      </trkpt>
      <trkpt lat="43.60319" lon="3.81662">
        <ele>34</ele>
        <time>2020-08-02T05:46:26.000Z</time>
      </trkpt>
      <trkpt lat="43.60319" lon="3.81657">
        <ele>34</ele>
        <time>2020-08-02T05:46:27.000Z</time>
      </trkpt>
      <trkpt lat="43.60312" lon="3.81645">
        <ele>34</ele>
        <time>2020-08-02T05:46:30.000Z</time>
      </trkpt>
      <trkpt lat="43.60302" lon="3.81636">
        <ele>34</ele>
        <time>2020-08-02T05:46:33.000Z</time>
      </trkpt>
      <trkpt lat="43.60293" lon="3.81631">
        <ele>34</ele>
        <time>2020-08-02T05:46:35.000Z</time>
      </trkpt>
      <trkpt lat="43.60289" lon="3.81629">
        <ele>34</ele>
        <time>2020-08-02T05:46:36.000Z</time>
      </trkpt>
      <trkpt lat="43.60286" lon="3.81627">
        <ele>34</ele>
        <time>2020-08-02T05:46:37.000Z</time>
      </trkpt>
      <trkpt lat="43.60283" lon="3.81626">
        <ele>34</ele>
        <time>2020-08-02T05:46:38.000Z</time>
      </trkpt>
      <trkpt lat="43.6028" lon="3.81625">
        <ele>34</ele>
        <time>2020-08-02T05:46:39.000Z</time>
      </trkpt>
      <trkpt lat="43.60273" lon="3.81621">
        <ele>34</ele>
        <time>2020-08-02T05:46:41.000Z</time>
      </trkpt>
      <trkpt lat="43.60269" lon="3.81618">
        <ele>34</ele>
        <time>2020-08-02T05:46:42.000Z</time>
      </trkpt>
      <trkpt lat="43.60266" lon="3.81614">
        <ele>34</ele>
        <time>2020-08-02T05:46:43.000Z</time>
      </trkpt>
      <trkpt lat="43.60263" lon="3.81611">
        <ele>34</ele>
        <time>2020-08-02T05:46:44.000Z</time>
      </trkpt>
      <trkpt lat="43.60261" lon="3.81607">
        <ele>34</ele>
        <time>2020-08-02T05:46:45.000Z</time>
      </trkpt>
      <trkpt lat="43.60261" lon="3.81602">
        <ele>34</ele>
        <time>2020-08-02T05:46:46.000Z</time>
      </trkpt>
      <trkpt lat="43.60261" lon="3.81597">
        <ele>34</ele>
        <time>2020-08-02T05:46:47.000Z</time>
      </trkpt>
      <trkpt lat="43.60262" lon="3.81592">
        <ele>34</ele>
        <time>2020-08-02T05:46:48.000Z</time>
      </trkpt>
      <trkpt lat="43.60263" lon="3.81587">
        <ele>34</ele>
        <time>2020-08-02T05:46:49.000Z</time>
      </trkpt>
      <trkpt lat="43.60264" lon="3.81582">
        <ele>34</ele>
        <time>2020-08-02T05:46:50.000Z</time>
      </trkpt>
      <trkpt lat="43.60265" lon="3.81578">
        <ele>34</ele>
        <time>2020-08-02T05:46:51.000Z</time>
      </trkpt>
      <trkpt lat="43.60269" lon="3.81564">
        <ele>34</ele>
        <time>2020-08-02T05:46:54.000Z</time>
      </trkpt>
      <trkpt lat="43.60269" lon="3.81559">
        <ele>34</ele>
        <time>2020-08-02T05:46:55.000Z</time>
      </trkpt>
      <trkpt lat="43.60271" lon="3.81554">
        <ele>33.95500032</ele>
        <time>2020-08-02T05:46:56.000Z</time>
      </trkpt>
      <trkpt lat="43.60272" lon="3.81549">
        <ele>33.85500032</ele>
        <time>2020-08-02T05:46:57.000Z</time>
      </trkpt>
      <trkpt lat="43.60274" lon="3.81544">
        <ele>33.75500032</ele>
        <time>2020-08-02T05:46:58.000Z</time>
      </trkpt>
      <trkpt lat="43.60276" lon="3.8154">
        <ele>33.65500032</ele>
        <time>2020-08-02T05:46:59.000Z</time>
      </trkpt>
      <trkpt lat="43.60278" lon="3.81536">
        <ele>33.55500032</ele>
        <time>2020-08-02T05:47:00.000Z</time>
      </trkpt>
      <trkpt lat="43.60281" lon="3.81534">
        <ele>33.45500032</ele>
        <time>2020-08-02T05:47:01.000Z</time>
      </trkpt>
      <trkpt lat="43.60285" lon="3.81532">
        <ele>33.35500032</ele>
        <time>2020-08-02T05:47:02.000Z</time>
      </trkpt>
      <trkpt lat="43.60289" lon="3.8153">
        <ele>33.25500032</ele>
        <time>2020-08-02T05:47:03.000Z</time>
      </trkpt>
      <trkpt lat="43.60291" lon="3.81528">
        <ele>33.15500032</ele>
        <time>2020-08-02T05:47:04.000Z</time>
      </trkpt>
      <trkpt lat="43.60292" lon="3.81525">
        <ele>33.05500032</ele>
        <time>2020-08-02T05:47:05.000Z</time>
      </trkpt>
      <trkpt lat="43.60291" lon="3.81521">
        <ele>33.04499968</ele>
        <time>2020-08-02T05:47:06.000Z</time>
      </trkpt>
      <trkpt lat="43.60289" lon="3.81519">
        <ele>33.14499968</ele>
        <time>2020-08-02T05:47:07.000Z</time>
      </trkpt>
      <trkpt lat="43.60286" lon="3.81519">
        <ele>33.24499968</ele>
        <time>2020-08-02T05:47:08.000Z</time>
      </trkpt>
      <trkpt lat="43.60284" lon="3.81518">
        <ele>33.34499968</ele>
        <time>2020-08-02T05:47:09.000Z</time>
      </trkpt>
      <trkpt lat="43.60282" lon="3.81518">
        <ele>33.44499968</ele>
        <time>2020-08-02T05:47:10.000Z</time>
      </trkpt>
      <trkpt lat="43.6028" lon="3.81516">
        <ele>33.54499968</ele>
        <time>2020-08-02T05:47:11.000Z</time>
      </trkpt>
      <trkpt lat="43.60278" lon="3.81515">
        <ele>33.64499968</ele>
        <time>2020-08-02T05:47:12.000Z</time>
      </trkpt>
      <trkpt lat="43.60275" lon="3.81514">
        <ele>33.74499968</ele>
        <time>2020-08-02T05:47:13.000Z</time>
      </trkpt>
      <trkpt lat="43.60273" lon="3.81512">
        <ele>33.84499968</ele>
        <time>2020-08-02T05:47:14.000Z</time>
      </trkpt>
      <trkpt lat="43.6027" lon="3.81511">
        <ele>33.94499968</ele>
        <time>2020-08-02T05:47:15.000Z</time>
      </trkpt>
      <trkpt lat="43.60267" lon="3.8151">
        <ele>34.04499968</ele>
        <time>2020-08-02T05:47:16.000Z</time>
      </trkpt>
      <trkpt lat="43.60264" lon="3.81509">
        <ele>34.14499968</ele>
        <time>2020-08-02T05:47:17.000Z</time>
      </trkpt>
      <trkpt lat="43.60261" lon="3.81507">
        <ele>34.24499968</ele>
        <time>2020-08-02T05:47:18.000Z</time>
      </trkpt>
      <trkpt lat="43.60258" lon="3.81505">
        <ele>34.34499968</ele>
        <time>2020-08-02T05:47:19.000Z</time>
      </trkpt>
      <trkpt lat="43.60255" lon="3.81503">
        <ele>34.44499968</ele>
        <time>2020-08-02T05:47:20.000Z</time>
      </trkpt>
      <trkpt lat="43.60252" lon="3.81501">
        <ele>34.54499968</ele>
        <time>2020-08-02T05:47:21.000Z</time>
      </trkpt>
      <trkpt lat="43.60249" lon="3.815">
        <ele>34.64499968</ele>
        <time>2020-08-02T05:47:22.000Z</time>
      </trkpt>
      <trkpt lat="43.60246" lon="3.81498">
        <ele>34.74499968</ele>
        <time>2020-08-02T05:47:23.000Z</time>
      </trkpt>
      <trkpt lat="43.60243" lon="3.81496">
        <ele>34.84499968</ele>
        <time>2020-08-02T05:47:24.000Z</time>
      </trkpt>
      <trkpt lat="43.6024" lon="3.81495">
        <ele>34.94499968</ele>
        <time>2020-08-02T05:47:25.000Z</time>
      </trkpt>
      <trkpt lat="43.60237" lon="3.81493">
        <ele>35</ele>
        <time>2020-08-02T05:47:26.000Z</time>
      </trkpt>
      <trkpt lat="43.60234" lon="3.81491">
        <ele>35</ele>
        <time>2020-08-02T05:47:27.000Z</time>
      </trkpt>
      <trkpt lat="43.60231" lon="3.8149">
        <ele>35</ele>
        <time>2020-08-02T05:47:28.000Z</time>
      </trkpt>
      <trkpt lat="43.60227" lon="3.81488">
        <ele>35</ele>
        <time>2020-08-02T05:47:29.000Z</time>
      </trkpt>
      <trkpt lat="43.60224" lon="3.81485">
        <ele>35</ele>
        <time>2020-08-02T05:47:30.000Z</time>
      </trkpt>
      <trkpt lat="43.60221" lon="3.81483">
        <ele>35</ele>
        <time>2020-08-02T05:47:31.000Z</time>
      </trkpt>
      <trkpt lat="43.60217" lon="3.81482">
        <ele>35</ele>
        <time>2020-08-02T05:47:32.000Z</time>
      </trkpt>
      <trkpt lat="43.60214" lon="3.81482">
        <ele>35</ele>
        <time>2020-08-02T05:47:33.000Z</time>
      </trkpt>
      <trkpt lat="43.6021" lon="3.81482">
        <ele>35</ele>
        <time>2020-08-02T05:47:34.000Z</time>
      </trkpt>
      <trkpt lat="43.60207" lon="3.81482">
        <ele>35</ele>
        <time>2020-08-02T05:47:35.000Z</time>
      </trkpt>
      <trkpt lat="43.60204" lon="3.81484">
        <ele>34.95500032</ele>
        <time>2020-08-02T05:47:36.000Z</time>
      </trkpt>
      <trkpt lat="43.60201" lon="3.81486">
        <ele>34.85500032</ele>
        <time>2020-08-02T05:47:37.000Z</time>
      </trkpt>
      <trkpt lat="43.60198" lon="3.81489">
        <ele>34.75500032</ele>
        <time>2020-08-02T05:47:38.000Z</time>
      </trkpt>
      <trkpt lat="43.60195" lon="3.81492">
        <ele>34.65500032</ele>
        <time>2020-08-02T05:47:39.000Z</time>
      </trkpt>
      <trkpt lat="43.60191" lon="3.81494">
        <ele>34.55500032</ele>
        <time>2020-08-02T05:47:40.000Z</time>
      </trkpt>
      <trkpt lat="43.60186" lon="3.81496">
        <ele>34.45500032</ele>
        <time>2020-08-02T05:47:41.000Z</time>
      </trkpt>
      <trkpt lat="43.60181" lon="3.81497">
        <ele>34.35500032</ele>
        <time>2020-08-02T05:47:42.000Z</time>
      </trkpt>
      <trkpt lat="43.60177" lon="3.81497">
        <ele>34.25500032</ele>
        <time>2020-08-02T05:47:43.000Z</time>
      </trkpt>
      <trkpt lat="43.60172" lon="3.81498">
        <ele>34.15500032</ele>
        <time>2020-08-02T05:47:44.000Z</time>
      </trkpt>
      <trkpt lat="43.60168" lon="3.81499">
        <ele>34.05500032</ele>
        <time>2020-08-02T05:47:45.000Z</time>
      </trkpt>
      <trkpt lat="43.60165" lon="3.81499">
        <ele>33.95500032</ele>
        <time>2020-08-02T05:47:46.000Z</time>
      </trkpt>
      <trkpt lat="43.60161" lon="3.815">
        <ele>33.85500032</ele>
        <time>2020-08-02T05:47:47.000Z</time>
      </trkpt>
      <trkpt lat="43.60158" lon="3.815">
        <ele>33.75500032</ele>
        <time>2020-08-02T05:47:48.000Z</time>
      </trkpt>
      <trkpt lat="43.60154" lon="3.81501">
        <ele>33.65500032</ele>
        <time>2020-08-02T05:47:49.000Z</time>
      </trkpt>
      <trkpt lat="43.6015" lon="3.81501">
        <ele>33.55500032</ele>
        <time>2020-08-02T05:47:50.000Z</time>
      </trkpt>
      <trkpt lat="43.60146" lon="3.81502">
        <ele>33.45500032</ele>
        <time>2020-08-02T05:47:51.000Z</time>
      </trkpt>
      <trkpt lat="43.60142" lon="3.81503">
        <ele>33.35500032</ele>
        <time>2020-08-02T05:47:52.000Z</time>
      </trkpt>
      <trkpt lat="43.60138" lon="3.81503">
        <ele>33.25500032</ele>
        <time>2020-08-02T05:47:53.000Z</time>
      </trkpt>
      <trkpt lat="43.60134" lon="3.81504">
        <ele>33.15500032</ele>
        <time>2020-08-02T05:47:54.000Z</time>
      </trkpt>
      <trkpt lat="43.60129" lon="3.81504">
        <ele>33.05500032</ele>
        <time>2020-08-02T05:47:55.000Z</time>
      </trkpt>
      <trkpt lat="43.60125" lon="3.81504">
        <ele>33</ele>
        <time>2020-08-02T05:47:56.000Z</time>
      </trkpt>
      <trkpt lat="43.60121" lon="3.81504">
        <ele>33</ele>
        <time>2020-08-02T05:47:57.000Z</time>
      </trkpt>
      <trkpt lat="43.60117" lon="3.81503">
        <ele>33</ele>
        <time>2020-08-02T05:47:58.000Z</time>
      </trkpt>
      <trkpt lat="43.60113" lon="3.81502">
        <ele>33</ele>
        <time>2020-08-02T05:47:59.000Z</time>
      </trkpt>
      <trkpt lat="43.60109" lon="3.81502">
        <ele>33</ele>
        <time>2020-08-02T05:48:00.000Z</time>
      </trkpt>
      <trkpt lat="43.60105" lon="3.81501">
        <ele>33</ele>
        <time>2020-08-02T05:48:01.000Z</time>
      </trkpt>
      <trkpt lat="43.60101" lon="3.815">
        <ele>33</ele>
        <time>2020-08-02T05:48:02.000Z</time>
      </trkpt>
      <trkpt lat="43.60096" lon="3.815">
        <ele>33</ele>
        <time>2020-08-02T05:48:03.000Z</time>
      </trkpt>
      <trkpt lat="43.60092" lon="3.81499">
        <ele>33</ele>
        <time>2020-08-02T05:48:04.000Z</time>
      </trkpt>
      <trkpt lat="43.60087" lon="3.81499">
        <ele>33</ele>
        <time>2020-08-02T05:48:05.000Z</time>
      </trkpt>
      <trkpt lat="43.60083" lon="3.81498">
        <ele>32.968559533592</ele>
        <time>2020-08-02T05:48:06.000Z</time>
      </trkpt>
      <trkpt lat="43.60079" lon="3.81498">
        <ele>32.867139721126</ele>
        <time>2020-08-02T05:48:07.000Z</time>
      </trkpt>
      <trkpt lat="43.60075" lon="3.81498">
        <ele>32.765719908661</ele>
        <time>2020-08-02T05:48:08.000Z</time>
      </trkpt>
      <trkpt lat="43.60071" lon="3.81498">
        <ele>32.664300096195</ele>
        <time>2020-08-02T05:48:09.000Z</time>
      </trkpt>
      <trkpt lat="43.60066" lon="3.81498">
        <ele>32.562880283729</ele>
        <time>2020-08-02T05:48:10.000Z</time>
      </trkpt>
      <trkpt lat="43.60062" lon="3.81499">
        <ele>32.461460471263</ele>
        <time>2020-08-02T05:48:11.000Z</time>
      </trkpt>
      <trkpt lat="43.60058" lon="3.81499">
        <ele>32.360040658797</ele>
        <time>2020-08-02T05:48:12.000Z</time>
      </trkpt>
      <trkpt lat="43.60053" lon="3.815">
        <ele>32.258620846331</ele>
        <time>2020-08-02T05:48:13.000Z</time>
      </trkpt>
      <trkpt lat="43.60049" lon="3.815">
        <ele>32.157201033865</ele>
        <time>2020-08-02T05:48:14.000Z</time>
      </trkpt>
      <trkpt lat="43.60045" lon="3.81501">
        <ele>32.0557812214</ele>
        <time>2020-08-02T05:48:15.000Z</time>
      </trkpt>
      <trkpt lat="43.6004" lon="3.81501">
        <ele>32</ele>
        <time>2020-08-02T05:48:16.000Z</time>
      </trkpt>
      <trkpt lat="43.60036" lon="3.81502">
        <ele>32</ele>
        <time>2020-08-02T05:48:17.000Z</time>
      </trkpt>
      <trkpt lat="43.60033" lon="3.81502">
        <ele>32</ele>
        <time>2020-08-02T05:48:18.000Z</time>
      </trkpt>
      <trkpt lat="43.60029" lon="3.81503">
        <ele>32</ele>
        <time>2020-08-02T05:48:19.000Z</time>
      </trkpt>
      <trkpt lat="43.60026" lon="3.81503">
        <ele>32</ele>
        <time>2020-08-02T05:48:20.000Z</time>
      </trkpt>
      <trkpt lat="43.60022" lon="3.81502">
        <ele>32</ele>
        <time>2020-08-02T05:48:21.000Z</time>
      </trkpt>
      <trkpt lat="43.60018" lon="3.81501">
        <ele>32</ele>
        <time>2020-08-02T05:48:22.000Z</time>
      </trkpt>
      <trkpt lat="43.60015" lon="3.81499">
        <ele>32</ele>
        <time>2020-08-02T05:48:23.000Z</time>
      </trkpt>
      <trkpt lat="43.60012" lon="3.81497">
        <ele>32</ele>
        <time>2020-08-02T05:48:24.000Z</time>
      </trkpt>
      <trkpt lat="43.6001" lon="3.81494">
        <ele>32</ele>
        <time>2020-08-02T05:48:25.000Z</time>
      </trkpt>
      <trkpt lat="43.60007" lon="3.81491">
        <ele>32</ele>
        <time>2020-08-02T05:48:26.000Z</time>
      </trkpt>
      <trkpt lat="43.60006" lon="3.81488">
        <ele>32</ele>
        <time>2020-08-02T05:48:27.000Z</time>
      </trkpt>
      <trkpt lat="43.60005" lon="3.81484">
        <ele>32</ele>
        <time>2020-08-02T05:48:28.000Z</time>
      </trkpt>
      <trkpt lat="43.60005" lon="3.8148">
        <ele>32</ele>
        <time>2020-08-02T05:48:29.000Z</time>
      </trkpt>
      <trkpt lat="43.60006" lon="3.81476">
        <ele>32</ele>
        <time>2020-08-02T05:48:30.000Z</time>
      </trkpt>
      <trkpt lat="43.60008" lon="3.81472">
        <ele>32</ele>
        <time>2020-08-02T05:48:31.000Z</time>
      </trkpt>
      <trkpt lat="43.60009" lon="3.81467">
        <ele>32</ele>
        <time>2020-08-02T05:48:32.000Z</time>
      </trkpt>
      <trkpt lat="43.60011" lon="3.81462">
        <ele>32</ele>
        <time>2020-08-02T05:48:33.000Z</time>
      </trkpt>
      <trkpt lat="43.60013" lon="3.81458">
        <ele>32</ele>
        <time>2020-08-02T05:48:34.000Z</time>
      </trkpt>
      <trkpt lat="43.60014" lon="3.81453">
        <ele>32</ele>
        <time>2020-08-02T05:48:35.000Z</time>
      </trkpt>
      <trkpt lat="43.60016" lon="3.81449">
        <ele>32</ele>
        <time>2020-08-02T05:48:36.000Z</time>
      </trkpt>
      <trkpt lat="43.60017" lon="3.81444">
        <ele>32</ele>
        <time>2020-08-02T05:48:37.000Z</time>
      </trkpt>
      <trkpt lat="43.60019" lon="3.8144">
        <ele>32</ele>
        <time>2020-08-02T05:48:38.000Z</time>
      </trkpt>
      <trkpt lat="43.6002" lon="3.81436">
        <ele>32</ele>
        <time>2020-08-02T05:48:39.000Z</time>
      </trkpt>
      <trkpt lat="43.60021" lon="3.81432">
        <ele>32</ele>
        <time>2020-08-02T05:48:40.000Z</time>
      </trkpt>
      <trkpt lat="43.60022" lon="3.81427">
        <ele>32</ele>
        <time>2020-08-02T05:48:41.000Z</time>
      </trkpt>
      <trkpt lat="43.60024" lon="3.81423">
        <ele>32</ele>
        <time>2020-08-02T05:48:42.000Z</time>
      </trkpt>
      <trkpt lat="43.60025" lon="3.81418">
        <ele>32</ele>
        <time>2020-08-02T05:48:43.000Z</time>
      </trkpt>
      <trkpt lat="43.60027" lon="3.81413">
        <ele>32</ele>
        <time>2020-08-02T05:48:44.000Z</time>
      </trkpt>
      <trkpt lat="43.60028" lon="3.81409">
        <ele>32</ele>
        <time>2020-08-02T05:48:45.000Z</time>
      </trkpt>
      <trkpt lat="43.60029" lon="3.81405">
        <ele>32</ele>
        <time>2020-08-02T05:48:46.000Z</time>
      </trkpt>
      <trkpt lat="43.6003" lon="3.814">
        <ele>32</ele>
        <time>2020-08-02T05:48:47.000Z</time>
      </trkpt>
      <trkpt lat="43.60031" lon="3.81396">
        <ele>32</ele>
        <time>2020-08-02T05:48:48.000Z</time>
      </trkpt>
      <trkpt lat="43.60033" lon="3.81392">
        <ele>32</ele>
        <time>2020-08-02T05:48:49.000Z</time>
      </trkpt>
      <trkpt lat="43.60034" lon="3.81388">
        <ele>32</ele>
        <time>2020-08-02T05:48:50.000Z</time>
      </trkpt>
      <trkpt lat="43.60034" lon="3.81384">
        <ele>32</ele>
        <time>2020-08-02T05:48:51.000Z</time>
      </trkpt>
      <trkpt lat="43.60034" lon="3.8138">
        <ele>32</ele>
        <time>2020-08-02T05:48:52.000Z</time>
      </trkpt>
      <trkpt lat="43.60034" lon="3.81377">
        <ele>32</ele>
        <time>2020-08-02T05:48:53.000Z</time>
      </trkpt>
      <trkpt lat="43.60031" lon="3.81374">
        <ele>32</ele>
        <time>2020-08-02T05:48:54.000Z</time>
      </trkpt>
      <trkpt lat="43.60029" lon="3.81371">
        <ele>32</ele>
        <time>2020-08-02T05:48:55.000Z</time>
      </trkpt>
      <trkpt lat="43.60026" lon="3.81368">
        <ele>32.04499968</ele>
        <time>2020-08-02T05:48:56.000Z</time>
      </trkpt>
      <trkpt lat="43.60023" lon="3.81364">
        <ele>32.14499968</ele>
        <time>2020-08-02T05:48:57.000Z</time>
      </trkpt>
      <trkpt lat="43.60021" lon="3.8136">
        <ele>32.24499968</ele>
        <time>2020-08-02T05:48:58.000Z</time>
      </trkpt>
      <trkpt lat="43.60018" lon="3.81356">
        <ele>32.34499968</ele>
        <time>2020-08-02T05:48:59.000Z</time>
      </trkpt>
      <trkpt lat="43.60016" lon="3.81352">
        <ele>32.44499968</ele>
        <time>2020-08-02T05:49:00.000Z</time>
      </trkpt>
      <trkpt lat="43.60014" lon="3.81349">
        <ele>32.54499968</ele>
        <time>2020-08-02T05:49:01.000Z</time>
      </trkpt>
      <trkpt lat="43.60011" lon="3.81345">
        <ele>32.64499968</ele>
        <time>2020-08-02T05:49:02.000Z</time>
      </trkpt>
      <trkpt lat="43.60009" lon="3.81342">
        <ele>32.74499968</ele>
        <time>2020-08-02T05:49:03.000Z</time>
      </trkpt>
      <trkpt lat="43.60007" lon="3.81339">
        <ele>32.84499968</ele>
        <time>2020-08-02T05:49:04.000Z</time>
      </trkpt>
      <trkpt lat="43.60005" lon="3.81335">
        <ele>32.94499968</ele>
        <time>2020-08-02T05:49:05.000Z</time>
      </trkpt>
      <trkpt lat="43.60002" lon="3.81332">
        <ele>33.043731481044</ele>
        <time>2020-08-02T05:49:06.000Z</time>
      </trkpt>
      <trkpt lat="43.6" lon="3.81328">
        <ele>33.1409132411</ele>
        <time>2020-08-02T05:49:07.000Z</time>
      </trkpt>
      <trkpt lat="43.59997" lon="3.81325">
        <ele>33.238095001157</ele>
        <time>2020-08-02T05:49:08.000Z</time>
      </trkpt>
      <trkpt lat="43.59995" lon="3.81321">
        <ele>33.335276761213</ele>
        <time>2020-08-02T05:49:09.000Z</time>
      </trkpt>
      <trkpt lat="43.59992" lon="3.81318">
        <ele>33.43245852127</ele>
        <time>2020-08-02T05:49:10.000Z</time>
      </trkpt>
      <trkpt lat="43.5999" lon="3.81315">
        <ele>33.529640281326</ele>
        <time>2020-08-02T05:49:11.000Z</time>
      </trkpt>
      <trkpt lat="43.59988" lon="3.81311">
        <ele>33.626822041383</ele>
        <time>2020-08-02T05:49:12.000Z</time>
      </trkpt>
      <trkpt lat="43.59985" lon="3.81308">
        <ele>33.72400380144</ele>
        <time>2020-08-02T05:49:13.000Z</time>
      </trkpt>
      <trkpt lat="43.59983" lon="3.81305">
        <ele>33.821185561496</ele>
        <time>2020-08-02T05:49:14.000Z</time>
      </trkpt>
      <trkpt lat="43.59981" lon="3.81302">
        <ele>33.918367321553</ele>
        <time>2020-08-02T05:49:15.000Z</time>
      </trkpt>
      <trkpt lat="43.59978" lon="3.81299">
        <ele>34.032955704896</ele>
        <time>2020-08-02T05:49:16.000Z</time>
      </trkpt>
      <trkpt lat="43.59976" lon="3.81296">
        <ele>34.238928860497</ele>
        <time>2020-08-02T05:49:17.000Z</time>
      </trkpt>
      <trkpt lat="43.59974" lon="3.81293">
        <ele>34.444902016098</ele>
        <time>2020-08-02T05:49:18.000Z</time>
      </trkpt>
      <trkpt lat="43.59972" lon="3.81291">
        <ele>34.650875171699</ele>
        <time>2020-08-02T05:49:19.000Z</time>
      </trkpt>
      <trkpt lat="43.5997" lon="3.81288">
        <ele>34.8568483273</ele>
        <time>2020-08-02T05:49:20.000Z</time>
      </trkpt>
      <trkpt lat="43.59967" lon="3.81285">
        <ele>35.062821482901</ele>
        <time>2020-08-02T05:49:21.000Z</time>
      </trkpt>
      <trkpt lat="43.59965" lon="3.81282">
        <ele>35.268794638502</ele>
        <time>2020-08-02T05:49:22.000Z</time>
      </trkpt>
      <trkpt lat="43.59963" lon="3.8128">
        <ele>35.474767794103</ele>
        <time>2020-08-02T05:49:23.000Z</time>
      </trkpt>
      <trkpt lat="43.59961" lon="3.81277">
        <ele>35.680740949704</ele>
        <time>2020-08-02T05:49:24.000Z</time>
      </trkpt>
      <trkpt lat="43.59959" lon="3.81275">
        <ele>35.886714105305</ele>
        <time>2020-08-02T05:49:25.000Z</time>
      </trkpt>
      <trkpt lat="43.59957" lon="3.81272">
        <ele>36.043731481044</ele>
        <time>2020-08-02T05:49:26.000Z</time>
      </trkpt>
      <trkpt lat="43.59954" lon="3.8127">
        <ele>36.1409132411</ele>
        <time>2020-08-02T05:49:27.000Z</time>
      </trkpt>
      <trkpt lat="43.59952" lon="3.81267">
        <ele>36.238095001157</ele>
        <time>2020-08-02T05:49:28.000Z</time>
      </trkpt>
      <trkpt lat="43.5995" lon="3.81265">
        <ele>36.335276761213</ele>
        <time>2020-08-02T05:49:29.000Z</time>
      </trkpt>
      <trkpt lat="43.59948" lon="3.81263">
        <ele>36.43245852127</ele>
        <time>2020-08-02T05:49:30.000Z</time>
      </trkpt>
      <trkpt lat="43.59945" lon="3.81261">
        <ele>36.529640281326</ele>
        <time>2020-08-02T05:49:31.000Z</time>
      </trkpt>
      <trkpt lat="43.59943" lon="3.81259">
        <ele>36.626822041383</ele>
        <time>2020-08-02T05:49:32.000Z</time>
      </trkpt>
      <trkpt lat="43.59941" lon="3.81257">
        <ele>36.72400380144</ele>
        <time>2020-08-02T05:49:33.000Z</time>
      </trkpt>
      <trkpt lat="43.59939" lon="3.81255">
        <ele>36.821185561496</ele>
        <time>2020-08-02T05:49:34.000Z</time>
      </trkpt>
      <trkpt lat="43.59937" lon="3.81253">
        <ele>36.918367321553</ele>
        <time>2020-08-02T05:49:35.000Z</time>
      </trkpt>
      <trkpt lat="43.59935" lon="3.81252">
        <ele>37.016477852448</ele>
        <time>2020-08-02T05:49:36.000Z</time>
      </trkpt>
      <trkpt lat="43.59933" lon="3.8125">
        <ele>37.119464430249</ele>
        <time>2020-08-02T05:49:37.000Z</time>
      </trkpt>
      <trkpt lat="43.59931" lon="3.81249">
        <ele>37.222451008049</ele>
        <time>2020-08-02T05:49:38.000Z</time>
      </trkpt>
      <trkpt lat="43.59929" lon="3.81247">
        <ele>37.32543758585</ele>
        <time>2020-08-02T05:49:39.000Z</time>
      </trkpt>
      <trkpt lat="43.59927" lon="3.81246">
        <ele>37.42842416365</ele>
        <time>2020-08-02T05:49:40.000Z</time>
      </trkpt>
      <trkpt lat="43.59925" lon="3.81245">
        <ele>37.531410741451</ele>
        <time>2020-08-02T05:49:41.000Z</time>
      </trkpt>
      <trkpt lat="43.59923" lon="3.81243">
        <ele>37.634397319251</ele>
        <time>2020-08-02T05:49:42.000Z</time>
      </trkpt>
      <trkpt lat="43.59921" lon="3.81242">
        <ele>37.737383897052</ele>
        <time>2020-08-02T05:49:43.000Z</time>
      </trkpt>
      <trkpt lat="43.59919" lon="3.81241">
        <ele>37.840370474852</ele>
        <time>2020-08-02T05:49:44.000Z</time>
      </trkpt>
      <trkpt lat="43.59918" lon="3.81239">
        <ele>37.943357052653</ele>
        <time>2020-08-02T05:49:45.000Z</time>
      </trkpt>
      <trkpt lat="43.59916" lon="3.81238">
        <ele>38.08999936</ele>
        <time>2020-08-02T05:49:46.000Z</time>
      </trkpt>
      <trkpt lat="43.59914" lon="3.81236">
        <ele>38.28999936</ele>
        <time>2020-08-02T05:49:47.000Z</time>
      </trkpt>
      <trkpt lat="43.59912" lon="3.81235">
        <ele>38.48999936</ele>
        <time>2020-08-02T05:49:48.000Z</time>
      </trkpt>
      <trkpt lat="43.5991" lon="3.81233">
        <ele>38.68999936</ele>
        <time>2020-08-02T05:49:49.000Z</time>
      </trkpt>
      <trkpt lat="43.59908" lon="3.81231">
        <ele>38.88999936</ele>
        <time>2020-08-02T05:49:50.000Z</time>
      </trkpt>
      <trkpt lat="43.59906" lon="3.81229">
        <ele>39.08999936</ele>
        <time>2020-08-02T05:49:51.000Z</time>
      </trkpt>
      <trkpt lat="43.59904" lon="3.81228">
        <ele>39.28999936</ele>
        <time>2020-08-02T05:49:52.000Z</time>
      </trkpt>
      <trkpt lat="43.59902" lon="3.81226">
        <ele>39.48999936</ele>
        <time>2020-08-02T05:49:53.000Z</time>
      </trkpt>
      <trkpt lat="43.599" lon="3.81224">
        <ele>39.68999936</ele>
        <time>2020-08-02T05:49:54.000Z</time>
      </trkpt>
      <trkpt lat="43.59898" lon="3.81222">
        <ele>39.88999936</ele>
        <time>2020-08-02T05:49:55.000Z</time>
      </trkpt>
      <trkpt lat="43.59896" lon="3.81221">
        <ele>40.089819777929</ele>
        <time>2020-08-02T05:49:56.000Z</time>
      </trkpt>
      <trkpt lat="43.59894" lon="3.81219">
        <ele>40.289420703822</ele>
        <time>2020-08-02T05:49:57.000Z</time>
      </trkpt>
      <trkpt lat="43.59892" lon="3.81218">
        <ele>40.489021629714</ele>
        <time>2020-08-02T05:49:58.000Z</time>
      </trkpt>
      <trkpt lat="43.5989" lon="3.81216">
        <ele>40.688622555607</ele>
        <time>2020-08-02T05:49:59.000Z</time>
      </trkpt>
      <trkpt lat="43.59888" lon="3.81214">
        <ele>40.8882234815</ele>
        <time>2020-08-02T05:50:00.000Z</time>
      </trkpt>
      <trkpt lat="43.59886" lon="3.81213">
        <ele>41.087824407393</ele>
        <time>2020-08-02T05:50:01.000Z</time>
      </trkpt>
      <trkpt lat="43.59884" lon="3.81211">
        <ele>41.287425333286</ele>
        <time>2020-08-02T05:50:02.000Z</time>
      </trkpt>
      <trkpt lat="43.59882" lon="3.81209">
        <ele>41.487026259178</ele>
        <time>2020-08-02T05:50:03.000Z</time>
      </trkpt>
      <trkpt lat="43.5988" lon="3.81207">
        <ele>41.686627185071</ele>
        <time>2020-08-02T05:50:04.000Z</time>
      </trkpt>
      <trkpt lat="43.59878" lon="3.81206">
        <ele>41.886228110964</ele>
        <time>2020-08-02T05:50:05.000Z</time>
      </trkpt>
      <trkpt lat="43.59876" lon="3.81204">
        <ele>42.043086465355</ele>
        <time>2020-08-02T05:50:06.000Z</time>
      </trkpt>
      <trkpt lat="43.59874" lon="3.81202">
        <ele>42.1432868019</ele>
        <time>2020-08-02T05:50:07.000Z</time>
      </trkpt>
      <trkpt lat="43.59873" lon="3.812">
        <ele>42.243487138445</ele>
        <time>2020-08-02T05:50:08.000Z</time>
      </trkpt>
      <trkpt lat="43.59871" lon="3.81198">
        <ele>42.34368747499</ele>
        <time>2020-08-02T05:50:09.000Z</time>
      </trkpt>
      <trkpt lat="43.59869" lon="3.81196">
        <ele>42.443887811535</ele>
        <time>2020-08-02T05:50:10.000Z</time>
      </trkpt>
      <trkpt lat="43.59868" lon="3.81194">
        <ele>42.54408814808</ele>
        <time>2020-08-02T05:50:11.000Z</time>
      </trkpt>
      <trkpt lat="43.59866" lon="3.81193">
        <ele>42.644288484625</ele>
        <time>2020-08-02T05:50:12.000Z</time>
      </trkpt>
      <trkpt lat="43.59864" lon="3.81191">
        <ele>42.744488821169</ele>
        <time>2020-08-02T05:50:13.000Z</time>
      </trkpt>
      <trkpt lat="43.59863" lon="3.81189">
        <ele>42.844689157714</ele>
        <time>2020-08-02T05:50:14.000Z</time>
      </trkpt>
      <trkpt lat="43.59861" lon="3.81187">
        <ele>42.944889494259</ele>
        <time>2020-08-02T05:50:15.000Z</time>
      </trkpt>
      <trkpt lat="43.59859" lon="3.81185">
        <ele>43.04499968</ele>
        <time>2020-08-02T05:50:16.000Z</time>
      </trkpt>
      <trkpt lat="43.59858" lon="3.81182">
        <ele>43.14499968</ele>
        <time>2020-08-02T05:50:17.000Z</time>
      </trkpt>
      <trkpt lat="43.59856" lon="3.8118">
        <ele>43.24499968</ele>
        <time>2020-08-02T05:50:18.000Z</time>
      </trkpt>
      <trkpt lat="43.59854" lon="3.81178">
        <ele>43.34499968</ele>
        <time>2020-08-02T05:50:19.000Z</time>
      </trkpt>
      <trkpt lat="43.59853" lon="3.81176">
        <ele>43.44499968</ele>
        <time>2020-08-02T05:50:20.000Z</time>
      </trkpt>
      <trkpt lat="43.59851" lon="3.81173">
        <ele>43.54499968</ele>
        <time>2020-08-02T05:50:21.000Z</time>
      </trkpt>
      <trkpt lat="43.5985" lon="3.81171">
        <ele>43.64499968</ele>
        <time>2020-08-02T05:50:22.000Z</time>
      </trkpt>
      <trkpt lat="43.59848" lon="3.81168">
        <ele>43.74499968</ele>
        <time>2020-08-02T05:50:23.000Z</time>
      </trkpt>
      <trkpt lat="43.59847" lon="3.81166">
        <ele>43.84499968</ele>
        <time>2020-08-02T05:50:24.000Z</time>
      </trkpt>
      <trkpt lat="43.59845" lon="3.81163">
        <ele>43.94499968</ele>
        <time>2020-08-02T05:50:25.000Z</time>
      </trkpt>
      <trkpt lat="43.59844" lon="3.8116">
        <ele>44.089462641408</ele>
        <time>2020-08-02T05:50:26.000Z</time>
      </trkpt>
      <trkpt lat="43.59842" lon="3.81158">
        <ele>44.288269924943</ele>
        <time>2020-08-02T05:50:27.000Z</time>
      </trkpt>
      <trkpt lat="43.59841" lon="3.81155">
        <ele>44.487077208479</ele>
        <time>2020-08-02T05:50:28.000Z</time>
      </trkpt>
      <trkpt lat="43.5984" lon="3.81152">
        <ele>44.685884492014</ele>
        <time>2020-08-02T05:50:29.000Z</time>
      </trkpt>
      <trkpt lat="43.59838" lon="3.8115">
        <ele>44.884691775549</ele>
        <time>2020-08-02T05:50:30.000Z</time>
      </trkpt>
      <trkpt lat="43.59837" lon="3.81147">
        <ele>45.083499059085</ele>
        <time>2020-08-02T05:50:31.000Z</time>
      </trkpt>
      <trkpt lat="43.59836" lon="3.81145">
        <ele>45.28230634262</ele>
        <time>2020-08-02T05:50:32.000Z</time>
      </trkpt>
      <trkpt lat="43.59835" lon="3.81142">
        <ele>45.481113626156</ele>
        <time>2020-08-02T05:50:33.000Z</time>
      </trkpt>
      <trkpt lat="43.59833" lon="3.8114">
        <ele>45.679920909691</ele>
        <time>2020-08-02T05:50:34.000Z</time>
      </trkpt>
      <trkpt lat="43.59831" lon="3.81139">
        <ele>45.878728193227</ele>
        <time>2020-08-02T05:50:35.000Z</time>
      </trkpt>
      <trkpt lat="43.59829" lon="3.8114">
        <ele>45.960764290856</ele>
        <time>2020-08-02T05:50:36.000Z</time>
      </trkpt>
      <trkpt lat="43.59828" lon="3.81141">
        <ele>45.8601607339</ele>
        <time>2020-08-02T05:50:37.000Z</time>
      </trkpt>
      <trkpt lat="43.59826" lon="3.81143">
        <ele>45.759557176945</ele>
        <time>2020-08-02T05:50:38.000Z</time>
      </trkpt>
      <trkpt lat="43.59825" lon="3.81146">
        <ele>45.65895361999</ele>
        <time>2020-08-02T05:50:39.000Z</time>
      </trkpt>
      <trkpt lat="43.59824" lon="3.81149">
        <ele>45.558350063034</ele>
        <time>2020-08-02T05:50:40.000Z</time>
      </trkpt>
      <trkpt lat="43.59822" lon="3.81152">
        <ele>45.457746506079</ele>
        <time>2020-08-02T05:50:41.000Z</time>
      </trkpt>
      <trkpt lat="43.59821" lon="3.81155">
        <ele>45.357142949123</ele>
        <time>2020-08-02T05:50:42.000Z</time>
      </trkpt>
      <trkpt lat="43.59819" lon="3.81158">
        <ele>45.256539392168</ele>
        <time>2020-08-02T05:50:43.000Z</time>
      </trkpt>
      <trkpt lat="43.59818" lon="3.81162">
        <ele>45.155935835212</ele>
        <time>2020-08-02T05:50:44.000Z</time>
      </trkpt>
      <trkpt lat="43.59817" lon="3.81165">
        <ele>45.055332278257</ele>
        <time>2020-08-02T05:50:45.000Z</time>
      </trkpt>
      <trkpt lat="43.59816" lon="3.81169">
        <ele>44.95500032</ele>
        <time>2020-08-02T05:50:46.000Z</time>
      </trkpt>
      <trkpt lat="43.59815" lon="3.81173">
        <ele>44.85500032</ele>
        <time>2020-08-02T05:50:47.000Z</time>
      </trkpt>
      <trkpt lat="43.59814" lon="3.81178">
        <ele>44.75500032</ele>
        <time>2020-08-02T05:50:48.000Z</time>
      </trkpt>
      <trkpt lat="43.59813" lon="3.81182">
        <ele>44.65500032</ele>
        <time>2020-08-02T05:50:49.000Z</time>
      </trkpt>
      <trkpt lat="43.59811" lon="3.81187">
        <ele>44.55500032</ele>
        <time>2020-08-02T05:50:50.000Z</time>
      </trkpt>
      <trkpt lat="43.5981" lon="3.81192">
        <ele>44.45500032</ele>
        <time>2020-08-02T05:50:51.000Z</time>
      </trkpt>
      <trkpt lat="43.59808" lon="3.81197">
        <ele>44.35500032</ele>
        <time>2020-08-02T05:50:52.000Z</time>
      </trkpt>
      <trkpt lat="43.59806" lon="3.81201">
        <ele>44.25500032</ele>
        <time>2020-08-02T05:50:53.000Z</time>
      </trkpt>
      <trkpt lat="43.59804" lon="3.81205">
        <ele>44.15500032</ele>
        <time>2020-08-02T05:50:54.000Z</time>
      </trkpt>
      <trkpt lat="43.59802" lon="3.8121">
        <ele>44.05500032</ele>
        <time>2020-08-02T05:50:55.000Z</time>
      </trkpt>
      <trkpt lat="43.59799" lon="3.81214">
        <ele>43.956225992218</ele>
        <time>2020-08-02T05:50:56.000Z</time>
      </trkpt>
      <trkpt lat="43.59796" lon="3.81218">
        <ele>43.858949727627</ele>
        <time>2020-08-02T05:50:57.000Z</time>
      </trkpt>
      <trkpt lat="43.59794" lon="3.81223">
        <ele>43.761673463035</ele>
        <time>2020-08-02T05:50:58.000Z</time>
      </trkpt>
      <trkpt lat="43.59791" lon="3.81227">
        <ele>43.664397198444</ele>
        <time>2020-08-02T05:50:59.000Z</time>
      </trkpt>
      <trkpt lat="43.59788" lon="3.81231">
        <ele>43.567120933852</ele>
        <time>2020-08-02T05:51:00.000Z</time>
      </trkpt>
      <trkpt lat="43.59786" lon="3.81235">
        <ele>43.469844669261</ele>
        <time>2020-08-02T05:51:01.000Z</time>
      </trkpt>
      <trkpt lat="43.59783" lon="3.81239">
        <ele>43.372568404669</ele>
        <time>2020-08-02T05:51:02.000Z</time>
      </trkpt>
      <trkpt lat="43.59781" lon="3.81243">
        <ele>43.275292140078</ele>
        <time>2020-08-02T05:51:03.000Z</time>
      </trkpt>
      <trkpt lat="43.59779" lon="3.81247">
        <ele>43.178015875486</ele>
        <time>2020-08-02T05:51:04.000Z</time>
      </trkpt>
      <trkpt lat="43.59776" lon="3.81252">
        <ele>43.080739610895</ele>
        <time>2020-08-02T05:51:05.000Z</time>
      </trkpt>
      <trkpt lat="43.59774" lon="3.81256">
        <ele>42.982510617284</ele>
        <time>2020-08-02T05:51:06.000Z</time>
      </trkpt>
      <trkpt lat="43.59772" lon="3.8126">
        <ele>42.879629958848</ele>
        <time>2020-08-02T05:51:07.000Z</time>
      </trkpt>
      <trkpt lat="43.5977" lon="3.81265">
        <ele>42.776749300412</ele>
        <time>2020-08-02T05:51:08.000Z</time>
      </trkpt>
      <trkpt lat="43.59768" lon="3.81269">
        <ele>42.673868641975</ele>
        <time>2020-08-02T05:51:09.000Z</time>
      </trkpt>
      <trkpt lat="43.59765" lon="3.81273">
        <ele>42.570987983539</ele>
        <time>2020-08-02T05:51:10.000Z</time>
      </trkpt>
      <trkpt lat="43.59763" lon="3.81278">
        <ele>42.468107325103</ele>
        <time>2020-08-02T05:51:11.000Z</time>
      </trkpt>
      <trkpt lat="43.59761" lon="3.81282">
        <ele>42.365226666667</ele>
        <time>2020-08-02T05:51:12.000Z</time>
      </trkpt>
      <trkpt lat="43.59759" lon="3.81287">
        <ele>42.262346008231</ele>
        <time>2020-08-02T05:51:13.000Z</time>
      </trkpt>
      <trkpt lat="43.59756" lon="3.81292">
        <ele>42.159465349794</ele>
        <time>2020-08-02T05:51:14.000Z</time>
      </trkpt>
      <trkpt lat="43.59754" lon="3.81297">
        <ele>42.056584691358</ele>
        <time>2020-08-02T05:51:15.000Z</time>
      </trkpt>
      <trkpt lat="43.59751" lon="3.81302">
        <ele>41.95500032</ele>
        <time>2020-08-02T05:51:16.000Z</time>
      </trkpt>
      <trkpt lat="43.59748" lon="3.81307">
        <ele>41.85500032</ele>
        <time>2020-08-02T05:51:17.000Z</time>
      </trkpt>
      <trkpt lat="43.59746" lon="3.81312">
        <ele>41.75500032</ele>
        <time>2020-08-02T05:51:18.000Z</time>
      </trkpt>
      <trkpt lat="43.59743" lon="3.81317">
        <ele>41.65500032</ele>
        <time>2020-08-02T05:51:19.000Z</time>
      </trkpt>
      <trkpt lat="43.59741" lon="3.81322">
        <ele>41.55500032</ele>
        <time>2020-08-02T05:51:20.000Z</time>
      </trkpt>
      <trkpt lat="43.59738" lon="3.81327">
        <ele>41.45500032</ele>
        <time>2020-08-02T05:51:21.000Z</time>
      </trkpt>
      <trkpt lat="43.59735" lon="3.81332">
        <ele>41.35500032</ele>
        <time>2020-08-02T05:51:22.000Z</time>
      </trkpt>
      <trkpt lat="43.59733" lon="3.81337">
        <ele>41.25500032</ele>
        <time>2020-08-02T05:51:23.000Z</time>
      </trkpt>
      <trkpt lat="43.5973" lon="3.81342">
        <ele>41.15500032</ele>
        <time>2020-08-02T05:51:24.000Z</time>
      </trkpt>
      <trkpt lat="43.59728" lon="3.81347">
        <ele>41.05500032</ele>
        <time>2020-08-02T05:51:25.000Z</time>
      </trkpt>
      <trkpt lat="43.59725" lon="3.81351">
        <ele>40.91000064</ele>
        <time>2020-08-02T05:51:26.000Z</time>
      </trkpt>
      <trkpt lat="43.59722" lon="3.81356">
        <ele>40.71000064</ele>
        <time>2020-08-02T05:51:27.000Z</time>
      </trkpt>
      <trkpt lat="43.5972" lon="3.81361">
        <ele>40.51000064</ele>
        <time>2020-08-02T05:51:28.000Z</time>
      </trkpt>
      <trkpt lat="43.59717" lon="3.81365">
        <ele>40.31000064</ele>
        <time>2020-08-02T05:51:29.000Z</time>
      </trkpt>
      <trkpt lat="43.59715" lon="3.8137">
        <ele>40.11000064</ele>
        <time>2020-08-02T05:51:30.000Z</time>
      </trkpt>
      <trkpt lat="43.59712" lon="3.81375">
        <ele>39.91000064</ele>
        <time>2020-08-02T05:51:31.000Z</time>
      </trkpt>
      <trkpt lat="43.5971" lon="3.81379">
        <ele>39.71000064</ele>
        <time>2020-08-02T05:51:32.000Z</time>
      </trkpt>
      <trkpt lat="43.59708" lon="3.81384">
        <ele>39.51000064</ele>
        <time>2020-08-02T05:51:33.000Z</time>
      </trkpt>
      <trkpt lat="43.59705" lon="3.81389">
        <ele>39.31000064</ele>
        <time>2020-08-02T05:51:34.000Z</time>
      </trkpt>
      <trkpt lat="43.59703" lon="3.81394">
        <ele>39.11000064</ele>
        <time>2020-08-02T05:51:35.000Z</time>
      </trkpt>
      <trkpt lat="43.59701" lon="3.81399">
        <ele>38.91000064</ele>
        <time>2020-08-02T05:51:36.000Z</time>
      </trkpt>
      <trkpt lat="43.59698" lon="3.81403">
        <ele>38.71000064</ele>
        <time>2020-08-02T05:51:37.000Z</time>
      </trkpt>
      <trkpt lat="43.59695" lon="3.81408">
        <ele>38.51000064</ele>
        <time>2020-08-02T05:51:38.000Z</time>
      </trkpt>
      <trkpt lat="43.59693" lon="3.81413">
        <ele>38.31000064</ele>
        <time>2020-08-02T05:51:39.000Z</time>
      </trkpt>
      <trkpt lat="43.59691" lon="3.81418">
        <ele>38.11000064</ele>
        <time>2020-08-02T05:51:40.000Z</time>
      </trkpt>
      <trkpt lat="43.59688" lon="3.81423">
        <ele>37.91000064</ele>
        <time>2020-08-02T05:51:41.000Z</time>
      </trkpt>
      <trkpt lat="43.59686" lon="3.81427">
        <ele>37.71000064</ele>
        <time>2020-08-02T05:51:42.000Z</time>
      </trkpt>
      <trkpt lat="43.59683" lon="3.8143">
        <ele>37.51000064</ele>
        <time>2020-08-02T05:51:43.000Z</time>
      </trkpt>
      <trkpt lat="43.59679" lon="3.81433">
        <ele>37.31000064</ele>
        <time>2020-08-02T05:51:44.000Z</time>
      </trkpt>
      <trkpt lat="43.59675" lon="3.81436">
        <ele>37.11000064</ele>
        <time>2020-08-02T05:51:45.000Z</time>
      </trkpt>
      <trkpt lat="43.59671" lon="3.81437">
        <ele>37</ele>
        <time>2020-08-02T05:51:46.000Z</time>
      </trkpt>
      <trkpt lat="43.59666" lon="3.81436">
        <ele>37</ele>
        <time>2020-08-02T05:51:47.000Z</time>
      </trkpt>
      <trkpt lat="43.59662" lon="3.81435">
        <ele>37</ele>
        <time>2020-08-02T05:51:48.000Z</time>
      </trkpt>
      <trkpt lat="43.59659" lon="3.81433">
        <ele>37</ele>
        <time>2020-08-02T05:51:49.000Z</time>
      </trkpt>
      <trkpt lat="43.59655" lon="3.8143">
        <ele>37</ele>
        <time>2020-08-02T05:51:50.000Z</time>
      </trkpt>
      <trkpt lat="43.59651" lon="3.81428">
        <ele>37</ele>
        <time>2020-08-02T05:51:51.000Z</time>
      </trkpt>
      <trkpt lat="43.59646" lon="3.81425">
        <ele>37</ele>
        <time>2020-08-02T05:51:52.000Z</time>
      </trkpt>
      <trkpt lat="43.59641" lon="3.81424">
        <ele>37</ele>
        <time>2020-08-02T05:51:53.000Z</time>
      </trkpt>
      <trkpt lat="43.59635" lon="3.81423">
        <ele>37</ele>
        <time>2020-08-02T05:51:54.000Z</time>
      </trkpt>
      <trkpt lat="43.5963" lon="3.81422">
        <ele>37</ele>
        <time>2020-08-02T05:51:55.000Z</time>
      </trkpt>
      <trkpt lat="43.59625" lon="3.81421">
        <ele>36.968559533592</ele>
        <time>2020-08-02T05:51:56.000Z</time>
      </trkpt>
      <trkpt lat="43.5962" lon="3.8142">
        <ele>36.867139721126</ele>
        <time>2020-08-02T05:51:57.000Z</time>
      </trkpt>
      <trkpt lat="43.59615" lon="3.8142">
        <ele>36.765719908661</ele>
        <time>2020-08-02T05:51:58.000Z</time>
      </trkpt>
      <trkpt lat="43.5961" lon="3.8142">
        <ele>36.664300096195</ele>
        <time>2020-08-02T05:51:59.000Z</time>
      </trkpt>
      <trkpt lat="43.59604" lon="3.81419">
        <ele>36.562880283729</ele>
        <time>2020-08-02T05:52:00.000Z</time>
      </trkpt>
      <trkpt lat="43.59599" lon="3.81419">
        <ele>36.461460471263</ele>
        <time>2020-08-02T05:52:01.000Z</time>
      </trkpt>
      <trkpt lat="43.59594" lon="3.81418">
        <ele>36.360040658797</ele>
        <time>2020-08-02T05:52:02.000Z</time>
      </trkpt>
      <trkpt lat="43.59589" lon="3.81418">
        <ele>36.258620846331</ele>
        <time>2020-08-02T05:52:03.000Z</time>
      </trkpt>
      <trkpt lat="43.59584" lon="3.81417">
        <ele>36.157201033865</ele>
        <time>2020-08-02T05:52:04.000Z</time>
      </trkpt>
      <trkpt lat="43.5958" lon="3.81416">
        <ele>36.0557812214</ele>
        <time>2020-08-02T05:52:05.000Z</time>
      </trkpt>
      <trkpt lat="43.59575" lon="3.81416">
        <ele>35.91000064</ele>
        <time>2020-08-02T05:52:06.000Z</time>
      </trkpt>
      <trkpt lat="43.5957" lon="3.81415">
        <ele>35.71000064</ele>
        <time>2020-08-02T05:52:07.000Z</time>
      </trkpt>
      <trkpt lat="43.59565" lon="3.81415">
        <ele>35.51000064</ele>
        <time>2020-08-02T05:52:08.000Z</time>
      </trkpt>
      <trkpt lat="43.5956" lon="3.81414">
        <ele>35.31000064</ele>
        <time>2020-08-02T05:52:09.000Z</time>
      </trkpt>
      <trkpt lat="43.59555" lon="3.81414">
        <ele>35.11000064</ele>
        <time>2020-08-02T05:52:10.000Z</time>
      </trkpt>
      <trkpt lat="43.5955" lon="3.81414">
        <ele>34.91000064</ele>
        <time>2020-08-02T05:52:11.000Z</time>
      </trkpt>
      <trkpt lat="43.59546" lon="3.81413">
        <ele>34.71000064</ele>
        <time>2020-08-02T05:52:12.000Z</time>
      </trkpt>
      <trkpt lat="43.59541" lon="3.81413">
        <ele>34.51000064</ele>
        <time>2020-08-02T05:52:13.000Z</time>
      </trkpt>
      <trkpt lat="43.59537" lon="3.81413">
        <ele>34.31000064</ele>
        <time>2020-08-02T05:52:14.000Z</time>
      </trkpt>
      <trkpt lat="43.59532" lon="3.81412">
        <ele>34.11000064</ele>
        <time>2020-08-02T05:52:15.000Z</time>
      </trkpt>
      <trkpt lat="43.59527" lon="3.81411">
        <ele>34</ele>
        <time>2020-08-02T05:52:16.000Z</time>
      </trkpt>
      <trkpt lat="43.59522" lon="3.81411">
        <ele>34</ele>
        <time>2020-08-02T05:52:17.000Z</time>
      </trkpt>
      <trkpt lat="43.59518" lon="3.81411">
        <ele>34</ele>
        <time>2020-08-02T05:52:18.000Z</time>
      </trkpt>
      <trkpt lat="43.59513" lon="3.81411">
        <ele>34</ele>
        <time>2020-08-02T05:52:19.000Z</time>
      </trkpt>
      <trkpt lat="43.59509" lon="3.8141">
        <ele>34</ele>
        <time>2020-08-02T05:52:20.000Z</time>
      </trkpt>
      <trkpt lat="43.59504" lon="3.81409">
        <ele>34</ele>
        <time>2020-08-02T05:52:21.000Z</time>
      </trkpt>
      <trkpt lat="43.59499" lon="3.81408">
        <ele>34</ele>
        <time>2020-08-02T05:52:22.000Z</time>
      </trkpt>
      <trkpt lat="43.59495" lon="3.81408">
        <ele>34</ele>
        <time>2020-08-02T05:52:23.000Z</time>
      </trkpt>
      <trkpt lat="43.5949" lon="3.81408">
        <ele>34</ele>
        <time>2020-08-02T05:52:24.000Z</time>
      </trkpt>
      <trkpt lat="43.59486" lon="3.81407">
        <ele>34</ele>
        <time>2020-08-02T05:52:25.000Z</time>
      </trkpt>
      <trkpt lat="43.59482" lon="3.81406">
        <ele>33.983522147552</ele>
        <time>2020-08-02T05:52:26.000Z</time>
      </trkpt>
      <trkpt lat="43.59477" lon="3.81406">
        <ele>33.880535569751</ele>
        <time>2020-08-02T05:52:27.000Z</time>
      </trkpt>
      <trkpt lat="43.59473" lon="3.81405">
        <ele>33.777548991951</ele>
        <time>2020-08-02T05:52:28.000Z</time>
      </trkpt>
      <trkpt lat="43.59468" lon="3.81404">
        <ele>33.67456241415</ele>
        <time>2020-08-02T05:52:29.000Z</time>
      </trkpt>
      <trkpt lat="43.59464" lon="3.81404">
        <ele>33.57157583635</ele>
        <time>2020-08-02T05:52:30.000Z</time>
      </trkpt>
      <trkpt lat="43.59459" lon="3.81403">
        <ele>33.468589258549</ele>
        <time>2020-08-02T05:52:31.000Z</time>
      </trkpt>
      <trkpt lat="43.59454" lon="3.81401">
        <ele>33.365602680749</ele>
        <time>2020-08-02T05:52:32.000Z</time>
      </trkpt>
      <trkpt lat="43.5945" lon="3.814">
        <ele>33.262616102948</ele>
        <time>2020-08-02T05:52:33.000Z</time>
      </trkpt>
      <trkpt lat="43.59445" lon="3.81398">
        <ele>33.159629525148</ele>
        <time>2020-08-02T05:52:34.000Z</time>
      </trkpt>
      <trkpt lat="43.59441" lon="3.81396">
        <ele>33.056642947347</ele>
        <time>2020-08-02T05:52:35.000Z</time>
      </trkpt>
      <trkpt lat="43.59436" lon="3.81394">
        <ele>32.95500032</ele>
        <time>2020-08-02T05:52:36.000Z</time>
      </trkpt>
      <trkpt lat="43.59431" lon="3.81392">
        <ele>32.85500032</ele>
        <time>2020-08-02T05:52:37.000Z</time>
      </trkpt>
      <trkpt lat="43.59427" lon="3.81389">
        <ele>32.75500032</ele>
        <time>2020-08-02T05:52:38.000Z</time>
      </trkpt>
      <trkpt lat="43.59422" lon="3.81387">
        <ele>32.65500032</ele>
        <time>2020-08-02T05:52:39.000Z</time>
      </trkpt>
      <trkpt lat="43.59418" lon="3.81385">
        <ele>32.55500032</ele>
        <time>2020-08-02T05:52:40.000Z</time>
      </trkpt>
      <trkpt lat="43.59414" lon="3.81382">
        <ele>32.45500032</ele>
        <time>2020-08-02T05:52:41.000Z</time>
      </trkpt>
      <trkpt lat="43.59409" lon="3.8138">
        <ele>32.35500032</ele>
        <time>2020-08-02T05:52:42.000Z</time>
      </trkpt>
      <trkpt lat="43.59404" lon="3.81378">
        <ele>32.25500032</ele>
        <time>2020-08-02T05:52:43.000Z</time>
      </trkpt>
      <trkpt lat="43.594" lon="3.81376">
        <ele>32.15500032</ele>
        <time>2020-08-02T05:52:44.000Z</time>
      </trkpt>
      <trkpt lat="43.59396" lon="3.81374">
        <ele>32.05500032</ele>
        <time>2020-08-02T05:52:45.000Z</time>
      </trkpt>
      <trkpt lat="43.59391" lon="3.81372">
        <ele>32</ele>
        <time>2020-08-02T05:52:46.000Z</time>
      </trkpt>
      <trkpt lat="43.59387" lon="3.8137">
        <ele>32</ele>
        <time>2020-08-02T05:52:47.000Z</time>
      </trkpt>
      <trkpt lat="43.59382" lon="3.81368">
        <ele>32</ele>
        <time>2020-08-02T05:52:48.000Z</time>
      </trkpt>
      <trkpt lat="43.59378" lon="3.81366">
        <ele>32</ele>
        <time>2020-08-02T05:52:49.000Z</time>
      </trkpt>
      <trkpt lat="43.59374" lon="3.81363">
        <ele>32</ele>
        <time>2020-08-02T05:52:50.000Z</time>
      </trkpt>
      <trkpt lat="43.5937" lon="3.81361">
        <ele>32</ele>
        <time>2020-08-02T05:52:51.000Z</time>
      </trkpt>
      <trkpt lat="43.59365" lon="3.81359">
        <ele>32</ele>
        <time>2020-08-02T05:52:52.000Z</time>
      </trkpt>
      <trkpt lat="43.59361" lon="3.81357">
        <ele>32</ele>
        <time>2020-08-02T05:52:53.000Z</time>
      </trkpt>
      <trkpt lat="43.59357" lon="3.81355">
        <ele>32</ele>
        <time>2020-08-02T05:52:54.000Z</time>
      </trkpt>
      <trkpt lat="43.59353" lon="3.81353">
        <ele>32</ele>
        <time>2020-08-02T05:52:55.000Z</time>
      </trkpt>
      <trkpt lat="43.59349" lon="3.81351">
        <ele>32</ele>
        <time>2020-08-02T05:52:56.000Z</time>
      </trkpt>
      <trkpt lat="43.59344" lon="3.81348">
        <ele>32</ele>
        <time>2020-08-02T05:52:57.000Z</time>
      </trkpt>
      <trkpt lat="43.5934" lon="3.81346">
        <ele>32</ele>
        <time>2020-08-02T05:52:58.000Z</time>
      </trkpt>
      <trkpt lat="43.59336" lon="3.81344">
        <ele>32</ele>
        <time>2020-08-02T05:52:59.000Z</time>
      </trkpt>
      <trkpt lat="43.59331" lon="3.81342">
        <ele>32</ele>
        <time>2020-08-02T05:53:00.000Z</time>
      </trkpt>
      <trkpt lat="43.59327" lon="3.81339">
        <ele>32</ele>
        <time>2020-08-02T05:53:01.000Z</time>
      </trkpt>
      <trkpt lat="43.59323" lon="3.81337">
        <ele>32</ele>
        <time>2020-08-02T05:53:02.000Z</time>
      </trkpt>
      <trkpt lat="43.59319" lon="3.81335">
        <ele>32</ele>
        <time>2020-08-02T05:53:03.000Z</time>
      </trkpt>
      <trkpt lat="43.59315" lon="3.81333">
        <ele>32</ele>
        <time>2020-08-02T05:53:04.000Z</time>
      </trkpt>
      <trkpt lat="43.59311" lon="3.8133">
        <ele>32</ele>
        <time>2020-08-02T05:53:05.000Z</time>
      </trkpt>
      <trkpt lat="43.59307" lon="3.81328">
        <ele>31.95500032</ele>
        <time>2020-08-02T05:53:06.000Z</time>
      </trkpt>
      <trkpt lat="43.59303" lon="3.81326">
        <ele>31.85500032</ele>
        <time>2020-08-02T05:53:07.000Z</time>
      </trkpt>
      <trkpt lat="43.59299" lon="3.81324">
        <ele>31.75500032</ele>
        <time>2020-08-02T05:53:08.000Z</time>
      </trkpt>
      <trkpt lat="43.59295" lon="3.81323">
        <ele>31.65500032</ele>
        <time>2020-08-02T05:53:09.000Z</time>
      </trkpt>
      <trkpt lat="43.59291" lon="3.81321">
        <ele>31.55500032</ele>
        <time>2020-08-02T05:53:10.000Z</time>
      </trkpt>
      <trkpt lat="43.59287" lon="3.8132">
        <ele>31.45500032</ele>
        <time>2020-08-02T05:53:11.000Z</time>
      </trkpt>
      <trkpt lat="43.59283" lon="3.81318">
        <ele>31.35500032</ele>
        <time>2020-08-02T05:53:12.000Z</time>
      </trkpt>
      <trkpt lat="43.5928" lon="3.81317">
        <ele>31.25500032</ele>
        <time>2020-08-02T05:53:13.000Z</time>
      </trkpt>
      <trkpt lat="43.59276" lon="3.81316">
        <ele>31.15500032</ele>
        <time>2020-08-02T05:53:14.000Z</time>
      </trkpt>
      <trkpt lat="43.59273" lon="3.81316">
        <ele>31.05500032</ele>
        <time>2020-08-02T05:53:15.000Z</time>
      </trkpt>
      <trkpt lat="43.5927" lon="3.81315">
        <ele>31</ele>
        <time>2020-08-02T05:53:16.000Z</time>
      </trkpt>
      <trkpt lat="43.59268" lon="3.81314">
        <ele>31</ele>
        <time>2020-08-02T05:53:17.000Z</time>
      </trkpt>
      <trkpt lat="43.59266" lon="3.81315">
        <ele>31</ele>
        <time>2020-08-02T05:53:18.000Z</time>
      </trkpt>
      <trkpt lat="43.59263" lon="3.81317">
        <ele>31</ele>
        <time>2020-08-02T05:53:19.000Z</time>
      </trkpt>
      <trkpt lat="43.59261" lon="3.8132">
        <ele>31</ele>
        <time>2020-08-02T05:53:20.000Z</time>
      </trkpt>
      <trkpt lat="43.5926" lon="3.81323">
        <ele>31</ele>
        <time>2020-08-02T05:53:21.000Z</time>
      </trkpt>
      <trkpt lat="43.59258" lon="3.81327">
        <ele>31</ele>
        <time>2020-08-02T05:53:23.000Z</time>
      </trkpt>
      <trkpt lat="43.59256" lon="3.8133">
        <ele>31</ele>
        <time>2020-08-02T05:53:24.000Z</time>
      </trkpt>
      <trkpt lat="43.59254" lon="3.81334">
        <ele>31</ele>
        <time>2020-08-02T05:53:25.000Z</time>
      </trkpt>
      <trkpt lat="43.59251" lon="3.81338">
        <ele>30.955955970064</ele>
        <time>2020-08-02T05:53:26.000Z</time>
      </trkpt>
      <trkpt lat="43.59249" lon="3.81343">
        <ele>30.855855902028</ele>
        <time>2020-08-02T05:53:27.000Z</time>
      </trkpt>
      <trkpt lat="43.59246" lon="3.81348">
        <ele>30.755755833992</ele>
        <time>2020-08-02T05:53:28.000Z</time>
      </trkpt>
      <trkpt lat="43.59242" lon="3.81353">
        <ele>30.655655765956</ele>
        <time>2020-08-02T05:53:29.000Z</time>
      </trkpt>
      <trkpt lat="43.59239" lon="3.81358">
        <ele>30.55555569792</ele>
        <time>2020-08-02T05:53:30.000Z</time>
      </trkpt>
      <trkpt lat="43.59237" lon="3.81363">
        <ele>30.455455629884</ele>
        <time>2020-08-02T05:53:31.000Z</time>
      </trkpt>
      <trkpt lat="43.59234" lon="3.81368">
        <ele>30.355355561848</ele>
        <time>2020-08-02T05:53:32.000Z</time>
      </trkpt>
      <trkpt lat="43.59231" lon="3.81373">
        <ele>30.255255493812</ele>
        <time>2020-08-02T05:53:33.000Z</time>
      </trkpt>
      <trkpt lat="43.59229" lon="3.81378">
        <ele>30.155155425776</ele>
        <time>2020-08-02T05:53:34.000Z</time>
      </trkpt>
      <trkpt lat="43.59226" lon="3.81382">
        <ele>30.05505535774</ele>
        <time>2020-08-02T05:53:35.000Z</time>
      </trkpt>
      <trkpt lat="43.59223" lon="3.81387">
        <ele>29.95500032</ele>
        <time>2020-08-02T05:53:36.000Z</time>
      </trkpt>
      <trkpt lat="43.5922" lon="3.81391">
        <ele>29.85500032</ele>
        <time>2020-08-02T05:53:37.000Z</time>
      </trkpt>
      <trkpt lat="43.59217" lon="3.81396">
        <ele>29.75500032</ele>
        <time>2020-08-02T05:53:38.000Z</time>
      </trkpt>
      <trkpt lat="43.59214" lon="3.81401">
        <ele>29.65500032</ele>
        <time>2020-08-02T05:53:39.000Z</time>
      </trkpt>
      <trkpt lat="43.59211" lon="3.81407">
        <ele>29.55500032</ele>
        <time>2020-08-02T05:53:40.000Z</time>
      </trkpt>
      <trkpt lat="43.59208" lon="3.81413">
        <ele>29.45500032</ele>
        <time>2020-08-02T05:53:41.000Z</time>
      </trkpt>
      <trkpt lat="43.59205" lon="3.81418">
        <ele>29.35500032</ele>
        <time>2020-08-02T05:53:42.000Z</time>
      </trkpt>
      <trkpt lat="43.59202" lon="3.81423">
        <ele>29.25500032</ele>
        <time>2020-08-02T05:53:43.000Z</time>
      </trkpt>
      <trkpt lat="43.59199" lon="3.81429">
        <ele>29.15500032</ele>
        <time>2020-08-02T05:53:44.000Z</time>
      </trkpt>
      <trkpt lat="43.59196" lon="3.81434">
        <ele>29.05500032</ele>
        <time>2020-08-02T05:53:45.000Z</time>
      </trkpt>
      <trkpt lat="43.59193" lon="3.81439">
        <ele>28.956268518956</ele>
        <time>2020-08-02T05:53:46.000Z</time>
      </trkpt>
      <trkpt lat="43.5919" lon="3.81444">
        <ele>28.8590867589</ele>
        <time>2020-08-02T05:53:47.000Z</time>
      </trkpt>
      <trkpt lat="43.59187" lon="3.81449">
        <ele>28.761904998843</ele>
        <time>2020-08-02T05:53:48.000Z</time>
      </trkpt>
      <trkpt lat="43.59184" lon="3.81455">
        <ele>28.664723238787</ele>
        <time>2020-08-02T05:53:49.000Z</time>
      </trkpt>
      <trkpt lat="43.59181" lon="3.8146">
        <ele>28.56754147873</ele>
        <time>2020-08-02T05:53:50.000Z</time>
      </trkpt>
      <trkpt lat="43.59179" lon="3.81465">
        <ele>28.470359718674</ele>
        <time>2020-08-02T05:53:51.000Z</time>
      </trkpt>
      <trkpt lat="43.59176" lon="3.8147">
        <ele>28.373177958617</ele>
        <time>2020-08-02T05:53:52.000Z</time>
      </trkpt>
      <trkpt lat="43.59173" lon="3.81475">
        <ele>28.27599619856</ele>
        <time>2020-08-02T05:53:53.000Z</time>
      </trkpt>
      <trkpt lat="43.5917" lon="3.8148">
        <ele>28.178814438504</ele>
        <time>2020-08-02T05:53:54.000Z</time>
      </trkpt>
      <trkpt lat="43.59167" lon="3.81485">
        <ele>28.081632678448</ele>
        <time>2020-08-02T05:53:55.000Z</time>
      </trkpt>
      <trkpt lat="43.59165" lon="3.81489">
        <ele>28</ele>
        <time>2020-08-02T05:53:56.000Z</time>
      </trkpt>
      <trkpt lat="43.59163" lon="3.81493">
        <ele>28</ele>
        <time>2020-08-02T05:53:57.000Z</time>
      </trkpt>
      <trkpt lat="43.59161" lon="3.81497">
        <ele>28</ele>
        <time>2020-08-02T05:53:58.000Z</time>
      </trkpt>
      <trkpt lat="43.5916" lon="3.81501">
        <ele>28</ele>
        <time>2020-08-02T05:53:59.000Z</time>
      </trkpt>
      <trkpt lat="43.59159" lon="3.81505">
        <ele>28</ele>
        <time>2020-08-02T05:54:00.000Z</time>
      </trkpt>
      <trkpt lat="43.59158" lon="3.81509">
        <ele>28</ele>
        <time>2020-08-02T05:54:01.000Z</time>
      </trkpt>
      <trkpt lat="43.59158" lon="3.81513">
        <ele>28</ele>
        <time>2020-08-02T05:54:02.000Z</time>
      </trkpt>
      <trkpt lat="43.59159" lon="3.81518">
        <ele>28</ele>
        <time>2020-08-02T05:54:03.000Z</time>
      </trkpt>
      <trkpt lat="43.5916" lon="3.81522">
        <ele>28</ele>
        <time>2020-08-02T05:54:04.000Z</time>
      </trkpt>
      <trkpt lat="43.59161" lon="3.81527">
        <ele>28</ele>
        <time>2020-08-02T05:54:05.000Z</time>
      </trkpt>
      <trkpt lat="43.59162" lon="3.81532">
        <ele>28</ele>
        <time>2020-08-02T05:54:06.000Z</time>
      </trkpt>
      <trkpt lat="43.59164" lon="3.81536">
        <ele>28</ele>
        <time>2020-08-02T05:54:07.000Z</time>
      </trkpt>
      <trkpt lat="43.59166" lon="3.81541">
        <ele>28</ele>
        <time>2020-08-02T05:54:08.000Z</time>
      </trkpt>
      <trkpt lat="43.59167" lon="3.81546">
        <ele>28</ele>
        <time>2020-08-02T05:54:09.000Z</time>
      </trkpt>
      <trkpt lat="43.59169" lon="3.81551">
        <ele>28</ele>
        <time>2020-08-02T05:54:10.000Z</time>
      </trkpt>
      <trkpt lat="43.5917" lon="3.81556">
        <ele>28</ele>
        <time>2020-08-02T05:54:11.000Z</time>
      </trkpt>
      <trkpt lat="43.59172" lon="3.81561">
        <ele>28</ele>
        <time>2020-08-02T05:54:12.000Z</time>
      </trkpt>
      <trkpt lat="43.59173" lon="3.81566">
        <ele>28</ele>
        <time>2020-08-02T05:54:13.000Z</time>
      </trkpt>
      <trkpt lat="43.59175" lon="3.81571">
        <ele>28</ele>
        <time>2020-08-02T05:54:14.000Z</time>
      </trkpt>
      <trkpt lat="43.59176" lon="3.81576">
        <ele>28</ele>
        <time>2020-08-02T05:54:15.000Z</time>
      </trkpt>
      <trkpt lat="43.59177" lon="3.81581">
        <ele>28.020449884368</ele>
        <time>2020-08-02T05:54:16.000Z</time>
      </trkpt>
      <trkpt lat="43.59178" lon="3.81586">
        <ele>28.122699306209</ele>
        <time>2020-08-02T05:54:17.000Z</time>
      </trkpt>
      <trkpt lat="43.59176" lon="3.81591">
        <ele>28.22494872805</ele>
        <time>2020-08-02T05:54:18.000Z</time>
      </trkpt>
      <trkpt lat="43.59174" lon="3.81595">
        <ele>28.327198149891</ele>
        <time>2020-08-02T05:54:19.000Z</time>
      </trkpt>
      <trkpt lat="43.5917" lon="3.81597">
        <ele>28.429447571732</ele>
        <time>2020-08-02T05:54:20.000Z</time>
      </trkpt>
      <trkpt lat="43.59167" lon="3.81599">
        <ele>28.531696993572</ele>
        <time>2020-08-02T05:54:21.000Z</time>
      </trkpt>
      <trkpt lat="43.59164" lon="3.81602">
        <ele>28.633946415413</ele>
        <time>2020-08-02T05:54:22.000Z</time>
      </trkpt>
      <trkpt lat="43.59162" lon="3.81604">
        <ele>28.736195837254</ele>
        <time>2020-08-02T05:54:23.000Z</time>
      </trkpt>
      <trkpt lat="43.59159" lon="3.81606">
        <ele>28.838445259095</ele>
        <time>2020-08-02T05:54:24.000Z</time>
      </trkpt>
      <trkpt lat="43.59152" lon="3.81615">
        <ele>29.242727620534</ele>
        <time>2020-08-02T05:54:28.000Z</time>
      </trkpt>
      <trkpt lat="43.59142" lon="3.81614">
        <ele>29.543630425237</ele>
        <time>2020-08-02T05:54:31.000Z</time>
      </trkpt>
      <trkpt lat="43.59137" lon="3.81612">
        <ele>29.643931360138</ele>
        <time>2020-08-02T05:54:32.000Z</time>
      </trkpt>
      <trkpt lat="43.59133" lon="3.81611">
        <ele>29.744232295039</ele>
        <time>2020-08-02T05:54:33.000Z</time>
      </trkpt>
      <trkpt lat="43.59123" lon="3.81609">
        <ele>29.95500032</ele>
        <time>2020-08-02T05:54:36.000Z</time>
      </trkpt>
      <trkpt lat="43.59119" lon="3.81607">
        <ele>29.85500032</ele>
        <time>2020-08-02T05:54:37.000Z</time>
      </trkpt>
      <trkpt lat="43.59115" lon="3.81605">
        <ele>29.75500032</ele>
        <time>2020-08-02T05:54:38.000Z</time>
      </trkpt>
      <trkpt lat="43.59112" lon="3.81601">
        <ele>29.65500032</ele>
        <time>2020-08-02T05:54:39.000Z</time>
      </trkpt>
      <trkpt lat="43.59109" lon="3.81597">
        <ele>29.55500032</ele>
        <time>2020-08-02T05:54:40.000Z</time>
      </trkpt>
      <trkpt lat="43.59107" lon="3.81593">
        <ele>29.45500032</ele>
        <time>2020-08-02T05:54:41.000Z</time>
      </trkpt>
      <trkpt lat="43.59104" lon="3.81588">
        <ele>29.35500032</ele>
        <time>2020-08-02T05:54:42.000Z</time>
      </trkpt>
      <trkpt lat="43.59101" lon="3.81583">
        <ele>29.25500032</ele>
        <time>2020-08-02T05:54:43.000Z</time>
      </trkpt>
      <trkpt lat="43.59098" lon="3.81579">
        <ele>29.15500032</ele>
        <time>2020-08-02T05:54:44.000Z</time>
      </trkpt>
      <trkpt lat="43.59095" lon="3.81574">
        <ele>29.05500032</ele>
        <time>2020-08-02T05:54:45.000Z</time>
      </trkpt>
      <trkpt lat="43.59091" lon="3.81569">
        <ele>29</ele>
        <time>2020-08-02T05:54:46.000Z</time>
      </trkpt>
      <trkpt lat="43.59088" lon="3.81565">
        <ele>29</ele>
        <time>2020-08-02T05:54:47.000Z</time>
      </trkpt>
      <trkpt lat="43.59084" lon="3.8156">
        <ele>29</ele>
        <time>2020-08-02T05:54:48.000Z</time>
      </trkpt>
      <trkpt lat="43.59081" lon="3.81556">
        <ele>29</ele>
        <time>2020-08-02T05:54:49.000Z</time>
      </trkpt>
      <trkpt lat="43.59078" lon="3.81552">
        <ele>29</ele>
        <time>2020-08-02T05:54:50.000Z</time>
      </trkpt>
      <trkpt lat="43.59075" lon="3.81548">
        <ele>29</ele>
        <time>2020-08-02T05:54:51.000Z</time>
      </trkpt>
      <trkpt lat="43.59071" lon="3.81543">
        <ele>29</ele>
        <time>2020-08-02T05:54:52.000Z</time>
      </trkpt>
      <trkpt lat="43.59068" lon="3.81539">
        <ele>29</ele>
        <time>2020-08-02T05:54:53.000Z</time>
      </trkpt>
      <trkpt lat="43.59065" lon="3.81535">
        <ele>29</ele>
        <time>2020-08-02T05:54:54.000Z</time>
      </trkpt>
      <trkpt lat="43.59062" lon="3.81531">
        <ele>29</ele>
        <time>2020-08-02T05:54:55.000Z</time>
      </trkpt>
      <trkpt lat="43.59059" lon="3.81526">
        <ele>29</ele>
        <time>2020-08-02T05:54:56.000Z</time>
      </trkpt>
      <trkpt lat="43.59056" lon="3.81522">
        <ele>29</ele>
        <time>2020-08-02T05:54:57.000Z</time>
      </trkpt>
      <trkpt lat="43.59053" lon="3.81518">
        <ele>29</ele>
        <time>2020-08-02T05:54:58.000Z</time>
      </trkpt>
      <trkpt lat="43.5905" lon="3.81514">
        <ele>29</ele>
        <time>2020-08-02T05:54:59.000Z</time>
      </trkpt>
      <trkpt lat="43.59048" lon="3.81511">
        <ele>29</ele>
        <time>2020-08-02T05:55:00.000Z</time>
      </trkpt>
      <trkpt lat="43.59045" lon="3.81507">
        <ele>29</ele>
        <time>2020-08-02T05:55:01.000Z</time>
      </trkpt>
      <trkpt lat="43.59043" lon="3.81504">
        <ele>29</ele>
        <time>2020-08-02T05:55:02.000Z</time>
      </trkpt>
      <trkpt lat="43.59041" lon="3.815">
        <ele>29</ele>
        <time>2020-08-02T05:55:03.000Z</time>
      </trkpt>
      <trkpt lat="43.59039" lon="3.81496">
        <ele>29</ele>
        <time>2020-08-02T05:55:04.000Z</time>
      </trkpt>
      <trkpt lat="43.59036" lon="3.81493">
        <ele>29</ele>
        <time>2020-08-02T05:55:05.000Z</time>
      </trkpt>
      <trkpt lat="43.59033" lon="3.8149">
        <ele>29</ele>
        <time>2020-08-02T05:55:06.000Z</time>
      </trkpt>
      <trkpt lat="43.5903" lon="3.81486">
        <ele>29</ele>
        <time>2020-08-02T05:55:07.000Z</time>
      </trkpt>
      <trkpt lat="43.59027" lon="3.81482">
        <ele>29</ele>
        <time>2020-08-02T05:55:08.000Z</time>
      </trkpt>
      <trkpt lat="43.59024" lon="3.81477">
        <ele>29</ele>
        <time>2020-08-02T05:55:09.000Z</time>
      </trkpt>
      <trkpt lat="43.59021" lon="3.81473">
        <ele>29</ele>
        <time>2020-08-02T05:55:10.000Z</time>
      </trkpt>
      <trkpt lat="43.59018" lon="3.81469">
        <ele>29</ele>
        <time>2020-08-02T05:55:11.000Z</time>
      </trkpt>
      <trkpt lat="43.59015" lon="3.81465">
        <ele>29</ele>
        <time>2020-08-02T05:55:12.000Z</time>
      </trkpt>
      <trkpt lat="43.59013" lon="3.81462">
        <ele>29</ele>
        <time>2020-08-02T05:55:13.000Z</time>
      </trkpt>
      <trkpt lat="43.59009" lon="3.81458">
        <ele>29</ele>
        <time>2020-08-02T05:55:14.000Z</time>
      </trkpt>
      <trkpt lat="43.59005" lon="3.81454">
        <ele>29</ele>
        <time>2020-08-02T05:55:15.000Z</time>
      </trkpt>
      <trkpt lat="43.59002" lon="3.81451">
        <ele>29.043731481044</ele>
        <time>2020-08-02T05:55:16.000Z</time>
      </trkpt>
      <trkpt lat="43.58999" lon="3.81447">
        <ele>29.1409132411</ele>
        <time>2020-08-02T05:55:17.000Z</time>
      </trkpt>
      <trkpt lat="43.58996" lon="3.81443">
        <ele>29.238095001157</ele>
        <time>2020-08-02T05:55:18.000Z</time>
      </trkpt>
      <trkpt lat="43.58993" lon="3.81438">
        <ele>29.335276761213</ele>
        <time>2020-08-02T05:55:19.000Z</time>
      </trkpt>
      <trkpt lat="43.5899" lon="3.81434">
        <ele>29.43245852127</ele>
        <time>2020-08-02T05:55:20.000Z</time>
      </trkpt>
      <trkpt lat="43.58988" lon="3.8143">
        <ele>29.529640281326</ele>
        <time>2020-08-02T05:55:21.000Z</time>
      </trkpt>
      <trkpt lat="43.58985" lon="3.81426">
        <ele>29.626822041383</ele>
        <time>2020-08-02T05:55:22.000Z</time>
      </trkpt>
      <trkpt lat="43.58983" lon="3.81422">
        <ele>29.72400380144</ele>
        <time>2020-08-02T05:55:23.000Z</time>
      </trkpt>
      <trkpt lat="43.5898" lon="3.81419">
        <ele>29.821185561496</ele>
        <time>2020-08-02T05:55:24.000Z</time>
      </trkpt>
      <trkpt lat="43.58973" lon="3.81411">
        <ele>30</ele>
        <time>2020-08-02T05:55:26.000Z</time>
      </trkpt>
      <trkpt lat="43.58969" lon="3.81407">
        <ele>30</ele>
        <time>2020-08-02T05:55:27.000Z</time>
      </trkpt>
      <trkpt lat="43.58966" lon="3.81402">
        <ele>30</ele>
        <time>2020-08-02T05:55:28.000Z</time>
      </trkpt>
      <trkpt lat="43.58964" lon="3.81398">
        <ele>30</ele>
        <time>2020-08-02T05:55:29.000Z</time>
      </trkpt>
      <trkpt lat="43.58961" lon="3.81394">
        <ele>30</ele>
        <time>2020-08-02T05:55:30.000Z</time>
      </trkpt>
      <trkpt lat="43.58958" lon="3.8139">
        <ele>30</ele>
        <time>2020-08-02T05:55:31.000Z</time>
      </trkpt>
      <trkpt lat="43.58955" lon="3.81386">
        <ele>30</ele>
        <time>2020-08-02T05:55:32.000Z</time>
      </trkpt>
      <trkpt lat="43.58952" lon="3.81382">
        <ele>30</ele>
        <time>2020-08-02T05:55:33.000Z</time>
      </trkpt>
      <trkpt lat="43.58949" lon="3.81378">
        <ele>30</ele>
        <time>2020-08-02T05:55:34.000Z</time>
      </trkpt>
      <trkpt lat="43.58946" lon="3.81374">
        <ele>30</ele>
        <time>2020-08-02T05:55:35.000Z</time>
      </trkpt>
      <trkpt lat="43.58943" lon="3.8137">
        <ele>30.016477852448</ele>
        <time>2020-08-02T05:55:36.000Z</time>
      </trkpt>
      <trkpt lat="43.58941" lon="3.81366">
        <ele>30.119464430249</ele>
        <time>2020-08-02T05:55:37.000Z</time>
      </trkpt>
      <trkpt lat="43.58938" lon="3.81362">
        <ele>30.222451008049</ele>
        <time>2020-08-02T05:55:38.000Z</time>
      </trkpt>
      <trkpt lat="43.58935" lon="3.81358">
        <ele>30.32543758585</ele>
        <time>2020-08-02T05:55:39.000Z</time>
      </trkpt>
      <trkpt lat="43.58932" lon="3.81354">
        <ele>30.42842416365</ele>
        <time>2020-08-02T05:55:40.000Z</time>
      </trkpt>
      <trkpt lat="43.5893" lon="3.81351">
        <ele>30.531410741451</ele>
        <time>2020-08-02T05:55:41.000Z</time>
      </trkpt>
      <trkpt lat="43.58927" lon="3.81347">
        <ele>30.634397319251</ele>
        <time>2020-08-02T05:55:42.000Z</time>
      </trkpt>
      <trkpt lat="43.58924" lon="3.81342">
        <ele>30.737383897052</ele>
        <time>2020-08-02T05:55:43.000Z</time>
      </trkpt>
      <trkpt lat="43.58921" lon="3.81338">
        <ele>30.840370474852</ele>
        <time>2020-08-02T05:55:44.000Z</time>
      </trkpt>
      <trkpt lat="43.58918" lon="3.81334">
        <ele>30.943357052653</ele>
        <time>2020-08-02T05:55:45.000Z</time>
      </trkpt>
      <trkpt lat="43.58915" lon="3.81331">
        <ele>30.95500032</ele>
        <time>2020-08-02T05:55:46.000Z</time>
      </trkpt>
      <trkpt lat="43.58913" lon="3.81328">
        <ele>30.85500032</ele>
        <time>2020-08-02T05:55:47.000Z</time>
      </trkpt>
      <trkpt lat="43.5891" lon="3.81325">
        <ele>30.75500032</ele>
        <time>2020-08-02T05:55:48.000Z</time>
      </trkpt>
      <trkpt lat="43.58908" lon="3.81321">
        <ele>30.65500032</ele>
        <time>2020-08-02T05:55:49.000Z</time>
      </trkpt>
      <trkpt lat="43.58905" lon="3.81317">
        <ele>30.55500032</ele>
        <time>2020-08-02T05:55:50.000Z</time>
      </trkpt>
      <trkpt lat="43.58902" lon="3.81313">
        <ele>30.45500032</ele>
        <time>2020-08-02T05:55:51.000Z</time>
      </trkpt>
      <trkpt lat="43.58899" lon="3.81308">
        <ele>30.35500032</ele>
        <time>2020-08-02T05:55:52.000Z</time>
      </trkpt>
      <trkpt lat="43.58897" lon="3.81304">
        <ele>30.25500032</ele>
        <time>2020-08-02T05:55:53.000Z</time>
      </trkpt>
      <trkpt lat="43.58894" lon="3.81299">
        <ele>30.15500032</ele>
        <time>2020-08-02T05:55:54.000Z</time>
      </trkpt>
      <trkpt lat="43.58891" lon="3.81295">
        <ele>30.05500032</ele>
        <time>2020-08-02T05:55:55.000Z</time>
      </trkpt>
      <trkpt lat="43.58889" lon="3.81291">
        <ele>30.04499968</ele>
        <time>2020-08-02T05:55:56.000Z</time>
      </trkpt>
      <trkpt lat="43.58886" lon="3.81288">
        <ele>30.14499968</ele>
        <time>2020-08-02T05:55:57.000Z</time>
      </trkpt>
      <trkpt lat="43.58883" lon="3.81284">
        <ele>30.24499968</ele>
        <time>2020-08-02T05:55:58.000Z</time>
      </trkpt>
      <trkpt lat="43.5888" lon="3.8128">
        <ele>30.34499968</ele>
        <time>2020-08-02T05:55:59.000Z</time>
      </trkpt>
      <trkpt lat="43.58877" lon="3.81276">
        <ele>30.44499968</ele>
        <time>2020-08-02T05:56:00.000Z</time>
      </trkpt>
      <trkpt lat="43.58875" lon="3.81272">
        <ele>30.54499968</ele>
        <time>2020-08-02T05:56:01.000Z</time>
      </trkpt>
      <trkpt lat="43.58872" lon="3.81268">
        <ele>30.64499968</ele>
        <time>2020-08-02T05:56:02.000Z</time>
      </trkpt>
      <trkpt lat="43.58869" lon="3.81264">
        <ele>30.74499968</ele>
        <time>2020-08-02T05:56:03.000Z</time>
      </trkpt>
      <trkpt lat="43.58866" lon="3.8126">
        <ele>30.84499968</ele>
        <time>2020-08-02T05:56:04.000Z</time>
      </trkpt>
      <trkpt lat="43.58864" lon="3.81257">
        <ele>30.94499968</ele>
        <time>2020-08-02T05:56:05.000Z</time>
      </trkpt>
      <trkpt lat="43.58861" lon="3.81253">
        <ele>31</ele>
        <time>2020-08-02T05:56:06.000Z</time>
      </trkpt>
      <trkpt lat="43.58858" lon="3.81249">
        <ele>31</ele>
        <time>2020-08-02T05:56:07.000Z</time>
      </trkpt>
      <trkpt lat="43.58856" lon="3.81245">
        <ele>31</ele>
        <time>2020-08-02T05:56:08.000Z</time>
      </trkpt>
      <trkpt lat="43.58853" lon="3.81241">
        <ele>31</ele>
        <time>2020-08-02T05:56:09.000Z</time>
      </trkpt>
      <trkpt lat="43.5885" lon="3.81237">
        <ele>31</ele>
        <time>2020-08-02T05:56:10.000Z</time>
      </trkpt>
      <trkpt lat="43.58847" lon="3.81233">
        <ele>31</ele>
        <time>2020-08-02T05:56:11.000Z</time>
      </trkpt>
      <trkpt lat="43.58844" lon="3.81229">
        <ele>31</ele>
        <time>2020-08-02T05:56:12.000Z</time>
      </trkpt>
      <trkpt lat="43.58841" lon="3.81225">
        <ele>31</ele>
        <time>2020-08-02T05:56:13.000Z</time>
      </trkpt>
      <trkpt lat="43.58838" lon="3.81221">
        <ele>31</ele>
        <time>2020-08-02T05:56:14.000Z</time>
      </trkpt>
      <trkpt lat="43.58835" lon="3.81217">
        <ele>31</ele>
        <time>2020-08-02T05:56:15.000Z</time>
      </trkpt>
      <trkpt lat="43.58832" lon="3.81213">
        <ele>31</ele>
        <time>2020-08-02T05:56:16.000Z</time>
      </trkpt>
      <trkpt lat="43.58829" lon="3.81209">
        <ele>31</ele>
        <time>2020-08-02T05:56:17.000Z</time>
      </trkpt>
      <trkpt lat="43.58827" lon="3.81205">
        <ele>31</ele>
        <time>2020-08-02T05:56:18.000Z</time>
      </trkpt>
      <trkpt lat="43.58824" lon="3.81201">
        <ele>31</ele>
        <time>2020-08-02T05:56:19.000Z</time>
      </trkpt>
      <trkpt lat="43.58821" lon="3.81197">
        <ele>31</ele>
        <time>2020-08-02T05:56:20.000Z</time>
      </trkpt>
      <trkpt lat="43.58818" lon="3.81193">
        <ele>31</ele>
        <time>2020-08-02T05:56:21.000Z</time>
      </trkpt>
      <trkpt lat="43.58815" lon="3.81189">
        <ele>31</ele>
        <time>2020-08-02T05:56:22.000Z</time>
      </trkpt>
      <trkpt lat="43.58813" lon="3.81185">
        <ele>31</ele>
        <time>2020-08-02T05:56:23.000Z</time>
      </trkpt>
      <trkpt lat="43.5881" lon="3.8118">
        <ele>31</ele>
        <time>2020-08-02T05:56:24.000Z</time>
      </trkpt>
      <trkpt lat="43.58807" lon="3.81176">
        <ele>31</ele>
        <time>2020-08-02T05:56:25.000Z</time>
      </trkpt>
      <trkpt lat="43.58804" lon="3.81172">
        <ele>31</ele>
        <time>2020-08-02T05:56:26.000Z</time>
      </trkpt>
      <trkpt lat="43.58801" lon="3.81168">
        <ele>31</ele>
        <time>2020-08-02T05:56:27.000Z</time>
      </trkpt>
      <trkpt lat="43.58798" lon="3.81163">
        <ele>31</ele>
        <time>2020-08-02T05:56:28.000Z</time>
      </trkpt>
      <trkpt lat="43.58796" lon="3.81159">
        <ele>31</ele>
        <time>2020-08-02T05:56:29.000Z</time>
      </trkpt>
      <trkpt lat="43.58793" lon="3.81155">
        <ele>31</ele>
        <time>2020-08-02T05:56:30.000Z</time>
      </trkpt>
      <trkpt lat="43.5879" lon="3.81151">
        <ele>31</ele>
        <time>2020-08-02T05:56:31.000Z</time>
      </trkpt>
      <trkpt lat="43.58787" lon="3.81147">
        <ele>31</ele>
        <time>2020-08-02T05:56:32.000Z</time>
      </trkpt>
      <trkpt lat="43.58784" lon="3.81143">
        <ele>31</ele>
        <time>2020-08-02T05:56:33.000Z</time>
      </trkpt>
      <trkpt lat="43.58781" lon="3.8114">
        <ele>31</ele>
        <time>2020-08-02T05:56:34.000Z</time>
      </trkpt>
      <trkpt lat="43.58779" lon="3.81136">
        <ele>31</ele>
        <time>2020-08-02T05:56:35.000Z</time>
      </trkpt>
      <trkpt lat="43.58776" lon="3.81131">
        <ele>30.958835662651</ele>
        <time>2020-08-02T05:56:36.000Z</time>
      </trkpt>
      <trkpt lat="43.58774" lon="3.81128">
        <ele>30.858434056225</ele>
        <time>2020-08-02T05:56:37.000Z</time>
      </trkpt>
      <trkpt lat="43.58771" lon="3.81126">
        <ele>30.758032449799</ele>
        <time>2020-08-02T05:56:38.000Z</time>
      </trkpt>
      <trkpt lat="43.58768" lon="3.81125">
        <ele>30.657630843374</ele>
        <time>2020-08-02T05:56:39.000Z</time>
      </trkpt>
      <trkpt lat="43.58765" lon="3.81125">
        <ele>30.557229236948</ele>
        <time>2020-08-02T05:56:40.000Z</time>
      </trkpt>
      <trkpt lat="43.58761" lon="3.81125">
        <ele>30.456827630522</ele>
        <time>2020-08-02T05:56:41.000Z</time>
      </trkpt>
      <trkpt lat="43.58757" lon="3.81123">
        <ele>30.356426024096</ele>
        <time>2020-08-02T05:56:42.000Z</time>
      </trkpt>
      <trkpt lat="43.58753" lon="3.81121">
        <ele>30.256024417671</ele>
        <time>2020-08-02T05:56:43.000Z</time>
      </trkpt>
      <trkpt lat="43.5875" lon="3.8112">
        <ele>30.155622811245</ele>
        <time>2020-08-02T05:56:44.000Z</time>
      </trkpt>
      <trkpt lat="43.58746" lon="3.81119">
        <ele>30.055221204819</ele>
        <time>2020-08-02T05:56:45.000Z</time>
      </trkpt>
      <trkpt lat="43.58742" lon="3.8112">
        <ele>30</ele>
        <time>2020-08-02T05:56:46.000Z</time>
      </trkpt>
      <trkpt lat="43.58738" lon="3.81123">
        <ele>30</ele>
        <time>2020-08-02T05:56:47.000Z</time>
      </trkpt>
      <trkpt lat="43.58735" lon="3.81126">
        <ele>30</ele>
        <time>2020-08-02T05:56:48.000Z</time>
      </trkpt>
      <trkpt lat="43.58733" lon="3.8113">
        <ele>30</ele>
        <time>2020-08-02T05:56:49.000Z</time>
      </trkpt>
      <trkpt lat="43.58731" lon="3.81134">
        <ele>30</ele>
        <time>2020-08-02T05:56:50.000Z</time>
      </trkpt>
      <trkpt lat="43.58729" lon="3.81139">
        <ele>30</ele>
        <time>2020-08-02T05:56:51.000Z</time>
      </trkpt>
      <trkpt lat="43.58727" lon="3.81144">
        <ele>30</ele>
        <time>2020-08-02T05:56:52.000Z</time>
      </trkpt>
      <trkpt lat="43.58725" lon="3.8115">
        <ele>30</ele>
        <time>2020-08-02T05:56:53.000Z</time>
      </trkpt>
      <trkpt lat="43.58723" lon="3.81155">
        <ele>30</ele>
        <time>2020-08-02T05:56:54.000Z</time>
      </trkpt>
      <trkpt lat="43.58721" lon="3.8116">
        <ele>30</ele>
        <time>2020-08-02T05:56:55.000Z</time>
      </trkpt>
      <trkpt lat="43.58719" lon="3.81165">
        <ele>29.957507397165</ele>
        <time>2020-08-02T05:56:56.000Z</time>
      </trkpt>
      <trkpt lat="43.58718" lon="3.8117">
        <ele>29.863078719372</ele>
        <time>2020-08-02T05:56:57.000Z</time>
      </trkpt>
      <trkpt lat="43.58716" lon="3.81175">
        <ele>29.768650041579</ele>
        <time>2020-08-02T05:56:58.000Z</time>
      </trkpt>
      <trkpt lat="43.58714" lon="3.8118">
        <ele>29.674221363786</ele>
        <time>2020-08-02T05:56:59.000Z</time>
      </trkpt>
      <trkpt lat="43.58712" lon="3.81186">
        <ele>29.579792685993</ele>
        <time>2020-08-02T05:57:00.000Z</time>
      </trkpt>
      <trkpt lat="43.5871" lon="3.81191">
        <ele>29.4853640082</ele>
        <time>2020-08-02T05:57:01.000Z</time>
      </trkpt>
      <trkpt lat="43.58709" lon="3.81196">
        <ele>29.390935330407</ele>
        <time>2020-08-02T05:57:02.000Z</time>
      </trkpt>
      <trkpt lat="43.58707" lon="3.81201">
        <ele>29.296506652614</ele>
        <time>2020-08-02T05:57:03.000Z</time>
      </trkpt>
      <trkpt lat="43.58705" lon="3.81206">
        <ele>29.202077974821</ele>
        <time>2020-08-02T05:57:04.000Z</time>
      </trkpt>
      <trkpt lat="43.58703" lon="3.81211">
        <ele>29.107649297028</ele>
        <time>2020-08-02T05:57:05.000Z</time>
      </trkpt>
      <trkpt lat="43.58701" lon="3.81216">
        <ele>29.013220619235</ele>
        <time>2020-08-02T05:57:06.000Z</time>
      </trkpt>
      <trkpt lat="43.587" lon="3.81221">
        <ele>28.908608513023</ele>
        <time>2020-08-02T05:57:07.000Z</time>
      </trkpt>
      <trkpt lat="43.58698" lon="3.81226">
        <ele>28.802338551274</ele>
        <time>2020-08-02T05:57:08.000Z</time>
      </trkpt>
      <trkpt lat="43.58696" lon="3.81231">
        <ele>28.696068589524</ele>
        <time>2020-08-02T05:57:09.000Z</time>
      </trkpt>
      <trkpt lat="43.58694" lon="3.81236">
        <ele>28.589798627774</ele>
        <time>2020-08-02T05:57:10.000Z</time>
      </trkpt>
      <trkpt lat="43.58692" lon="3.81241">
        <ele>28.483528666025</ele>
        <time>2020-08-02T05:57:11.000Z</time>
      </trkpt>
      <trkpt lat="43.5869" lon="3.81246">
        <ele>28.377258704275</ele>
        <time>2020-08-02T05:57:12.000Z</time>
      </trkpt>
      <trkpt lat="43.58689" lon="3.81251">
        <ele>28.270988742525</ele>
        <time>2020-08-02T05:57:13.000Z</time>
      </trkpt>
      <trkpt lat="43.58687" lon="3.81256">
        <ele>28.164718780776</ele>
        <time>2020-08-02T05:57:14.000Z</time>
      </trkpt>
      <trkpt lat="43.58685" lon="3.81261">
        <ele>28.058448819026</ele>
        <time>2020-08-02T05:57:15.000Z</time>
      </trkpt>
      <trkpt lat="43.58684" lon="3.81267">
        <ele>27.95500032</ele>
        <time>2020-08-02T05:57:16.000Z</time>
      </trkpt>
      <trkpt lat="43.58682" lon="3.81272">
        <ele>27.85500032</ele>
        <time>2020-08-02T05:57:17.000Z</time>
      </trkpt>
      <trkpt lat="43.5868" lon="3.81277">
        <ele>27.75500032</ele>
        <time>2020-08-02T05:57:18.000Z</time>
      </trkpt>
      <trkpt lat="43.58679" lon="3.81282">
        <ele>27.65500032</ele>
        <time>2020-08-02T05:57:19.000Z</time>
      </trkpt>
      <trkpt lat="43.58677" lon="3.81287">
        <ele>27.55500032</ele>
        <time>2020-08-02T05:57:20.000Z</time>
      </trkpt>
      <trkpt lat="43.58676" lon="3.81291">
        <ele>27.45500032</ele>
        <time>2020-08-02T05:57:21.000Z</time>
      </trkpt>
      <trkpt lat="43.58675" lon="3.81296">
        <ele>27.35500032</ele>
        <time>2020-08-02T05:57:22.000Z</time>
      </trkpt>
      <trkpt lat="43.58673" lon="3.813">
        <ele>27.25500032</ele>
        <time>2020-08-02T05:57:23.000Z</time>
      </trkpt>
      <trkpt lat="43.58671" lon="3.81303">
        <ele>27.15500032</ele>
        <time>2020-08-02T05:57:24.000Z</time>
      </trkpt>
      <trkpt lat="43.58669" lon="3.81307">
        <ele>27.05500032</ele>
        <time>2020-08-02T05:57:25.000Z</time>
      </trkpt>
      <trkpt lat="43.58666" lon="3.81309">
        <ele>26.95500032</ele>
        <time>2020-08-02T05:57:26.000Z</time>
      </trkpt>
      <trkpt lat="43.58663" lon="3.81309">
        <ele>26.85500032</ele>
        <time>2020-08-02T05:57:27.000Z</time>
      </trkpt>
      <trkpt lat="43.58659" lon="3.81308">
        <ele>26.75500032</ele>
        <time>2020-08-02T05:57:28.000Z</time>
      </trkpt>
      <trkpt lat="43.58655" lon="3.81306">
        <ele>26.65500032</ele>
        <time>2020-08-02T05:57:29.000Z</time>
      </trkpt>
      <trkpt lat="43.58651" lon="3.81303">
        <ele>26.55500032</ele>
        <time>2020-08-02T05:57:30.000Z</time>
      </trkpt>
      <trkpt lat="43.58647" lon="3.81299">
        <ele>26.45500032</ele>
        <time>2020-08-02T05:57:31.000Z</time>
      </trkpt>
      <trkpt lat="43.58643" lon="3.81295">
        <ele>26.35500032</ele>
        <time>2020-08-02T05:57:32.000Z</time>
      </trkpt>
      <trkpt lat="43.58639" lon="3.81292">
        <ele>26.25500032</ele>
        <time>2020-08-02T05:57:33.000Z</time>
      </trkpt>
      <trkpt lat="43.58635" lon="3.81288">
        <ele>26.15500032</ele>
        <time>2020-08-02T05:57:34.000Z</time>
      </trkpt>
      <trkpt lat="43.58633" lon="3.81285">
        <ele>26.05500032</ele>
        <time>2020-08-02T05:57:35.000Z</time>
      </trkpt>
      <trkpt lat="43.5863" lon="3.81282">
        <ele>26</ele>
        <time>2020-08-02T05:57:36.000Z</time>
      </trkpt>
      <trkpt lat="43.58629" lon="3.8128">
        <ele>26</ele>
        <time>2020-08-02T05:57:37.000Z</time>
      </trkpt>
      <trkpt lat="43.58627" lon="3.81279">
        <ele>26</ele>
        <time>2020-08-02T05:57:38.000Z</time>
      </trkpt>
      <trkpt lat="43.58625" lon="3.81278">
        <ele>26</ele>
        <time>2020-08-02T05:57:39.000Z</time>
      </trkpt>
      <trkpt lat="43.58623" lon="3.81278">
        <ele>26</ele>
        <time>2020-08-02T05:57:40.000Z</time>
      </trkpt>
      <trkpt lat="43.58621" lon="3.81278">
        <ele>26</ele>
        <time>2020-08-02T05:57:41.000Z</time>
      </trkpt>
      <trkpt lat="43.58619" lon="3.81278">
        <ele>26</ele>
        <time>2020-08-02T05:57:42.000Z</time>
      </trkpt>
      <trkpt lat="43.58617" lon="3.81278">
        <ele>26</ele>
        <time>2020-08-02T05:57:44.000Z</time>
      </trkpt>
      <trkpt lat="43.58615" lon="3.8128">
        <ele>26</ele>
        <time>2020-08-02T05:57:46.000Z</time>
      </trkpt>
      <trkpt lat="43.58615" lon="3.81286">
        <ele>26</ele>
        <time>2020-08-02T05:57:48.000Z</time>
      </trkpt>
      <trkpt lat="43.58616" lon="3.81289">
        <ele>26</ele>
        <time>2020-08-02T05:57:49.000Z</time>
      </trkpt>
      <trkpt lat="43.58615" lon="3.81294">
        <ele>26</ele>
        <time>2020-08-02T05:57:50.000Z</time>
      </trkpt>
      <trkpt lat="43.58616" lon="3.81299">
        <ele>26</ele>
        <time>2020-08-02T05:57:51.000Z</time>
      </trkpt>
      <trkpt lat="43.58615" lon="3.81304">
        <ele>26</ele>
        <time>2020-08-02T05:57:52.000Z</time>
      </trkpt>
      <trkpt lat="43.58614" lon="3.81309">
        <ele>26</ele>
        <time>2020-08-02T05:57:53.000Z</time>
      </trkpt>
      <trkpt lat="43.58613" lon="3.81314">
        <ele>26</ele>
        <time>2020-08-02T05:57:54.000Z</time>
      </trkpt>
      <trkpt lat="43.58612" lon="3.81318">
        <ele>26</ele>
        <time>2020-08-02T05:57:55.000Z</time>
      </trkpt>
      <trkpt lat="43.58612" lon="3.81323">
        <ele>26</ele>
        <time>2020-08-02T05:57:56.000Z</time>
      </trkpt>
      <trkpt lat="43.58611" lon="3.81327">
        <ele>26</ele>
        <time>2020-08-02T05:57:57.000Z</time>
      </trkpt>
      <trkpt lat="43.5861" lon="3.81332">
        <ele>26</ele>
        <time>2020-08-02T05:57:58.000Z</time>
      </trkpt>
      <trkpt lat="43.58609" lon="3.81336">
        <ele>26</ele>
        <time>2020-08-02T05:57:59.000Z</time>
      </trkpt>
      <trkpt lat="43.58608" lon="3.81341">
        <ele>26</ele>
        <time>2020-08-02T05:58:00.000Z</time>
      </trkpt>
      <trkpt lat="43.58607" lon="3.81345">
        <ele>26</ele>
        <time>2020-08-02T05:58:01.000Z</time>
      </trkpt>
      <trkpt lat="43.58606" lon="3.8135">
        <ele>26</ele>
        <time>2020-08-02T05:58:02.000Z</time>
      </trkpt>
      <trkpt lat="43.58606" lon="3.81354">
        <ele>26</ele>
        <time>2020-08-02T05:58:03.000Z</time>
      </trkpt>
      <trkpt lat="43.58605" lon="3.81358">
        <ele>26</ele>
        <time>2020-08-02T05:58:04.000Z</time>
      </trkpt>
      <trkpt lat="43.58604" lon="3.81362">
        <ele>26</ele>
        <time>2020-08-02T05:58:05.000Z</time>
      </trkpt>
      <trkpt lat="43.58603" lon="3.81367">
        <ele>26</ele>
        <time>2020-08-02T05:58:06.000Z</time>
      </trkpt>
      <trkpt lat="43.58602" lon="3.81371">
        <ele>26</ele>
        <time>2020-08-02T05:58:07.000Z</time>
      </trkpt>
      <trkpt lat="43.58601" lon="3.81375">
        <ele>26</ele>
        <time>2020-08-02T05:58:08.000Z</time>
      </trkpt>
      <trkpt lat="43.58601" lon="3.81378">
        <ele>26</ele>
        <time>2020-08-02T05:58:09.000Z</time>
      </trkpt>
      <trkpt lat="43.586" lon="3.81382">
        <ele>26</ele>
        <time>2020-08-02T05:58:10.000Z</time>
      </trkpt>
      <trkpt lat="43.58599" lon="3.81386">
        <ele>26</ele>
        <time>2020-08-02T05:58:11.000Z</time>
      </trkpt>
      <trkpt lat="43.58597" lon="3.8139">
        <ele>26</ele>
        <time>2020-08-02T05:58:12.000Z</time>
      </trkpt>
      <trkpt lat="43.58596" lon="3.81394">
        <ele>26</ele>
        <time>2020-08-02T05:58:13.000Z</time>
      </trkpt>
      <trkpt lat="43.58594" lon="3.81397">
        <ele>26</ele>
        <time>2020-08-02T05:58:14.000Z</time>
      </trkpt>
      <trkpt lat="43.58593" lon="3.81401">
        <ele>26</ele>
        <time>2020-08-02T05:58:15.000Z</time>
      </trkpt>
      <trkpt lat="43.58591" lon="3.81405">
        <ele>26.04499968</ele>
        <time>2020-08-02T05:58:16.000Z</time>
      </trkpt>
      <trkpt lat="43.58591" lon="3.81409">
        <ele>26.14499968</ele>
        <time>2020-08-02T05:58:17.000Z</time>
      </trkpt>
      <trkpt lat="43.5859" lon="3.81414">
        <ele>26.24499968</ele>
        <time>2020-08-02T05:58:18.000Z</time>
      </trkpt>
      <trkpt lat="43.58589" lon="3.81418">
        <ele>26.34499968</ele>
        <time>2020-08-02T05:58:19.000Z</time>
      </trkpt>
      <trkpt lat="43.58588" lon="3.81423">
        <ele>26.44499968</ele>
        <time>2020-08-02T05:58:20.000Z</time>
      </trkpt>
      <trkpt lat="43.58588" lon="3.81427">
        <ele>26.54499968</ele>
        <time>2020-08-02T05:58:21.000Z</time>
      </trkpt>
      <trkpt lat="43.58587" lon="3.81432">
        <ele>26.64499968</ele>
        <time>2020-08-02T05:58:22.000Z</time>
      </trkpt>
      <trkpt lat="43.58587" lon="3.81436">
        <ele>26.74499968</ele>
        <time>2020-08-02T05:58:23.000Z</time>
      </trkpt>
      <trkpt lat="43.58587" lon="3.81441">
        <ele>26.84499968</ele>
        <time>2020-08-02T05:58:24.000Z</time>
      </trkpt>
      <trkpt lat="43.58586" lon="3.81445">
        <ele>26.94499968</ele>
        <time>2020-08-02T05:58:25.000Z</time>
      </trkpt>
      <trkpt lat="43.58586" lon="3.81449">
        <ele>27.04499968</ele>
        <time>2020-08-02T05:58:26.000Z</time>
      </trkpt>
      <trkpt lat="43.58585" lon="3.81453">
        <ele>27.14499968</ele>
        <time>2020-08-02T05:58:27.000Z</time>
      </trkpt>
      <trkpt lat="43.58585" lon="3.81457">
        <ele>27.24499968</ele>
        <time>2020-08-02T05:58:28.000Z</time>
      </trkpt>
      <trkpt lat="43.58585" lon="3.81461">
        <ele>27.34499968</ele>
        <time>2020-08-02T05:58:29.000Z</time>
      </trkpt>
      <trkpt lat="43.58584" lon="3.81464">
        <ele>27.44499968</ele>
        <time>2020-08-02T05:58:30.000Z</time>
      </trkpt>
      <trkpt lat="43.58581" lon="3.81467">
        <ele>27.54499968</ele>
        <time>2020-08-02T05:58:31.000Z</time>
      </trkpt>
      <trkpt lat="43.58579" lon="3.8147">
        <ele>27.64499968</ele>
        <time>2020-08-02T05:58:32.000Z</time>
      </trkpt>
      <trkpt lat="43.58576" lon="3.81473">
        <ele>27.74499968</ele>
        <time>2020-08-02T05:58:33.000Z</time>
      </trkpt>
      <trkpt lat="43.58573" lon="3.81475">
        <ele>27.84499968</ele>
        <time>2020-08-02T05:58:34.000Z</time>
      </trkpt>
      <trkpt lat="43.58571" lon="3.81478">
        <ele>27.94499968</ele>
        <time>2020-08-02T05:58:35.000Z</time>
      </trkpt>
      <trkpt lat="43.58568" lon="3.8148">
        <ele>28</ele>
        <time>2020-08-02T05:58:36.000Z</time>
      </trkpt>
      <trkpt lat="43.58565" lon="3.81483">
        <ele>28</ele>
        <time>2020-08-02T05:58:37.000Z</time>
      </trkpt>
      <trkpt lat="43.5856" lon="3.81484">
        <ele>28</ele>
        <time>2020-08-02T05:58:38.000Z</time>
      </trkpt>
      <trkpt lat="43.58556" lon="3.81485">
        <ele>28</ele>
        <time>2020-08-02T05:58:39.000Z</time>
      </trkpt>
      <trkpt lat="43.58552" lon="3.81486">
        <ele>28</ele>
        <time>2020-08-02T05:58:40.000Z</time>
      </trkpt>
      <trkpt lat="43.58548" lon="3.81488">
        <ele>28</ele>
        <time>2020-08-02T05:58:41.000Z</time>
      </trkpt>
      <trkpt lat="43.58545" lon="3.81489">
        <ele>28</ele>
        <time>2020-08-02T05:58:42.000Z</time>
      </trkpt>
      <trkpt lat="43.58541" lon="3.81489">
        <ele>28</ele>
        <time>2020-08-02T05:58:43.000Z</time>
      </trkpt>
      <trkpt lat="43.58538" lon="3.81488">
        <ele>28</ele>
        <time>2020-08-02T05:58:44.000Z</time>
      </trkpt>
      <trkpt lat="43.58536" lon="3.81486">
        <ele>28</ele>
        <time>2020-08-02T05:58:45.000Z</time>
      </trkpt>
      <trkpt lat="43.58534" lon="3.81484">
        <ele>28.017453481694</ele>
        <time>2020-08-02T05:58:46.000Z</time>
      </trkpt>
      <trkpt lat="43.58533" lon="3.81482">
        <ele>28.120122953674</ele>
        <time>2020-08-02T05:58:47.000Z</time>
      </trkpt>
      <trkpt lat="43.5853" lon="3.8148">
        <ele>28.325461897634</ele>
        <time>2020-08-02T05:58:49.000Z</time>
      </trkpt>
      <trkpt lat="43.58527" lon="3.8148">
        <ele>28.428131369614</ele>
        <time>2020-08-02T05:58:50.000Z</time>
      </trkpt>
      <trkpt lat="43.58524" lon="3.8148">
        <ele>28.530800841594</ele>
        <time>2020-08-02T05:58:51.000Z</time>
      </trkpt>
      <trkpt lat="43.58521" lon="3.81481">
        <ele>28.633470313574</ele>
        <time>2020-08-02T05:58:52.000Z</time>
      </trkpt>
      <trkpt lat="43.58518" lon="3.81483">
        <ele>28.736139785554</ele>
        <time>2020-08-02T05:58:53.000Z</time>
      </trkpt>
      <trkpt lat="43.58516" lon="3.81486">
        <ele>28.838809257534</ele>
        <time>2020-08-02T05:58:54.000Z</time>
      </trkpt>
      <trkpt lat="43.58513" lon="3.81487">
        <ele>28.941478729514</ele>
        <time>2020-08-02T05:58:55.000Z</time>
      </trkpt>
      <trkpt lat="43.58511" lon="3.81488">
        <ele>29</ele>
        <time>2020-08-02T05:58:56.000Z</time>
      </trkpt>
      <trkpt lat="43.58508" lon="3.81488">
        <ele>29</ele>
        <time>2020-08-02T05:58:57.000Z</time>
      </trkpt>
      <trkpt lat="43.58504" lon="3.81488">
        <ele>29</ele>
        <time>2020-08-02T05:58:58.000Z</time>
      </trkpt>
      <trkpt lat="43.585" lon="3.81488">
        <ele>29</ele>
        <time>2020-08-02T05:58:59.000Z</time>
      </trkpt>
      <trkpt lat="43.58497" lon="3.81489">
        <ele>29</ele>
        <time>2020-08-02T05:59:00.000Z</time>
      </trkpt>
      <trkpt lat="43.58493" lon="3.81489">
        <ele>29</ele>
        <time>2020-08-02T05:59:01.000Z</time>
      </trkpt>
      <trkpt lat="43.5849" lon="3.81489">
        <ele>29</ele>
        <time>2020-08-02T05:59:02.000Z</time>
      </trkpt>
      <trkpt lat="43.58487" lon="3.81489">
        <ele>29</ele>
        <time>2020-08-02T05:59:03.000Z</time>
      </trkpt>
      <trkpt lat="43.58484" lon="3.81488">
        <ele>29</ele>
        <time>2020-08-02T05:59:04.000Z</time>
      </trkpt>
      <trkpt lat="43.5848" lon="3.81489">
        <ele>29</ele>
        <time>2020-08-02T05:59:05.000Z</time>
      </trkpt>
      <trkpt lat="43.58477" lon="3.81489">
        <ele>29</ele>
        <time>2020-08-02T05:59:06.000Z</time>
      </trkpt>
      <trkpt lat="43.58474" lon="3.81488">
        <ele>29</ele>
        <time>2020-08-02T05:59:07.000Z</time>
      </trkpt>
      <trkpt lat="43.58471" lon="3.81488">
        <ele>29</ele>
        <time>2020-08-02T05:59:08.000Z</time>
      </trkpt>
      <trkpt lat="43.58468" lon="3.81487">
        <ele>29</ele>
        <time>2020-08-02T05:59:09.000Z</time>
      </trkpt>
      <trkpt lat="43.58464" lon="3.81486">
        <ele>29</ele>
        <time>2020-08-02T05:59:10.000Z</time>
      </trkpt>
      <trkpt lat="43.5846" lon="3.81484">
        <ele>29</ele>
        <time>2020-08-02T05:59:11.000Z</time>
      </trkpt>
      <trkpt lat="43.58457" lon="3.81482">
        <ele>29</ele>
        <time>2020-08-02T05:59:12.000Z</time>
      </trkpt>
      <trkpt lat="43.58453" lon="3.81481">
        <ele>29</ele>
        <time>2020-08-02T05:59:13.000Z</time>
      </trkpt>
      <trkpt lat="43.58449" lon="3.81479">
        <ele>29</ele>
        <time>2020-08-02T05:59:14.000Z</time>
      </trkpt>
      <trkpt lat="43.58445" lon="3.81476">
        <ele>29</ele>
        <time>2020-08-02T05:59:15.000Z</time>
      </trkpt>
      <trkpt lat="43.58441" lon="3.81474">
        <ele>29</ele>
        <time>2020-08-02T05:59:16.000Z</time>
      </trkpt>
      <trkpt lat="43.58438" lon="3.81473">
        <ele>29</ele>
        <time>2020-08-02T05:59:17.000Z</time>
      </trkpt>
      <trkpt lat="43.58436" lon="3.8147">
        <ele>29</ele>
        <time>2020-08-02T05:59:18.000Z</time>
      </trkpt>
      <trkpt lat="43.58434" lon="3.81467">
        <ele>29</ele>
        <time>2020-08-02T05:59:19.000Z</time>
      </trkpt>
      <trkpt lat="43.58434" lon="3.81461">
        <ele>29</ele>
        <time>2020-08-02T05:59:20.000Z</time>
      </trkpt>
      <trkpt lat="43.58434" lon="3.81452">
        <ele>29</ele>
        <time>2020-08-02T05:59:22.000Z</time>
      </trkpt>
      <trkpt lat="43.58435" lon="3.81449">
        <ele>29</ele>
        <time>2020-08-02T05:59:23.000Z</time>
      </trkpt>
      <trkpt lat="43.58436" lon="3.81447">
        <ele>29</ele>
        <time>2020-08-02T05:59:25.000Z</time>
      </trkpt>
      <trkpt lat="43.58437" lon="3.81449">
        <ele>30.05303030303</ele>
        <time>2020-08-02T05:59:31.000Z</time>
      </trkpt>
      <trkpt lat="43.58436" lon="3.81457">
        <ele>31</ele>
        <time>2020-08-02T05:59:36.000Z</time>
      </trkpt>
      <trkpt lat="43.58436" lon="3.81459">
        <ele>30.924324990037</ele>
        <time>2020-08-02T05:59:37.000Z</time>
      </trkpt>
      <trkpt lat="43.58434" lon="3.81463">
        <ele>30.708108699021</ele>
        <time>2020-08-02T05:59:39.000Z</time>
      </trkpt>
      <trkpt lat="43.58432" lon="3.81466">
        <ele>30.600000553514</ele>
        <time>2020-08-02T05:59:40.000Z</time>
      </trkpt>
      <trkpt lat="43.58431" lon="3.81469">
        <ele>30.383784262498</ele>
        <time>2020-08-02T05:59:42.000Z</time>
      </trkpt>
      <trkpt lat="43.58433" lon="3.81471">
        <ele>30.2832025</ele>
        <time>2020-08-02T05:59:47.000Z</time>
      </trkpt>
      <trkpt lat="43.58434" lon="3.8147">
        <ele>31</ele>
        <time>2020-08-02T05:59:51.000Z</time>
      </trkpt>
      <trkpt lat="43.58435" lon="3.81488">
        <ele>31</ele>
        <time>2020-08-02T06:00:34.000Z</time>
      </trkpt>
      <trkpt lat="43.58434" lon="3.81491">
        <ele>30.896226149282</ele>
        <time>2020-08-02T06:00:35.000Z</time>
      </trkpt>
      <trkpt lat="43.58433" lon="3.81495">
        <ele>30.791404416668</ele>
        <time>2020-08-02T06:00:36.000Z</time>
      </trkpt>
      <trkpt lat="43.58431" lon="3.81499">
        <ele>30.686582684054</ele>
        <time>2020-08-02T06:00:37.000Z</time>
      </trkpt>
      <trkpt lat="43.58431" lon="3.81503">
        <ele>30.581760951439</ele>
        <time>2020-08-02T06:00:38.000Z</time>
      </trkpt>
      <trkpt lat="43.58429" lon="3.81507">
        <ele>30.476939218825</ele>
        <time>2020-08-02T06:00:39.000Z</time>
      </trkpt>
      <trkpt lat="43.58427" lon="3.81511">
        <ele>30.37211748621</ele>
        <time>2020-08-02T06:00:40.000Z</time>
      </trkpt>
      <trkpt lat="43.58425" lon="3.81515">
        <ele>30.267295753596</ele>
        <time>2020-08-02T06:00:41.000Z</time>
      </trkpt>
      <trkpt lat="43.58423" lon="3.81518">
        <ele>30.162474020982</ele>
        <time>2020-08-02T06:00:42.000Z</time>
      </trkpt>
      <trkpt lat="43.58422" lon="3.81523">
        <ele>30.057652288367</ele>
        <time>2020-08-02T06:00:43.000Z</time>
      </trkpt>
      <trkpt lat="43.5842" lon="3.81526">
        <ele>30</ele>
        <time>2020-08-02T06:00:44.000Z</time>
      </trkpt>
      <trkpt lat="43.58418" lon="3.8153">
        <ele>30</ele>
        <time>2020-08-02T06:00:45.000Z</time>
      </trkpt>
      <trkpt lat="43.58417" lon="3.81534">
        <ele>30</ele>
        <time>2020-08-02T06:00:46.000Z</time>
      </trkpt>
      <trkpt lat="43.58416" lon="3.81538">
        <ele>30</ele>
        <time>2020-08-02T06:00:47.000Z</time>
      </trkpt>
      <trkpt lat="43.58415" lon="3.81541">
        <ele>30</ele>
        <time>2020-08-02T06:00:48.000Z</time>
      </trkpt>
      <trkpt lat="43.58414" lon="3.81546">
        <ele>30</ele>
        <time>2020-08-02T06:00:49.000Z</time>
      </trkpt>
      <trkpt lat="43.58413" lon="3.8155">
        <ele>30</ele>
        <time>2020-08-02T06:00:50.000Z</time>
      </trkpt>
      <trkpt lat="43.5841" lon="3.81554">
        <ele>30</ele>
        <time>2020-08-02T06:00:51.000Z</time>
      </trkpt>
      <trkpt lat="43.58408" lon="3.81559">
        <ele>30</ele>
        <time>2020-08-02T06:00:52.000Z</time>
      </trkpt>
      <trkpt lat="43.58406" lon="3.81563">
        <ele>30</ele>
        <time>2020-08-02T06:00:53.000Z</time>
      </trkpt>
      <trkpt lat="43.58403" lon="3.81566">
        <ele>30.016477852448</ele>
        <time>2020-08-02T06:00:54.000Z</time>
      </trkpt>
      <trkpt lat="43.584" lon="3.8157">
        <ele>30.119464430249</ele>
        <time>2020-08-02T06:00:55.000Z</time>
      </trkpt>
      <trkpt lat="43.58396" lon="3.81572">
        <ele>30.222451008049</ele>
        <time>2020-08-02T06:00:56.000Z</time>
      </trkpt>
      <trkpt lat="43.58393" lon="3.81573">
        <ele>30.32543758585</ele>
        <time>2020-08-02T06:00:57.000Z</time>
      </trkpt>
      <trkpt lat="43.58389" lon="3.81573">
        <ele>30.42842416365</ele>
        <time>2020-08-02T06:00:58.000Z</time>
      </trkpt>
      <trkpt lat="43.58385" lon="3.81573">
        <ele>30.531410741451</ele>
        <time>2020-08-02T06:00:59.000Z</time>
      </trkpt>
      <trkpt lat="43.58382" lon="3.81573">
        <ele>30.634397319251</ele>
        <time>2020-08-02T06:01:00.000Z</time>
      </trkpt>
      <trkpt lat="43.58379" lon="3.81574">
        <ele>30.737383897052</ele>
        <time>2020-08-02T06:01:01.000Z</time>
      </trkpt>
      <trkpt lat="43.58376" lon="3.81577">
        <ele>30.840370474852</ele>
        <time>2020-08-02T06:01:02.000Z</time>
      </trkpt>
      <trkpt lat="43.58374" lon="3.8158">
        <ele>30.943357052653</ele>
        <time>2020-08-02T06:01:03.000Z</time>
      </trkpt>
      <trkpt lat="43.58373" lon="3.81583">
        <ele>31.04499968</ele>
        <time>2020-08-02T06:01:04.000Z</time>
      </trkpt>
      <trkpt lat="43.5837" lon="3.81586">
        <ele>31.14499968</ele>
        <time>2020-08-02T06:01:05.000Z</time>
      </trkpt>
      <trkpt lat="43.58367" lon="3.81589">
        <ele>31.24499968</ele>
        <time>2020-08-02T06:01:06.000Z</time>
      </trkpt>
      <trkpt lat="43.58364" lon="3.81593">
        <ele>31.34499968</ele>
        <time>2020-08-02T06:01:07.000Z</time>
      </trkpt>
      <trkpt lat="43.5836" lon="3.81595">
        <ele>31.44499968</ele>
        <time>2020-08-02T06:01:08.000Z</time>
      </trkpt>
      <trkpt lat="43.58357" lon="3.81598">
        <ele>31.54499968</ele>
        <time>2020-08-02T06:01:09.000Z</time>
      </trkpt>
      <trkpt lat="43.58353" lon="3.81601">
        <ele>31.64499968</ele>
        <time>2020-08-02T06:01:10.000Z</time>
      </trkpt>
      <trkpt lat="43.5835" lon="3.81604">
        <ele>31.74499968</ele>
        <time>2020-08-02T06:01:11.000Z</time>
      </trkpt>
      <trkpt lat="43.58347" lon="3.81607">
        <ele>31.84499968</ele>
        <time>2020-08-02T06:01:12.000Z</time>
      </trkpt>
      <trkpt lat="43.58343" lon="3.81609">
        <ele>31.94499968</ele>
        <time>2020-08-02T06:01:13.000Z</time>
      </trkpt>
      <trkpt lat="43.58339" lon="3.81611">
        <ele>32</ele>
        <time>2020-08-02T06:01:14.000Z</time>
      </trkpt>
      <trkpt lat="43.58336" lon="3.81613">
        <ele>32</ele>
        <time>2020-08-02T06:01:15.000Z</time>
      </trkpt>
      <trkpt lat="43.58333" lon="3.81615">
        <ele>32</ele>
        <time>2020-08-02T06:01:16.000Z</time>
      </trkpt>
      <trkpt lat="43.58329" lon="3.81616">
        <ele>32</ele>
        <time>2020-08-02T06:01:17.000Z</time>
      </trkpt>
      <trkpt lat="43.58324" lon="3.81617">
        <ele>32</ele>
        <time>2020-08-02T06:01:18.000Z</time>
      </trkpt>
      <trkpt lat="43.58319" lon="3.81616">
        <ele>32</ele>
        <time>2020-08-02T06:01:19.000Z</time>
      </trkpt>
      <trkpt lat="43.58315" lon="3.81616">
        <ele>32</ele>
        <time>2020-08-02T06:01:20.000Z</time>
      </trkpt>
      <trkpt lat="43.58311" lon="3.81616">
        <ele>32</ele>
        <time>2020-08-02T06:01:21.000Z</time>
      </trkpt>
      <trkpt lat="43.58306" lon="3.81615">
        <ele>32</ele>
        <time>2020-08-02T06:01:22.000Z</time>
      </trkpt>
      <trkpt lat="43.58302" lon="3.81614">
        <ele>32</ele>
        <time>2020-08-02T06:01:23.000Z</time>
      </trkpt>
      <trkpt lat="43.58298" lon="3.81613">
        <ele>31.95500032</ele>
        <time>2020-08-02T06:01:24.000Z</time>
      </trkpt>
      <trkpt lat="43.58295" lon="3.81611">
        <ele>31.85500032</ele>
        <time>2020-08-02T06:01:25.000Z</time>
      </trkpt>
      <trkpt lat="43.58291" lon="3.81608">
        <ele>31.75500032</ele>
        <time>2020-08-02T06:01:26.000Z</time>
      </trkpt>
      <trkpt lat="43.58287" lon="3.81605">
        <ele>31.65500032</ele>
        <time>2020-08-02T06:01:27.000Z</time>
      </trkpt>
      <trkpt lat="43.58284" lon="3.81601">
        <ele>31.55500032</ele>
        <time>2020-08-02T06:01:28.000Z</time>
      </trkpt>
      <trkpt lat="43.5828" lon="3.81596">
        <ele>31.45500032</ele>
        <time>2020-08-02T06:01:29.000Z</time>
      </trkpt>
      <trkpt lat="43.58277" lon="3.81592">
        <ele>31.35500032</ele>
        <time>2020-08-02T06:01:30.000Z</time>
      </trkpt>
      <trkpt lat="43.58274" lon="3.81589">
        <ele>31.25500032</ele>
        <time>2020-08-02T06:01:31.000Z</time>
      </trkpt>
      <trkpt lat="43.58271" lon="3.81585">
        <ele>31.15500032</ele>
        <time>2020-08-02T06:01:32.000Z</time>
      </trkpt>
      <trkpt lat="43.58268" lon="3.81582">
        <ele>31.05500032</ele>
        <time>2020-08-02T06:01:33.000Z</time>
      </trkpt>
      <trkpt lat="43.58264" lon="3.8158">
        <ele>31</ele>
        <time>2020-08-02T06:01:34.000Z</time>
      </trkpt>
      <trkpt lat="43.5826" lon="3.81578">
        <ele>31</ele>
        <time>2020-08-02T06:01:35.000Z</time>
      </trkpt>
      <trkpt lat="43.58257" lon="3.81576">
        <ele>31</ele>
        <time>2020-08-02T06:01:36.000Z</time>
      </trkpt>
      <trkpt lat="43.58253" lon="3.81574">
        <ele>31</ele>
        <time>2020-08-02T06:01:37.000Z</time>
      </trkpt>
      <trkpt lat="43.58248" lon="3.81573">
        <ele>31</ele>
        <time>2020-08-02T06:01:38.000Z</time>
      </trkpt>
      <trkpt lat="43.58243" lon="3.81572">
        <ele>31</ele>
        <time>2020-08-02T06:01:39.000Z</time>
      </trkpt>
      <trkpt lat="43.58239" lon="3.81571">
        <ele>31</ele>
        <time>2020-08-02T06:01:40.000Z</time>
      </trkpt>
      <trkpt lat="43.58235" lon="3.8157">
        <ele>31</ele>
        <time>2020-08-02T06:01:41.000Z</time>
      </trkpt>
      <trkpt lat="43.58231" lon="3.81568">
        <ele>31</ele>
        <time>2020-08-02T06:01:42.000Z</time>
      </trkpt>
      <trkpt lat="43.58227" lon="3.81567">
        <ele>31</ele>
        <time>2020-08-02T06:01:43.000Z</time>
      </trkpt>
      <trkpt lat="43.58223" lon="3.81565">
        <ele>30.95500032</ele>
        <time>2020-08-02T06:01:44.000Z</time>
      </trkpt>
      <trkpt lat="43.5822" lon="3.81563">
        <ele>30.85500032</ele>
        <time>2020-08-02T06:01:45.000Z</time>
      </trkpt>
      <trkpt lat="43.58216" lon="3.81561">
        <ele>30.75500032</ele>
        <time>2020-08-02T06:01:46.000Z</time>
      </trkpt>
      <trkpt lat="43.58212" lon="3.81559">
        <ele>30.65500032</ele>
        <time>2020-08-02T06:01:47.000Z</time>
      </trkpt>
      <trkpt lat="43.58209" lon="3.81557">
        <ele>30.55500032</ele>
        <time>2020-08-02T06:01:48.000Z</time>
      </trkpt>
      <trkpt lat="43.58204" lon="3.81555">
        <ele>30.45500032</ele>
        <time>2020-08-02T06:01:49.000Z</time>
      </trkpt>
      <trkpt lat="43.582" lon="3.81554">
        <ele>30.35500032</ele>
        <time>2020-08-02T06:01:50.000Z</time>
      </trkpt>
      <trkpt lat="43.58196" lon="3.81553">
        <ele>30.25500032</ele>
        <time>2020-08-02T06:01:51.000Z</time>
      </trkpt>
      <trkpt lat="43.58192" lon="3.81553">
        <ele>30.15500032</ele>
        <time>2020-08-02T06:01:52.000Z</time>
      </trkpt>
      <trkpt lat="43.58187" lon="3.81553">
        <ele>30.05500032</ele>
        <time>2020-08-02T06:01:53.000Z</time>
      </trkpt>
      <trkpt lat="43.58183" lon="3.81552">
        <ele>29.95500032</ele>
        <time>2020-08-02T06:01:54.000Z</time>
      </trkpt>
      <trkpt lat="43.58178" lon="3.81552">
        <ele>29.85500032</ele>
        <time>2020-08-02T06:01:55.000Z</time>
      </trkpt>
      <trkpt lat="43.58174" lon="3.81551">
        <ele>29.75500032</ele>
        <time>2020-08-02T06:01:56.000Z</time>
      </trkpt>
      <trkpt lat="43.5817" lon="3.81551">
        <ele>29.65500032</ele>
        <time>2020-08-02T06:01:57.000Z</time>
      </trkpt>
      <trkpt lat="43.58166" lon="3.81549">
        <ele>29.55500032</ele>
        <time>2020-08-02T06:01:58.000Z</time>
      </trkpt>
      <trkpt lat="43.58162" lon="3.81547">
        <ele>29.45500032</ele>
        <time>2020-08-02T06:01:59.000Z</time>
      </trkpt>
      <trkpt lat="43.58158" lon="3.81545">
        <ele>29.35500032</ele>
        <time>2020-08-02T06:02:00.000Z</time>
      </trkpt>
      <trkpt lat="43.58154" lon="3.81542">
        <ele>29.25500032</ele>
        <time>2020-08-02T06:02:01.000Z</time>
      </trkpt>
      <trkpt lat="43.5815" lon="3.81539">
        <ele>29.15500032</ele>
        <time>2020-08-02T06:02:02.000Z</time>
      </trkpt>
      <trkpt lat="43.58147" lon="3.81537">
        <ele>29.05500032</ele>
        <time>2020-08-02T06:02:03.000Z</time>
      </trkpt>
      <trkpt lat="43.58144" lon="3.81533">
        <ele>28.95500032</ele>
        <time>2020-08-02T06:02:04.000Z</time>
      </trkpt>
      <trkpt lat="43.58142" lon="3.81527">
        <ele>28.85500032</ele>
        <time>2020-08-02T06:02:05.000Z</time>
      </trkpt>
      <trkpt lat="43.5814" lon="3.81522">
        <ele>28.75500032</ele>
        <time>2020-08-02T06:02:06.000Z</time>
      </trkpt>
      <trkpt lat="43.58137" lon="3.81517">
        <ele>28.65500032</ele>
        <time>2020-08-02T06:02:07.000Z</time>
      </trkpt>
      <trkpt lat="43.58135" lon="3.81513">
        <ele>28.55500032</ele>
        <time>2020-08-02T06:02:08.000Z</time>
      </trkpt>
      <trkpt lat="43.58133" lon="3.81509">
        <ele>28.45500032</ele>
        <time>2020-08-02T06:02:09.000Z</time>
      </trkpt>
      <trkpt lat="43.58132" lon="3.81506">
        <ele>28.35500032</ele>
        <time>2020-08-02T06:02:10.000Z</time>
      </trkpt>
      <trkpt lat="43.5813" lon="3.81502">
        <ele>28.25500032</ele>
        <time>2020-08-02T06:02:11.000Z</time>
      </trkpt>
      <trkpt lat="43.58127" lon="3.81499">
        <ele>28.15500032</ele>
        <time>2020-08-02T06:02:12.000Z</time>
      </trkpt>
      <trkpt lat="43.58123" lon="3.81497">
        <ele>28.05500032</ele>
        <time>2020-08-02T06:02:13.000Z</time>
      </trkpt>
      <trkpt lat="43.5812" lon="3.81496">
        <ele>27.911243178694</ele>
        <time>2020-08-02T06:02:14.000Z</time>
      </trkpt>
      <trkpt lat="43.58116" lon="3.81495">
        <ele>27.714004395427</ele>
        <time>2020-08-02T06:02:15.000Z</time>
      </trkpt>
      <trkpt lat="43.58112" lon="3.81494">
        <ele>27.51676561216</ele>
        <time>2020-08-02T06:02:16.000Z</time>
      </trkpt>
      <trkpt lat="43.58108" lon="3.81494">
        <ele>27.319526828893</ele>
        <time>2020-08-02T06:02:17.000Z</time>
      </trkpt>
      <trkpt lat="43.58105" lon="3.81494">
        <ele>27.122288045626</ele>
        <time>2020-08-02T06:02:18.000Z</time>
      </trkpt>
      <trkpt lat="43.58101" lon="3.81494">
        <ele>26.925049262358</ele>
        <time>2020-08-02T06:02:19.000Z</time>
      </trkpt>
      <trkpt lat="43.58099" lon="3.81494">
        <ele>26.727810479091</ele>
        <time>2020-08-02T06:02:20.000Z</time>
      </trkpt>
      <trkpt lat="43.58097" lon="3.81494">
        <ele>26.530571695824</ele>
        <time>2020-08-02T06:02:21.000Z</time>
      </trkpt>
      <trkpt lat="43.58094" lon="3.81494">
        <ele>26.333332912557</ele>
        <time>2020-08-02T06:02:22.000Z</time>
      </trkpt>
      <trkpt lat="43.58091" lon="3.81493">
        <ele>26.13609412929</ele>
        <time>2020-08-02T06:02:23.000Z</time>
      </trkpt>
      <trkpt lat="43.58088" lon="3.81493">
        <ele>25.968559533592</ele>
        <time>2020-08-02T06:02:24.000Z</time>
      </trkpt>
      <trkpt lat="43.58085" lon="3.81492">
        <ele>25.867139721126</ele>
        <time>2020-08-02T06:02:25.000Z</time>
      </trkpt>
      <trkpt lat="43.58082" lon="3.81492">
        <ele>25.765719908661</ele>
        <time>2020-08-02T06:02:26.000Z</time>
      </trkpt>
      <trkpt lat="43.58078" lon="3.81491">
        <ele>25.664300096195</ele>
        <time>2020-08-02T06:02:27.000Z</time>
      </trkpt>
      <trkpt lat="43.58075" lon="3.81491">
        <ele>25.562880283729</ele>
        <time>2020-08-02T06:02:28.000Z</time>
      </trkpt>
      <trkpt lat="43.58071" lon="3.81491">
        <ele>25.461460471263</ele>
        <time>2020-08-02T06:02:29.000Z</time>
      </trkpt>
      <trkpt lat="43.58067" lon="3.81491">
        <ele>25.360040658797</ele>
        <time>2020-08-02T06:02:30.000Z</time>
      </trkpt>
      <trkpt lat="43.58063" lon="3.81491">
        <ele>25.258620846331</ele>
        <time>2020-08-02T06:02:31.000Z</time>
      </trkpt>
      <trkpt lat="43.58059" lon="3.8149">
        <ele>25.157201033866</ele>
        <time>2020-08-02T06:02:32.000Z</time>
      </trkpt>
      <trkpt lat="43.58054" lon="3.8149">
        <ele>25.0557812214</ele>
        <time>2020-08-02T06:02:33.000Z</time>
      </trkpt>
      <trkpt lat="43.5805" lon="3.81489">
        <ele>24.95500032</ele>
        <time>2020-08-02T06:02:34.000Z</time>
      </trkpt>
      <trkpt lat="43.58046" lon="3.81489">
        <ele>24.85500032</ele>
        <time>2020-08-02T06:02:35.000Z</time>
      </trkpt>
      <trkpt lat="43.58042" lon="3.81489">
        <ele>24.75500032</ele>
        <time>2020-08-02T06:02:36.000Z</time>
      </trkpt>
      <trkpt lat="43.58038" lon="3.81488">
        <ele>24.65500032</ele>
        <time>2020-08-02T06:02:37.000Z</time>
      </trkpt>
      <trkpt lat="43.58034" lon="3.81487">
        <ele>24.55500032</ele>
        <time>2020-08-02T06:02:38.000Z</time>
      </trkpt>
      <trkpt lat="43.5803" lon="3.81487">
        <ele>24.45500032</ele>
        <time>2020-08-02T06:02:39.000Z</time>
      </trkpt>
      <trkpt lat="43.58027" lon="3.81486">
        <ele>24.35500032</ele>
        <time>2020-08-02T06:02:40.000Z</time>
      </trkpt>
      <trkpt lat="43.58023" lon="3.81485">
        <ele>24.25500032</ele>
        <time>2020-08-02T06:02:41.000Z</time>
      </trkpt>
      <trkpt lat="43.58019" lon="3.81484">
        <ele>24.15500032</ele>
        <time>2020-08-02T06:02:42.000Z</time>
      </trkpt>
      <trkpt lat="43.58015" lon="3.81482">
        <ele>24.05500032</ele>
        <time>2020-08-02T06:02:43.000Z</time>
      </trkpt>
      <trkpt lat="43.58012" lon="3.8148">
        <ele>24</ele>
        <time>2020-08-02T06:02:44.000Z</time>
      </trkpt>
      <trkpt lat="43.58008" lon="3.81477">
        <ele>24</ele>
        <time>2020-08-02T06:02:45.000Z</time>
      </trkpt>
      <trkpt lat="43.58004" lon="3.81473">
        <ele>24</ele>
        <time>2020-08-02T06:02:46.000Z</time>
      </trkpt>
      <trkpt lat="43.58001" lon="3.8147">
        <ele>24</ele>
        <time>2020-08-02T06:02:47.000Z</time>
      </trkpt>
      <trkpt lat="43.57997" lon="3.81466">
        <ele>24</ele>
        <time>2020-08-02T06:02:48.000Z</time>
      </trkpt>
      <trkpt lat="43.57994" lon="3.81462">
        <ele>24</ele>
        <time>2020-08-02T06:02:49.000Z</time>
      </trkpt>
      <trkpt lat="43.57991" lon="3.8146">
        <ele>24</ele>
        <time>2020-08-02T06:02:50.000Z</time>
      </trkpt>
      <trkpt lat="43.57988" lon="3.81457">
        <ele>24</ele>
        <time>2020-08-02T06:02:51.000Z</time>
      </trkpt>
      <trkpt lat="43.57984" lon="3.81455">
        <ele>24</ele>
        <time>2020-08-02T06:02:52.000Z</time>
      </trkpt>
      <trkpt lat="43.5798" lon="3.81453">
        <ele>24</ele>
        <time>2020-08-02T06:02:53.000Z</time>
      </trkpt>
      <trkpt lat="43.57975" lon="3.81451">
        <ele>24</ele>
        <time>2020-08-02T06:02:54.000Z</time>
      </trkpt>
      <trkpt lat="43.57971" lon="3.8145">
        <ele>24</ele>
        <time>2020-08-02T06:02:55.000Z</time>
      </trkpt>
      <trkpt lat="43.57966" lon="3.81449">
        <ele>24</ele>
        <time>2020-08-02T06:02:56.000Z</time>
      </trkpt>
      <trkpt lat="43.57962" lon="3.81448">
        <ele>24</ele>
        <time>2020-08-02T06:02:57.000Z</time>
      </trkpt>
      <trkpt lat="43.57957" lon="3.81446">
        <ele>24</ele>
        <time>2020-08-02T06:02:58.000Z</time>
      </trkpt>
      <trkpt lat="43.57953" lon="3.81445">
        <ele>24</ele>
        <time>2020-08-02T06:02:59.000Z</time>
      </trkpt>
      <trkpt lat="43.57949" lon="3.81444">
        <ele>24</ele>
        <time>2020-08-02T06:03:00.000Z</time>
      </trkpt>
      <trkpt lat="43.57944" lon="3.81443">
        <ele>24</ele>
        <time>2020-08-02T06:03:01.000Z</time>
      </trkpt>
      <trkpt lat="43.5794" lon="3.81443">
        <ele>24</ele>
        <time>2020-08-02T06:03:02.000Z</time>
      </trkpt>
      <trkpt lat="43.57935" lon="3.81442">
        <ele>24</ele>
        <time>2020-08-02T06:03:03.000Z</time>
      </trkpt>
      <trkpt lat="43.57931" lon="3.81442">
        <ele>24</ele>
        <time>2020-08-02T06:03:04.000Z</time>
      </trkpt>
      <trkpt lat="43.57927" lon="3.81442">
        <ele>24</ele>
        <time>2020-08-02T06:03:05.000Z</time>
      </trkpt>
      <trkpt lat="43.57923" lon="3.81442">
        <ele>24</ele>
        <time>2020-08-02T06:03:06.000Z</time>
      </trkpt>
      <trkpt lat="43.57918" lon="3.81442">
        <ele>24</ele>
        <time>2020-08-02T06:03:07.000Z</time>
      </trkpt>
      <trkpt lat="43.57914" lon="3.81443">
        <ele>24</ele>
        <time>2020-08-02T06:03:08.000Z</time>
      </trkpt>
      <trkpt lat="43.57909" lon="3.81443">
        <ele>24</ele>
        <time>2020-08-02T06:03:09.000Z</time>
      </trkpt>
      <trkpt lat="43.57905" lon="3.81443">
        <ele>24</ele>
        <time>2020-08-02T06:03:10.000Z</time>
      </trkpt>
      <trkpt lat="43.579" lon="3.81442">
        <ele>24</ele>
        <time>2020-08-02T06:03:11.000Z</time>
      </trkpt>
      <trkpt lat="43.57896" lon="3.81442">
        <ele>24</ele>
        <time>2020-08-02T06:03:12.000Z</time>
      </trkpt>
      <trkpt lat="43.57891" lon="3.81442">
        <ele>24</ele>
        <time>2020-08-02T06:03:13.000Z</time>
      </trkpt>
      <trkpt lat="43.57887" lon="3.81441">
        <ele>23.95500032</ele>
        <time>2020-08-02T06:03:14.000Z</time>
      </trkpt>
      <trkpt lat="43.57883" lon="3.81441">
        <ele>23.85500032</ele>
        <time>2020-08-02T06:03:15.000Z</time>
      </trkpt>
      <trkpt lat="43.57879" lon="3.81441">
        <ele>23.75500032</ele>
        <time>2020-08-02T06:03:16.000Z</time>
      </trkpt>
      <trkpt lat="43.57874" lon="3.8144">
        <ele>23.65500032</ele>
        <time>2020-08-02T06:03:17.000Z</time>
      </trkpt>
      <trkpt lat="43.5787" lon="3.81438">
        <ele>23.55500032</ele>
        <time>2020-08-02T06:03:18.000Z</time>
      </trkpt>
      <trkpt lat="43.57866" lon="3.81436">
        <ele>23.45500032</ele>
        <time>2020-08-02T06:03:19.000Z</time>
      </trkpt>
      <trkpt lat="43.57862" lon="3.81434">
        <ele>23.35500032</ele>
        <time>2020-08-02T06:03:20.000Z</time>
      </trkpt>
      <trkpt lat="43.57858" lon="3.81431">
        <ele>23.25500032</ele>
        <time>2020-08-02T06:03:21.000Z</time>
      </trkpt>
      <trkpt lat="43.57854" lon="3.81428">
        <ele>23.15500032</ele>
        <time>2020-08-02T06:03:22.000Z</time>
      </trkpt>
      <trkpt lat="43.5785" lon="3.81424">
        <ele>23.05500032</ele>
        <time>2020-08-02T06:03:23.000Z</time>
      </trkpt>
      <trkpt lat="43.57847" lon="3.8142">
        <ele>23</ele>
        <time>2020-08-02T06:03:24.000Z</time>
      </trkpt>
      <trkpt lat="43.57843" lon="3.81415">
        <ele>23</ele>
        <time>2020-08-02T06:03:25.000Z</time>
      </trkpt>
      <trkpt lat="43.5784" lon="3.81411">
        <ele>23</ele>
        <time>2020-08-02T06:03:26.000Z</time>
      </trkpt>
      <trkpt lat="43.57837" lon="3.81406">
        <ele>23</ele>
        <time>2020-08-02T06:03:27.000Z</time>
      </trkpt>
      <trkpt lat="43.57834" lon="3.81401">
        <ele>23</ele>
        <time>2020-08-02T06:03:28.000Z</time>
      </trkpt>
      <trkpt lat="43.57831" lon="3.81397">
        <ele>23</ele>
        <time>2020-08-02T06:03:29.000Z</time>
      </trkpt>
      <trkpt lat="43.57828" lon="3.81392">
        <ele>23</ele>
        <time>2020-08-02T06:03:30.000Z</time>
      </trkpt>
      <trkpt lat="43.57825" lon="3.81388">
        <ele>23</ele>
        <time>2020-08-02T06:03:31.000Z</time>
      </trkpt>
      <trkpt lat="43.57822" lon="3.81384">
        <ele>23</ele>
        <time>2020-08-02T06:03:32.000Z</time>
      </trkpt>
      <trkpt lat="43.57819" lon="3.8138">
        <ele>23</ele>
        <time>2020-08-02T06:03:33.000Z</time>
      </trkpt>
      <trkpt lat="43.57816" lon="3.81377">
        <ele>22.95500032</ele>
        <time>2020-08-02T06:03:34.000Z</time>
      </trkpt>
      <trkpt lat="43.57812" lon="3.81375">
        <ele>22.85500032</ele>
        <time>2020-08-02T06:03:35.000Z</time>
      </trkpt>
      <trkpt lat="43.57808" lon="3.81374">
        <ele>22.75500032</ele>
        <time>2020-08-02T06:03:36.000Z</time>
      </trkpt>
      <trkpt lat="43.57803" lon="3.81373">
        <ele>22.65500032</ele>
        <time>2020-08-02T06:03:37.000Z</time>
      </trkpt>
      <trkpt lat="43.57799" lon="3.81372">
        <ele>22.55500032</ele>
        <time>2020-08-02T06:03:38.000Z</time>
      </trkpt>
      <trkpt lat="43.57795" lon="3.81372">
        <ele>22.45500032</ele>
        <time>2020-08-02T06:03:39.000Z</time>
      </trkpt>
      <trkpt lat="43.57791" lon="3.81371">
        <ele>22.35500032</ele>
        <time>2020-08-02T06:03:40.000Z</time>
      </trkpt>
      <trkpt lat="43.57787" lon="3.81371">
        <ele>22.25500032</ele>
        <time>2020-08-02T06:03:41.000Z</time>
      </trkpt>
      <trkpt lat="43.57782" lon="3.81371">
        <ele>22.15500032</ele>
        <time>2020-08-02T06:03:42.000Z</time>
      </trkpt>
      <trkpt lat="43.57778" lon="3.81371">
        <ele>22.05500032</ele>
        <time>2020-08-02T06:03:43.000Z</time>
      </trkpt>
      <trkpt lat="43.57774" lon="3.81372">
        <ele>22</ele>
        <time>2020-08-02T06:03:44.000Z</time>
      </trkpt>
      <trkpt lat="43.57769" lon="3.81372">
        <ele>22</ele>
        <time>2020-08-02T06:03:45.000Z</time>
      </trkpt>
      <trkpt lat="43.57765" lon="3.81373">
        <ele>22</ele>
        <time>2020-08-02T06:03:46.000Z</time>
      </trkpt>
      <trkpt lat="43.57761" lon="3.81373">
        <ele>22</ele>
        <time>2020-08-02T06:03:47.000Z</time>
      </trkpt>
      <trkpt lat="43.57756" lon="3.81374">
        <ele>22</ele>
        <time>2020-08-02T06:03:48.000Z</time>
      </trkpt>
      <trkpt lat="43.57752" lon="3.81374">
        <ele>22</ele>
        <time>2020-08-02T06:03:49.000Z</time>
      </trkpt>
      <trkpt lat="43.57747" lon="3.81374">
        <ele>22</ele>
        <time>2020-08-02T06:03:50.000Z</time>
      </trkpt>
      <trkpt lat="43.57743" lon="3.81374">
        <ele>22</ele>
        <time>2020-08-02T06:03:51.000Z</time>
      </trkpt>
      <trkpt lat="43.57738" lon="3.81375">
        <ele>22</ele>
        <time>2020-08-02T06:03:52.000Z</time>
      </trkpt>
      <trkpt lat="43.57734" lon="3.81374">
        <ele>22</ele>
        <time>2020-08-02T06:03:53.000Z</time>
      </trkpt>
      <trkpt lat="43.57729" lon="3.81374">
        <ele>22</ele>
        <time>2020-08-02T06:03:54.000Z</time>
      </trkpt>
      <trkpt lat="43.57725" lon="3.81374">
        <ele>22</ele>
        <time>2020-08-02T06:03:55.000Z</time>
      </trkpt>
      <trkpt lat="43.57721" lon="3.81374">
        <ele>22</ele>
        <time>2020-08-02T06:03:56.000Z</time>
      </trkpt>
      <trkpt lat="43.57716" lon="3.81374">
        <ele>22</ele>
        <time>2020-08-02T06:03:57.000Z</time>
      </trkpt>
      <trkpt lat="43.57712" lon="3.81374">
        <ele>22</ele>
        <time>2020-08-02T06:03:58.000Z</time>
      </trkpt>
      <trkpt lat="43.57708" lon="3.81375">
        <ele>22</ele>
        <time>2020-08-02T06:03:59.000Z</time>
      </trkpt>
      <trkpt lat="43.57704" lon="3.81375">
        <ele>22</ele>
        <time>2020-08-02T06:04:00.000Z</time>
      </trkpt>
      <trkpt lat="43.577" lon="3.81375">
        <ele>22</ele>
        <time>2020-08-02T06:04:01.000Z</time>
      </trkpt>
      <trkpt lat="43.57696" lon="3.81375">
        <ele>22</ele>
        <time>2020-08-02T06:04:02.000Z</time>
      </trkpt>
      <trkpt lat="43.57691" lon="3.81375">
        <ele>22</ele>
        <time>2020-08-02T06:04:03.000Z</time>
      </trkpt>
      <trkpt lat="43.57687" lon="3.81375">
        <ele>22</ele>
        <time>2020-08-02T06:04:04.000Z</time>
      </trkpt>
      <trkpt lat="43.57683" lon="3.81375">
        <ele>22</ele>
        <time>2020-08-02T06:04:05.000Z</time>
      </trkpt>
      <trkpt lat="43.57679" lon="3.81374">
        <ele>22</ele>
        <time>2020-08-02T06:04:06.000Z</time>
      </trkpt>
      <trkpt lat="43.57675" lon="3.81373">
        <ele>22</ele>
        <time>2020-08-02T06:04:07.000Z</time>
      </trkpt>
      <trkpt lat="43.57671" lon="3.81372">
        <ele>22</ele>
        <time>2020-08-02T06:04:08.000Z</time>
      </trkpt>
      <trkpt lat="43.57667" lon="3.81371">
        <ele>22</ele>
        <time>2020-08-02T06:04:09.000Z</time>
      </trkpt>
      <trkpt lat="43.57663" lon="3.81369">
        <ele>22</ele>
        <time>2020-08-02T06:04:10.000Z</time>
      </trkpt>
      <trkpt lat="43.57659" lon="3.81368">
        <ele>22</ele>
        <time>2020-08-02T06:04:11.000Z</time>
      </trkpt>
      <trkpt lat="43.57655" lon="3.81366">
        <ele>22</ele>
        <time>2020-08-02T06:04:12.000Z</time>
      </trkpt>
      <trkpt lat="43.57651" lon="3.81364">
        <ele>22</ele>
        <time>2020-08-02T06:04:13.000Z</time>
      </trkpt>
      <trkpt lat="43.57647" lon="3.81362">
        <ele>22.04499968</ele>
        <time>2020-08-02T06:04:14.000Z</time>
      </trkpt>
      <trkpt lat="43.57643" lon="3.8136">
        <ele>22.14499968</ele>
        <time>2020-08-02T06:04:15.000Z</time>
      </trkpt>
      <trkpt lat="43.57639" lon="3.81357">
        <ele>22.24499968</ele>
        <time>2020-08-02T06:04:16.000Z</time>
      </trkpt>
      <trkpt lat="43.57636" lon="3.81354">
        <ele>22.34499968</ele>
        <time>2020-08-02T06:04:17.000Z</time>
      </trkpt>
      <trkpt lat="43.57633" lon="3.81351">
        <ele>22.44499968</ele>
        <time>2020-08-02T06:04:18.000Z</time>
      </trkpt>
      <trkpt lat="43.57629" lon="3.81348">
        <ele>22.54499968</ele>
        <time>2020-08-02T06:04:19.000Z</time>
      </trkpt>
      <trkpt lat="43.57626" lon="3.81346">
        <ele>22.64499968</ele>
        <time>2020-08-02T06:04:20.000Z</time>
      </trkpt>
      <trkpt lat="43.57621" lon="3.81343">
        <ele>22.74499968</ele>
        <time>2020-08-02T06:04:21.000Z</time>
      </trkpt>
      <trkpt lat="43.57617" lon="3.81341">
        <ele>22.84499968</ele>
        <time>2020-08-02T06:04:22.000Z</time>
      </trkpt>
      <trkpt lat="43.57613" lon="3.8134">
        <ele>22.94499968</ele>
        <time>2020-08-02T06:04:23.000Z</time>
      </trkpt>
      <trkpt lat="43.57609" lon="3.81338">
        <ele>22.95500032</ele>
        <time>2020-08-02T06:04:24.000Z</time>
      </trkpt>
      <trkpt lat="43.57606" lon="3.81336">
        <ele>22.85500032</ele>
        <time>2020-08-02T06:04:25.000Z</time>
      </trkpt>
      <trkpt lat="43.57602" lon="3.81334">
        <ele>22.75500032</ele>
        <time>2020-08-02T06:04:26.000Z</time>
      </trkpt>
      <trkpt lat="43.57599" lon="3.81331">
        <ele>22.65500032</ele>
        <time>2020-08-02T06:04:27.000Z</time>
      </trkpt>
      <trkpt lat="43.57595" lon="3.81329">
        <ele>22.55500032</ele>
        <time>2020-08-02T06:04:28.000Z</time>
      </trkpt>
      <trkpt lat="43.57591" lon="3.81326">
        <ele>22.45500032</ele>
        <time>2020-08-02T06:04:29.000Z</time>
      </trkpt>
      <trkpt lat="43.57586" lon="3.81324">
        <ele>22.35500032</ele>
        <time>2020-08-02T06:04:30.000Z</time>
      </trkpt>
      <trkpt lat="43.57582" lon="3.81322">
        <ele>22.25500032</ele>
        <time>2020-08-02T06:04:31.000Z</time>
      </trkpt>
      <trkpt lat="43.57578" lon="3.8132">
        <ele>22.15500032</ele>
        <time>2020-08-02T06:04:32.000Z</time>
      </trkpt>
      <trkpt lat="43.57573" lon="3.81317">
        <ele>22.05500032</ele>
        <time>2020-08-02T06:04:33.000Z</time>
      </trkpt>
      <trkpt lat="43.5757" lon="3.81313">
        <ele>22</ele>
        <time>2020-08-02T06:04:34.000Z</time>
      </trkpt>
      <trkpt lat="43.57566" lon="3.8131">
        <ele>22</ele>
        <time>2020-08-02T06:04:35.000Z</time>
      </trkpt>
      <trkpt lat="43.57562" lon="3.81307">
        <ele>22</ele>
        <time>2020-08-02T06:04:36.000Z</time>
      </trkpt>
      <trkpt lat="43.57558" lon="3.81304">
        <ele>22</ele>
        <time>2020-08-02T06:04:37.000Z</time>
      </trkpt>
      <trkpt lat="43.57555" lon="3.81301">
        <ele>22</ele>
        <time>2020-08-02T06:04:38.000Z</time>
      </trkpt>
      <trkpt lat="43.57552" lon="3.81297">
        <ele>22</ele>
        <time>2020-08-02T06:04:39.000Z</time>
      </trkpt>
      <trkpt lat="43.57548" lon="3.81294">
        <ele>22</ele>
        <time>2020-08-02T06:04:40.000Z</time>
      </trkpt>
      <trkpt lat="43.57545" lon="3.81292">
        <ele>22</ele>
        <time>2020-08-02T06:04:41.000Z</time>
      </trkpt>
      <trkpt lat="43.57541" lon="3.81289">
        <ele>22</ele>
        <time>2020-08-02T06:04:42.000Z</time>
      </trkpt>
      <trkpt lat="43.57538" lon="3.81286">
        <ele>22</ele>
        <time>2020-08-02T06:04:43.000Z</time>
      </trkpt>
      <trkpt lat="43.57534" lon="3.81284">
        <ele>22</ele>
        <time>2020-08-02T06:04:44.000Z</time>
      </trkpt>
      <trkpt lat="43.5753" lon="3.81281">
        <ele>22</ele>
        <time>2020-08-02T06:04:45.000Z</time>
      </trkpt>
      <trkpt lat="43.57526" lon="3.81279">
        <ele>22</ele>
        <time>2020-08-02T06:04:46.000Z</time>
      </trkpt>
      <trkpt lat="43.57522" lon="3.81276">
        <ele>22</ele>
        <time>2020-08-02T06:04:47.000Z</time>
      </trkpt>
      <trkpt lat="43.57518" lon="3.81274">
        <ele>22</ele>
        <time>2020-08-02T06:04:48.000Z</time>
      </trkpt>
      <trkpt lat="43.57514" lon="3.81272">
        <ele>22</ele>
        <time>2020-08-02T06:04:49.000Z</time>
      </trkpt>
      <trkpt lat="43.5751" lon="3.81269">
        <ele>22</ele>
        <time>2020-08-02T06:04:50.000Z</time>
      </trkpt>
      <trkpt lat="43.57506" lon="3.81267">
        <ele>22</ele>
        <time>2020-08-02T06:04:51.000Z</time>
      </trkpt>
      <trkpt lat="43.57502" lon="3.81266">
        <ele>22</ele>
        <time>2020-08-02T06:04:52.000Z</time>
      </trkpt>
      <trkpt lat="43.57497" lon="3.81265">
        <ele>22</ele>
        <time>2020-08-02T06:04:53.000Z</time>
      </trkpt>
      <trkpt lat="43.57494" lon="3.81263">
        <ele>22</ele>
        <time>2020-08-02T06:04:54.000Z</time>
      </trkpt>
      <trkpt lat="43.5749" lon="3.81262">
        <ele>22</ele>
        <time>2020-08-02T06:04:55.000Z</time>
      </trkpt>
      <trkpt lat="43.57486" lon="3.81259">
        <ele>22</ele>
        <time>2020-08-02T06:04:56.000Z</time>
      </trkpt>
      <trkpt lat="43.57483" lon="3.81257">
        <ele>22</ele>
        <time>2020-08-02T06:04:57.000Z</time>
      </trkpt>
      <trkpt lat="43.57479" lon="3.81256">
        <ele>22</ele>
        <time>2020-08-02T06:04:58.000Z</time>
      </trkpt>
      <trkpt lat="43.57476" lon="3.81256">
        <ele>22</ele>
        <time>2020-08-02T06:04:59.000Z</time>
      </trkpt>
      <trkpt lat="43.57471" lon="3.81257">
        <ele>22</ele>
        <time>2020-08-02T06:05:00.000Z</time>
      </trkpt>
      <trkpt lat="43.57466" lon="3.81257">
        <ele>22</ele>
        <time>2020-08-02T06:05:01.000Z</time>
      </trkpt>
      <trkpt lat="43.57462" lon="3.81256">
        <ele>22</ele>
        <time>2020-08-02T06:05:02.000Z</time>
      </trkpt>
      <trkpt lat="43.57458" lon="3.81254">
        <ele>22</ele>
        <time>2020-08-02T06:05:03.000Z</time>
      </trkpt>
      <trkpt lat="43.57454" lon="3.81252">
        <ele>21.95500032</ele>
        <time>2020-08-02T06:05:04.000Z</time>
      </trkpt>
      <trkpt lat="43.57451" lon="3.8125">
        <ele>21.85500032</ele>
        <time>2020-08-02T06:05:05.000Z</time>
      </trkpt>
      <trkpt lat="43.57448" lon="3.81248">
        <ele>21.75500032</ele>
        <time>2020-08-02T06:05:06.000Z</time>
      </trkpt>
      <trkpt lat="43.57444" lon="3.81245">
        <ele>21.65500032</ele>
        <time>2020-08-02T06:05:07.000Z</time>
      </trkpt>
      <trkpt lat="43.57441" lon="3.81243">
        <ele>21.55500032</ele>
        <time>2020-08-02T06:05:08.000Z</time>
      </trkpt>
      <trkpt lat="43.57438" lon="3.81239">
        <ele>21.45500032</ele>
        <time>2020-08-02T06:05:09.000Z</time>
      </trkpt>
      <trkpt lat="43.57436" lon="3.81236">
        <ele>21.35500032</ele>
        <time>2020-08-02T06:05:10.000Z</time>
      </trkpt>
      <trkpt lat="43.57433" lon="3.81233">
        <ele>21.25500032</ele>
        <time>2020-08-02T06:05:11.000Z</time>
      </trkpt>
      <trkpt lat="43.5743" lon="3.8123">
        <ele>21.15500032</ele>
        <time>2020-08-02T06:05:12.000Z</time>
      </trkpt>
      <trkpt lat="43.57427" lon="3.81228">
        <ele>21.05500032</ele>
        <time>2020-08-02T06:05:13.000Z</time>
      </trkpt>
      <trkpt lat="43.57424" lon="3.81228">
        <ele>21</ele>
        <time>2020-08-02T06:05:14.000Z</time>
      </trkpt>
      <trkpt lat="43.57421" lon="3.81226">
        <ele>21</ele>
        <time>2020-08-02T06:05:15.000Z</time>
      </trkpt>
      <trkpt lat="43.57418" lon="3.81225">
        <ele>21</ele>
        <time>2020-08-02T06:05:16.000Z</time>
      </trkpt>
      <trkpt lat="43.57415" lon="3.81223">
        <ele>21</ele>
        <time>2020-08-02T06:05:17.000Z</time>
      </trkpt>
      <trkpt lat="43.57412" lon="3.8122">
        <ele>21</ele>
        <time>2020-08-02T06:05:18.000Z</time>
      </trkpt>
      <trkpt lat="43.57409" lon="3.81217">
        <ele>21</ele>
        <time>2020-08-02T06:05:19.000Z</time>
      </trkpt>
      <trkpt lat="43.57406" lon="3.81215">
        <ele>21</ele>
        <time>2020-08-02T06:05:20.000Z</time>
      </trkpt>
      <trkpt lat="43.57404" lon="3.81212">
        <ele>21</ele>
        <time>2020-08-02T06:05:21.000Z</time>
      </trkpt>
      <trkpt lat="43.57401" lon="3.81209">
        <ele>21</ele>
        <time>2020-08-02T06:05:22.000Z</time>
      </trkpt>
      <trkpt lat="43.57399" lon="3.81207">
        <ele>21</ele>
        <time>2020-08-02T06:05:23.000Z</time>
      </trkpt>
      <trkpt lat="43.57398" lon="3.81205">
        <ele>21</ele>
        <time>2020-08-02T06:05:24.000Z</time>
      </trkpt>
      <trkpt lat="43.57397" lon="3.81202">
        <ele>21</ele>
        <time>2020-08-02T06:05:25.000Z</time>
      </trkpt>
      <trkpt lat="43.57397" lon="3.81199">
        <ele>21</ele>
        <time>2020-08-02T06:05:26.000Z</time>
      </trkpt>
      <trkpt lat="43.57398" lon="3.81196">
        <ele>21</ele>
        <time>2020-08-02T06:05:27.000Z</time>
      </trkpt>
      <trkpt lat="43.57398" lon="3.81192">
        <ele>21</ele>
        <time>2020-08-02T06:05:28.000Z</time>
      </trkpt>
      <trkpt lat="43.57399" lon="3.81189">
        <ele>21</ele>
        <time>2020-08-02T06:05:29.000Z</time>
      </trkpt>
      <trkpt lat="43.57398" lon="3.81186">
        <ele>21</ele>
        <time>2020-08-02T06:05:30.000Z</time>
      </trkpt>
      <trkpt lat="43.57397" lon="3.81183">
        <ele>21</ele>
        <time>2020-08-02T06:05:31.000Z</time>
      </trkpt>
      <trkpt lat="43.57395" lon="3.8118">
        <ele>21</ele>
        <time>2020-08-02T06:05:32.000Z</time>
      </trkpt>
      <trkpt lat="43.57393" lon="3.81178">
        <ele>21</ele>
        <time>2020-08-02T06:05:33.000Z</time>
      </trkpt>
      <trkpt lat="43.5739" lon="3.81177">
        <ele>21</ele>
        <time>2020-08-02T06:05:34.000Z</time>
      </trkpt>
      <trkpt lat="43.57387" lon="3.81175">
        <ele>21</ele>
        <time>2020-08-02T06:05:35.000Z</time>
      </trkpt>
      <trkpt lat="43.57384" lon="3.81174">
        <ele>21</ele>
        <time>2020-08-02T06:05:36.000Z</time>
      </trkpt>
      <trkpt lat="43.5738" lon="3.81173">
        <ele>21</ele>
        <time>2020-08-02T06:05:37.000Z</time>
      </trkpt>
      <trkpt lat="43.57377" lon="3.81173">
        <ele>21</ele>
        <time>2020-08-02T06:05:38.000Z</time>
      </trkpt>
      <trkpt lat="43.57373" lon="3.81171">
        <ele>21</ele>
        <time>2020-08-02T06:05:39.000Z</time>
      </trkpt>
      <trkpt lat="43.5737" lon="3.8117">
        <ele>21</ele>
        <time>2020-08-02T06:05:40.000Z</time>
      </trkpt>
      <trkpt lat="43.57366" lon="3.81169">
        <ele>21</ele>
        <time>2020-08-02T06:05:41.000Z</time>
      </trkpt>
      <trkpt lat="43.57362" lon="3.81168">
        <ele>21</ele>
        <time>2020-08-02T06:05:42.000Z</time>
      </trkpt>
      <trkpt lat="43.57359" lon="3.81168">
        <ele>21</ele>
        <time>2020-08-02T06:05:43.000Z</time>
      </trkpt>
      <trkpt lat="43.57356" lon="3.81167">
        <ele>21</ele>
        <time>2020-08-02T06:05:44.000Z</time>
      </trkpt>
      <trkpt lat="43.57353" lon="3.81166">
        <ele>21</ele>
        <time>2020-08-02T06:05:45.000Z</time>
      </trkpt>
      <trkpt lat="43.5735" lon="3.81163">
        <ele>21</ele>
        <time>2020-08-02T06:05:46.000Z</time>
      </trkpt>
      <trkpt lat="43.57348" lon="3.81159">
        <ele>21</ele>
        <time>2020-08-02T06:05:47.000Z</time>
      </trkpt>
      <trkpt lat="43.57348" lon="3.81155">
        <ele>21</ele>
        <time>2020-08-02T06:05:48.000Z</time>
      </trkpt>
      <trkpt lat="43.57347" lon="3.81151">
        <ele>21</ele>
        <time>2020-08-02T06:05:49.000Z</time>
      </trkpt>
      <trkpt lat="43.57345" lon="3.81147">
        <ele>21</ele>
        <time>2020-08-02T06:05:50.000Z</time>
      </trkpt>
      <trkpt lat="43.57342" lon="3.81144">
        <ele>21</ele>
        <time>2020-08-02T06:05:51.000Z</time>
      </trkpt>
      <trkpt lat="43.5734" lon="3.8114">
        <ele>21</ele>
        <time>2020-08-02T06:05:52.000Z</time>
      </trkpt>
      <trkpt lat="43.57336" lon="3.81137">
        <ele>21</ele>
        <time>2020-08-02T06:05:53.000Z</time>
      </trkpt>
      <trkpt lat="43.57332" lon="3.81134">
        <ele>21.04499968</ele>
        <time>2020-08-02T06:05:54.000Z</time>
      </trkpt>
      <trkpt lat="43.57329" lon="3.81132">
        <ele>21.14499968</ele>
        <time>2020-08-02T06:05:55.000Z</time>
      </trkpt>
      <trkpt lat="43.57327" lon="3.81129">
        <ele>21.34499968</ele>
        <time>2020-08-02T06:05:57.000Z</time>
      </trkpt>
      <trkpt lat="43.57325" lon="3.81128">
        <ele>21.44499968</ele>
        <time>2020-08-02T06:05:58.000Z</time>
      </trkpt>
      <trkpt lat="43.57323" lon="3.81126">
        <ele>21.54499968</ele>
        <time>2020-08-02T06:05:59.000Z</time>
      </trkpt>
      <trkpt lat="43.57322" lon="3.81124">
        <ele>21.64499968</ele>
        <time>2020-08-02T06:06:00.000Z</time>
      </trkpt>
      <trkpt lat="43.5732" lon="3.81123">
        <ele>21.74499968</ele>
        <time>2020-08-02T06:06:01.000Z</time>
      </trkpt>
      <trkpt lat="43.57316" lon="3.8112">
        <ele>21.94499968</ele>
        <time>2020-08-02T06:06:03.000Z</time>
      </trkpt>
      <trkpt lat="43.57312" lon="3.8112">
        <ele>22.28999936</ele>
        <time>2020-08-02T06:06:05.000Z</time>
      </trkpt>
      <trkpt lat="43.57307" lon="3.8112">
        <ele>22.68999936</ele>
        <time>2020-08-02T06:06:07.000Z</time>
      </trkpt>
      <trkpt lat="43.57305" lon="3.8112">
        <ele>22.88999936</ele>
        <time>2020-08-02T06:06:08.000Z</time>
      </trkpt>
      <trkpt lat="43.57302" lon="3.8112">
        <ele>23.08999936</ele>
        <time>2020-08-02T06:06:09.000Z</time>
      </trkpt>
      <trkpt lat="43.57299" lon="3.81122">
        <ele>23.28999936</ele>
        <time>2020-08-02T06:06:10.000Z</time>
      </trkpt>
      <trkpt lat="43.57296" lon="3.81124">
        <ele>23.48999936</ele>
        <time>2020-08-02T06:06:11.000Z</time>
      </trkpt>
      <trkpt lat="43.57294" lon="3.81126">
        <ele>23.68999936</ele>
        <time>2020-08-02T06:06:12.000Z</time>
      </trkpt>
      <trkpt lat="43.57292" lon="3.81129">
        <ele>23.88999936</ele>
        <time>2020-08-02T06:06:13.000Z</time>
      </trkpt>
      <trkpt lat="43.57289" lon="3.81132">
        <ele>24.04499968</ele>
        <time>2020-08-02T06:06:14.000Z</time>
      </trkpt>
      <trkpt lat="43.57287" lon="3.81134">
        <ele>24.14499968</ele>
        <time>2020-08-02T06:06:15.000Z</time>
      </trkpt>
      <trkpt lat="43.57285" lon="3.81137">
        <ele>24.24499968</ele>
        <time>2020-08-02T06:06:16.000Z</time>
      </trkpt>
      <trkpt lat="43.57281" lon="3.8114">
        <ele>24.34499968</ele>
        <time>2020-08-02T06:06:17.000Z</time>
      </trkpt>
      <trkpt lat="43.57278" lon="3.81142">
        <ele>24.44499968</ele>
        <time>2020-08-02T06:06:18.000Z</time>
      </trkpt>
      <trkpt lat="43.57275" lon="3.81144">
        <ele>24.54499968</ele>
        <time>2020-08-02T06:06:19.000Z</time>
      </trkpt>
      <trkpt lat="43.57272" lon="3.81145">
        <ele>24.64499968</ele>
        <time>2020-08-02T06:06:20.000Z</time>
      </trkpt>
      <trkpt lat="43.57268" lon="3.81147">
        <ele>24.74499968</ele>
        <time>2020-08-02T06:06:21.000Z</time>
      </trkpt>
      <trkpt lat="43.57264" lon="3.81149">
        <ele>24.84499968</ele>
        <time>2020-08-02T06:06:22.000Z</time>
      </trkpt>
      <trkpt lat="43.57261" lon="3.8115">
        <ele>24.94499968</ele>
        <time>2020-08-02T06:06:23.000Z</time>
      </trkpt>
      <trkpt lat="43.57256" lon="3.81152">
        <ele>25</ele>
        <time>2020-08-02T06:06:24.000Z</time>
      </trkpt>
      <trkpt lat="43.57252" lon="3.81153">
        <ele>25</ele>
        <time>2020-08-02T06:06:25.000Z</time>
      </trkpt>
      <trkpt lat="43.57249" lon="3.81154">
        <ele>25</ele>
        <time>2020-08-02T06:06:26.000Z</time>
      </trkpt>
      <trkpt lat="43.57245" lon="3.81155">
        <ele>25</ele>
        <time>2020-08-02T06:06:27.000Z</time>
      </trkpt>
      <trkpt lat="43.57241" lon="3.81157">
        <ele>25</ele>
        <time>2020-08-02T06:06:28.000Z</time>
      </trkpt>
      <trkpt lat="43.57237" lon="3.81158">
        <ele>25</ele>
        <time>2020-08-02T06:06:29.000Z</time>
      </trkpt>
      <trkpt lat="43.57234" lon="3.81159">
        <ele>25</ele>
        <time>2020-08-02T06:06:30.000Z</time>
      </trkpt>
      <trkpt lat="43.5723" lon="3.8116">
        <ele>25</ele>
        <time>2020-08-02T06:06:31.000Z</time>
      </trkpt>
      <trkpt lat="43.57226" lon="3.81162">
        <ele>25</ele>
        <time>2020-08-02T06:06:32.000Z</time>
      </trkpt>
      <trkpt lat="43.57223" lon="3.81165">
        <ele>25</ele>
        <time>2020-08-02T06:06:33.000Z</time>
      </trkpt>
      <trkpt lat="43.57219" lon="3.81167">
        <ele>24.91000064</ele>
        <time>2020-08-02T06:06:34.000Z</time>
      </trkpt>
      <trkpt lat="43.57216" lon="3.8117">
        <ele>24.71000064</ele>
        <time>2020-08-02T06:06:35.000Z</time>
      </trkpt>
      <trkpt lat="43.57212" lon="3.81173">
        <ele>24.51000064</ele>
        <time>2020-08-02T06:06:36.000Z</time>
      </trkpt>
      <trkpt lat="43.57208" lon="3.81176">
        <ele>24.31000064</ele>
        <time>2020-08-02T06:06:37.000Z</time>
      </trkpt>
      <trkpt lat="43.57204" lon="3.81178">
        <ele>24.11000064</ele>
        <time>2020-08-02T06:06:38.000Z</time>
      </trkpt>
      <trkpt lat="43.57201" lon="3.81181">
        <ele>23.91000064</ele>
        <time>2020-08-02T06:06:39.000Z</time>
      </trkpt>
      <trkpt lat="43.57197" lon="3.81183">
        <ele>23.71000064</ele>
        <time>2020-08-02T06:06:40.000Z</time>
      </trkpt>
      <trkpt lat="43.57193" lon="3.81186">
        <ele>23.51000064</ele>
        <time>2020-08-02T06:06:41.000Z</time>
      </trkpt>
      <trkpt lat="43.57189" lon="3.81188">
        <ele>23.31000064</ele>
        <time>2020-08-02T06:06:42.000Z</time>
      </trkpt>
      <trkpt lat="43.57186" lon="3.81191">
        <ele>23.11000064</ele>
        <time>2020-08-02T06:06:43.000Z</time>
      </trkpt>
      <trkpt lat="43.57183" lon="3.81193">
        <ele>22.95500032</ele>
        <time>2020-08-02T06:06:44.000Z</time>
      </trkpt>
      <trkpt lat="43.57179" lon="3.81196">
        <ele>22.85500032</ele>
        <time>2020-08-02T06:06:45.000Z</time>
      </trkpt>
      <trkpt lat="43.57176" lon="3.81198">
        <ele>22.75500032</ele>
        <time>2020-08-02T06:06:46.000Z</time>
      </trkpt>
      <trkpt lat="43.57174" lon="3.812">
        <ele>22.65500032</ele>
        <time>2020-08-02T06:06:47.000Z</time>
      </trkpt>
      <trkpt lat="43.57171" lon="3.81201">
        <ele>22.55500032</ele>
        <time>2020-08-02T06:06:48.000Z</time>
      </trkpt>
      <trkpt lat="43.57169" lon="3.81202">
        <ele>22.45500032</ele>
        <time>2020-08-02T06:06:49.000Z</time>
      </trkpt>
      <trkpt lat="43.57167" lon="3.81203">
        <ele>22.25500032</ele>
        <time>2020-08-02T06:06:51.000Z</time>
      </trkpt>
      <trkpt lat="43.57165" lon="3.81205">
        <ele>22.05500032</ele>
        <time>2020-08-02T06:06:53.000Z</time>
      </trkpt>
      <trkpt lat="43.57162" lon="3.81207">
        <ele>22</ele>
        <time>2020-08-02T06:06:55.000Z</time>
      </trkpt>
      <trkpt lat="43.57161" lon="3.81208">
        <ele>22</ele>
        <time>2020-08-02T06:06:56.000Z</time>
      </trkpt>
      <trkpt lat="43.57159" lon="3.8121">
        <ele>22</ele>
        <time>2020-08-02T06:06:57.000Z</time>
      </trkpt>
      <trkpt lat="43.57156" lon="3.81211">
        <ele>22</ele>
        <time>2020-08-02T06:06:58.000Z</time>
      </trkpt>
      <trkpt lat="43.57154" lon="3.81214">
        <ele>22</ele>
        <time>2020-08-02T06:06:59.000Z</time>
      </trkpt>
      <trkpt lat="43.57151" lon="3.81216">
        <ele>22</ele>
        <time>2020-08-02T06:07:00.000Z</time>
      </trkpt>
      <trkpt lat="43.57148" lon="3.81218">
        <ele>22</ele>
        <time>2020-08-02T06:07:01.000Z</time>
      </trkpt>
      <trkpt lat="43.57145" lon="3.81221">
        <ele>22</ele>
        <time>2020-08-02T06:07:02.000Z</time>
      </trkpt>
      <trkpt lat="43.57142" lon="3.81224">
        <ele>22</ele>
        <time>2020-08-02T06:07:03.000Z</time>
      </trkpt>
      <trkpt lat="43.5714" lon="3.81227">
        <ele>22.043774007782</ele>
        <time>2020-08-02T06:07:04.000Z</time>
      </trkpt>
      <trkpt lat="43.57137" lon="3.81231">
        <ele>22.141050272374</ele>
        <time>2020-08-02T06:07:05.000Z</time>
      </trkpt>
      <trkpt lat="43.57135" lon="3.81235">
        <ele>22.238326536965</ele>
        <time>2020-08-02T06:07:06.000Z</time>
      </trkpt>
      <trkpt lat="43.57132" lon="3.81238">
        <ele>22.335602801556</ele>
        <time>2020-08-02T06:07:07.000Z</time>
      </trkpt>
      <trkpt lat="43.5713" lon="3.81242">
        <ele>22.432879066148</ele>
        <time>2020-08-02T06:07:08.000Z</time>
      </trkpt>
      <trkpt lat="43.57128" lon="3.81245">
        <ele>22.530155330739</ele>
        <time>2020-08-02T06:07:09.000Z</time>
      </trkpt>
      <trkpt lat="43.57126" lon="3.81248">
        <ele>22.627431595331</ele>
        <time>2020-08-02T06:07:10.000Z</time>
      </trkpt>
      <trkpt lat="43.57125" lon="3.81252">
        <ele>22.724707859922</ele>
        <time>2020-08-02T06:07:11.000Z</time>
      </trkpt>
      <trkpt lat="43.57124" lon="3.81256">
        <ele>22.821984124514</ele>
        <time>2020-08-02T06:07:12.000Z</time>
      </trkpt>
      <trkpt lat="43.57122" lon="3.8126">
        <ele>22.919260389105</ele>
        <time>2020-08-02T06:07:13.000Z</time>
      </trkpt>
      <trkpt lat="43.57121" lon="3.81263">
        <ele>22.982528586238</ele>
        <time>2020-08-02T06:07:14.000Z</time>
      </trkpt>
      <trkpt lat="43.57119" lon="3.81267">
        <ele>22.879753629518</ele>
        <time>2020-08-02T06:07:15.000Z</time>
      </trkpt>
      <trkpt lat="43.57117" lon="3.8127">
        <ele>22.776978672799</ele>
        <time>2020-08-02T06:07:16.000Z</time>
      </trkpt>
      <trkpt lat="43.57116" lon="3.81272">
        <ele>22.674203716079</ele>
        <time>2020-08-02T06:07:17.000Z</time>
      </trkpt>
      <trkpt lat="43.57114" lon="3.81274">
        <ele>22.57142875936</ele>
        <time>2020-08-02T06:07:18.000Z</time>
      </trkpt>
      <trkpt lat="43.57112" lon="3.81276">
        <ele>22.46865380264</ele>
        <time>2020-08-02T06:07:19.000Z</time>
      </trkpt>
      <trkpt lat="43.5711" lon="3.81277">
        <ele>22.365878845921</ele>
        <time>2020-08-02T06:07:20.000Z</time>
      </trkpt>
      <trkpt lat="43.57107" lon="3.81277">
        <ele>22.263103889202</ele>
        <time>2020-08-02T06:07:21.000Z</time>
      </trkpt>
      <trkpt lat="43.57103" lon="3.81279">
        <ele>22.057553975763</ele>
        <time>2020-08-02T06:07:23.000Z</time>
      </trkpt>
      <trkpt lat="43.571" lon="3.81279">
        <ele>22.087912116016</ele>
        <time>2020-08-02T06:07:24.000Z</time>
      </trkpt>
      <trkpt lat="43.57098" lon="3.8128">
        <ele>22.287712379688</ele>
        <time>2020-08-02T06:07:25.000Z</time>
      </trkpt>
      <trkpt lat="43.57089" lon="3.8129">
        <ele>22.887113170706</ele>
        <time>2020-08-02T06:07:28.000Z</time>
      </trkpt>
      <trkpt lat="43.57088" lon="3.81296">
        <ele>23.086913434378</ele>
        <time>2020-08-02T06:07:29.000Z</time>
      </trkpt>
      <trkpt lat="43.57088" lon="3.81302">
        <ele>23.28671369805</ele>
        <time>2020-08-02T06:07:30.000Z</time>
      </trkpt>
      <trkpt lat="43.57087" lon="3.81307">
        <ele>23.486513961723</ele>
        <time>2020-08-02T06:07:31.000Z</time>
      </trkpt>
      <trkpt lat="43.57086" lon="3.81313">
        <ele>23.686314225395</ele>
        <time>2020-08-02T06:07:32.000Z</time>
      </trkpt>
      <trkpt lat="43.57085" lon="3.81318">
        <ele>23.886114489068</ele>
        <time>2020-08-02T06:07:33.000Z</time>
      </trkpt>
      <trkpt lat="43.57083" lon="3.81323">
        <ele>24.043086465355</ele>
        <time>2020-08-02T06:07:34.000Z</time>
      </trkpt>
      <trkpt lat="43.5708" lon="3.81328">
        <ele>24.1432868019</ele>
        <time>2020-08-02T06:07:35.000Z</time>
      </trkpt>
      <trkpt lat="43.57077" lon="3.81333">
        <ele>24.243487138445</ele>
        <time>2020-08-02T06:07:36.000Z</time>
      </trkpt>
      <trkpt lat="43.57075" lon="3.81337">
        <ele>24.34368747499</ele>
        <time>2020-08-02T06:07:37.000Z</time>
      </trkpt>
      <trkpt lat="43.57071" lon="3.81341">
        <ele>24.443887811535</ele>
        <time>2020-08-02T06:07:38.000Z</time>
      </trkpt>
      <trkpt lat="43.57068" lon="3.81344">
        <ele>24.54408814808</ele>
        <time>2020-08-02T06:07:39.000Z</time>
      </trkpt>
      <trkpt lat="43.57065" lon="3.81346">
        <ele>24.644288484625</ele>
        <time>2020-08-02T06:07:40.000Z</time>
      </trkpt>
      <trkpt lat="43.57062" lon="3.81346">
        <ele>24.74448882117</ele>
        <time>2020-08-02T06:07:41.000Z</time>
      </trkpt>
      <trkpt lat="43.57059" lon="3.81344">
        <ele>24.844689157714</ele>
        <time>2020-08-02T06:07:42.000Z</time>
      </trkpt>
      <trkpt lat="43.57058" lon="3.81341">
        <ele>24.944889494259</ele>
        <time>2020-08-02T06:07:43.000Z</time>
      </trkpt>
      <trkpt lat="43.57056" lon="3.81338">
        <ele>25</ele>
        <time>2020-08-02T06:07:44.000Z</time>
      </trkpt>
      <trkpt lat="43.57055" lon="3.81336">
        <ele>25</ele>
        <time>2020-08-02T06:07:45.000Z</time>
      </trkpt>
      <trkpt lat="43.57053" lon="3.81333">
        <ele>25</ele>
        <time>2020-08-02T06:07:46.000Z</time>
      </trkpt>
      <trkpt lat="43.57051" lon="3.8133">
        <ele>25</ele>
        <time>2020-08-02T06:07:47.000Z</time>
      </trkpt>
      <trkpt lat="43.5705" lon="3.81327">
        <ele>25</ele>
        <time>2020-08-02T06:07:48.000Z</time>
      </trkpt>
      <trkpt lat="43.57048" lon="3.81324">
        <ele>25</ele>
        <time>2020-08-02T06:07:49.000Z</time>
      </trkpt>
      <trkpt lat="43.57046" lon="3.81321">
        <ele>25</ele>
        <time>2020-08-02T06:07:50.000Z</time>
      </trkpt>
      <trkpt lat="43.57045" lon="3.81318">
        <ele>25</ele>
        <time>2020-08-02T06:07:51.000Z</time>
      </trkpt>
      <trkpt lat="43.57043" lon="3.81314">
        <ele>25</ele>
        <time>2020-08-02T06:07:52.000Z</time>
      </trkpt>
      <trkpt lat="43.57042" lon="3.81311">
        <ele>25</ele>
        <time>2020-08-02T06:07:53.000Z</time>
      </trkpt>
      <trkpt lat="43.57041" lon="3.81309">
        <ele>25</ele>
        <time>2020-08-02T06:07:54.000Z</time>
      </trkpt>
      <trkpt lat="43.5704" lon="3.81307">
        <ele>25</ele>
        <time>2020-08-02T06:07:55.000Z</time>
      </trkpt>
      <trkpt lat="43.57038" lon="3.81304">
        <ele>25</ele>
        <time>2020-08-02T06:07:56.000Z</time>
      </trkpt>
      <trkpt lat="43.57037" lon="3.81302">
        <ele>25</ele>
        <time>2020-08-02T06:07:57.000Z</time>
      </trkpt>
      <trkpt lat="43.57035" lon="3.81298">
        <ele>25</ele>
        <time>2020-08-02T06:07:59.000Z</time>
      </trkpt>
      <trkpt lat="43.57034" lon="3.81296">
        <ele>25</ele>
        <time>2020-08-02T06:08:01.000Z</time>
      </trkpt>
      <trkpt lat="43.57034" lon="3.81296">
        <ele>25.001647446458</ele>
        <time>2020-08-02T06:08:05.000Z</time>
      </trkpt>
      <trkpt lat="43.57028" lon="3.81298">
        <ele>26.053839105455</ele>
        <time>2020-08-02T06:09:18.000Z</time>
      </trkpt>
      <trkpt lat="43.57026" lon="3.81297">
        <ele>26.253240836454</ele>
        <time>2020-08-02T06:09:19.000Z</time>
      </trkpt>
      <trkpt lat="43.57023" lon="3.81296">
        <ele>26.652044298451</ele>
        <time>2020-08-02T06:09:21.000Z</time>
      </trkpt>
      <trkpt lat="43.5702" lon="3.81294">
        <ele>27.050847760447</ele>
        <time>2020-08-02T06:09:23.000Z</time>
      </trkpt>
      <trkpt lat="43.57017" lon="3.81292">
        <ele>27.449651222444</ele>
        <time>2020-08-02T06:09:25.000Z</time>
      </trkpt>
      <trkpt lat="43.57015" lon="3.81291">
        <ele>27.649052953443</ele>
        <time>2020-08-02T06:09:26.000Z</time>
      </trkpt>
      <trkpt lat="43.57012" lon="3.81289">
        <ele>28.04752478259</ele>
        <time>2020-08-02T06:09:28.000Z</time>
      </trkpt>
      <trkpt lat="43.5701" lon="3.81288">
        <ele>28.245544710048</ele>
        <time>2020-08-02T06:09:29.000Z</time>
      </trkpt>
      <trkpt lat="43.57008" lon="3.81287">
        <ele>28.443564637506</ele>
        <time>2020-08-02T06:09:30.000Z</time>
      </trkpt>
      <trkpt lat="43.57007" lon="3.81285">
        <ele>28.641584564965</ele>
        <time>2020-08-02T06:09:31.000Z</time>
      </trkpt>
      <trkpt lat="43.57004" lon="3.81282">
        <ele>29.037624419881</ele>
        <time>2020-08-02T06:09:33.000Z</time>
      </trkpt>
      <trkpt lat="43.57001" lon="3.8128">
        <ele>29.433664274797</ele>
        <time>2020-08-02T06:09:35.000Z</time>
      </trkpt>
      <trkpt lat="43.56998" lon="3.81278">
        <ele>29.829704129714</ele>
        <time>2020-08-02T06:09:37.000Z</time>
      </trkpt>
      <trkpt lat="43.56995" lon="3.81276">
        <ele>30.117647602743</ele>
        <time>2020-08-02T06:09:39.000Z</time>
      </trkpt>
      <trkpt lat="43.56992" lon="3.81274">
        <ele>30.324045747075</ele>
        <time>2020-08-02T06:09:41.000Z</time>
      </trkpt>
      <trkpt lat="43.56989" lon="3.81272">
        <ele>30.530443891408</ele>
        <time>2020-08-02T06:09:43.000Z</time>
      </trkpt>
      <trkpt lat="43.56986" lon="3.8127">
        <ele>30.73684203574</ele>
        <time>2020-08-02T06:09:45.000Z</time>
      </trkpt>
      <trkpt lat="43.56983" lon="3.81268">
        <ele>30.943240180072</ele>
        <time>2020-08-02T06:09:47.000Z</time>
      </trkpt>
      <trkpt lat="43.5698" lon="3.81266">
        <ele>31.28999936</ele>
        <time>2020-08-02T06:09:49.000Z</time>
      </trkpt>
      <trkpt lat="43.56977" lon="3.81263">
        <ele>31.68999936</ele>
        <time>2020-08-02T06:09:51.000Z</time>
      </trkpt>
      <trkpt lat="43.56975" lon="3.81261">
        <ele>32.08999936</ele>
        <time>2020-08-02T06:09:53.000Z</time>
      </trkpt>
      <trkpt lat="43.56972" lon="3.81258">
        <ele>32.48999936</ele>
        <time>2020-08-02T06:09:55.000Z</time>
      </trkpt>
      <trkpt lat="43.5697" lon="3.81255">
        <ele>32.88999936</ele>
        <time>2020-08-02T06:09:57.000Z</time>
      </trkpt>
      <trkpt lat="43.56967" lon="3.81252">
        <ele>33.28999936</ele>
        <time>2020-08-02T06:09:59.000Z</time>
      </trkpt>
      <trkpt lat="43.56965" lon="3.81249">
        <ele>33.68999936</ele>
        <time>2020-08-02T06:10:01.000Z</time>
      </trkpt>
      <trkpt lat="43.56962" lon="3.81247">
        <ele>34.08999936</ele>
        <time>2020-08-02T06:10:03.000Z</time>
      </trkpt>
      <trkpt lat="43.56959" lon="3.81243">
        <ele>34.48999936</ele>
        <time>2020-08-02T06:10:05.000Z</time>
      </trkpt>
      <trkpt lat="43.56958" lon="3.81242">
        <ele>34.68999936</ele>
        <time>2020-08-02T06:10:06.000Z</time>
      </trkpt>
      <trkpt lat="43.56956" lon="3.81241">
        <ele>34.88999936</ele>
        <time>2020-08-02T06:10:07.000Z</time>
      </trkpt>
      <trkpt lat="43.56955" lon="3.81239">
        <ele>35</ele>
        <time>2020-08-02T06:10:08.000Z</time>
      </trkpt>
      <trkpt lat="43.56953" lon="3.81238">
        <ele>35</ele>
        <time>2020-08-02T06:10:09.000Z</time>
      </trkpt>
      <trkpt lat="43.56951" lon="3.81237">
        <ele>35</ele>
        <time>2020-08-02T06:10:10.000Z</time>
      </trkpt>
      <trkpt lat="43.5695" lon="3.81235">
        <ele>35</ele>
        <time>2020-08-02T06:10:11.000Z</time>
      </trkpt>
      <trkpt lat="43.56949" lon="3.81235">
        <ele>35</ele>
        <time>2020-08-02T06:10:17.000Z</time>
      </trkpt>
      <trkpt lat="43.56952" lon="3.81225">
        <ele>34.945009567407</ele>
        <time>2020-08-02T06:10:24.000Z</time>
      </trkpt>
      <trkpt lat="43.56952" lon="3.81222">
        <ele>34.741343712363</ele>
        <time>2020-08-02T06:10:25.000Z</time>
      </trkpt>
      <trkpt lat="43.56951" lon="3.81219">
        <ele>34.537677857318</ele>
        <time>2020-08-02T06:10:26.000Z</time>
      </trkpt>
      <trkpt lat="43.5695" lon="3.81217">
        <ele>34.334012002273</ele>
        <time>2020-08-02T06:10:27.000Z</time>
      </trkpt>
      <trkpt lat="43.56948" lon="3.81214">
        <ele>34.130346147229</ele>
        <time>2020-08-02T06:10:28.000Z</time>
      </trkpt>
      <trkpt lat="43.56947" lon="3.81212">
        <ele>33.926680292184</ele>
        <time>2020-08-02T06:10:29.000Z</time>
      </trkpt>
      <trkpt lat="43.56946" lon="3.81209">
        <ele>33.723014437139</ele>
        <time>2020-08-02T06:10:30.000Z</time>
      </trkpt>
      <trkpt lat="43.56945" lon="3.81207">
        <ele>33.519348582095</ele>
        <time>2020-08-02T06:10:31.000Z</time>
      </trkpt>
      <trkpt lat="43.56944" lon="3.81205">
        <ele>33.31568272705</ele>
        <time>2020-08-02T06:10:32.000Z</time>
      </trkpt>
      <trkpt lat="43.56943" lon="3.81203">
        <ele>33.112016872005</ele>
        <time>2020-08-02T06:10:33.000Z</time>
      </trkpt>
      <trkpt lat="43.56941" lon="3.81199">
        <ele>32.858949727627</ele>
        <time>2020-08-02T06:10:35.000Z</time>
      </trkpt>
      <trkpt lat="43.56938" lon="3.81197">
        <ele>32.664397198444</ele>
        <time>2020-08-02T06:10:37.000Z</time>
      </trkpt>
      <trkpt lat="43.56936" lon="3.81196">
        <ele>32.372568404669</ele>
        <time>2020-08-02T06:10:40.000Z</time>
      </trkpt>
      <trkpt lat="43.56932" lon="3.81195">
        <ele>32.178015875486</ele>
        <time>2020-08-02T06:10:42.000Z</time>
      </trkpt>
      <trkpt lat="43.56928" lon="3.81194">
        <ele>32.080739610895</ele>
        <time>2020-08-02T06:10:43.000Z</time>
      </trkpt>
      <trkpt lat="43.56923" lon="3.81191">
        <ele>31.965021234568</ele>
        <time>2020-08-02T06:10:44.000Z</time>
      </trkpt>
      <trkpt lat="43.56918" lon="3.81189">
        <ele>31.759259917695</ele>
        <time>2020-08-02T06:10:45.000Z</time>
      </trkpt>
      <trkpt lat="43.56915" lon="3.81187">
        <ele>31.553498600823</ele>
        <time>2020-08-02T06:10:46.000Z</time>
      </trkpt>
      <trkpt lat="43.56912" lon="3.81185">
        <ele>31.347737283951</ele>
        <time>2020-08-02T06:10:47.000Z</time>
      </trkpt>
      <trkpt lat="43.56909" lon="3.81183">
        <ele>31.141975967078</ele>
        <time>2020-08-02T06:10:48.000Z</time>
      </trkpt>
      <trkpt lat="43.56907" lon="3.81182">
        <ele>30.936214650206</ele>
        <time>2020-08-02T06:10:49.000Z</time>
      </trkpt>
      <trkpt lat="43.56905" lon="3.81181">
        <ele>30.730453333333</ele>
        <time>2020-08-02T06:10:50.000Z</time>
      </trkpt>
      <trkpt lat="43.56903" lon="3.8118">
        <ele>30.524692016461</ele>
        <time>2020-08-02T06:10:51.000Z</time>
      </trkpt>
      <trkpt lat="43.56901" lon="3.8118">
        <ele>30.318930699588</ele>
        <time>2020-08-02T06:10:52.000Z</time>
      </trkpt>
      <trkpt lat="43.56899" lon="3.81179">
        <ele>30.113169382716</ele>
        <time>2020-08-02T06:10:53.000Z</time>
      </trkpt>
      <trkpt lat="43.56897" lon="3.81178">
        <ele>30</ele>
        <time>2020-08-02T06:10:54.000Z</time>
      </trkpt>
      <trkpt lat="43.56895" lon="3.81177">
        <ele>30</ele>
        <time>2020-08-02T06:10:55.000Z</time>
      </trkpt>
      <trkpt lat="43.56892" lon="3.81175">
        <ele>30</ele>
        <time>2020-08-02T06:10:56.000Z</time>
      </trkpt>
      <trkpt lat="43.5689" lon="3.81173">
        <ele>30</ele>
        <time>2020-08-02T06:10:57.000Z</time>
      </trkpt>
      <trkpt lat="43.56887" lon="3.81171">
        <ele>30</ele>
        <time>2020-08-02T06:10:58.000Z</time>
      </trkpt>
      <trkpt lat="43.56885" lon="3.81169">
        <ele>30</ele>
        <time>2020-08-02T06:10:59.000Z</time>
      </trkpt>
      <trkpt lat="43.56884" lon="3.81167">
        <ele>30</ele>
        <time>2020-08-02T06:11:00.000Z</time>
      </trkpt>
      <trkpt lat="43.56882" lon="3.81166">
        <ele>30</ele>
        <time>2020-08-02T06:11:01.000Z</time>
      </trkpt>
      <trkpt lat="43.56881" lon="3.81164">
        <ele>30</ele>
        <time>2020-08-02T06:11:02.000Z</time>
      </trkpt>
      <trkpt lat="43.5688" lon="3.81162">
        <ele>30</ele>
        <time>2020-08-02T06:11:03.000Z</time>
      </trkpt>
      <trkpt lat="43.56879" lon="3.8116">
        <ele>30.04499968</ele>
        <time>2020-08-02T06:11:04.000Z</time>
      </trkpt>
      <trkpt lat="43.56876" lon="3.81156">
        <ele>30.24499968</ele>
        <time>2020-08-02T06:11:06.000Z</time>
      </trkpt>
      <trkpt lat="43.56874" lon="3.81153">
        <ele>30.44499968</ele>
        <time>2020-08-02T06:11:08.000Z</time>
      </trkpt>
      <trkpt lat="43.56872" lon="3.8115">
        <ele>30.64499968</ele>
        <time>2020-08-02T06:11:10.000Z</time>
      </trkpt>
      <trkpt lat="43.56869" lon="3.81147">
        <ele>30.84499968</ele>
        <time>2020-08-02T06:11:12.000Z</time>
      </trkpt>
      <trkpt lat="43.56867" lon="3.81146">
        <ele>30.94499968</ele>
        <time>2020-08-02T06:11:13.000Z</time>
      </trkpt>
      <trkpt lat="43.56866" lon="3.81145">
        <ele>31.08999936</ele>
        <time>2020-08-02T06:11:14.000Z</time>
      </trkpt>
      <trkpt lat="43.56864" lon="3.81145">
        <ele>31.28999936</ele>
        <time>2020-08-02T06:11:15.000Z</time>
      </trkpt>
      <trkpt lat="43.56861" lon="3.81143">
        <ele>31.68999936</ele>
        <time>2020-08-02T06:11:17.000Z</time>
      </trkpt>
      <trkpt lat="43.56858" lon="3.81142">
        <ele>32.08999936</ele>
        <time>2020-08-02T06:11:19.000Z</time>
      </trkpt>
      <trkpt lat="43.56855" lon="3.81142">
        <ele>32.48999936</ele>
        <time>2020-08-02T06:11:21.000Z</time>
      </trkpt>
      <trkpt lat="43.56852" lon="3.81141">
        <ele>32.88999936</ele>
        <time>2020-08-02T06:11:23.000Z</time>
      </trkpt>
      <trkpt lat="43.56849" lon="3.81139">
        <ele>33.28999936</ele>
        <time>2020-08-02T06:11:25.000Z</time>
      </trkpt>
      <trkpt lat="43.56846" lon="3.81137">
        <ele>33.68999936</ele>
        <time>2020-08-02T06:11:27.000Z</time>
      </trkpt>
      <trkpt lat="43.56843" lon="3.81135">
        <ele>34.08999936</ele>
        <time>2020-08-02T06:11:29.000Z</time>
      </trkpt>
      <trkpt lat="43.56841" lon="3.81134">
        <ele>34.48999936</ele>
        <time>2020-08-02T06:11:31.000Z</time>
      </trkpt>
      <trkpt lat="43.56838" lon="3.81132">
        <ele>34.88999936</ele>
        <time>2020-08-02T06:11:33.000Z</time>
      </trkpt>
      <trkpt lat="43.56836" lon="3.8113">
        <ele>35.28999936</ele>
        <time>2020-08-02T06:11:35.000Z</time>
      </trkpt>
      <trkpt lat="43.56833" lon="3.81128">
        <ele>35.68999936</ele>
        <time>2020-08-02T06:11:37.000Z</time>
      </trkpt>
      <trkpt lat="43.5683" lon="3.81126">
        <ele>36.08999936</ele>
        <time>2020-08-02T06:11:39.000Z</time>
      </trkpt>
      <trkpt lat="43.56828" lon="3.81123">
        <ele>36.48999936</ele>
        <time>2020-08-02T06:11:41.000Z</time>
      </trkpt>
      <trkpt lat="43.56826" lon="3.8112">
        <ele>36.88999936</ele>
        <time>2020-08-02T06:11:43.000Z</time>
      </trkpt>
      <trkpt lat="43.56823" lon="3.81118">
        <ele>37.14499968</ele>
        <time>2020-08-02T06:11:45.000Z</time>
      </trkpt>
      <trkpt lat="43.56821" lon="3.81115">
        <ele>37.34499968</ele>
        <time>2020-08-02T06:11:47.000Z</time>
      </trkpt>
      <trkpt lat="43.56818" lon="3.81112">
        <ele>37.54499968</ele>
        <time>2020-08-02T06:11:49.000Z</time>
      </trkpt>
      <trkpt lat="43.56817" lon="3.8111">
        <ele>37.64499968</ele>
        <time>2020-08-02T06:11:50.000Z</time>
      </trkpt>
      <trkpt lat="43.56815" lon="3.81108">
        <ele>37.74499968</ele>
        <time>2020-08-02T06:11:51.000Z</time>
      </trkpt>
      <trkpt lat="43.56814" lon="3.81106">
        <ele>37.84499968</ele>
        <time>2020-08-02T06:11:52.000Z</time>
      </trkpt>
      <trkpt lat="43.56813" lon="3.81105">
        <ele>37.94499968</ele>
        <time>2020-08-02T06:11:53.000Z</time>
      </trkpt>
      <trkpt lat="43.56811" lon="3.81103">
        <ele>38</ele>
        <time>2020-08-02T06:11:54.000Z</time>
      </trkpt>
      <trkpt lat="43.5681" lon="3.81101">
        <ele>38</ele>
        <time>2020-08-02T06:11:55.000Z</time>
      </trkpt>
      <trkpt lat="43.56809" lon="3.81099">
        <ele>38</ele>
        <time>2020-08-02T06:11:56.000Z</time>
      </trkpt>
      <trkpt lat="43.56807" lon="3.81097">
        <ele>38</ele>
        <time>2020-08-02T06:11:57.000Z</time>
      </trkpt>
      <trkpt lat="43.56805" lon="3.81095">
        <ele>38</ele>
        <time>2020-08-02T06:11:58.000Z</time>
      </trkpt>
      <trkpt lat="43.56804" lon="3.81093">
        <ele>38</ele>
        <time>2020-08-02T06:11:59.000Z</time>
      </trkpt>
      <trkpt lat="43.56802" lon="3.81091">
        <ele>38</ele>
        <time>2020-08-02T06:12:00.000Z</time>
      </trkpt>
      <trkpt lat="43.568" lon="3.81089">
        <ele>38</ele>
        <time>2020-08-02T06:12:01.000Z</time>
      </trkpt>
      <trkpt lat="43.56798" lon="3.81086">
        <ele>38</ele>
        <time>2020-08-02T06:12:02.000Z</time>
      </trkpt>
      <trkpt lat="43.56797" lon="3.81084">
        <ele>38</ele>
        <time>2020-08-02T06:12:03.000Z</time>
      </trkpt>
      <trkpt lat="43.56795" lon="3.81081">
        <ele>38</ele>
        <time>2020-08-02T06:12:04.000Z</time>
      </trkpt>
      <trkpt lat="43.56793" lon="3.81078">
        <ele>38</ele>
        <time>2020-08-02T06:12:05.000Z</time>
      </trkpt>
      <trkpt lat="43.56791" lon="3.81076">
        <ele>38</ele>
        <time>2020-08-02T06:12:06.000Z</time>
      </trkpt>
      <trkpt lat="43.56789" lon="3.81073">
        <ele>38</ele>
        <time>2020-08-02T06:12:07.000Z</time>
      </trkpt>
      <trkpt lat="43.56788" lon="3.81071">
        <ele>38</ele>
        <time>2020-08-02T06:12:08.000Z</time>
      </trkpt>
      <trkpt lat="43.56786" lon="3.81068">
        <ele>38</ele>
        <time>2020-08-02T06:12:09.000Z</time>
      </trkpt>
      <trkpt lat="43.56785" lon="3.81066">
        <ele>38</ele>
        <time>2020-08-02T06:12:10.000Z</time>
      </trkpt>
      <trkpt lat="43.56784" lon="3.81064">
        <ele>38</ele>
        <time>2020-08-02T06:12:11.000Z</time>
      </trkpt>
      <trkpt lat="43.56782" lon="3.81062">
        <ele>38</ele>
        <time>2020-08-02T06:12:16.000Z</time>
      </trkpt>
      <trkpt lat="43.5678" lon="3.81058">
        <ele>38</ele>
        <time>2020-08-02T06:12:18.000Z</time>
      </trkpt>
      <trkpt lat="43.56779" lon="3.81057">
        <ele>38</ele>
        <time>2020-08-02T06:12:19.000Z</time>
      </trkpt>
      <trkpt lat="43.56777" lon="3.81054">
        <ele>38</ele>
        <time>2020-08-02T06:12:20.000Z</time>
      </trkpt>
      <trkpt lat="43.56776" lon="3.81052">
        <ele>38</ele>
        <time>2020-08-02T06:12:21.000Z</time>
      </trkpt>
      <trkpt lat="43.56775" lon="3.8105">
        <ele>38</ele>
        <time>2020-08-02T06:12:22.000Z</time>
      </trkpt>
      <trkpt lat="43.56775" lon="3.81047">
        <ele>38</ele>
        <time>2020-08-02T06:12:23.000Z</time>
      </trkpt>
      <trkpt lat="43.56774" lon="3.81043">
        <ele>37.91000064</ele>
        <time>2020-08-02T06:12:24.000Z</time>
      </trkpt>
      <trkpt lat="43.56773" lon="3.8104">
        <ele>37.71000064</ele>
        <time>2020-08-02T06:12:25.000Z</time>
      </trkpt>
      <trkpt lat="43.56772" lon="3.81037">
        <ele>37.51000064</ele>
        <time>2020-08-02T06:12:26.000Z</time>
      </trkpt>
      <trkpt lat="43.56771" lon="3.81033">
        <ele>37.31000064</ele>
        <time>2020-08-02T06:12:27.000Z</time>
      </trkpt>
      <trkpt lat="43.5677" lon="3.81029">
        <ele>37.11000064</ele>
        <time>2020-08-02T06:12:28.000Z</time>
      </trkpt>
      <trkpt lat="43.56769" lon="3.81025">
        <ele>36.91000064</ele>
        <time>2020-08-02T06:12:29.000Z</time>
      </trkpt>
      <trkpt lat="43.56768" lon="3.8102">
        <ele>36.71000064</ele>
        <time>2020-08-02T06:12:30.000Z</time>
      </trkpt>
      <trkpt lat="43.56767" lon="3.81014">
        <ele>36.51000064</ele>
        <time>2020-08-02T06:12:31.000Z</time>
      </trkpt>
      <trkpt lat="43.56766" lon="3.81008">
        <ele>36.31000064</ele>
        <time>2020-08-02T06:12:32.000Z</time>
      </trkpt>
      <trkpt lat="43.56764" lon="3.81003">
        <ele>36.11000064</ele>
        <time>2020-08-02T06:12:33.000Z</time>
      </trkpt>
      <trkpt lat="43.56762" lon="3.81">
        <ele>36</ele>
        <time>2020-08-02T06:12:34.000Z</time>
      </trkpt>
      <trkpt lat="43.56759" lon="3.80997">
        <ele>36</ele>
        <time>2020-08-02T06:12:35.000Z</time>
      </trkpt>
      <trkpt lat="43.56756" lon="3.80995">
        <ele>36</ele>
        <time>2020-08-02T06:12:36.000Z</time>
      </trkpt>
      <trkpt lat="43.56753" lon="3.80993">
        <ele>36</ele>
        <time>2020-08-02T06:12:37.000Z</time>
      </trkpt>
      <trkpt lat="43.5675" lon="3.80991">
        <ele>36</ele>
        <time>2020-08-02T06:12:38.000Z</time>
      </trkpt>
      <trkpt lat="43.56748" lon="3.80988">
        <ele>36</ele>
        <time>2020-08-02T06:12:39.000Z</time>
      </trkpt>
      <trkpt lat="43.56746" lon="3.80986">
        <ele>36</ele>
        <time>2020-08-02T06:12:40.000Z</time>
      </trkpt>
      <trkpt lat="43.56744" lon="3.80983">
        <ele>36</ele>
        <time>2020-08-02T06:12:41.000Z</time>
      </trkpt>
      <trkpt lat="43.56742" lon="3.80981">
        <ele>36</ele>
        <time>2020-08-02T06:12:42.000Z</time>
      </trkpt>
      <trkpt lat="43.56741" lon="3.80978">
        <ele>36</ele>
        <time>2020-08-02T06:12:43.000Z</time>
      </trkpt>
      <trkpt lat="43.56739" lon="3.80975">
        <ele>35.95500032</ele>
        <time>2020-08-02T06:12:44.000Z</time>
      </trkpt>
      <trkpt lat="43.56737" lon="3.80972">
        <ele>35.85500032</ele>
        <time>2020-08-02T06:12:45.000Z</time>
      </trkpt>
      <trkpt lat="43.56735" lon="3.8097">
        <ele>35.75500032</ele>
        <time>2020-08-02T06:12:46.000Z</time>
      </trkpt>
      <trkpt lat="43.56733" lon="3.80969">
        <ele>35.65500032</ele>
        <time>2020-08-02T06:12:47.000Z</time>
      </trkpt>
      <trkpt lat="43.56731" lon="3.80968">
        <ele>35.55500032</ele>
        <time>2020-08-02T06:12:48.000Z</time>
      </trkpt>
      <trkpt lat="43.56729" lon="3.80968">
        <ele>35.45500032</ele>
        <time>2020-08-02T06:12:49.000Z</time>
      </trkpt>
      <trkpt lat="43.56727" lon="3.80967">
        <ele>35.35500032</ele>
        <time>2020-08-02T06:12:50.000Z</time>
      </trkpt>
      <trkpt lat="43.56724" lon="3.80967">
        <ele>35.25500032</ele>
        <time>2020-08-02T06:12:51.000Z</time>
      </trkpt>
      <trkpt lat="43.56722" lon="3.80966">
        <ele>35.15500032</ele>
        <time>2020-08-02T06:12:52.000Z</time>
      </trkpt>
      <trkpt lat="43.5672" lon="3.80967">
        <ele>35.05500032</ele>
        <time>2020-08-02T06:12:53.000Z</time>
      </trkpt>
      <trkpt lat="43.56717" lon="3.80968">
        <ele>35</ele>
        <time>2020-08-02T06:12:54.000Z</time>
      </trkpt>
      <trkpt lat="43.56714" lon="3.8097">
        <ele>35</ele>
        <time>2020-08-02T06:12:55.000Z</time>
      </trkpt>
      <trkpt lat="43.56712" lon="3.80971">
        <ele>35</ele>
        <time>2020-08-02T06:12:56.000Z</time>
      </trkpt>
      <trkpt lat="43.56709" lon="3.80972">
        <ele>35</ele>
        <time>2020-08-02T06:12:57.000Z</time>
      </trkpt>
      <trkpt lat="43.56707" lon="3.80974">
        <ele>35</ele>
        <time>2020-08-02T06:12:58.000Z</time>
      </trkpt>
      <trkpt lat="43.56705" lon="3.80976">
        <ele>35</ele>
        <time>2020-08-02T06:12:59.000Z</time>
      </trkpt>
      <trkpt lat="43.56703" lon="3.80977">
        <ele>35</ele>
        <time>2020-08-02T06:13:00.000Z</time>
      </trkpt>
      <trkpt lat="43.56701" lon="3.80978">
        <ele>35</ele>
        <time>2020-08-02T06:13:01.000Z</time>
      </trkpt>
      <trkpt lat="43.56698" lon="3.80981">
        <ele>35</ele>
        <time>2020-08-02T06:13:03.000Z</time>
      </trkpt>
      <trkpt lat="43.56696" lon="3.80982">
        <ele>35</ele>
        <time>2020-08-02T06:13:04.000Z</time>
      </trkpt>
      <trkpt lat="43.56696" lon="3.80982">
        <ele>35.0006808014</ele>
        <time>2020-08-02T06:13:09.000Z</time>
      </trkpt>
      <trkpt lat="43.56698" lon="3.80992">
        <ele>36</ele>
        <time>2020-08-02T06:20:00.000Z</time>
      </trkpt>
      <trkpt lat="43.56698" lon="3.80997">
        <ele>36.202647851635</ele>
        <time>2020-08-02T06:20:02.000Z</time>
      </trkpt>
      <trkpt lat="43.56697" lon="3.80999">
        <ele>36.304480779157</ele>
        <time>2020-08-02T06:20:03.000Z</time>
      </trkpt>
      <trkpt lat="43.56697" lon="3.81004">
        <ele>36.508146634202</ele>
        <time>2020-08-02T06:20:05.000Z</time>
      </trkpt>
      <trkpt lat="43.56696" lon="3.81008">
        <ele>36.711812489246</ele>
        <time>2020-08-02T06:20:07.000Z</time>
      </trkpt>
      <trkpt lat="43.56695" lon="3.81013">
        <ele>36.915478344291</ele>
        <time>2020-08-02T06:20:09.000Z</time>
      </trkpt>
      <trkpt lat="43.56694" lon="3.81015">
        <ele>37.033863904382</ele>
        <time>2020-08-02T06:20:10.000Z</time>
      </trkpt>
      <trkpt lat="43.56694" lon="3.81018">
        <ele>37.233067091634</ele>
        <time>2020-08-02T06:20:11.000Z</time>
      </trkpt>
      <trkpt lat="43.56693" lon="3.8102">
        <ele>37.432270278885</ele>
        <time>2020-08-02T06:20:12.000Z</time>
      </trkpt>
      <trkpt lat="43.56692" lon="3.81023">
        <ele>37.631473466136</ele>
        <time>2020-08-02T06:20:13.000Z</time>
      </trkpt>
      <trkpt lat="43.56692" lon="3.81025">
        <ele>37.830676653386</ele>
        <time>2020-08-02T06:20:14.000Z</time>
      </trkpt>
      <trkpt lat="43.56691" lon="3.81027">
        <ele>38.029879840637</ele>
        <time>2020-08-02T06:20:15.000Z</time>
      </trkpt>
      <trkpt lat="43.5669" lon="3.81032">
        <ele>38.428286215139</ele>
        <time>2020-08-02T06:20:17.000Z</time>
      </trkpt>
      <trkpt lat="43.56689" lon="3.81037">
        <ele>38.826692589641</ele>
        <time>2020-08-02T06:20:19.000Z</time>
      </trkpt>
      <trkpt lat="43.56689" lon="3.81039">
        <ele>39.013429421488</ele>
        <time>2020-08-02T06:20:20.000Z</time>
      </trkpt>
      <trkpt lat="43.56688" lon="3.81042">
        <ele>39.116735206612</ele>
        <time>2020-08-02T06:20:21.000Z</time>
      </trkpt>
      <trkpt lat="43.56688" lon="3.81046">
        <ele>39.32334677686</ele>
        <time>2020-08-02T06:20:23.000Z</time>
      </trkpt>
      <trkpt lat="43.56688" lon="3.81051">
        <ele>39.529958347107</ele>
        <time>2020-08-02T06:20:25.000Z</time>
      </trkpt>
      <trkpt lat="43.56687" lon="3.81055">
        <ele>39.736569917355</ele>
        <time>2020-08-02T06:20:27.000Z</time>
      </trkpt>
      <trkpt lat="43.56687" lon="3.81059">
        <ele>39.943181487603</ele>
        <time>2020-08-02T06:20:29.000Z</time>
      </trkpt>
      <trkpt lat="43.56687" lon="3.81064">
        <ele>40.28999936</ele>
        <time>2020-08-02T06:20:31.000Z</time>
      </trkpt>
      <trkpt lat="43.56686" lon="3.81066">
        <ele>40.48999936</ele>
        <time>2020-08-02T06:20:32.000Z</time>
      </trkpt>
      <trkpt lat="43.56685" lon="3.81071">
        <ele>40.88999936</ele>
        <time>2020-08-02T06:20:34.000Z</time>
      </trkpt>
      <trkpt lat="43.56684" lon="3.81075">
        <ele>41.28999936</ele>
        <time>2020-08-02T06:20:36.000Z</time>
      </trkpt>
      <trkpt lat="43.56682" lon="3.81079">
        <ele>41.68999936</ele>
        <time>2020-08-02T06:20:38.000Z</time>
      </trkpt>
      <trkpt lat="43.5668" lon="3.81082">
        <ele>42.089909479292</ele>
        <time>2020-08-02T06:20:40.000Z</time>
      </trkpt>
      <trkpt lat="43.56677" lon="3.81086">
        <ele>42.489510006637</ele>
        <time>2020-08-02T06:20:42.000Z</time>
      </trkpt>
      <trkpt lat="43.56675" lon="3.81089">
        <ele>42.889110533981</ele>
        <time>2020-08-02T06:20:44.000Z</time>
      </trkpt>
      <trkpt lat="43.56672" lon="3.81092">
        <ele>43.288711061326</ele>
        <time>2020-08-02T06:20:46.000Z</time>
      </trkpt>
      <trkpt lat="43.56671" lon="3.81094">
        <ele>43.488511324999</ele>
        <time>2020-08-02T06:20:47.000Z</time>
      </trkpt>
      <trkpt lat="43.5667" lon="3.81096">
        <ele>43.688311588671</ele>
        <time>2020-08-02T06:20:48.000Z</time>
      </trkpt>
      <trkpt lat="43.56668" lon="3.81098">
        <ele>43.888111852343</ele>
        <time>2020-08-02T06:20:49.000Z</time>
      </trkpt>
      <trkpt lat="43.56667" lon="3.811">
        <ele>44.088088059872</ele>
        <time>2020-08-02T06:20:50.000Z</time>
      </trkpt>
      <trkpt lat="43.56665" lon="3.81102">
        <ele>44.288288195944</ele>
        <time>2020-08-02T06:20:51.000Z</time>
      </trkpt>
      <trkpt lat="43.56663" lon="3.81105">
        <ele>44.688688468088</ele>
        <time>2020-08-02T06:20:53.000Z</time>
      </trkpt>
      <trkpt lat="43.5666" lon="3.81108">
        <ele>45.089088740232</ele>
        <time>2020-08-02T06:20:55.000Z</time>
      </trkpt>
      <trkpt lat="43.56658" lon="3.81111">
        <ele>45.489489012376</ele>
        <time>2020-08-02T06:20:57.000Z</time>
      </trkpt>
      <trkpt lat="43.56655" lon="3.81114">
        <ele>45.88988928452</ele>
        <time>2020-08-02T06:20:59.000Z</time>
      </trkpt>
      <trkpt lat="43.56654" lon="3.81115">
        <ele>46.04499968</ele>
        <time>2020-08-02T06:21:00.000Z</time>
      </trkpt>
      <trkpt lat="43.56652" lon="3.81117">
        <ele>46.14499968</ele>
        <time>2020-08-02T06:21:01.000Z</time>
      </trkpt>
      <trkpt lat="43.56649" lon="3.81119">
        <ele>46.34499968</ele>
        <time>2020-08-02T06:21:03.000Z</time>
      </trkpt>
      <trkpt lat="43.56647" lon="3.81122">
        <ele>46.54499968</ele>
        <time>2020-08-02T06:21:05.000Z</time>
      </trkpt>
      <trkpt lat="43.56644" lon="3.81125">
        <ele>46.74499968</ele>
        <time>2020-08-02T06:21:07.000Z</time>
      </trkpt>
      <trkpt lat="43.56643" lon="3.81127">
        <ele>46.84499968</ele>
        <time>2020-08-02T06:21:08.000Z</time>
      </trkpt>
      <trkpt lat="43.56642" lon="3.81129">
        <ele>46.94499968</ele>
        <time>2020-08-02T06:21:09.000Z</time>
      </trkpt>
      <trkpt lat="43.5664" lon="3.81131">
        <ele>47.04499968</ele>
        <time>2020-08-02T06:21:10.000Z</time>
      </trkpt>
      <trkpt lat="43.56639" lon="3.81133">
        <ele>47.14499968</ele>
        <time>2020-08-02T06:21:11.000Z</time>
      </trkpt>
      <trkpt lat="43.56638" lon="3.81135">
        <ele>47.24499968</ele>
        <time>2020-08-02T06:21:12.000Z</time>
      </trkpt>
      <trkpt lat="43.56636" lon="3.81137">
        <ele>47.34499968</ele>
        <time>2020-08-02T06:21:13.000Z</time>
      </trkpt>
      <trkpt lat="43.56635" lon="3.81139">
        <ele>47.44499968</ele>
        <time>2020-08-02T06:21:14.000Z</time>
      </trkpt>
      <trkpt lat="43.56634" lon="3.81142">
        <ele>47.54499968</ele>
        <time>2020-08-02T06:21:15.000Z</time>
      </trkpt>
      <trkpt lat="43.56633" lon="3.81144">
        <ele>47.64499968</ele>
        <time>2020-08-02T06:21:16.000Z</time>
      </trkpt>
      <trkpt lat="43.56631" lon="3.81147">
        <ele>47.74499968</ele>
        <time>2020-08-02T06:21:17.000Z</time>
      </trkpt>
      <trkpt lat="43.5663" lon="3.81149">
        <ele>47.84499968</ele>
        <time>2020-08-02T06:21:18.000Z</time>
      </trkpt>
      <trkpt lat="43.56629" lon="3.81151">
        <ele>47.94499968</ele>
        <time>2020-08-02T06:21:19.000Z</time>
      </trkpt>
      <trkpt lat="43.56628" lon="3.81153">
        <ele>48.087548015564</ele>
        <time>2020-08-02T06:21:20.000Z</time>
      </trkpt>
      <trkpt lat="43.56626" lon="3.81155">
        <ele>48.282100544747</ele>
        <time>2020-08-02T06:21:21.000Z</time>
      </trkpt>
      <trkpt lat="43.56625" lon="3.81157">
        <ele>48.47665307393</ele>
        <time>2020-08-02T06:21:22.000Z</time>
      </trkpt>
      <trkpt lat="43.56624" lon="3.81159">
        <ele>48.671205603113</ele>
        <time>2020-08-02T06:21:23.000Z</time>
      </trkpt>
      <trkpt lat="43.56622" lon="3.81162">
        <ele>48.865758132296</ele>
        <time>2020-08-02T06:21:24.000Z</time>
      </trkpt>
      <trkpt lat="43.56621" lon="3.81164">
        <ele>49.060310661479</ele>
        <time>2020-08-02T06:21:25.000Z</time>
      </trkpt>
      <trkpt lat="43.56619" lon="3.81166">
        <ele>49.254863190662</ele>
        <time>2020-08-02T06:21:26.000Z</time>
      </trkpt>
      <trkpt lat="43.56618" lon="3.81168">
        <ele>49.449415719844</ele>
        <time>2020-08-02T06:21:27.000Z</time>
      </trkpt>
      <trkpt lat="43.56616" lon="3.81171">
        <ele>49.643968249027</ele>
        <time>2020-08-02T06:21:28.000Z</time>
      </trkpt>
      <trkpt lat="43.56614" lon="3.81174">
        <ele>49.83852077821</ele>
        <time>2020-08-02T06:21:29.000Z</time>
      </trkpt>
      <trkpt lat="43.56612" lon="3.81177">
        <ele>50.017489382716</ele>
        <time>2020-08-02T06:21:30.000Z</time>
      </trkpt>
      <trkpt lat="43.56611" lon="3.8118">
        <ele>50.120370041152</ele>
        <time>2020-08-02T06:21:31.000Z</time>
      </trkpt>
      <trkpt lat="43.56609" lon="3.81183">
        <ele>50.223250699588</ele>
        <time>2020-08-02T06:21:32.000Z</time>
      </trkpt>
      <trkpt lat="43.56607" lon="3.81186">
        <ele>50.326131358025</ele>
        <time>2020-08-02T06:21:33.000Z</time>
      </trkpt>
      <trkpt lat="43.56605" lon="3.8119">
        <ele>50.429012016461</ele>
        <time>2020-08-02T06:21:34.000Z</time>
      </trkpt>
      <trkpt lat="43.56604" lon="3.81193">
        <ele>50.531892674897</ele>
        <time>2020-08-02T06:21:35.000Z</time>
      </trkpt>
      <trkpt lat="43.56603" lon="3.81197">
        <ele>50.634773333333</ele>
        <time>2020-08-02T06:21:36.000Z</time>
      </trkpt>
      <trkpt lat="43.56602" lon="3.81201">
        <ele>50.737653991769</ele>
        <time>2020-08-02T06:21:37.000Z</time>
      </trkpt>
      <trkpt lat="43.56601" lon="3.81205">
        <ele>50.840534650206</ele>
        <time>2020-08-02T06:21:38.000Z</time>
      </trkpt>
      <trkpt lat="43.56599" lon="3.81209">
        <ele>50.943415308642</ele>
        <time>2020-08-02T06:21:39.000Z</time>
      </trkpt>
      <trkpt lat="43.56598" lon="3.81214">
        <ele>51</ele>
        <time>2020-08-02T06:21:40.000Z</time>
      </trkpt>
      <trkpt lat="43.56596" lon="3.81217">
        <ele>51</ele>
        <time>2020-08-02T06:21:41.000Z</time>
      </trkpt>
      <trkpt lat="43.56594" lon="3.81221">
        <ele>51</ele>
        <time>2020-08-02T06:21:42.000Z</time>
      </trkpt>
      <trkpt lat="43.56592" lon="3.81226">
        <ele>51</ele>
        <time>2020-08-02T06:21:43.000Z</time>
      </trkpt>
      <trkpt lat="43.5659" lon="3.81231">
        <ele>51</ele>
        <time>2020-08-02T06:21:44.000Z</time>
      </trkpt>
      <trkpt lat="43.56588" lon="3.81236">
        <ele>51</ele>
        <time>2020-08-02T06:21:45.000Z</time>
      </trkpt>
      <trkpt lat="43.56586" lon="3.8124">
        <ele>51</ele>
        <time>2020-08-02T06:21:46.000Z</time>
      </trkpt>
      <trkpt lat="43.56583" lon="3.81243">
        <ele>51</ele>
        <time>2020-08-02T06:21:47.000Z</time>
      </trkpt>
      <trkpt lat="43.5658" lon="3.81246">
        <ele>51</ele>
        <time>2020-08-02T06:21:48.000Z</time>
      </trkpt>
      <trkpt lat="43.56577" lon="3.81249">
        <ele>51</ele>
        <time>2020-08-02T06:21:49.000Z</time>
      </trkpt>
      <trkpt lat="43.56575" lon="3.81251">
        <ele>51.04499968</ele>
        <time>2020-08-02T06:21:50.000Z</time>
      </trkpt>
      <trkpt lat="43.56573" lon="3.81254">
        <ele>51.14499968</ele>
        <time>2020-08-02T06:21:51.000Z</time>
      </trkpt>
      <trkpt lat="43.56571" lon="3.81257">
        <ele>51.24499968</ele>
        <time>2020-08-02T06:21:52.000Z</time>
      </trkpt>
      <trkpt lat="43.56569" lon="3.81259">
        <ele>51.34499968</ele>
        <time>2020-08-02T06:21:53.000Z</time>
      </trkpt>
      <trkpt lat="43.56568" lon="3.81262">
        <ele>51.44499968</ele>
        <time>2020-08-02T06:21:54.000Z</time>
      </trkpt>
      <trkpt lat="43.56567" lon="3.81265">
        <ele>51.54499968</ele>
        <time>2020-08-02T06:21:55.000Z</time>
      </trkpt>
      <trkpt lat="43.56566" lon="3.81267">
        <ele>51.64499968</ele>
        <time>2020-08-02T06:21:56.000Z</time>
      </trkpt>
      <trkpt lat="43.56566" lon="3.8127">
        <ele>51.74499968</ele>
        <time>2020-08-02T06:21:57.000Z</time>
      </trkpt>
      <trkpt lat="43.56565" lon="3.81273">
        <ele>51.84499968</ele>
        <time>2020-08-02T06:21:58.000Z</time>
      </trkpt>
      <trkpt lat="43.56565" lon="3.81275">
        <ele>51.94499968</ele>
        <time>2020-08-02T06:21:59.000Z</time>
      </trkpt>
      <trkpt lat="43.56564" lon="3.8128">
        <ele>52</ele>
        <time>2020-08-02T06:22:01.000Z</time>
      </trkpt>
      <trkpt lat="43.56563" lon="3.8128">
        <ele>52</ele>
        <time>2020-08-02T06:22:11.000Z</time>
      </trkpt>
      <trkpt lat="43.56558" lon="3.8128">
        <ele>52</ele>
        <time>2020-08-02T06:22:16.000Z</time>
      </trkpt>
      <trkpt lat="43.56556" lon="3.81281">
        <ele>52</ele>
        <time>2020-08-02T06:22:17.000Z</time>
      </trkpt>
      <trkpt lat="43.56554" lon="3.81282">
        <ele>52</ele>
        <time>2020-08-02T06:22:18.000Z</time>
      </trkpt>
      <trkpt lat="43.56552" lon="3.81283">
        <ele>52</ele>
        <time>2020-08-02T06:22:19.000Z</time>
      </trkpt>
      <trkpt lat="43.56551" lon="3.81284">
        <ele>52</ele>
        <time>2020-08-02T06:22:20.000Z</time>
      </trkpt>
      <trkpt lat="43.56549" lon="3.81284">
        <ele>52</ele>
        <time>2020-08-02T06:22:21.000Z</time>
      </trkpt>
      <trkpt lat="43.56545" lon="3.81283">
        <ele>52</ele>
        <time>2020-08-02T06:22:23.000Z</time>
      </trkpt>
      <trkpt lat="43.56544" lon="3.81282">
        <ele>52</ele>
        <time>2020-08-02T06:22:24.000Z</time>
      </trkpt>
      <trkpt lat="43.56541" lon="3.8128">
        <ele>51.956225992218</ele>
        <time>2020-08-02T06:22:26.000Z</time>
      </trkpt>
      <trkpt lat="43.56539" lon="3.81279">
        <ele>51.761673463035</ele>
        <time>2020-08-02T06:22:28.000Z</time>
      </trkpt>
      <trkpt lat="43.56535" lon="3.81279">
        <ele>51.567120933852</ele>
        <time>2020-08-02T06:22:30.000Z</time>
      </trkpt>
      <trkpt lat="43.56533" lon="3.81278">
        <ele>51.469844669261</ele>
        <time>2020-08-02T06:22:31.000Z</time>
      </trkpt>
      <trkpt lat="43.56531" lon="3.81277">
        <ele>51.372568404669</ele>
        <time>2020-08-02T06:22:32.000Z</time>
      </trkpt>
      <trkpt lat="43.56529" lon="3.81276">
        <ele>51.275292140078</ele>
        <time>2020-08-02T06:22:33.000Z</time>
      </trkpt>
      <trkpt lat="43.56527" lon="3.81275">
        <ele>51.080739610895</ele>
        <time>2020-08-02T06:22:35.000Z</time>
      </trkpt>
      <trkpt lat="43.56527" lon="3.81275">
        <ele>51</ele>
        <time>2020-08-02T06:22:39.000Z</time>
      </trkpt>
      <trkpt lat="43.56522" lon="3.81273">
        <ele>51</ele>
        <time>2020-08-02T06:22:48.000Z</time>
      </trkpt>
      <trkpt lat="43.56521" lon="3.81272">
        <ele>51</ele>
        <time>2020-08-02T06:22:49.000Z</time>
      </trkpt>
      <trkpt lat="43.56519" lon="3.81269">
        <ele>51</ele>
        <time>2020-08-02T06:22:51.000Z</time>
      </trkpt>
      <trkpt lat="43.56516" lon="3.81266">
        <ele>51</ele>
        <time>2020-08-02T06:22:53.000Z</time>
      </trkpt>
      <trkpt lat="43.56514" lon="3.81266">
        <ele>51</ele>
        <time>2020-08-02T06:22:55.000Z</time>
      </trkpt>
      <trkpt lat="43.56511" lon="3.81265">
        <ele>51</ele>
        <time>2020-08-02T06:22:59.000Z</time>
      </trkpt>
      <trkpt lat="43.56509" lon="3.81265">
        <ele>51</ele>
        <time>2020-08-02T06:23:02.000Z</time>
      </trkpt>
      <trkpt lat="43.56507" lon="3.81264">
        <ele>51</ele>
        <time>2020-08-02T06:23:05.000Z</time>
      </trkpt>
      <trkpt lat="43.56505" lon="3.81263">
        <ele>51.220846674909</ele>
        <time>2020-08-02T06:23:10.000Z</time>
      </trkpt>
      <trkpt lat="43.56502" lon="3.81263">
        <ele>51.427244819242</ele>
        <time>2020-08-02T06:23:12.000Z</time>
      </trkpt>
      <trkpt lat="43.56499" lon="3.8126">
        <ele>51.633642963574</ele>
        <time>2020-08-02T06:23:14.000Z</time>
      </trkpt>
      <trkpt lat="43.56496" lon="3.81258">
        <ele>51.840041107906</ele>
        <time>2020-08-02T06:23:16.000Z</time>
      </trkpt>
      <trkpt lat="43.56494" lon="3.81257">
        <ele>51.943240180072</ele>
        <time>2020-08-02T06:23:17.000Z</time>
      </trkpt>
      <trkpt lat="43.56492" lon="3.81255">
        <ele>52</ele>
        <time>2020-08-02T06:23:18.000Z</time>
      </trkpt>
      <trkpt lat="43.56491" lon="3.81253">
        <ele>52</ele>
        <time>2020-08-02T06:23:19.000Z</time>
      </trkpt>
      <trkpt lat="43.56489" lon="3.81251">
        <ele>52</ele>
        <time>2020-08-02T06:23:20.000Z</time>
      </trkpt>
      <trkpt lat="43.56488" lon="3.81249">
        <ele>52</ele>
        <time>2020-08-02T06:23:21.000Z</time>
      </trkpt>
      <trkpt lat="43.56486" lon="3.81246">
        <ele>52</ele>
        <time>2020-08-02T06:23:22.000Z</time>
      </trkpt>
      <trkpt lat="43.56485" lon="3.81244">
        <ele>52</ele>
        <time>2020-08-02T06:23:23.000Z</time>
      </trkpt>
      <trkpt lat="43.56483" lon="3.81243">
        <ele>52</ele>
        <time>2020-08-02T06:23:24.000Z</time>
      </trkpt>
      <trkpt lat="43.56481" lon="3.81242">
        <ele>52</ele>
        <time>2020-08-02T06:23:25.000Z</time>
      </trkpt>
      <trkpt lat="43.5648" lon="3.8124">
        <ele>52</ele>
        <time>2020-08-02T06:23:26.000Z</time>
      </trkpt>
      <trkpt lat="43.56478" lon="3.81239">
        <ele>52</ele>
        <time>2020-08-02T06:23:27.000Z</time>
      </trkpt>
      <trkpt lat="43.56477" lon="3.81236">
        <ele>52.04499968</ele>
        <time>2020-08-02T06:23:28.000Z</time>
      </trkpt>
      <trkpt lat="43.56476" lon="3.81234">
        <ele>52.14499968</ele>
        <time>2020-08-02T06:23:29.000Z</time>
      </trkpt>
      <trkpt lat="43.56475" lon="3.81232">
        <ele>52.24499968</ele>
        <time>2020-08-02T06:23:30.000Z</time>
      </trkpt>
      <trkpt lat="43.56473" lon="3.81229">
        <ele>52.34499968</ele>
        <time>2020-08-02T06:23:31.000Z</time>
      </trkpt>
      <trkpt lat="43.56472" lon="3.81227">
        <ele>52.44499968</ele>
        <time>2020-08-02T06:23:32.000Z</time>
      </trkpt>
      <trkpt lat="43.56471" lon="3.81225">
        <ele>52.54499968</ele>
        <time>2020-08-02T06:23:33.000Z</time>
      </trkpt>
      <trkpt lat="43.5647" lon="3.81222">
        <ele>52.64499968</ele>
        <time>2020-08-02T06:23:34.000Z</time>
      </trkpt>
      <trkpt lat="43.56468" lon="3.8122">
        <ele>52.74499968</ele>
        <time>2020-08-02T06:23:35.000Z</time>
      </trkpt>
      <trkpt lat="43.56467" lon="3.81218">
        <ele>52.84499968</ele>
        <time>2020-08-02T06:23:36.000Z</time>
      </trkpt>
      <trkpt lat="43.56465" lon="3.81216">
        <ele>52.94499968</ele>
        <time>2020-08-02T06:23:37.000Z</time>
      </trkpt>
      <trkpt lat="43.56464" lon="3.81214">
        <ele>53</ele>
        <time>2020-08-02T06:23:38.000Z</time>
      </trkpt>
      <trkpt lat="43.56462" lon="3.81212">
        <ele>53</ele>
        <time>2020-08-02T06:23:39.000Z</time>
      </trkpt>
      <trkpt lat="43.56461" lon="3.81209">
        <ele>53</ele>
        <time>2020-08-02T06:23:40.000Z</time>
      </trkpt>
      <trkpt lat="43.5646" lon="3.81207">
        <ele>53</ele>
        <time>2020-08-02T06:23:41.000Z</time>
      </trkpt>
      <trkpt lat="43.56459" lon="3.81205">
        <ele>53</ele>
        <time>2020-08-02T06:23:42.000Z</time>
      </trkpt>
      <trkpt lat="43.56457" lon="3.81203">
        <ele>53</ele>
        <time>2020-08-02T06:23:43.000Z</time>
      </trkpt>
      <trkpt lat="43.56455" lon="3.81201">
        <ele>53</ele>
        <time>2020-08-02T06:23:44.000Z</time>
      </trkpt>
      <trkpt lat="43.56454" lon="3.81199">
        <ele>53</ele>
        <time>2020-08-02T06:23:45.000Z</time>
      </trkpt>
      <trkpt lat="43.56453" lon="3.81197">
        <ele>53</ele>
        <time>2020-08-02T06:23:46.000Z</time>
      </trkpt>
      <trkpt lat="43.56451" lon="3.81194">
        <ele>53</ele>
        <time>2020-08-02T06:23:47.000Z</time>
      </trkpt>
      <trkpt lat="43.56449" lon="3.81192">
        <ele>53.041164337349</ele>
        <time>2020-08-02T06:23:48.000Z</time>
      </trkpt>
      <trkpt lat="43.56447" lon="3.81191">
        <ele>53.141565943775</ele>
        <time>2020-08-02T06:23:49.000Z</time>
      </trkpt>
      <trkpt lat="43.56445" lon="3.8119">
        <ele>53.241967550201</ele>
        <time>2020-08-02T06:23:50.000Z</time>
      </trkpt>
      <trkpt lat="43.56443" lon="3.81189">
        <ele>53.342369156627</ele>
        <time>2020-08-02T06:23:51.000Z</time>
      </trkpt>
      <trkpt lat="43.56441" lon="3.81188">
        <ele>53.442770763052</ele>
        <time>2020-08-02T06:23:52.000Z</time>
      </trkpt>
      <trkpt lat="43.5644" lon="3.81187">
        <ele>53.543172369478</ele>
        <time>2020-08-02T06:23:53.000Z</time>
      </trkpt>
      <trkpt lat="43.56438" lon="3.81186">
        <ele>53.643573975904</ele>
        <time>2020-08-02T06:23:54.000Z</time>
      </trkpt>
      <trkpt lat="43.56436" lon="3.81186">
        <ele>53.743975582329</ele>
        <time>2020-08-02T06:23:55.000Z</time>
      </trkpt>
      <trkpt lat="43.56434" lon="3.81186">
        <ele>53.844377188755</ele>
        <time>2020-08-02T06:23:56.000Z</time>
      </trkpt>
      <trkpt lat="43.56432" lon="3.81186">
        <ele>53.944778795181</ele>
        <time>2020-08-02T06:23:57.000Z</time>
      </trkpt>
      <trkpt lat="43.5643" lon="3.81186">
        <ele>54</ele>
        <time>2020-08-02T06:23:58.000Z</time>
      </trkpt>
      <trkpt lat="43.56428" lon="3.81186">
        <ele>54</ele>
        <time>2020-08-02T06:23:59.000Z</time>
      </trkpt>
      <trkpt lat="43.56426" lon="3.81185">
        <ele>54</ele>
        <time>2020-08-02T06:24:00.000Z</time>
      </trkpt>
      <trkpt lat="43.56424" lon="3.81183">
        <ele>54</ele>
        <time>2020-08-02T06:24:01.000Z</time>
      </trkpt>
      <trkpt lat="43.56422" lon="3.81181">
        <ele>54</ele>
        <time>2020-08-02T06:24:02.000Z</time>
      </trkpt>
      <trkpt lat="43.56421" lon="3.81178">
        <ele>54</ele>
        <time>2020-08-02T06:24:03.000Z</time>
      </trkpt>
      <trkpt lat="43.5642" lon="3.81174">
        <ele>54</ele>
        <time>2020-08-02T06:24:04.000Z</time>
      </trkpt>
      <trkpt lat="43.56419" lon="3.81171">
        <ele>54</ele>
        <time>2020-08-02T06:24:05.000Z</time>
      </trkpt>
      <trkpt lat="43.56418" lon="3.81167">
        <ele>54</ele>
        <time>2020-08-02T06:24:06.000Z</time>
      </trkpt>
      <trkpt lat="43.56418" lon="3.81164">
        <ele>54</ele>
        <time>2020-08-02T06:24:07.000Z</time>
      </trkpt>
      <trkpt lat="43.56417" lon="3.8116">
        <ele>54</ele>
        <time>2020-08-02T06:24:08.000Z</time>
      </trkpt>
      <trkpt lat="43.56416" lon="3.81156">
        <ele>54</ele>
        <time>2020-08-02T06:24:09.000Z</time>
      </trkpt>
      <trkpt lat="43.56415" lon="3.81153">
        <ele>54</ele>
        <time>2020-08-02T06:24:10.000Z</time>
      </trkpt>
      <trkpt lat="43.56414" lon="3.81149">
        <ele>54</ele>
        <time>2020-08-02T06:24:11.000Z</time>
      </trkpt>
      <trkpt lat="43.56414" lon="3.81145">
        <ele>54</ele>
        <time>2020-08-02T06:24:12.000Z</time>
      </trkpt>
      <trkpt lat="43.56413" lon="3.81142">
        <ele>54</ele>
        <time>2020-08-02T06:24:13.000Z</time>
      </trkpt>
      <trkpt lat="43.56412" lon="3.81139">
        <ele>54</ele>
        <time>2020-08-02T06:24:14.000Z</time>
      </trkpt>
      <trkpt lat="43.56412" lon="3.81136">
        <ele>54</ele>
        <time>2020-08-02T06:24:15.000Z</time>
      </trkpt>
      <trkpt lat="43.56412" lon="3.81133">
        <ele>54</ele>
        <time>2020-08-02T06:24:16.000Z</time>
      </trkpt>
      <trkpt lat="43.56411" lon="3.8113">
        <ele>54</ele>
        <time>2020-08-02T06:24:17.000Z</time>
      </trkpt>
      <trkpt lat="43.5641" lon="3.81128">
        <ele>54</ele>
        <time>2020-08-02T06:24:18.000Z</time>
      </trkpt>
      <trkpt lat="43.56409" lon="3.81125">
        <ele>54</ele>
        <time>2020-08-02T06:24:19.000Z</time>
      </trkpt>
      <trkpt lat="43.56409" lon="3.81121">
        <ele>54</ele>
        <time>2020-08-02T06:24:20.000Z</time>
      </trkpt>
      <trkpt lat="43.56407" lon="3.81117">
        <ele>54</ele>
        <time>2020-08-02T06:24:21.000Z</time>
      </trkpt>
      <trkpt lat="43.56406" lon="3.81113">
        <ele>54</ele>
        <time>2020-08-02T06:24:22.000Z</time>
      </trkpt>
      <trkpt lat="43.56405" lon="3.81108">
        <ele>54</ele>
        <time>2020-08-02T06:24:23.000Z</time>
      </trkpt>
      <trkpt lat="43.56403" lon="3.81104">
        <ele>54</ele>
        <time>2020-08-02T06:24:24.000Z</time>
      </trkpt>
      <trkpt lat="43.56402" lon="3.81099">
        <ele>54</ele>
        <time>2020-08-02T06:24:25.000Z</time>
      </trkpt>
      <trkpt lat="43.564" lon="3.81095">
        <ele>54</ele>
        <time>2020-08-02T06:24:26.000Z</time>
      </trkpt>
      <trkpt lat="43.56399" lon="3.8109">
        <ele>54</ele>
        <time>2020-08-02T06:24:27.000Z</time>
      </trkpt>
      <trkpt lat="43.56397" lon="3.81085">
        <ele>54</ele>
        <time>2020-08-02T06:24:28.000Z</time>
      </trkpt>
      <trkpt lat="43.56396" lon="3.81081">
        <ele>54</ele>
        <time>2020-08-02T06:24:29.000Z</time>
      </trkpt>
      <trkpt lat="43.56395" lon="3.81076">
        <ele>54</ele>
        <time>2020-08-02T06:24:30.000Z</time>
      </trkpt>
      <trkpt lat="43.56395" lon="3.81073">
        <ele>54</ele>
        <time>2020-08-02T06:24:31.000Z</time>
      </trkpt>
      <trkpt lat="43.56394" lon="3.8107">
        <ele>54</ele>
        <time>2020-08-02T06:24:32.000Z</time>
      </trkpt>
      <trkpt lat="43.56392" lon="3.81067">
        <ele>54</ele>
        <time>2020-08-02T06:24:33.000Z</time>
      </trkpt>
      <trkpt lat="43.5639" lon="3.81065">
        <ele>54</ele>
        <time>2020-08-02T06:24:34.000Z</time>
      </trkpt>
      <trkpt lat="43.56388" lon="3.81061">
        <ele>54</ele>
        <time>2020-08-02T06:24:35.000Z</time>
      </trkpt>
      <trkpt lat="43.56387" lon="3.81058">
        <ele>54</ele>
        <time>2020-08-02T06:24:36.000Z</time>
      </trkpt>
      <trkpt lat="43.56385" lon="3.81054">
        <ele>54</ele>
        <time>2020-08-02T06:24:37.000Z</time>
      </trkpt>
      <trkpt lat="43.56383" lon="3.8105">
        <ele>53.95500032</ele>
        <time>2020-08-02T06:24:38.000Z</time>
      </trkpt>
      <trkpt lat="43.56381" lon="3.81046">
        <ele>53.85500032</ele>
        <time>2020-08-02T06:24:39.000Z</time>
      </trkpt>
      <trkpt lat="43.56378" lon="3.81042">
        <ele>53.75500032</ele>
        <time>2020-08-02T06:24:40.000Z</time>
      </trkpt>
      <trkpt lat="43.56375" lon="3.81039">
        <ele>53.65500032</ele>
        <time>2020-08-02T06:24:41.000Z</time>
      </trkpt>
      <trkpt lat="43.56372" lon="3.81037">
        <ele>53.55500032</ele>
        <time>2020-08-02T06:24:42.000Z</time>
      </trkpt>
      <trkpt lat="43.56369" lon="3.81034">
        <ele>53.45500032</ele>
        <time>2020-08-02T06:24:43.000Z</time>
      </trkpt>
      <trkpt lat="43.56367" lon="3.81031">
        <ele>53.35500032</ele>
        <time>2020-08-02T06:24:44.000Z</time>
      </trkpt>
      <trkpt lat="43.56365" lon="3.81028">
        <ele>53.25500032</ele>
        <time>2020-08-02T06:24:45.000Z</time>
      </trkpt>
      <trkpt lat="43.56362" lon="3.81025">
        <ele>53.15500032</ele>
        <time>2020-08-02T06:24:46.000Z</time>
      </trkpt>
      <trkpt lat="43.56359" lon="3.81024">
        <ele>53.05500032</ele>
        <time>2020-08-02T06:24:47.000Z</time>
      </trkpt>
      <trkpt lat="43.56357" lon="3.81023">
        <ele>52.91000064</ele>
        <time>2020-08-02T06:24:48.000Z</time>
      </trkpt>
      <trkpt lat="43.56354" lon="3.81022">
        <ele>52.71000064</ele>
        <time>2020-08-02T06:24:49.000Z</time>
      </trkpt>
      <trkpt lat="43.56351" lon="3.81021">
        <ele>52.51000064</ele>
        <time>2020-08-02T06:24:50.000Z</time>
      </trkpt>
      <trkpt lat="43.56348" lon="3.8102">
        <ele>52.31000064</ele>
        <time>2020-08-02T06:24:51.000Z</time>
      </trkpt>
      <trkpt lat="43.56345" lon="3.81019">
        <ele>52.11000064</ele>
        <time>2020-08-02T06:24:52.000Z</time>
      </trkpt>
      <trkpt lat="43.56342" lon="3.81018">
        <ele>51.91000064</ele>
        <time>2020-08-02T06:24:53.000Z</time>
      </trkpt>
      <trkpt lat="43.56339" lon="3.81018">
        <ele>51.71000064</ele>
        <time>2020-08-02T06:24:54.000Z</time>
      </trkpt>
      <trkpt lat="43.56336" lon="3.81017">
        <ele>51.51000064</ele>
        <time>2020-08-02T06:24:55.000Z</time>
      </trkpt>
      <trkpt lat="43.56333" lon="3.81016">
        <ele>51.31000064</ele>
        <time>2020-08-02T06:24:56.000Z</time>
      </trkpt>
      <trkpt lat="43.5633" lon="3.81015">
        <ele>51.11000064</ele>
        <time>2020-08-02T06:24:57.000Z</time>
      </trkpt>
      <trkpt lat="43.56327" lon="3.81014">
        <ele>50.95500032</ele>
        <time>2020-08-02T06:24:58.000Z</time>
      </trkpt>
      <trkpt lat="43.56324" lon="3.81013">
        <ele>50.85500032</ele>
        <time>2020-08-02T06:24:59.000Z</time>
      </trkpt>
      <trkpt lat="43.56321" lon="3.81013">
        <ele>50.75500032</ele>
        <time>2020-08-02T06:25:00.000Z</time>
      </trkpt>
      <trkpt lat="43.56318" lon="3.81013">
        <ele>50.65500032</ele>
        <time>2020-08-02T06:25:01.000Z</time>
      </trkpt>
      <trkpt lat="43.56315" lon="3.81013">
        <ele>50.55500032</ele>
        <time>2020-08-02T06:25:02.000Z</time>
      </trkpt>
      <trkpt lat="43.56312" lon="3.81013">
        <ele>50.45500032</ele>
        <time>2020-08-02T06:25:03.000Z</time>
      </trkpt>
      <trkpt lat="43.56309" lon="3.81013">
        <ele>50.35500032</ele>
        <time>2020-08-02T06:25:04.000Z</time>
      </trkpt>
      <trkpt lat="43.56306" lon="3.81012">
        <ele>50.25500032</ele>
        <time>2020-08-02T06:25:05.000Z</time>
      </trkpt>
      <trkpt lat="43.56303" lon="3.81012">
        <ele>50.15500032</ele>
        <time>2020-08-02T06:25:06.000Z</time>
      </trkpt>
      <trkpt lat="43.563" lon="3.81013">
        <ele>50.05500032</ele>
        <time>2020-08-02T06:25:07.000Z</time>
      </trkpt>
      <trkpt lat="43.56298" lon="3.81014">
        <ele>49.95500032</ele>
        <time>2020-08-02T06:25:08.000Z</time>
      </trkpt>
      <trkpt lat="43.56295" lon="3.81014">
        <ele>49.85500032</ele>
        <time>2020-08-02T06:25:09.000Z</time>
      </trkpt>
      <trkpt lat="43.56291" lon="3.81013">
        <ele>49.75500032</ele>
        <time>2020-08-02T06:25:10.000Z</time>
      </trkpt>
      <trkpt lat="43.56288" lon="3.81012">
        <ele>49.65500032</ele>
        <time>2020-08-02T06:25:11.000Z</time>
      </trkpt>
      <trkpt lat="43.56285" lon="3.81011">
        <ele>49.55500032</ele>
        <time>2020-08-02T06:25:12.000Z</time>
      </trkpt>
      <trkpt lat="43.56282" lon="3.8101">
        <ele>49.45500032</ele>
        <time>2020-08-02T06:25:13.000Z</time>
      </trkpt>
      <trkpt lat="43.56279" lon="3.8101">
        <ele>49.35500032</ele>
        <time>2020-08-02T06:25:14.000Z</time>
      </trkpt>
      <trkpt lat="43.56275" lon="3.8101">
        <ele>49.25500032</ele>
        <time>2020-08-02T06:25:15.000Z</time>
      </trkpt>
      <trkpt lat="43.56271" lon="3.8101">
        <ele>49.15500032</ele>
        <time>2020-08-02T06:25:16.000Z</time>
      </trkpt>
      <trkpt lat="43.56267" lon="3.8101">
        <ele>49.05500032</ele>
        <time>2020-08-02T06:25:17.000Z</time>
      </trkpt>
      <trkpt lat="43.56263" lon="3.81009">
        <ele>49</ele>
        <time>2020-08-02T06:25:18.000Z</time>
      </trkpt>
      <trkpt lat="43.56259" lon="3.81008">
        <ele>49</ele>
        <time>2020-08-02T06:25:19.000Z</time>
      </trkpt>
      <trkpt lat="43.56255" lon="3.81008">
        <ele>49</ele>
        <time>2020-08-02T06:25:20.000Z</time>
      </trkpt>
      <trkpt lat="43.56251" lon="3.81008">
        <ele>49</ele>
        <time>2020-08-02T06:25:21.000Z</time>
      </trkpt>
      <trkpt lat="43.56247" lon="3.81008">
        <ele>49</ele>
        <time>2020-08-02T06:25:22.000Z</time>
      </trkpt>
      <trkpt lat="43.56243" lon="3.81008">
        <ele>49</ele>
        <time>2020-08-02T06:25:23.000Z</time>
      </trkpt>
      <trkpt lat="43.56239" lon="3.81007">
        <ele>49</ele>
        <time>2020-08-02T06:25:24.000Z</time>
      </trkpt>
      <trkpt lat="43.56235" lon="3.81007">
        <ele>49</ele>
        <time>2020-08-02T06:25:25.000Z</time>
      </trkpt>
      <trkpt lat="43.56231" lon="3.81007">
        <ele>49</ele>
        <time>2020-08-02T06:25:26.000Z</time>
      </trkpt>
      <trkpt lat="43.56227" lon="3.81007">
        <ele>49</ele>
        <time>2020-08-02T06:25:27.000Z</time>
      </trkpt>
      <trkpt lat="43.56223" lon="3.81007">
        <ele>48.95500032</ele>
        <time>2020-08-02T06:25:28.000Z</time>
      </trkpt>
      <trkpt lat="43.5622" lon="3.81007">
        <ele>48.85500032</ele>
        <time>2020-08-02T06:25:29.000Z</time>
      </trkpt>
      <trkpt lat="43.56217" lon="3.81007">
        <ele>48.75500032</ele>
        <time>2020-08-02T06:25:30.000Z</time>
      </trkpt>
      <trkpt lat="43.56214" lon="3.81007">
        <ele>48.65500032</ele>
        <time>2020-08-02T06:25:31.000Z</time>
      </trkpt>
      <trkpt lat="43.56213" lon="3.81007">
        <ele>48.55500032</ele>
        <time>2020-08-02T06:25:32.000Z</time>
      </trkpt>
      <trkpt lat="43.56212" lon="3.81007">
        <ele>48.002047606692</ele>
        <time>2020-08-02T06:25:39.000Z</time>
      </trkpt>
      <trkpt lat="43.56204" lon="3.81013">
        <ele>49</ele>
        <time>2020-08-02T06:26:18.000Z</time>
      </trkpt>
      <trkpt lat="43.56202" lon="3.81014">
        <ele>49</ele>
        <time>2020-08-02T06:26:19.000Z</time>
      </trkpt>
      <trkpt lat="43.562" lon="3.81016">
        <ele>49</ele>
        <time>2020-08-02T06:26:20.000Z</time>
      </trkpt>
      <trkpt lat="43.56198" lon="3.81018">
        <ele>49</ele>
        <time>2020-08-02T06:26:21.000Z</time>
      </trkpt>
      <trkpt lat="43.56196" lon="3.8102">
        <ele>49</ele>
        <time>2020-08-02T06:26:22.000Z</time>
      </trkpt>
      <trkpt lat="43.56194" lon="3.81023">
        <ele>49</ele>
        <time>2020-08-02T06:26:23.000Z</time>
      </trkpt>
      <trkpt lat="43.56192" lon="3.81025">
        <ele>49</ele>
        <time>2020-08-02T06:26:24.000Z</time>
      </trkpt>
      <trkpt lat="43.56191" lon="3.81029">
        <ele>49</ele>
        <time>2020-08-02T06:26:25.000Z</time>
      </trkpt>
      <trkpt lat="43.56189" lon="3.81032">
        <ele>49</ele>
        <time>2020-08-02T06:26:26.000Z</time>
      </trkpt>
      <trkpt lat="43.56188" lon="3.81035">
        <ele>49</ele>
        <time>2020-08-02T06:26:27.000Z</time>
      </trkpt>
      <trkpt lat="43.56186" lon="3.81038">
        <ele>49</ele>
        <time>2020-08-02T06:26:28.000Z</time>
      </trkpt>
      <trkpt lat="43.56184" lon="3.81041">
        <ele>49</ele>
        <time>2020-08-02T06:26:29.000Z</time>
      </trkpt>
      <trkpt lat="43.56182" lon="3.81043">
        <ele>49</ele>
        <time>2020-08-02T06:26:30.000Z</time>
      </trkpt>
      <trkpt lat="43.5618" lon="3.81046">
        <ele>49</ele>
        <time>2020-08-02T06:26:31.000Z</time>
      </trkpt>
      <trkpt lat="43.56178" lon="3.81049">
        <ele>49</ele>
        <time>2020-08-02T06:26:32.000Z</time>
      </trkpt>
      <trkpt lat="43.56176" lon="3.81052">
        <ele>49</ele>
        <time>2020-08-02T06:26:33.000Z</time>
      </trkpt>
      <trkpt lat="43.56175" lon="3.81056">
        <ele>49</ele>
        <time>2020-08-02T06:26:34.000Z</time>
      </trkpt>
      <trkpt lat="43.56173" lon="3.81059">
        <ele>49</ele>
        <time>2020-08-02T06:26:35.000Z</time>
      </trkpt>
      <trkpt lat="43.56171" lon="3.81063">
        <ele>49</ele>
        <time>2020-08-02T06:26:36.000Z</time>
      </trkpt>
      <trkpt lat="43.56169" lon="3.81066">
        <ele>49</ele>
        <time>2020-08-02T06:26:37.000Z</time>
      </trkpt>
      <trkpt lat="43.56167" lon="3.81069">
        <ele>49</ele>
        <time>2020-08-02T06:26:38.000Z</time>
      </trkpt>
      <trkpt lat="43.56166" lon="3.81072">
        <ele>49</ele>
        <time>2020-08-02T06:26:39.000Z</time>
      </trkpt>
      <trkpt lat="43.56164" lon="3.81075">
        <ele>49</ele>
        <time>2020-08-02T06:26:40.000Z</time>
      </trkpt>
      <trkpt lat="43.56162" lon="3.81076">
        <ele>49</ele>
        <time>2020-08-02T06:26:41.000Z</time>
      </trkpt>
      <trkpt lat="43.5616" lon="3.81076">
        <ele>49</ele>
        <time>2020-08-02T06:26:42.000Z</time>
      </trkpt>
      <trkpt lat="43.56158" lon="3.81076">
        <ele>49</ele>
        <time>2020-08-02T06:26:43.000Z</time>
      </trkpt>
      <trkpt lat="43.56156" lon="3.81075">
        <ele>49</ele>
        <time>2020-08-02T06:26:44.000Z</time>
      </trkpt>
      <trkpt lat="43.56154" lon="3.81075">
        <ele>49</ele>
        <time>2020-08-02T06:26:45.000Z</time>
      </trkpt>
      <trkpt lat="43.56152" lon="3.81074">
        <ele>49</ele>
        <time>2020-08-02T06:26:46.000Z</time>
      </trkpt>
      <trkpt lat="43.5615" lon="3.81073">
        <ele>49</ele>
        <time>2020-08-02T06:26:47.000Z</time>
      </trkpt>
      <trkpt lat="43.56147" lon="3.81071">
        <ele>49</ele>
        <time>2020-08-02T06:26:49.000Z</time>
      </trkpt>
      <trkpt lat="43.56145" lon="3.81071">
        <ele>49</ele>
        <time>2020-08-02T06:26:50.000Z</time>
      </trkpt>
      <trkpt lat="43.56143" lon="3.81071">
        <ele>49</ele>
        <time>2020-08-02T06:26:51.000Z</time>
      </trkpt>
      <trkpt lat="43.5614" lon="3.81071">
        <ele>49</ele>
        <time>2020-08-02T06:26:52.000Z</time>
      </trkpt>
      <trkpt lat="43.56138" lon="3.81071">
        <ele>49</ele>
        <time>2020-08-02T06:26:53.000Z</time>
      </trkpt>
      <trkpt lat="43.56136" lon="3.81071">
        <ele>49</ele>
        <time>2020-08-02T06:26:54.000Z</time>
      </trkpt>
      <trkpt lat="43.56134" lon="3.81071">
        <ele>49</ele>
        <time>2020-08-02T06:26:55.000Z</time>
      </trkpt>
      <trkpt lat="43.56131" lon="3.8107">
        <ele>49</ele>
        <time>2020-08-02T06:26:56.000Z</time>
      </trkpt>
      <trkpt lat="43.56129" lon="3.81069">
        <ele>49</ele>
        <time>2020-08-02T06:26:57.000Z</time>
      </trkpt>
      <trkpt lat="43.56127" lon="3.81067">
        <ele>48.95500032</ele>
        <time>2020-08-02T06:26:58.000Z</time>
      </trkpt>
      <trkpt lat="43.56125" lon="3.81066">
        <ele>48.85500032</ele>
        <time>2020-08-02T06:26:59.000Z</time>
      </trkpt>
      <trkpt lat="43.56123" lon="3.81064">
        <ele>48.75500032</ele>
        <time>2020-08-02T06:27:00.000Z</time>
      </trkpt>
      <trkpt lat="43.56121" lon="3.81063">
        <ele>48.65500032</ele>
        <time>2020-08-02T06:27:01.000Z</time>
      </trkpt>
      <trkpt lat="43.56119" lon="3.81061">
        <ele>48.55500032</ele>
        <time>2020-08-02T06:27:02.000Z</time>
      </trkpt>
      <trkpt lat="43.56117" lon="3.8106">
        <ele>48.45500032</ele>
        <time>2020-08-02T06:27:03.000Z</time>
      </trkpt>
      <trkpt lat="43.56115" lon="3.81059">
        <ele>48.35500032</ele>
        <time>2020-08-02T06:27:04.000Z</time>
      </trkpt>
      <trkpt lat="43.56113" lon="3.81058">
        <ele>48.25500032</ele>
        <time>2020-08-02T06:27:05.000Z</time>
      </trkpt>
      <trkpt lat="43.56111" lon="3.81056">
        <ele>48.15500032</ele>
        <time>2020-08-02T06:27:06.000Z</time>
      </trkpt>
      <trkpt lat="43.56109" lon="3.81055">
        <ele>48.05500032</ele>
        <time>2020-08-02T06:27:07.000Z</time>
      </trkpt>
      <trkpt lat="43.56108" lon="3.81053">
        <ele>47.95500032</ele>
        <time>2020-08-02T06:27:08.000Z</time>
      </trkpt>
      <trkpt lat="43.56106" lon="3.81053">
        <ele>47.85500032</ele>
        <time>2020-08-02T06:27:09.000Z</time>
      </trkpt>
      <trkpt lat="43.56102" lon="3.81053">
        <ele>47.65500032</ele>
        <time>2020-08-02T06:27:11.000Z</time>
      </trkpt>
      <trkpt lat="43.56099" lon="3.81052">
        <ele>47.45500032</ele>
        <time>2020-08-02T06:27:13.000Z</time>
      </trkpt>
      <trkpt lat="43.56097" lon="3.8105">
        <ele>47.35500032</ele>
        <time>2020-08-02T06:27:14.000Z</time>
      </trkpt>
      <trkpt lat="43.56096" lon="3.81048">
        <ele>47.25500032</ele>
        <time>2020-08-02T06:27:15.000Z</time>
      </trkpt>
      <trkpt lat="43.56093" lon="3.81046">
        <ele>47.05500032</ele>
        <time>2020-08-02T06:27:17.000Z</time>
      </trkpt>
      <trkpt lat="43.5609" lon="3.81045">
        <ele>46.85500032</ele>
        <time>2020-08-02T06:27:19.000Z</time>
      </trkpt>
      <trkpt lat="43.56086" lon="3.81046">
        <ele>46.65500032</ele>
        <time>2020-08-02T06:27:21.000Z</time>
      </trkpt>
      <trkpt lat="43.56083" lon="3.81047">
        <ele>46.45500032</ele>
        <time>2020-08-02T06:27:23.000Z</time>
      </trkpt>
      <trkpt lat="43.5608" lon="3.81049">
        <ele>46.25500032</ele>
        <time>2020-08-02T06:27:25.000Z</time>
      </trkpt>
      <trkpt lat="43.56078" lon="3.8105">
        <ele>46.15500032</ele>
        <time>2020-08-02T06:27:26.000Z</time>
      </trkpt>
      <trkpt lat="43.56077" lon="3.81051">
        <ele>46.05500032</ele>
        <time>2020-08-02T06:27:27.000Z</time>
      </trkpt>
      <trkpt lat="43.56074" lon="3.81054">
        <ele>45.717899455253</ele>
        <time>2020-08-02T06:27:29.000Z</time>
      </trkpt>
      <trkpt lat="43.5607" lon="3.81056">
        <ele>45.328794396887</ele>
        <time>2020-08-02T06:27:31.000Z</time>
      </trkpt>
      <trkpt lat="43.56067" lon="3.81056">
        <ele>44.939689338521</ele>
        <time>2020-08-02T06:27:33.000Z</time>
      </trkpt>
      <trkpt lat="43.56063" lon="3.81058">
        <ele>44.550584280156</ele>
        <time>2020-08-02T06:27:35.000Z</time>
      </trkpt>
      <trkpt lat="43.56062" lon="3.81059">
        <ele>44.356031750973</ele>
        <time>2020-08-02T06:27:36.000Z</time>
      </trkpt>
      <trkpt lat="43.5606" lon="3.81061">
        <ele>44.16147922179</ele>
        <time>2020-08-02T06:27:37.000Z</time>
      </trkpt>
      <trkpt lat="43.56058" lon="3.81062">
        <ele>43.982510617284</ele>
        <time>2020-08-02T06:27:38.000Z</time>
      </trkpt>
      <trkpt lat="43.56056" lon="3.81062">
        <ele>43.879629958848</ele>
        <time>2020-08-02T06:27:39.000Z</time>
      </trkpt>
      <trkpt lat="43.56054" lon="3.81063">
        <ele>43.673868641975</ele>
        <time>2020-08-02T06:27:41.000Z</time>
      </trkpt>
      <trkpt lat="43.56052" lon="3.81066">
        <ele>43.468107325103</ele>
        <time>2020-08-02T06:27:43.000Z</time>
      </trkpt>
      <trkpt lat="43.56051" lon="3.81068">
        <ele>43.365226666667</ele>
        <time>2020-08-02T06:27:44.000Z</time>
      </trkpt>
      <trkpt lat="43.5605" lon="3.8107">
        <ele>43.262346008231</ele>
        <time>2020-08-02T06:27:45.000Z</time>
      </trkpt>
      <trkpt lat="43.56046" lon="3.81072">
        <ele>43.056584691358</ele>
        <time>2020-08-02T06:27:47.000Z</time>
      </trkpt>
      <trkpt lat="43.56044" lon="3.8107">
        <ele>42.71000064</ele>
        <time>2020-08-02T06:27:49.000Z</time>
      </trkpt>
      <trkpt lat="43.56041" lon="3.81069">
        <ele>42.31000064</ele>
        <time>2020-08-02T06:27:51.000Z</time>
      </trkpt>
      <trkpt lat="43.56038" lon="3.81069">
        <ele>41.91000064</ele>
        <time>2020-08-02T06:27:53.000Z</time>
      </trkpt>
      <trkpt lat="43.56036" lon="3.81069">
        <ele>41.71000064</ele>
        <time>2020-08-02T06:27:54.000Z</time>
      </trkpt>
      <trkpt lat="43.56035" lon="3.81069">
        <ele>41.51000064</ele>
        <time>2020-08-02T06:27:55.000Z</time>
      </trkpt>
      <trkpt lat="43.56033" lon="3.81068">
        <ele>41.31000064</ele>
        <time>2020-08-02T06:27:56.000Z</time>
      </trkpt>
      <trkpt lat="43.56031" lon="3.81068">
        <ele>41.11000064</ele>
        <time>2020-08-02T06:27:57.000Z</time>
      </trkpt>
      <trkpt lat="43.56028" lon="3.81069">
        <ele>40.865135781062</ele>
        <time>2020-08-02T06:27:58.000Z</time>
      </trkpt>
      <trkpt lat="43.56026" lon="3.81069">
        <ele>40.565435385554</ele>
        <time>2020-08-02T06:27:59.000Z</time>
      </trkpt>
      <trkpt lat="43.56024" lon="3.8107">
        <ele>40.265734990045</ele>
        <time>2020-08-02T06:28:00.000Z</time>
      </trkpt>
      <trkpt lat="43.56022" lon="3.8107">
        <ele>39.966034594537</ele>
        <time>2020-08-02T06:28:01.000Z</time>
      </trkpt>
      <trkpt lat="43.5602" lon="3.81071">
        <ele>39.666334199028</ele>
        <time>2020-08-02T06:28:02.000Z</time>
      </trkpt>
      <trkpt lat="43.56018" lon="3.81072">
        <ele>39.366633803519</ele>
        <time>2020-08-02T06:28:03.000Z</time>
      </trkpt>
      <trkpt lat="43.56015" lon="3.81073">
        <ele>39.066933408011</ele>
        <time>2020-08-02T06:28:04.000Z</time>
      </trkpt>
      <trkpt lat="43.56013" lon="3.81074">
        <ele>38.767233012502</ele>
        <time>2020-08-02T06:28:05.000Z</time>
      </trkpt>
      <trkpt lat="43.5601" lon="3.81075">
        <ele>38.467532616993</ele>
        <time>2020-08-02T06:28:06.000Z</time>
      </trkpt>
      <trkpt lat="43.56008" lon="3.81075">
        <ele>38.167832221485</ele>
        <time>2020-08-02T06:28:07.000Z</time>
      </trkpt>
      <trkpt lat="43.56005" lon="3.81076">
        <ele>37.823823880257</ele>
        <time>2020-08-02T06:28:08.000Z</time>
      </trkpt>
      <trkpt lat="43.56003" lon="3.81077">
        <ele>37.423423608113</ele>
        <time>2020-08-02T06:28:09.000Z</time>
      </trkpt>
      <trkpt lat="43.56001" lon="3.81077">
        <ele>37.023023335969</ele>
        <time>2020-08-02T06:28:10.000Z</time>
      </trkpt>
      <trkpt lat="43.55999" lon="3.81078">
        <ele>36.622623063824</ele>
        <time>2020-08-02T06:28:11.000Z</time>
      </trkpt>
      <trkpt lat="43.55997" lon="3.81078">
        <ele>36.22222279168</ele>
        <time>2020-08-02T06:28:12.000Z</time>
      </trkpt>
      <trkpt lat="43.55995" lon="3.81078">
        <ele>35.821822519536</ele>
        <time>2020-08-02T06:28:13.000Z</time>
      </trkpt>
      <trkpt lat="43.55993" lon="3.81078">
        <ele>35.421422247392</ele>
        <time>2020-08-02T06:28:14.000Z</time>
      </trkpt>
      <trkpt lat="43.55991" lon="3.81079">
        <ele>35.021021975248</ele>
        <time>2020-08-02T06:28:15.000Z</time>
      </trkpt>
      <trkpt lat="43.55989" lon="3.8108">
        <ele>34.620621703104</ele>
        <time>2020-08-02T06:28:16.000Z</time>
      </trkpt>
      <trkpt lat="43.55986" lon="3.81081">
        <ele>34.22022143096</ele>
        <time>2020-08-02T06:28:17.000Z</time>
      </trkpt>
      <trkpt lat="43.55985" lon="3.81082">
        <ele>33.938525027322</ele>
        <time>2020-08-02T06:28:18.000Z</time>
      </trkpt>
      <trkpt lat="43.55983" lon="3.81083">
        <ele>33.665300983607</ele>
        <time>2020-08-02T06:28:20.000Z</time>
      </trkpt>
      <trkpt lat="43.55983" lon="3.81082">
        <ele>32.9872</ele>
        <time>2020-08-02T06:28:25.000Z</time>
      </trkpt>
      <trkpt lat="43.55978" lon="3.81091">
        <ele>28.978169494773</ele>
        <time>2020-08-02T06:28:50.000Z</time>
      </trkpt>
      <trkpt lat="43.55977" lon="3.81093">
        <ele>28.66631939039</ele>
        <time>2020-08-02T06:28:51.000Z</time>
      </trkpt>
      <trkpt lat="43.55977" lon="3.81098">
        <ele>28.042619181626</ele>
        <time>2020-08-02T06:28:53.000Z</time>
      </trkpt>
      <trkpt lat="43.55978" lon="3.811">
        <ele>27.730769077243</ele>
        <time>2020-08-02T06:28:54.000Z</time>
      </trkpt>
      <trkpt lat="43.5598" lon="3.81102">
        <ele>27.418918972861</ele>
        <time>2020-08-02T06:28:55.000Z</time>
      </trkpt>
      <trkpt lat="43.55982" lon="3.81105">
        <ele>27.107068868478</ele>
        <time>2020-08-02T06:28:56.000Z</time>
      </trkpt>
      <trkpt lat="43.55985" lon="3.81109">
        <ele>26.795218764096</ele>
        <time>2020-08-02T06:28:57.000Z</time>
      </trkpt>
      <trkpt lat="43.55987" lon="3.81112">
        <ele>26.483368659713</ele>
        <time>2020-08-02T06:28:58.000Z</time>
      </trkpt>
      <trkpt lat="43.5599" lon="3.81116">
        <ele>26.171518555331</ele>
        <time>2020-08-02T06:28:59.000Z</time>
      </trkpt>
      <trkpt lat="43.55992" lon="3.81119">
        <ele>25.911067826087</ele>
        <time>2020-08-02T06:29:00.000Z</time>
      </trkpt>
      <trkpt lat="43.55994" lon="3.81123">
        <ele>25.713439367589</ele>
        <time>2020-08-02T06:29:01.000Z</time>
      </trkpt>
      <trkpt lat="43.55996" lon="3.81127">
        <ele>25.515810909091</ele>
        <time>2020-08-02T06:29:02.000Z</time>
      </trkpt>
      <trkpt lat="43.55998" lon="3.8113">
        <ele>25.318182450593</ele>
        <time>2020-08-02T06:29:03.000Z</time>
      </trkpt>
      <trkpt lat="43.56" lon="3.81133">
        <ele>25.120553992095</ele>
        <time>2020-08-02T06:29:04.000Z</time>
      </trkpt>
      <trkpt lat="43.56001" lon="3.81137">
        <ele>24.922925533597</ele>
        <time>2020-08-02T06:29:05.000Z</time>
      </trkpt>
      <trkpt lat="43.56003" lon="3.8114">
        <ele>24.725297075099</ele>
        <time>2020-08-02T06:29:06.000Z</time>
      </trkpt>
      <trkpt lat="43.56004" lon="3.81144">
        <ele>24.527668616601</ele>
        <time>2020-08-02T06:29:07.000Z</time>
      </trkpt>
      <trkpt lat="43.56006" lon="3.81147">
        <ele>24.330040158103</ele>
        <time>2020-08-02T06:29:08.000Z</time>
      </trkpt>
      <trkpt lat="43.56008" lon="3.81151">
        <ele>24.132411699605</ele>
        <time>2020-08-02T06:29:09.000Z</time>
      </trkpt>
      <trkpt lat="43.56009" lon="3.81154">
        <ele>23.93319902834</ele>
        <time>2020-08-02T06:29:10.000Z</time>
      </trkpt>
      <trkpt lat="43.5601" lon="3.81157">
        <ele>23.730769878542</ele>
        <time>2020-08-02T06:29:11.000Z</time>
      </trkpt>
      <trkpt lat="43.56012" lon="3.8116">
        <ele>23.528340728745</ele>
        <time>2020-08-02T06:29:12.000Z</time>
      </trkpt>
      <trkpt lat="43.56013" lon="3.81163">
        <ele>23.325911578947</ele>
        <time>2020-08-02T06:29:13.000Z</time>
      </trkpt>
      <trkpt lat="43.56014" lon="3.81167">
        <ele>23.12348242915</ele>
        <time>2020-08-02T06:29:14.000Z</time>
      </trkpt>
      <trkpt lat="43.56015" lon="3.8117">
        <ele>22.921053279352</ele>
        <time>2020-08-02T06:29:15.000Z</time>
      </trkpt>
      <trkpt lat="43.56017" lon="3.81174">
        <ele>22.718624129555</ele>
        <time>2020-08-02T06:29:16.000Z</time>
      </trkpt>
      <trkpt lat="43.56018" lon="3.81178">
        <ele>22.516194979757</ele>
        <time>2020-08-02T06:29:17.000Z</time>
      </trkpt>
      <trkpt lat="43.5602" lon="3.81181">
        <ele>22.31376582996</ele>
        <time>2020-08-02T06:29:18.000Z</time>
      </trkpt>
      <trkpt lat="43.56021" lon="3.81185">
        <ele>22.111336680162</ele>
        <time>2020-08-02T06:29:19.000Z</time>
      </trkpt>
      <trkpt lat="43.56022" lon="3.81189">
        <ele>21.95500032</ele>
        <time>2020-08-02T06:29:20.000Z</time>
      </trkpt>
      <trkpt lat="43.56023" lon="3.81192">
        <ele>21.85500032</ele>
        <time>2020-08-02T06:29:21.000Z</time>
      </trkpt>
      <trkpt lat="43.56024" lon="3.81195">
        <ele>21.75500032</ele>
        <time>2020-08-02T06:29:22.000Z</time>
      </trkpt>
      <trkpt lat="43.56026" lon="3.81199">
        <ele>21.55500032</ele>
        <time>2020-08-02T06:29:24.000Z</time>
      </trkpt>
      <trkpt lat="43.56027" lon="3.81201">
        <ele>21</ele>
        <time>2020-08-02T06:29:30.000Z</time>
      </trkpt>
      <trkpt lat="43.56027" lon="3.81201">
        <ele>20.996812748191</ele>
        <time>2020-08-02T06:29:31.000Z</time>
      </trkpt>
      <trkpt lat="43.56029" lon="3.81213">
        <ele>20.000796557972</ele>
        <time>2020-08-02T06:29:56.000Z</time>
      </trkpt>
      <trkpt lat="43.56029" lon="3.81215">
        <ele>20</ele>
        <time>2020-08-02T06:29:57.000Z</time>
      </trkpt>
      <trkpt lat="43.56029" lon="3.81219">
        <ele>20</ele>
        <time>2020-08-02T06:29:59.000Z</time>
      </trkpt>
      <trkpt lat="43.56029" lon="3.81224">
        <ele>20</ele>
        <time>2020-08-02T06:30:01.000Z</time>
      </trkpt>
      <trkpt lat="43.56028" lon="3.81226">
        <ele>20</ele>
        <time>2020-08-02T06:30:02.000Z</time>
      </trkpt>
      <trkpt lat="43.56027" lon="3.81229">
        <ele>20</ele>
        <time>2020-08-02T06:30:03.000Z</time>
      </trkpt>
      <trkpt lat="43.56027" lon="3.81233">
        <ele>20</ele>
        <time>2020-08-02T06:30:04.000Z</time>
      </trkpt>
      <trkpt lat="43.56026" lon="3.81236">
        <ele>20</ele>
        <time>2020-08-02T06:30:05.000Z</time>
      </trkpt>
      <trkpt lat="43.56026" lon="3.81239">
        <ele>20</ele>
        <time>2020-08-02T06:30:06.000Z</time>
      </trkpt>
      <trkpt lat="43.56025" lon="3.81242">
        <ele>20</ele>
        <time>2020-08-02T06:30:07.000Z</time>
      </trkpt>
      <trkpt lat="43.56025" lon="3.81245">
        <ele>20</ele>
        <time>2020-08-02T06:30:08.000Z</time>
      </trkpt>
      <trkpt lat="43.56025" lon="3.81249">
        <ele>20</ele>
        <time>2020-08-02T06:30:10.000Z</time>
      </trkpt>
      <trkpt lat="43.56025" lon="3.81252">
        <ele>20</ele>
        <time>2020-08-02T06:30:11.000Z</time>
      </trkpt>
      <trkpt lat="43.56024" lon="3.81254">
        <ele>20</ele>
        <time>2020-08-02T06:30:12.000Z</time>
      </trkpt>
      <trkpt lat="43.56024" lon="3.81257">
        <ele>20</ele>
        <time>2020-08-02T06:30:13.000Z</time>
      </trkpt>
      <trkpt lat="43.56024" lon="3.8126">
        <ele>20</ele>
        <time>2020-08-02T06:30:14.000Z</time>
      </trkpt>
      <trkpt lat="43.56023" lon="3.81263">
        <ele>20</ele>
        <time>2020-08-02T06:30:15.000Z</time>
      </trkpt>
      <trkpt lat="43.56022" lon="3.81265">
        <ele>20.016477852448</ele>
        <time>2020-08-02T06:30:16.000Z</time>
      </trkpt>
      <trkpt lat="43.56021" lon="3.81269">
        <ele>20.222451008049</ele>
        <time>2020-08-02T06:30:18.000Z</time>
      </trkpt>
      <trkpt lat="43.56021" lon="3.81272">
        <ele>20.32543758585</ele>
        <time>2020-08-02T06:30:19.000Z</time>
      </trkpt>
      <trkpt lat="43.56022" lon="3.81275">
        <ele>20.42842416365</ele>
        <time>2020-08-02T06:30:20.000Z</time>
      </trkpt>
      <trkpt lat="43.56023" lon="3.81277">
        <ele>20.531410741451</ele>
        <time>2020-08-02T06:30:21.000Z</time>
      </trkpt>
      <trkpt lat="43.56025" lon="3.8128">
        <ele>20.634397319251</ele>
        <time>2020-08-02T06:30:22.000Z</time>
      </trkpt>
      <trkpt lat="43.56026" lon="3.81282">
        <ele>20.737383897052</ele>
        <time>2020-08-02T06:30:23.000Z</time>
      </trkpt>
      <trkpt lat="43.56027" lon="3.81285">
        <ele>20.840370474852</ele>
        <time>2020-08-02T06:30:24.000Z</time>
      </trkpt>
      <trkpt lat="43.56027" lon="3.81288">
        <ele>20.943357052653</ele>
        <time>2020-08-02T06:30:25.000Z</time>
      </trkpt>
      <trkpt lat="43.56027" lon="3.81292">
        <ele>21.04499968</ele>
        <time>2020-08-02T06:30:26.000Z</time>
      </trkpt>
      <trkpt lat="43.56026" lon="3.81296">
        <ele>21.14499968</ele>
        <time>2020-08-02T06:30:27.000Z</time>
      </trkpt>
      <trkpt lat="43.56026" lon="3.813">
        <ele>21.24499968</ele>
        <time>2020-08-02T06:30:28.000Z</time>
      </trkpt>
      <trkpt lat="43.56025" lon="3.81304">
        <ele>21.34499968</ele>
        <time>2020-08-02T06:30:29.000Z</time>
      </trkpt>
      <trkpt lat="43.56024" lon="3.81307">
        <ele>21.44499968</ele>
        <time>2020-08-02T06:30:30.000Z</time>
      </trkpt>
      <trkpt lat="43.56023" lon="3.81311">
        <ele>21.54499968</ele>
        <time>2020-08-02T06:30:31.000Z</time>
      </trkpt>
      <trkpt lat="43.56023" lon="3.81314">
        <ele>21.64499968</ele>
        <time>2020-08-02T06:30:32.000Z</time>
      </trkpt>
      <trkpt lat="43.56021" lon="3.81316">
        <ele>21.74499968</ele>
        <time>2020-08-02T06:30:33.000Z</time>
      </trkpt>
      <trkpt lat="43.5602" lon="3.81319">
        <ele>21.94499968</ele>
        <time>2020-08-02T06:30:35.000Z</time>
      </trkpt>
      <trkpt lat="43.5602" lon="3.81319">
        <ele>22</ele>
        <time>2020-08-02T06:30:39.000Z</time>
      </trkpt>
      <trkpt lat="43.56019" lon="3.81326">
        <ele>22</ele>
        <time>2020-08-02T06:30:56.000Z</time>
      </trkpt>
      <trkpt lat="43.56018" lon="3.8133">
        <ele>22</ele>
        <time>2020-08-02T06:30:58.000Z</time>
      </trkpt>
      <trkpt lat="43.56018" lon="3.81333">
        <ele>22</ele>
        <time>2020-08-02T06:30:59.000Z</time>
      </trkpt>
      <trkpt lat="43.56017" lon="3.81336">
        <ele>22</ele>
        <time>2020-08-02T06:31:00.000Z</time>
      </trkpt>
      <trkpt lat="43.56016" lon="3.81338">
        <ele>22</ele>
        <time>2020-08-02T06:31:01.000Z</time>
      </trkpt>
      <trkpt lat="43.56015" lon="3.81343">
        <ele>22</ele>
        <time>2020-08-02T06:31:03.000Z</time>
      </trkpt>
      <trkpt lat="43.56014" lon="3.81348">
        <ele>22</ele>
        <time>2020-08-02T06:31:05.000Z</time>
      </trkpt>
      <trkpt lat="43.56013" lon="3.81352">
        <ele>22.1409132411</ele>
        <time>2020-08-02T06:31:07.000Z</time>
      </trkpt>
      <trkpt lat="43.56011" lon="3.81356">
        <ele>22.335276761213</ele>
        <time>2020-08-02T06:31:09.000Z</time>
      </trkpt>
      <trkpt lat="43.5601" lon="3.8136">
        <ele>22.529640281326</ele>
        <time>2020-08-02T06:31:11.000Z</time>
      </trkpt>
      <trkpt lat="43.5601" lon="3.81363">
        <ele>22.72400380144</ele>
        <time>2020-08-02T06:31:13.000Z</time>
      </trkpt>
      <trkpt lat="43.56012" lon="3.81366">
        <ele>22.918367321552</ele>
        <time>2020-08-02T06:31:15.000Z</time>
      </trkpt>
      <trkpt lat="43.56012" lon="3.81368">
        <ele>23.016477852448</ele>
        <time>2020-08-02T06:31:16.000Z</time>
      </trkpt>
      <trkpt lat="43.56013" lon="3.81372">
        <ele>23.119464430249</ele>
        <time>2020-08-02T06:31:17.000Z</time>
      </trkpt>
      <trkpt lat="43.56014" lon="3.81375">
        <ele>23.222451008049</ele>
        <time>2020-08-02T06:31:18.000Z</time>
      </trkpt>
      <trkpt lat="43.56014" lon="3.81378">
        <ele>23.32543758585</ele>
        <time>2020-08-02T06:31:19.000Z</time>
      </trkpt>
      <trkpt lat="43.56014" lon="3.81381">
        <ele>23.42842416365</ele>
        <time>2020-08-02T06:31:20.000Z</time>
      </trkpt>
      <trkpt lat="43.56014" lon="3.81385">
        <ele>23.531410741451</ele>
        <time>2020-08-02T06:31:21.000Z</time>
      </trkpt>
      <trkpt lat="43.56014" lon="3.81389">
        <ele>23.634397319251</ele>
        <time>2020-08-02T06:31:22.000Z</time>
      </trkpt>
      <trkpt lat="43.56014" lon="3.81394">
        <ele>23.737383897052</ele>
        <time>2020-08-02T06:31:23.000Z</time>
      </trkpt>
      <trkpt lat="43.56014" lon="3.81398">
        <ele>23.840370474852</ele>
        <time>2020-08-02T06:31:24.000Z</time>
      </trkpt>
      <trkpt lat="43.56014" lon="3.81402">
        <ele>23.943357052653</ele>
        <time>2020-08-02T06:31:25.000Z</time>
      </trkpt>
      <trkpt lat="43.56014" lon="3.81406">
        <ele>24</ele>
        <time>2020-08-02T06:31:26.000Z</time>
      </trkpt>
      <trkpt lat="43.56014" lon="3.8141">
        <ele>24</ele>
        <time>2020-08-02T06:31:27.000Z</time>
      </trkpt>
      <trkpt lat="43.56013" lon="3.81413">
        <ele>24</ele>
        <time>2020-08-02T06:31:28.000Z</time>
      </trkpt>
      <trkpt lat="43.56013" lon="3.81417">
        <ele>24</ele>
        <time>2020-08-02T06:31:29.000Z</time>
      </trkpt>
      <trkpt lat="43.56012" lon="3.8142">
        <ele>24</ele>
        <time>2020-08-02T06:31:30.000Z</time>
      </trkpt>
      <trkpt lat="43.56012" lon="3.81423">
        <ele>24</ele>
        <time>2020-08-02T06:31:31.000Z</time>
      </trkpt>
      <trkpt lat="43.56013" lon="3.81426">
        <ele>24</ele>
        <time>2020-08-02T06:31:32.000Z</time>
      </trkpt>
      <trkpt lat="43.56013" lon="3.81431">
        <ele>24</ele>
        <time>2020-08-02T06:31:34.000Z</time>
      </trkpt>
      <trkpt lat="43.56012" lon="3.81433">
        <ele>24</ele>
        <time>2020-08-02T06:31:35.000Z</time>
      </trkpt>
      <trkpt lat="43.56012" lon="3.81436">
        <ele>24</ele>
        <time>2020-08-02T06:31:36.000Z</time>
      </trkpt>
      <trkpt lat="43.5601" lon="3.8144">
        <ele>24</ele>
        <time>2020-08-02T06:31:37.000Z</time>
      </trkpt>
      <trkpt lat="43.56009" lon="3.81444">
        <ele>24</ele>
        <time>2020-08-02T06:31:38.000Z</time>
      </trkpt>
      <trkpt lat="43.56009" lon="3.81448">
        <ele>24</ele>
        <time>2020-08-02T06:31:39.000Z</time>
      </trkpt>
      <trkpt lat="43.56008" lon="3.81453">
        <ele>24</ele>
        <time>2020-08-02T06:31:40.000Z</time>
      </trkpt>
      <trkpt lat="43.56007" lon="3.81457">
        <ele>24</ele>
        <time>2020-08-02T06:31:41.000Z</time>
      </trkpt>
      <trkpt lat="43.56006" lon="3.81461">
        <ele>24</ele>
        <time>2020-08-02T06:31:42.000Z</time>
      </trkpt>
      <trkpt lat="43.56006" lon="3.81465">
        <ele>24</ele>
        <time>2020-08-02T06:31:43.000Z</time>
      </trkpt>
      <trkpt lat="43.56005" lon="3.81468">
        <ele>24</ele>
        <time>2020-08-02T06:31:44.000Z</time>
      </trkpt>
      <trkpt lat="43.56004" lon="3.81471">
        <ele>24</ele>
        <time>2020-08-02T06:31:45.000Z</time>
      </trkpt>
      <trkpt lat="43.56002" lon="3.81472">
        <ele>24</ele>
        <time>2020-08-02T06:31:46.000Z</time>
      </trkpt>
      <trkpt lat="43.56" lon="3.81473">
        <ele>24</ele>
        <time>2020-08-02T06:31:47.000Z</time>
      </trkpt>
      <trkpt lat="43.55999" lon="3.81474">
        <ele>24</ele>
        <time>2020-08-02T06:31:48.000Z</time>
      </trkpt>
      <trkpt lat="43.55997" lon="3.81476">
        <ele>24</ele>
        <time>2020-08-02T06:31:49.000Z</time>
      </trkpt>
      <trkpt lat="43.55994" lon="3.81489">
        <ele>24</ele>
        <time>2020-08-02T06:31:54.000Z</time>
      </trkpt>
      <trkpt lat="43.55989" lon="3.81504">
        <ele>23.755755833992</ele>
        <time>2020-08-02T06:31:58.000Z</time>
      </trkpt>
      <trkpt lat="43.55983" lon="3.81514">
        <ele>23.355355561848</ele>
        <time>2020-08-02T06:32:02.000Z</time>
      </trkpt>
      <trkpt lat="43.55977" lon="3.81525">
        <ele>22.95500032</ele>
        <time>2020-08-02T06:32:06.000Z</time>
      </trkpt>
      <trkpt lat="43.55971" lon="3.81538">
        <ele>22.45500032</ele>
        <time>2020-08-02T06:32:11.000Z</time>
      </trkpt>
      <trkpt lat="43.55965" lon="3.81549">
        <ele>21.85500032</ele>
        <time>2020-08-02T06:32:17.000Z</time>
      </trkpt>
      <trkpt lat="43.5596" lon="3.81553">
        <ele>21.55500032</ele>
        <time>2020-08-02T06:32:20.000Z</time>
      </trkpt>
      <trkpt lat="43.5596" lon="3.81554">
        <ele>21</ele>
        <time>2020-08-02T06:32:28.000Z</time>
      </trkpt>
      <trkpt lat="43.55957" lon="3.81562">
        <ele>21</ele>
        <time>2020-08-02T06:33:08.000Z</time>
      </trkpt>
      <trkpt lat="43.55955" lon="3.81562">
        <ele>21</ele>
        <time>2020-08-02T06:33:09.000Z</time>
      </trkpt>
      <trkpt lat="43.55953" lon="3.81564">
        <ele>21</ele>
        <time>2020-08-02T06:33:11.000Z</time>
      </trkpt>
      <trkpt lat="43.55951" lon="3.81569">
        <ele>21</ele>
        <time>2020-08-02T06:33:13.000Z</time>
      </trkpt>
      <trkpt lat="43.55949" lon="3.81571">
        <ele>21</ele>
        <time>2020-08-02T06:33:14.000Z</time>
      </trkpt>
      <trkpt lat="43.55947" lon="3.81572">
        <ele>21</ele>
        <time>2020-08-02T06:33:15.000Z</time>
      </trkpt>
      <trkpt lat="43.55945" lon="3.81572">
        <ele>21</ele>
        <time>2020-08-02T06:33:16.000Z</time>
      </trkpt>
      <trkpt lat="43.55942" lon="3.81574">
        <ele>20.956268518956</ele>
        <time>2020-08-02T06:33:18.000Z</time>
      </trkpt>
      <trkpt lat="43.5594" lon="3.81576">
        <ele>20.761904998843</ele>
        <time>2020-08-02T06:33:20.000Z</time>
      </trkpt>
      <trkpt lat="43.55938" lon="3.81578">
        <ele>20.664723238787</ele>
        <time>2020-08-02T06:33:21.000Z</time>
      </trkpt>
      <trkpt lat="43.55937" lon="3.8158">
        <ele>20.56754147873</ele>
        <time>2020-08-02T06:33:22.000Z</time>
      </trkpt>
      <trkpt lat="43.55935" lon="3.81583">
        <ele>20.470359718674</ele>
        <time>2020-08-02T06:33:23.000Z</time>
      </trkpt>
      <trkpt lat="43.55934" lon="3.81585">
        <ele>20.373177958617</ele>
        <time>2020-08-02T06:33:24.000Z</time>
      </trkpt>
      <trkpt lat="43.55932" lon="3.81587">
        <ele>20.27599619856</ele>
        <time>2020-08-02T06:33:25.000Z</time>
      </trkpt>
      <trkpt lat="43.55931" lon="3.81589">
        <ele>20.178814438504</ele>
        <time>2020-08-02T06:33:26.000Z</time>
      </trkpt>
      <trkpt lat="43.55928" lon="3.81593">
        <ele>20.01646090535</ele>
        <time>2020-08-02T06:33:28.000Z</time>
      </trkpt>
      <trkpt lat="43.55926" lon="3.81596">
        <ele>20.222222222222</ele>
        <time>2020-08-02T06:33:30.000Z</time>
      </trkpt>
      <trkpt lat="43.55926" lon="3.81599">
        <ele>20.427983539095</ele>
        <time>2020-08-02T06:33:32.000Z</time>
      </trkpt>
      <trkpt lat="43.55924" lon="3.81604">
        <ele>20.633744855967</ele>
        <time>2020-08-02T06:33:34.000Z</time>
      </trkpt>
      <trkpt lat="43.55923" lon="3.81606">
        <ele>20.736625514403</ele>
        <time>2020-08-02T06:33:35.000Z</time>
      </trkpt>
      <trkpt lat="43.55921" lon="3.81607">
        <ele>20.839506172839</ele>
        <time>2020-08-02T06:33:36.000Z</time>
      </trkpt>
      <trkpt lat="43.55919" lon="3.81607">
        <ele>20.942386831276</ele>
        <time>2020-08-02T06:33:37.000Z</time>
      </trkpt>
      <trkpt lat="43.55917" lon="3.81608">
        <ele>21.04280155642</ele>
        <time>2020-08-02T06:33:38.000Z</time>
      </trkpt>
      <trkpt lat="43.55914" lon="3.81609">
        <ele>21.237354085603</ele>
        <time>2020-08-02T06:33:40.000Z</time>
      </trkpt>
      <trkpt lat="43.55913" lon="3.8161">
        <ele>21.529182879377</ele>
        <time>2020-08-02T06:33:43.000Z</time>
      </trkpt>
      <trkpt lat="43.55911" lon="3.81612">
        <ele>21.72373540856</ele>
        <time>2020-08-02T06:33:45.000Z</time>
      </trkpt>
      <trkpt lat="43.55908" lon="3.81612">
        <ele>22</ele>
        <time>2020-08-02T06:33:48.000Z</time>
      </trkpt>
      <trkpt lat="43.55906" lon="3.81613">
        <ele>22</ele>
        <time>2020-08-02T06:33:50.000Z</time>
      </trkpt>
      <trkpt lat="43.55904" lon="3.81614">
        <ele>22</ele>
        <time>2020-08-02T06:33:51.000Z</time>
      </trkpt>
      <trkpt lat="43.55902" lon="3.81614">
        <ele>22</ele>
        <time>2020-08-02T06:33:52.000Z</time>
      </trkpt>
      <trkpt lat="43.559" lon="3.81614">
        <ele>22</ele>
        <time>2020-08-02T06:33:53.000Z</time>
      </trkpt>
      <trkpt lat="43.55897" lon="3.81615">
        <ele>22</ele>
        <time>2020-08-02T06:33:55.000Z</time>
      </trkpt>
      <trkpt lat="43.55896" lon="3.81617">
        <ele>22</ele>
        <time>2020-08-02T06:33:57.000Z</time>
      </trkpt>
      <trkpt lat="43.55894" lon="3.81621">
        <ele>22</ele>
        <time>2020-08-02T06:33:59.000Z</time>
      </trkpt>
      <trkpt lat="43.55891" lon="3.81623">
        <ele>22</ele>
        <time>2020-08-02T06:34:01.000Z</time>
      </trkpt>
      <trkpt lat="43.55889" lon="3.81623">
        <ele>22</ele>
        <time>2020-08-02T06:34:03.000Z</time>
      </trkpt>
      <trkpt lat="43.55886" lon="3.81624">
        <ele>22</ele>
        <time>2020-08-02T06:34:05.000Z</time>
      </trkpt>
      <trkpt lat="43.55884" lon="3.81625">
        <ele>22</ele>
        <time>2020-08-02T06:34:07.000Z</time>
      </trkpt>
      <trkpt lat="43.55881" lon="3.81626">
        <ele>22</ele>
        <time>2020-08-02T06:34:09.000Z</time>
      </trkpt>
      <trkpt lat="43.5588" lon="3.81628">
        <ele>22</ele>
        <time>2020-08-02T06:34:11.000Z</time>
      </trkpt>
      <trkpt lat="43.55879" lon="3.8163">
        <ele>22</ele>
        <time>2020-08-02T06:34:17.000Z</time>
      </trkpt>
      <trkpt lat="43.55873" lon="3.81634">
        <ele>22</ele>
        <time>2020-08-02T06:34:32.000Z</time>
      </trkpt>
      <trkpt lat="43.55872" lon="3.81633">
        <ele>21</ele>
        <time>2020-08-02T06:34:39.000Z</time>
      </trkpt>
      <trkpt lat="43.55862" lon="3.81638">
        <ele>21.999333706465</ele>
        <time>2020-08-02T06:35:24.000Z</time>
      </trkpt>
      <trkpt lat="43.55858" lon="3.8164">
        <ele>21.793901226027</ele>
        <time>2020-08-02T06:35:26.000Z</time>
      </trkpt>
      <trkpt lat="43.55857" lon="3.81642">
        <ele>21.688748790326</ele>
        <time>2020-08-02T06:35:27.000Z</time>
      </trkpt>
      <trkpt lat="43.55855" lon="3.81643">
        <ele>21.583596354626</ele>
        <time>2020-08-02T06:35:28.000Z</time>
      </trkpt>
      <trkpt lat="43.55852" lon="3.81646">
        <ele>21.373291483225</ele>
        <time>2020-08-02T06:35:30.000Z</time>
      </trkpt>
      <trkpt lat="43.5585" lon="3.81647">
        <ele>21.268139047524</ele>
        <time>2020-08-02T06:35:31.000Z</time>
      </trkpt>
      <trkpt lat="43.55847" lon="3.81648">
        <ele>21.057834176123</ele>
        <time>2020-08-02T06:35:33.000Z</time>
      </trkpt>
      <trkpt lat="43.55845" lon="3.81649">
        <ele>21.043774007782</ele>
        <time>2020-08-02T06:35:34.000Z</time>
      </trkpt>
      <trkpt lat="43.55842" lon="3.8165">
        <ele>21.141050272374</ele>
        <time>2020-08-02T06:35:35.000Z</time>
      </trkpt>
      <trkpt lat="43.5584" lon="3.81651">
        <ele>21.238326536965</ele>
        <time>2020-08-02T06:35:36.000Z</time>
      </trkpt>
      <trkpt lat="43.55838" lon="3.81653">
        <ele>21.335602801556</ele>
        <time>2020-08-02T06:35:37.000Z</time>
      </trkpt>
      <trkpt lat="43.55836" lon="3.81655">
        <ele>21.432879066148</ele>
        <time>2020-08-02T06:35:38.000Z</time>
      </trkpt>
      <trkpt lat="43.55834" lon="3.81656">
        <ele>21.530155330739</ele>
        <time>2020-08-02T06:35:39.000Z</time>
      </trkpt>
      <trkpt lat="43.55833" lon="3.81657">
        <ele>21.627431595331</ele>
        <time>2020-08-02T06:35:40.000Z</time>
      </trkpt>
      <trkpt lat="43.5583" lon="3.81658">
        <ele>21.821984124514</ele>
        <time>2020-08-02T06:35:42.000Z</time>
      </trkpt>
      <trkpt lat="43.55828" lon="3.8166">
        <ele>21.982528586238</ele>
        <time>2020-08-02T06:35:44.000Z</time>
      </trkpt>
      <trkpt lat="43.55827" lon="3.81663">
        <ele>21.776978672799</ele>
        <time>2020-08-02T06:35:46.000Z</time>
      </trkpt>
      <trkpt lat="43.55826" lon="3.81665">
        <ele>21.674203716079</ele>
        <time>2020-08-02T06:35:47.000Z</time>
      </trkpt>
      <trkpt lat="43.55825" lon="3.81668">
        <ele>21.57142875936</ele>
        <time>2020-08-02T06:35:48.000Z</time>
      </trkpt>
      <trkpt lat="43.55821" lon="3.8167">
        <ele>21.365878845921</ele>
        <time>2020-08-02T06:35:50.000Z</time>
      </trkpt>
      <trkpt lat="43.55819" lon="3.81671">
        <ele>21.263103889202</ele>
        <time>2020-08-02T06:35:51.000Z</time>
      </trkpt>
      <trkpt lat="43.55817" lon="3.81673">
        <ele>21.160328932482</ele>
        <time>2020-08-02T06:35:52.000Z</time>
      </trkpt>
      <trkpt lat="43.55814" lon="3.81675">
        <ele>21.057553975763</ele>
        <time>2020-08-02T06:35:53.000Z</time>
      </trkpt>
      <trkpt lat="43.55811" lon="3.81676">
        <ele>20.956043941992</ele>
        <time>2020-08-02T06:35:54.000Z</time>
      </trkpt>
      <trkpt lat="43.55809" lon="3.81678">
        <ele>20.856143810156</ele>
        <time>2020-08-02T06:35:55.000Z</time>
      </trkpt>
      <trkpt lat="43.55807" lon="3.81679">
        <ele>20.75624367832</ele>
        <time>2020-08-02T06:35:56.000Z</time>
      </trkpt>
      <trkpt lat="43.55805" lon="3.81681">
        <ele>20.656343546484</ele>
        <time>2020-08-02T06:35:57.000Z</time>
      </trkpt>
      <trkpt lat="43.55803" lon="3.81684">
        <ele>20.556443414647</ele>
        <time>2020-08-02T06:35:58.000Z</time>
      </trkpt>
      <trkpt lat="43.558" lon="3.81685">
        <ele>20.456543282811</ele>
        <time>2020-08-02T06:35:59.000Z</time>
      </trkpt>
      <trkpt lat="43.55797" lon="3.81687">
        <ele>20.356643150975</ele>
        <time>2020-08-02T06:36:00.000Z</time>
      </trkpt>
      <trkpt lat="43.55793" lon="3.81688">
        <ele>20.256743019139</ele>
        <time>2020-08-02T06:36:01.000Z</time>
      </trkpt>
      <trkpt lat="43.55789" lon="3.81689">
        <ele>20.156842887302</ele>
        <time>2020-08-02T06:36:02.000Z</time>
      </trkpt>
      <trkpt lat="43.55786" lon="3.8169">
        <ele>20.056942755466</ele>
        <time>2020-08-02T06:36:03.000Z</time>
      </trkpt>
      <trkpt lat="43.55783" lon="3.8169">
        <ele>20.043086465355</ele>
        <time>2020-08-02T06:36:04.000Z</time>
      </trkpt>
      <trkpt lat="43.5578" lon="3.81691">
        <ele>20.1432868019</ele>
        <time>2020-08-02T06:36:05.000Z</time>
      </trkpt>
      <trkpt lat="43.55778" lon="3.81693">
        <ele>20.243487138445</ele>
        <time>2020-08-02T06:36:06.000Z</time>
      </trkpt>
      <trkpt lat="43.55776" lon="3.81694">
        <ele>20.34368747499</ele>
        <time>2020-08-02T06:36:07.000Z</time>
      </trkpt>
      <trkpt lat="43.55774" lon="3.81696">
        <ele>20.443887811535</ele>
        <time>2020-08-02T06:36:08.000Z</time>
      </trkpt>
      <trkpt lat="43.55772" lon="3.81698">
        <ele>20.54408814808</ele>
        <time>2020-08-02T06:36:09.000Z</time>
      </trkpt>
      <trkpt lat="43.55771" lon="3.817">
        <ele>20.644288484625</ele>
        <time>2020-08-02T06:36:10.000Z</time>
      </trkpt>
      <trkpt lat="43.55767" lon="3.81708">
        <ele>20.944889494259</ele>
        <time>2020-08-02T06:36:13.000Z</time>
      </trkpt>
      <trkpt lat="43.55765" lon="3.81711">
        <ele>21</ele>
        <time>2020-08-02T06:36:14.000Z</time>
      </trkpt>
      <trkpt lat="43.55764" lon="3.81714">
        <ele>21</ele>
        <time>2020-08-02T06:36:15.000Z</time>
      </trkpt>
      <trkpt lat="43.55762" lon="3.81716">
        <ele>21</ele>
        <time>2020-08-02T06:36:16.000Z</time>
      </trkpt>
      <trkpt lat="43.5576" lon="3.81718">
        <ele>21</ele>
        <time>2020-08-02T06:36:17.000Z</time>
      </trkpt>
      <trkpt lat="43.55758" lon="3.81719">
        <ele>21</ele>
        <time>2020-08-02T06:36:18.000Z</time>
      </trkpt>
      <trkpt lat="43.55756" lon="3.81719">
        <ele>21</ele>
        <time>2020-08-02T06:36:19.000Z</time>
      </trkpt>
      <trkpt lat="43.55754" lon="3.81719">
        <ele>21</ele>
        <time>2020-08-02T06:36:20.000Z</time>
      </trkpt>
      <trkpt lat="43.55752" lon="3.81721">
        <ele>21</ele>
        <time>2020-08-02T06:36:21.000Z</time>
      </trkpt>
      <trkpt lat="43.55751" lon="3.81722">
        <ele>21</ele>
        <time>2020-08-02T06:36:22.000Z</time>
      </trkpt>
      <trkpt lat="43.55749" lon="3.81724">
        <ele>21</ele>
        <time>2020-08-02T06:36:23.000Z</time>
      </trkpt>
      <trkpt lat="43.55747" lon="3.81726">
        <ele>21</ele>
        <time>2020-08-02T06:36:24.000Z</time>
      </trkpt>
      <trkpt lat="43.55745" lon="3.81728">
        <ele>21</ele>
        <time>2020-08-02T06:36:25.000Z</time>
      </trkpt>
      <trkpt lat="43.55743" lon="3.8173">
        <ele>21</ele>
        <time>2020-08-02T06:36:26.000Z</time>
      </trkpt>
      <trkpt lat="43.5574" lon="3.81732">
        <ele>21</ele>
        <time>2020-08-02T06:36:27.000Z</time>
      </trkpt>
      <trkpt lat="43.55738" lon="3.81734">
        <ele>21</ele>
        <time>2020-08-02T06:36:28.000Z</time>
      </trkpt>
      <trkpt lat="43.55735" lon="3.81736">
        <ele>21</ele>
        <time>2020-08-02T06:36:29.000Z</time>
      </trkpt>
      <trkpt lat="43.55732" lon="3.81737">
        <ele>21</ele>
        <time>2020-08-02T06:36:30.000Z</time>
      </trkpt>
      <trkpt lat="43.55729" lon="3.8174">
        <ele>21</ele>
        <time>2020-08-02T06:36:31.000Z</time>
      </trkpt>
      <trkpt lat="43.55727" lon="3.81741">
        <ele>21</ele>
        <time>2020-08-02T06:36:32.000Z</time>
      </trkpt>
      <trkpt lat="43.55725" lon="3.81743">
        <ele>21</ele>
        <time>2020-08-02T06:36:33.000Z</time>
      </trkpt>
      <trkpt lat="43.55723" lon="3.81746">
        <ele>21.04499968</ele>
        <time>2020-08-02T06:36:34.000Z</time>
      </trkpt>
      <trkpt lat="43.55721" lon="3.81749">
        <ele>21.14499968</ele>
        <time>2020-08-02T06:36:35.000Z</time>
      </trkpt>
      <trkpt lat="43.55718" lon="3.81751">
        <ele>21.24499968</ele>
        <time>2020-08-02T06:36:36.000Z</time>
      </trkpt>
      <trkpt lat="43.55716" lon="3.81753">
        <ele>21.34499968</ele>
        <time>2020-08-02T06:36:37.000Z</time>
      </trkpt>
      <trkpt lat="43.55714" lon="3.81754">
        <ele>21.44499968</ele>
        <time>2020-08-02T06:36:38.000Z</time>
      </trkpt>
      <trkpt lat="43.55711" lon="3.81755">
        <ele>21.54499968</ele>
        <time>2020-08-02T06:36:39.000Z</time>
      </trkpt>
      <trkpt lat="43.55709" lon="3.81756">
        <ele>21.64499968</ele>
        <time>2020-08-02T06:36:40.000Z</time>
      </trkpt>
      <trkpt lat="43.55707" lon="3.81758">
        <ele>21.74499968</ele>
        <time>2020-08-02T06:36:41.000Z</time>
      </trkpt>
      <trkpt lat="43.55704" lon="3.81761">
        <ele>21.84499968</ele>
        <time>2020-08-02T06:36:42.000Z</time>
      </trkpt>
      <trkpt lat="43.55702" lon="3.81763">
        <ele>21.94499968</ele>
        <time>2020-08-02T06:36:43.000Z</time>
      </trkpt>
      <trkpt lat="43.55699" lon="3.81765">
        <ele>22.04499968</ele>
        <time>2020-08-02T06:36:44.000Z</time>
      </trkpt>
      <trkpt lat="43.55696" lon="3.81767">
        <ele>22.14499968</ele>
        <time>2020-08-02T06:36:45.000Z</time>
      </trkpt>
      <trkpt lat="43.55694" lon="3.81769">
        <ele>22.24499968</ele>
        <time>2020-08-02T06:36:46.000Z</time>
      </trkpt>
      <trkpt lat="43.55692" lon="3.8177">
        <ele>22.34499968</ele>
        <time>2020-08-02T06:36:47.000Z</time>
      </trkpt>
      <trkpt lat="43.55689" lon="3.81771">
        <ele>22.44499968</ele>
        <time>2020-08-02T06:36:48.000Z</time>
      </trkpt>
      <trkpt lat="43.55687" lon="3.81773">
        <ele>22.54499968</ele>
        <time>2020-08-02T06:36:49.000Z</time>
      </trkpt>
      <trkpt lat="43.55684" lon="3.81775">
        <ele>22.64499968</ele>
        <time>2020-08-02T06:36:50.000Z</time>
      </trkpt>
      <trkpt lat="43.55681" lon="3.81777">
        <ele>22.74499968</ele>
        <time>2020-08-02T06:36:51.000Z</time>
      </trkpt>
      <trkpt lat="43.55679" lon="3.81778">
        <ele>22.84499968</ele>
        <time>2020-08-02T06:36:52.000Z</time>
      </trkpt>
      <trkpt lat="43.55677" lon="3.81781">
        <ele>22.94499968</ele>
        <time>2020-08-02T06:36:53.000Z</time>
      </trkpt>
      <trkpt lat="43.55675" lon="3.81783">
        <ele>23.04499968</ele>
        <time>2020-08-02T06:36:54.000Z</time>
      </trkpt>
      <trkpt lat="43.55672" lon="3.81785">
        <ele>23.14499968</ele>
        <time>2020-08-02T06:36:55.000Z</time>
      </trkpt>
      <trkpt lat="43.55669" lon="3.81787">
        <ele>23.24499968</ele>
        <time>2020-08-02T06:36:56.000Z</time>
      </trkpt>
      <trkpt lat="43.55666" lon="3.81789">
        <ele>23.34499968</ele>
        <time>2020-08-02T06:36:57.000Z</time>
      </trkpt>
      <trkpt lat="43.5566" lon="3.81792">
        <ele>23.54499968</ele>
        <time>2020-08-02T06:36:59.000Z</time>
      </trkpt>
      <trkpt lat="43.55657" lon="3.81793">
        <ele>23.64499968</ele>
        <time>2020-08-02T06:37:00.000Z</time>
      </trkpt>
      <trkpt lat="43.55655" lon="3.81794">
        <ele>23.74499968</ele>
        <time>2020-08-02T06:37:01.000Z</time>
      </trkpt>
      <trkpt lat="43.55652" lon="3.81795">
        <ele>23.84499968</ele>
        <time>2020-08-02T06:37:02.000Z</time>
      </trkpt>
      <trkpt lat="43.55649" lon="3.81796">
        <ele>23.94499968</ele>
        <time>2020-08-02T06:37:03.000Z</time>
      </trkpt>
      <trkpt lat="43.55643" lon="3.81798">
        <ele>24.14499968</ele>
        <time>2020-08-02T06:37:05.000Z</time>
      </trkpt>
      <trkpt lat="43.5564" lon="3.81799">
        <ele>24.24499968</ele>
        <time>2020-08-02T06:37:06.000Z</time>
      </trkpt>
      <trkpt lat="43.55638" lon="3.81801">
        <ele>24.34499968</ele>
        <time>2020-08-02T06:37:07.000Z</time>
      </trkpt>
      <trkpt lat="43.55633" lon="3.81804">
        <ele>24.54499968</ele>
        <time>2020-08-02T06:37:09.000Z</time>
      </trkpt>
      <trkpt lat="43.55631" lon="3.81806">
        <ele>24.64499968</ele>
        <time>2020-08-02T06:37:10.000Z</time>
      </trkpt>
      <trkpt lat="43.5563" lon="3.81807">
        <ele>24.74499968</ele>
        <time>2020-08-02T06:37:11.000Z</time>
      </trkpt>
      <trkpt lat="43.55628" lon="3.8181">
        <ele>24.84499968</ele>
        <time>2020-08-02T06:37:12.000Z</time>
      </trkpt>
      <trkpt lat="43.55626" lon="3.81812">
        <ele>25.04499968</ele>
        <time>2020-08-02T06:37:14.000Z</time>
      </trkpt>
      <trkpt lat="43.55623" lon="3.81813">
        <ele>25.24499968</ele>
        <time>2020-08-02T06:37:16.000Z</time>
      </trkpt>
      <trkpt lat="43.55622" lon="3.81817">
        <ele>25.44499968</ele>
        <time>2020-08-02T06:37:18.000Z</time>
      </trkpt>
      <trkpt lat="43.55622" lon="3.8182">
        <ele>25.54499968</ele>
        <time>2020-08-02T06:37:19.000Z</time>
      </trkpt>
      <trkpt lat="43.5562" lon="3.81822">
        <ele>25.64499968</ele>
        <time>2020-08-02T06:37:20.000Z</time>
      </trkpt>
      <trkpt lat="43.55618" lon="3.81824">
        <ele>25.74499968</ele>
        <time>2020-08-02T06:37:21.000Z</time>
      </trkpt>
      <trkpt lat="43.55617" lon="3.81826">
        <ele>25.84499968</ele>
        <time>2020-08-02T06:37:22.000Z</time>
      </trkpt>
      <trkpt lat="43.55616" lon="3.81828">
        <ele>25.94499968</ele>
        <time>2020-08-02T06:37:23.000Z</time>
      </trkpt>
      <trkpt lat="43.55615" lon="3.8183">
        <ele>25.796348764045</ele>
        <time>2020-08-02T06:37:25.000Z</time>
      </trkpt>
      <trkpt lat="43.55614" lon="3.81833">
        <ele>25.04</ele>
        <time>2020-08-02T06:37:31.000Z</time>
      </trkpt>
      <trkpt lat="43.55609" lon="3.81836">
        <ele>26.054990432593</ele>
        <time>2020-08-02T06:37:38.000Z</time>
      </trkpt>
      <trkpt lat="43.55607" lon="3.81836">
        <ele>26.258656287637</ele>
        <time>2020-08-02T06:37:39.000Z</time>
      </trkpt>
      <trkpt lat="43.55606" lon="3.81837">
        <ele>26.462322142682</ele>
        <time>2020-08-02T06:37:40.000Z</time>
      </trkpt>
      <trkpt lat="43.55604" lon="3.81838">
        <ele>26.665987997727</ele>
        <time>2020-08-02T06:37:41.000Z</time>
      </trkpt>
      <trkpt lat="43.55601" lon="3.81839">
        <ele>27.073319707816</ele>
        <time>2020-08-02T06:37:43.000Z</time>
      </trkpt>
      <trkpt lat="43.55598" lon="3.81841">
        <ele>27.480651417905</ele>
        <time>2020-08-02T06:37:45.000Z</time>
      </trkpt>
      <trkpt lat="43.55596" lon="3.81844">
        <ele>27.887983127995</ele>
        <time>2020-08-02T06:37:47.000Z</time>
      </trkpt>
      <trkpt lat="43.55595" lon="3.81846">
        <ele>28.043774007782</ele>
        <time>2020-08-02T06:37:48.000Z</time>
      </trkpt>
      <trkpt lat="43.55593" lon="3.81848">
        <ele>28.141050272374</ele>
        <time>2020-08-02T06:37:49.000Z</time>
      </trkpt>
      <trkpt lat="43.55591" lon="3.8185">
        <ele>28.238326536965</ele>
        <time>2020-08-02T06:37:50.000Z</time>
      </trkpt>
      <trkpt lat="43.55589" lon="3.81852">
        <ele>28.335602801556</ele>
        <time>2020-08-02T06:37:51.000Z</time>
      </trkpt>
      <trkpt lat="43.55586" lon="3.81853">
        <ele>28.530155330739</ele>
        <time>2020-08-02T06:37:53.000Z</time>
      </trkpt>
      <trkpt lat="43.55584" lon="3.81856">
        <ele>28.724707859922</ele>
        <time>2020-08-02T06:37:55.000Z</time>
      </trkpt>
      <trkpt lat="43.55581" lon="3.81856">
        <ele>28.919260389105</ele>
        <time>2020-08-02T06:37:57.000Z</time>
      </trkpt>
      <trkpt lat="43.55579" lon="3.81854">
        <ele>29</ele>
        <time>2020-08-02T06:37:58.000Z</time>
      </trkpt>
      <trkpt lat="43.55578" lon="3.81851">
        <ele>29</ele>
        <time>2020-08-02T06:37:59.000Z</time>
      </trkpt>
      <trkpt lat="43.55576" lon="3.81848">
        <ele>29</ele>
        <time>2020-08-02T06:38:00.000Z</time>
      </trkpt>
      <trkpt lat="43.55574" lon="3.81845">
        <ele>29</ele>
        <time>2020-08-02T06:38:01.000Z</time>
      </trkpt>
      <trkpt lat="43.55573" lon="3.81841">
        <ele>29</ele>
        <time>2020-08-02T06:38:02.000Z</time>
      </trkpt>
      <trkpt lat="43.55571" lon="3.81838">
        <ele>29</ele>
        <time>2020-08-02T06:38:03.000Z</time>
      </trkpt>
      <trkpt lat="43.5557" lon="3.81835">
        <ele>29</ele>
        <time>2020-08-02T06:38:04.000Z</time>
      </trkpt>
      <trkpt lat="43.55569" lon="3.81833">
        <ele>29</ele>
        <time>2020-08-02T06:38:05.000Z</time>
      </trkpt>
      <trkpt lat="43.55567" lon="3.81831">
        <ele>29</ele>
        <time>2020-08-02T06:38:06.000Z</time>
      </trkpt>
      <trkpt lat="43.55566" lon="3.81829">
        <ele>29</ele>
        <time>2020-08-02T06:38:07.000Z</time>
      </trkpt>
      <trkpt lat="43.55564" lon="3.81827">
        <ele>28.86500096</ele>
        <time>2020-08-02T06:38:08.000Z</time>
      </trkpt>
      <trkpt lat="43.55562" lon="3.81826">
        <ele>28.56500096</ele>
        <time>2020-08-02T06:38:09.000Z</time>
      </trkpt>
      <trkpt lat="43.55559" lon="3.81825">
        <ele>27.96500096</ele>
        <time>2020-08-02T06:38:11.000Z</time>
      </trkpt>
      <trkpt lat="43.55558" lon="3.81825">
        <ele>27.36500096</ele>
        <time>2020-08-02T06:38:13.000Z</time>
      </trkpt>
      <trkpt lat="43.55555" lon="3.81825">
        <ele>26.46500096</ele>
        <time>2020-08-02T06:38:16.000Z</time>
      </trkpt>
      <trkpt lat="43.55555" lon="3.81824">
        <ele>26</ele>
        <time>2020-08-02T06:38:23.000Z</time>
      </trkpt>
      <trkpt lat="43.55552" lon="3.81835">
        <ele>23.972504783704</ele>
        <time>2020-08-02T06:39:10.000Z</time>
      </trkpt>
      <trkpt lat="43.55551" lon="3.81838">
        <ele>23.870671856181</ele>
        <time>2020-08-02T06:39:11.000Z</time>
      </trkpt>
      <trkpt lat="43.55549" lon="3.81841">
        <ele>23.667006001137</ele>
        <time>2020-08-02T06:39:13.000Z</time>
      </trkpt>
      <trkpt lat="43.55547" lon="3.81845">
        <ele>23.463340146092</ele>
        <time>2020-08-02T06:39:15.000Z</time>
      </trkpt>
      <trkpt lat="43.55547" lon="3.81849">
        <ele>23.259674291047</ele>
        <time>2020-08-02T06:39:17.000Z</time>
      </trkpt>
      <trkpt lat="43.55546" lon="3.81852">
        <ele>23.157841363525</ele>
        <time>2020-08-02T06:39:18.000Z</time>
      </trkpt>
      <trkpt lat="43.55545" lon="3.81854">
        <ele>23.056008436003</ele>
        <time>2020-08-02T06:39:19.000Z</time>
      </trkpt>
      <trkpt lat="43.55544" lon="3.81857">
        <ele>23.044954739646</ele>
        <time>2020-08-02T06:39:20.000Z</time>
      </trkpt>
      <trkpt lat="43.55543" lon="3.81861">
        <ele>23.244755003318</ele>
        <time>2020-08-02T06:39:22.000Z</time>
      </trkpt>
      <trkpt lat="43.55541" lon="3.81864">
        <ele>23.444555266991</ele>
        <time>2020-08-02T06:39:24.000Z</time>
      </trkpt>
      <trkpt lat="43.55538" lon="3.81867">
        <ele>23.644355530663</ele>
        <time>2020-08-02T06:39:26.000Z</time>
      </trkpt>
      <trkpt lat="43.55536" lon="3.81871">
        <ele>23.844155794335</ele>
        <time>2020-08-02T06:39:28.000Z</time>
      </trkpt>
      <trkpt lat="43.55534" lon="3.81875">
        <ele>24</ele>
        <time>2020-08-02T06:39:30.000Z</time>
      </trkpt>
      <trkpt lat="43.55534" lon="3.81877">
        <ele>24</ele>
        <time>2020-08-02T06:39:31.000Z</time>
      </trkpt>
      <trkpt lat="43.55533" lon="3.81881">
        <ele>24</ele>
        <time>2020-08-02T06:39:32.000Z</time>
      </trkpt>
      <trkpt lat="43.5553" lon="3.81883">
        <ele>24</ele>
        <time>2020-08-02T06:39:33.000Z</time>
      </trkpt>
      <trkpt lat="43.55529" lon="3.81886">
        <ele>24</ele>
        <time>2020-08-02T06:39:34.000Z</time>
      </trkpt>
      <trkpt lat="43.55527" lon="3.81887">
        <ele>24</ele>
        <time>2020-08-02T06:39:35.000Z</time>
      </trkpt>
      <trkpt lat="43.55525" lon="3.81888">
        <ele>24</ele>
        <time>2020-08-02T06:39:36.000Z</time>
      </trkpt>
      <trkpt lat="43.55524" lon="3.8189">
        <ele>24</ele>
        <time>2020-08-02T06:39:37.000Z</time>
      </trkpt>
      <trkpt lat="43.55522" lon="3.81891">
        <ele>24</ele>
        <time>2020-08-02T06:39:38.000Z</time>
      </trkpt>
      <trkpt lat="43.5552" lon="3.81892">
        <ele>24</ele>
        <time>2020-08-02T06:39:39.000Z</time>
      </trkpt>
      <trkpt lat="43.55518" lon="3.81894">
        <ele>24</ele>
        <time>2020-08-02T06:39:40.000Z</time>
      </trkpt>
      <trkpt lat="43.55515" lon="3.81895">
        <ele>24</ele>
        <time>2020-08-02T06:39:42.000Z</time>
      </trkpt>
      <trkpt lat="43.55512" lon="3.81895">
        <ele>24</ele>
        <time>2020-08-02T06:39:44.000Z</time>
      </trkpt>
      <trkpt lat="43.55509" lon="3.81895">
        <ele>24</ele>
        <time>2020-08-02T06:39:46.000Z</time>
      </trkpt>
      <trkpt lat="43.55508" lon="3.81894">
        <ele>24.00956284153</ele>
        <time>2020-08-02T06:39:55.000Z</time>
      </trkpt>
      <trkpt lat="43.55509" lon="3.81902">
        <ele>25</ele>
        <time>2020-08-02T06:40:24.000Z</time>
      </trkpt>
      <trkpt lat="43.55508" lon="3.81903">
        <ele>25</ele>
        <time>2020-08-02T06:40:25.000Z</time>
      </trkpt>
      <trkpt lat="43.55505" lon="3.81905">
        <ele>25</ele>
        <time>2020-08-02T06:40:27.000Z</time>
      </trkpt>
      <trkpt lat="43.55503" lon="3.81906">
        <ele>25</ele>
        <time>2020-08-02T06:40:28.000Z</time>
      </trkpt>
      <trkpt lat="43.55502" lon="3.81908">
        <ele>25</ele>
        <time>2020-08-02T06:40:29.000Z</time>
      </trkpt>
      <trkpt lat="43.55499" lon="3.8191">
        <ele>25</ele>
        <time>2020-08-02T06:40:31.000Z</time>
      </trkpt>
      <trkpt lat="43.55497" lon="3.8191">
        <ele>25</ele>
        <time>2020-08-02T06:40:33.000Z</time>
      </trkpt>
      <trkpt lat="43.55495" lon="3.81912">
        <ele>24.664397198444</ele>
        <time>2020-08-02T06:40:37.000Z</time>
      </trkpt>
      <trkpt lat="43.55493" lon="3.81912">
        <ele>24.372568404669</ele>
        <time>2020-08-02T06:40:40.000Z</time>
      </trkpt>
      <trkpt lat="43.55491" lon="3.81912">
        <ele>24.178015875486</ele>
        <time>2020-08-02T06:40:42.000Z</time>
      </trkpt>
      <trkpt lat="43.55488" lon="3.81913">
        <ele>24</ele>
        <time>2020-08-02T06:40:44.000Z</time>
      </trkpt>
      <trkpt lat="43.55485" lon="3.81915">
        <ele>24</ele>
        <time>2020-08-02T06:40:46.000Z</time>
      </trkpt>
      <trkpt lat="43.55482" lon="3.81917">
        <ele>24</ele>
        <time>2020-08-02T06:40:48.000Z</time>
      </trkpt>
      <trkpt lat="43.5548" lon="3.81918">
        <ele>24</ele>
        <time>2020-08-02T06:40:49.000Z</time>
      </trkpt>
      <trkpt lat="43.55478" lon="3.8192">
        <ele>24</ele>
        <time>2020-08-02T06:40:50.000Z</time>
      </trkpt>
      <trkpt lat="43.55477" lon="3.8192">
        <ele>24</ele>
        <time>2020-08-02T06:40:51.000Z</time>
      </trkpt>
      <trkpt lat="43.55474" lon="3.8192">
        <ele>24</ele>
        <time>2020-08-02T06:40:52.000Z</time>
      </trkpt>
      <trkpt lat="43.55472" lon="3.8192">
        <ele>24</ele>
        <time>2020-08-02T06:40:53.000Z</time>
      </trkpt>
      <trkpt lat="43.55469" lon="3.81919">
        <ele>24</ele>
        <time>2020-08-02T06:40:54.000Z</time>
      </trkpt>
      <trkpt lat="43.55468" lon="3.81921">
        <ele>24</ele>
        <time>2020-08-02T06:40:58.000Z</time>
      </trkpt>
      <trkpt lat="43.55467" lon="3.81922">
        <ele>24</ele>
        <time>2020-08-02T06:41:03.000Z</time>
      </trkpt>
      <trkpt lat="43.55462" lon="3.81922">
        <ele>20.00226311131</ele>
        <time>2020-08-02T06:41:56.000Z</time>
      </trkpt>
      <trkpt lat="43.55463" lon="3.81924">
        <ele>20</ele>
        <time>2020-08-02T06:41:58.000Z</time>
      </trkpt>
      <trkpt lat="43.55464" lon="3.81923">
        <ele>20</ele>
        <time>2020-08-02T06:42:03.000Z</time>
      </trkpt>
      <trkpt lat="43.55465" lon="3.81929">
        <ele>20</ele>
        <time>2020-08-02T06:42:08.000Z</time>
      </trkpt>
      <trkpt lat="43.55464" lon="3.81932">
        <ele>20</ele>
        <time>2020-08-02T06:42:10.000Z</time>
      </trkpt>
      <trkpt lat="43.55461" lon="3.81935">
        <ele>20</ele>
        <time>2020-08-02T06:42:12.000Z</time>
      </trkpt>
      <trkpt lat="43.5546" lon="3.81936">
        <ele>20</ele>
        <time>2020-08-02T06:42:13.000Z</time>
      </trkpt>
      <trkpt lat="43.55458" lon="3.81938">
        <ele>20</ele>
        <time>2020-08-02T06:42:14.000Z</time>
      </trkpt>
      <trkpt lat="43.55456" lon="3.81938">
        <ele>20</ele>
        <time>2020-08-02T06:42:15.000Z</time>
      </trkpt>
      <trkpt lat="43.55454" lon="3.81939">
        <ele>20</ele>
        <time>2020-08-02T06:42:16.000Z</time>
      </trkpt>
      <trkpt lat="43.55452" lon="3.8194">
        <ele>20</ele>
        <time>2020-08-02T06:42:17.000Z</time>
      </trkpt>
      <trkpt lat="43.55451" lon="3.81941">
        <ele>20</ele>
        <time>2020-08-02T06:42:18.000Z</time>
      </trkpt>
      <trkpt lat="43.55449" lon="3.81941">
        <ele>20</ele>
        <time>2020-08-02T06:42:19.000Z</time>
      </trkpt>
      <trkpt lat="43.55446" lon="3.81941">
        <ele>20</ele>
        <time>2020-08-02T06:42:20.000Z</time>
      </trkpt>
      <trkpt lat="43.55444" lon="3.8194">
        <ele>20</ele>
        <time>2020-08-02T06:42:21.000Z</time>
      </trkpt>
      <trkpt lat="43.55442" lon="3.8194">
        <ele>20</ele>
        <time>2020-08-02T06:42:22.000Z</time>
      </trkpt>
      <trkpt lat="43.55439" lon="3.81941">
        <ele>20</ele>
        <time>2020-08-02T06:42:23.000Z</time>
      </trkpt>
      <trkpt lat="43.55437" lon="3.81942">
        <ele>20</ele>
        <time>2020-08-02T06:42:24.000Z</time>
      </trkpt>
      <trkpt lat="43.55435" lon="3.81945">
        <ele>20</ele>
        <time>2020-08-02T06:42:25.000Z</time>
      </trkpt>
      <trkpt lat="43.55433" lon="3.81947">
        <ele>20</ele>
        <time>2020-08-02T06:42:26.000Z</time>
      </trkpt>
      <trkpt lat="43.55431" lon="3.81948">
        <ele>20</ele>
        <time>2020-08-02T06:42:27.000Z</time>
      </trkpt>
      <trkpt lat="43.5543" lon="3.8195">
        <ele>20</ele>
        <time>2020-08-02T06:42:28.000Z</time>
      </trkpt>
      <trkpt lat="43.55428" lon="3.81952">
        <ele>20</ele>
        <time>2020-08-02T06:42:29.000Z</time>
      </trkpt>
      <trkpt lat="43.55426" lon="3.81955">
        <ele>20</ele>
        <time>2020-08-02T06:42:30.000Z</time>
      </trkpt>
      <trkpt lat="43.55424" lon="3.81957">
        <ele>20</ele>
        <time>2020-08-02T06:42:31.000Z</time>
      </trkpt>
      <trkpt lat="43.55421" lon="3.81958">
        <ele>20</ele>
        <time>2020-08-02T06:42:32.000Z</time>
      </trkpt>
      <trkpt lat="43.55419" lon="3.81959">
        <ele>20</ele>
        <time>2020-08-02T06:42:33.000Z</time>
      </trkpt>
      <trkpt lat="43.55416" lon="3.8196">
        <ele>20</ele>
        <time>2020-08-02T06:42:34.000Z</time>
      </trkpt>
      <trkpt lat="43.55414" lon="3.81961">
        <ele>20</ele>
        <time>2020-08-02T06:42:35.000Z</time>
      </trkpt>
      <trkpt lat="43.55412" lon="3.81963">
        <ele>20</ele>
        <time>2020-08-02T06:42:36.000Z</time>
      </trkpt>
      <trkpt lat="43.5541" lon="3.81966">
        <ele>20</ele>
        <time>2020-08-02T06:42:37.000Z</time>
      </trkpt>
      <trkpt lat="43.55408" lon="3.81968">
        <ele>20.08999936</ele>
        <time>2020-08-02T06:42:38.000Z</time>
      </trkpt>
      <trkpt lat="43.55406" lon="3.81969">
        <ele>20.28999936</ele>
        <time>2020-08-02T06:42:39.000Z</time>
      </trkpt>
      <trkpt lat="43.55404" lon="3.81971">
        <ele>20.48999936</ele>
        <time>2020-08-02T06:42:40.000Z</time>
      </trkpt>
      <trkpt lat="43.55402" lon="3.81972">
        <ele>20.68999936</ele>
        <time>2020-08-02T06:42:41.000Z</time>
      </trkpt>
      <trkpt lat="43.554" lon="3.81973">
        <ele>20.88999936</ele>
        <time>2020-08-02T06:42:42.000Z</time>
      </trkpt>
      <trkpt lat="43.55398" lon="3.81975">
        <ele>21.08999936</ele>
        <time>2020-08-02T06:42:43.000Z</time>
      </trkpt>
      <trkpt lat="43.55396" lon="3.81977">
        <ele>21.48999936</ele>
        <time>2020-08-02T06:42:45.000Z</time>
      </trkpt>
      <trkpt lat="43.55395" lon="3.81979">
        <ele>22</ele>
        <time>2020-08-02T06:42:52.000Z</time>
      </trkpt>
      <trkpt lat="43.55394" lon="3.81982">
        <ele>22</ele>
        <time>2020-08-02T06:42:56.000Z</time>
      </trkpt>
      <trkpt lat="43.55394" lon="3.81984">
        <ele>22</ele>
        <time>2020-08-02T06:43:01.000Z</time>
      </trkpt>
      <trkpt lat="43.55394" lon="3.81984">
        <ele>22</ele>
        <time>2020-08-02T06:43:03.000Z</time>
      </trkpt>
      <trkpt lat="43.55393" lon="3.8199">
        <ele>22.024514803019</ele>
        <time>2020-08-02T06:43:08.000Z</time>
      </trkpt>
      <trkpt lat="43.55392" lon="3.81992">
        <ele>22.126659815596</ele>
        <time>2020-08-02T06:43:09.000Z</time>
      </trkpt>
      <trkpt lat="43.5539" lon="3.81994">
        <ele>22.330949840752</ele>
        <time>2020-08-02T06:43:11.000Z</time>
      </trkpt>
      <trkpt lat="43.55387" lon="3.81995">
        <ele>22.535239865907</ele>
        <time>2020-08-02T06:43:13.000Z</time>
      </trkpt>
      <trkpt lat="43.55384" lon="3.81995">
        <ele>22.739529891063</ele>
        <time>2020-08-02T06:43:15.000Z</time>
      </trkpt>
      <trkpt lat="43.55381" lon="3.81996">
        <ele>22.943819916218</ele>
        <time>2020-08-02T06:43:17.000Z</time>
      </trkpt>
      <trkpt lat="43.55378" lon="3.81997">
        <ele>22.858949727626</ele>
        <time>2020-08-02T06:43:19.000Z</time>
      </trkpt>
      <trkpt lat="43.55373" lon="3.82007">
        <ele>22.275292140078</ele>
        <time>2020-08-02T06:43:25.000Z</time>
      </trkpt>
      <trkpt lat="43.55365" lon="3.82016">
        <ele>22</ele>
        <time>2020-08-02T06:43:28.000Z</time>
      </trkpt>
      <trkpt lat="43.5536" lon="3.82028">
        <ele>22</ele>
        <time>2020-08-02T06:43:31.000Z</time>
      </trkpt>
      <trkpt lat="43.5535" lon="3.82043">
        <ele>22</ele>
        <time>2020-08-02T06:43:34.000Z</time>
      </trkpt>
      <trkpt lat="43.55341" lon="3.82047">
        <ele>22</ele>
        <time>2020-08-02T06:43:38.000Z</time>
      </trkpt>
      <trkpt lat="43.5534" lon="3.8205">
        <ele>22</ele>
        <time>2020-08-02T06:43:40.000Z</time>
      </trkpt>
      <trkpt lat="43.55341" lon="3.82053">
        <ele>22</ele>
        <time>2020-08-02T06:43:42.000Z</time>
      </trkpt>
      <trkpt lat="43.55342" lon="3.82056">
        <ele>22</ele>
        <time>2020-08-02T06:43:44.000Z</time>
      </trkpt>
      <trkpt lat="43.55341" lon="3.8206">
        <ele>22</ele>
        <time>2020-08-02T06:43:46.000Z</time>
      </trkpt>
      <trkpt lat="43.55339" lon="3.82062">
        <ele>22</ele>
        <time>2020-08-02T06:43:47.000Z</time>
      </trkpt>
      <trkpt lat="43.55337" lon="3.82064">
        <ele>21.95500032</ele>
        <time>2020-08-02T06:43:48.000Z</time>
      </trkpt>
      <trkpt lat="43.55334" lon="3.82066">
        <ele>21.85500032</ele>
        <time>2020-08-02T06:43:49.000Z</time>
      </trkpt>
      <trkpt lat="43.55332" lon="3.82069">
        <ele>21.75500032</ele>
        <time>2020-08-02T06:43:50.000Z</time>
      </trkpt>
      <trkpt lat="43.55329" lon="3.82071">
        <ele>21.65500032</ele>
        <time>2020-08-02T06:43:51.000Z</time>
      </trkpt>
      <trkpt lat="43.55327" lon="3.82073">
        <ele>21.55500032</ele>
        <time>2020-08-02T06:43:52.000Z</time>
      </trkpt>
      <trkpt lat="43.55325" lon="3.82075">
        <ele>21.45500032</ele>
        <time>2020-08-02T06:43:53.000Z</time>
      </trkpt>
      <trkpt lat="43.55323" lon="3.82077">
        <ele>21.25500032</ele>
        <time>2020-08-02T06:43:55.000Z</time>
      </trkpt>
      <trkpt lat="43.55321" lon="3.82074">
        <ele>21</ele>
        <time>2020-08-02T06:43:58.000Z</time>
      </trkpt>
      <trkpt lat="43.55318" lon="3.82071">
        <ele>21</ele>
        <time>2020-08-02T06:44:00.000Z</time>
      </trkpt>
      <trkpt lat="43.55316" lon="3.82069">
        <ele>21</ele>
        <time>2020-08-02T06:44:01.000Z</time>
      </trkpt>
      <trkpt lat="43.55314" lon="3.82067">
        <ele>21</ele>
        <time>2020-08-02T06:44:02.000Z</time>
      </trkpt>
      <trkpt lat="43.55312" lon="3.82065">
        <ele>21</ele>
        <time>2020-08-02T06:44:03.000Z</time>
      </trkpt>
      <trkpt lat="43.5531" lon="3.82062">
        <ele>21</ele>
        <time>2020-08-02T06:44:04.000Z</time>
      </trkpt>
      <trkpt lat="43.55307" lon="3.82061">
        <ele>21</ele>
        <time>2020-08-02T06:44:05.000Z</time>
      </trkpt>
      <trkpt lat="43.55305" lon="3.82061">
        <ele>21</ele>
        <time>2020-08-02T06:44:06.000Z</time>
      </trkpt>
      <trkpt lat="43.55302" lon="3.82063">
        <ele>21</ele>
        <time>2020-08-02T06:44:07.000Z</time>
      </trkpt>
      <trkpt lat="43.553" lon="3.82065">
        <ele>20.95500032</ele>
        <time>2020-08-02T06:44:08.000Z</time>
      </trkpt>
      <trkpt lat="43.55298" lon="3.82067">
        <ele>20.85500032</ele>
        <time>2020-08-02T06:44:09.000Z</time>
      </trkpt>
      <trkpt lat="43.55296" lon="3.82069">
        <ele>20.75500032</ele>
        <time>2020-08-02T06:44:10.000Z</time>
      </trkpt>
      <trkpt lat="43.55294" lon="3.82071">
        <ele>20.65500032</ele>
        <time>2020-08-02T06:44:11.000Z</time>
      </trkpt>
      <trkpt lat="43.55293" lon="3.82073">
        <ele>20.55500032</ele>
        <time>2020-08-02T06:44:12.000Z</time>
      </trkpt>
      <trkpt lat="43.55291" lon="3.82076">
        <ele>20.45500032</ele>
        <time>2020-08-02T06:44:13.000Z</time>
      </trkpt>
      <trkpt lat="43.55289" lon="3.82078">
        <ele>20.35500032</ele>
        <time>2020-08-02T06:44:14.000Z</time>
      </trkpt>
      <trkpt lat="43.55287" lon="3.82081">
        <ele>20.25500032</ele>
        <time>2020-08-02T06:44:15.000Z</time>
      </trkpt>
      <trkpt lat="43.55285" lon="3.82083">
        <ele>20.15500032</ele>
        <time>2020-08-02T06:44:16.000Z</time>
      </trkpt>
      <trkpt lat="43.55283" lon="3.82084">
        <ele>20.05500032</ele>
        <time>2020-08-02T06:44:17.000Z</time>
      </trkpt>
      <trkpt lat="43.55281" lon="3.82084">
        <ele>19.95500032</ele>
        <time>2020-08-02T06:44:18.000Z</time>
      </trkpt>
      <trkpt lat="43.55279" lon="3.82085">
        <ele>19.85500032</ele>
        <time>2020-08-02T06:44:19.000Z</time>
      </trkpt>
      <trkpt lat="43.55276" lon="3.82085">
        <ele>19.75500032</ele>
        <time>2020-08-02T06:44:20.000Z</time>
      </trkpt>
      <trkpt lat="43.55274" lon="3.82086">
        <ele>19.65500032</ele>
        <time>2020-08-02T06:44:21.000Z</time>
      </trkpt>
      <trkpt lat="43.55271" lon="3.82087">
        <ele>19.55500032</ele>
        <time>2020-08-02T06:44:22.000Z</time>
      </trkpt>
      <trkpt lat="43.55269" lon="3.82089">
        <ele>19.45500032</ele>
        <time>2020-08-02T06:44:23.000Z</time>
      </trkpt>
      <trkpt lat="43.55267" lon="3.82091">
        <ele>19.35500032</ele>
        <time>2020-08-02T06:44:24.000Z</time>
      </trkpt>
      <trkpt lat="43.55265" lon="3.82093">
        <ele>19.25500032</ele>
        <time>2020-08-02T06:44:25.000Z</time>
      </trkpt>
      <trkpt lat="43.55263" lon="3.82095">
        <ele>19.15500032</ele>
        <time>2020-08-02T06:44:26.000Z</time>
      </trkpt>
      <trkpt lat="43.55261" lon="3.82097">
        <ele>19.05500032</ele>
        <time>2020-08-02T06:44:27.000Z</time>
      </trkpt>
      <trkpt lat="43.55258" lon="3.82099">
        <ele>19.04499968</ele>
        <time>2020-08-02T06:44:28.000Z</time>
      </trkpt>
      <trkpt lat="43.55256" lon="3.821">
        <ele>19.14499968</ele>
        <time>2020-08-02T06:44:29.000Z</time>
      </trkpt>
      <trkpt lat="43.55253" lon="3.82102">
        <ele>19.24499968</ele>
        <time>2020-08-02T06:44:30.000Z</time>
      </trkpt>
      <trkpt lat="43.55251" lon="3.82105">
        <ele>19.34499968</ele>
        <time>2020-08-02T06:44:31.000Z</time>
      </trkpt>
      <trkpt lat="43.55249" lon="3.82107">
        <ele>19.44499968</ele>
        <time>2020-08-02T06:44:32.000Z</time>
      </trkpt>
      <trkpt lat="43.55246" lon="3.82109">
        <ele>19.54499968</ele>
        <time>2020-08-02T06:44:33.000Z</time>
      </trkpt>
      <trkpt lat="43.55244" lon="3.82112">
        <ele>19.64499968</ele>
        <time>2020-08-02T06:44:34.000Z</time>
      </trkpt>
      <trkpt lat="43.55242" lon="3.82114">
        <ele>19.74499968</ele>
        <time>2020-08-02T06:44:35.000Z</time>
      </trkpt>
      <trkpt lat="43.5524" lon="3.82117">
        <ele>19.84499968</ele>
        <time>2020-08-02T06:44:36.000Z</time>
      </trkpt>
      <trkpt lat="43.55237" lon="3.82119">
        <ele>19.94499968</ele>
        <time>2020-08-02T06:44:37.000Z</time>
      </trkpt>
      <trkpt lat="43.55235" lon="3.82121">
        <ele>20</ele>
        <time>2020-08-02T06:44:38.000Z</time>
      </trkpt>
      <trkpt lat="43.55232" lon="3.82124">
        <ele>20</ele>
        <time>2020-08-02T06:44:39.000Z</time>
      </trkpt>
      <trkpt lat="43.55229" lon="3.82126">
        <ele>20</ele>
        <time>2020-08-02T06:44:40.000Z</time>
      </trkpt>
      <trkpt lat="43.55227" lon="3.82128">
        <ele>20</ele>
        <time>2020-08-02T06:44:41.000Z</time>
      </trkpt>
      <trkpt lat="43.55225" lon="3.8213">
        <ele>20</ele>
        <time>2020-08-02T06:44:42.000Z</time>
      </trkpt>
      <trkpt lat="43.55223" lon="3.82133">
        <ele>20</ele>
        <time>2020-08-02T06:44:43.000Z</time>
      </trkpt>
      <trkpt lat="43.55221" lon="3.82135">
        <ele>20</ele>
        <time>2020-08-02T06:44:44.000Z</time>
      </trkpt>
      <trkpt lat="43.55219" lon="3.82138">
        <ele>20</ele>
        <time>2020-08-02T06:44:45.000Z</time>
      </trkpt>
      <trkpt lat="43.55217" lon="3.8214">
        <ele>20</ele>
        <time>2020-08-02T06:44:46.000Z</time>
      </trkpt>
      <trkpt lat="43.55215" lon="3.82142">
        <ele>20</ele>
        <time>2020-08-02T06:44:47.000Z</time>
      </trkpt>
      <trkpt lat="43.55213" lon="3.82144">
        <ele>20</ele>
        <time>2020-08-02T06:44:48.000Z</time>
      </trkpt>
      <trkpt lat="43.5521" lon="3.82147">
        <ele>20</ele>
        <time>2020-08-02T06:44:49.000Z</time>
      </trkpt>
      <trkpt lat="43.55208" lon="3.82149">
        <ele>20</ele>
        <time>2020-08-02T06:44:50.000Z</time>
      </trkpt>
      <trkpt lat="43.55206" lon="3.82152">
        <ele>20</ele>
        <time>2020-08-02T06:44:51.000Z</time>
      </trkpt>
      <trkpt lat="43.55203" lon="3.82155">
        <ele>20</ele>
        <time>2020-08-02T06:44:52.000Z</time>
      </trkpt>
      <trkpt lat="43.55201" lon="3.82157">
        <ele>20</ele>
        <time>2020-08-02T06:44:53.000Z</time>
      </trkpt>
      <trkpt lat="43.55199" lon="3.8216">
        <ele>20</ele>
        <time>2020-08-02T06:44:54.000Z</time>
      </trkpt>
      <trkpt lat="43.55197" lon="3.82163">
        <ele>20</ele>
        <time>2020-08-02T06:44:55.000Z</time>
      </trkpt>
      <trkpt lat="43.55195" lon="3.82165">
        <ele>20</ele>
        <time>2020-08-02T06:44:56.000Z</time>
      </trkpt>
      <trkpt lat="43.55194" lon="3.82167">
        <ele>20</ele>
        <time>2020-08-02T06:44:57.000Z</time>
      </trkpt>
      <trkpt lat="43.55192" lon="3.82168">
        <ele>20.01799775676</ele>
        <time>2020-08-02T06:44:58.000Z</time>
      </trkpt>
      <trkpt lat="43.5519" lon="3.8217">
        <ele>20.130483736507</ele>
        <time>2020-08-02T06:44:59.000Z</time>
      </trkpt>
      <trkpt lat="43.55189" lon="3.82171">
        <ele>20.242969716255</ele>
        <time>2020-08-02T06:45:00.000Z</time>
      </trkpt>
      <trkpt lat="43.55186" lon="3.82172">
        <ele>20.46794167575</ele>
        <time>2020-08-02T06:45:02.000Z</time>
      </trkpt>
      <trkpt lat="43.55185" lon="3.82172">
        <ele>21.005536287373</ele>
        <time>2020-08-02T06:45:07.000Z</time>
      </trkpt>
      <trkpt lat="43.55176" lon="3.82162">
        <ele>24</ele>
        <time>2020-08-02T06:47:06.000Z</time>
      </trkpt>
      <trkpt lat="43.55175" lon="3.82165">
        <ele>22.743455918423</ele>
        <time>2020-08-02T06:47:12.000Z</time>
      </trkpt>
      <trkpt lat="43.55172" lon="3.82166">
        <ele>22.115183877635</ele>
        <time>2020-08-02T06:47:15.000Z</time>
      </trkpt>
      <trkpt lat="43.5517" lon="3.82166">
        <ele>21.523809997686</ele>
        <time>2020-08-02T06:47:18.000Z</time>
      </trkpt>
      <trkpt lat="43.55168" lon="3.82168">
        <ele>20.746355917234</ele>
        <time>2020-08-02T06:47:22.000Z</time>
      </trkpt>
      <trkpt lat="43.55166" lon="3.8217">
        <ele>20.163265356895</ele>
        <time>2020-08-02T06:47:25.000Z</time>
      </trkpt>
      <trkpt lat="43.55164" lon="3.82171">
        <ele>20</ele>
        <time>2020-08-02T06:47:27.000Z</time>
      </trkpt>
      <trkpt lat="43.55163" lon="3.82174">
        <ele>20</ele>
        <time>2020-08-02T06:47:30.000Z</time>
      </trkpt>
      <trkpt lat="43.55161" lon="3.82176">
        <ele>20</ele>
        <time>2020-08-02T06:47:33.000Z</time>
      </trkpt>
      <trkpt lat="43.55159" lon="3.82178">
        <ele>19.91000064</ele>
        <time>2020-08-02T06:47:36.000Z</time>
      </trkpt>
      <trkpt lat="43.55158" lon="3.8218">
        <ele>19.31000064</ele>
        <time>2020-08-02T06:47:39.000Z</time>
      </trkpt>
      <trkpt lat="43.55155" lon="3.82182">
        <ele>18.71000064</ele>
        <time>2020-08-02T06:47:42.000Z</time>
      </trkpt>
      <trkpt lat="43.55153" lon="3.82183">
        <ele>18.11000064</ele>
        <time>2020-08-02T06:47:45.000Z</time>
      </trkpt>
      <trkpt lat="43.55152" lon="3.82186">
        <ele>18</ele>
        <time>2020-08-02T06:47:48.000Z</time>
      </trkpt>
      <trkpt lat="43.5515" lon="3.82186">
        <ele>18</ele>
        <time>2020-08-02T06:47:51.000Z</time>
      </trkpt>
      <trkpt lat="43.55147" lon="3.82186">
        <ele>18</ele>
        <time>2020-08-02T06:47:54.000Z</time>
      </trkpt>
      <trkpt lat="43.55146" lon="3.82184">
        <ele>17.51000064</ele>
        <time>2020-08-02T06:47:58.000Z</time>
      </trkpt>
      <trkpt lat="43.55146" lon="3.82181">
        <ele>16.91000064</ele>
        <time>2020-08-02T06:48:01.000Z</time>
      </trkpt>
      <trkpt lat="43.55146" lon="3.82178">
        <ele>16.51000064</ele>
        <time>2020-08-02T06:48:03.000Z</time>
      </trkpt>
      <trkpt lat="43.55147" lon="3.82174">
        <ele>16.11000064</ele>
        <time>2020-08-02T06:48:05.000Z</time>
      </trkpt>
      <trkpt lat="43.55147" lon="3.82171">
        <ele>16</ele>
        <time>2020-08-02T06:48:07.000Z</time>
      </trkpt>
      <trkpt lat="43.55146" lon="3.82167">
        <ele>16</ele>
        <time>2020-08-02T06:48:10.000Z</time>
      </trkpt>
      <trkpt lat="43.55146" lon="3.82166">
        <ele>15.994318181818</ele>
        <time>2020-08-02T06:48:15.000Z</time>
      </trkpt>
      <trkpt lat="43.55149" lon="3.82173">
        <ele>15</ele>
        <time>2020-08-02T06:49:04.000Z</time>
      </trkpt>
      <trkpt lat="43.5515" lon="3.82174">
        <ele>15</ele>
        <time>2020-08-02T06:49:05.000Z</time>
      </trkpt>
      <trkpt lat="43.55152" lon="3.82177">
        <ele>15</ele>
        <time>2020-08-02T06:49:07.000Z</time>
      </trkpt>
      <trkpt lat="43.55154" lon="3.82178">
        <ele>15</ele>
        <time>2020-08-02T06:49:11.000Z</time>
      </trkpt>
      <trkpt lat="43.55155" lon="3.82175">
        <ele>15</ele>
        <time>2020-08-02T06:49:22.000Z</time>
      </trkpt>
      <trkpt lat="43.55157" lon="3.82174">
        <ele>15</ele>
        <time>2020-08-02T06:49:24.000Z</time>
      </trkpt>
      <trkpt lat="43.55158" lon="3.82173">
        <ele>15</ele>
        <time>2020-08-02T06:49:26.000Z</time>
      </trkpt>
      <trkpt lat="43.55161" lon="3.82171">
        <ele>15</ele>
        <time>2020-08-02T06:49:28.000Z</time>
      </trkpt>
      <trkpt lat="43.55162" lon="3.82169">
        <ele>15</ele>
        <time>2020-08-02T06:49:30.000Z</time>
      </trkpt>
      <trkpt lat="43.55164" lon="3.82168">
        <ele>15</ele>
        <time>2020-08-02T06:49:32.000Z</time>
      </trkpt>
      <trkpt lat="43.55166" lon="3.82165">
        <ele>15</ele>
        <time>2020-08-02T06:49:35.000Z</time>
      </trkpt>
      <trkpt lat="43.55167" lon="3.82164">
        <ele>15</ele>
        <time>2020-08-02T06:49:37.000Z</time>
      </trkpt>
      <trkpt lat="43.55169" lon="3.82161">
        <ele>15</ele>
        <time>2020-08-02T06:49:40.000Z</time>
      </trkpt>
      <trkpt lat="43.5517" lon="3.82159">
        <ele>15</ele>
        <time>2020-08-02T06:49:42.000Z</time>
      </trkpt>
      <trkpt lat="43.55172" lon="3.82159">
        <ele>14.956913534645</ele>
        <time>2020-08-02T06:49:44.000Z</time>
      </trkpt>
      <trkpt lat="43.55174" lon="3.82156">
        <ele>14.65631252501</ele>
        <time>2020-08-02T06:49:47.000Z</time>
      </trkpt>
      <trkpt lat="43.55175" lon="3.82154">
        <ele>14.355711515375</ele>
        <time>2020-08-02T06:49:50.000Z</time>
      </trkpt>
      <trkpt lat="43.55176" lon="3.82152">
        <ele>14.08999936</ele>
        <time>2020-08-02T06:49:54.000Z</time>
      </trkpt>
      <trkpt lat="43.55178" lon="3.82153">
        <ele>14.68999936</ele>
        <time>2020-08-02T06:49:57.000Z</time>
      </trkpt>
      <trkpt lat="43.5518" lon="3.82155">
        <ele>15.28999936</ele>
        <time>2020-08-02T06:50:00.000Z</time>
      </trkpt>
      <trkpt lat="43.55182" lon="3.82157">
        <ele>16.04499968</ele>
        <time>2020-08-02T06:50:04.000Z</time>
      </trkpt>
      <trkpt lat="43.55184" lon="3.82159">
        <ele>16.44499968</ele>
        <time>2020-08-02T06:50:08.000Z</time>
      </trkpt>
      <trkpt lat="43.55188" lon="3.8216">
        <ele>16.94499968</ele>
        <time>2020-08-02T06:50:13.000Z</time>
      </trkpt>
      <trkpt lat="43.55191" lon="3.82158">
        <ele>17.48999936</ele>
        <time>2020-08-02T06:50:16.000Z</time>
      </trkpt>
      <trkpt lat="43.55189" lon="3.82157">
        <ele>18.08999936</ele>
        <time>2020-08-02T06:50:19.000Z</time>
      </trkpt>
      <trkpt lat="43.55191" lon="3.82157">
        <ele>18.88999936</ele>
        <time>2020-08-02T06:50:23.000Z</time>
      </trkpt>
      <trkpt lat="43.55192" lon="3.82159">
        <ele>19.14499968</ele>
        <time>2020-08-02T06:50:25.000Z</time>
      </trkpt>
      <trkpt lat="43.55192" lon="3.82162">
        <ele>19.54499968</ele>
        <time>2020-08-02T06:50:29.000Z</time>
      </trkpt>
      <trkpt lat="43.55191" lon="3.82164">
        <ele>19.74499968</ele>
        <time>2020-08-02T06:50:31.000Z</time>
      </trkpt>
      <trkpt lat="43.55189" lon="3.82164">
        <ele>20.04499968</ele>
        <time>2020-08-02T06:50:34.000Z</time>
      </trkpt>
      <trkpt lat="43.55187" lon="3.82165">
        <ele>20.34499968</ele>
        <time>2020-08-02T06:50:37.000Z</time>
      </trkpt>
      <trkpt lat="43.55185" lon="3.82166">
        <ele>20.74499968</ele>
        <time>2020-08-02T06:50:41.000Z</time>
      </trkpt>
      <trkpt lat="43.55183" lon="3.82167">
        <ele>21</ele>
        <time>2020-08-02T06:50:46.000Z</time>
      </trkpt>
      <trkpt lat="43.55183" lon="3.82164">
        <ele>21</ele>
        <time>2020-08-02T06:50:50.000Z</time>
      </trkpt>
      <trkpt lat="43.55185" lon="3.82164">
        <ele>21</ele>
        <time>2020-08-02T06:50:52.000Z</time>
      </trkpt>
      <trkpt lat="43.55187" lon="3.82164">
        <ele>21</ele>
        <time>2020-08-02T06:50:55.000Z</time>
      </trkpt>
      <trkpt lat="43.5519" lon="3.82164">
        <ele>21</ele>
        <time>2020-08-02T06:50:57.000Z</time>
      </trkpt>
      <trkpt lat="43.55192" lon="3.82164">
        <ele>21</ele>
        <time>2020-08-02T06:51:00.000Z</time>
      </trkpt>
      <trkpt lat="43.5519" lon="3.82165">
        <ele>21.041337952756</ele>
        <time>2020-08-02T06:51:04.000Z</time>
      </trkpt>
      <trkpt lat="43.55188" lon="3.82164">
        <ele>22</ele>
        <time>2020-08-02T06:51:09.000Z</time>
      </trkpt>
      <trkpt lat="43.55178" lon="3.82161">
        <ele>22</ele>
        <time>2020-08-02T06:51:54.000Z</time>
      </trkpt>
      <trkpt lat="43.55176" lon="3.82162">
        <ele>21.555802857143</ele>
        <time>2020-08-02T06:51:56.000Z</time>
      </trkpt>
      <trkpt lat="43.5518" lon="3.82164">
        <ele>20.662945714286</ele>
        <time>2020-08-02T06:52:00.000Z</time>
      </trkpt>
      <trkpt lat="43.55179" lon="3.82163">
        <ele>20</ele>
        <time>2020-08-02T06:52:03.000Z</time>
      </trkpt>
      <trkpt lat="43.55174" lon="3.82165">
        <ele>18.972504783704</ele>
        <time>2020-08-02T06:52:10.000Z</time>
      </trkpt>
      <trkpt lat="43.55173" lon="3.82166">
        <ele>18.768838928659</ele>
        <time>2020-08-02T06:52:12.000Z</time>
      </trkpt>
      <trkpt lat="43.55171" lon="3.82167">
        <ele>18.259674291047</ele>
        <time>2020-08-02T06:52:17.000Z</time>
      </trkpt>
      <trkpt lat="43.55169" lon="3.82168">
        <ele>18.056008436003</ele>
        <time>2020-08-02T06:52:19.000Z</time>
      </trkpt>
      <trkpt lat="43.55166" lon="3.82171">
        <ele>18</ele>
        <time>2020-08-02T06:52:21.000Z</time>
      </trkpt>
      <trkpt lat="43.55164" lon="3.82173">
        <ele>18</ele>
        <time>2020-08-02T06:52:23.000Z</time>
      </trkpt>
      <trkpt lat="43.55162" lon="3.82175">
        <ele>18</ele>
        <time>2020-08-02T06:52:25.000Z</time>
      </trkpt>
      <trkpt lat="43.5516" lon="3.82176">
        <ele>18</ele>
        <time>2020-08-02T06:52:27.000Z</time>
      </trkpt>
      <trkpt lat="43.55157" lon="3.82177">
        <ele>18</ele>
        <time>2020-08-02T06:52:29.000Z</time>
      </trkpt>
      <trkpt lat="43.55155" lon="3.82178">
        <ele>17.881443047295</ele>
        <time>2020-08-02T06:52:31.000Z</time>
      </trkpt>
      <trkpt lat="43.55153" lon="3.82179">
        <ele>17.675257616325</ele>
        <time>2020-08-02T06:52:33.000Z</time>
      </trkpt>
      <trkpt lat="43.55152" lon="3.82182">
        <ele>17.469072185354</ele>
        <time>2020-08-02T06:52:35.000Z</time>
      </trkpt>
      <trkpt lat="43.55151" lon="3.82183">
        <ele>17.056701323414</ele>
        <time>2020-08-02T06:52:39.000Z</time>
      </trkpt>
      <trkpt lat="43.55148" lon="3.82183">
        <ele>17</ele>
        <time>2020-08-02T06:52:43.000Z</time>
      </trkpt>
      <trkpt lat="43.55147" lon="3.82182">
        <ele>17</ele>
        <time>2020-08-02T06:52:45.000Z</time>
      </trkpt>
      <trkpt lat="43.55146" lon="3.82179">
        <ele>17</ele>
        <time>2020-08-02T06:52:48.000Z</time>
      </trkpt>
      <trkpt lat="43.55146" lon="3.82176">
        <ele>17.34499968</ele>
        <time>2020-08-02T06:52:53.000Z</time>
      </trkpt>
      <trkpt lat="43.55146" lon="3.82172">
        <ele>17.54499968</ele>
        <time>2020-08-02T06:52:55.000Z</time>
      </trkpt>
      <trkpt lat="43.55146" lon="3.8217">
        <ele>17.979112271541</ele>
        <time>2020-08-02T06:53:01.000Z</time>
      </trkpt>
      <trkpt lat="43.55146" lon="3.82162">
        <ele>17</ele>
        <time>2020-08-02T06:53:16.000Z</time>
      </trkpt>
      <trkpt lat="43.55147" lon="3.8216">
        <ele>16</ele>
        <time>2020-08-02T06:53:19.000Z</time>
      </trkpt>
      <trkpt lat="43.55145" lon="3.82154">
        <ele>15.975879404742</ele>
        <time>2020-08-02T06:53:24.000Z</time>
      </trkpt>
      <trkpt lat="43.55146" lon="3.82149">
        <ele>15.774874444261</ele>
        <time>2020-08-02T06:53:26.000Z</time>
      </trkpt>
      <trkpt lat="43.55147" lon="3.82145">
        <ele>15.573869483781</ele>
        <time>2020-08-02T06:53:28.000Z</time>
      </trkpt>
      <trkpt lat="43.55148" lon="3.82143">
        <ele>15.3728645233</ele>
        <time>2020-08-02T06:53:30.000Z</time>
      </trkpt>
      <trkpt lat="43.55147" lon="3.8214">
        <ele>15.171859562819</ele>
        <time>2020-08-02T06:53:32.000Z</time>
      </trkpt>
      <trkpt lat="43.55147" lon="3.82137">
        <ele>15</ele>
        <time>2020-08-02T06:53:34.000Z</time>
      </trkpt>
      <trkpt lat="43.55146" lon="3.82133">
        <ele>15</ele>
        <time>2020-08-02T06:53:36.000Z</time>
      </trkpt>
      <trkpt lat="43.55147" lon="3.82128">
        <ele>15</ele>
        <time>2020-08-02T06:53:38.000Z</time>
      </trkpt>
      <trkpt lat="43.55148" lon="3.82124">
        <ele>15</ele>
        <time>2020-08-02T06:53:40.000Z</time>
      </trkpt>
      <trkpt lat="43.55148" lon="3.82119">
        <ele>15</ele>
        <time>2020-08-02T06:53:42.000Z</time>
      </trkpt>
      <trkpt lat="43.55147" lon="3.82115">
        <ele>15</ele>
        <time>2020-08-02T06:53:44.000Z</time>
      </trkpt>
      <trkpt lat="43.55147" lon="3.82112">
        <ele>15</ele>
        <time>2020-08-02T06:53:46.000Z</time>
      </trkpt>
      <trkpt lat="43.55146" lon="3.82107">
        <ele>15</ele>
        <time>2020-08-02T06:53:48.000Z</time>
      </trkpt>
      <trkpt lat="43.55145" lon="3.82105">
        <ele>15</ele>
        <time>2020-08-02T06:53:49.000Z</time>
      </trkpt>
      <trkpt lat="43.55145" lon="3.82102">
        <ele>15</ele>
        <time>2020-08-02T06:53:50.000Z</time>
      </trkpt>
      <trkpt lat="43.55145" lon="3.82099">
        <ele>15</ele>
        <time>2020-08-02T06:53:51.000Z</time>
      </trkpt>
      <trkpt lat="43.55146" lon="3.82096">
        <ele>15</ele>
        <time>2020-08-02T06:53:52.000Z</time>
      </trkpt>
      <trkpt lat="43.55146" lon="3.82093">
        <ele>15</ele>
        <time>2020-08-02T06:53:53.000Z</time>
      </trkpt>
      <trkpt lat="43.55147" lon="3.8209">
        <ele>15.04499968</ele>
        <time>2020-08-02T06:53:54.000Z</time>
      </trkpt>
      <trkpt lat="43.55147" lon="3.82088">
        <ele>15.14499968</ele>
        <time>2020-08-02T06:53:55.000Z</time>
      </trkpt>
      <trkpt lat="43.55147" lon="3.82085">
        <ele>15.24499968</ele>
        <time>2020-08-02T06:53:56.000Z</time>
      </trkpt>
      <trkpt lat="43.55147" lon="3.82082">
        <ele>15.34499968</ele>
        <time>2020-08-02T06:53:57.000Z</time>
      </trkpt>
      <trkpt lat="43.55146" lon="3.8208">
        <ele>15.44499968</ele>
        <time>2020-08-02T06:53:58.000Z</time>
      </trkpt>
      <trkpt lat="43.55145" lon="3.82077">
        <ele>15.54499968</ele>
        <time>2020-08-02T06:53:59.000Z</time>
      </trkpt>
      <trkpt lat="43.55144" lon="3.82075">
        <ele>15.64499968</ele>
        <time>2020-08-02T06:54:00.000Z</time>
      </trkpt>
      <trkpt lat="43.55143" lon="3.82073">
        <ele>15.74499968</ele>
        <time>2020-08-02T06:54:01.000Z</time>
      </trkpt>
      <trkpt lat="43.55142" lon="3.82068">
        <ele>15.94499968</ele>
        <time>2020-08-02T06:54:03.000Z</time>
      </trkpt>
      <trkpt lat="43.55141" lon="3.82064">
        <ele>16</ele>
        <time>2020-08-02T06:54:05.000Z</time>
      </trkpt>
      <trkpt lat="43.55142" lon="3.82061">
        <ele>16</ele>
        <time>2020-08-02T06:54:06.000Z</time>
      </trkpt>
      <trkpt lat="43.55143" lon="3.82059">
        <ele>16</ele>
        <time>2020-08-02T06:54:07.000Z</time>
      </trkpt>
      <trkpt lat="43.55144" lon="3.82056">
        <ele>16</ele>
        <time>2020-08-02T06:54:08.000Z</time>
      </trkpt>
      <trkpt lat="43.55144" lon="3.82053">
        <ele>16</ele>
        <time>2020-08-02T06:54:09.000Z</time>
      </trkpt>
      <trkpt lat="43.55145" lon="3.8205">
        <ele>16</ele>
        <time>2020-08-02T06:54:10.000Z</time>
      </trkpt>
      <trkpt lat="43.55148" lon="3.82047">
        <ele>16</ele>
        <time>2020-08-02T06:54:12.000Z</time>
      </trkpt>
      <trkpt lat="43.5515" lon="3.82045">
        <ele>16</ele>
        <time>2020-08-02T06:54:14.000Z</time>
      </trkpt>
      <trkpt lat="43.55152" lon="3.82043">
        <ele>16</ele>
        <time>2020-08-02T06:54:16.000Z</time>
      </trkpt>
      <trkpt lat="43.55155" lon="3.82039">
        <ele>16</ele>
        <time>2020-08-02T06:54:18.000Z</time>
      </trkpt>
      <trkpt lat="43.55157" lon="3.82037">
        <ele>16</ele>
        <time>2020-08-02T06:54:19.000Z</time>
      </trkpt>
      <trkpt lat="43.55158" lon="3.82036">
        <ele>16</ele>
        <time>2020-08-02T06:54:20.000Z</time>
      </trkpt>
      <trkpt lat="43.5516" lon="3.82033">
        <ele>16</ele>
        <time>2020-08-02T06:54:21.000Z</time>
      </trkpt>
      <trkpt lat="43.55162" lon="3.82031">
        <ele>16</ele>
        <time>2020-08-02T06:54:22.000Z</time>
      </trkpt>
      <trkpt lat="43.55163" lon="3.82029">
        <ele>16</ele>
        <time>2020-08-02T06:54:23.000Z</time>
      </trkpt>
      <trkpt lat="43.55165" lon="3.82027">
        <ele>16</ele>
        <time>2020-08-02T06:54:24.000Z</time>
      </trkpt>
      <trkpt lat="43.55167" lon="3.82025">
        <ele>16</ele>
        <time>2020-08-02T06:54:25.000Z</time>
      </trkpt>
      <trkpt lat="43.55168" lon="3.82023">
        <ele>16</ele>
        <time>2020-08-02T06:54:26.000Z</time>
      </trkpt>
      <trkpt lat="43.5517" lon="3.82021">
        <ele>16</ele>
        <time>2020-08-02T06:54:27.000Z</time>
      </trkpt>
      <trkpt lat="43.55171" lon="3.82019">
        <ele>16</ele>
        <time>2020-08-02T06:54:28.000Z</time>
      </trkpt>
      <trkpt lat="43.55173" lon="3.82017">
        <ele>16</ele>
        <time>2020-08-02T06:54:29.000Z</time>
      </trkpt>
      <trkpt lat="43.55174" lon="3.82015">
        <ele>16</ele>
        <time>2020-08-02T06:54:30.000Z</time>
      </trkpt>
      <trkpt lat="43.55176" lon="3.82013">
        <ele>16</ele>
        <time>2020-08-02T06:54:31.000Z</time>
      </trkpt>
      <trkpt lat="43.55178" lon="3.82011">
        <ele>16</ele>
        <time>2020-08-02T06:54:32.000Z</time>
      </trkpt>
      <trkpt lat="43.5518" lon="3.8201">
        <ele>16</ele>
        <time>2020-08-02T06:54:33.000Z</time>
      </trkpt>
      <trkpt lat="43.55182" lon="3.82008">
        <ele>16</ele>
        <time>2020-08-02T06:54:34.000Z</time>
      </trkpt>
      <trkpt lat="43.55183" lon="3.82006">
        <ele>16</ele>
        <time>2020-08-02T06:54:35.000Z</time>
      </trkpt>
      <trkpt lat="43.55185" lon="3.82004">
        <ele>16</ele>
        <time>2020-08-02T06:54:36.000Z</time>
      </trkpt>
      <trkpt lat="43.55186" lon="3.82001">
        <ele>16</ele>
        <time>2020-08-02T06:54:37.000Z</time>
      </trkpt>
      <trkpt lat="43.55188" lon="3.82">
        <ele>16</ele>
        <time>2020-08-02T06:54:38.000Z</time>
      </trkpt>
      <trkpt lat="43.55189" lon="3.81998">
        <ele>16</ele>
        <time>2020-08-02T06:54:39.000Z</time>
      </trkpt>
      <trkpt lat="43.55191" lon="3.81996">
        <ele>16</ele>
        <time>2020-08-02T06:54:40.000Z</time>
      </trkpt>
      <trkpt lat="43.55192" lon="3.81994">
        <ele>16</ele>
        <time>2020-08-02T06:54:41.000Z</time>
      </trkpt>
      <trkpt lat="43.55194" lon="3.81992">
        <ele>16</ele>
        <time>2020-08-02T06:54:42.000Z</time>
      </trkpt>
      <trkpt lat="43.55196" lon="3.8199">
        <ele>16</ele>
        <time>2020-08-02T06:54:43.000Z</time>
      </trkpt>
      <trkpt lat="43.55197" lon="3.81988">
        <ele>16</ele>
        <time>2020-08-02T06:54:44.000Z</time>
      </trkpt>
      <trkpt lat="43.55198" lon="3.81986">
        <ele>16</ele>
        <time>2020-08-02T06:54:45.000Z</time>
      </trkpt>
      <trkpt lat="43.55199" lon="3.81985">
        <ele>16</ele>
        <time>2020-08-02T06:54:51.000Z</time>
      </trkpt>
      <trkpt lat="43.55195" lon="3.81981">
        <ele>16</ele>
        <time>2020-08-02T06:55:04.000Z</time>
      </trkpt>
      <trkpt lat="43.55193" lon="3.81978">
        <ele>16</ele>
        <time>2020-08-02T06:55:06.000Z</time>
      </trkpt>
      <trkpt lat="43.55192" lon="3.81973">
        <ele>16</ele>
        <time>2020-08-02T06:55:08.000Z</time>
      </trkpt>
      <trkpt lat="43.55191" lon="3.81971">
        <ele>16</ele>
        <time>2020-08-02T06:55:09.000Z</time>
      </trkpt>
      <trkpt lat="43.55191" lon="3.81967">
        <ele>16</ele>
        <time>2020-08-02T06:55:11.000Z</time>
      </trkpt>
      <trkpt lat="43.55191" lon="3.81963">
        <ele>16</ele>
        <time>2020-08-02T06:55:13.000Z</time>
      </trkpt>
      <trkpt lat="43.55192" lon="3.8196">
        <ele>16</ele>
        <time>2020-08-02T06:55:15.000Z</time>
      </trkpt>
      <trkpt lat="43.55194" lon="3.81958">
        <ele>16</ele>
        <time>2020-08-02T06:55:17.000Z</time>
      </trkpt>
      <trkpt lat="43.55198" lon="3.81957">
        <ele>16</ele>
        <time>2020-08-02T06:55:19.000Z</time>
      </trkpt>
      <trkpt lat="43.552" lon="3.81956">
        <ele>16</ele>
        <time>2020-08-02T06:55:20.000Z</time>
      </trkpt>
      <trkpt lat="43.55202" lon="3.81955">
        <ele>16</ele>
        <time>2020-08-02T06:55:21.000Z</time>
      </trkpt>
      <trkpt lat="43.55204" lon="3.81953">
        <ele>16</ele>
        <time>2020-08-02T06:55:22.000Z</time>
      </trkpt>
      <trkpt lat="43.55207" lon="3.81951">
        <ele>16</ele>
        <time>2020-08-02T06:55:23.000Z</time>
      </trkpt>
      <trkpt lat="43.5521" lon="3.81949">
        <ele>16</ele>
        <time>2020-08-02T06:55:24.000Z</time>
      </trkpt>
      <trkpt lat="43.55213" lon="3.81946">
        <ele>16</ele>
        <time>2020-08-02T06:55:25.000Z</time>
      </trkpt>
      <trkpt lat="43.55215" lon="3.81943">
        <ele>16</ele>
        <time>2020-08-02T06:55:26.000Z</time>
      </trkpt>
      <trkpt lat="43.55218" lon="3.8194">
        <ele>16</ele>
        <time>2020-08-02T06:55:27.000Z</time>
      </trkpt>
      <trkpt lat="43.55221" lon="3.81937">
        <ele>16</ele>
        <time>2020-08-02T06:55:28.000Z</time>
      </trkpt>
      <trkpt lat="43.55223" lon="3.81933">
        <ele>16</ele>
        <time>2020-08-02T06:55:29.000Z</time>
      </trkpt>
      <trkpt lat="43.55226" lon="3.8193">
        <ele>16</ele>
        <time>2020-08-02T06:55:30.000Z</time>
      </trkpt>
      <trkpt lat="43.55229" lon="3.81927">
        <ele>16</ele>
        <time>2020-08-02T06:55:31.000Z</time>
      </trkpt>
      <trkpt lat="43.55232" lon="3.81925">
        <ele>16</ele>
        <time>2020-08-02T06:55:32.000Z</time>
      </trkpt>
      <trkpt lat="43.55235" lon="3.81922">
        <ele>16</ele>
        <time>2020-08-02T06:55:33.000Z</time>
      </trkpt>
      <trkpt lat="43.55237" lon="3.8192">
        <ele>16</ele>
        <time>2020-08-02T06:55:34.000Z</time>
      </trkpt>
      <trkpt lat="43.5524" lon="3.81918">
        <ele>16</ele>
        <time>2020-08-02T06:55:35.000Z</time>
      </trkpt>
      <trkpt lat="43.55242" lon="3.81916">
        <ele>16</ele>
        <time>2020-08-02T06:55:36.000Z</time>
      </trkpt>
      <trkpt lat="43.55244" lon="3.81914">
        <ele>16</ele>
        <time>2020-08-02T06:55:37.000Z</time>
      </trkpt>
      <trkpt lat="43.55246" lon="3.81912">
        <ele>16</ele>
        <time>2020-08-02T06:55:38.000Z</time>
      </trkpt>
      <trkpt lat="43.55248" lon="3.8191">
        <ele>16</ele>
        <time>2020-08-02T06:55:39.000Z</time>
      </trkpt>
      <trkpt lat="43.5525" lon="3.81909">
        <ele>16</ele>
        <time>2020-08-02T06:55:40.000Z</time>
      </trkpt>
      <trkpt lat="43.55253" lon="3.81909">
        <ele>16</ele>
        <time>2020-08-02T06:55:41.000Z</time>
      </trkpt>
      <trkpt lat="43.55255" lon="3.81909">
        <ele>16</ele>
        <time>2020-08-02T06:55:42.000Z</time>
      </trkpt>
      <trkpt lat="43.55256" lon="3.8191">
        <ele>16</ele>
        <time>2020-08-02T06:55:43.000Z</time>
      </trkpt>
      <trkpt lat="43.55258" lon="3.81912">
        <ele>16</ele>
        <time>2020-08-02T06:55:44.000Z</time>
      </trkpt>
      <trkpt lat="43.5526" lon="3.81914">
        <ele>16</ele>
        <time>2020-08-02T06:55:45.000Z</time>
      </trkpt>
      <trkpt lat="43.55262" lon="3.81916">
        <ele>16</ele>
        <time>2020-08-02T06:55:46.000Z</time>
      </trkpt>
      <trkpt lat="43.55263" lon="3.81919">
        <ele>16</ele>
        <time>2020-08-02T06:55:47.000Z</time>
      </trkpt>
      <trkpt lat="43.55265" lon="3.81923">
        <ele>16</ele>
        <time>2020-08-02T06:55:48.000Z</time>
      </trkpt>
      <trkpt lat="43.55267" lon="3.81926">
        <ele>16</ele>
        <time>2020-08-02T06:55:49.000Z</time>
      </trkpt>
      <trkpt lat="43.55269" lon="3.8193">
        <ele>16</ele>
        <time>2020-08-02T06:55:50.000Z</time>
      </trkpt>
      <trkpt lat="43.5527" lon="3.81933">
        <ele>16</ele>
        <time>2020-08-02T06:55:51.000Z</time>
      </trkpt>
      <trkpt lat="43.55272" lon="3.81937">
        <ele>16</ele>
        <time>2020-08-02T06:55:52.000Z</time>
      </trkpt>
      <trkpt lat="43.55274" lon="3.81941">
        <ele>16</ele>
        <time>2020-08-02T06:55:53.000Z</time>
      </trkpt>
      <trkpt lat="43.55276" lon="3.81945">
        <ele>16</ele>
        <time>2020-08-02T06:55:54.000Z</time>
      </trkpt>
      <trkpt lat="43.55278" lon="3.81949">
        <ele>16</ele>
        <time>2020-08-02T06:55:55.000Z</time>
      </trkpt>
      <trkpt lat="43.55279" lon="3.81953">
        <ele>16</ele>
        <time>2020-08-02T06:55:56.000Z</time>
      </trkpt>
      <trkpt lat="43.55281" lon="3.81956">
        <ele>16</ele>
        <time>2020-08-02T06:55:57.000Z</time>
      </trkpt>
      <trkpt lat="43.55283" lon="3.8196">
        <ele>16</ele>
        <time>2020-08-02T06:55:58.000Z</time>
      </trkpt>
      <trkpt lat="43.55285" lon="3.81964">
        <ele>16</ele>
        <time>2020-08-02T06:55:59.000Z</time>
      </trkpt>
      <trkpt lat="43.55287" lon="3.81968">
        <ele>16</ele>
        <time>2020-08-02T06:56:00.000Z</time>
      </trkpt>
      <trkpt lat="43.55288" lon="3.81971">
        <ele>16</ele>
        <time>2020-08-02T06:56:01.000Z</time>
      </trkpt>
      <trkpt lat="43.5529" lon="3.81973">
        <ele>16</ele>
        <time>2020-08-02T06:56:02.000Z</time>
      </trkpt>
      <trkpt lat="43.55292" lon="3.81976">
        <ele>16</ele>
        <time>2020-08-02T06:56:03.000Z</time>
      </trkpt>
      <trkpt lat="43.55294" lon="3.81978">
        <ele>16.04499968</ele>
        <time>2020-08-02T06:56:04.000Z</time>
      </trkpt>
      <trkpt lat="43.55297" lon="3.81979">
        <ele>16.14499968</ele>
        <time>2020-08-02T06:56:05.000Z</time>
      </trkpt>
      <trkpt lat="43.553" lon="3.8198">
        <ele>16.24499968</ele>
        <time>2020-08-02T06:56:06.000Z</time>
      </trkpt>
      <trkpt lat="43.55302" lon="3.8198">
        <ele>16.34499968</ele>
        <time>2020-08-02T06:56:07.000Z</time>
      </trkpt>
      <trkpt lat="43.55304" lon="3.81979">
        <ele>16.44499968</ele>
        <time>2020-08-02T06:56:08.000Z</time>
      </trkpt>
      <trkpt lat="43.55306" lon="3.81979">
        <ele>16.54499968</ele>
        <time>2020-08-02T06:56:09.000Z</time>
      </trkpt>
      <trkpt lat="43.55308" lon="3.81978">
        <ele>16.64499968</ele>
        <time>2020-08-02T06:56:10.000Z</time>
      </trkpt>
      <trkpt lat="43.55311" lon="3.81977">
        <ele>16.74499968</ele>
        <time>2020-08-02T06:56:11.000Z</time>
      </trkpt>
      <trkpt lat="43.55312" lon="3.81976">
        <ele>16.84499968</ele>
        <time>2020-08-02T06:56:12.000Z</time>
      </trkpt>
      <trkpt lat="43.55315" lon="3.81974">
        <ele>16.95500032</ele>
        <time>2020-08-02T06:56:14.000Z</time>
      </trkpt>
      <trkpt lat="43.55322" lon="3.81965">
        <ele>16.45500032</ele>
        <time>2020-08-02T06:56:19.000Z</time>
      </trkpt>
      <trkpt lat="43.5533" lon="3.81954">
        <ele>16.05500032</ele>
        <time>2020-08-02T06:56:23.000Z</time>
      </trkpt>
      <trkpt lat="43.55337" lon="3.81944">
        <ele>16.43499904</ele>
        <time>2020-08-02T06:56:25.000Z</time>
      </trkpt>
      <trkpt lat="43.55347" lon="3.81939">
        <ele>17.33499904</ele>
        <time>2020-08-02T06:56:28.000Z</time>
      </trkpt>
      <trkpt lat="43.55357" lon="3.81932">
        <ele>18.23499904</ele>
        <time>2020-08-02T06:56:31.000Z</time>
      </trkpt>
      <trkpt lat="43.55359" lon="3.81929">
        <ele>18.53499904</ele>
        <time>2020-08-02T06:56:32.000Z</time>
      </trkpt>
      <trkpt lat="43.55363" lon="3.81917">
        <ele>19</ele>
        <time>2020-08-02T06:56:35.000Z</time>
      </trkpt>
      <trkpt lat="43.55363" lon="3.81914">
        <ele>19</ele>
        <time>2020-08-02T06:56:36.000Z</time>
      </trkpt>
      <trkpt lat="43.55362" lon="3.81911">
        <ele>19</ele>
        <time>2020-08-02T06:56:37.000Z</time>
      </trkpt>
      <trkpt lat="43.5536" lon="3.81908">
        <ele>19</ele>
        <time>2020-08-02T06:56:38.000Z</time>
      </trkpt>
      <trkpt lat="43.55358" lon="3.81905">
        <ele>19</ele>
        <time>2020-08-02T06:56:39.000Z</time>
      </trkpt>
      <trkpt lat="43.55356" lon="3.81901">
        <ele>19</ele>
        <time>2020-08-02T06:56:40.000Z</time>
      </trkpt>
      <trkpt lat="43.55353" lon="3.81898">
        <ele>19</ele>
        <time>2020-08-02T06:56:41.000Z</time>
      </trkpt>
      <trkpt lat="43.55351" lon="3.81895">
        <ele>19</ele>
        <time>2020-08-02T06:56:42.000Z</time>
      </trkpt>
      <trkpt lat="43.55349" lon="3.81892">
        <ele>19</ele>
        <time>2020-08-02T06:56:43.000Z</time>
      </trkpt>
      <trkpt lat="43.55347" lon="3.81889">
        <ele>19</ele>
        <time>2020-08-02T06:56:44.000Z</time>
      </trkpt>
      <trkpt lat="43.55345" lon="3.81887">
        <ele>19</ele>
        <time>2020-08-02T06:56:45.000Z</time>
      </trkpt>
      <trkpt lat="43.55343" lon="3.81884">
        <ele>19</ele>
        <time>2020-08-02T06:56:46.000Z</time>
      </trkpt>
      <trkpt lat="43.55341" lon="3.81882">
        <ele>19</ele>
        <time>2020-08-02T06:56:47.000Z</time>
      </trkpt>
      <trkpt lat="43.55339" lon="3.81879">
        <ele>19</ele>
        <time>2020-08-02T06:56:48.000Z</time>
      </trkpt>
      <trkpt lat="43.55338" lon="3.81876">
        <ele>19</ele>
        <time>2020-08-02T06:56:49.000Z</time>
      </trkpt>
      <trkpt lat="43.55336" lon="3.81874">
        <ele>19</ele>
        <time>2020-08-02T06:56:50.000Z</time>
      </trkpt>
      <trkpt lat="43.55334" lon="3.81871">
        <ele>19</ele>
        <time>2020-08-02T06:56:51.000Z</time>
      </trkpt>
      <trkpt lat="43.55332" lon="3.81868">
        <ele>19</ele>
        <time>2020-08-02T06:56:52.000Z</time>
      </trkpt>
      <trkpt lat="43.5533" lon="3.81865">
        <ele>19</ele>
        <time>2020-08-02T06:56:53.000Z</time>
      </trkpt>
      <trkpt lat="43.55329" lon="3.81862">
        <ele>19.04499968</ele>
        <time>2020-08-02T06:56:54.000Z</time>
      </trkpt>
      <trkpt lat="43.55327" lon="3.81859">
        <ele>19.14499968</ele>
        <time>2020-08-02T06:56:55.000Z</time>
      </trkpt>
      <trkpt lat="43.55326" lon="3.81855">
        <ele>19.24499968</ele>
        <time>2020-08-02T06:56:56.000Z</time>
      </trkpt>
      <trkpt lat="43.55324" lon="3.81852">
        <ele>19.34499968</ele>
        <time>2020-08-02T06:56:57.000Z</time>
      </trkpt>
      <trkpt lat="43.55323" lon="3.81849">
        <ele>19.44499968</ele>
        <time>2020-08-02T06:56:58.000Z</time>
      </trkpt>
      <trkpt lat="43.55322" lon="3.81845">
        <ele>19.54499968</ele>
        <time>2020-08-02T06:56:59.000Z</time>
      </trkpt>
      <trkpt lat="43.55322" lon="3.81842">
        <ele>19.64499968</ele>
        <time>2020-08-02T06:57:00.000Z</time>
      </trkpt>
      <trkpt lat="43.55321" lon="3.81838">
        <ele>19.74499968</ele>
        <time>2020-08-02T06:57:01.000Z</time>
      </trkpt>
      <trkpt lat="43.5532" lon="3.81835">
        <ele>19.84499968</ele>
        <time>2020-08-02T06:57:02.000Z</time>
      </trkpt>
      <trkpt lat="43.5532" lon="3.81831">
        <ele>19.94499968</ele>
        <time>2020-08-02T06:57:03.000Z</time>
      </trkpt>
      <trkpt lat="43.55319" lon="3.81828">
        <ele>20.04499968</ele>
        <time>2020-08-02T06:57:04.000Z</time>
      </trkpt>
      <trkpt lat="43.55318" lon="3.81825">
        <ele>20.14499968</ele>
        <time>2020-08-02T06:57:05.000Z</time>
      </trkpt>
      <trkpt lat="43.55317" lon="3.81822">
        <ele>20.24499968</ele>
        <time>2020-08-02T06:57:06.000Z</time>
      </trkpt>
      <trkpt lat="43.55316" lon="3.81819">
        <ele>20.34499968</ele>
        <time>2020-08-02T06:57:07.000Z</time>
      </trkpt>
      <trkpt lat="43.55315" lon="3.81816">
        <ele>20.44499968</ele>
        <time>2020-08-02T06:57:08.000Z</time>
      </trkpt>
      <trkpt lat="43.55314" lon="3.81814">
        <ele>20.54499968</ele>
        <time>2020-08-02T06:57:09.000Z</time>
      </trkpt>
      <trkpt lat="43.55312" lon="3.81811">
        <ele>20.64499968</ele>
        <time>2020-08-02T06:57:10.000Z</time>
      </trkpt>
      <trkpt lat="43.55311" lon="3.81808">
        <ele>20.74499968</ele>
        <time>2020-08-02T06:57:11.000Z</time>
      </trkpt>
      <trkpt lat="43.5531" lon="3.81805">
        <ele>20.84499968</ele>
        <time>2020-08-02T06:57:12.000Z</time>
      </trkpt>
      <trkpt lat="43.55309" lon="3.81802">
        <ele>20.94499968</ele>
        <time>2020-08-02T06:57:13.000Z</time>
      </trkpt>
      <trkpt lat="43.55308" lon="3.81799">
        <ele>21</ele>
        <time>2020-08-02T06:57:14.000Z</time>
      </trkpt>
      <trkpt lat="43.55307" lon="3.81795">
        <ele>21</ele>
        <time>2020-08-02T06:57:15.000Z</time>
      </trkpt>
      <trkpt lat="43.55306" lon="3.81792">
        <ele>21</ele>
        <time>2020-08-02T06:57:16.000Z</time>
      </trkpt>
      <trkpt lat="43.55305" lon="3.81789">
        <ele>21</ele>
        <time>2020-08-02T06:57:17.000Z</time>
      </trkpt>
      <trkpt lat="43.55304" lon="3.81785">
        <ele>21</ele>
        <time>2020-08-02T06:57:18.000Z</time>
      </trkpt>
      <trkpt lat="43.55303" lon="3.81782">
        <ele>21</ele>
        <time>2020-08-02T06:57:19.000Z</time>
      </trkpt>
      <trkpt lat="43.55302" lon="3.81779">
        <ele>21</ele>
        <time>2020-08-02T06:57:20.000Z</time>
      </trkpt>
      <trkpt lat="43.55301" lon="3.81775">
        <ele>21</ele>
        <time>2020-08-02T06:57:21.000Z</time>
      </trkpt>
      <trkpt lat="43.55299" lon="3.81772">
        <ele>21</ele>
        <time>2020-08-02T06:57:22.000Z</time>
      </trkpt>
      <trkpt lat="43.55298" lon="3.81769">
        <ele>21</ele>
        <time>2020-08-02T06:57:23.000Z</time>
      </trkpt>
      <trkpt lat="43.55297" lon="3.81765">
        <ele>21.04499968</ele>
        <time>2020-08-02T06:57:24.000Z</time>
      </trkpt>
      <trkpt lat="43.55296" lon="3.81762">
        <ele>21.14499968</ele>
        <time>2020-08-02T06:57:25.000Z</time>
      </trkpt>
      <trkpt lat="43.55294" lon="3.81759">
        <ele>21.24499968</ele>
        <time>2020-08-02T06:57:26.000Z</time>
      </trkpt>
      <trkpt lat="43.55293" lon="3.81756">
        <ele>21.34499968</ele>
        <time>2020-08-02T06:57:27.000Z</time>
      </trkpt>
      <trkpt lat="43.55293" lon="3.81753">
        <ele>21.44499968</ele>
        <time>2020-08-02T06:57:28.000Z</time>
      </trkpt>
      <trkpt lat="43.55292" lon="3.8175">
        <ele>21.54499968</ele>
        <time>2020-08-02T06:57:29.000Z</time>
      </trkpt>
      <trkpt lat="43.55292" lon="3.81747">
        <ele>21.64499968</ele>
        <time>2020-08-02T06:57:30.000Z</time>
      </trkpt>
      <trkpt lat="43.55291" lon="3.81744">
        <ele>21.74499968</ele>
        <time>2020-08-02T06:57:31.000Z</time>
      </trkpt>
      <trkpt lat="43.5529" lon="3.81741">
        <ele>21.84499968</ele>
        <time>2020-08-02T06:57:32.000Z</time>
      </trkpt>
      <trkpt lat="43.55288" lon="3.81738">
        <ele>22</ele>
        <time>2020-08-02T06:57:34.000Z</time>
      </trkpt>
      <trkpt lat="43.55287" lon="3.81736">
        <ele>22</ele>
        <time>2020-08-02T06:57:35.000Z</time>
      </trkpt>
      <trkpt lat="43.55284" lon="3.81733">
        <ele>22</ele>
        <time>2020-08-02T06:57:37.000Z</time>
      </trkpt>
      <trkpt lat="43.55282" lon="3.8173">
        <ele>22</ele>
        <time>2020-08-02T06:57:39.000Z</time>
      </trkpt>
      <trkpt lat="43.5528" lon="3.81726">
        <ele>22</ele>
        <time>2020-08-02T06:57:41.000Z</time>
      </trkpt>
      <trkpt lat="43.55278" lon="3.81723">
        <ele>22</ele>
        <time>2020-08-02T06:57:43.000Z</time>
      </trkpt>
      <trkpt lat="43.55277" lon="3.8172">
        <ele>21.79663429863</ele>
        <time>2020-08-02T06:57:45.000Z</time>
      </trkpt>
      <trkpt lat="43.55276" lon="3.81717">
        <ele>21.516129263901</ele>
        <time>2020-08-02T06:57:47.000Z</time>
      </trkpt>
      <trkpt lat="43.55276" lon="3.81717">
        <ele>21.006542359561</ele>
        <time>2020-08-02T06:57:51.000Z</time>
      </trkpt>
      <trkpt lat="43.55283" lon="3.81723">
        <ele>22</ele>
        <time>2020-08-02T06:58:32.000Z</time>
      </trkpt>
      <trkpt lat="43.55284" lon="3.81725">
        <ele>22</ele>
        <time>2020-08-02T06:58:33.000Z</time>
      </trkpt>
      <trkpt lat="43.55285" lon="3.81728">
        <ele>22</ele>
        <time>2020-08-02T06:58:35.000Z</time>
      </trkpt>
      <trkpt lat="43.55286" lon="3.81732">
        <ele>22</ele>
        <time>2020-08-02T06:58:37.000Z</time>
      </trkpt>
      <trkpt lat="43.55288" lon="3.81735">
        <ele>22</ele>
        <time>2020-08-02T06:58:39.000Z</time>
      </trkpt>
      <trkpt lat="43.5529" lon="3.81739">
        <ele>22</ele>
        <time>2020-08-02T06:58:41.000Z</time>
      </trkpt>
      <trkpt lat="43.55292" lon="3.81742">
        <ele>22</ele>
        <time>2020-08-02T06:58:43.000Z</time>
      </trkpt>
      <trkpt lat="43.55294" lon="3.81746">
        <ele>22</ele>
        <time>2020-08-02T06:58:45.000Z</time>
      </trkpt>
      <trkpt lat="43.55295" lon="3.81749">
        <ele>22</ele>
        <time>2020-08-02T06:58:46.000Z</time>
      </trkpt>
      <trkpt lat="43.55295" lon="3.81751">
        <ele>22</ele>
        <time>2020-08-02T06:58:47.000Z</time>
      </trkpt>
      <trkpt lat="43.55296" lon="3.81754">
        <ele>22</ele>
        <time>2020-08-02T06:58:48.000Z</time>
      </trkpt>
      <trkpt lat="43.55297" lon="3.81757">
        <ele>22</ele>
        <time>2020-08-02T06:58:49.000Z</time>
      </trkpt>
      <trkpt lat="43.55298" lon="3.81761">
        <ele>22</ele>
        <time>2020-08-02T06:58:50.000Z</time>
      </trkpt>
      <trkpt lat="43.55299" lon="3.81765">
        <ele>22</ele>
        <time>2020-08-02T06:58:51.000Z</time>
      </trkpt>
      <trkpt lat="43.55301" lon="3.81769">
        <ele>21.985551469423</ele>
        <time>2020-08-02T06:58:52.000Z</time>
      </trkpt>
      <trkpt lat="43.55302" lon="3.81773">
        <ele>21.882352397257</ele>
        <time>2020-08-02T06:58:53.000Z</time>
      </trkpt>
      <trkpt lat="43.55304" lon="3.81777">
        <ele>21.779153325091</ele>
        <time>2020-08-02T06:58:54.000Z</time>
      </trkpt>
      <trkpt lat="43.55305" lon="3.81782">
        <ele>21.675954252925</ele>
        <time>2020-08-02T06:58:55.000Z</time>
      </trkpt>
      <trkpt lat="43.55307" lon="3.81786">
        <ele>21.572755180758</ele>
        <time>2020-08-02T06:58:56.000Z</time>
      </trkpt>
      <trkpt lat="43.55308" lon="3.81791">
        <ele>21.469556108592</ele>
        <time>2020-08-02T06:58:57.000Z</time>
      </trkpt>
      <trkpt lat="43.5531" lon="3.81795">
        <ele>21.366357036426</ele>
        <time>2020-08-02T06:58:58.000Z</time>
      </trkpt>
      <trkpt lat="43.55312" lon="3.818">
        <ele>21.26315796426</ele>
        <time>2020-08-02T06:58:59.000Z</time>
      </trkpt>
      <trkpt lat="43.55313" lon="3.81804">
        <ele>21.159958892094</ele>
        <time>2020-08-02T06:59:00.000Z</time>
      </trkpt>
      <trkpt lat="43.55315" lon="3.81808">
        <ele>21.056759819928</ele>
        <time>2020-08-02T06:59:01.000Z</time>
      </trkpt>
      <trkpt lat="43.55317" lon="3.81812">
        <ele>21</ele>
        <time>2020-08-02T06:59:02.000Z</time>
      </trkpt>
      <trkpt lat="43.5532" lon="3.81816">
        <ele>21</ele>
        <time>2020-08-02T06:59:03.000Z</time>
      </trkpt>
      <trkpt lat="43.55322" lon="3.81817">
        <ele>21</ele>
        <time>2020-08-02T06:59:04.000Z</time>
      </trkpt>
      <trkpt lat="43.55323" lon="3.81817">
        <ele>21</ele>
        <time>2020-08-02T06:59:05.000Z</time>
      </trkpt>
      <trkpt lat="43.55325" lon="3.81816">
        <ele>21</ele>
        <time>2020-08-02T06:59:06.000Z</time>
      </trkpt>
      <trkpt lat="43.55327" lon="3.81814">
        <ele>21</ele>
        <time>2020-08-02T06:59:07.000Z</time>
      </trkpt>
      <trkpt lat="43.55327" lon="3.81809">
        <ele>21</ele>
        <time>2020-08-02T06:59:09.000Z</time>
      </trkpt>
      <trkpt lat="43.55326" lon="3.81805">
        <ele>21</ele>
        <time>2020-08-02T06:59:10.000Z</time>
      </trkpt>
      <trkpt lat="43.55325" lon="3.81802">
        <ele>21</ele>
        <time>2020-08-02T06:59:11.000Z</time>
      </trkpt>
      <trkpt lat="43.55325" lon="3.81798">
        <ele>21</ele>
        <time>2020-08-02T06:59:12.000Z</time>
      </trkpt>
      <trkpt lat="43.55324" lon="3.81794">
        <ele>21</ele>
        <time>2020-08-02T06:59:13.000Z</time>
      </trkpt>
      <trkpt lat="43.55324" lon="3.8179">
        <ele>21</ele>
        <time>2020-08-02T06:59:14.000Z</time>
      </trkpt>
      <trkpt lat="43.55323" lon="3.81787">
        <ele>21</ele>
        <time>2020-08-02T06:59:15.000Z</time>
      </trkpt>
      <trkpt lat="43.55323" lon="3.81783">
        <ele>21</ele>
        <time>2020-08-02T06:59:16.000Z</time>
      </trkpt>
      <trkpt lat="43.55323" lon="3.81779">
        <ele>21</ele>
        <time>2020-08-02T06:59:17.000Z</time>
      </trkpt>
      <trkpt lat="43.55323" lon="3.81775">
        <ele>21</ele>
        <time>2020-08-02T06:59:18.000Z</time>
      </trkpt>
      <trkpt lat="43.55323" lon="3.81771">
        <ele>21</ele>
        <time>2020-08-02T06:59:19.000Z</time>
      </trkpt>
      <trkpt lat="43.55324" lon="3.81767">
        <ele>21</ele>
        <time>2020-08-02T06:59:20.000Z</time>
      </trkpt>
      <trkpt lat="43.55325" lon="3.81764">
        <ele>21</ele>
        <time>2020-08-02T06:59:21.000Z</time>
      </trkpt>
      <trkpt lat="43.55326" lon="3.8176">
        <ele>21.04003875</ele>
        <time>2020-08-02T06:59:22.000Z</time>
      </trkpt>
      <trkpt lat="43.55327" lon="3.81757">
        <ele>21.137695</ele>
        <time>2020-08-02T06:59:23.000Z</time>
      </trkpt>
      <trkpt lat="43.55328" lon="3.81754">
        <ele>21.23535125</ele>
        <time>2020-08-02T06:59:24.000Z</time>
      </trkpt>
      <trkpt lat="43.5533" lon="3.81751">
        <ele>21.3330075</ele>
        <time>2020-08-02T06:59:25.000Z</time>
      </trkpt>
      <trkpt lat="43.55331" lon="3.81748">
        <ele>21.43066375</ele>
        <time>2020-08-02T06:59:26.000Z</time>
      </trkpt>
      <trkpt lat="43.55333" lon="3.81745">
        <ele>21.52832</ele>
        <time>2020-08-02T06:59:27.000Z</time>
      </trkpt>
      <trkpt lat="43.55334" lon="3.81742">
        <ele>21.62597625</ele>
        <time>2020-08-02T06:59:28.000Z</time>
      </trkpt>
      <trkpt lat="43.55336" lon="3.81739">
        <ele>21.7236325</ele>
        <time>2020-08-02T06:59:29.000Z</time>
      </trkpt>
      <trkpt lat="43.55338" lon="3.81736">
        <ele>21.82128875</ele>
        <time>2020-08-02T06:59:30.000Z</time>
      </trkpt>
      <trkpt lat="43.5534" lon="3.81734">
        <ele>21.918945</ele>
        <time>2020-08-02T06:59:31.000Z</time>
      </trkpt>
      <trkpt lat="43.55342" lon="3.81732">
        <ele>22.017489382716</ele>
        <time>2020-08-02T06:59:32.000Z</time>
      </trkpt>
      <trkpt lat="43.55344" lon="3.8173">
        <ele>22.120370041152</ele>
        <time>2020-08-02T06:59:33.000Z</time>
      </trkpt>
      <trkpt lat="43.55346" lon="3.81728">
        <ele>22.223250699589</ele>
        <time>2020-08-02T06:59:34.000Z</time>
      </trkpt>
      <trkpt lat="43.55348" lon="3.81726">
        <ele>22.326131358025</ele>
        <time>2020-08-02T06:59:35.000Z</time>
      </trkpt>
      <trkpt lat="43.55351" lon="3.81725">
        <ele>22.429012016461</ele>
        <time>2020-08-02T06:59:36.000Z</time>
      </trkpt>
      <trkpt lat="43.55354" lon="3.81724">
        <ele>22.531892674897</ele>
        <time>2020-08-02T06:59:37.000Z</time>
      </trkpt>
      <trkpt lat="43.55356" lon="3.81722">
        <ele>22.634773333333</ele>
        <time>2020-08-02T06:59:38.000Z</time>
      </trkpt>
      <trkpt lat="43.55359" lon="3.81721">
        <ele>22.737653991769</ele>
        <time>2020-08-02T06:59:39.000Z</time>
      </trkpt>
      <trkpt lat="43.55362" lon="3.8172">
        <ele>22.840534650206</ele>
        <time>2020-08-02T06:59:40.000Z</time>
      </trkpt>
      <trkpt lat="43.55364" lon="3.81719">
        <ele>22.943415308642</ele>
        <time>2020-08-02T06:59:41.000Z</time>
      </trkpt>
      <trkpt lat="43.55367" lon="3.81718">
        <ele>23.04499968</ele>
        <time>2020-08-02T06:59:42.000Z</time>
      </trkpt>
      <trkpt lat="43.5537" lon="3.81717">
        <ele>23.14499968</ele>
        <time>2020-08-02T06:59:43.000Z</time>
      </trkpt>
      <trkpt lat="43.55373" lon="3.81715">
        <ele>23.24499968</ele>
        <time>2020-08-02T06:59:44.000Z</time>
      </trkpt>
      <trkpt lat="43.55376" lon="3.81714">
        <ele>23.34499968</ele>
        <time>2020-08-02T06:59:45.000Z</time>
      </trkpt>
      <trkpt lat="43.55378" lon="3.81713">
        <ele>23.44499968</ele>
        <time>2020-08-02T06:59:46.000Z</time>
      </trkpt>
      <trkpt lat="43.55381" lon="3.81711">
        <ele>23.54499968</ele>
        <time>2020-08-02T06:59:47.000Z</time>
      </trkpt>
      <trkpt lat="43.55384" lon="3.8171">
        <ele>23.64499968</ele>
        <time>2020-08-02T06:59:48.000Z</time>
      </trkpt>
      <trkpt lat="43.55387" lon="3.81709">
        <ele>23.74499968</ele>
        <time>2020-08-02T06:59:49.000Z</time>
      </trkpt>
      <trkpt lat="43.5539" lon="3.81707">
        <ele>23.84499968</ele>
        <time>2020-08-02T06:59:50.000Z</time>
      </trkpt>
      <trkpt lat="43.55393" lon="3.81706">
        <ele>23.94499968</ele>
        <time>2020-08-02T06:59:51.000Z</time>
      </trkpt>
      <trkpt lat="43.55395" lon="3.81704">
        <ele>24.04499968</ele>
        <time>2020-08-02T06:59:52.000Z</time>
      </trkpt>
      <trkpt lat="43.55398" lon="3.81703">
        <ele>24.14499968</ele>
        <time>2020-08-02T06:59:53.000Z</time>
      </trkpt>
      <trkpt lat="43.554" lon="3.81701">
        <ele>24.24499968</ele>
        <time>2020-08-02T06:59:54.000Z</time>
      </trkpt>
      <trkpt lat="43.55402" lon="3.81698">
        <ele>24.34499968</ele>
        <time>2020-08-02T06:59:55.000Z</time>
      </trkpt>
      <trkpt lat="43.55404" lon="3.81694">
        <ele>24.44499968</ele>
        <time>2020-08-02T06:59:56.000Z</time>
      </trkpt>
      <trkpt lat="43.55404" lon="3.8169">
        <ele>24.54499968</ele>
        <time>2020-08-02T06:59:57.000Z</time>
      </trkpt>
      <trkpt lat="43.55405" lon="3.81686">
        <ele>24.64499968</ele>
        <time>2020-08-02T06:59:58.000Z</time>
      </trkpt>
      <trkpt lat="43.55405" lon="3.81682">
        <ele>24.74499968</ele>
        <time>2020-08-02T06:59:59.000Z</time>
      </trkpt>
      <trkpt lat="43.55404" lon="3.81678">
        <ele>24.84499968</ele>
        <time>2020-08-02T07:00:00.000Z</time>
      </trkpt>
      <trkpt lat="43.55404" lon="3.81674">
        <ele>24.94499968</ele>
        <time>2020-08-02T07:00:01.000Z</time>
      </trkpt>
      <trkpt lat="43.55403" lon="3.8167">
        <ele>25.044775815252</ele>
        <time>2020-08-02T07:00:02.000Z</time>
      </trkpt>
      <trkpt lat="43.55402" lon="3.81665">
        <ele>25.144278334497</ele>
        <time>2020-08-02T07:00:03.000Z</time>
      </trkpt>
      <trkpt lat="43.55402" lon="3.81661">
        <ele>25.243780853741</ele>
        <time>2020-08-02T07:00:04.000Z</time>
      </trkpt>
      <trkpt lat="43.55401" lon="3.81658">
        <ele>25.343283372986</ele>
        <time>2020-08-02T07:00:05.000Z</time>
      </trkpt>
      <trkpt lat="43.55401" lon="3.81654">
        <ele>25.44278589223</ele>
        <time>2020-08-02T07:00:06.000Z</time>
      </trkpt>
      <trkpt lat="43.554" lon="3.8165">
        <ele>25.542288411475</ele>
        <time>2020-08-02T07:00:07.000Z</time>
      </trkpt>
      <trkpt lat="43.55399" lon="3.81646">
        <ele>25.64179093072</ele>
        <time>2020-08-02T07:00:08.000Z</time>
      </trkpt>
      <trkpt lat="43.55398" lon="3.81643">
        <ele>25.741293449964</ele>
        <time>2020-08-02T07:00:09.000Z</time>
      </trkpt>
      <trkpt lat="43.55398" lon="3.81639">
        <ele>25.840795969209</ele>
        <time>2020-08-02T07:00:10.000Z</time>
      </trkpt>
      <trkpt lat="43.55397" lon="3.81636">
        <ele>25.940298488453</ele>
        <time>2020-08-02T07:00:11.000Z</time>
      </trkpt>
      <trkpt lat="43.55396" lon="3.81632">
        <ele>26.080401984192</ele>
        <time>2020-08-02T07:00:12.000Z</time>
      </trkpt>
      <trkpt lat="43.55396" lon="3.81629">
        <ele>26.281406944673</ele>
        <time>2020-08-02T07:00:13.000Z</time>
      </trkpt>
      <trkpt lat="43.55395" lon="3.81626">
        <ele>26.482411905154</ele>
        <time>2020-08-02T07:00:14.000Z</time>
      </trkpt>
      <trkpt lat="43.55394" lon="3.81623">
        <ele>26.683416865635</ele>
        <time>2020-08-02T07:00:15.000Z</time>
      </trkpt>
      <trkpt lat="43.55394" lon="3.8162">
        <ele>26.884421826116</ele>
        <time>2020-08-02T07:00:16.000Z</time>
      </trkpt>
      <trkpt lat="43.55393" lon="3.81617">
        <ele>27.085426786596</ele>
        <time>2020-08-02T07:00:17.000Z</time>
      </trkpt>
      <trkpt lat="43.55392" lon="3.81614">
        <ele>27.286431747077</ele>
        <time>2020-08-02T07:00:18.000Z</time>
      </trkpt>
      <trkpt lat="43.55392" lon="3.81611">
        <ele>27.487436707558</ele>
        <time>2020-08-02T07:00:19.000Z</time>
      </trkpt>
      <trkpt lat="43.55392" lon="3.81608">
        <ele>27.688441668039</ele>
        <time>2020-08-02T07:00:20.000Z</time>
      </trkpt>
      <trkpt lat="43.55391" lon="3.81605">
        <ele>27.88944662852</ele>
        <time>2020-08-02T07:00:21.000Z</time>
      </trkpt>
      <trkpt lat="43.55391" lon="3.81603">
        <ele>28.08999936</ele>
        <time>2020-08-02T07:00:22.000Z</time>
      </trkpt>
      <trkpt lat="43.55391" lon="3.816">
        <ele>28.28999936</ele>
        <time>2020-08-02T07:00:23.000Z</time>
      </trkpt>
      <trkpt lat="43.5539" lon="3.81597">
        <ele>28.48999936</ele>
        <time>2020-08-02T07:00:24.000Z</time>
      </trkpt>
      <trkpt lat="43.5539" lon="3.81595">
        <ele>28.68999936</ele>
        <time>2020-08-02T07:00:25.000Z</time>
      </trkpt>
      <trkpt lat="43.5539" lon="3.81592">
        <ele>28.88999936</ele>
        <time>2020-08-02T07:00:26.000Z</time>
      </trkpt>
      <trkpt lat="43.5539" lon="3.81589">
        <ele>29.08999936</ele>
        <time>2020-08-02T07:00:27.000Z</time>
      </trkpt>
      <trkpt lat="43.5539" lon="3.81586">
        <ele>29.28999936</ele>
        <time>2020-08-02T07:00:28.000Z</time>
      </trkpt>
      <trkpt lat="43.55389" lon="3.81584">
        <ele>29.48999936</ele>
        <time>2020-08-02T07:00:29.000Z</time>
      </trkpt>
      <trkpt lat="43.55389" lon="3.81581">
        <ele>29.68999936</ele>
        <time>2020-08-02T07:00:30.000Z</time>
      </trkpt>
      <trkpt lat="43.55389" lon="3.81579">
        <ele>29.88999936</ele>
        <time>2020-08-02T07:00:31.000Z</time>
      </trkpt>
      <trkpt lat="43.55389" lon="3.81576">
        <ele>30.04499968</ele>
        <time>2020-08-02T07:00:32.000Z</time>
      </trkpt>
      <trkpt lat="43.55389" lon="3.81573">
        <ele>30.14499968</ele>
        <time>2020-08-02T07:00:33.000Z</time>
      </trkpt>
      <trkpt lat="43.55388" lon="3.81571">
        <ele>30.24499968</ele>
        <time>2020-08-02T07:00:34.000Z</time>
      </trkpt>
      <trkpt lat="43.55388" lon="3.81568">
        <ele>30.34499968</ele>
        <time>2020-08-02T07:00:35.000Z</time>
      </trkpt>
      <trkpt lat="43.55387" lon="3.81566">
        <ele>30.44499968</ele>
        <time>2020-08-02T07:00:36.000Z</time>
      </trkpt>
      <trkpt lat="43.55387" lon="3.81563">
        <ele>30.54499968</ele>
        <time>2020-08-02T07:00:37.000Z</time>
      </trkpt>
      <trkpt lat="43.55386" lon="3.81559">
        <ele>30.74499968</ele>
        <time>2020-08-02T07:00:39.000Z</time>
      </trkpt>
      <trkpt lat="43.55386" lon="3.81556">
        <ele>30.84499968</ele>
        <time>2020-08-02T07:00:40.000Z</time>
      </trkpt>
      <trkpt lat="43.55385" lon="3.81554">
        <ele>30.94499968</ele>
        <time>2020-08-02T07:00:41.000Z</time>
      </trkpt>
      <trkpt lat="43.55385" lon="3.81551">
        <ele>31.089819777929</ele>
        <time>2020-08-02T07:00:42.000Z</time>
      </trkpt>
      <trkpt lat="43.55385" lon="3.81548">
        <ele>31.289420703822</ele>
        <time>2020-08-02T07:00:43.000Z</time>
      </trkpt>
      <trkpt lat="43.55384" lon="3.81546">
        <ele>31.489021629714</ele>
        <time>2020-08-02T07:00:44.000Z</time>
      </trkpt>
      <trkpt lat="43.55384" lon="3.81543">
        <ele>31.688622555607</ele>
        <time>2020-08-02T07:00:45.000Z</time>
      </trkpt>
      <trkpt lat="43.55383" lon="3.81541">
        <ele>31.8882234815</ele>
        <time>2020-08-02T07:00:46.000Z</time>
      </trkpt>
      <trkpt lat="43.55383" lon="3.81538">
        <ele>32.087824407393</ele>
        <time>2020-08-02T07:00:47.000Z</time>
      </trkpt>
      <trkpt lat="43.55382" lon="3.81535">
        <ele>32.287425333286</ele>
        <time>2020-08-02T07:00:48.000Z</time>
      </trkpt>
      <trkpt lat="43.55381" lon="3.81533">
        <ele>32.487026259178</ele>
        <time>2020-08-02T07:00:49.000Z</time>
      </trkpt>
      <trkpt lat="43.55381" lon="3.8153">
        <ele>32.686627185071</ele>
        <time>2020-08-02T07:00:50.000Z</time>
      </trkpt>
      <trkpt lat="43.5538" lon="3.81528">
        <ele>32.886228110964</ele>
        <time>2020-08-02T07:00:51.000Z</time>
      </trkpt>
      <trkpt lat="43.55379" lon="3.81525">
        <ele>33.043086465355</ele>
        <time>2020-08-02T07:00:52.000Z</time>
      </trkpt>
      <trkpt lat="43.55378" lon="3.81523">
        <ele>33.1432868019</ele>
        <time>2020-08-02T07:00:53.000Z</time>
      </trkpt>
      <trkpt lat="43.55378" lon="3.8152">
        <ele>33.243487138445</ele>
        <time>2020-08-02T07:00:54.000Z</time>
      </trkpt>
      <trkpt lat="43.55377" lon="3.81518">
        <ele>33.34368747499</ele>
        <time>2020-08-02T07:00:55.000Z</time>
      </trkpt>
      <trkpt lat="43.55376" lon="3.81515">
        <ele>33.443887811535</ele>
        <time>2020-08-02T07:00:56.000Z</time>
      </trkpt>
      <trkpt lat="43.55375" lon="3.81513">
        <ele>33.54408814808</ele>
        <time>2020-08-02T07:00:57.000Z</time>
      </trkpt>
      <trkpt lat="43.55374" lon="3.8151">
        <ele>33.644288484625</ele>
        <time>2020-08-02T07:00:58.000Z</time>
      </trkpt>
      <trkpt lat="43.55373" lon="3.81508">
        <ele>33.744488821169</ele>
        <time>2020-08-02T07:00:59.000Z</time>
      </trkpt>
      <trkpt lat="43.55372" lon="3.81505">
        <ele>33.844689157714</ele>
        <time>2020-08-02T07:01:00.000Z</time>
      </trkpt>
      <trkpt lat="43.55371" lon="3.81503">
        <ele>33.944889494259</ele>
        <time>2020-08-02T07:01:01.000Z</time>
      </trkpt>
      <trkpt lat="43.5537" lon="3.815">
        <ele>34.04499968</ele>
        <time>2020-08-02T07:01:02.000Z</time>
      </trkpt>
      <trkpt lat="43.55369" lon="3.81497">
        <ele>34.14499968</ele>
        <time>2020-08-02T07:01:03.000Z</time>
      </trkpt>
      <trkpt lat="43.55367" lon="3.81494">
        <ele>34.24499968</ele>
        <time>2020-08-02T07:01:04.000Z</time>
      </trkpt>
      <trkpt lat="43.55366" lon="3.81492">
        <ele>34.34499968</ele>
        <time>2020-08-02T07:01:05.000Z</time>
      </trkpt>
      <trkpt lat="43.55365" lon="3.81489">
        <ele>34.44499968</ele>
        <time>2020-08-02T07:01:06.000Z</time>
      </trkpt>
      <trkpt lat="43.55364" lon="3.81486">
        <ele>34.54499968</ele>
        <time>2020-08-02T07:01:07.000Z</time>
      </trkpt>
      <trkpt lat="43.55362" lon="3.81483">
        <ele>34.64499968</ele>
        <time>2020-08-02T07:01:08.000Z</time>
      </trkpt>
      <trkpt lat="43.55361" lon="3.8148">
        <ele>34.74499968</ele>
        <time>2020-08-02T07:01:09.000Z</time>
      </trkpt>
      <trkpt lat="43.5536" lon="3.81477">
        <ele>34.84499968</ele>
        <time>2020-08-02T07:01:10.000Z</time>
      </trkpt>
      <trkpt lat="43.55358" lon="3.81474">
        <ele>34.94499968</ele>
        <time>2020-08-02T07:01:11.000Z</time>
      </trkpt>
      <trkpt lat="43.55357" lon="3.81471">
        <ele>35.043945</ele>
        <time>2020-08-02T07:01:12.000Z</time>
      </trkpt>
      <trkpt lat="43.55357" lon="3.81467">
        <ele>35.14160125</ele>
        <time>2020-08-02T07:01:13.000Z</time>
      </trkpt>
      <trkpt lat="43.55356" lon="3.81464">
        <ele>35.2392575</ele>
        <time>2020-08-02T07:01:14.000Z</time>
      </trkpt>
      <trkpt lat="43.55355" lon="3.81461">
        <ele>35.33691375</ele>
        <time>2020-08-02T07:01:15.000Z</time>
      </trkpt>
      <trkpt lat="43.55355" lon="3.81457">
        <ele>35.43457</ele>
        <time>2020-08-02T07:01:16.000Z</time>
      </trkpt>
      <trkpt lat="43.55355" lon="3.81454">
        <ele>35.53222625</ele>
        <time>2020-08-02T07:01:17.000Z</time>
      </trkpt>
      <trkpt lat="43.55354" lon="3.81451">
        <ele>35.6298825</ele>
        <time>2020-08-02T07:01:18.000Z</time>
      </trkpt>
      <trkpt lat="43.55354" lon="3.81448">
        <ele>35.72753875</ele>
        <time>2020-08-02T07:01:19.000Z</time>
      </trkpt>
      <trkpt lat="43.55354" lon="3.81444">
        <ele>35.825195</ele>
        <time>2020-08-02T07:01:20.000Z</time>
      </trkpt>
      <trkpt lat="43.55354" lon="3.81441">
        <ele>35.92285125</ele>
        <time>2020-08-02T07:01:21.000Z</time>
      </trkpt>
      <trkpt lat="43.55354" lon="3.81438">
        <ele>36.043032131147</ele>
        <time>2020-08-02T07:01:22.000Z</time>
      </trkpt>
      <trkpt lat="43.55353" lon="3.81435">
        <ele>36.247950163934</ele>
        <time>2020-08-02T07:01:23.000Z</time>
      </trkpt>
      <trkpt lat="43.55353" lon="3.81432">
        <ele>36.452868196721</ele>
        <time>2020-08-02T07:01:24.000Z</time>
      </trkpt>
      <trkpt lat="43.55353" lon="3.81429">
        <ele>36.657786229508</ele>
        <time>2020-08-02T07:01:25.000Z</time>
      </trkpt>
      <trkpt lat="43.55353" lon="3.81426">
        <ele>36.862704262295</ele>
        <time>2020-08-02T07:01:26.000Z</time>
      </trkpt>
      <trkpt lat="43.55352" lon="3.81422">
        <ele>37.067622295082</ele>
        <time>2020-08-02T07:01:27.000Z</time>
      </trkpt>
      <trkpt lat="43.55352" lon="3.81419">
        <ele>37.272540327869</ele>
        <time>2020-08-02T07:01:28.000Z</time>
      </trkpt>
      <trkpt lat="43.55352" lon="3.81416">
        <ele>37.477458360656</ele>
        <time>2020-08-02T07:01:29.000Z</time>
      </trkpt>
      <trkpt lat="43.55351" lon="3.81413">
        <ele>37.682376393443</ele>
        <time>2020-08-02T07:01:30.000Z</time>
      </trkpt>
      <trkpt lat="43.55351" lon="3.8141">
        <ele>37.88729442623</ele>
        <time>2020-08-02T07:01:31.000Z</time>
      </trkpt>
      <trkpt lat="43.5535" lon="3.81406">
        <ele>38.044954739646</ele>
        <time>2020-08-02T07:01:32.000Z</time>
      </trkpt>
      <trkpt lat="43.55349" lon="3.81403">
        <ele>38.144854871482</ele>
        <time>2020-08-02T07:01:33.000Z</time>
      </trkpt>
      <trkpt lat="43.55349" lon="3.814">
        <ele>38.244755003318</ele>
        <time>2020-08-02T07:01:34.000Z</time>
      </trkpt>
      <trkpt lat="43.55348" lon="3.81396">
        <ele>38.344655135154</ele>
        <time>2020-08-02T07:01:35.000Z</time>
      </trkpt>
      <trkpt lat="43.55348" lon="3.81393">
        <ele>38.444555266991</ele>
        <time>2020-08-02T07:01:36.000Z</time>
      </trkpt>
      <trkpt lat="43.55348" lon="3.8139">
        <ele>38.544455398827</ele>
        <time>2020-08-02T07:01:37.000Z</time>
      </trkpt>
      <trkpt lat="43.55347" lon="3.81386">
        <ele>38.644355530663</ele>
        <time>2020-08-02T07:01:38.000Z</time>
      </trkpt>
      <trkpt lat="43.55347" lon="3.81383">
        <ele>38.744255662499</ele>
        <time>2020-08-02T07:01:39.000Z</time>
      </trkpt>
      <trkpt lat="43.55347" lon="3.81379">
        <ele>38.844155794335</ele>
        <time>2020-08-02T07:01:40.000Z</time>
      </trkpt>
      <trkpt lat="43.55347" lon="3.81375">
        <ele>38.944055926172</ele>
        <time>2020-08-02T07:01:41.000Z</time>
      </trkpt>
      <trkpt lat="43.55347" lon="3.81372">
        <ele>39.044044029936</ele>
        <time>2020-08-02T07:01:42.000Z</time>
      </trkpt>
      <trkpt lat="43.55346" lon="3.81368">
        <ele>39.144144097972</ele>
        <time>2020-08-02T07:01:43.000Z</time>
      </trkpt>
      <trkpt lat="43.55346" lon="3.81365">
        <ele>39.244244166008</ele>
        <time>2020-08-02T07:01:44.000Z</time>
      </trkpt>
      <trkpt lat="43.55346" lon="3.81361">
        <ele>39.344344234044</ele>
        <time>2020-08-02T07:01:45.000Z</time>
      </trkpt>
      <trkpt lat="43.55347" lon="3.81358">
        <ele>39.44444430208</ele>
        <time>2020-08-02T07:01:46.000Z</time>
      </trkpt>
      <trkpt lat="43.55347" lon="3.81354">
        <ele>39.544544370116</ele>
        <time>2020-08-02T07:01:47.000Z</time>
      </trkpt>
      <trkpt lat="43.55347" lon="3.81351">
        <ele>39.644644438152</ele>
        <time>2020-08-02T07:01:48.000Z</time>
      </trkpt>
      <trkpt lat="43.55347" lon="3.81348">
        <ele>39.744744506188</ele>
        <time>2020-08-02T07:01:49.000Z</time>
      </trkpt>
      <trkpt lat="43.55347" lon="3.81344">
        <ele>39.844844574224</ele>
        <time>2020-08-02T07:01:50.000Z</time>
      </trkpt>
      <trkpt lat="43.55348" lon="3.81341">
        <ele>39.94494464226</ele>
        <time>2020-08-02T07:01:51.000Z</time>
      </trkpt>
      <trkpt lat="43.55348" lon="3.81338">
        <ele>40.087462962088</ele>
        <time>2020-08-02T07:01:52.000Z</time>
      </trkpt>
      <trkpt lat="43.55348" lon="3.81335">
        <ele>40.281826482201</ele>
        <time>2020-08-02T07:01:53.000Z</time>
      </trkpt>
      <trkpt lat="43.55349" lon="3.81331">
        <ele>40.476190002314</ele>
        <time>2020-08-02T07:01:54.000Z</time>
      </trkpt>
      <trkpt lat="43.55349" lon="3.81328">
        <ele>40.670553522427</ele>
        <time>2020-08-02T07:01:55.000Z</time>
      </trkpt>
      <trkpt lat="43.55349" lon="3.81325">
        <ele>40.86491704254</ele>
        <time>2020-08-02T07:01:56.000Z</time>
      </trkpt>
      <trkpt lat="43.5535" lon="3.81322">
        <ele>41.059280562653</ele>
        <time>2020-08-02T07:01:57.000Z</time>
      </trkpt>
      <trkpt lat="43.5535" lon="3.81319">
        <ele>41.253644082766</ele>
        <time>2020-08-02T07:01:58.000Z</time>
      </trkpt>
      <trkpt lat="43.5535" lon="3.81316">
        <ele>41.448007602879</ele>
        <time>2020-08-02T07:01:59.000Z</time>
      </trkpt>
      <trkpt lat="43.55351" lon="3.81313">
        <ele>41.642371122992</ele>
        <time>2020-08-02T07:02:00.000Z</time>
      </trkpt>
      <trkpt lat="43.55351" lon="3.8131">
        <ele>41.836734643105</ele>
        <time>2020-08-02T07:02:01.000Z</time>
      </trkpt>
      <trkpt lat="43.55352" lon="3.81306">
        <ele>42.0329218107</ele>
        <time>2020-08-02T07:02:02.000Z</time>
      </trkpt>
      <trkpt lat="43.55352" lon="3.81303">
        <ele>42.238683127572</ele>
        <time>2020-08-02T07:02:03.000Z</time>
      </trkpt>
      <trkpt lat="43.55353" lon="3.813">
        <ele>42.444444444444</ele>
        <time>2020-08-02T07:02:04.000Z</time>
      </trkpt>
      <trkpt lat="43.55353" lon="3.81297">
        <ele>42.650205761317</ele>
        <time>2020-08-02T07:02:05.000Z</time>
      </trkpt>
      <trkpt lat="43.55354" lon="3.81294">
        <ele>42.855967078189</ele>
        <time>2020-08-02T07:02:06.000Z</time>
      </trkpt>
      <trkpt lat="43.55354" lon="3.81291">
        <ele>43.061728395062</ele>
        <time>2020-08-02T07:02:07.000Z</time>
      </trkpt>
      <trkpt lat="43.55355" lon="3.81288">
        <ele>43.267489711934</ele>
        <time>2020-08-02T07:02:08.000Z</time>
      </trkpt>
      <trkpt lat="43.55355" lon="3.81285">
        <ele>43.473251028807</ele>
        <time>2020-08-02T07:02:09.000Z</time>
      </trkpt>
      <trkpt lat="43.55356" lon="3.81282">
        <ele>43.679012345679</ele>
        <time>2020-08-02T07:02:10.000Z</time>
      </trkpt>
      <trkpt lat="43.55356" lon="3.81279">
        <ele>43.884773662551</ele>
        <time>2020-08-02T07:02:11.000Z</time>
      </trkpt>
      <trkpt lat="43.55357" lon="3.81276">
        <ele>44.044044029936</ele>
        <time>2020-08-02T07:02:12.000Z</time>
      </trkpt>
      <trkpt lat="43.55358" lon="3.81273">
        <ele>44.144144097972</ele>
        <time>2020-08-02T07:02:13.000Z</time>
      </trkpt>
      <trkpt lat="43.55359" lon="3.8127">
        <ele>44.244244166008</ele>
        <time>2020-08-02T07:02:14.000Z</time>
      </trkpt>
      <trkpt lat="43.55359" lon="3.81267">
        <ele>44.344344234044</ele>
        <time>2020-08-02T07:02:15.000Z</time>
      </trkpt>
      <trkpt lat="43.5536" lon="3.81263">
        <ele>44.44444430208</ele>
        <time>2020-08-02T07:02:16.000Z</time>
      </trkpt>
      <trkpt lat="43.55361" lon="3.8126">
        <ele>44.544544370116</ele>
        <time>2020-08-02T07:02:17.000Z</time>
      </trkpt>
      <trkpt lat="43.55362" lon="3.81257">
        <ele>44.644644438152</ele>
        <time>2020-08-02T07:02:18.000Z</time>
      </trkpt>
      <trkpt lat="43.55362" lon="3.81254">
        <ele>44.744744506188</ele>
        <time>2020-08-02T07:02:19.000Z</time>
      </trkpt>
      <trkpt lat="43.55363" lon="3.81251">
        <ele>44.844844574224</ele>
        <time>2020-08-02T07:02:20.000Z</time>
      </trkpt>
      <trkpt lat="43.55363" lon="3.81248">
        <ele>44.94494464226</ele>
        <time>2020-08-02T07:02:21.000Z</time>
      </trkpt>
      <trkpt lat="43.55364" lon="3.81244">
        <ele>45</ele>
        <time>2020-08-02T07:02:22.000Z</time>
      </trkpt>
      <trkpt lat="43.55364" lon="3.81241">
        <ele>45</ele>
        <time>2020-08-02T07:02:23.000Z</time>
      </trkpt>
      <trkpt lat="43.55365" lon="3.81238">
        <ele>45</ele>
        <time>2020-08-02T07:02:24.000Z</time>
      </trkpt>
      <trkpt lat="43.55365" lon="3.81234">
        <ele>45</ele>
        <time>2020-08-02T07:02:25.000Z</time>
      </trkpt>
      <trkpt lat="43.55366" lon="3.8123">
        <ele>45</ele>
        <time>2020-08-02T07:02:26.000Z</time>
      </trkpt>
      <trkpt lat="43.55367" lon="3.81226">
        <ele>45</ele>
        <time>2020-08-02T07:02:27.000Z</time>
      </trkpt>
      <trkpt lat="43.55367" lon="3.81222">
        <ele>45</ele>
        <time>2020-08-02T07:02:28.000Z</time>
      </trkpt>
      <trkpt lat="43.55368" lon="3.81218">
        <ele>45</ele>
        <time>2020-08-02T07:02:29.000Z</time>
      </trkpt>
      <trkpt lat="43.55369" lon="3.81213">
        <ele>45</ele>
        <time>2020-08-02T07:02:30.000Z</time>
      </trkpt>
      <trkpt lat="43.5537" lon="3.81208">
        <ele>45</ele>
        <time>2020-08-02T07:02:31.000Z</time>
      </trkpt>
      <trkpt lat="43.55371" lon="3.81204">
        <ele>45.044378410653</ele>
        <time>2020-08-02T07:02:32.000Z</time>
      </trkpt>
      <trkpt lat="43.55371" lon="3.81199">
        <ele>45.142997802287</ele>
        <time>2020-08-02T07:02:33.000Z</time>
      </trkpt>
      <trkpt lat="43.55372" lon="3.81194">
        <ele>45.24161719392</ele>
        <time>2020-08-02T07:02:34.000Z</time>
      </trkpt>
      <trkpt lat="43.55373" lon="3.81189">
        <ele>45.340236585554</ele>
        <time>2020-08-02T07:02:35.000Z</time>
      </trkpt>
      <trkpt lat="43.55373" lon="3.81185">
        <ele>45.438855977187</ele>
        <time>2020-08-02T07:02:36.000Z</time>
      </trkpt>
      <trkpt lat="43.55374" lon="3.8118">
        <ele>45.537475368821</ele>
        <time>2020-08-02T07:02:37.000Z</time>
      </trkpt>
      <trkpt lat="43.55375" lon="3.81175">
        <ele>45.636094760454</ele>
        <time>2020-08-02T07:02:38.000Z</time>
      </trkpt>
      <trkpt lat="43.55375" lon="3.81171">
        <ele>45.734714152088</ele>
        <time>2020-08-02T07:02:39.000Z</time>
      </trkpt>
      <trkpt lat="43.55376" lon="3.81166">
        <ele>45.833333543721</ele>
        <time>2020-08-02T07:02:40.000Z</time>
      </trkpt>
      <trkpt lat="43.55377" lon="3.81162">
        <ele>45.931952935355</ele>
        <time>2020-08-02T07:02:41.000Z</time>
      </trkpt>
      <trkpt lat="43.55377" lon="3.81158">
        <ele>46</ele>
        <time>2020-08-02T07:02:42.000Z</time>
      </trkpt>
      <trkpt lat="43.55377" lon="3.81154">
        <ele>46</ele>
        <time>2020-08-02T07:02:43.000Z</time>
      </trkpt>
      <trkpt lat="43.55378" lon="3.8115">
        <ele>46</ele>
        <time>2020-08-02T07:02:44.000Z</time>
      </trkpt>
      <trkpt lat="43.55378" lon="3.81146">
        <ele>46</ele>
        <time>2020-08-02T07:02:45.000Z</time>
      </trkpt>
      <trkpt lat="43.55378" lon="3.81141">
        <ele>46</ele>
        <time>2020-08-02T07:02:46.000Z</time>
      </trkpt>
      <trkpt lat="43.55378" lon="3.81138">
        <ele>46</ele>
        <time>2020-08-02T07:02:47.000Z</time>
      </trkpt>
      <trkpt lat="43.55377" lon="3.81134">
        <ele>46</ele>
        <time>2020-08-02T07:02:48.000Z</time>
      </trkpt>
      <trkpt lat="43.55377" lon="3.8113">
        <ele>46</ele>
        <time>2020-08-02T07:02:49.000Z</time>
      </trkpt>
      <trkpt lat="43.55376" lon="3.81126">
        <ele>46</ele>
        <time>2020-08-02T07:02:50.000Z</time>
      </trkpt>
      <trkpt lat="43.55375" lon="3.81122">
        <ele>46</ele>
        <time>2020-08-02T07:02:51.000Z</time>
      </trkpt>
      <trkpt lat="43.55374" lon="3.81119">
        <ele>46.016477852448</ele>
        <time>2020-08-02T07:02:52.000Z</time>
      </trkpt>
      <trkpt lat="43.55374" lon="3.81116">
        <ele>46.119464430249</ele>
        <time>2020-08-02T07:02:53.000Z</time>
      </trkpt>
      <trkpt lat="43.55373" lon="3.81112">
        <ele>46.222451008049</ele>
        <time>2020-08-02T07:02:54.000Z</time>
      </trkpt>
      <trkpt lat="43.55373" lon="3.81109">
        <ele>46.32543758585</ele>
        <time>2020-08-02T07:02:55.000Z</time>
      </trkpt>
      <trkpt lat="43.55372" lon="3.81106">
        <ele>46.42842416365</ele>
        <time>2020-08-02T07:02:56.000Z</time>
      </trkpt>
      <trkpt lat="43.55372" lon="3.81103">
        <ele>46.531410741451</ele>
        <time>2020-08-02T07:02:57.000Z</time>
      </trkpt>
      <trkpt lat="43.55372" lon="3.81099">
        <ele>46.634397319251</ele>
        <time>2020-08-02T07:02:58.000Z</time>
      </trkpt>
      <trkpt lat="43.55372" lon="3.81096">
        <ele>46.737383897052</ele>
        <time>2020-08-02T07:02:59.000Z</time>
      </trkpt>
      <trkpt lat="43.55372" lon="3.81093">
        <ele>46.840370474852</ele>
        <time>2020-08-02T07:03:00.000Z</time>
      </trkpt>
      <trkpt lat="43.55372" lon="3.8109">
        <ele>46.943357052653</ele>
        <time>2020-08-02T07:03:01.000Z</time>
      </trkpt>
      <trkpt lat="43.55372" lon="3.81087">
        <ele>47.08999936</ele>
        <time>2020-08-02T07:03:02.000Z</time>
      </trkpt>
      <trkpt lat="43.55373" lon="3.81084">
        <ele>47.28999936</ele>
        <time>2020-08-02T07:03:03.000Z</time>
      </trkpt>
      <trkpt lat="43.55374" lon="3.81082">
        <ele>47.48999936</ele>
        <time>2020-08-02T07:03:04.000Z</time>
      </trkpt>
      <trkpt lat="43.55375" lon="3.81079">
        <ele>47.68999936</ele>
        <time>2020-08-02T07:03:05.000Z</time>
      </trkpt>
      <trkpt lat="43.55376" lon="3.81077">
        <ele>47.88999936</ele>
        <time>2020-08-02T07:03:06.000Z</time>
      </trkpt>
      <trkpt lat="43.55376" lon="3.81074">
        <ele>48.08999936</ele>
        <time>2020-08-02T07:03:07.000Z</time>
      </trkpt>
      <trkpt lat="43.55378" lon="3.81071">
        <ele>48.28999936</ele>
        <time>2020-08-02T07:03:08.000Z</time>
      </trkpt>
      <trkpt lat="43.55379" lon="3.81068">
        <ele>48.48999936</ele>
        <time>2020-08-02T07:03:09.000Z</time>
      </trkpt>
      <trkpt lat="43.55379" lon="3.81065">
        <ele>48.68999936</ele>
        <time>2020-08-02T07:03:10.000Z</time>
      </trkpt>
      <trkpt lat="43.5538" lon="3.81062">
        <ele>48.88999936</ele>
        <time>2020-08-02T07:03:11.000Z</time>
      </trkpt>
      <trkpt lat="43.55381" lon="3.81059">
        <ele>49.04499968</ele>
        <time>2020-08-02T07:03:12.000Z</time>
      </trkpt>
      <trkpt lat="43.55381" lon="3.81056">
        <ele>49.14499968</ele>
        <time>2020-08-02T07:03:13.000Z</time>
      </trkpt>
      <trkpt lat="43.55381" lon="3.81052">
        <ele>49.24499968</ele>
        <time>2020-08-02T07:03:14.000Z</time>
      </trkpt>
      <trkpt lat="43.55381" lon="3.81049">
        <ele>49.34499968</ele>
        <time>2020-08-02T07:03:15.000Z</time>
      </trkpt>
      <trkpt lat="43.55381" lon="3.81045">
        <ele>49.44499968</ele>
        <time>2020-08-02T07:03:16.000Z</time>
      </trkpt>
      <trkpt lat="43.55381" lon="3.81041">
        <ele>49.54499968</ele>
        <time>2020-08-02T07:03:17.000Z</time>
      </trkpt>
      <trkpt lat="43.5538" lon="3.81038">
        <ele>49.64499968</ele>
        <time>2020-08-02T07:03:18.000Z</time>
      </trkpt>
      <trkpt lat="43.5538" lon="3.81034">
        <ele>49.74499968</ele>
        <time>2020-08-02T07:03:19.000Z</time>
      </trkpt>
      <trkpt lat="43.5538" lon="3.81031">
        <ele>49.84499968</ele>
        <time>2020-08-02T07:03:20.000Z</time>
      </trkpt>
      <trkpt lat="43.55379" lon="3.81027">
        <ele>49.94499968</ele>
        <time>2020-08-02T07:03:21.000Z</time>
      </trkpt>
      <trkpt lat="43.55379" lon="3.81024">
        <ele>50.04499968</ele>
        <time>2020-08-02T07:03:22.000Z</time>
      </trkpt>
      <trkpt lat="43.55378" lon="3.8102">
        <ele>50.14499968</ele>
        <time>2020-08-02T07:03:23.000Z</time>
      </trkpt>
      <trkpt lat="43.55378" lon="3.81017">
        <ele>50.24499968</ele>
        <time>2020-08-02T07:03:24.000Z</time>
      </trkpt>
      <trkpt lat="43.55377" lon="3.81013">
        <ele>50.34499968</ele>
        <time>2020-08-02T07:03:25.000Z</time>
      </trkpt>
      <trkpt lat="43.55377" lon="3.81009">
        <ele>50.44499968</ele>
        <time>2020-08-02T07:03:26.000Z</time>
      </trkpt>
      <trkpt lat="43.55377" lon="3.81006">
        <ele>50.54499968</ele>
        <time>2020-08-02T07:03:27.000Z</time>
      </trkpt>
      <trkpt lat="43.55376" lon="3.81002">
        <ele>50.64499968</ele>
        <time>2020-08-02T07:03:28.000Z</time>
      </trkpt>
      <trkpt lat="43.55376" lon="3.80999">
        <ele>50.74499968</ele>
        <time>2020-08-02T07:03:29.000Z</time>
      </trkpt>
      <trkpt lat="43.55376" lon="3.80995">
        <ele>50.84499968</ele>
        <time>2020-08-02T07:03:30.000Z</time>
      </trkpt>
      <trkpt lat="43.55375" lon="3.80992">
        <ele>50.94499968</ele>
        <time>2020-08-02T07:03:31.000Z</time>
      </trkpt>
      <trkpt lat="43.55375" lon="3.80988">
        <ele>51.04499968</ele>
        <time>2020-08-02T07:03:32.000Z</time>
      </trkpt>
      <trkpt lat="43.55375" lon="3.80985">
        <ele>51.14499968</ele>
        <time>2020-08-02T07:03:33.000Z</time>
      </trkpt>
      <trkpt lat="43.55375" lon="3.80982">
        <ele>51.24499968</ele>
        <time>2020-08-02T07:03:34.000Z</time>
      </trkpt>
      <trkpt lat="43.55374" lon="3.80978">
        <ele>51.34499968</ele>
        <time>2020-08-02T07:03:35.000Z</time>
      </trkpt>
      <trkpt lat="43.55374" lon="3.80975">
        <ele>51.44499968</ele>
        <time>2020-08-02T07:03:36.000Z</time>
      </trkpt>
      <trkpt lat="43.55373" lon="3.80971">
        <ele>51.54499968</ele>
        <time>2020-08-02T07:03:37.000Z</time>
      </trkpt>
      <trkpt lat="43.55373" lon="3.80968">
        <ele>51.64499968</ele>
        <time>2020-08-02T07:03:38.000Z</time>
      </trkpt>
      <trkpt lat="43.55372" lon="3.80964">
        <ele>51.74499968</ele>
        <time>2020-08-02T07:03:39.000Z</time>
      </trkpt>
      <trkpt lat="43.55372" lon="3.80961">
        <ele>51.84499968</ele>
        <time>2020-08-02T07:03:40.000Z</time>
      </trkpt>
      <trkpt lat="43.55371" lon="3.80958">
        <ele>51.94499968</ele>
        <time>2020-08-02T07:03:41.000Z</time>
      </trkpt>
      <trkpt lat="43.5537" lon="3.80955">
        <ele>52.043774007782</ele>
        <time>2020-08-02T07:03:42.000Z</time>
      </trkpt>
      <trkpt lat="43.55368" lon="3.80952">
        <ele>52.141050272373</ele>
        <time>2020-08-02T07:03:43.000Z</time>
      </trkpt>
      <trkpt lat="43.55367" lon="3.80949">
        <ele>52.238326536965</ele>
        <time>2020-08-02T07:03:44.000Z</time>
      </trkpt>
      <trkpt lat="43.55365" lon="3.80946">
        <ele>52.335602801556</ele>
        <time>2020-08-02T07:03:45.000Z</time>
      </trkpt>
      <trkpt lat="43.55363" lon="3.80944">
        <ele>52.432879066148</ele>
        <time>2020-08-02T07:03:46.000Z</time>
      </trkpt>
      <trkpt lat="43.55361" lon="3.80941">
        <ele>52.530155330739</ele>
        <time>2020-08-02T07:03:47.000Z</time>
      </trkpt>
      <trkpt lat="43.55359" lon="3.80939">
        <ele>52.627431595331</ele>
        <time>2020-08-02T07:03:48.000Z</time>
      </trkpt>
      <trkpt lat="43.55357" lon="3.80936">
        <ele>52.724707859922</ele>
        <time>2020-08-02T07:03:49.000Z</time>
      </trkpt>
      <trkpt lat="43.55355" lon="3.80934">
        <ele>52.821984124514</ele>
        <time>2020-08-02T07:03:50.000Z</time>
      </trkpt>
      <trkpt lat="43.55352" lon="3.80932">
        <ele>52.919260389105</ele>
        <time>2020-08-02T07:03:51.000Z</time>
      </trkpt>
      <trkpt lat="43.5535" lon="3.8093">
        <ele>53.017489382716</ele>
        <time>2020-08-02T07:03:52.000Z</time>
      </trkpt>
      <trkpt lat="43.55347" lon="3.80928">
        <ele>53.120370041152</ele>
        <time>2020-08-02T07:03:53.000Z</time>
      </trkpt>
      <trkpt lat="43.55345" lon="3.80927">
        <ele>53.223250699588</ele>
        <time>2020-08-02T07:03:54.000Z</time>
      </trkpt>
      <trkpt lat="43.55342" lon="3.80925">
        <ele>53.326131358025</ele>
        <time>2020-08-02T07:03:55.000Z</time>
      </trkpt>
      <trkpt lat="43.5534" lon="3.80923">
        <ele>53.429012016461</ele>
        <time>2020-08-02T07:03:56.000Z</time>
      </trkpt>
      <trkpt lat="43.55337" lon="3.80922">
        <ele>53.531892674897</ele>
        <time>2020-08-02T07:03:57.000Z</time>
      </trkpt>
      <trkpt lat="43.55334" lon="3.8092">
        <ele>53.634773333333</ele>
        <time>2020-08-02T07:03:58.000Z</time>
      </trkpt>
      <trkpt lat="43.55332" lon="3.80919">
        <ele>53.737653991769</ele>
        <time>2020-08-02T07:03:59.000Z</time>
      </trkpt>
      <trkpt lat="43.55329" lon="3.80918">
        <ele>53.840534650206</ele>
        <time>2020-08-02T07:04:00.000Z</time>
      </trkpt>
      <trkpt lat="43.55326" lon="3.80917">
        <ele>53.943415308642</ele>
        <time>2020-08-02T07:04:01.000Z</time>
      </trkpt>
      <trkpt lat="43.55324" lon="3.80916">
        <ele>54.04499968</ele>
        <time>2020-08-02T07:04:02.000Z</time>
      </trkpt>
      <trkpt lat="43.55321" lon="3.80914">
        <ele>54.14499968</ele>
        <time>2020-08-02T07:04:03.000Z</time>
      </trkpt>
      <trkpt lat="43.55318" lon="3.80912">
        <ele>54.24499968</ele>
        <time>2020-08-02T07:04:04.000Z</time>
      </trkpt>
      <trkpt lat="43.55316" lon="3.8091">
        <ele>54.34499968</ele>
        <time>2020-08-02T07:04:05.000Z</time>
      </trkpt>
      <trkpt lat="43.55313" lon="3.80908">
        <ele>54.44499968</ele>
        <time>2020-08-02T07:04:06.000Z</time>
      </trkpt>
      <trkpt lat="43.55311" lon="3.80906">
        <ele>54.54499968</ele>
        <time>2020-08-02T07:04:07.000Z</time>
      </trkpt>
      <trkpt lat="43.55308" lon="3.80905">
        <ele>54.64499968</ele>
        <time>2020-08-02T07:04:08.000Z</time>
      </trkpt>
      <trkpt lat="43.55306" lon="3.80903">
        <ele>54.74499968</ele>
        <time>2020-08-02T07:04:09.000Z</time>
      </trkpt>
      <trkpt lat="43.55303" lon="3.80901">
        <ele>54.84499968</ele>
        <time>2020-08-02T07:04:10.000Z</time>
      </trkpt>
      <trkpt lat="43.55301" lon="3.80898">
        <ele>54.94499968</ele>
        <time>2020-08-02T07:04:11.000Z</time>
      </trkpt>
      <trkpt lat="43.55298" lon="3.80896">
        <ele>55.04499968</ele>
        <time>2020-08-02T07:04:12.000Z</time>
      </trkpt>
      <trkpt lat="43.55296" lon="3.80894">
        <ele>55.14499968</ele>
        <time>2020-08-02T07:04:13.000Z</time>
      </trkpt>
      <trkpt lat="43.55294" lon="3.80891">
        <ele>55.24499968</ele>
        <time>2020-08-02T07:04:14.000Z</time>
      </trkpt>
      <trkpt lat="43.55292" lon="3.80888">
        <ele>55.34499968</ele>
        <time>2020-08-02T07:04:15.000Z</time>
      </trkpt>
      <trkpt lat="43.5529" lon="3.80886">
        <ele>55.44499968</ele>
        <time>2020-08-02T07:04:16.000Z</time>
      </trkpt>
      <trkpt lat="43.55287" lon="3.80883">
        <ele>55.54499968</ele>
        <time>2020-08-02T07:04:17.000Z</time>
      </trkpt>
      <trkpt lat="43.55285" lon="3.8088">
        <ele>55.64499968</ele>
        <time>2020-08-02T07:04:18.000Z</time>
      </trkpt>
      <trkpt lat="43.55283" lon="3.80878">
        <ele>55.74499968</ele>
        <time>2020-08-02T07:04:19.000Z</time>
      </trkpt>
      <trkpt lat="43.55281" lon="3.80875">
        <ele>55.84499968</ele>
        <time>2020-08-02T07:04:20.000Z</time>
      </trkpt>
      <trkpt lat="43.55279" lon="3.80872">
        <ele>55.94499968</ele>
        <time>2020-08-02T07:04:21.000Z</time>
      </trkpt>
      <trkpt lat="43.55277" lon="3.8087">
        <ele>56.04499968</ele>
        <time>2020-08-02T07:04:22.000Z</time>
      </trkpt>
      <trkpt lat="43.55274" lon="3.80867">
        <ele>56.14499968</ele>
        <time>2020-08-02T07:04:23.000Z</time>
      </trkpt>
      <trkpt lat="43.55272" lon="3.80865">
        <ele>56.24499968</ele>
        <time>2020-08-02T07:04:24.000Z</time>
      </trkpt>
      <trkpt lat="43.55269" lon="3.80863">
        <ele>56.34499968</ele>
        <time>2020-08-02T07:04:25.000Z</time>
      </trkpt>
      <trkpt lat="43.55267" lon="3.8086">
        <ele>56.44499968</ele>
        <time>2020-08-02T07:04:26.000Z</time>
      </trkpt>
      <trkpt lat="43.55265" lon="3.80858">
        <ele>56.54499968</ele>
        <time>2020-08-02T07:04:27.000Z</time>
      </trkpt>
      <trkpt lat="43.55262" lon="3.80855">
        <ele>56.64499968</ele>
        <time>2020-08-02T07:04:28.000Z</time>
      </trkpt>
      <trkpt lat="43.55259" lon="3.80853">
        <ele>56.74499968</ele>
        <time>2020-08-02T07:04:29.000Z</time>
      </trkpt>
      <trkpt lat="43.55256" lon="3.8085">
        <ele>56.84499968</ele>
        <time>2020-08-02T07:04:30.000Z</time>
      </trkpt>
      <trkpt lat="43.55253" lon="3.80848">
        <ele>56.94499968</ele>
        <time>2020-08-02T07:04:31.000Z</time>
      </trkpt>
      <trkpt lat="43.5525" lon="3.80845">
        <ele>57</ele>
        <time>2020-08-02T07:04:32.000Z</time>
      </trkpt>
      <trkpt lat="43.55247" lon="3.80843">
        <ele>57</ele>
        <time>2020-08-02T07:04:33.000Z</time>
      </trkpt>
      <trkpt lat="43.55244" lon="3.80841">
        <ele>57</ele>
        <time>2020-08-02T07:04:34.000Z</time>
      </trkpt>
      <trkpt lat="43.55241" lon="3.80839">
        <ele>57</ele>
        <time>2020-08-02T07:04:35.000Z</time>
      </trkpt>
      <trkpt lat="43.55237" lon="3.80837">
        <ele>57</ele>
        <time>2020-08-02T07:04:36.000Z</time>
      </trkpt>
      <trkpt lat="43.55234" lon="3.80835">
        <ele>57</ele>
        <time>2020-08-02T07:04:37.000Z</time>
      </trkpt>
      <trkpt lat="43.5523" lon="3.80832">
        <ele>57</ele>
        <time>2020-08-02T07:04:38.000Z</time>
      </trkpt>
      <trkpt lat="43.55227" lon="3.8083">
        <ele>57</ele>
        <time>2020-08-02T07:04:39.000Z</time>
      </trkpt>
      <trkpt lat="43.55223" lon="3.80828">
        <ele>57</ele>
        <time>2020-08-02T07:04:40.000Z</time>
      </trkpt>
      <trkpt lat="43.5522" lon="3.80825">
        <ele>57</ele>
        <time>2020-08-02T07:04:41.000Z</time>
      </trkpt>
      <trkpt lat="43.55217" lon="3.80822">
        <ele>56.961731517359</ele>
        <time>2020-08-02T07:04:42.000Z</time>
      </trkpt>
      <trkpt lat="43.55214" lon="3.80819">
        <ele>56.861026680176</ele>
        <time>2020-08-02T07:04:43.000Z</time>
      </trkpt>
      <trkpt lat="43.5521" lon="3.80816">
        <ele>56.760321842992</ele>
        <time>2020-08-02T07:04:44.000Z</time>
      </trkpt>
      <trkpt lat="43.55207" lon="3.80813">
        <ele>56.659617005808</ele>
        <time>2020-08-02T07:04:45.000Z</time>
      </trkpt>
      <trkpt lat="43.55203" lon="3.8081">
        <ele>56.558912168625</ele>
        <time>2020-08-02T07:04:46.000Z</time>
      </trkpt>
      <trkpt lat="43.552" lon="3.80807">
        <ele>56.458207331441</ele>
        <time>2020-08-02T07:04:47.000Z</time>
      </trkpt>
      <trkpt lat="43.55196" lon="3.80804">
        <ele>56.357502494257</ele>
        <time>2020-08-02T07:04:48.000Z</time>
      </trkpt>
      <trkpt lat="43.55192" lon="3.80801">
        <ele>56.256797657074</ele>
        <time>2020-08-02T07:04:49.000Z</time>
      </trkpt>
      <trkpt lat="43.55189" lon="3.80798">
        <ele>56.15609281989</ele>
        <time>2020-08-02T07:04:50.000Z</time>
      </trkpt>
      <trkpt lat="43.55185" lon="3.80794">
        <ele>56.055387982706</ele>
        <time>2020-08-02T07:04:51.000Z</time>
      </trkpt>
      <trkpt lat="43.55181" lon="3.80791">
        <ele>55.95500032</ele>
        <time>2020-08-02T07:04:52.000Z</time>
      </trkpt>
      <trkpt lat="43.55177" lon="3.80787">
        <ele>55.85500032</ele>
        <time>2020-08-02T07:04:53.000Z</time>
      </trkpt>
      <trkpt lat="43.55173" lon="3.80784">
        <ele>55.75500032</ele>
        <time>2020-08-02T07:04:54.000Z</time>
      </trkpt>
      <trkpt lat="43.55169" lon="3.8078">
        <ele>55.65500032</ele>
        <time>2020-08-02T07:04:55.000Z</time>
      </trkpt>
      <trkpt lat="43.55165" lon="3.80777">
        <ele>55.55500032</ele>
        <time>2020-08-02T07:04:56.000Z</time>
      </trkpt>
      <trkpt lat="43.55161" lon="3.80774">
        <ele>55.45500032</ele>
        <time>2020-08-02T07:04:57.000Z</time>
      </trkpt>
      <trkpt lat="43.55157" lon="3.80771">
        <ele>55.35500032</ele>
        <time>2020-08-02T07:04:58.000Z</time>
      </trkpt>
      <trkpt lat="43.55153" lon="3.80768">
        <ele>55.25500032</ele>
        <time>2020-08-02T07:04:59.000Z</time>
      </trkpt>
      <trkpt lat="43.5515" lon="3.80765">
        <ele>55.15500032</ele>
        <time>2020-08-02T07:05:00.000Z</time>
      </trkpt>
      <trkpt lat="43.55146" lon="3.80761">
        <ele>55.05500032</ele>
        <time>2020-08-02T07:05:01.000Z</time>
      </trkpt>
      <trkpt lat="43.55143" lon="3.80757">
        <ele>55</ele>
        <time>2020-08-02T07:05:02.000Z</time>
      </trkpt>
      <trkpt lat="43.5514" lon="3.80753">
        <ele>55</ele>
        <time>2020-08-02T07:05:03.000Z</time>
      </trkpt>
      <trkpt lat="43.55137" lon="3.80749">
        <ele>55</ele>
        <time>2020-08-02T07:05:04.000Z</time>
      </trkpt>
      <trkpt lat="43.55134" lon="3.80744">
        <ele>55</ele>
        <time>2020-08-02T07:05:05.000Z</time>
      </trkpt>
      <trkpt lat="43.55132" lon="3.80739">
        <ele>55</ele>
        <time>2020-08-02T07:05:06.000Z</time>
      </trkpt>
      <trkpt lat="43.5513" lon="3.80735">
        <ele>55</ele>
        <time>2020-08-02T07:05:07.000Z</time>
      </trkpt>
      <trkpt lat="43.55128" lon="3.8073">
        <ele>55</ele>
        <time>2020-08-02T07:05:08.000Z</time>
      </trkpt>
      <trkpt lat="43.55126" lon="3.80725">
        <ele>55</ele>
        <time>2020-08-02T07:05:09.000Z</time>
      </trkpt>
      <trkpt lat="43.55124" lon="3.8072">
        <ele>55</ele>
        <time>2020-08-02T07:05:10.000Z</time>
      </trkpt>
      <trkpt lat="43.55122" lon="3.80715">
        <ele>55</ele>
        <time>2020-08-02T07:05:11.000Z</time>
      </trkpt>
      <trkpt lat="43.5512" lon="3.80711">
        <ele>54.947531851852</ele>
        <time>2020-08-02T07:05:12.000Z</time>
      </trkpt>
      <trkpt lat="43.55118" lon="3.80706">
        <ele>54.638889876543</ele>
        <time>2020-08-02T07:05:13.000Z</time>
      </trkpt>
      <trkpt lat="43.55116" lon="3.807">
        <ele>54.330247901235</ele>
        <time>2020-08-02T07:05:14.000Z</time>
      </trkpt>
      <trkpt lat="43.55114" lon="3.80695">
        <ele>54.021605925926</ele>
        <time>2020-08-02T07:05:15.000Z</time>
      </trkpt>
      <trkpt lat="43.55113" lon="3.80689">
        <ele>53.712963950617</ele>
        <time>2020-08-02T07:05:16.000Z</time>
      </trkpt>
      <trkpt lat="43.55111" lon="3.80683">
        <ele>53.404321975309</ele>
        <time>2020-08-02T07:05:17.000Z</time>
      </trkpt>
      <trkpt lat="43.5511" lon="3.80677">
        <ele>53.09568</ele>
        <time>2020-08-02T07:05:18.000Z</time>
      </trkpt>
      <trkpt lat="43.55109" lon="3.8067">
        <ele>52.787038024691</ele>
        <time>2020-08-02T07:05:19.000Z</time>
      </trkpt>
      <trkpt lat="43.55108" lon="3.80663">
        <ele>52.478396049383</ele>
        <time>2020-08-02T07:05:20.000Z</time>
      </trkpt>
      <trkpt lat="43.55107" lon="3.80656">
        <ele>52.169754074074</ele>
        <time>2020-08-02T07:05:21.000Z</time>
      </trkpt>
      <trkpt lat="43.55105" lon="3.80649">
        <ele>51.865538804781</ele>
        <time>2020-08-02T07:05:22.000Z</time>
      </trkpt>
      <trkpt lat="43.55104" lon="3.80641">
        <ele>51.566734023904</ele>
        <time>2020-08-02T07:05:23.000Z</time>
      </trkpt>
      <trkpt lat="43.55103" lon="3.80633">
        <ele>51.267929243028</ele>
        <time>2020-08-02T07:05:24.000Z</time>
      </trkpt>
      <trkpt lat="43.55101" lon="3.80625">
        <ele>50.969124462151</ele>
        <time>2020-08-02T07:05:25.000Z</time>
      </trkpt>
      <trkpt lat="43.551" lon="3.80616">
        <ele>50.670319681275</ele>
        <time>2020-08-02T07:05:26.000Z</time>
      </trkpt>
      <trkpt lat="43.55098" lon="3.80607">
        <ele>50.371514900398</ele>
        <time>2020-08-02T07:05:27.000Z</time>
      </trkpt>
      <trkpt lat="43.55096" lon="3.80598">
        <ele>50.072710119522</ele>
        <time>2020-08-02T07:05:28.000Z</time>
      </trkpt>
      <trkpt lat="43.55094" lon="3.80588">
        <ele>49.773905338645</ele>
        <time>2020-08-02T07:05:29.000Z</time>
      </trkpt>
      <trkpt lat="43.55092" lon="3.80579">
        <ele>49.475100557769</ele>
        <time>2020-08-02T07:05:30.000Z</time>
      </trkpt>
      <trkpt lat="43.55091" lon="3.80569">
        <ele>49.176295776892</ele>
        <time>2020-08-02T07:05:31.000Z</time>
      </trkpt>
      <trkpt lat="43.55089" lon="3.8056">
        <ele>48.960078171057</ele>
        <time>2020-08-02T07:05:32.000Z</time>
      </trkpt>
      <trkpt lat="43.55088" lon="3.80551">
        <ele>48.862707096591</ele>
        <time>2020-08-02T07:05:33.000Z</time>
      </trkpt>
      <trkpt lat="43.55087" lon="3.80542">
        <ele>48.765336022125</ele>
        <time>2020-08-02T07:05:34.000Z</time>
      </trkpt>
      <trkpt lat="43.55086" lon="3.80534">
        <ele>48.667964947659</ele>
        <time>2020-08-02T07:05:35.000Z</time>
      </trkpt>
      <trkpt lat="43.55086" lon="3.80526">
        <ele>48.570593873194</ele>
        <time>2020-08-02T07:05:36.000Z</time>
      </trkpt>
      <trkpt lat="43.55085" lon="3.80519">
        <ele>48.473222798728</ele>
        <time>2020-08-02T07:05:37.000Z</time>
      </trkpt>
      <trkpt lat="43.55084" lon="3.80512">
        <ele>48.375851724263</ele>
        <time>2020-08-02T07:05:38.000Z</time>
      </trkpt>
      <trkpt lat="43.55084" lon="3.80505">
        <ele>48.278480649797</ele>
        <time>2020-08-02T07:05:39.000Z</time>
      </trkpt>
      <trkpt lat="43.55083" lon="3.80499">
        <ele>48.181109575331</ele>
        <time>2020-08-02T07:05:40.000Z</time>
      </trkpt>
      <trkpt lat="43.55082" lon="3.80493">
        <ele>48.083738500866</ele>
        <time>2020-08-02T07:05:41.000Z</time>
      </trkpt>
      <trkpt lat="43.55082" lon="3.80487">
        <ele>48.014448530577</ele>
        <time>2020-08-02T07:05:42.000Z</time>
      </trkpt>
      <trkpt lat="43.55081" lon="3.80481">
        <ele>48.117647602743</ele>
        <time>2020-08-02T07:05:43.000Z</time>
      </trkpt>
      <trkpt lat="43.55081" lon="3.80475">
        <ele>48.220846674909</ele>
        <time>2020-08-02T07:05:44.000Z</time>
      </trkpt>
      <trkpt lat="43.5508" lon="3.8047">
        <ele>48.324045747075</ele>
        <time>2020-08-02T07:05:45.000Z</time>
      </trkpt>
      <trkpt lat="43.5508" lon="3.80465">
        <ele>48.427244819242</ele>
        <time>2020-08-02T07:05:46.000Z</time>
      </trkpt>
      <trkpt lat="43.55079" lon="3.8046">
        <ele>48.530443891408</ele>
        <time>2020-08-02T07:05:47.000Z</time>
      </trkpt>
      <trkpt lat="43.55079" lon="3.80454">
        <ele>48.633642963574</ele>
        <time>2020-08-02T07:05:48.000Z</time>
      </trkpt>
      <trkpt lat="43.55078" lon="3.80449">
        <ele>48.73684203574</ele>
        <time>2020-08-02T07:05:49.000Z</time>
      </trkpt>
      <trkpt lat="43.55078" lon="3.80444">
        <ele>48.840041107906</ele>
        <time>2020-08-02T07:05:50.000Z</time>
      </trkpt>
      <trkpt lat="43.55077" lon="3.80439">
        <ele>48.943240180072</ele>
        <time>2020-08-02T07:05:51.000Z</time>
      </trkpt>
      <trkpt lat="43.55077" lon="3.80434">
        <ele>49</ele>
        <time>2020-08-02T07:05:52.000Z</time>
      </trkpt>
      <trkpt lat="43.55076" lon="3.80429">
        <ele>49</ele>
        <time>2020-08-02T07:05:53.000Z</time>
      </trkpt>
      <trkpt lat="43.55076" lon="3.80424">
        <ele>49</ele>
        <time>2020-08-02T07:05:54.000Z</time>
      </trkpt>
      <trkpt lat="43.55075" lon="3.80419">
        <ele>49</ele>
        <time>2020-08-02T07:05:55.000Z</time>
      </trkpt>
      <trkpt lat="43.55074" lon="3.80414">
        <ele>49</ele>
        <time>2020-08-02T07:05:56.000Z</time>
      </trkpt>
      <trkpt lat="43.55073" lon="3.80409">
        <ele>49</ele>
        <time>2020-08-02T07:05:57.000Z</time>
      </trkpt>
      <trkpt lat="43.55073" lon="3.80404">
        <ele>49</ele>
        <time>2020-08-02T07:05:58.000Z</time>
      </trkpt>
      <trkpt lat="43.55072" lon="3.80399">
        <ele>49</ele>
        <time>2020-08-02T07:05:59.000Z</time>
      </trkpt>
      <trkpt lat="43.55071" lon="3.80394">
        <ele>49</ele>
        <time>2020-08-02T07:06:00.000Z</time>
      </trkpt>
      <trkpt lat="43.5507" lon="3.80389">
        <ele>49</ele>
        <time>2020-08-02T07:06:01.000Z</time>
      </trkpt>
      <trkpt lat="43.55069" lon="3.80384">
        <ele>48.955445833154</ele>
        <time>2020-08-02T07:06:02.000Z</time>
      </trkpt>
      <trkpt lat="43.55069" lon="3.80379">
        <ele>48.856435869425</ele>
        <time>2020-08-02T07:06:03.000Z</time>
      </trkpt>
      <trkpt lat="43.55068" lon="3.80374">
        <ele>48.757425905696</ele>
        <time>2020-08-02T07:06:04.000Z</time>
      </trkpt>
      <trkpt lat="43.55067" lon="3.80369">
        <ele>48.658415941967</ele>
        <time>2020-08-02T07:06:05.000Z</time>
      </trkpt>
      <trkpt lat="43.55067" lon="3.80364">
        <ele>48.559405978237</ele>
        <time>2020-08-02T07:06:06.000Z</time>
      </trkpt>
      <trkpt lat="43.55066" lon="3.80359">
        <ele>48.460396014508</ele>
        <time>2020-08-02T07:06:07.000Z</time>
      </trkpt>
      <trkpt lat="43.55066" lon="3.80354">
        <ele>48.361386050779</ele>
        <time>2020-08-02T07:06:08.000Z</time>
      </trkpt>
      <trkpt lat="43.55065" lon="3.80349">
        <ele>48.26237608705</ele>
        <time>2020-08-02T07:06:09.000Z</time>
      </trkpt>
      <trkpt lat="43.55063" lon="3.80343">
        <ele>48.163366123321</ele>
        <time>2020-08-02T07:06:10.000Z</time>
      </trkpt>
      <trkpt lat="43.55062" lon="3.80338">
        <ele>48.064356159592</ele>
        <time>2020-08-02T07:06:11.000Z</time>
      </trkpt>
      <trkpt lat="43.55062" lon="3.80332">
        <ele>47.964646164269</ele>
        <time>2020-08-02T07:06:12.000Z</time>
      </trkpt>
      <trkpt lat="43.55061" lon="3.80325">
        <ele>47.863636128558</ele>
        <time>2020-08-02T07:06:13.000Z</time>
      </trkpt>
      <trkpt lat="43.5506" lon="3.80319">
        <ele>47.762626092848</ele>
        <time>2020-08-02T07:06:14.000Z</time>
      </trkpt>
      <trkpt lat="43.55059" lon="3.80313">
        <ele>47.661616057137</ele>
        <time>2020-08-02T07:06:15.000Z</time>
      </trkpt>
      <trkpt lat="43.55059" lon="3.80306">
        <ele>47.560606021426</ele>
        <time>2020-08-02T07:06:16.000Z</time>
      </trkpt>
      <trkpt lat="43.55058" lon="3.803">
        <ele>47.459595985716</ele>
        <time>2020-08-02T07:06:17.000Z</time>
      </trkpt>
      <trkpt lat="43.55058" lon="3.80293">
        <ele>47.358585950005</ele>
        <time>2020-08-02T07:06:18.000Z</time>
      </trkpt>
      <trkpt lat="43.55058" lon="3.80287">
        <ele>47.257575914294</ele>
        <time>2020-08-02T07:06:19.000Z</time>
      </trkpt>
      <trkpt lat="43.55057" lon="3.80281">
        <ele>47.156565878584</ele>
        <time>2020-08-02T07:06:20.000Z</time>
      </trkpt>
      <trkpt lat="43.55056" lon="3.80275">
        <ele>47.055555842873</ele>
        <time>2020-08-02T07:06:21.000Z</time>
      </trkpt>
      <trkpt lat="43.55056" lon="3.80269">
        <ele>46.86500096</ele>
        <time>2020-08-02T07:06:22.000Z</time>
      </trkpt>
      <trkpt lat="43.55055" lon="3.80263">
        <ele>46.56500096</ele>
        <time>2020-08-02T07:06:23.000Z</time>
      </trkpt>
      <trkpt lat="43.55054" lon="3.80257">
        <ele>46.26500096</ele>
        <time>2020-08-02T07:06:24.000Z</time>
      </trkpt>
      <trkpt lat="43.55054" lon="3.80252">
        <ele>45.96500096</ele>
        <time>2020-08-02T07:06:25.000Z</time>
      </trkpt>
      <trkpt lat="43.55053" lon="3.80247">
        <ele>45.66500096</ele>
        <time>2020-08-02T07:06:26.000Z</time>
      </trkpt>
      <trkpt lat="43.55052" lon="3.80243">
        <ele>45.36500096</ele>
        <time>2020-08-02T07:06:27.000Z</time>
      </trkpt>
      <trkpt lat="43.55051" lon="3.80241">
        <ele>45.06500096</ele>
        <time>2020-08-02T07:06:28.000Z</time>
      </trkpt>
      <trkpt lat="43.5505" lon="3.80238">
        <ele>44.46500096</ele>
        <time>2020-08-02T07:06:30.000Z</time>
      </trkpt>
      <trkpt lat="43.55047" lon="3.80236">
        <ele>44</ele>
        <time>2020-08-02T07:06:32.000Z</time>
      </trkpt>
      <trkpt lat="43.55045" lon="3.80236">
        <ele>44</ele>
        <time>2020-08-02T07:06:33.000Z</time>
      </trkpt>
      <trkpt lat="43.55042" lon="3.80237">
        <ele>44</ele>
        <time>2020-08-02T07:06:34.000Z</time>
      </trkpt>
      <trkpt lat="43.55039" lon="3.8024">
        <ele>44</ele>
        <time>2020-08-02T07:06:35.000Z</time>
      </trkpt>
      <trkpt lat="43.55036" lon="3.80243">
        <ele>44</ele>
        <time>2020-08-02T07:06:36.000Z</time>
      </trkpt>
      <trkpt lat="43.55033" lon="3.80247">
        <ele>44</ele>
        <time>2020-08-02T07:06:37.000Z</time>
      </trkpt>
      <trkpt lat="43.5503" lon="3.80251">
        <ele>44</ele>
        <time>2020-08-02T07:06:38.000Z</time>
      </trkpt>
      <trkpt lat="43.55027" lon="3.80255">
        <ele>44</ele>
        <time>2020-08-02T07:06:39.000Z</time>
      </trkpt>
      <trkpt lat="43.55025" lon="3.80259">
        <ele>44</ele>
        <time>2020-08-02T07:06:40.000Z</time>
      </trkpt>
      <trkpt lat="43.55023" lon="3.80263">
        <ele>44</ele>
        <time>2020-08-02T07:06:41.000Z</time>
      </trkpt>
      <trkpt lat="43.5502" lon="3.80267">
        <ele>44</ele>
        <time>2020-08-02T07:06:42.000Z</time>
      </trkpt>
      <trkpt lat="43.55018" lon="3.8027">
        <ele>44</ele>
        <time>2020-08-02T07:06:43.000Z</time>
      </trkpt>
      <trkpt lat="43.55015" lon="3.80274">
        <ele>44</ele>
        <time>2020-08-02T07:06:44.000Z</time>
      </trkpt>
      <trkpt lat="43.55012" lon="3.80278">
        <ele>44</ele>
        <time>2020-08-02T07:06:45.000Z</time>
      </trkpt>
      <trkpt lat="43.5501" lon="3.80281">
        <ele>44</ele>
        <time>2020-08-02T07:06:46.000Z</time>
      </trkpt>
      <trkpt lat="43.55007" lon="3.80285">
        <ele>44</ele>
        <time>2020-08-02T07:06:47.000Z</time>
      </trkpt>
      <trkpt lat="43.55005" lon="3.8029">
        <ele>44</ele>
        <time>2020-08-02T07:06:48.000Z</time>
      </trkpt>
      <trkpt lat="43.55004" lon="3.80295">
        <ele>44</ele>
        <time>2020-08-02T07:06:49.000Z</time>
      </trkpt>
      <trkpt lat="43.55001" lon="3.803">
        <ele>44</ele>
        <time>2020-08-02T07:06:50.000Z</time>
      </trkpt>
      <trkpt lat="43.54998" lon="3.80304">
        <ele>44</ele>
        <time>2020-08-02T07:06:51.000Z</time>
      </trkpt>
      <trkpt lat="43.54996" lon="3.80307">
        <ele>44</ele>
        <time>2020-08-02T07:06:52.000Z</time>
      </trkpt>
      <trkpt lat="43.54993" lon="3.80311">
        <ele>44</ele>
        <time>2020-08-02T07:06:53.000Z</time>
      </trkpt>
      <trkpt lat="43.5499" lon="3.80314">
        <ele>44</ele>
        <time>2020-08-02T07:06:54.000Z</time>
      </trkpt>
      <trkpt lat="43.54986" lon="3.80318">
        <ele>44</ele>
        <time>2020-08-02T07:06:55.000Z</time>
      </trkpt>
      <trkpt lat="43.54983" lon="3.8032">
        <ele>44</ele>
        <time>2020-08-02T07:06:56.000Z</time>
      </trkpt>
      <trkpt lat="43.5498" lon="3.80323">
        <ele>44</ele>
        <time>2020-08-02T07:06:57.000Z</time>
      </trkpt>
      <trkpt lat="43.54976" lon="3.80325">
        <ele>44</ele>
        <time>2020-08-02T07:06:58.000Z</time>
      </trkpt>
      <trkpt lat="43.54973" lon="3.80328">
        <ele>44</ele>
        <time>2020-08-02T07:06:59.000Z</time>
      </trkpt>
      <trkpt lat="43.5497" lon="3.8033">
        <ele>44</ele>
        <time>2020-08-02T07:07:00.000Z</time>
      </trkpt>
      <trkpt lat="43.54967" lon="3.80332">
        <ele>44</ele>
        <time>2020-08-02T07:07:01.000Z</time>
      </trkpt>
      <trkpt lat="43.54964" lon="3.80334">
        <ele>44.013429421488</ele>
        <time>2020-08-02T07:07:02.000Z</time>
      </trkpt>
      <trkpt lat="43.5496" lon="3.80336">
        <ele>44.116735206612</ele>
        <time>2020-08-02T07:07:03.000Z</time>
      </trkpt>
      <trkpt lat="43.54957" lon="3.80338">
        <ele>44.220040991736</ele>
        <time>2020-08-02T07:07:04.000Z</time>
      </trkpt>
      <trkpt lat="43.54954" lon="3.80339">
        <ele>44.32334677686</ele>
        <time>2020-08-02T07:07:05.000Z</time>
      </trkpt>
      <trkpt lat="43.54951" lon="3.80341">
        <ele>44.426652561984</ele>
        <time>2020-08-02T07:07:06.000Z</time>
      </trkpt>
      <trkpt lat="43.54947" lon="3.80342">
        <ele>44.529958347107</ele>
        <time>2020-08-02T07:07:07.000Z</time>
      </trkpt>
      <trkpt lat="43.54944" lon="3.80343">
        <ele>44.633264132231</ele>
        <time>2020-08-02T07:07:08.000Z</time>
      </trkpt>
      <trkpt lat="43.54941" lon="3.80345">
        <ele>44.736569917355</ele>
        <time>2020-08-02T07:07:09.000Z</time>
      </trkpt>
      <trkpt lat="43.54938" lon="3.80346">
        <ele>44.839875702479</ele>
        <time>2020-08-02T07:07:10.000Z</time>
      </trkpt>
      <trkpt lat="43.54935" lon="3.80346">
        <ele>44.943181487603</ele>
        <time>2020-08-02T07:07:11.000Z</time>
      </trkpt>
      <trkpt lat="43.54932" lon="3.80347">
        <ele>45.04499968</ele>
        <time>2020-08-02T07:07:12.000Z</time>
      </trkpt>
      <trkpt lat="43.54929" lon="3.80348">
        <ele>45.14499968</ele>
        <time>2020-08-02T07:07:13.000Z</time>
      </trkpt>
      <trkpt lat="43.54926" lon="3.80348">
        <ele>45.24499968</ele>
        <time>2020-08-02T07:07:14.000Z</time>
      </trkpt>
      <trkpt lat="43.54922" lon="3.80348">
        <ele>45.34499968</ele>
        <time>2020-08-02T07:07:15.000Z</time>
      </trkpt>
      <trkpt lat="43.54919" lon="3.80348">
        <ele>45.44499968</ele>
        <time>2020-08-02T07:07:16.000Z</time>
      </trkpt>
      <trkpt lat="43.54916" lon="3.80348">
        <ele>45.54499968</ele>
        <time>2020-08-02T07:07:17.000Z</time>
      </trkpt>
      <trkpt lat="43.54913" lon="3.80348">
        <ele>45.64499968</ele>
        <time>2020-08-02T07:07:18.000Z</time>
      </trkpt>
      <trkpt lat="43.5491" lon="3.80348">
        <ele>45.74499968</ele>
        <time>2020-08-02T07:07:19.000Z</time>
      </trkpt>
      <trkpt lat="43.54908" lon="3.80349">
        <ele>45.84499968</ele>
        <time>2020-08-02T07:07:20.000Z</time>
      </trkpt>
      <trkpt lat="43.54905" lon="3.80349">
        <ele>45.94499968</ele>
        <time>2020-08-02T07:07:21.000Z</time>
      </trkpt>
      <trkpt lat="43.54903" lon="3.8035">
        <ele>46.04499968</ele>
        <time>2020-08-02T07:07:22.000Z</time>
      </trkpt>
      <trkpt lat="43.549" lon="3.80349">
        <ele>46.14499968</ele>
        <time>2020-08-02T07:07:23.000Z</time>
      </trkpt>
      <trkpt lat="43.54898" lon="3.80349">
        <ele>46.24499968</ele>
        <time>2020-08-02T07:07:24.000Z</time>
      </trkpt>
      <trkpt lat="43.54895" lon="3.80349">
        <ele>46.34499968</ele>
        <time>2020-08-02T07:07:25.000Z</time>
      </trkpt>
      <trkpt lat="43.54893" lon="3.80348">
        <ele>46.44499968</ele>
        <time>2020-08-02T07:07:26.000Z</time>
      </trkpt>
      <trkpt lat="43.5489" lon="3.80347">
        <ele>46.54499968</ele>
        <time>2020-08-02T07:07:27.000Z</time>
      </trkpt>
      <trkpt lat="43.54888" lon="3.80346">
        <ele>46.64499968</ele>
        <time>2020-08-02T07:07:28.000Z</time>
      </trkpt>
      <trkpt lat="43.54885" lon="3.80345">
        <ele>46.74499968</ele>
        <time>2020-08-02T07:07:29.000Z</time>
      </trkpt>
      <trkpt lat="43.54883" lon="3.80345">
        <ele>46.84499968</ele>
        <time>2020-08-02T07:07:30.000Z</time>
      </trkpt>
      <trkpt lat="43.5488" lon="3.80344">
        <ele>46.94499968</ele>
        <time>2020-08-02T07:07:31.000Z</time>
      </trkpt>
      <trkpt lat="43.54878" lon="3.80344">
        <ele>47.08999936</ele>
        <time>2020-08-02T07:07:32.000Z</time>
      </trkpt>
      <trkpt lat="43.54876" lon="3.80344">
        <ele>47.28999936</ele>
        <time>2020-08-02T07:07:33.000Z</time>
      </trkpt>
      <trkpt lat="43.54873" lon="3.80345">
        <ele>47.48999936</ele>
        <time>2020-08-02T07:07:34.000Z</time>
      </trkpt>
      <trkpt lat="43.5487" lon="3.80345">
        <ele>47.68999936</ele>
        <time>2020-08-02T07:07:35.000Z</time>
      </trkpt>
      <trkpt lat="43.54867" lon="3.80344">
        <ele>47.88999936</ele>
        <time>2020-08-02T07:07:36.000Z</time>
      </trkpt>
      <trkpt lat="43.54864" lon="3.80344">
        <ele>48.08999936</ele>
        <time>2020-08-02T07:07:37.000Z</time>
      </trkpt>
      <trkpt lat="43.54861" lon="3.80342">
        <ele>48.28999936</ele>
        <time>2020-08-02T07:07:38.000Z</time>
      </trkpt>
      <trkpt lat="43.54859" lon="3.80341">
        <ele>48.48999936</ele>
        <time>2020-08-02T07:07:39.000Z</time>
      </trkpt>
      <trkpt lat="43.54856" lon="3.80339">
        <ele>48.68999936</ele>
        <time>2020-08-02T07:07:40.000Z</time>
      </trkpt>
      <trkpt lat="43.54854" lon="3.80338">
        <ele>48.88999936</ele>
        <time>2020-08-02T07:07:41.000Z</time>
      </trkpt>
      <trkpt lat="43.54851" lon="3.80336">
        <ele>49.04499968</ele>
        <time>2020-08-02T07:07:42.000Z</time>
      </trkpt>
      <trkpt lat="43.54849" lon="3.80335">
        <ele>49.14499968</ele>
        <time>2020-08-02T07:07:43.000Z</time>
      </trkpt>
      <trkpt lat="43.54846" lon="3.80335">
        <ele>49.24499968</ele>
        <time>2020-08-02T07:07:44.000Z</time>
      </trkpt>
      <trkpt lat="43.54843" lon="3.80334">
        <ele>49.34499968</ele>
        <time>2020-08-02T07:07:45.000Z</time>
      </trkpt>
      <trkpt lat="43.5484" lon="3.80333">
        <ele>49.44499968</ele>
        <time>2020-08-02T07:07:46.000Z</time>
      </trkpt>
      <trkpt lat="43.54838" lon="3.80332">
        <ele>49.54499968</ele>
        <time>2020-08-02T07:07:47.000Z</time>
      </trkpt>
      <trkpt lat="43.54835" lon="3.8033">
        <ele>49.64499968</ele>
        <time>2020-08-02T07:07:48.000Z</time>
      </trkpt>
      <trkpt lat="43.54832" lon="3.80329">
        <ele>49.74499968</ele>
        <time>2020-08-02T07:07:49.000Z</time>
      </trkpt>
      <trkpt lat="43.5483" lon="3.80328">
        <ele>49.84499968</ele>
        <time>2020-08-02T07:07:50.000Z</time>
      </trkpt>
      <trkpt lat="43.54827" lon="3.80326">
        <ele>49.94499968</ele>
        <time>2020-08-02T07:07:51.000Z</time>
      </trkpt>
      <trkpt lat="43.54824" lon="3.80325">
        <ele>50.08789</ele>
        <time>2020-08-02T07:07:52.000Z</time>
      </trkpt>
      <trkpt lat="43.54822" lon="3.80323">
        <ele>50.2832025</ele>
        <time>2020-08-02T07:07:53.000Z</time>
      </trkpt>
      <trkpt lat="43.54819" lon="3.80322">
        <ele>50.478515</ele>
        <time>2020-08-02T07:07:54.000Z</time>
      </trkpt>
      <trkpt lat="43.54816" lon="3.8032">
        <ele>50.6738275</ele>
        <time>2020-08-02T07:07:55.000Z</time>
      </trkpt>
      <trkpt lat="43.54814" lon="3.80319">
        <ele>50.86914</ele>
        <time>2020-08-02T07:07:56.000Z</time>
      </trkpt>
      <trkpt lat="43.54811" lon="3.80318">
        <ele>51.0644525</ele>
        <time>2020-08-02T07:07:57.000Z</time>
      </trkpt>
      <trkpt lat="43.54809" lon="3.80316">
        <ele>51.259765</ele>
        <time>2020-08-02T07:07:58.000Z</time>
      </trkpt>
      <trkpt lat="43.54806" lon="3.80315">
        <ele>51.4550775</ele>
        <time>2020-08-02T07:07:59.000Z</time>
      </trkpt>
      <trkpt lat="43.54804" lon="3.80314">
        <ele>51.65039</ele>
        <time>2020-08-02T07:08:00.000Z</time>
      </trkpt>
      <trkpt lat="43.54801" lon="3.80313">
        <ele>51.8457025</ele>
        <time>2020-08-02T07:08:01.000Z</time>
      </trkpt>
      <trkpt lat="43.54799" lon="3.80311">
        <ele>52.020916015936</ele>
        <time>2020-08-02T07:08:02.000Z</time>
      </trkpt>
      <trkpt lat="43.54796" lon="3.80309">
        <ele>52.120517609562</ele>
        <time>2020-08-02T07:08:03.000Z</time>
      </trkpt>
      <trkpt lat="43.54794" lon="3.80307">
        <ele>52.220119203187</ele>
        <time>2020-08-02T07:08:04.000Z</time>
      </trkpt>
      <trkpt lat="43.54791" lon="3.80305">
        <ele>52.319720796813</ele>
        <time>2020-08-02T07:08:05.000Z</time>
      </trkpt>
      <trkpt lat="43.54789" lon="3.80303">
        <ele>52.419322390438</ele>
        <time>2020-08-02T07:08:06.000Z</time>
      </trkpt>
      <trkpt lat="43.54786" lon="3.80301">
        <ele>52.518923984064</ele>
        <time>2020-08-02T07:08:07.000Z</time>
      </trkpt>
      <trkpt lat="43.54784" lon="3.80299">
        <ele>52.618525577689</ele>
        <time>2020-08-02T07:08:08.000Z</time>
      </trkpt>
      <trkpt lat="43.54782" lon="3.80298">
        <ele>52.718127171315</ele>
        <time>2020-08-02T07:08:09.000Z</time>
      </trkpt>
      <trkpt lat="43.54779" lon="3.80297">
        <ele>52.81772876494</ele>
        <time>2020-08-02T07:08:10.000Z</time>
      </trkpt>
      <trkpt lat="43.54776" lon="3.80296">
        <ele>52.917330358566</ele>
        <time>2020-08-02T07:08:11.000Z</time>
      </trkpt>
      <trkpt lat="43.54774" lon="3.80295">
        <ele>53.016982702732</ele>
        <time>2020-08-02T07:08:12.000Z</time>
      </trkpt>
      <trkpt lat="43.54771" lon="3.80293">
        <ele>53.116882834568</ele>
        <time>2020-08-02T07:08:13.000Z</time>
      </trkpt>
      <trkpt lat="43.54769" lon="3.80291">
        <ele>53.216782966404</ele>
        <time>2020-08-02T07:08:14.000Z</time>
      </trkpt>
      <trkpt lat="43.54766" lon="3.80289">
        <ele>53.31668309824</ele>
        <time>2020-08-02T07:08:15.000Z</time>
      </trkpt>
      <trkpt lat="43.54764" lon="3.80287">
        <ele>53.416583230077</ele>
        <time>2020-08-02T07:08:16.000Z</time>
      </trkpt>
      <trkpt lat="43.54762" lon="3.80285">
        <ele>53.516483361913</ele>
        <time>2020-08-02T07:08:17.000Z</time>
      </trkpt>
      <trkpt lat="43.5476" lon="3.80282">
        <ele>53.616383493749</ele>
        <time>2020-08-02T07:08:18.000Z</time>
      </trkpt>
      <trkpt lat="43.54758" lon="3.8028">
        <ele>53.716283625585</ele>
        <time>2020-08-02T07:08:19.000Z</time>
      </trkpt>
      <trkpt lat="43.54756" lon="3.80277">
        <ele>53.816183757421</ele>
        <time>2020-08-02T07:08:20.000Z</time>
      </trkpt>
      <trkpt lat="43.54755" lon="3.80275">
        <ele>53.916083889258</ele>
        <time>2020-08-02T07:08:21.000Z</time>
      </trkpt>
      <trkpt lat="43.54753" lon="3.80273">
        <ele>54.032955704896</ele>
        <time>2020-08-02T07:08:22.000Z</time>
      </trkpt>
      <trkpt lat="43.5475" lon="3.80271">
        <ele>54.238928860497</ele>
        <time>2020-08-02T07:08:23.000Z</time>
      </trkpt>
      <trkpt lat="43.54749" lon="3.80269">
        <ele>54.444902016098</ele>
        <time>2020-08-02T07:08:24.000Z</time>
      </trkpt>
      <trkpt lat="43.54747" lon="3.80268">
        <ele>54.650875171699</ele>
        <time>2020-08-02T07:08:25.000Z</time>
      </trkpt>
      <trkpt lat="43.54745" lon="3.80265">
        <ele>54.8568483273</ele>
        <time>2020-08-02T07:08:26.000Z</time>
      </trkpt>
      <trkpt lat="43.54743" lon="3.80263">
        <ele>55.062821482901</ele>
        <time>2020-08-02T07:08:27.000Z</time>
      </trkpt>
      <trkpt lat="43.54741" lon="3.8026">
        <ele>55.268794638502</ele>
        <time>2020-08-02T07:08:28.000Z</time>
      </trkpt>
      <trkpt lat="43.54739" lon="3.80258">
        <ele>55.474767794103</ele>
        <time>2020-08-02T07:08:29.000Z</time>
      </trkpt>
      <trkpt lat="43.54737" lon="3.80256">
        <ele>55.680740949704</ele>
        <time>2020-08-02T07:08:30.000Z</time>
      </trkpt>
      <trkpt lat="43.54735" lon="3.80254">
        <ele>55.886714105305</ele>
        <time>2020-08-02T07:08:31.000Z</time>
      </trkpt>
      <trkpt lat="43.54733" lon="3.80252">
        <ele>56.08999936</ele>
        <time>2020-08-02T07:08:32.000Z</time>
      </trkpt>
      <trkpt lat="43.54731" lon="3.8025">
        <ele>56.28999936</ele>
        <time>2020-08-02T07:08:33.000Z</time>
      </trkpt>
      <trkpt lat="43.54729" lon="3.80249">
        <ele>56.48999936</ele>
        <time>2020-08-02T07:08:34.000Z</time>
      </trkpt>
      <trkpt lat="43.54727" lon="3.80247">
        <ele>56.68999936</ele>
        <time>2020-08-02T07:08:35.000Z</time>
      </trkpt>
      <trkpt lat="43.54725" lon="3.80245">
        <ele>56.88999936</ele>
        <time>2020-08-02T07:08:36.000Z</time>
      </trkpt>
      <trkpt lat="43.54723" lon="3.80243">
        <ele>57.08999936</ele>
        <time>2020-08-02T07:08:37.000Z</time>
      </trkpt>
      <trkpt lat="43.54721" lon="3.80241">
        <ele>57.28999936</ele>
        <time>2020-08-02T07:08:38.000Z</time>
      </trkpt>
      <trkpt lat="43.54719" lon="3.80239">
        <ele>57.48999936</ele>
        <time>2020-08-02T07:08:39.000Z</time>
      </trkpt>
      <trkpt lat="43.54718" lon="3.80237">
        <ele>57.68999936</ele>
        <time>2020-08-02T07:08:40.000Z</time>
      </trkpt>
      <trkpt lat="43.54716" lon="3.80235">
        <ele>57.88999936</ele>
        <time>2020-08-02T07:08:41.000Z</time>
      </trkpt>
      <trkpt lat="43.54714" lon="3.80233">
        <ele>58.04499968</ele>
        <time>2020-08-02T07:08:42.000Z</time>
      </trkpt>
      <trkpt lat="43.54713" lon="3.80231">
        <ele>58.14499968</ele>
        <time>2020-08-02T07:08:43.000Z</time>
      </trkpt>
      <trkpt lat="43.54711" lon="3.8023">
        <ele>58.24499968</ele>
        <time>2020-08-02T07:08:44.000Z</time>
      </trkpt>
      <trkpt lat="43.54709" lon="3.80228">
        <ele>58.34499968</ele>
        <time>2020-08-02T07:08:45.000Z</time>
      </trkpt>
      <trkpt lat="43.54708" lon="3.80227">
        <ele>58.44499968</ele>
        <time>2020-08-02T07:08:46.000Z</time>
      </trkpt>
      <trkpt lat="43.54706" lon="3.80225">
        <ele>58.54499968</ele>
        <time>2020-08-02T07:08:47.000Z</time>
      </trkpt>
      <trkpt lat="43.54704" lon="3.80223">
        <ele>58.64499968</ele>
        <time>2020-08-02T07:08:48.000Z</time>
      </trkpt>
      <trkpt lat="43.54703" lon="3.80221">
        <ele>58.74499968</ele>
        <time>2020-08-02T07:08:49.000Z</time>
      </trkpt>
      <trkpt lat="43.54701" lon="3.8022">
        <ele>58.84499968</ele>
        <time>2020-08-02T07:08:50.000Z</time>
      </trkpt>
      <trkpt lat="43.54699" lon="3.80218">
        <ele>58.94499968</ele>
        <time>2020-08-02T07:08:51.000Z</time>
      </trkpt>
      <trkpt lat="43.54698" lon="3.80216">
        <ele>59.04499968</ele>
        <time>2020-08-02T07:08:52.000Z</time>
      </trkpt>
      <trkpt lat="43.54696" lon="3.80215">
        <ele>59.14499968</ele>
        <time>2020-08-02T07:08:53.000Z</time>
      </trkpt>
      <trkpt lat="43.54695" lon="3.80213">
        <ele>59.24499968</ele>
        <time>2020-08-02T07:08:54.000Z</time>
      </trkpt>
      <trkpt lat="43.54693" lon="3.80211">
        <ele>59.34499968</ele>
        <time>2020-08-02T07:08:55.000Z</time>
      </trkpt>
      <trkpt lat="43.54692" lon="3.8021">
        <ele>59.44499968</ele>
        <time>2020-08-02T07:08:56.000Z</time>
      </trkpt>
      <trkpt lat="43.5469" lon="3.80209">
        <ele>59.54499968</ele>
        <time>2020-08-02T07:08:57.000Z</time>
      </trkpt>
      <trkpt lat="43.54688" lon="3.80208">
        <ele>59.64499968</ele>
        <time>2020-08-02T07:08:58.000Z</time>
      </trkpt>
      <trkpt lat="43.54686" lon="3.80207">
        <ele>59.74499968</ele>
        <time>2020-08-02T07:08:59.000Z</time>
      </trkpt>
      <trkpt lat="43.54684" lon="3.80206">
        <ele>59.84499968</ele>
        <time>2020-08-02T07:09:00.000Z</time>
      </trkpt>
      <trkpt lat="43.54682" lon="3.80206">
        <ele>59.94499968</ele>
        <time>2020-08-02T07:09:01.000Z</time>
      </trkpt>
      <trkpt lat="43.5468" lon="3.80205">
        <ele>60.04499968</ele>
        <time>2020-08-02T07:09:02.000Z</time>
      </trkpt>
      <trkpt lat="43.54677" lon="3.80205">
        <ele>60.14499968</ele>
        <time>2020-08-02T07:09:03.000Z</time>
      </trkpt>
      <trkpt lat="43.54675" lon="3.80204">
        <ele>60.24499968</ele>
        <time>2020-08-02T07:09:04.000Z</time>
      </trkpt>
      <trkpt lat="43.54673" lon="3.80203">
        <ele>60.34499968</ele>
        <time>2020-08-02T07:09:05.000Z</time>
      </trkpt>
      <trkpt lat="43.54671" lon="3.80203">
        <ele>60.44499968</ele>
        <time>2020-08-02T07:09:06.000Z</time>
      </trkpt>
      <trkpt lat="43.5467" lon="3.80202">
        <ele>60.54499968</ele>
        <time>2020-08-02T07:09:07.000Z</time>
      </trkpt>
      <trkpt lat="43.54668" lon="3.80201">
        <ele>60.64499968</ele>
        <time>2020-08-02T07:09:08.000Z</time>
      </trkpt>
      <trkpt lat="43.54664" lon="3.80201">
        <ele>60.84499968</ele>
        <time>2020-08-02T07:09:10.000Z</time>
      </trkpt>
      <trkpt lat="43.54662" lon="3.80202">
        <ele>60.94499968</ele>
        <time>2020-08-02T07:09:11.000Z</time>
      </trkpt>
      <trkpt lat="43.54661" lon="3.80203">
        <ele>61.04499968</ele>
        <time>2020-08-02T07:09:12.000Z</time>
      </trkpt>
      <trkpt lat="43.54659" lon="3.80204">
        <ele>61.14499968</ele>
        <time>2020-08-02T07:09:13.000Z</time>
      </trkpt>
      <trkpt lat="43.54657" lon="3.80207">
        <ele>61.24499968</ele>
        <time>2020-08-02T07:09:14.000Z</time>
      </trkpt>
      <trkpt lat="43.54655" lon="3.80209">
        <ele>61.34499968</ele>
        <time>2020-08-02T07:09:15.000Z</time>
      </trkpt>
      <trkpt lat="43.54652" lon="3.80211">
        <ele>61.44499968</ele>
        <time>2020-08-02T07:09:16.000Z</time>
      </trkpt>
      <trkpt lat="43.5465" lon="3.80213">
        <ele>61.54499968</ele>
        <time>2020-08-02T07:09:17.000Z</time>
      </trkpt>
      <trkpt lat="43.54648" lon="3.80216">
        <ele>61.64499968</ele>
        <time>2020-08-02T07:09:18.000Z</time>
      </trkpt>
      <trkpt lat="43.54645" lon="3.80218">
        <ele>61.74499968</ele>
        <time>2020-08-02T07:09:19.000Z</time>
      </trkpt>
      <trkpt lat="43.54643" lon="3.80221">
        <ele>61.84499968</ele>
        <time>2020-08-02T07:09:20.000Z</time>
      </trkpt>
      <trkpt lat="43.5464" lon="3.80223">
        <ele>61.94499968</ele>
        <time>2020-08-02T07:09:21.000Z</time>
      </trkpt>
      <trkpt lat="43.54638" lon="3.80225">
        <ele>62.044820398406</ele>
        <time>2020-08-02T07:09:22.000Z</time>
      </trkpt>
      <trkpt lat="43.54636" lon="3.80228">
        <ele>62.144421992032</ele>
        <time>2020-08-02T07:09:23.000Z</time>
      </trkpt>
      <trkpt lat="43.54633" lon="3.8023">
        <ele>62.244023585657</ele>
        <time>2020-08-02T07:09:24.000Z</time>
      </trkpt>
      <trkpt lat="43.54631" lon="3.80233">
        <ele>62.343625179283</ele>
        <time>2020-08-02T07:09:25.000Z</time>
      </trkpt>
      <trkpt lat="43.54629" lon="3.80235">
        <ele>62.443226772908</ele>
        <time>2020-08-02T07:09:26.000Z</time>
      </trkpt>
      <trkpt lat="43.54626" lon="3.80237">
        <ele>62.542828366534</ele>
        <time>2020-08-02T07:09:27.000Z</time>
      </trkpt>
      <trkpt lat="43.54624" lon="3.80239">
        <ele>62.642429960159</ele>
        <time>2020-08-02T07:09:28.000Z</time>
      </trkpt>
      <trkpt lat="43.54621" lon="3.80241">
        <ele>62.742031553785</ele>
        <time>2020-08-02T07:09:29.000Z</time>
      </trkpt>
      <trkpt lat="43.54619" lon="3.80243">
        <ele>62.84163314741</ele>
        <time>2020-08-02T07:09:30.000Z</time>
      </trkpt>
      <trkpt lat="43.54616" lon="3.80245">
        <ele>62.941234741036</ele>
        <time>2020-08-02T07:09:31.000Z</time>
      </trkpt>
      <trkpt lat="43.54613" lon="3.80247">
        <ele>63.041164337349</ele>
        <time>2020-08-02T07:09:32.000Z</time>
      </trkpt>
      <trkpt lat="43.54611" lon="3.80249">
        <ele>63.141565943775</ele>
        <time>2020-08-02T07:09:33.000Z</time>
      </trkpt>
      <trkpt lat="43.54608" lon="3.80251">
        <ele>63.241967550201</ele>
        <time>2020-08-02T07:09:34.000Z</time>
      </trkpt>
      <trkpt lat="43.54606" lon="3.80253">
        <ele>63.342369156627</ele>
        <time>2020-08-02T07:09:35.000Z</time>
      </trkpt>
      <trkpt lat="43.54603" lon="3.80255">
        <ele>63.442770763052</ele>
        <time>2020-08-02T07:09:36.000Z</time>
      </trkpt>
      <trkpt lat="43.54601" lon="3.80257">
        <ele>63.543172369478</ele>
        <time>2020-08-02T07:09:37.000Z</time>
      </trkpt>
      <trkpt lat="43.54598" lon="3.80259">
        <ele>63.643573975904</ele>
        <time>2020-08-02T07:09:38.000Z</time>
      </trkpt>
      <trkpt lat="43.54595" lon="3.80261">
        <ele>63.743975582329</ele>
        <time>2020-08-02T07:09:39.000Z</time>
      </trkpt>
      <trkpt lat="43.54592" lon="3.80263">
        <ele>63.844377188755</ele>
        <time>2020-08-02T07:09:40.000Z</time>
      </trkpt>
      <trkpt lat="43.54589" lon="3.80265">
        <ele>63.944778795181</ele>
        <time>2020-08-02T07:09:41.000Z</time>
      </trkpt>
      <trkpt lat="43.54586" lon="3.80267">
        <ele>64</ele>
        <time>2020-08-02T07:09:42.000Z</time>
      </trkpt>
      <trkpt lat="43.54583" lon="3.80269">
        <ele>64</ele>
        <time>2020-08-02T07:09:43.000Z</time>
      </trkpt>
      <trkpt lat="43.5458" lon="3.80272">
        <ele>64</ele>
        <time>2020-08-02T07:09:44.000Z</time>
      </trkpt>
      <trkpt lat="43.54576" lon="3.80274">
        <ele>64</ele>
        <time>2020-08-02T07:09:45.000Z</time>
      </trkpt>
      <trkpt lat="43.54573" lon="3.80276">
        <ele>64</ele>
        <time>2020-08-02T07:09:46.000Z</time>
      </trkpt>
      <trkpt lat="43.54569" lon="3.80277">
        <ele>64</ele>
        <time>2020-08-02T07:09:47.000Z</time>
      </trkpt>
      <trkpt lat="43.54566" lon="3.80279">
        <ele>64</ele>
        <time>2020-08-02T07:09:48.000Z</time>
      </trkpt>
      <trkpt lat="43.54562" lon="3.8028">
        <ele>64</ele>
        <time>2020-08-02T07:09:49.000Z</time>
      </trkpt>
      <trkpt lat="43.54559" lon="3.80281">
        <ele>64</ele>
        <time>2020-08-02T07:09:50.000Z</time>
      </trkpt>
      <trkpt lat="43.54556" lon="3.80283">
        <ele>64</ele>
        <time>2020-08-02T07:09:51.000Z</time>
      </trkpt>
      <trkpt lat="43.54552" lon="3.80285">
        <ele>63.956353325023</ele>
        <time>2020-08-02T07:09:52.000Z</time>
      </trkpt>
      <trkpt lat="43.54549" lon="3.80287">
        <ele>63.859360024234</ele>
        <time>2020-08-02T07:09:53.000Z</time>
      </trkpt>
      <trkpt lat="43.54546" lon="3.80289">
        <ele>63.762366723445</ele>
        <time>2020-08-02T07:09:54.000Z</time>
      </trkpt>
      <trkpt lat="43.54542" lon="3.80291">
        <ele>63.665373422656</ele>
        <time>2020-08-02T07:09:55.000Z</time>
      </trkpt>
      <trkpt lat="43.54539" lon="3.80294">
        <ele>63.568380121867</ele>
        <time>2020-08-02T07:09:56.000Z</time>
      </trkpt>
      <trkpt lat="43.54535" lon="3.80297">
        <ele>63.471386821078</ele>
        <time>2020-08-02T07:09:57.000Z</time>
      </trkpt>
      <trkpt lat="43.54532" lon="3.803">
        <ele>63.374393520289</ele>
        <time>2020-08-02T07:09:58.000Z</time>
      </trkpt>
      <trkpt lat="43.54528" lon="3.80303">
        <ele>63.2774002195</ele>
        <time>2020-08-02T07:09:59.000Z</time>
      </trkpt>
      <trkpt lat="43.54525" lon="3.80306">
        <ele>63.180406918711</ele>
        <time>2020-08-02T07:10:00.000Z</time>
      </trkpt>
      <trkpt lat="43.54521" lon="3.8031">
        <ele>63.083413617922</ele>
        <time>2020-08-02T07:10:01.000Z</time>
      </trkpt>
      <trkpt lat="43.54517" lon="3.80312">
        <ele>62.98599936</ele>
        <time>2020-08-02T07:10:02.000Z</time>
      </trkpt>
      <trkpt lat="43.54512" lon="3.80315">
        <ele>62.88599936</ele>
        <time>2020-08-02T07:10:03.000Z</time>
      </trkpt>
      <trkpt lat="43.54508" lon="3.80317">
        <ele>62.78599936</ele>
        <time>2020-08-02T07:10:04.000Z</time>
      </trkpt>
      <trkpt lat="43.54503" lon="3.80318">
        <ele>62.68599936</ele>
        <time>2020-08-02T07:10:05.000Z</time>
      </trkpt>
      <trkpt lat="43.54499" lon="3.80319">
        <ele>62.58599936</ele>
        <time>2020-08-02T07:10:06.000Z</time>
      </trkpt>
      <trkpt lat="43.54494" lon="3.8032">
        <ele>62.48599936</ele>
        <time>2020-08-02T07:10:07.000Z</time>
      </trkpt>
      <trkpt lat="43.54489" lon="3.8032">
        <ele>62.38599936</ele>
        <time>2020-08-02T07:10:08.000Z</time>
      </trkpt>
      <trkpt lat="43.54484" lon="3.8032">
        <ele>62.28599936</ele>
        <time>2020-08-02T07:10:09.000Z</time>
      </trkpt>
      <trkpt lat="43.54479" lon="3.80319">
        <ele>62.18599936</ele>
        <time>2020-08-02T07:10:10.000Z</time>
      </trkpt>
      <trkpt lat="43.54474" lon="3.80318">
        <ele>62.08599936</ele>
        <time>2020-08-02T07:10:11.000Z</time>
      </trkpt>
      <trkpt lat="43.54469" lon="3.80317">
        <ele>61.985551469423</ele>
        <time>2020-08-02T07:10:12.000Z</time>
      </trkpt>
      <trkpt lat="43.54465" lon="3.80315">
        <ele>61.882352397257</ele>
        <time>2020-08-02T07:10:13.000Z</time>
      </trkpt>
      <trkpt lat="43.54461" lon="3.80313">
        <ele>61.779153325091</ele>
        <time>2020-08-02T07:10:14.000Z</time>
      </trkpt>
      <trkpt lat="43.54458" lon="3.80312">
        <ele>61.675954252925</ele>
        <time>2020-08-02T07:10:15.000Z</time>
      </trkpt>
      <trkpt lat="43.54456" lon="3.80311">
        <ele>61.572755180758</ele>
        <time>2020-08-02T07:10:16.000Z</time>
      </trkpt>
      <trkpt lat="43.54454" lon="3.8031">
        <ele>61.469556108592</ele>
        <time>2020-08-02T07:10:17.000Z</time>
      </trkpt>
      <trkpt lat="43.54451" lon="3.80309">
        <ele>61.26315796426</ele>
        <time>2020-08-02T07:10:19.000Z</time>
      </trkpt>
      <trkpt lat="43.54449" lon="3.80306">
        <ele>60.859360024234</ele>
        <time>2020-08-02T07:10:23.000Z</time>
      </trkpt>
      <trkpt lat="43.54451" lon="3.80303">
        <ele>60.665373422656</ele>
        <time>2020-08-02T07:10:25.000Z</time>
      </trkpt>
      <trkpt lat="43.54453" lon="3.80303">
        <ele>60.568380121867</ele>
        <time>2020-08-02T07:10:26.000Z</time>
      </trkpt>
      <trkpt lat="43.54455" lon="3.80305">
        <ele>60.471386821078</ele>
        <time>2020-08-02T07:10:27.000Z</time>
      </trkpt>
      <trkpt lat="43.54457" lon="3.80308">
        <ele>60.374393520289</ele>
        <time>2020-08-02T07:10:28.000Z</time>
      </trkpt>
      <trkpt lat="43.54459" lon="3.80313">
        <ele>60.2774002195</ele>
        <time>2020-08-02T07:10:29.000Z</time>
      </trkpt>
      <trkpt lat="43.54461" lon="3.80319">
        <ele>60.180406918711</ele>
        <time>2020-08-02T07:10:30.000Z</time>
      </trkpt>
      <trkpt lat="43.54464" lon="3.80325">
        <ele>60.083413617922</ele>
        <time>2020-08-02T07:10:31.000Z</time>
      </trkpt>
      <trkpt lat="43.54467" lon="3.8033">
        <ele>59.985551469423</ele>
        <time>2020-08-02T07:10:32.000Z</time>
      </trkpt>
      <trkpt lat="43.5447" lon="3.80336">
        <ele>59.882352397257</ele>
        <time>2020-08-02T07:10:33.000Z</time>
      </trkpt>
      <trkpt lat="43.54474" lon="3.8034">
        <ele>59.779153325091</ele>
        <time>2020-08-02T07:10:34.000Z</time>
      </trkpt>
      <trkpt lat="43.54479" lon="3.80344">
        <ele>59.675954252925</ele>
        <time>2020-08-02T07:10:35.000Z</time>
      </trkpt>
      <trkpt lat="43.54484" lon="3.80347">
        <ele>59.572755180758</ele>
        <time>2020-08-02T07:10:36.000Z</time>
      </trkpt>
      <trkpt lat="43.54489" lon="3.8035">
        <ele>59.469556108592</ele>
        <time>2020-08-02T07:10:37.000Z</time>
      </trkpt>
      <trkpt lat="43.54492" lon="3.80353">
        <ele>59.366357036426</ele>
        <time>2020-08-02T07:10:38.000Z</time>
      </trkpt>
      <trkpt lat="43.54496" lon="3.80356">
        <ele>59.26315796426</ele>
        <time>2020-08-02T07:10:39.000Z</time>
      </trkpt>
      <trkpt lat="43.545" lon="3.8036">
        <ele>59.159958892094</ele>
        <time>2020-08-02T07:10:40.000Z</time>
      </trkpt>
      <trkpt lat="43.54503" lon="3.80363">
        <ele>59.056759819928</ele>
        <time>2020-08-02T07:10:41.000Z</time>
      </trkpt>
      <trkpt lat="43.54506" lon="3.80367">
        <ele>58.91000064</ele>
        <time>2020-08-02T07:10:42.000Z</time>
      </trkpt>
      <trkpt lat="43.54509" lon="3.80371">
        <ele>58.71000064</ele>
        <time>2020-08-02T07:10:43.000Z</time>
      </trkpt>
      <trkpt lat="43.54511" lon="3.80375">
        <ele>58.51000064</ele>
        <time>2020-08-02T07:10:44.000Z</time>
      </trkpt>
      <trkpt lat="43.54514" lon="3.80378">
        <ele>58.31000064</ele>
        <time>2020-08-02T07:10:45.000Z</time>
      </trkpt>
      <trkpt lat="43.54517" lon="3.80382">
        <ele>58.11000064</ele>
        <time>2020-08-02T07:10:46.000Z</time>
      </trkpt>
      <trkpt lat="43.54519" lon="3.80386">
        <ele>57.91000064</ele>
        <time>2020-08-02T07:10:47.000Z</time>
      </trkpt>
      <trkpt lat="43.54521" lon="3.80389">
        <ele>57.71000064</ele>
        <time>2020-08-02T07:10:48.000Z</time>
      </trkpt>
      <trkpt lat="43.54523" lon="3.80392">
        <ele>57.51000064</ele>
        <time>2020-08-02T07:10:49.000Z</time>
      </trkpt>
      <trkpt lat="43.54525" lon="3.80394">
        <ele>57.31000064</ele>
        <time>2020-08-02T07:10:50.000Z</time>
      </trkpt>
      <trkpt lat="43.54527" lon="3.80397">
        <ele>57.11000064</ele>
        <time>2020-08-02T07:10:51.000Z</time>
      </trkpt>
      <trkpt lat="43.54529" lon="3.80399">
        <ele>56.868165</ele>
        <time>2020-08-02T07:10:52.000Z</time>
      </trkpt>
      <trkpt lat="43.54529" lon="3.80402">
        <ele>56.57519625</ele>
        <time>2020-08-02T07:10:53.000Z</time>
      </trkpt>
      <trkpt lat="43.5453" lon="3.80405">
        <ele>56.2822275</ele>
        <time>2020-08-02T07:10:54.000Z</time>
      </trkpt>
      <trkpt lat="43.54529" lon="3.80408">
        <ele>55.98925875</ele>
        <time>2020-08-02T07:10:55.000Z</time>
      </trkpt>
      <trkpt lat="43.54528" lon="3.8041">
        <ele>55.69629</ele>
        <time>2020-08-02T07:10:56.000Z</time>
      </trkpt>
      <trkpt lat="43.54527" lon="3.80411">
        <ele>55.40332125</ele>
        <time>2020-08-02T07:10:57.000Z</time>
      </trkpt>
      <trkpt lat="43.54524" lon="3.80412">
        <ele>55.1103525</ele>
        <time>2020-08-02T07:10:58.000Z</time>
      </trkpt>
      <trkpt lat="43.54521" lon="3.80413">
        <ele>54.81738375</ele>
        <time>2020-08-02T07:10:59.000Z</time>
      </trkpt>
      <trkpt lat="43.54518" lon="3.80412">
        <ele>54.524415</ele>
        <time>2020-08-02T07:11:00.000Z</time>
      </trkpt>
      <trkpt lat="43.54515" lon="3.80412">
        <ele>54.23144625</ele>
        <time>2020-08-02T07:11:01.000Z</time>
      </trkpt>
      <trkpt lat="43.54511" lon="3.80411">
        <ele>53.956967868853</ele>
        <time>2020-08-02T07:11:02.000Z</time>
      </trkpt>
      <trkpt lat="43.54507" lon="3.8041">
        <ele>53.752049836066</ele>
        <time>2020-08-02T07:11:03.000Z</time>
      </trkpt>
      <trkpt lat="43.54504" lon="3.8041">
        <ele>53.547131803279</ele>
        <time>2020-08-02T07:11:04.000Z</time>
      </trkpt>
      <trkpt lat="43.545" lon="3.80409">
        <ele>53.342213770492</ele>
        <time>2020-08-02T07:11:05.000Z</time>
      </trkpt>
      <trkpt lat="43.54496" lon="3.80409">
        <ele>53.137295737705</ele>
        <time>2020-08-02T07:11:06.000Z</time>
      </trkpt>
      <trkpt lat="43.54492" lon="3.80408">
        <ele>52.932377704918</ele>
        <time>2020-08-02T07:11:07.000Z</time>
      </trkpt>
      <trkpt lat="43.54488" lon="3.80406">
        <ele>52.727459672131</ele>
        <time>2020-08-02T07:11:08.000Z</time>
      </trkpt>
      <trkpt lat="43.54485" lon="3.80405">
        <ele>52.522541639344</ele>
        <time>2020-08-02T07:11:09.000Z</time>
      </trkpt>
      <trkpt lat="43.54482" lon="3.80404">
        <ele>52.317623606557</ele>
        <time>2020-08-02T07:11:10.000Z</time>
      </trkpt>
      <trkpt lat="43.54478" lon="3.80403">
        <ele>52.11270557377</ele>
        <time>2020-08-02T07:11:11.000Z</time>
      </trkpt>
      <trkpt lat="43.54475" lon="3.80401">
        <ele>52</ele>
        <time>2020-08-02T07:11:12.000Z</time>
      </trkpt>
      <trkpt lat="43.54472" lon="3.80399">
        <ele>52</ele>
        <time>2020-08-02T07:11:13.000Z</time>
      </trkpt>
      <trkpt lat="43.54468" lon="3.80395">
        <ele>52</ele>
        <time>2020-08-02T07:11:14.000Z</time>
      </trkpt>
      <trkpt lat="43.54466" lon="3.80392">
        <ele>52</ele>
        <time>2020-08-02T07:11:15.000Z</time>
      </trkpt>
      <trkpt lat="43.54462" lon="3.80389">
        <ele>52</ele>
        <time>2020-08-02T07:11:16.000Z</time>
      </trkpt>
      <trkpt lat="43.54459" lon="3.80386">
        <ele>52</ele>
        <time>2020-08-02T07:11:17.000Z</time>
      </trkpt>
      <trkpt lat="43.54456" lon="3.80384">
        <ele>52</ele>
        <time>2020-08-02T07:11:18.000Z</time>
      </trkpt>
      <trkpt lat="43.54453" lon="3.80382">
        <ele>52</ele>
        <time>2020-08-02T07:11:19.000Z</time>
      </trkpt>
      <trkpt lat="43.5445" lon="3.8038">
        <ele>52</ele>
        <time>2020-08-02T07:11:20.000Z</time>
      </trkpt>
      <trkpt lat="43.54447" lon="3.80379">
        <ele>52</ele>
        <time>2020-08-02T07:11:21.000Z</time>
      </trkpt>
      <trkpt lat="43.54444" lon="3.80378">
        <ele>52</ele>
        <time>2020-08-02T07:11:22.000Z</time>
      </trkpt>
      <trkpt lat="43.54441" lon="3.80378">
        <ele>52</ele>
        <time>2020-08-02T07:11:23.000Z</time>
      </trkpt>
      <trkpt lat="43.54438" lon="3.80377">
        <ele>52</ele>
        <time>2020-08-02T07:11:24.000Z</time>
      </trkpt>
      <trkpt lat="43.54435" lon="3.80378">
        <ele>52</ele>
        <time>2020-08-02T07:11:25.000Z</time>
      </trkpt>
      <trkpt lat="43.54432" lon="3.80378">
        <ele>52</ele>
        <time>2020-08-02T07:11:26.000Z</time>
      </trkpt>
      <trkpt lat="43.54429" lon="3.80378">
        <ele>52</ele>
        <time>2020-08-02T07:11:27.000Z</time>
      </trkpt>
      <trkpt lat="43.54426" lon="3.80377">
        <ele>52</ele>
        <time>2020-08-02T07:11:28.000Z</time>
      </trkpt>
      <trkpt lat="43.54423" lon="3.80376">
        <ele>52</ele>
        <time>2020-08-02T07:11:29.000Z</time>
      </trkpt>
      <trkpt lat="43.54421" lon="3.80375">
        <ele>52</ele>
        <time>2020-08-02T07:11:30.000Z</time>
      </trkpt>
      <trkpt lat="43.54418" lon="3.80373">
        <ele>52</ele>
        <time>2020-08-02T07:11:31.000Z</time>
      </trkpt>
      <trkpt lat="43.54416" lon="3.80372">
        <ele>52.032955704896</ele>
        <time>2020-08-02T07:11:32.000Z</time>
      </trkpt>
      <trkpt lat="43.54413" lon="3.80369">
        <ele>52.238928860497</ele>
        <time>2020-08-02T07:11:33.000Z</time>
      </trkpt>
      <trkpt lat="43.54411" lon="3.80367">
        <ele>52.444902016098</ele>
        <time>2020-08-02T07:11:34.000Z</time>
      </trkpt>
      <trkpt lat="43.54408" lon="3.80365">
        <ele>52.650875171699</ele>
        <time>2020-08-02T07:11:35.000Z</time>
      </trkpt>
      <trkpt lat="43.54406" lon="3.80364">
        <ele>52.8568483273</ele>
        <time>2020-08-02T07:11:36.000Z</time>
      </trkpt>
      <trkpt lat="43.54403" lon="3.80363">
        <ele>53.062821482901</ele>
        <time>2020-08-02T07:11:37.000Z</time>
      </trkpt>
      <trkpt lat="43.544" lon="3.80361">
        <ele>53.268794638502</ele>
        <time>2020-08-02T07:11:38.000Z</time>
      </trkpt>
      <trkpt lat="43.54397" lon="3.80359">
        <ele>53.474767794103</ele>
        <time>2020-08-02T07:11:39.000Z</time>
      </trkpt>
      <trkpt lat="43.54394" lon="3.80358">
        <ele>53.680740949704</ele>
        <time>2020-08-02T07:11:40.000Z</time>
      </trkpt>
      <trkpt lat="43.5439" lon="3.80357">
        <ele>53.886714105305</ele>
        <time>2020-08-02T07:11:41.000Z</time>
      </trkpt>
      <trkpt lat="43.54387" lon="3.80356">
        <ele>54.044820398406</ele>
        <time>2020-08-02T07:11:42.000Z</time>
      </trkpt>
      <trkpt lat="43.54383" lon="3.80356">
        <ele>54.144421992032</ele>
        <time>2020-08-02T07:11:43.000Z</time>
      </trkpt>
      <trkpt lat="43.5438" lon="3.80355">
        <ele>54.244023585657</ele>
        <time>2020-08-02T07:11:44.000Z</time>
      </trkpt>
      <trkpt lat="43.54377" lon="3.80356">
        <ele>54.343625179283</ele>
        <time>2020-08-02T07:11:45.000Z</time>
      </trkpt>
      <trkpt lat="43.54373" lon="3.80357">
        <ele>54.443226772908</ele>
        <time>2020-08-02T07:11:46.000Z</time>
      </trkpt>
      <trkpt lat="43.5437" lon="3.80358">
        <ele>54.542828366534</ele>
        <time>2020-08-02T07:11:47.000Z</time>
      </trkpt>
      <trkpt lat="43.54367" lon="3.80359">
        <ele>54.642429960159</ele>
        <time>2020-08-02T07:11:48.000Z</time>
      </trkpt>
      <trkpt lat="43.54363" lon="3.80361">
        <ele>54.742031553785</ele>
        <time>2020-08-02T07:11:49.000Z</time>
      </trkpt>
      <trkpt lat="43.5436" lon="3.80362">
        <ele>54.84163314741</ele>
        <time>2020-08-02T07:11:50.000Z</time>
      </trkpt>
      <trkpt lat="43.54357" lon="3.80363">
        <ele>54.941234741036</ele>
        <time>2020-08-02T07:11:51.000Z</time>
      </trkpt>
      <trkpt lat="43.54354" lon="3.80365">
        <ele>55.040593768297</ele>
        <time>2020-08-02T07:11:52.000Z</time>
      </trkpt>
      <trkpt lat="43.54351" lon="3.80366">
        <ele>55.139603732026</ele>
        <time>2020-08-02T07:11:53.000Z</time>
      </trkpt>
      <trkpt lat="43.54348" lon="3.80368">
        <ele>55.238613695755</ele>
        <time>2020-08-02T07:11:54.000Z</time>
      </trkpt>
      <trkpt lat="43.54345" lon="3.80369">
        <ele>55.337623659484</ele>
        <time>2020-08-02T07:11:55.000Z</time>
      </trkpt>
      <trkpt lat="43.54342" lon="3.80371">
        <ele>55.436633623213</ele>
        <time>2020-08-02T07:11:56.000Z</time>
      </trkpt>
      <trkpt lat="43.54339" lon="3.80372">
        <ele>55.535643586942</ele>
        <time>2020-08-02T07:11:57.000Z</time>
      </trkpt>
      <trkpt lat="43.54336" lon="3.80373">
        <ele>55.634653550672</ele>
        <time>2020-08-02T07:11:58.000Z</time>
      </trkpt>
      <trkpt lat="43.54333" lon="3.80374">
        <ele>55.733663514401</ele>
        <time>2020-08-02T07:11:59.000Z</time>
      </trkpt>
      <trkpt lat="43.5433" lon="3.80374">
        <ele>55.83267347813</ele>
        <time>2020-08-02T07:12:00.000Z</time>
      </trkpt>
      <trkpt lat="43.54327" lon="3.80374">
        <ele>55.931683441859</ele>
        <time>2020-08-02T07:12:01.000Z</time>
      </trkpt>
      <trkpt lat="43.54324" lon="3.80373">
        <ele>56</ele>
        <time>2020-08-02T07:12:02.000Z</time>
      </trkpt>
      <trkpt lat="43.5432" lon="3.80372">
        <ele>56</ele>
        <time>2020-08-02T07:12:03.000Z</time>
      </trkpt>
      <trkpt lat="43.54317" lon="3.80371">
        <ele>56</ele>
        <time>2020-08-02T07:12:04.000Z</time>
      </trkpt>
      <trkpt lat="43.54314" lon="3.8037">
        <ele>56</ele>
        <time>2020-08-02T07:12:05.000Z</time>
      </trkpt>
      <trkpt lat="43.54311" lon="3.80368">
        <ele>56</ele>
        <time>2020-08-02T07:12:06.000Z</time>
      </trkpt>
      <trkpt lat="43.54308" lon="3.80366">
        <ele>56</ele>
        <time>2020-08-02T07:12:07.000Z</time>
      </trkpt>
      <trkpt lat="43.54305" lon="3.80364">
        <ele>56</ele>
        <time>2020-08-02T07:12:08.000Z</time>
      </trkpt>
      <trkpt lat="43.54302" lon="3.80363">
        <ele>56</ele>
        <time>2020-08-02T07:12:09.000Z</time>
      </trkpt>
      <trkpt lat="43.54299" lon="3.80361">
        <ele>56</ele>
        <time>2020-08-02T07:12:10.000Z</time>
      </trkpt>
      <trkpt lat="43.54295" lon="3.8036">
        <ele>56</ele>
        <time>2020-08-02T07:12:11.000Z</time>
      </trkpt>
      <trkpt lat="43.54292" lon="3.80358">
        <ele>56.04499968</ele>
        <time>2020-08-02T07:12:12.000Z</time>
      </trkpt>
      <trkpt lat="43.54289" lon="3.80357">
        <ele>56.14499968</ele>
        <time>2020-08-02T07:12:13.000Z</time>
      </trkpt>
      <trkpt lat="43.54286" lon="3.80356">
        <ele>56.24499968</ele>
        <time>2020-08-02T07:12:14.000Z</time>
      </trkpt>
      <trkpt lat="43.54283" lon="3.80356">
        <ele>56.34499968</ele>
        <time>2020-08-02T07:12:15.000Z</time>
      </trkpt>
      <trkpt lat="43.5428" lon="3.80356">
        <ele>56.44499968</ele>
        <time>2020-08-02T07:12:16.000Z</time>
      </trkpt>
      <trkpt lat="43.54277" lon="3.80356">
        <ele>56.54499968</ele>
        <time>2020-08-02T07:12:17.000Z</time>
      </trkpt>
      <trkpt lat="43.54274" lon="3.80357">
        <ele>56.64499968</ele>
        <time>2020-08-02T07:12:18.000Z</time>
      </trkpt>
      <trkpt lat="43.54271" lon="3.80357">
        <ele>56.74499968</ele>
        <time>2020-08-02T07:12:19.000Z</time>
      </trkpt>
      <trkpt lat="43.54268" lon="3.80359">
        <ele>56.84499968</ele>
        <time>2020-08-02T07:12:20.000Z</time>
      </trkpt>
      <trkpt lat="43.54265" lon="3.80359">
        <ele>56.94499968</ele>
        <time>2020-08-02T07:12:21.000Z</time>
      </trkpt>
      <trkpt lat="43.54263" lon="3.80361">
        <ele>57.08999936</ele>
        <time>2020-08-02T07:12:22.000Z</time>
      </trkpt>
      <trkpt lat="43.5426" lon="3.80362">
        <ele>57.28999936</ele>
        <time>2020-08-02T07:12:23.000Z</time>
      </trkpt>
      <trkpt lat="43.54258" lon="3.80363">
        <ele>57.48999936</ele>
        <time>2020-08-02T07:12:24.000Z</time>
      </trkpt>
      <trkpt lat="43.54256" lon="3.80364">
        <ele>57.68999936</ele>
        <time>2020-08-02T07:12:25.000Z</time>
      </trkpt>
      <trkpt lat="43.54254" lon="3.80365">
        <ele>57.88999936</ele>
        <time>2020-08-02T07:12:26.000Z</time>
      </trkpt>
      <trkpt lat="43.54251" lon="3.80368">
        <ele>58.08999936</ele>
        <time>2020-08-02T07:12:27.000Z</time>
      </trkpt>
      <trkpt lat="43.5425" lon="3.80369">
        <ele>58.28999936</ele>
        <time>2020-08-02T07:12:28.000Z</time>
      </trkpt>
      <trkpt lat="43.54248" lon="3.80372">
        <ele>58.48999936</ele>
        <time>2020-08-02T07:12:29.000Z</time>
      </trkpt>
      <trkpt lat="43.54246" lon="3.80374">
        <ele>58.68999936</ele>
        <time>2020-08-02T07:12:30.000Z</time>
      </trkpt>
      <trkpt lat="43.54245" lon="3.80376">
        <ele>58.88999936</ele>
        <time>2020-08-02T07:12:31.000Z</time>
      </trkpt>
      <trkpt lat="43.54243" lon="3.80378">
        <ele>59.044291023622</ele>
        <time>2020-08-02T07:12:32.000Z</time>
      </trkpt>
      <trkpt lat="43.54242" lon="3.8038">
        <ele>59.142716220472</ele>
        <time>2020-08-02T07:12:33.000Z</time>
      </trkpt>
      <trkpt lat="43.5424" lon="3.80382">
        <ele>59.241141417323</ele>
        <time>2020-08-02T07:12:34.000Z</time>
      </trkpt>
      <trkpt lat="43.54239" lon="3.80384">
        <ele>59.339566614173</ele>
        <time>2020-08-02T07:12:35.000Z</time>
      </trkpt>
      <trkpt lat="43.54237" lon="3.80386">
        <ele>59.437991811024</ele>
        <time>2020-08-02T07:12:36.000Z</time>
      </trkpt>
      <trkpt lat="43.54235" lon="3.80389">
        <ele>59.536417007874</ele>
        <time>2020-08-02T07:12:37.000Z</time>
      </trkpt>
      <trkpt lat="43.54233" lon="3.80391">
        <ele>59.634842204724</ele>
        <time>2020-08-02T07:12:38.000Z</time>
      </trkpt>
      <trkpt lat="43.54232" lon="3.80393">
        <ele>59.733267401575</ele>
        <time>2020-08-02T07:12:39.000Z</time>
      </trkpt>
      <trkpt lat="43.54231" lon="3.80396">
        <ele>59.831692598425</ele>
        <time>2020-08-02T07:12:40.000Z</time>
      </trkpt>
      <trkpt lat="43.54229" lon="3.80399">
        <ele>59.930117795276</ele>
        <time>2020-08-02T07:12:41.000Z</time>
      </trkpt>
      <trkpt lat="43.54228" lon="3.80402">
        <ele>60.029471219512</ele>
        <time>2020-08-02T07:12:42.000Z</time>
      </trkpt>
      <trkpt lat="43.54227" lon="3.80406">
        <ele>60.131097235772</ele>
        <time>2020-08-02T07:12:43.000Z</time>
      </trkpt>
      <trkpt lat="43.54225" lon="3.80409">
        <ele>60.232723252032</ele>
        <time>2020-08-02T07:12:44.000Z</time>
      </trkpt>
      <trkpt lat="43.54223" lon="3.80412">
        <ele>60.334349268293</ele>
        <time>2020-08-02T07:12:45.000Z</time>
      </trkpt>
      <trkpt lat="43.54221" lon="3.80415">
        <ele>60.435975284553</ele>
        <time>2020-08-02T07:12:46.000Z</time>
      </trkpt>
      <trkpt lat="43.54219" lon="3.80418">
        <ele>60.537601300813</ele>
        <time>2020-08-02T07:12:47.000Z</time>
      </trkpt>
      <trkpt lat="43.54217" lon="3.80421">
        <ele>60.639227317073</ele>
        <time>2020-08-02T07:12:48.000Z</time>
      </trkpt>
      <trkpt lat="43.54215" lon="3.80423">
        <ele>60.740853333333</ele>
        <time>2020-08-02T07:12:49.000Z</time>
      </trkpt>
      <trkpt lat="43.54213" lon="3.80426">
        <ele>60.842479349594</ele>
        <time>2020-08-02T07:12:50.000Z</time>
      </trkpt>
      <trkpt lat="43.54211" lon="3.80429">
        <ele>60.944105365854</ele>
        <time>2020-08-02T07:12:51.000Z</time>
      </trkpt>
      <trkpt lat="43.5421" lon="3.80432">
        <ele>61</ele>
        <time>2020-08-02T07:12:52.000Z</time>
      </trkpt>
      <trkpt lat="43.54208" lon="3.80435">
        <ele>61</ele>
        <time>2020-08-02T07:12:53.000Z</time>
      </trkpt>
      <trkpt lat="43.54205" lon="3.80438">
        <ele>61</ele>
        <time>2020-08-02T07:12:54.000Z</time>
      </trkpt>
      <trkpt lat="43.54203" lon="3.80442">
        <ele>61</ele>
        <time>2020-08-02T07:12:55.000Z</time>
      </trkpt>
      <trkpt lat="43.54201" lon="3.80445">
        <ele>61</ele>
        <time>2020-08-02T07:12:56.000Z</time>
      </trkpt>
      <trkpt lat="43.54199" lon="3.80448">
        <ele>61</ele>
        <time>2020-08-02T07:12:57.000Z</time>
      </trkpt>
      <trkpt lat="43.54197" lon="3.80452">
        <ele>61</ele>
        <time>2020-08-02T07:12:58.000Z</time>
      </trkpt>
      <trkpt lat="43.54194" lon="3.80455">
        <ele>61</ele>
        <time>2020-08-02T07:12:59.000Z</time>
      </trkpt>
      <trkpt lat="43.54192" lon="3.80458">
        <ele>61</ele>
        <time>2020-08-02T07:13:00.000Z</time>
      </trkpt>
      <trkpt lat="43.5419" lon="3.80461">
        <ele>61</ele>
        <time>2020-08-02T07:13:01.000Z</time>
      </trkpt>
      <trkpt lat="43.54188" lon="3.80463">
        <ele>61.04499968</ele>
        <time>2020-08-02T07:13:02.000Z</time>
      </trkpt>
      <trkpt lat="43.54186" lon="3.80466">
        <ele>61.14499968</ele>
        <time>2020-08-02T07:13:03.000Z</time>
      </trkpt>
      <trkpt lat="43.54184" lon="3.80469">
        <ele>61.24499968</ele>
        <time>2020-08-02T07:13:04.000Z</time>
      </trkpt>
      <trkpt lat="43.54182" lon="3.80472">
        <ele>61.34499968</ele>
        <time>2020-08-02T07:13:05.000Z</time>
      </trkpt>
      <trkpt lat="43.5418" lon="3.80475">
        <ele>61.44499968</ele>
        <time>2020-08-02T07:13:06.000Z</time>
      </trkpt>
      <trkpt lat="43.54178" lon="3.80478">
        <ele>61.54499968</ele>
        <time>2020-08-02T07:13:07.000Z</time>
      </trkpt>
      <trkpt lat="43.54176" lon="3.80481">
        <ele>61.64499968</ele>
        <time>2020-08-02T07:13:08.000Z</time>
      </trkpt>
      <trkpt lat="43.54174" lon="3.80484">
        <ele>61.74499968</ele>
        <time>2020-08-02T07:13:09.000Z</time>
      </trkpt>
      <trkpt lat="43.54172" lon="3.80487">
        <ele>61.84499968</ele>
        <time>2020-08-02T07:13:10.000Z</time>
      </trkpt>
      <trkpt lat="43.54171" lon="3.8049">
        <ele>61.94499968</ele>
        <time>2020-08-02T07:13:11.000Z</time>
      </trkpt>
      <trkpt lat="43.54169" lon="3.80493">
        <ele>62</ele>
        <time>2020-08-02T07:13:12.000Z</time>
      </trkpt>
      <trkpt lat="43.54167" lon="3.80496">
        <ele>62</ele>
        <time>2020-08-02T07:13:13.000Z</time>
      </trkpt>
      <trkpt lat="43.54166" lon="3.80499">
        <ele>62</ele>
        <time>2020-08-02T07:13:14.000Z</time>
      </trkpt>
      <trkpt lat="43.54164" lon="3.80502">
        <ele>62</ele>
        <time>2020-08-02T07:13:15.000Z</time>
      </trkpt>
      <trkpt lat="43.54163" lon="3.80506">
        <ele>62</ele>
        <time>2020-08-02T07:13:16.000Z</time>
      </trkpt>
      <trkpt lat="43.54161" lon="3.80509">
        <ele>62</ele>
        <time>2020-08-02T07:13:17.000Z</time>
      </trkpt>
      <trkpt lat="43.54159" lon="3.80512">
        <ele>62</ele>
        <time>2020-08-02T07:13:18.000Z</time>
      </trkpt>
      <trkpt lat="43.54158" lon="3.80515">
        <ele>62</ele>
        <time>2020-08-02T07:13:19.000Z</time>
      </trkpt>
      <trkpt lat="43.54156" lon="3.80519">
        <ele>62</ele>
        <time>2020-08-02T07:13:20.000Z</time>
      </trkpt>
      <trkpt lat="43.54154" lon="3.80522">
        <ele>62</ele>
        <time>2020-08-02T07:13:21.000Z</time>
      </trkpt>
      <trkpt lat="43.54152" lon="3.80526">
        <ele>62.04499968</ele>
        <time>2020-08-02T07:13:22.000Z</time>
      </trkpt>
      <trkpt lat="43.5415" lon="3.8053">
        <ele>62.14499968</ele>
        <time>2020-08-02T07:13:23.000Z</time>
      </trkpt>
      <trkpt lat="43.54149" lon="3.80533">
        <ele>62.24499968</ele>
        <time>2020-08-02T07:13:24.000Z</time>
      </trkpt>
      <trkpt lat="43.54147" lon="3.80536">
        <ele>62.34499968</ele>
        <time>2020-08-02T07:13:25.000Z</time>
      </trkpt>
      <trkpt lat="43.54145" lon="3.8054">
        <ele>62.44499968</ele>
        <time>2020-08-02T07:13:26.000Z</time>
      </trkpt>
      <trkpt lat="43.54143" lon="3.80543">
        <ele>62.54499968</ele>
        <time>2020-08-02T07:13:27.000Z</time>
      </trkpt>
      <trkpt lat="43.54141" lon="3.80546">
        <ele>62.64499968</ele>
        <time>2020-08-02T07:13:28.000Z</time>
      </trkpt>
      <trkpt lat="43.5414" lon="3.8055">
        <ele>62.74499968</ele>
        <time>2020-08-02T07:13:29.000Z</time>
      </trkpt>
      <trkpt lat="43.54138" lon="3.80553">
        <ele>62.84499968</ele>
        <time>2020-08-02T07:13:30.000Z</time>
      </trkpt>
      <trkpt lat="43.54136" lon="3.80556">
        <ele>62.94499968</ele>
        <time>2020-08-02T07:13:31.000Z</time>
      </trkpt>
      <trkpt lat="43.54135" lon="3.80559">
        <ele>63.04499968</ele>
        <time>2020-08-02T07:13:32.000Z</time>
      </trkpt>
      <trkpt lat="43.54134" lon="3.80562">
        <ele>63.14499968</ele>
        <time>2020-08-02T07:13:33.000Z</time>
      </trkpt>
      <trkpt lat="43.54132" lon="3.80564">
        <ele>63.24499968</ele>
        <time>2020-08-02T07:13:34.000Z</time>
      </trkpt>
      <trkpt lat="43.5413" lon="3.80565">
        <ele>63.34499968</ele>
        <time>2020-08-02T07:13:35.000Z</time>
      </trkpt>
      <trkpt lat="43.54128" lon="3.80566">
        <ele>63.44499968</ele>
        <time>2020-08-02T07:13:36.000Z</time>
      </trkpt>
      <trkpt lat="43.54125" lon="3.80566">
        <ele>63.54499968</ele>
        <time>2020-08-02T07:13:37.000Z</time>
      </trkpt>
      <trkpt lat="43.54123" lon="3.80565">
        <ele>63.64499968</ele>
        <time>2020-08-02T07:13:38.000Z</time>
      </trkpt>
      <trkpt lat="43.54122" lon="3.80563">
        <ele>63.74499968</ele>
        <time>2020-08-02T07:13:39.000Z</time>
      </trkpt>
      <trkpt lat="43.54119" lon="3.80563">
        <ele>63.94499968</ele>
        <time>2020-08-02T07:13:41.000Z</time>
      </trkpt>
      <trkpt lat="43.54117" lon="3.80564">
        <ele>64.04499968</ele>
        <time>2020-08-02T07:13:42.000Z</time>
      </trkpt>
      <trkpt lat="43.54116" lon="3.80566">
        <ele>64.14499968</ele>
        <time>2020-08-02T07:13:43.000Z</time>
      </trkpt>
      <trkpt lat="43.54114" lon="3.80569">
        <ele>64.24499968</ele>
        <time>2020-08-02T07:13:44.000Z</time>
      </trkpt>
      <trkpt lat="43.54113" lon="3.80571">
        <ele>64.34499968</ele>
        <time>2020-08-02T07:13:45.000Z</time>
      </trkpt>
      <trkpt lat="43.54111" lon="3.80572">
        <ele>64.44499968</ele>
        <time>2020-08-02T07:13:46.000Z</time>
      </trkpt>
      <trkpt lat="43.5411" lon="3.80574">
        <ele>64.54499968</ele>
        <time>2020-08-02T07:13:47.000Z</time>
      </trkpt>
      <trkpt lat="43.54108" lon="3.80576">
        <ele>64.64499968</ele>
        <time>2020-08-02T07:13:48.000Z</time>
      </trkpt>
      <trkpt lat="43.54106" lon="3.80577">
        <ele>64.74499968</ele>
        <time>2020-08-02T07:13:49.000Z</time>
      </trkpt>
      <trkpt lat="43.54104" lon="3.80579">
        <ele>64.84499968</ele>
        <time>2020-08-02T07:13:50.000Z</time>
      </trkpt>
      <trkpt lat="43.54102" lon="3.8058">
        <ele>64.94499968</ele>
        <time>2020-08-02T07:13:51.000Z</time>
      </trkpt>
      <trkpt lat="43.541" lon="3.80581">
        <ele>65.04499968</ele>
        <time>2020-08-02T07:13:52.000Z</time>
      </trkpt>
      <trkpt lat="43.54099" lon="3.80582">
        <ele>65.14499968</ele>
        <time>2020-08-02T07:13:53.000Z</time>
      </trkpt>
      <trkpt lat="43.54097" lon="3.80584">
        <ele>65.24499968</ele>
        <time>2020-08-02T07:13:54.000Z</time>
      </trkpt>
      <trkpt lat="43.54095" lon="3.80585">
        <ele>65.34499968</ele>
        <time>2020-08-02T07:13:55.000Z</time>
      </trkpt>
      <trkpt lat="43.54093" lon="3.80585">
        <ele>65.44499968</ele>
        <time>2020-08-02T07:13:56.000Z</time>
      </trkpt>
      <trkpt lat="43.54091" lon="3.80586">
        <ele>65.54499968</ele>
        <time>2020-08-02T07:13:57.000Z</time>
      </trkpt>
      <trkpt lat="43.54089" lon="3.80587">
        <ele>65.64499968</ele>
        <time>2020-08-02T07:13:58.000Z</time>
      </trkpt>
      <trkpt lat="43.54087" lon="3.80588">
        <ele>65.74499968</ele>
        <time>2020-08-02T07:13:59.000Z</time>
      </trkpt>
      <trkpt lat="43.54085" lon="3.80589">
        <ele>65.84499968</ele>
        <time>2020-08-02T07:14:00.000Z</time>
      </trkpt>
      <trkpt lat="43.54083" lon="3.8059">
        <ele>65.94499968</ele>
        <time>2020-08-02T07:14:01.000Z</time>
      </trkpt>
      <trkpt lat="43.54081" lon="3.80591">
        <ele>66.04499968</ele>
        <time>2020-08-02T07:14:02.000Z</time>
      </trkpt>
      <trkpt lat="43.5408" lon="3.80593">
        <ele>66.14499968</ele>
        <time>2020-08-02T07:14:03.000Z</time>
      </trkpt>
      <trkpt lat="43.54078" lon="3.80594">
        <ele>66.24499968</ele>
        <time>2020-08-02T07:14:04.000Z</time>
      </trkpt>
      <trkpt lat="43.54076" lon="3.80595">
        <ele>66.34499968</ele>
        <time>2020-08-02T07:14:05.000Z</time>
      </trkpt>
      <trkpt lat="43.54074" lon="3.80595">
        <ele>66.44499968</ele>
        <time>2020-08-02T07:14:06.000Z</time>
      </trkpt>
      <trkpt lat="43.54072" lon="3.80596">
        <ele>66.54499968</ele>
        <time>2020-08-02T07:14:07.000Z</time>
      </trkpt>
      <trkpt lat="43.5407" lon="3.80597">
        <ele>66.64499968</ele>
        <time>2020-08-02T07:14:08.000Z</time>
      </trkpt>
      <trkpt lat="43.54069" lon="3.80599">
        <ele>66.74499968</ele>
        <time>2020-08-02T07:14:09.000Z</time>
      </trkpt>
      <trkpt lat="43.54067" lon="3.80601">
        <ele>66.84499968</ele>
        <time>2020-08-02T07:14:10.000Z</time>
      </trkpt>
      <trkpt lat="43.54065" lon="3.80603">
        <ele>66.94499968</ele>
        <time>2020-08-02T07:14:11.000Z</time>
      </trkpt>
      <trkpt lat="43.54063" lon="3.80604">
        <ele>67.08999936</ele>
        <time>2020-08-02T07:14:12.000Z</time>
      </trkpt>
      <trkpt lat="43.54061" lon="3.80605">
        <ele>67.28999936</ele>
        <time>2020-08-02T07:14:13.000Z</time>
      </trkpt>
      <trkpt lat="43.54059" lon="3.80606">
        <ele>67.48999936</ele>
        <time>2020-08-02T07:14:14.000Z</time>
      </trkpt>
      <trkpt lat="43.54057" lon="3.80607">
        <ele>67.68999936</ele>
        <time>2020-08-02T07:14:15.000Z</time>
      </trkpt>
      <trkpt lat="43.54055" lon="3.80608">
        <ele>67.88999936</ele>
        <time>2020-08-02T07:14:16.000Z</time>
      </trkpt>
      <trkpt lat="43.54053" lon="3.8061">
        <ele>68.08999936</ele>
        <time>2020-08-02T07:14:17.000Z</time>
      </trkpt>
      <trkpt lat="43.54051" lon="3.80611">
        <ele>68.28999936</ele>
        <time>2020-08-02T07:14:18.000Z</time>
      </trkpt>
      <trkpt lat="43.54048" lon="3.80612">
        <ele>68.48999936</ele>
        <time>2020-08-02T07:14:19.000Z</time>
      </trkpt>
      <trkpt lat="43.54046" lon="3.80613">
        <ele>68.68999936</ele>
        <time>2020-08-02T07:14:20.000Z</time>
      </trkpt>
      <trkpt lat="43.54044" lon="3.80614">
        <ele>68.88999936</ele>
        <time>2020-08-02T07:14:21.000Z</time>
      </trkpt>
      <trkpt lat="43.54042" lon="3.80615">
        <ele>69.08999936</ele>
        <time>2020-08-02T07:14:22.000Z</time>
      </trkpt>
      <trkpt lat="43.5404" lon="3.80616">
        <ele>69.28999936</ele>
        <time>2020-08-02T07:14:23.000Z</time>
      </trkpt>
      <trkpt lat="43.54037" lon="3.80617">
        <ele>69.48999936</ele>
        <time>2020-08-02T07:14:24.000Z</time>
      </trkpt>
      <trkpt lat="43.54035" lon="3.80618">
        <ele>69.68999936</ele>
        <time>2020-08-02T07:14:25.000Z</time>
      </trkpt>
      <trkpt lat="43.54033" lon="3.80619">
        <ele>69.88999936</ele>
        <time>2020-08-02T07:14:26.000Z</time>
      </trkpt>
      <trkpt lat="43.5403" lon="3.8062">
        <ele>70.08999936</ele>
        <time>2020-08-02T07:14:27.000Z</time>
      </trkpt>
      <trkpt lat="43.54028" lon="3.8062">
        <ele>70.28999936</ele>
        <time>2020-08-02T07:14:28.000Z</time>
      </trkpt>
      <trkpt lat="43.54026" lon="3.80621">
        <ele>70.48999936</ele>
        <time>2020-08-02T07:14:29.000Z</time>
      </trkpt>
      <trkpt lat="43.54023" lon="3.80622">
        <ele>70.88999936</ele>
        <time>2020-08-02T07:14:31.000Z</time>
      </trkpt>
      <trkpt lat="43.5402" lon="3.80622">
        <ele>71</ele>
        <time>2020-08-02T07:14:33.000Z</time>
      </trkpt>
      <trkpt lat="43.54017" lon="3.80622">
        <ele>71</ele>
        <time>2020-08-02T07:14:35.000Z</time>
      </trkpt>
      <trkpt lat="43.54015" lon="3.80622">
        <ele>71</ele>
        <time>2020-08-02T07:14:36.000Z</time>
      </trkpt>
      <trkpt lat="43.54013" lon="3.80622">
        <ele>71</ele>
        <time>2020-08-02T07:14:37.000Z</time>
      </trkpt>
      <trkpt lat="43.5401" lon="3.80622">
        <ele>71</ele>
        <time>2020-08-02T07:14:38.000Z</time>
      </trkpt>
      <trkpt lat="43.54008" lon="3.80622">
        <ele>71</ele>
        <time>2020-08-02T07:14:39.000Z</time>
      </trkpt>
      <trkpt lat="43.54006" lon="3.80622">
        <ele>71</ele>
        <time>2020-08-02T07:14:40.000Z</time>
      </trkpt>
      <trkpt lat="43.54004" lon="3.80622">
        <ele>71</ele>
        <time>2020-08-02T07:14:41.000Z</time>
      </trkpt>
      <trkpt lat="43.54002" lon="3.80623">
        <ele>71.016427093929</ele>
        <time>2020-08-02T07:14:42.000Z</time>
      </trkpt>
      <trkpt lat="43.54" lon="3.80623">
        <ele>71.119096430984</ele>
        <time>2020-08-02T07:14:43.000Z</time>
      </trkpt>
      <trkpt lat="43.53998" lon="3.80624">
        <ele>71.221765768039</ele>
        <time>2020-08-02T07:14:44.000Z</time>
      </trkpt>
      <trkpt lat="43.53996" lon="3.80625">
        <ele>71.324435105094</ele>
        <time>2020-08-02T07:14:45.000Z</time>
      </trkpt>
      <trkpt lat="43.53994" lon="3.80625">
        <ele>71.427104442149</ele>
        <time>2020-08-02T07:14:46.000Z</time>
      </trkpt>
      <trkpt lat="43.53992" lon="3.80626">
        <ele>71.529773779204</ele>
        <time>2020-08-02T07:14:47.000Z</time>
      </trkpt>
      <trkpt lat="43.5399" lon="3.80627">
        <ele>71.632443116259</ele>
        <time>2020-08-02T07:14:48.000Z</time>
      </trkpt>
      <trkpt lat="43.53988" lon="3.80627">
        <ele>71.735112453314</ele>
        <time>2020-08-02T07:14:49.000Z</time>
      </trkpt>
      <trkpt lat="43.53986" lon="3.80628">
        <ele>71.837781790369</ele>
        <time>2020-08-02T07:14:50.000Z</time>
      </trkpt>
      <trkpt lat="43.53984" lon="3.80629">
        <ele>71.940451127424</ele>
        <time>2020-08-02T07:14:51.000Z</time>
      </trkpt>
      <trkpt lat="43.53982" lon="3.8063">
        <ele>72.040579129426</ele>
        <time>2020-08-02T07:14:52.000Z</time>
      </trkpt>
      <trkpt lat="43.5398" lon="3.80631">
        <ele>72.137197576531</ele>
        <time>2020-08-02T07:14:53.000Z</time>
      </trkpt>
      <trkpt lat="43.53978" lon="3.80631">
        <ele>72.233816023636</ele>
        <time>2020-08-02T07:14:54.000Z</time>
      </trkpt>
      <trkpt lat="43.53976" lon="3.80633">
        <ele>72.330434470741</ele>
        <time>2020-08-02T07:14:55.000Z</time>
      </trkpt>
      <trkpt lat="43.53974" lon="3.80634">
        <ele>72.427052917846</ele>
        <time>2020-08-02T07:14:56.000Z</time>
      </trkpt>
      <trkpt lat="43.53972" lon="3.80635">
        <ele>72.523671364951</ele>
        <time>2020-08-02T07:14:57.000Z</time>
      </trkpt>
      <trkpt lat="43.5397" lon="3.80636">
        <ele>72.620289812056</ele>
        <time>2020-08-02T07:14:58.000Z</time>
      </trkpt>
      <trkpt lat="43.53968" lon="3.80637">
        <ele>72.716908259161</ele>
        <time>2020-08-02T07:14:59.000Z</time>
      </trkpt>
      <trkpt lat="43.53966" lon="3.80638">
        <ele>72.813526706266</ele>
        <time>2020-08-02T07:15:00.000Z</time>
      </trkpt>
      <trkpt lat="43.53964" lon="3.8064">
        <ele>72.910145153371</ele>
        <time>2020-08-02T07:15:01.000Z</time>
      </trkpt>
      <trkpt lat="43.53963" lon="3.80642">
        <ele>73.014553670151</ele>
        <time>2020-08-02T07:15:02.000Z</time>
      </trkpt>
      <trkpt lat="43.53961" lon="3.80644">
        <ele>73.22245373974</ele>
        <time>2020-08-02T07:15:03.000Z</time>
      </trkpt>
      <trkpt lat="43.53959" lon="3.80646">
        <ele>73.430353809328</ele>
        <time>2020-08-02T07:15:04.000Z</time>
      </trkpt>
      <trkpt lat="43.53957" lon="3.80648">
        <ele>73.638253878916</ele>
        <time>2020-08-02T07:15:05.000Z</time>
      </trkpt>
      <trkpt lat="43.53956" lon="3.8065">
        <ele>73.846153948505</ele>
        <time>2020-08-02T07:15:06.000Z</time>
      </trkpt>
      <trkpt lat="43.53954" lon="3.80652">
        <ele>74.054054018093</ele>
        <time>2020-08-02T07:15:07.000Z</time>
      </trkpt>
      <trkpt lat="43.53953" lon="3.80654">
        <ele>74.261954087681</ele>
        <time>2020-08-02T07:15:08.000Z</time>
      </trkpt>
      <trkpt lat="43.53952" lon="3.80656">
        <ele>74.46985415727</ele>
        <time>2020-08-02T07:15:09.000Z</time>
      </trkpt>
      <trkpt lat="43.5395" lon="3.80659">
        <ele>74.677754226858</ele>
        <time>2020-08-02T07:15:10.000Z</time>
      </trkpt>
      <trkpt lat="43.53949" lon="3.80661">
        <ele>74.885654296446</ele>
        <time>2020-08-02T07:15:11.000Z</time>
      </trkpt>
      <trkpt lat="43.53948" lon="3.80663">
        <ele>75.089819777929</ele>
        <time>2020-08-02T07:15:12.000Z</time>
      </trkpt>
      <trkpt lat="43.53947" lon="3.80666">
        <ele>75.289420703822</ele>
        <time>2020-08-02T07:15:13.000Z</time>
      </trkpt>
      <trkpt lat="43.53946" lon="3.80668">
        <ele>75.489021629714</ele>
        <time>2020-08-02T07:15:14.000Z</time>
      </trkpt>
      <trkpt lat="43.53945" lon="3.80671">
        <ele>75.688622555607</ele>
        <time>2020-08-02T07:15:15.000Z</time>
      </trkpt>
      <trkpt lat="43.53944" lon="3.80673">
        <ele>75.8882234815</ele>
        <time>2020-08-02T07:15:16.000Z</time>
      </trkpt>
      <trkpt lat="43.53943" lon="3.80675">
        <ele>76.087824407393</ele>
        <time>2020-08-02T07:15:17.000Z</time>
      </trkpt>
      <trkpt lat="43.53941" lon="3.80677">
        <ele>76.287425333286</ele>
        <time>2020-08-02T07:15:18.000Z</time>
      </trkpt>
      <trkpt lat="43.5394" lon="3.80679">
        <ele>76.487026259178</ele>
        <time>2020-08-02T07:15:19.000Z</time>
      </trkpt>
      <trkpt lat="43.53939" lon="3.80683">
        <ele>76.886228110964</ele>
        <time>2020-08-02T07:15:21.000Z</time>
      </trkpt>
      <trkpt lat="43.53938" lon="3.80688">
        <ele>77.286573603801</ele>
        <time>2020-08-02T07:15:23.000Z</time>
      </trkpt>
      <trkpt lat="43.53937" lon="3.80692">
        <ele>77.68737494998</ele>
        <time>2020-08-02T07:15:25.000Z</time>
      </trkpt>
      <trkpt lat="43.53935" lon="3.80696">
        <ele>78.08817629616</ele>
        <time>2020-08-02T07:15:27.000Z</time>
      </trkpt>
      <trkpt lat="43.53934" lon="3.80699">
        <ele>78.488977642339</ele>
        <time>2020-08-02T07:15:29.000Z</time>
      </trkpt>
      <trkpt lat="43.53933" lon="3.80703">
        <ele>78.889778988519</ele>
        <time>2020-08-02T07:15:31.000Z</time>
      </trkpt>
      <trkpt lat="43.53932" lon="3.80707">
        <ele>79.28999936</ele>
        <time>2020-08-02T07:15:33.000Z</time>
      </trkpt>
      <trkpt lat="43.53929" lon="3.8071">
        <ele>79.68999936</ele>
        <time>2020-08-02T07:15:35.000Z</time>
      </trkpt>
      <trkpt lat="43.53927" lon="3.80714">
        <ele>80.08999936</ele>
        <time>2020-08-02T07:15:37.000Z</time>
      </trkpt>
      <trkpt lat="43.53924" lon="3.80717">
        <ele>80.48999936</ele>
        <time>2020-08-02T07:15:39.000Z</time>
      </trkpt>
      <trkpt lat="43.53922" lon="3.80719">
        <ele>80.88999936</ele>
        <time>2020-08-02T07:15:41.000Z</time>
      </trkpt>
      <trkpt lat="43.53918" lon="3.80722">
        <ele>81.28999936</ele>
        <time>2020-08-02T07:15:43.000Z</time>
      </trkpt>
      <trkpt lat="43.53915" lon="3.80723">
        <ele>81.68999936</ele>
        <time>2020-08-02T07:15:45.000Z</time>
      </trkpt>
      <trkpt lat="43.53912" lon="3.80724">
        <ele>82.08999936</ele>
        <time>2020-08-02T07:15:47.000Z</time>
      </trkpt>
      <trkpt lat="43.53908" lon="3.80724">
        <ele>82.48999936</ele>
        <time>2020-08-02T07:15:49.000Z</time>
      </trkpt>
      <trkpt lat="43.53905" lon="3.80725">
        <ele>82.88999936</ele>
        <time>2020-08-02T07:15:51.000Z</time>
      </trkpt>
      <trkpt lat="43.53902" lon="3.80726">
        <ele>83</ele>
        <time>2020-08-02T07:15:53.000Z</time>
      </trkpt>
      <trkpt lat="43.539" lon="3.80725">
        <ele>83</ele>
        <time>2020-08-02T07:15:54.000Z</time>
      </trkpt>
      <trkpt lat="43.53898" lon="3.80725">
        <ele>83</ele>
        <time>2020-08-02T07:15:55.000Z</time>
      </trkpt>
      <trkpt lat="43.53896" lon="3.80725">
        <ele>83</ele>
        <time>2020-08-02T07:15:56.000Z</time>
      </trkpt>
      <trkpt lat="43.53894" lon="3.80724">
        <ele>83</ele>
        <time>2020-08-02T07:15:57.000Z</time>
      </trkpt>
      <trkpt lat="43.53893" lon="3.80724">
        <ele>83</ele>
        <time>2020-08-02T07:15:58.000Z</time>
      </trkpt>
      <trkpt lat="43.53889" lon="3.80723">
        <ele>83</ele>
        <time>2020-08-02T07:16:00.000Z</time>
      </trkpt>
      <trkpt lat="43.53887" lon="3.80722">
        <ele>83</ele>
        <time>2020-08-02T07:16:01.000Z</time>
      </trkpt>
      <trkpt lat="43.53886" lon="3.80722">
        <ele>83.04499968</ele>
        <time>2020-08-02T07:16:02.000Z</time>
      </trkpt>
      <trkpt lat="43.53884" lon="3.80721">
        <ele>83.14499968</ele>
        <time>2020-08-02T07:16:03.000Z</time>
      </trkpt>
      <trkpt lat="43.53882" lon="3.8072">
        <ele>83.24499968</ele>
        <time>2020-08-02T07:16:04.000Z</time>
      </trkpt>
      <trkpt lat="43.5388" lon="3.80719">
        <ele>83.34499968</ele>
        <time>2020-08-02T07:16:05.000Z</time>
      </trkpt>
      <trkpt lat="43.53878" lon="3.80719">
        <ele>83.44499968</ele>
        <time>2020-08-02T07:16:06.000Z</time>
      </trkpt>
      <trkpt lat="43.53877" lon="3.80718">
        <ele>83.54499968</ele>
        <time>2020-08-02T07:16:07.000Z</time>
      </trkpt>
      <trkpt lat="43.53875" lon="3.80716">
        <ele>83.64499968</ele>
        <time>2020-08-02T07:16:08.000Z</time>
      </trkpt>
      <trkpt lat="43.53873" lon="3.80715">
        <ele>83.74499968</ele>
        <time>2020-08-02T07:16:09.000Z</time>
      </trkpt>
      <trkpt lat="43.53872" lon="3.80714">
        <ele>83.84499968</ele>
        <time>2020-08-02T07:16:10.000Z</time>
      </trkpt>
      <trkpt lat="43.5387" lon="3.80713">
        <ele>83.94499968</ele>
        <time>2020-08-02T07:16:11.000Z</time>
      </trkpt>
      <trkpt lat="43.53868" lon="3.80712">
        <ele>84.08999936</ele>
        <time>2020-08-02T07:16:12.000Z</time>
      </trkpt>
      <trkpt lat="43.53865" lon="3.8071">
        <ele>84.48999936</ele>
        <time>2020-08-02T07:16:14.000Z</time>
      </trkpt>
      <trkpt lat="43.53862" lon="3.80709">
        <ele>84.88999936</ele>
        <time>2020-08-02T07:16:16.000Z</time>
      </trkpt>
      <trkpt lat="43.53859" lon="3.80706">
        <ele>85.28999936</ele>
        <time>2020-08-02T07:16:18.000Z</time>
      </trkpt>
      <trkpt lat="43.53856" lon="3.80705">
        <ele>85.68999936</ele>
        <time>2020-08-02T07:16:20.000Z</time>
      </trkpt>
      <trkpt lat="43.53853" lon="3.80703">
        <ele>86.08999936</ele>
        <time>2020-08-02T07:16:22.000Z</time>
      </trkpt>
      <trkpt lat="43.5385" lon="3.80701">
        <ele>86.48999936</ele>
        <time>2020-08-02T07:16:24.000Z</time>
      </trkpt>
      <trkpt lat="43.53848" lon="3.80699">
        <ele>86.88999936</ele>
        <time>2020-08-02T07:16:26.000Z</time>
      </trkpt>
      <trkpt lat="43.53845" lon="3.80698">
        <ele>87.28999936</ele>
        <time>2020-08-02T07:16:28.000Z</time>
      </trkpt>
      <trkpt lat="43.53842" lon="3.80696">
        <ele>87.68999936</ele>
        <time>2020-08-02T07:16:30.000Z</time>
      </trkpt>
      <trkpt lat="43.5384" lon="3.80693">
        <ele>88.089730140864</ele>
        <time>2020-08-02T07:16:32.000Z</time>
      </trkpt>
      <trkpt lat="43.53837" lon="3.80691">
        <ele>88.488533602861</ele>
        <time>2020-08-02T07:16:34.000Z</time>
      </trkpt>
      <trkpt lat="43.53835" lon="3.80689">
        <ele>88.887337064858</ele>
        <time>2020-08-02T07:16:36.000Z</time>
      </trkpt>
      <trkpt lat="43.53832" lon="3.80688">
        <ele>89.286140526854</ele>
        <time>2020-08-02T07:16:38.000Z</time>
      </trkpt>
      <trkpt lat="43.53829" lon="3.80686">
        <ele>89.684943988851</ele>
        <time>2020-08-02T07:16:40.000Z</time>
      </trkpt>
      <trkpt lat="43.53827" lon="3.80684">
        <ele>90.123770293922</ele>
        <time>2020-08-02T07:16:42.000Z</time>
      </trkpt>
      <trkpt lat="43.53824" lon="3.80682">
        <ele>90.713161627135</ele>
        <time>2020-08-02T07:16:44.000Z</time>
      </trkpt>
      <trkpt lat="43.53822" lon="3.8068">
        <ele>91.302552960348</ele>
        <time>2020-08-02T07:16:46.000Z</time>
      </trkpt>
      <trkpt lat="43.5382" lon="3.80678">
        <ele>91.89194429356</ele>
        <time>2020-08-02T07:16:48.000Z</time>
      </trkpt>
      <trkpt lat="43.53817" lon="3.80676">
        <ele>92.481335626773</ele>
        <time>2020-08-02T07:16:50.000Z</time>
      </trkpt>
      <trkpt lat="43.53815" lon="3.80673">
        <ele>93.049029606037</ele>
        <time>2020-08-02T07:16:52.000Z</time>
      </trkpt>
      <trkpt lat="43.53813" lon="3.8067">
        <ele>93.457609656348</ele>
        <time>2020-08-02T07:16:54.000Z</time>
      </trkpt>
      <trkpt lat="43.53811" lon="3.80668">
        <ele>93.866189706659</ele>
        <time>2020-08-02T07:16:56.000Z</time>
      </trkpt>
      <trkpt lat="43.53809" lon="3.80665">
        <ele>94.27476975697</ele>
        <time>2020-08-02T07:16:58.000Z</time>
      </trkpt>
      <trkpt lat="43.53808" lon="3.80662">
        <ele>94.683349807281</ele>
        <time>2020-08-02T07:17:00.000Z</time>
      </trkpt>
      <trkpt lat="43.53806" lon="3.80659">
        <ele>95.04499968</ele>
        <time>2020-08-02T07:17:02.000Z</time>
      </trkpt>
      <trkpt lat="43.53804" lon="3.80655">
        <ele>95.24499968</ele>
        <time>2020-08-02T07:17:04.000Z</time>
      </trkpt>
      <trkpt lat="43.53803" lon="3.80651">
        <ele>95.44499968</ele>
        <time>2020-08-02T07:17:06.000Z</time>
      </trkpt>
      <trkpt lat="43.53801" lon="3.80648">
        <ele>95.64499968</ele>
        <time>2020-08-02T07:17:08.000Z</time>
      </trkpt>
      <trkpt lat="43.53799" lon="3.80644">
        <ele>95.84499968</ele>
        <time>2020-08-02T07:17:10.000Z</time>
      </trkpt>
      <trkpt lat="43.53798" lon="3.80641">
        <ele>96.044247486882</ele>
        <time>2020-08-02T07:17:12.000Z</time>
      </trkpt>
      <trkpt lat="43.53796" lon="3.80636">
        <ele>96.240904382585</ele>
        <time>2020-08-02T07:17:14.000Z</time>
      </trkpt>
      <trkpt lat="43.53794" lon="3.80632">
        <ele>96.437561278289</ele>
        <time>2020-08-02T07:17:16.000Z</time>
      </trkpt>
      <trkpt lat="43.53792" lon="3.80628">
        <ele>96.634218173992</ele>
        <time>2020-08-02T07:17:18.000Z</time>
      </trkpt>
      <trkpt lat="43.5379" lon="3.80624">
        <ele>96.830875069695</ele>
        <time>2020-08-02T07:17:20.000Z</time>
      </trkpt>
      <trkpt lat="43.53789" lon="3.80622">
        <ele>96.929203517547</ele>
        <time>2020-08-02T07:17:21.000Z</time>
      </trkpt>
      <trkpt lat="43.53788" lon="3.8062">
        <ele>97.056968445341</ele>
        <time>2020-08-02T07:17:22.000Z</time>
      </trkpt>
      <trkpt lat="43.53787" lon="3.80618">
        <ele>97.260427178701</ele>
        <time>2020-08-02T07:17:23.000Z</time>
      </trkpt>
      <trkpt lat="43.53785" lon="3.80614">
        <ele>97.667344645422</ele>
        <time>2020-08-02T07:17:25.000Z</time>
      </trkpt>
      <trkpt lat="43.53784" lon="3.80612">
        <ele>97.870803378782</ele>
        <time>2020-08-02T07:17:26.000Z</time>
      </trkpt>
      <trkpt lat="43.53782" lon="3.80608">
        <ele>98.277720845503</ele>
        <time>2020-08-02T07:17:28.000Z</time>
      </trkpt>
      <trkpt lat="43.53781" lon="3.80606">
        <ele>98.481179578863</ele>
        <time>2020-08-02T07:17:29.000Z</time>
      </trkpt>
      <trkpt lat="43.53778" lon="3.80603">
        <ele>98.888097045584</ele>
        <time>2020-08-02T07:17:31.000Z</time>
      </trkpt>
      <trkpt lat="43.53776" lon="3.80599">
        <ele>99.28999936</ele>
        <time>2020-08-02T07:17:33.000Z</time>
      </trkpt>
      <trkpt lat="43.53773" lon="3.80597">
        <ele>99.68999936</ele>
        <time>2020-08-02T07:17:35.000Z</time>
      </trkpt>
      <trkpt lat="43.5377" lon="3.80594">
        <ele>100.08999936</ele>
        <time>2020-08-02T07:17:37.000Z</time>
      </trkpt>
      <trkpt lat="43.53767" lon="3.80592">
        <ele>100.48999936</ele>
        <time>2020-08-02T07:17:39.000Z</time>
      </trkpt>
      <trkpt lat="43.53764" lon="3.80589">
        <ele>100.88999936</ele>
        <time>2020-08-02T07:17:41.000Z</time>
      </trkpt>
      <trkpt lat="43.53761" lon="3.80587">
        <ele>101.14499968</ele>
        <time>2020-08-02T07:17:43.000Z</time>
      </trkpt>
      <trkpt lat="43.53758" lon="3.80586">
        <ele>101.34499968</ele>
        <time>2020-08-02T07:17:45.000Z</time>
      </trkpt>
      <trkpt lat="43.53755" lon="3.80584">
        <ele>101.54499968</ele>
        <time>2020-08-02T07:17:47.000Z</time>
      </trkpt>
      <trkpt lat="43.53752" lon="3.80583">
        <ele>101.74499968</ele>
        <time>2020-08-02T07:17:49.000Z</time>
      </trkpt>
      <trkpt lat="43.53749" lon="3.80582">
        <ele>101.94499968</ele>
        <time>2020-08-02T07:17:51.000Z</time>
      </trkpt>
      <trkpt lat="43.53746" lon="3.80582">
        <ele>102.43499904</ele>
        <time>2020-08-02T07:17:53.000Z</time>
      </trkpt>
      <trkpt lat="43.53742" lon="3.80582">
        <ele>103.03499904</ele>
        <time>2020-08-02T07:17:55.000Z</time>
      </trkpt>
      <trkpt lat="43.53739" lon="3.80582">
        <ele>103.63499904</ele>
        <time>2020-08-02T07:17:57.000Z</time>
      </trkpt>
      <trkpt lat="43.53736" lon="3.80582">
        <ele>104.23499904</ele>
        <time>2020-08-02T07:17:59.000Z</time>
      </trkpt>
      <trkpt lat="43.53733" lon="3.80581">
        <ele>104.83499904</ele>
        <time>2020-08-02T07:18:01.000Z</time>
      </trkpt>
      <trkpt lat="43.5373" lon="3.80581">
        <ele>105.14499968</ele>
        <time>2020-08-02T07:18:03.000Z</time>
      </trkpt>
      <trkpt lat="43.53726" lon="3.80581">
        <ele>105.34499968</ele>
        <time>2020-08-02T07:18:05.000Z</time>
      </trkpt>
      <trkpt lat="43.53723" lon="3.80581">
        <ele>105.54499968</ele>
        <time>2020-08-02T07:18:07.000Z</time>
      </trkpt>
      <trkpt lat="43.5372" lon="3.80581">
        <ele>105.74499968</ele>
        <time>2020-08-02T07:18:09.000Z</time>
      </trkpt>
      <trkpt lat="43.53717" lon="3.80581">
        <ele>105.94499968</ele>
        <time>2020-08-02T07:18:11.000Z</time>
      </trkpt>
      <trkpt lat="43.53713" lon="3.80581">
        <ele>106.28999936</ele>
        <time>2020-08-02T07:18:13.000Z</time>
      </trkpt>
      <trkpt lat="43.5371" lon="3.80581">
        <ele>106.68999936</ele>
        <time>2020-08-02T07:18:15.000Z</time>
      </trkpt>
      <trkpt lat="43.53707" lon="3.80581">
        <ele>107.08999936</ele>
        <time>2020-08-02T07:18:17.000Z</time>
      </trkpt>
      <trkpt lat="43.53704" lon="3.80582">
        <ele>107.48999936</ele>
        <time>2020-08-02T07:18:19.000Z</time>
      </trkpt>
      <trkpt lat="43.53701" lon="3.80583">
        <ele>107.88999936</ele>
        <time>2020-08-02T07:18:21.000Z</time>
      </trkpt>
      <trkpt lat="43.53698" lon="3.80585">
        <ele>108.28999936</ele>
        <time>2020-08-02T07:18:23.000Z</time>
      </trkpt>
      <trkpt lat="43.53696" lon="3.80586">
        <ele>108.68999936</ele>
        <time>2020-08-02T07:18:25.000Z</time>
      </trkpt>
      <trkpt lat="43.53693" lon="3.80587">
        <ele>109.08999936</ele>
        <time>2020-08-02T07:18:27.000Z</time>
      </trkpt>
      <trkpt lat="43.5369" lon="3.80588">
        <ele>109.48999936</ele>
        <time>2020-08-02T07:18:29.000Z</time>
      </trkpt>
      <trkpt lat="43.53687" lon="3.80589">
        <ele>109.88999936</ele>
        <time>2020-08-02T07:18:31.000Z</time>
      </trkpt>
      <trkpt lat="43.53685" lon="3.80591">
        <ele>110.28999936</ele>
        <time>2020-08-02T07:18:33.000Z</time>
      </trkpt>
      <trkpt lat="43.53682" lon="3.80592">
        <ele>110.68999936</ele>
        <time>2020-08-02T07:18:35.000Z</time>
      </trkpt>
      <trkpt lat="43.53679" lon="3.80593">
        <ele>111.08999936</ele>
        <time>2020-08-02T07:18:37.000Z</time>
      </trkpt>
      <trkpt lat="43.53676" lon="3.80595">
        <ele>111.48999936</ele>
        <time>2020-08-02T07:18:39.000Z</time>
      </trkpt>
      <trkpt lat="43.53674" lon="3.80596">
        <ele>111.88999936</ele>
        <time>2020-08-02T07:18:41.000Z</time>
      </trkpt>
      <trkpt lat="43.53671" lon="3.80597">
        <ele>112.14399187511</ele>
        <time>2020-08-02T07:18:43.000Z</time>
      </trkpt>
      <trkpt lat="43.53669" lon="3.80598">
        <ele>112.34260179632</ele>
        <time>2020-08-02T07:18:45.000Z</time>
      </trkpt>
      <trkpt lat="43.53666" lon="3.80598">
        <ele>112.54121171754</ele>
        <time>2020-08-02T07:18:47.000Z</time>
      </trkpt>
      <trkpt lat="43.53663" lon="3.80598">
        <ele>112.73982163876</ele>
        <time>2020-08-02T07:18:49.000Z</time>
      </trkpt>
      <trkpt lat="43.5366" lon="3.80597">
        <ele>112.93843155997</ele>
        <time>2020-08-02T07:18:51.000Z</time>
      </trkpt>
      <trkpt lat="43.53658" lon="3.80596">
        <ele>113</ele>
        <time>2020-08-02T07:18:52.000Z</time>
      </trkpt>
      <trkpt lat="43.53656" lon="3.80596">
        <ele>113</ele>
        <time>2020-08-02T07:18:53.000Z</time>
      </trkpt>
      <trkpt lat="43.53654" lon="3.80596">
        <ele>113</ele>
        <time>2020-08-02T07:18:54.000Z</time>
      </trkpt>
      <trkpt lat="43.53652" lon="3.80596">
        <ele>113</ele>
        <time>2020-08-02T07:18:55.000Z</time>
      </trkpt>
      <trkpt lat="43.5365" lon="3.80596">
        <ele>113</ele>
        <time>2020-08-02T07:18:56.000Z</time>
      </trkpt>
      <trkpt lat="43.53648" lon="3.80596">
        <ele>113</ele>
        <time>2020-08-02T07:18:57.000Z</time>
      </trkpt>
      <trkpt lat="43.53646" lon="3.80595">
        <ele>113</ele>
        <time>2020-08-02T07:18:58.000Z</time>
      </trkpt>
      <trkpt lat="43.53644" lon="3.80595">
        <ele>113</ele>
        <time>2020-08-02T07:18:59.000Z</time>
      </trkpt>
      <trkpt lat="43.53642" lon="3.80595">
        <ele>113</ele>
        <time>2020-08-02T07:19:00.000Z</time>
      </trkpt>
      <trkpt lat="43.5364" lon="3.80594">
        <ele>113</ele>
        <time>2020-08-02T07:19:01.000Z</time>
      </trkpt>
      <trkpt lat="43.53638" lon="3.80594">
        <ele>113.04499968</ele>
        <time>2020-08-02T07:19:02.000Z</time>
      </trkpt>
      <trkpt lat="43.53635" lon="3.80593">
        <ele>113.14499968</ele>
        <time>2020-08-02T07:19:03.000Z</time>
      </trkpt>
      <trkpt lat="43.53633" lon="3.80592">
        <ele>113.24499968</ele>
        <time>2020-08-02T07:19:04.000Z</time>
      </trkpt>
      <trkpt lat="43.53631" lon="3.80591">
        <ele>113.34499968</ele>
        <time>2020-08-02T07:19:05.000Z</time>
      </trkpt>
      <trkpt lat="43.53629" lon="3.8059">
        <ele>113.44499968</ele>
        <time>2020-08-02T07:19:06.000Z</time>
      </trkpt>
      <trkpt lat="43.53627" lon="3.80588">
        <ele>113.54499968</ele>
        <time>2020-08-02T07:19:07.000Z</time>
      </trkpt>
      <trkpt lat="43.53626" lon="3.80586">
        <ele>113.64499968</ele>
        <time>2020-08-02T07:19:08.000Z</time>
      </trkpt>
      <trkpt lat="43.53624" lon="3.80583">
        <ele>113.74499968</ele>
        <time>2020-08-02T07:19:09.000Z</time>
      </trkpt>
      <trkpt lat="43.53623" lon="3.8058">
        <ele>113.84499968</ele>
        <time>2020-08-02T07:19:10.000Z</time>
      </trkpt>
      <trkpt lat="43.53622" lon="3.80577">
        <ele>113.94499968</ele>
        <time>2020-08-02T07:19:11.000Z</time>
      </trkpt>
      <trkpt lat="43.53621" lon="3.80574">
        <ele>114</ele>
        <time>2020-08-02T07:19:12.000Z</time>
      </trkpt>
      <trkpt lat="43.5362" lon="3.80571">
        <ele>114</ele>
        <time>2020-08-02T07:19:13.000Z</time>
      </trkpt>
      <trkpt lat="43.53619" lon="3.80568">
        <ele>114</ele>
        <time>2020-08-02T07:19:14.000Z</time>
      </trkpt>
      <trkpt lat="43.53618" lon="3.80564">
        <ele>114</ele>
        <time>2020-08-02T07:19:15.000Z</time>
      </trkpt>
      <trkpt lat="43.53618" lon="3.80561">
        <ele>114</ele>
        <time>2020-08-02T07:19:16.000Z</time>
      </trkpt>
      <trkpt lat="43.53617" lon="3.80557">
        <ele>114</ele>
        <time>2020-08-02T07:19:17.000Z</time>
      </trkpt>
      <trkpt lat="43.53616" lon="3.80554">
        <ele>114</ele>
        <time>2020-08-02T07:19:18.000Z</time>
      </trkpt>
      <trkpt lat="43.53615" lon="3.80551">
        <ele>114</ele>
        <time>2020-08-02T07:19:19.000Z</time>
      </trkpt>
      <trkpt lat="43.53615" lon="3.80547">
        <ele>114</ele>
        <time>2020-08-02T07:19:20.000Z</time>
      </trkpt>
      <trkpt lat="43.53614" lon="3.80544">
        <ele>114</ele>
        <time>2020-08-02T07:19:21.000Z</time>
      </trkpt>
      <trkpt lat="43.53613" lon="3.8054">
        <ele>114.04499968</ele>
        <time>2020-08-02T07:19:22.000Z</time>
      </trkpt>
      <trkpt lat="43.53612" lon="3.80537">
        <ele>114.14499968</ele>
        <time>2020-08-02T07:19:23.000Z</time>
      </trkpt>
      <trkpt lat="43.53612" lon="3.80534">
        <ele>114.24499968</ele>
        <time>2020-08-02T07:19:24.000Z</time>
      </trkpt>
      <trkpt lat="43.53611" lon="3.8053">
        <ele>114.34499968</ele>
        <time>2020-08-02T07:19:25.000Z</time>
      </trkpt>
      <trkpt lat="43.5361" lon="3.80527">
        <ele>114.44499968</ele>
        <time>2020-08-02T07:19:26.000Z</time>
      </trkpt>
      <trkpt lat="43.5361" lon="3.80523">
        <ele>114.54499968</ele>
        <time>2020-08-02T07:19:27.000Z</time>
      </trkpt>
      <trkpt lat="43.53609" lon="3.8052">
        <ele>114.64499968</ele>
        <time>2020-08-02T07:19:28.000Z</time>
      </trkpt>
      <trkpt lat="43.53609" lon="3.80516">
        <ele>114.74499968</ele>
        <time>2020-08-02T07:19:29.000Z</time>
      </trkpt>
      <trkpt lat="43.53608" lon="3.80513">
        <ele>114.84499968</ele>
        <time>2020-08-02T07:19:30.000Z</time>
      </trkpt>
      <trkpt lat="43.53607" lon="3.80509">
        <ele>114.94499968</ele>
        <time>2020-08-02T07:19:31.000Z</time>
      </trkpt>
      <trkpt lat="43.53607" lon="3.80505">
        <ele>114.95500032</ele>
        <time>2020-08-02T07:19:32.000Z</time>
      </trkpt>
      <trkpt lat="43.53606" lon="3.80501">
        <ele>114.85500032</ele>
        <time>2020-08-02T07:19:33.000Z</time>
      </trkpt>
      <trkpt lat="43.53606" lon="3.80497">
        <ele>114.75500032</ele>
        <time>2020-08-02T07:19:34.000Z</time>
      </trkpt>
      <trkpt lat="43.53606" lon="3.80493">
        <ele>114.65500032</ele>
        <time>2020-08-02T07:19:35.000Z</time>
      </trkpt>
      <trkpt lat="43.53605" lon="3.80489">
        <ele>114.55500032</ele>
        <time>2020-08-02T07:19:36.000Z</time>
      </trkpt>
      <trkpt lat="43.53605" lon="3.80484">
        <ele>114.45500032</ele>
        <time>2020-08-02T07:19:37.000Z</time>
      </trkpt>
      <trkpt lat="43.53605" lon="3.8048">
        <ele>114.35500032</ele>
        <time>2020-08-02T07:19:38.000Z</time>
      </trkpt>
      <trkpt lat="43.53605" lon="3.80476">
        <ele>114.25500032</ele>
        <time>2020-08-02T07:19:39.000Z</time>
      </trkpt>
      <trkpt lat="43.53605" lon="3.80471">
        <ele>114.15500032</ele>
        <time>2020-08-02T07:19:40.000Z</time>
      </trkpt>
      <trkpt lat="43.53604" lon="3.80467">
        <ele>114.05500032</ele>
        <time>2020-08-02T07:19:41.000Z</time>
      </trkpt>
      <trkpt lat="43.53604" lon="3.80463">
        <ele>114</ele>
        <time>2020-08-02T07:19:42.000Z</time>
      </trkpt>
      <trkpt lat="43.53604" lon="3.80458">
        <ele>114</ele>
        <time>2020-08-02T07:19:43.000Z</time>
      </trkpt>
      <trkpt lat="43.53603" lon="3.80454">
        <ele>114</ele>
        <time>2020-08-02T07:19:44.000Z</time>
      </trkpt>
      <trkpt lat="43.53603" lon="3.80449">
        <ele>114</ele>
        <time>2020-08-02T07:19:45.000Z</time>
      </trkpt>
      <trkpt lat="43.53603" lon="3.80444">
        <ele>114</ele>
        <time>2020-08-02T07:19:46.000Z</time>
      </trkpt>
      <trkpt lat="43.53603" lon="3.80439">
        <ele>114</ele>
        <time>2020-08-02T07:19:47.000Z</time>
      </trkpt>
      <trkpt lat="43.53602" lon="3.80434">
        <ele>114</ele>
        <time>2020-08-02T07:19:48.000Z</time>
      </trkpt>
      <trkpt lat="43.53602" lon="3.80429">
        <ele>114</ele>
        <time>2020-08-02T07:19:49.000Z</time>
      </trkpt>
      <trkpt lat="43.53602" lon="3.80424">
        <ele>114</ele>
        <time>2020-08-02T07:19:50.000Z</time>
      </trkpt>
      <trkpt lat="43.53602" lon="3.80419">
        <ele>114</ele>
        <time>2020-08-02T07:19:51.000Z</time>
      </trkpt>
      <trkpt lat="43.53602" lon="3.80414">
        <ele>114</ele>
        <time>2020-08-02T07:19:52.000Z</time>
      </trkpt>
      <trkpt lat="43.53602" lon="3.80408">
        <ele>114</ele>
        <time>2020-08-02T07:19:53.000Z</time>
      </trkpt>
      <trkpt lat="43.53602" lon="3.80403">
        <ele>114</ele>
        <time>2020-08-02T07:19:54.000Z</time>
      </trkpt>
      <trkpt lat="43.53601" lon="3.80398">
        <ele>114</ele>
        <time>2020-08-02T07:19:55.000Z</time>
      </trkpt>
      <trkpt lat="43.53601" lon="3.80393">
        <ele>114</ele>
        <time>2020-08-02T07:19:56.000Z</time>
      </trkpt>
      <trkpt lat="43.53602" lon="3.80387">
        <ele>114</ele>
        <time>2020-08-02T07:19:57.000Z</time>
      </trkpt>
      <trkpt lat="43.53602" lon="3.80382">
        <ele>114</ele>
        <time>2020-08-02T07:19:58.000Z</time>
      </trkpt>
      <trkpt lat="43.53602" lon="3.80376">
        <ele>114</ele>
        <time>2020-08-02T07:19:59.000Z</time>
      </trkpt>
      <trkpt lat="43.53603" lon="3.80371">
        <ele>114</ele>
        <time>2020-08-02T07:20:00.000Z</time>
      </trkpt>
      <trkpt lat="43.53603" lon="3.80366">
        <ele>114</ele>
        <time>2020-08-02T07:20:01.000Z</time>
      </trkpt>
      <trkpt lat="43.53604" lon="3.80361">
        <ele>114</ele>
        <time>2020-08-02T07:20:02.000Z</time>
      </trkpt>
      <trkpt lat="43.53605" lon="3.80356">
        <ele>114</ele>
        <time>2020-08-02T07:20:03.000Z</time>
      </trkpt>
      <trkpt lat="43.53607" lon="3.8035">
        <ele>114</ele>
        <time>2020-08-02T07:20:04.000Z</time>
      </trkpt>
      <trkpt lat="43.53608" lon="3.80345">
        <ele>114</ele>
        <time>2020-08-02T07:20:05.000Z</time>
      </trkpt>
      <trkpt lat="43.5361" lon="3.8034">
        <ele>114</ele>
        <time>2020-08-02T07:20:06.000Z</time>
      </trkpt>
      <trkpt lat="43.53611" lon="3.80335">
        <ele>114</ele>
        <time>2020-08-02T07:20:07.000Z</time>
      </trkpt>
      <trkpt lat="43.53613" lon="3.8033">
        <ele>114</ele>
        <time>2020-08-02T07:20:08.000Z</time>
      </trkpt>
      <trkpt lat="43.53614" lon="3.80325">
        <ele>114</ele>
        <time>2020-08-02T07:20:09.000Z</time>
      </trkpt>
      <trkpt lat="43.53616" lon="3.80321">
        <ele>114</ele>
        <time>2020-08-02T07:20:10.000Z</time>
      </trkpt>
      <trkpt lat="43.53617" lon="3.80316">
        <ele>114</ele>
        <time>2020-08-02T07:20:11.000Z</time>
      </trkpt>
      <trkpt lat="43.53619" lon="3.80311">
        <ele>114.04499968</ele>
        <time>2020-08-02T07:20:12.000Z</time>
      </trkpt>
      <trkpt lat="43.5362" lon="3.80307">
        <ele>114.14499968</ele>
        <time>2020-08-02T07:20:13.000Z</time>
      </trkpt>
      <trkpt lat="43.53621" lon="3.80302">
        <ele>114.24499968</ele>
        <time>2020-08-02T07:20:14.000Z</time>
      </trkpt>
      <trkpt lat="43.53622" lon="3.80299">
        <ele>114.34499968</ele>
        <time>2020-08-02T07:20:15.000Z</time>
      </trkpt>
      <trkpt lat="43.53622" lon="3.80295">
        <ele>114.44499968</ele>
        <time>2020-08-02T07:20:16.000Z</time>
      </trkpt>
      <trkpt lat="43.53622" lon="3.80292">
        <ele>114.54499968</ele>
        <time>2020-08-02T07:20:17.000Z</time>
      </trkpt>
      <trkpt lat="43.53621" lon="3.8029">
        <ele>114.64499968</ele>
        <time>2020-08-02T07:20:18.000Z</time>
      </trkpt>
      <trkpt lat="43.5362" lon="3.80288">
        <ele>114.74499968</ele>
        <time>2020-08-02T07:20:19.000Z</time>
      </trkpt>
      <trkpt lat="43.53618" lon="3.80288">
        <ele>114.84499968</ele>
        <time>2020-08-02T07:20:20.000Z</time>
      </trkpt>
      <trkpt lat="43.53616" lon="3.80289">
        <ele>114.94499968</ele>
        <time>2020-08-02T07:20:21.000Z</time>
      </trkpt>
      <trkpt lat="43.53613" lon="3.80291">
        <ele>115.04499968</ele>
        <time>2020-08-02T07:20:22.000Z</time>
      </trkpt>
      <trkpt lat="43.53611" lon="3.80293">
        <ele>115.14499968</ele>
        <time>2020-08-02T07:20:23.000Z</time>
      </trkpt>
      <trkpt lat="43.53609" lon="3.80296">
        <ele>115.24499968</ele>
        <time>2020-08-02T07:20:24.000Z</time>
      </trkpt>
      <trkpt lat="43.53607" lon="3.80298">
        <ele>115.34499968</ele>
        <time>2020-08-02T07:20:25.000Z</time>
      </trkpt>
      <trkpt lat="43.53606" lon="3.80301">
        <ele>115.44499968</ele>
        <time>2020-08-02T07:20:26.000Z</time>
      </trkpt>
      <trkpt lat="43.53604" lon="3.80304">
        <ele>115.54499968</ele>
        <time>2020-08-02T07:20:27.000Z</time>
      </trkpt>
      <trkpt lat="43.53602" lon="3.80307">
        <ele>115.64499968</ele>
        <time>2020-08-02T07:20:28.000Z</time>
      </trkpt>
      <trkpt lat="43.536" lon="3.8031">
        <ele>115.74499968</ele>
        <time>2020-08-02T07:20:29.000Z</time>
      </trkpt>
      <trkpt lat="43.53599" lon="3.80313">
        <ele>115.84499968</ele>
        <time>2020-08-02T07:20:30.000Z</time>
      </trkpt>
      <trkpt lat="43.53597" lon="3.80316">
        <ele>115.94499968</ele>
        <time>2020-08-02T07:20:31.000Z</time>
      </trkpt>
      <trkpt lat="43.53596" lon="3.80319">
        <ele>116.08999936</ele>
        <time>2020-08-02T07:20:32.000Z</time>
      </trkpt>
      <trkpt lat="43.53594" lon="3.80321">
        <ele>116.28999936</ele>
        <time>2020-08-02T07:20:33.000Z</time>
      </trkpt>
      <trkpt lat="43.53592" lon="3.80324">
        <ele>116.48999936</ele>
        <time>2020-08-02T07:20:34.000Z</time>
      </trkpt>
      <trkpt lat="43.53591" lon="3.80327">
        <ele>116.68999936</ele>
        <time>2020-08-02T07:20:35.000Z</time>
      </trkpt>
      <trkpt lat="43.53589" lon="3.8033">
        <ele>116.88999936</ele>
        <time>2020-08-02T07:20:36.000Z</time>
      </trkpt>
      <trkpt lat="43.53587" lon="3.80332">
        <ele>117.08999936</ele>
        <time>2020-08-02T07:20:37.000Z</time>
      </trkpt>
      <trkpt lat="43.53586" lon="3.80334">
        <ele>117.28999936</ele>
        <time>2020-08-02T07:20:38.000Z</time>
      </trkpt>
      <trkpt lat="43.53584" lon="3.80337">
        <ele>117.48999936</ele>
        <time>2020-08-02T07:20:39.000Z</time>
      </trkpt>
      <trkpt lat="43.53582" lon="3.80339">
        <ele>117.68999936</ele>
        <time>2020-08-02T07:20:40.000Z</time>
      </trkpt>
      <trkpt lat="43.53581" lon="3.80341">
        <ele>117.88999936</ele>
        <time>2020-08-02T07:20:41.000Z</time>
      </trkpt>
      <trkpt lat="43.53579" lon="3.80343">
        <ele>118.04499968</ele>
        <time>2020-08-02T07:20:42.000Z</time>
      </trkpt>
      <trkpt lat="43.53577" lon="3.80346">
        <ele>118.14499968</ele>
        <time>2020-08-02T07:20:43.000Z</time>
      </trkpt>
      <trkpt lat="43.53575" lon="3.80348">
        <ele>118.24499968</ele>
        <time>2020-08-02T07:20:44.000Z</time>
      </trkpt>
      <trkpt lat="43.53573" lon="3.80351">
        <ele>118.34499968</ele>
        <time>2020-08-02T07:20:45.000Z</time>
      </trkpt>
      <trkpt lat="43.53571" lon="3.80354">
        <ele>118.44499968</ele>
        <time>2020-08-02T07:20:46.000Z</time>
      </trkpt>
      <trkpt lat="43.53569" lon="3.80356">
        <ele>118.54499968</ele>
        <time>2020-08-02T07:20:47.000Z</time>
      </trkpt>
      <trkpt lat="43.53567" lon="3.80358">
        <ele>118.64499968</ele>
        <time>2020-08-02T07:20:48.000Z</time>
      </trkpt>
      <trkpt lat="43.53565" lon="3.8036">
        <ele>118.74499968</ele>
        <time>2020-08-02T07:20:49.000Z</time>
      </trkpt>
      <trkpt lat="43.53563" lon="3.80361">
        <ele>118.84499968</ele>
        <time>2020-08-02T07:20:50.000Z</time>
      </trkpt>
      <trkpt lat="43.53561" lon="3.80363">
        <ele>118.94499968</ele>
        <time>2020-08-02T07:20:51.000Z</time>
      </trkpt>
      <trkpt lat="43.53559" lon="3.80365">
        <ele>119.04482039841</ele>
        <time>2020-08-02T07:20:52.000Z</time>
      </trkpt>
      <trkpt lat="43.53557" lon="3.80366">
        <ele>119.14442199203</ele>
        <time>2020-08-02T07:20:53.000Z</time>
      </trkpt>
      <trkpt lat="43.53555" lon="3.80366">
        <ele>119.24402358566</ele>
        <time>2020-08-02T07:20:54.000Z</time>
      </trkpt>
      <trkpt lat="43.53553" lon="3.80367">
        <ele>119.34362517928</ele>
        <time>2020-08-02T07:20:55.000Z</time>
      </trkpt>
      <trkpt lat="43.53551" lon="3.80368">
        <ele>119.44322677291</ele>
        <time>2020-08-02T07:20:56.000Z</time>
      </trkpt>
      <trkpt lat="43.53549" lon="3.80369">
        <ele>119.54282836653</ele>
        <time>2020-08-02T07:20:57.000Z</time>
      </trkpt>
      <trkpt lat="43.53546" lon="3.8037">
        <ele>119.64242996016</ele>
        <time>2020-08-02T07:20:58.000Z</time>
      </trkpt>
      <trkpt lat="43.53544" lon="3.8037">
        <ele>119.74203155378</ele>
        <time>2020-08-02T07:20:59.000Z</time>
      </trkpt>
      <trkpt lat="43.53542" lon="3.80371">
        <ele>119.84163314741</ele>
        <time>2020-08-02T07:21:00.000Z</time>
      </trkpt>
      <trkpt lat="43.5354" lon="3.80371">
        <ele>119.94123474104</ele>
        <time>2020-08-02T07:21:01.000Z</time>
      </trkpt>
      <trkpt lat="43.53538" lon="3.80371">
        <ele>120.04116433735</ele>
        <time>2020-08-02T07:21:02.000Z</time>
      </trkpt>
      <trkpt lat="43.53535" lon="3.8037">
        <ele>120.14156594378</ele>
        <time>2020-08-02T07:21:03.000Z</time>
      </trkpt>
      <trkpt lat="43.53533" lon="3.8037">
        <ele>120.2419675502</ele>
        <time>2020-08-02T07:21:04.000Z</time>
      </trkpt>
      <trkpt lat="43.53531" lon="3.8037">
        <ele>120.34236915663</ele>
        <time>2020-08-02T07:21:05.000Z</time>
      </trkpt>
      <trkpt lat="43.53527" lon="3.80369">
        <ele>120.54317236948</ele>
        <time>2020-08-02T07:21:07.000Z</time>
      </trkpt>
      <trkpt lat="43.53524" lon="3.80369">
        <ele>120.74397558233</ele>
        <time>2020-08-02T07:21:09.000Z</time>
      </trkpt>
      <trkpt lat="43.53521" lon="3.80368">
        <ele>120.84437718876</ele>
        <time>2020-08-02T07:21:10.000Z</time>
      </trkpt>
      <trkpt lat="43.53519" lon="3.80368">
        <ele>120.94477879518</ele>
        <time>2020-08-02T07:21:11.000Z</time>
      </trkpt>
      <trkpt lat="43.53516" lon="3.80367">
        <ele>120.95500032</ele>
        <time>2020-08-02T07:21:12.000Z</time>
      </trkpt>
      <trkpt lat="43.53513" lon="3.80367">
        <ele>120.85500032</ele>
        <time>2020-08-02T07:21:13.000Z</time>
      </trkpt>
      <trkpt lat="43.53509" lon="3.80365">
        <ele>120.75500032</ele>
        <time>2020-08-02T07:21:14.000Z</time>
      </trkpt>
      <trkpt lat="43.53505" lon="3.80363">
        <ele>120.65500032</ele>
        <time>2020-08-02T07:21:15.000Z</time>
      </trkpt>
      <trkpt lat="43.53502" lon="3.80361">
        <ele>120.55500032</ele>
        <time>2020-08-02T07:21:16.000Z</time>
      </trkpt>
      <trkpt lat="43.53499" lon="3.80358">
        <ele>120.45500032</ele>
        <time>2020-08-02T07:21:17.000Z</time>
      </trkpt>
      <trkpt lat="43.53495" lon="3.80355">
        <ele>120.35500032</ele>
        <time>2020-08-02T07:21:18.000Z</time>
      </trkpt>
      <trkpt lat="43.53491" lon="3.80352">
        <ele>120.25500032</ele>
        <time>2020-08-02T07:21:19.000Z</time>
      </trkpt>
      <trkpt lat="43.53487" lon="3.8035">
        <ele>120.15500032</ele>
        <time>2020-08-02T07:21:20.000Z</time>
      </trkpt>
      <trkpt lat="43.53483" lon="3.80347">
        <ele>120.05500032</ele>
        <time>2020-08-02T07:21:21.000Z</time>
      </trkpt>
      <trkpt lat="43.53479" lon="3.80344">
        <ele>119.95635332502</ele>
        <time>2020-08-02T07:21:22.000Z</time>
      </trkpt>
      <trkpt lat="43.53475" lon="3.80342">
        <ele>119.85936002423</ele>
        <time>2020-08-02T07:21:23.000Z</time>
      </trkpt>
      <trkpt lat="43.5347" lon="3.80339">
        <ele>119.76236672344</ele>
        <time>2020-08-02T07:21:24.000Z</time>
      </trkpt>
      <trkpt lat="43.53466" lon="3.80337">
        <ele>119.66537342266</ele>
        <time>2020-08-02T07:21:25.000Z</time>
      </trkpt>
      <trkpt lat="43.53462" lon="3.80336">
        <ele>119.56838012187</ele>
        <time>2020-08-02T07:21:26.000Z</time>
      </trkpt>
      <trkpt lat="43.53457" lon="3.80335">
        <ele>119.47138682108</ele>
        <time>2020-08-02T07:21:27.000Z</time>
      </trkpt>
      <trkpt lat="43.53452" lon="3.80334">
        <ele>119.37439352029</ele>
        <time>2020-08-02T07:21:28.000Z</time>
      </trkpt>
      <trkpt lat="43.53448" lon="3.80333">
        <ele>119.2774002195</ele>
        <time>2020-08-02T07:21:29.000Z</time>
      </trkpt>
      <trkpt lat="43.53443" lon="3.80333">
        <ele>119.18040691871</ele>
        <time>2020-08-02T07:21:30.000Z</time>
      </trkpt>
      <trkpt lat="43.53438" lon="3.80332">
        <ele>119.08341361792</ele>
        <time>2020-08-02T07:21:31.000Z</time>
      </trkpt>
      <trkpt lat="43.53433" lon="3.80332">
        <ele>118.95799808</ele>
        <time>2020-08-02T07:21:32.000Z</time>
      </trkpt>
      <trkpt lat="43.53428" lon="3.80331">
        <ele>118.65799808</ele>
        <time>2020-08-02T07:21:33.000Z</time>
      </trkpt>
      <trkpt lat="43.53423" lon="3.8033">
        <ele>118.35799808</ele>
        <time>2020-08-02T07:21:34.000Z</time>
      </trkpt>
      <trkpt lat="43.53418" lon="3.80327">
        <ele>118.05799808</ele>
        <time>2020-08-02T07:21:35.000Z</time>
      </trkpt>
      <trkpt lat="43.53413" lon="3.80325">
        <ele>117.75799808</ele>
        <time>2020-08-02T07:21:36.000Z</time>
      </trkpt>
      <trkpt lat="43.53409" lon="3.80321">
        <ele>117.45799808</ele>
        <time>2020-08-02T07:21:37.000Z</time>
      </trkpt>
      <trkpt lat="43.53405" lon="3.80318">
        <ele>117.15799808</ele>
        <time>2020-08-02T07:21:38.000Z</time>
      </trkpt>
      <trkpt lat="43.53401" lon="3.80313">
        <ele>116.85799808</ele>
        <time>2020-08-02T07:21:39.000Z</time>
      </trkpt>
      <trkpt lat="43.53399" lon="3.80308">
        <ele>116.55799808</ele>
        <time>2020-08-02T07:21:40.000Z</time>
      </trkpt>
      <trkpt lat="43.53396" lon="3.80302">
        <ele>116.25799808</ele>
        <time>2020-08-02T07:21:41.000Z</time>
      </trkpt>
      <trkpt lat="43.53394" lon="3.80297">
        <ele>115.97110293884</ele>
        <time>2020-08-02T07:21:42.000Z</time>
      </trkpt>
      <trkpt lat="43.53393" lon="3.80291">
        <ele>115.76470479451</ele>
        <time>2020-08-02T07:21:43.000Z</time>
      </trkpt>
      <trkpt lat="43.53391" lon="3.80286">
        <ele>115.55830665018</ele>
        <time>2020-08-02T07:21:44.000Z</time>
      </trkpt>
      <trkpt lat="43.5339" lon="3.8028">
        <ele>115.35190850585</ele>
        <time>2020-08-02T07:21:45.000Z</time>
      </trkpt>
      <trkpt lat="43.5339" lon="3.80274">
        <ele>115.14551036152</ele>
        <time>2020-08-02T07:21:46.000Z</time>
      </trkpt>
      <trkpt lat="43.53389" lon="3.80268">
        <ele>114.93911221718</ele>
        <time>2020-08-02T07:21:47.000Z</time>
      </trkpt>
      <trkpt lat="43.53389" lon="3.80262">
        <ele>114.73271407285</ele>
        <time>2020-08-02T07:21:48.000Z</time>
      </trkpt>
      <trkpt lat="43.53388" lon="3.80257">
        <ele>114.52631592852</ele>
        <time>2020-08-02T07:21:49.000Z</time>
      </trkpt>
      <trkpt lat="43.53388" lon="3.80253">
        <ele>114.31991778419</ele>
        <time>2020-08-02T07:21:50.000Z</time>
      </trkpt>
      <trkpt lat="43.53387" lon="3.80249">
        <ele>114.11351963986</ele>
        <time>2020-08-02T07:21:51.000Z</time>
      </trkpt>
      <trkpt lat="43.53385" lon="3.80247">
        <ele>113.91000064</ele>
        <time>2020-08-02T07:21:52.000Z</time>
      </trkpt>
      <trkpt lat="43.53383" lon="3.80246">
        <ele>113.71000064</ele>
        <time>2020-08-02T07:21:53.000Z</time>
      </trkpt>
      <trkpt lat="43.53381" lon="3.80247">
        <ele>113.51000064</ele>
        <time>2020-08-02T07:21:54.000Z</time>
      </trkpt>
      <trkpt lat="43.5338" lon="3.80249">
        <ele>113.31000064</ele>
        <time>2020-08-02T07:21:55.000Z</time>
      </trkpt>
      <trkpt lat="43.53378" lon="3.80253">
        <ele>113.11000064</ele>
        <time>2020-08-02T07:21:56.000Z</time>
      </trkpt>
      <trkpt lat="43.53377" lon="3.80258">
        <ele>112.91000064</ele>
        <time>2020-08-02T07:21:57.000Z</time>
      </trkpt>
      <trkpt lat="43.53376" lon="3.80265">
        <ele>112.71000064</ele>
        <time>2020-08-02T07:21:58.000Z</time>
      </trkpt>
      <trkpt lat="43.53375" lon="3.80271">
        <ele>112.51000064</ele>
        <time>2020-08-02T07:21:59.000Z</time>
      </trkpt>
      <trkpt lat="43.53375" lon="3.80278">
        <ele>112.31000064</ele>
        <time>2020-08-02T07:22:00.000Z</time>
      </trkpt>
      <trkpt lat="43.53374" lon="3.80285">
        <ele>112.11000064</ele>
        <time>2020-08-02T07:22:01.000Z</time>
      </trkpt>
      <trkpt lat="43.53373" lon="3.80291">
        <ele>111.91000064</ele>
        <time>2020-08-02T07:22:02.000Z</time>
      </trkpt>
      <trkpt lat="43.53372" lon="3.80298">
        <ele>111.71000064</ele>
        <time>2020-08-02T07:22:03.000Z</time>
      </trkpt>
      <trkpt lat="43.53372" lon="3.80306">
        <ele>111.51000064</ele>
        <time>2020-08-02T07:22:04.000Z</time>
      </trkpt>
      <trkpt lat="43.53373" lon="3.80314">
        <ele>111.31000064</ele>
        <time>2020-08-02T07:22:05.000Z</time>
      </trkpt>
      <trkpt lat="43.53373" lon="3.80321">
        <ele>111.11000064</ele>
        <time>2020-08-02T07:22:06.000Z</time>
      </trkpt>
      <trkpt lat="43.53375" lon="3.80328">
        <ele>110.91000064</ele>
        <time>2020-08-02T07:22:07.000Z</time>
      </trkpt>
      <trkpt lat="43.53377" lon="3.80335">
        <ele>110.71000064</ele>
        <time>2020-08-02T07:22:08.000Z</time>
      </trkpt>
      <trkpt lat="43.5338" lon="3.80342">
        <ele>110.51000064</ele>
        <time>2020-08-02T07:22:09.000Z</time>
      </trkpt>
      <trkpt lat="43.53382" lon="3.80347">
        <ele>110.31000064</ele>
        <time>2020-08-02T07:22:10.000Z</time>
      </trkpt>
      <trkpt lat="43.53383" lon="3.80352">
        <ele>110.11000064</ele>
        <time>2020-08-02T07:22:11.000Z</time>
      </trkpt>
      <trkpt lat="43.53382" lon="3.80356">
        <ele>109.91000064</ele>
        <time>2020-08-02T07:22:12.000Z</time>
      </trkpt>
      <trkpt lat="43.53381" lon="3.80359">
        <ele>109.71000064</ele>
        <time>2020-08-02T07:22:13.000Z</time>
      </trkpt>
      <trkpt lat="43.53378" lon="3.8036">
        <ele>109.51000064</ele>
        <time>2020-08-02T07:22:14.000Z</time>
      </trkpt>
      <trkpt lat="43.53374" lon="3.80359">
        <ele>109.31000064</ele>
        <time>2020-08-02T07:22:15.000Z</time>
      </trkpt>
      <trkpt lat="43.53371" lon="3.80356">
        <ele>109.11000064</ele>
        <time>2020-08-02T07:22:16.000Z</time>
      </trkpt>
      <trkpt lat="43.53368" lon="3.80352">
        <ele>108.91000064</ele>
        <time>2020-08-02T07:22:17.000Z</time>
      </trkpt>
      <trkpt lat="43.53366" lon="3.80347">
        <ele>108.71000064</ele>
        <time>2020-08-02T07:22:18.000Z</time>
      </trkpt>
      <trkpt lat="43.53364" lon="3.80341">
        <ele>108.51000064</ele>
        <time>2020-08-02T07:22:19.000Z</time>
      </trkpt>
      <trkpt lat="43.53362" lon="3.80335">
        <ele>108.31000064</ele>
        <time>2020-08-02T07:22:20.000Z</time>
      </trkpt>
      <trkpt lat="43.53361" lon="3.80329">
        <ele>108.11000064</ele>
        <time>2020-08-02T07:22:21.000Z</time>
      </trkpt>
      <trkpt lat="43.5336" lon="3.80323">
        <ele>107.82000128</ele>
        <time>2020-08-02T07:22:22.000Z</time>
      </trkpt>
      <trkpt lat="43.5336" lon="3.80317">
        <ele>107.42000128</ele>
        <time>2020-08-02T07:22:23.000Z</time>
      </trkpt>
      <trkpt lat="43.53359" lon="3.8031">
        <ele>107.02000128</ele>
        <time>2020-08-02T07:22:24.000Z</time>
      </trkpt>
      <trkpt lat="43.53359" lon="3.80304">
        <ele>106.62000128</ele>
        <time>2020-08-02T07:22:25.000Z</time>
      </trkpt>
      <trkpt lat="43.53358" lon="3.80297">
        <ele>106.22000128</ele>
        <time>2020-08-02T07:22:26.000Z</time>
      </trkpt>
      <trkpt lat="43.53358" lon="3.80289">
        <ele>105.82000128</ele>
        <time>2020-08-02T07:22:27.000Z</time>
      </trkpt>
      <trkpt lat="43.53357" lon="3.80282">
        <ele>105.42000128</ele>
        <time>2020-08-02T07:22:28.000Z</time>
      </trkpt>
      <trkpt lat="43.53357" lon="3.80275">
        <ele>105.02000128</ele>
        <time>2020-08-02T07:22:29.000Z</time>
      </trkpt>
      <trkpt lat="43.53357" lon="3.80268">
        <ele>104.62000128</ele>
        <time>2020-08-02T07:22:30.000Z</time>
      </trkpt>
      <trkpt lat="43.53357" lon="3.8026">
        <ele>104.22000128</ele>
        <time>2020-08-02T07:22:31.000Z</time>
      </trkpt>
      <trkpt lat="43.53356" lon="3.80253">
        <ele>103.82000128</ele>
        <time>2020-08-02T07:22:32.000Z</time>
      </trkpt>
      <trkpt lat="43.53356" lon="3.80245">
        <ele>103.42000128</ele>
        <time>2020-08-02T07:22:33.000Z</time>
      </trkpt>
      <trkpt lat="43.53355" lon="3.80238">
        <ele>103.02000128</ele>
        <time>2020-08-02T07:22:34.000Z</time>
      </trkpt>
      <trkpt lat="43.53355" lon="3.8023">
        <ele>102.62000128</ele>
        <time>2020-08-02T07:22:35.000Z</time>
      </trkpt>
      <trkpt lat="43.53354" lon="3.80223">
        <ele>102.22000128</ele>
        <time>2020-08-02T07:22:36.000Z</time>
      </trkpt>
      <trkpt lat="43.53354" lon="3.80215">
        <ele>101.82000128</ele>
        <time>2020-08-02T07:22:37.000Z</time>
      </trkpt>
      <trkpt lat="43.53353" lon="3.80208">
        <ele>101.42000128</ele>
        <time>2020-08-02T07:22:38.000Z</time>
      </trkpt>
      <trkpt lat="43.53353" lon="3.802">
        <ele>101.02000128</ele>
        <time>2020-08-02T07:22:39.000Z</time>
      </trkpt>
      <trkpt lat="43.53352" lon="3.80192">
        <ele>100.62000128</ele>
        <time>2020-08-02T07:22:40.000Z</time>
      </trkpt>
      <trkpt lat="43.53351" lon="3.80184">
        <ele>100.22000128</ele>
        <time>2020-08-02T07:22:41.000Z</time>
      </trkpt>
      <trkpt lat="43.5335" lon="3.80177">
        <ele>99.820360444142</ele>
        <time>2020-08-02T07:22:42.000Z</time>
      </trkpt>
      <trkpt lat="43.5335" lon="3.80169">
        <ele>99.421158592357</ele>
        <time>2020-08-02T07:22:43.000Z</time>
      </trkpt>
      <trkpt lat="43.53349" lon="3.80161">
        <ele>99.021956740571</ele>
        <time>2020-08-02T07:22:44.000Z</time>
      </trkpt>
      <trkpt lat="43.53349" lon="3.80153">
        <ele>98.622754888786</ele>
        <time>2020-08-02T07:22:45.000Z</time>
      </trkpt>
      <trkpt lat="43.53348" lon="3.80145">
        <ele>98.223553037</ele>
        <time>2020-08-02T07:22:46.000Z</time>
      </trkpt>
      <trkpt lat="43.53347" lon="3.80137">
        <ele>97.824351185214</ele>
        <time>2020-08-02T07:22:47.000Z</time>
      </trkpt>
      <trkpt lat="43.53346" lon="3.8013">
        <ele>97.425149333429</ele>
        <time>2020-08-02T07:22:48.000Z</time>
      </trkpt>
      <trkpt lat="43.53346" lon="3.80122">
        <ele>97.025947481643</ele>
        <time>2020-08-02T07:22:49.000Z</time>
      </trkpt>
      <trkpt lat="43.53345" lon="3.80114">
        <ele>96.626745629857</ele>
        <time>2020-08-02T07:22:50.000Z</time>
      </trkpt>
      <trkpt lat="43.53345" lon="3.80107">
        <ele>96.227543778072</ele>
        <time>2020-08-02T07:22:51.000Z</time>
      </trkpt>
      <trkpt lat="43.53344" lon="3.801">
        <ele>95.913913300849</ele>
        <time>2020-08-02T07:22:52.000Z</time>
      </trkpt>
      <trkpt lat="43.53344" lon="3.80092">
        <ele>95.713713164777</ele>
        <time>2020-08-02T07:22:53.000Z</time>
      </trkpt>
      <trkpt lat="43.53343" lon="3.80085">
        <ele>95.513513028704</ele>
        <time>2020-08-02T07:22:54.000Z</time>
      </trkpt>
      <trkpt lat="43.53342" lon="3.80077">
        <ele>95.313312892632</ele>
        <time>2020-08-02T07:22:55.000Z</time>
      </trkpt>
      <trkpt lat="43.53341" lon="3.8007">
        <ele>95.11311275656</ele>
        <time>2020-08-02T07:22:56.000Z</time>
      </trkpt>
      <trkpt lat="43.53339" lon="3.80062">
        <ele>94.912912620488</ele>
        <time>2020-08-02T07:22:57.000Z</time>
      </trkpt>
      <trkpt lat="43.53338" lon="3.80055">
        <ele>94.712712484416</ele>
        <time>2020-08-02T07:22:58.000Z</time>
      </trkpt>
      <trkpt lat="43.53336" lon="3.80048">
        <ele>94.512512348344</ele>
        <time>2020-08-02T07:22:59.000Z</time>
      </trkpt>
      <trkpt lat="43.53334" lon="3.80041">
        <ele>94.312312212272</ele>
        <time>2020-08-02T07:23:00.000Z</time>
      </trkpt>
      <trkpt lat="43.53332" lon="3.80036">
        <ele>94.1121120762</ele>
        <time>2020-08-02T07:23:01.000Z</time>
      </trkpt>
      <trkpt lat="43.5333" lon="3.80032">
        <ele>93.955955970064</ele>
        <time>2020-08-02T07:23:02.000Z</time>
      </trkpt>
      <trkpt lat="43.53327" lon="3.80029">
        <ele>93.855855902028</ele>
        <time>2020-08-02T07:23:03.000Z</time>
      </trkpt>
      <trkpt lat="43.53324" lon="3.80029">
        <ele>93.755755833992</ele>
        <time>2020-08-02T07:23:04.000Z</time>
      </trkpt>
      <trkpt lat="43.53322" lon="3.80031">
        <ele>93.655655765956</ele>
        <time>2020-08-02T07:23:05.000Z</time>
      </trkpt>
      <trkpt lat="43.5332" lon="3.80035">
        <ele>93.55555569792</ele>
        <time>2020-08-02T07:23:06.000Z</time>
      </trkpt>
      <trkpt lat="43.53319" lon="3.8004">
        <ele>93.455455629884</ele>
        <time>2020-08-02T07:23:07.000Z</time>
      </trkpt>
      <trkpt lat="43.53317" lon="3.80045">
        <ele>93.355355561848</ele>
        <time>2020-08-02T07:23:08.000Z</time>
      </trkpt>
      <trkpt lat="43.53316" lon="3.80051">
        <ele>93.255255493812</ele>
        <time>2020-08-02T07:23:09.000Z</time>
      </trkpt>
      <trkpt lat="43.53315" lon="3.80058">
        <ele>93.155155425776</ele>
        <time>2020-08-02T07:23:10.000Z</time>
      </trkpt>
      <trkpt lat="43.53314" lon="3.80064">
        <ele>93.05505535774</ele>
        <time>2020-08-02T07:23:11.000Z</time>
      </trkpt>
      <trkpt lat="43.53313" lon="3.8007">
        <ele>92.95500032</ele>
        <time>2020-08-02T07:23:12.000Z</time>
      </trkpt>
      <trkpt lat="43.53312" lon="3.80076">
        <ele>92.85500032</ele>
        <time>2020-08-02T07:23:13.000Z</time>
      </trkpt>
      <trkpt lat="43.5331" lon="3.80081">
        <ele>92.75500032</ele>
        <time>2020-08-02T07:23:14.000Z</time>
      </trkpt>
      <trkpt lat="43.53309" lon="3.80086">
        <ele>92.65500032</ele>
        <time>2020-08-02T07:23:15.000Z</time>
      </trkpt>
      <trkpt lat="43.53307" lon="3.80092">
        <ele>92.55500032</ele>
        <time>2020-08-02T07:23:16.000Z</time>
      </trkpt>
      <trkpt lat="43.53306" lon="3.80098">
        <ele>92.45500032</ele>
        <time>2020-08-02T07:23:17.000Z</time>
      </trkpt>
      <trkpt lat="43.53304" lon="3.80103">
        <ele>92.35500032</ele>
        <time>2020-08-02T07:23:18.000Z</time>
      </trkpt>
      <trkpt lat="43.53303" lon="3.80109">
        <ele>92.25500032</ele>
        <time>2020-08-02T07:23:19.000Z</time>
      </trkpt>
      <trkpt lat="43.53301" lon="3.80114">
        <ele>92.15500032</ele>
        <time>2020-08-02T07:23:20.000Z</time>
      </trkpt>
      <trkpt lat="43.533" lon="3.8012">
        <ele>92.05500032</ele>
        <time>2020-08-02T07:23:21.000Z</time>
      </trkpt>
      <trkpt lat="43.53298" lon="3.80126">
        <ele>92</ele>
        <time>2020-08-02T07:23:22.000Z</time>
      </trkpt>
      <trkpt lat="43.53297" lon="3.80131">
        <ele>92</ele>
        <time>2020-08-02T07:23:23.000Z</time>
      </trkpt>
      <trkpt lat="43.53295" lon="3.80137">
        <ele>92</ele>
        <time>2020-08-02T07:23:24.000Z</time>
      </trkpt>
      <trkpt lat="43.53293" lon="3.80143">
        <ele>92</ele>
        <time>2020-08-02T07:23:25.000Z</time>
      </trkpt>
      <trkpt lat="43.53291" lon="3.80148">
        <ele>92</ele>
        <time>2020-08-02T07:23:26.000Z</time>
      </trkpt>
      <trkpt lat="43.53289" lon="3.80153">
        <ele>92</ele>
        <time>2020-08-02T07:23:27.000Z</time>
      </trkpt>
      <trkpt lat="43.53287" lon="3.80159">
        <ele>92</ele>
        <time>2020-08-02T07:23:28.000Z</time>
      </trkpt>
      <trkpt lat="43.53285" lon="3.80164">
        <ele>92</ele>
        <time>2020-08-02T07:23:29.000Z</time>
      </trkpt>
      <trkpt lat="43.53283" lon="3.80169">
        <ele>92</ele>
        <time>2020-08-02T07:23:30.000Z</time>
      </trkpt>
      <trkpt lat="43.53281" lon="3.80175">
        <ele>92</ele>
        <time>2020-08-02T07:23:31.000Z</time>
      </trkpt>
      <trkpt lat="43.53279" lon="3.8018">
        <ele>91.956353325023</ele>
        <time>2020-08-02T07:23:32.000Z</time>
      </trkpt>
      <trkpt lat="43.53277" lon="3.80185">
        <ele>91.859360024234</ele>
        <time>2020-08-02T07:23:33.000Z</time>
      </trkpt>
      <trkpt lat="43.53275" lon="3.8019">
        <ele>91.762366723445</ele>
        <time>2020-08-02T07:23:34.000Z</time>
      </trkpt>
      <trkpt lat="43.53273" lon="3.80196">
        <ele>91.665373422656</ele>
        <time>2020-08-02T07:23:35.000Z</time>
      </trkpt>
      <trkpt lat="43.5327" lon="3.80201">
        <ele>91.568380121867</ele>
        <time>2020-08-02T07:23:36.000Z</time>
      </trkpt>
      <trkpt lat="43.53268" lon="3.80207">
        <ele>91.471386821078</ele>
        <time>2020-08-02T07:23:37.000Z</time>
      </trkpt>
      <trkpt lat="43.53265" lon="3.80212">
        <ele>91.374393520289</ele>
        <time>2020-08-02T07:23:38.000Z</time>
      </trkpt>
      <trkpt lat="43.53262" lon="3.80218">
        <ele>91.2774002195</ele>
        <time>2020-08-02T07:23:39.000Z</time>
      </trkpt>
      <trkpt lat="43.53259" lon="3.80223">
        <ele>91.180406918711</ele>
        <time>2020-08-02T07:23:40.000Z</time>
      </trkpt>
      <trkpt lat="43.53257" lon="3.80228">
        <ele>91.083413617921</ele>
        <time>2020-08-02T07:23:41.000Z</time>
      </trkpt>
      <trkpt lat="43.53254" lon="3.80233">
        <ele>91</ele>
        <time>2020-08-02T07:23:42.000Z</time>
      </trkpt>
      <trkpt lat="43.53251" lon="3.80237">
        <ele>91</ele>
        <time>2020-08-02T07:23:43.000Z</time>
      </trkpt>
      <trkpt lat="43.53248" lon="3.80241">
        <ele>91</ele>
        <time>2020-08-02T07:23:44.000Z</time>
      </trkpt>
      <trkpt lat="43.53245" lon="3.80245">
        <ele>91</ele>
        <time>2020-08-02T07:23:45.000Z</time>
      </trkpt>
      <trkpt lat="43.53242" lon="3.80249">
        <ele>91</ele>
        <time>2020-08-02T07:23:46.000Z</time>
      </trkpt>
      <trkpt lat="43.53239" lon="3.80253">
        <ele>91</ele>
        <time>2020-08-02T07:23:47.000Z</time>
      </trkpt>
      <trkpt lat="43.53235" lon="3.80257">
        <ele>91</ele>
        <time>2020-08-02T07:23:48.000Z</time>
      </trkpt>
      <trkpt lat="43.53232" lon="3.8026">
        <ele>91</ele>
        <time>2020-08-02T07:23:49.000Z</time>
      </trkpt>
      <trkpt lat="43.53228" lon="3.80263">
        <ele>91</ele>
        <time>2020-08-02T07:23:50.000Z</time>
      </trkpt>
      <trkpt lat="43.53225" lon="3.80266">
        <ele>91</ele>
        <time>2020-08-02T07:23:51.000Z</time>
      </trkpt>
      <trkpt lat="43.53221" lon="3.80269">
        <ele>91</ele>
        <time>2020-08-02T07:23:52.000Z</time>
      </trkpt>
      <trkpt lat="43.53217" lon="3.80271">
        <ele>91</ele>
        <time>2020-08-02T07:23:53.000Z</time>
      </trkpt>
      <trkpt lat="43.53213" lon="3.80273">
        <ele>91</ele>
        <time>2020-08-02T07:23:54.000Z</time>
      </trkpt>
      <trkpt lat="43.53208" lon="3.80274">
        <ele>91</ele>
        <time>2020-08-02T07:23:55.000Z</time>
      </trkpt>
      <trkpt lat="43.53204" lon="3.80276">
        <ele>91</ele>
        <time>2020-08-02T07:23:56.000Z</time>
      </trkpt>
      <trkpt lat="43.53199" lon="3.80276">
        <ele>91</ele>
        <time>2020-08-02T07:23:57.000Z</time>
      </trkpt>
      <trkpt lat="43.53195" lon="3.80277">
        <ele>91</ele>
        <time>2020-08-02T07:23:58.000Z</time>
      </trkpt>
      <trkpt lat="43.53191" lon="3.80277">
        <ele>91</ele>
        <time>2020-08-02T07:23:59.000Z</time>
      </trkpt>
      <trkpt lat="43.53186" lon="3.80276">
        <ele>91</ele>
        <time>2020-08-02T07:24:00.000Z</time>
      </trkpt>
      <trkpt lat="43.53182" lon="3.80274">
        <ele>91</ele>
        <time>2020-08-02T07:24:01.000Z</time>
      </trkpt>
      <trkpt lat="43.53178" lon="3.80272">
        <ele>90.956268518956</ele>
        <time>2020-08-02T07:24:02.000Z</time>
      </trkpt>
      <trkpt lat="43.53174" lon="3.80269">
        <ele>90.8590867589</ele>
        <time>2020-08-02T07:24:03.000Z</time>
      </trkpt>
      <trkpt lat="43.53169" lon="3.80266">
        <ele>90.761904998843</ele>
        <time>2020-08-02T07:24:04.000Z</time>
      </trkpt>
      <trkpt lat="43.53165" lon="3.80264">
        <ele>90.664723238787</ele>
        <time>2020-08-02T07:24:05.000Z</time>
      </trkpt>
      <trkpt lat="43.5316" lon="3.80262">
        <ele>90.56754147873</ele>
        <time>2020-08-02T07:24:06.000Z</time>
      </trkpt>
      <trkpt lat="43.53155" lon="3.80261">
        <ele>90.470359718674</ele>
        <time>2020-08-02T07:24:07.000Z</time>
      </trkpt>
      <trkpt lat="43.5315" lon="3.80261">
        <ele>90.373177958617</ele>
        <time>2020-08-02T07:24:08.000Z</time>
      </trkpt>
      <trkpt lat="43.53146" lon="3.80263">
        <ele>90.275996198561</ele>
        <time>2020-08-02T07:24:09.000Z</time>
      </trkpt>
      <trkpt lat="43.53142" lon="3.80265">
        <ele>90.178814438504</ele>
        <time>2020-08-02T07:24:10.000Z</time>
      </trkpt>
      <trkpt lat="43.53138" lon="3.80266">
        <ele>90.081632678448</ele>
        <time>2020-08-02T07:24:11.000Z</time>
      </trkpt>
      <trkpt lat="43.53134" lon="3.80268">
        <ele>90</ele>
        <time>2020-08-02T07:24:12.000Z</time>
      </trkpt>
      <trkpt lat="43.5313" lon="3.8027">
        <ele>90</ele>
        <time>2020-08-02T07:24:13.000Z</time>
      </trkpt>
      <trkpt lat="43.53126" lon="3.80272">
        <ele>90</ele>
        <time>2020-08-02T07:24:14.000Z</time>
      </trkpt>
      <trkpt lat="43.53122" lon="3.80273">
        <ele>90</ele>
        <time>2020-08-02T07:24:15.000Z</time>
      </trkpt>
      <trkpt lat="43.53117" lon="3.80275">
        <ele>90</ele>
        <time>2020-08-02T07:24:16.000Z</time>
      </trkpt>
      <trkpt lat="43.53113" lon="3.80275">
        <ele>90</ele>
        <time>2020-08-02T07:24:17.000Z</time>
      </trkpt>
      <trkpt lat="43.53109" lon="3.80276">
        <ele>90</ele>
        <time>2020-08-02T07:24:18.000Z</time>
      </trkpt>
      <trkpt lat="43.53104" lon="3.80277">
        <ele>90</ele>
        <time>2020-08-02T07:24:19.000Z</time>
      </trkpt>
      <trkpt lat="43.531" lon="3.80277">
        <ele>90</ele>
        <time>2020-08-02T07:24:20.000Z</time>
      </trkpt>
      <trkpt lat="43.53096" lon="3.80276">
        <ele>90</ele>
        <time>2020-08-02T07:24:21.000Z</time>
      </trkpt>
      <trkpt lat="43.53092" lon="3.80276">
        <ele>90</ele>
        <time>2020-08-02T07:24:22.000Z</time>
      </trkpt>
      <trkpt lat="43.53089" lon="3.80275">
        <ele>90</ele>
        <time>2020-08-02T07:24:23.000Z</time>
      </trkpt>
      <trkpt lat="43.53086" lon="3.80274">
        <ele>90</ele>
        <time>2020-08-02T07:24:24.000Z</time>
      </trkpt>
      <trkpt lat="43.53082" lon="3.80273">
        <ele>90</ele>
        <time>2020-08-02T07:24:25.000Z</time>
      </trkpt>
      <trkpt lat="43.53079" lon="3.80272">
        <ele>90</ele>
        <time>2020-08-02T07:24:26.000Z</time>
      </trkpt>
      <trkpt lat="43.53076" lon="3.80271">
        <ele>90</ele>
        <time>2020-08-02T07:24:27.000Z</time>
      </trkpt>
      <trkpt lat="43.53073" lon="3.80269">
        <ele>90</ele>
        <time>2020-08-02T07:24:28.000Z</time>
      </trkpt>
      <trkpt lat="43.5307" lon="3.80267">
        <ele>90</ele>
        <time>2020-08-02T07:24:29.000Z</time>
      </trkpt>
      <trkpt lat="43.53067" lon="3.80265">
        <ele>90</ele>
        <time>2020-08-02T07:24:30.000Z</time>
      </trkpt>
      <trkpt lat="43.53064" lon="3.80262">
        <ele>90</ele>
        <time>2020-08-02T07:24:31.000Z</time>
      </trkpt>
      <trkpt lat="43.53062" lon="3.8026">
        <ele>89.887822699805</ele>
        <time>2020-08-02T07:24:32.000Z</time>
      </trkpt>
      <trkpt lat="43.53059" lon="3.80257">
        <ele>89.600190956797</ele>
        <time>2020-08-02T07:24:33.000Z</time>
      </trkpt>
      <trkpt lat="43.53056" lon="3.80254">
        <ele>89.312559213788</ele>
        <time>2020-08-02T07:24:34.000Z</time>
      </trkpt>
      <trkpt lat="43.53053" lon="3.80251">
        <ele>89.02492747078</ele>
        <time>2020-08-02T07:24:35.000Z</time>
      </trkpt>
      <trkpt lat="43.5305" lon="3.80248">
        <ele>88.737295727771</ele>
        <time>2020-08-02T07:24:36.000Z</time>
      </trkpt>
      <trkpt lat="43.53047" lon="3.80244">
        <ele>88.449663984763</ele>
        <time>2020-08-02T07:24:37.000Z</time>
      </trkpt>
      <trkpt lat="43.53044" lon="3.80241">
        <ele>88.162032241754</ele>
        <time>2020-08-02T07:24:38.000Z</time>
      </trkpt>
      <trkpt lat="43.5304" lon="3.80237">
        <ele>87.874400498746</ele>
        <time>2020-08-02T07:24:39.000Z</time>
      </trkpt>
      <trkpt lat="43.53037" lon="3.80233">
        <ele>87.586768755737</ele>
        <time>2020-08-02T07:24:40.000Z</time>
      </trkpt>
      <trkpt lat="43.53033" lon="3.80228">
        <ele>87.299137012729</ele>
        <time>2020-08-02T07:24:41.000Z</time>
      </trkpt>
      <trkpt lat="43.5303" lon="3.80223">
        <ele>87.01150526972</ele>
        <time>2020-08-02T07:24:42.000Z</time>
      </trkpt>
      <trkpt lat="43.53026" lon="3.80217">
        <ele>86.798319327731</ele>
        <time>2020-08-02T07:24:43.000Z</time>
      </trkpt>
      <trkpt lat="43.53023" lon="3.8021">
        <ele>86.588235294118</ele>
        <time>2020-08-02T07:24:44.000Z</time>
      </trkpt>
      <trkpt lat="43.53019" lon="3.80202">
        <ele>86.378151260504</ele>
        <time>2020-08-02T07:24:45.000Z</time>
      </trkpt>
      <trkpt lat="43.53016" lon="3.80195">
        <ele>86.168067226891</ele>
        <time>2020-08-02T07:24:46.000Z</time>
      </trkpt>
      <trkpt lat="43.53013" lon="3.80187">
        <ele>85.957983193277</ele>
        <time>2020-08-02T07:24:47.000Z</time>
      </trkpt>
      <trkpt lat="43.5301" lon="3.80179">
        <ele>85.747899159664</ele>
        <time>2020-08-02T07:24:48.000Z</time>
      </trkpt>
      <trkpt lat="43.53007" lon="3.80172">
        <ele>85.53781512605</ele>
        <time>2020-08-02T07:24:49.000Z</time>
      </trkpt>
      <trkpt lat="43.53003" lon="3.80166">
        <ele>85.327731092437</ele>
        <time>2020-08-02T07:24:50.000Z</time>
      </trkpt>
      <trkpt lat="43.52998" lon="3.80162">
        <ele>85.117647058823</ele>
        <time>2020-08-02T07:24:51.000Z</time>
      </trkpt>
      <trkpt lat="43.52992" lon="3.80161">
        <ele>84.955955970064</ele>
        <time>2020-08-02T07:24:52.000Z</time>
      </trkpt>
      <trkpt lat="43.52987" lon="3.80162">
        <ele>84.855855902028</ele>
        <time>2020-08-02T07:24:53.000Z</time>
      </trkpt>
      <trkpt lat="43.52983" lon="3.80165">
        <ele>84.755755833992</ele>
        <time>2020-08-02T07:24:54.000Z</time>
      </trkpt>
      <trkpt lat="43.52979" lon="3.80168">
        <ele>84.655655765956</ele>
        <time>2020-08-02T07:24:55.000Z</time>
      </trkpt>
      <trkpt lat="43.52975" lon="3.80172">
        <ele>84.55555569792</ele>
        <time>2020-08-02T07:24:56.000Z</time>
      </trkpt>
      <trkpt lat="43.52971" lon="3.80175">
        <ele>84.455455629884</ele>
        <time>2020-08-02T07:24:57.000Z</time>
      </trkpt>
      <trkpt lat="43.52968" lon="3.80179">
        <ele>84.355355561848</ele>
        <time>2020-08-02T07:24:58.000Z</time>
      </trkpt>
      <trkpt lat="43.52964" lon="3.80183">
        <ele>84.255255493812</ele>
        <time>2020-08-02T07:24:59.000Z</time>
      </trkpt>
      <trkpt lat="43.52961" lon="3.80186">
        <ele>84.155155425776</ele>
        <time>2020-08-02T07:25:00.000Z</time>
      </trkpt>
      <trkpt lat="43.52957" lon="3.80189">
        <ele>84.05505535774</ele>
        <time>2020-08-02T07:25:01.000Z</time>
      </trkpt>
      <trkpt lat="43.52953" lon="3.80193">
        <ele>83.91000064</ele>
        <time>2020-08-02T07:25:02.000Z</time>
      </trkpt>
      <trkpt lat="43.52949" lon="3.80196">
        <ele>83.71000064</ele>
        <time>2020-08-02T07:25:03.000Z</time>
      </trkpt>
      <trkpt lat="43.52945" lon="3.80198">
        <ele>83.51000064</ele>
        <time>2020-08-02T07:25:04.000Z</time>
      </trkpt>
      <trkpt lat="43.5294" lon="3.80201">
        <ele>83.31000064</ele>
        <time>2020-08-02T07:25:05.000Z</time>
      </trkpt>
      <trkpt lat="43.52936" lon="3.80203">
        <ele>83.11000064</ele>
        <time>2020-08-02T07:25:06.000Z</time>
      </trkpt>
      <trkpt lat="43.52931" lon="3.80205">
        <ele>82.91000064</ele>
        <time>2020-08-02T07:25:07.000Z</time>
      </trkpt>
      <trkpt lat="43.52925" lon="3.80207">
        <ele>82.71000064</ele>
        <time>2020-08-02T07:25:08.000Z</time>
      </trkpt>
      <trkpt lat="43.5292" lon="3.80208">
        <ele>82.51000064</ele>
        <time>2020-08-02T07:25:09.000Z</time>
      </trkpt>
      <trkpt lat="43.52914" lon="3.8021">
        <ele>82.31000064</ele>
        <time>2020-08-02T07:25:10.000Z</time>
      </trkpt>
      <trkpt lat="43.52908" lon="3.80211">
        <ele>82.11000064</ele>
        <time>2020-08-02T07:25:11.000Z</time>
      </trkpt>
      <trkpt lat="43.52902" lon="3.80211">
        <ele>81.73000192</ele>
        <time>2020-08-02T07:25:12.000Z</time>
      </trkpt>
      <trkpt lat="43.52897" lon="3.80211">
        <ele>81.13000192</ele>
        <time>2020-08-02T07:25:13.000Z</time>
      </trkpt>
      <trkpt lat="43.52892" lon="3.8021">
        <ele>80.53000192</ele>
        <time>2020-08-02T07:25:14.000Z</time>
      </trkpt>
      <trkpt lat="43.52887" lon="3.80208">
        <ele>79.93000192</ele>
        <time>2020-08-02T07:25:15.000Z</time>
      </trkpt>
      <trkpt lat="43.52882" lon="3.80205">
        <ele>79.33000192</ele>
        <time>2020-08-02T07:25:16.000Z</time>
      </trkpt>
      <trkpt lat="43.52876" lon="3.80201">
        <ele>78.73000192</ele>
        <time>2020-08-02T07:25:17.000Z</time>
      </trkpt>
      <trkpt lat="43.52869" lon="3.80198">
        <ele>78.13000192</ele>
        <time>2020-08-02T07:25:18.000Z</time>
      </trkpt>
      <trkpt lat="43.52862" lon="3.80195">
        <ele>77.53000192</ele>
        <time>2020-08-02T07:25:19.000Z</time>
      </trkpt>
      <trkpt lat="43.52855" lon="3.80193">
        <ele>76.93000192</ele>
        <time>2020-08-02T07:25:20.000Z</time>
      </trkpt>
      <trkpt lat="43.52848" lon="3.8019">
        <ele>76.33000192</ele>
        <time>2020-08-02T07:25:21.000Z</time>
      </trkpt>
      <trkpt lat="43.5284" lon="3.80187">
        <ele>76.04499968</ele>
        <time>2020-08-02T07:25:22.000Z</time>
      </trkpt>
      <trkpt lat="43.52832" lon="3.80184">
        <ele>76.14499968</ele>
        <time>2020-08-02T07:25:23.000Z</time>
      </trkpt>
      <trkpt lat="43.52824" lon="3.80181">
        <ele>76.24499968</ele>
        <time>2020-08-02T07:25:24.000Z</time>
      </trkpt>
      <trkpt lat="43.52817" lon="3.80178">
        <ele>76.34499968</ele>
        <time>2020-08-02T07:25:25.000Z</time>
      </trkpt>
      <trkpt lat="43.52811" lon="3.80175">
        <ele>76.44499968</ele>
        <time>2020-08-02T07:25:26.000Z</time>
      </trkpt>
      <trkpt lat="43.52805" lon="3.80173">
        <ele>76.54499968</ele>
        <time>2020-08-02T07:25:27.000Z</time>
      </trkpt>
      <trkpt lat="43.52799" lon="3.80171">
        <ele>76.64499968</ele>
        <time>2020-08-02T07:25:28.000Z</time>
      </trkpt>
      <trkpt lat="43.52794" lon="3.80169">
        <ele>76.74499968</ele>
        <time>2020-08-02T07:25:29.000Z</time>
      </trkpt>
      <trkpt lat="43.52789" lon="3.80168">
        <ele>76.84499968</ele>
        <time>2020-08-02T07:25:30.000Z</time>
      </trkpt>
      <trkpt lat="43.52784" lon="3.80167">
        <ele>76.94499968</ele>
        <time>2020-08-02T07:25:31.000Z</time>
      </trkpt>
      <trkpt lat="43.52779" lon="3.80166">
        <ele>77</ele>
        <time>2020-08-02T07:25:32.000Z</time>
      </trkpt>
      <trkpt lat="43.52774" lon="3.80166">
        <ele>77</ele>
        <time>2020-08-02T07:25:33.000Z</time>
      </trkpt>
      <trkpt lat="43.5277" lon="3.80165">
        <ele>77</ele>
        <time>2020-08-02T07:25:34.000Z</time>
      </trkpt>
      <trkpt lat="43.52765" lon="3.80163">
        <ele>77</ele>
        <time>2020-08-02T07:25:35.000Z</time>
      </trkpt>
      <trkpt lat="43.52761" lon="3.80162">
        <ele>77</ele>
        <time>2020-08-02T07:25:36.000Z</time>
      </trkpt>
      <trkpt lat="43.52756" lon="3.8016">
        <ele>77</ele>
        <time>2020-08-02T07:25:37.000Z</time>
      </trkpt>
      <trkpt lat="43.52752" lon="3.80158">
        <ele>77</ele>
        <time>2020-08-02T07:25:38.000Z</time>
      </trkpt>
      <trkpt lat="43.52748" lon="3.80156">
        <ele>77</ele>
        <time>2020-08-02T07:25:39.000Z</time>
      </trkpt>
      <trkpt lat="43.52744" lon="3.80154">
        <ele>77</ele>
        <time>2020-08-02T07:25:40.000Z</time>
      </trkpt>
      <trkpt lat="43.5274" lon="3.80152">
        <ele>77</ele>
        <time>2020-08-02T07:25:41.000Z</time>
      </trkpt>
      <trkpt lat="43.52737" lon="3.80151">
        <ele>76.91000064</ele>
        <time>2020-08-02T07:25:42.000Z</time>
      </trkpt>
      <trkpt lat="43.52733" lon="3.80148">
        <ele>76.71000064</ele>
        <time>2020-08-02T07:25:43.000Z</time>
      </trkpt>
      <trkpt lat="43.52729" lon="3.80147">
        <ele>76.51000064</ele>
        <time>2020-08-02T07:25:44.000Z</time>
      </trkpt>
      <trkpt lat="43.52726" lon="3.80146">
        <ele>76.31000064</ele>
        <time>2020-08-02T07:25:45.000Z</time>
      </trkpt>
      <trkpt lat="43.52722" lon="3.80146">
        <ele>76.11000064</ele>
        <time>2020-08-02T07:25:46.000Z</time>
      </trkpt>
      <trkpt lat="43.52718" lon="3.80146">
        <ele>75.91000064</ele>
        <time>2020-08-02T07:25:47.000Z</time>
      </trkpt>
      <trkpt lat="43.52715" lon="3.80147">
        <ele>75.71000064</ele>
        <time>2020-08-02T07:25:48.000Z</time>
      </trkpt>
      <trkpt lat="43.52712" lon="3.80149">
        <ele>75.51000064</ele>
        <time>2020-08-02T07:25:49.000Z</time>
      </trkpt>
      <trkpt lat="43.52709" lon="3.80152">
        <ele>75.31000064</ele>
        <time>2020-08-02T07:25:50.000Z</time>
      </trkpt>
      <trkpt lat="43.52707" lon="3.80158">
        <ele>75.11000064</ele>
        <time>2020-08-02T07:25:51.000Z</time>
      </trkpt>
      <trkpt lat="43.52706" lon="3.80164">
        <ele>74.694473275164</ele>
        <time>2020-08-02T07:25:52.000Z</time>
      </trkpt>
      <trkpt lat="43.52706" lon="3.80172">
        <ele>74.01552016964</ele>
        <time>2020-08-02T07:25:53.000Z</time>
      </trkpt>
      <trkpt lat="43.52706" lon="3.80181">
        <ele>73.336567064117</ele>
        <time>2020-08-02T07:25:54.000Z</time>
      </trkpt>
      <trkpt lat="43.52707" lon="3.8019">
        <ele>72.657613958593</ele>
        <time>2020-08-02T07:25:55.000Z</time>
      </trkpt>
      <trkpt lat="43.52707" lon="3.80201">
        <ele>71.978660853069</ele>
        <time>2020-08-02T07:25:56.000Z</time>
      </trkpt>
      <trkpt lat="43.52707" lon="3.80212">
        <ele>71.299707747545</ele>
        <time>2020-08-02T07:25:57.000Z</time>
      </trkpt>
      <trkpt lat="43.52708" lon="3.80224">
        <ele>70.620754642022</ele>
        <time>2020-08-02T07:25:58.000Z</time>
      </trkpt>
      <trkpt lat="43.52709" lon="3.80237">
        <ele>69.941801536498</ele>
        <time>2020-08-02T07:25:59.000Z</time>
      </trkpt>
      <trkpt lat="43.52709" lon="3.8025">
        <ele>69.262848430974</ele>
        <time>2020-08-02T07:26:00.000Z</time>
      </trkpt>
      <trkpt lat="43.5271" lon="3.80264">
        <ele>68.58389532545</ele>
        <time>2020-08-02T07:26:01.000Z</time>
      </trkpt>
      <trkpt lat="43.5271" lon="3.80279">
        <ele>67.873868148511</ele>
        <time>2020-08-02T07:26:02.000Z</time>
      </trkpt>
      <trkpt lat="43.52711" lon="3.80294">
        <ele>66.972967536187</ele>
        <time>2020-08-02T07:26:03.000Z</time>
      </trkpt>
      <trkpt lat="43.52711" lon="3.8031">
        <ele>66.072066923862</ele>
        <time>2020-08-02T07:26:04.000Z</time>
      </trkpt>
      <trkpt lat="43.52712" lon="3.80326">
        <ele>65.171166311538</ele>
        <time>2020-08-02T07:26:05.000Z</time>
      </trkpt>
      <trkpt lat="43.52712" lon="3.80343">
        <ele>64.270265699214</ele>
        <time>2020-08-02T07:26:06.000Z</time>
      </trkpt>
      <trkpt lat="43.52712" lon="3.8036">
        <ele>63.36936508689</ele>
        <time>2020-08-02T07:26:07.000Z</time>
      </trkpt>
      <trkpt lat="43.52713" lon="3.80376">
        <ele>62.468464474566</ele>
        <time>2020-08-02T07:26:08.000Z</time>
      </trkpt>
      <trkpt lat="43.52713" lon="3.80393">
        <ele>61.567563862242</ele>
        <time>2020-08-02T07:26:09.000Z</time>
      </trkpt>
      <trkpt lat="43.52713" lon="3.80409">
        <ele>60.666663249918</ele>
        <time>2020-08-02T07:26:10.000Z</time>
      </trkpt>
      <trkpt lat="43.52714" lon="3.80425">
        <ele>59.765762637594</ele>
        <time>2020-08-02T07:26:11.000Z</time>
      </trkpt>
      <trkpt lat="43.52715" lon="3.80442">
        <ele>59.015464237219</ele>
        <time>2020-08-02T07:26:12.000Z</time>
      </trkpt>
      <trkpt lat="43.52715" lon="3.80458">
        <ele>59.118556952705</ele>
        <time>2020-08-02T07:26:13.000Z</time>
      </trkpt>
      <trkpt lat="43.52716" lon="3.80474">
        <ele>59.22164966819</ele>
        <time>2020-08-02T07:26:14.000Z</time>
      </trkpt>
      <trkpt lat="43.52716" lon="3.8049">
        <ele>59.324742383675</ele>
        <time>2020-08-02T07:26:15.000Z</time>
      </trkpt>
      <trkpt lat="43.52717" lon="3.80505">
        <ele>59.42783509916</ele>
        <time>2020-08-02T07:26:16.000Z</time>
      </trkpt>
      <trkpt lat="43.52717" lon="3.8052">
        <ele>59.530927814646</ele>
        <time>2020-08-02T07:26:17.000Z</time>
      </trkpt>
      <trkpt lat="43.52718" lon="3.80533">
        <ele>59.634020530131</ele>
        <time>2020-08-02T07:26:18.000Z</time>
      </trkpt>
      <trkpt lat="43.52718" lon="3.80545">
        <ele>59.737113245616</ele>
        <time>2020-08-02T07:26:19.000Z</time>
      </trkpt>
      <trkpt lat="43.52719" lon="3.80556">
        <ele>59.840205961101</ele>
        <time>2020-08-02T07:26:20.000Z</time>
      </trkpt>
      <trkpt lat="43.52719" lon="3.80566">
        <ele>59.943298676586</ele>
        <time>2020-08-02T07:26:21.000Z</time>
      </trkpt>
      <trkpt lat="43.52719" lon="3.80575">
        <ele>60.04499968</ele>
        <time>2020-08-02T07:26:22.000Z</time>
      </trkpt>
      <trkpt lat="43.52719" lon="3.80584">
        <ele>60.14499968</ele>
        <time>2020-08-02T07:26:23.000Z</time>
      </trkpt>
      <trkpt lat="43.52719" lon="3.80592">
        <ele>60.24499968</ele>
        <time>2020-08-02T07:26:24.000Z</time>
      </trkpt>
      <trkpt lat="43.52719" lon="3.80601">
        <ele>60.34499968</ele>
        <time>2020-08-02T07:26:25.000Z</time>
      </trkpt>
      <trkpt lat="43.52719" lon="3.80609">
        <ele>60.44499968</ele>
        <time>2020-08-02T07:26:26.000Z</time>
      </trkpt>
      <trkpt lat="43.5272" lon="3.80617">
        <ele>60.54499968</ele>
        <time>2020-08-02T07:26:27.000Z</time>
      </trkpt>
      <trkpt lat="43.5272" lon="3.80625">
        <ele>60.64499968</ele>
        <time>2020-08-02T07:26:28.000Z</time>
      </trkpt>
      <trkpt lat="43.5272" lon="3.80632">
        <ele>60.74499968</ele>
        <time>2020-08-02T07:26:29.000Z</time>
      </trkpt>
      <trkpt lat="43.5272" lon="3.8064">
        <ele>60.84499968</ele>
        <time>2020-08-02T07:26:30.000Z</time>
      </trkpt>
      <trkpt lat="43.52721" lon="3.80647">
        <ele>60.94499968</ele>
        <time>2020-08-02T07:26:31.000Z</time>
      </trkpt>
      <trkpt lat="43.52721" lon="3.80655">
        <ele>61.04499968</ele>
        <time>2020-08-02T07:26:32.000Z</time>
      </trkpt>
      <trkpt lat="43.52721" lon="3.80662">
        <ele>61.14499968</ele>
        <time>2020-08-02T07:26:33.000Z</time>
      </trkpt>
      <trkpt lat="43.52722" lon="3.80669">
        <ele>61.24499968</ele>
        <time>2020-08-02T07:26:34.000Z</time>
      </trkpt>
      <trkpt lat="43.52722" lon="3.80675">
        <ele>61.34499968</ele>
        <time>2020-08-02T07:26:35.000Z</time>
      </trkpt>
      <trkpt lat="43.52722" lon="3.80682">
        <ele>61.44499968</ele>
        <time>2020-08-02T07:26:36.000Z</time>
      </trkpt>
      <trkpt lat="43.52723" lon="3.80689">
        <ele>61.54499968</ele>
        <time>2020-08-02T07:26:37.000Z</time>
      </trkpt>
      <trkpt lat="43.52723" lon="3.80695">
        <ele>61.64499968</ele>
        <time>2020-08-02T07:26:38.000Z</time>
      </trkpt>
      <trkpt lat="43.52724" lon="3.80702">
        <ele>61.74499968</ele>
        <time>2020-08-02T07:26:39.000Z</time>
      </trkpt>
      <trkpt lat="43.52724" lon="3.80708">
        <ele>61.84499968</ele>
        <time>2020-08-02T07:26:40.000Z</time>
      </trkpt>
      <trkpt lat="43.52724" lon="3.80715">
        <ele>61.94499968</ele>
        <time>2020-08-02T07:26:41.000Z</time>
      </trkpt>
      <trkpt lat="43.52724" lon="3.80721">
        <ele>62</ele>
        <time>2020-08-02T07:26:42.000Z</time>
      </trkpt>
      <trkpt lat="43.52724" lon="3.80728">
        <ele>62</ele>
        <time>2020-08-02T07:26:43.000Z</time>
      </trkpt>
      <trkpt lat="43.52724" lon="3.80735">
        <ele>62</ele>
        <time>2020-08-02T07:26:44.000Z</time>
      </trkpt>
      <trkpt lat="43.52724" lon="3.80741">
        <ele>62</ele>
        <time>2020-08-02T07:26:45.000Z</time>
      </trkpt>
      <trkpt lat="43.52724" lon="3.80747">
        <ele>62</ele>
        <time>2020-08-02T07:26:46.000Z</time>
      </trkpt>
      <trkpt lat="43.52724" lon="3.80754">
        <ele>62</ele>
        <time>2020-08-02T07:26:47.000Z</time>
      </trkpt>
      <trkpt lat="43.52724" lon="3.8076">
        <ele>62</ele>
        <time>2020-08-02T07:26:48.000Z</time>
      </trkpt>
      <trkpt lat="43.52725" lon="3.80766">
        <ele>62</ele>
        <time>2020-08-02T07:26:49.000Z</time>
      </trkpt>
      <trkpt lat="43.52725" lon="3.80772">
        <ele>62</ele>
        <time>2020-08-02T07:26:50.000Z</time>
      </trkpt>
      <trkpt lat="43.52725" lon="3.80779">
        <ele>62</ele>
        <time>2020-08-02T07:26:51.000Z</time>
      </trkpt>
      <trkpt lat="43.52725" lon="3.80785">
        <ele>62</ele>
        <time>2020-08-02T07:26:52.000Z</time>
      </trkpt>
      <trkpt lat="43.52725" lon="3.80792">
        <ele>62</ele>
        <time>2020-08-02T07:26:53.000Z</time>
      </trkpt>
      <trkpt lat="43.52725" lon="3.80798">
        <ele>62</ele>
        <time>2020-08-02T07:26:54.000Z</time>
      </trkpt>
      <trkpt lat="43.52726" lon="3.80805">
        <ele>62</ele>
        <time>2020-08-02T07:26:55.000Z</time>
      </trkpt>
      <trkpt lat="43.52726" lon="3.80812">
        <ele>62</ele>
        <time>2020-08-02T07:26:56.000Z</time>
      </trkpt>
      <trkpt lat="43.52726" lon="3.80819">
        <ele>62</ele>
        <time>2020-08-02T07:26:57.000Z</time>
      </trkpt>
      <trkpt lat="43.52727" lon="3.80825">
        <ele>62</ele>
        <time>2020-08-02T07:26:58.000Z</time>
      </trkpt>
      <trkpt lat="43.52727" lon="3.80832">
        <ele>62</ele>
        <time>2020-08-02T07:26:59.000Z</time>
      </trkpt>
      <trkpt lat="43.52727" lon="3.80839">
        <ele>62</ele>
        <time>2020-08-02T07:27:00.000Z</time>
      </trkpt>
      <trkpt lat="43.52727" lon="3.80846">
        <ele>62</ele>
        <time>2020-08-02T07:27:01.000Z</time>
      </trkpt>
      <trkpt lat="43.52727" lon="3.80853">
        <ele>61.95500032</ele>
        <time>2020-08-02T07:27:02.000Z</time>
      </trkpt>
      <trkpt lat="43.52727" lon="3.8086">
        <ele>61.85500032</ele>
        <time>2020-08-02T07:27:03.000Z</time>
      </trkpt>
      <trkpt lat="43.52727" lon="3.80867">
        <ele>61.75500032</ele>
        <time>2020-08-02T07:27:04.000Z</time>
      </trkpt>
      <trkpt lat="43.52727" lon="3.80874">
        <ele>61.65500032</ele>
        <time>2020-08-02T07:27:05.000Z</time>
      </trkpt>
      <trkpt lat="43.52727" lon="3.80882">
        <ele>61.55500032</ele>
        <time>2020-08-02T07:27:06.000Z</time>
      </trkpt>
      <trkpt lat="43.52728" lon="3.80889">
        <ele>61.45500032</ele>
        <time>2020-08-02T07:27:07.000Z</time>
      </trkpt>
      <trkpt lat="43.52728" lon="3.80896">
        <ele>61.35500032</ele>
        <time>2020-08-02T07:27:08.000Z</time>
      </trkpt>
      <trkpt lat="43.52728" lon="3.80903">
        <ele>61.25500032</ele>
        <time>2020-08-02T07:27:09.000Z</time>
      </trkpt>
      <trkpt lat="43.52728" lon="3.80911">
        <ele>61.15500032</ele>
        <time>2020-08-02T07:27:10.000Z</time>
      </trkpt>
      <trkpt lat="43.52729" lon="3.80918">
        <ele>61.05500032</ele>
        <time>2020-08-02T07:27:11.000Z</time>
      </trkpt>
      <trkpt lat="43.52729" lon="3.80926">
        <ele>60.956268518956</ele>
        <time>2020-08-02T07:27:12.000Z</time>
      </trkpt>
      <trkpt lat="43.5273" lon="3.80933">
        <ele>60.8590867589</ele>
        <time>2020-08-02T07:27:13.000Z</time>
      </trkpt>
      <trkpt lat="43.5273" lon="3.80941">
        <ele>60.761904998843</ele>
        <time>2020-08-02T07:27:14.000Z</time>
      </trkpt>
      <trkpt lat="43.5273" lon="3.80948">
        <ele>60.664723238787</ele>
        <time>2020-08-02T07:27:15.000Z</time>
      </trkpt>
      <trkpt lat="43.5273" lon="3.80956">
        <ele>60.56754147873</ele>
        <time>2020-08-02T07:27:16.000Z</time>
      </trkpt>
      <trkpt lat="43.5273" lon="3.80963">
        <ele>60.470359718674</ele>
        <time>2020-08-02T07:27:17.000Z</time>
      </trkpt>
      <trkpt lat="43.52731" lon="3.80971">
        <ele>60.373177958617</ele>
        <time>2020-08-02T07:27:18.000Z</time>
      </trkpt>
      <trkpt lat="43.52732" lon="3.80979">
        <ele>60.27599619856</ele>
        <time>2020-08-02T07:27:19.000Z</time>
      </trkpt>
      <trkpt lat="43.52733" lon="3.80987">
        <ele>60.178814438504</ele>
        <time>2020-08-02T07:27:20.000Z</time>
      </trkpt>
      <trkpt lat="43.52733" lon="3.80994">
        <ele>60.081632678447</ele>
        <time>2020-08-02T07:27:21.000Z</time>
      </trkpt>
      <trkpt lat="43.52733" lon="3.81002">
        <ele>59.983522147552</ele>
        <time>2020-08-02T07:27:22.000Z</time>
      </trkpt>
      <trkpt lat="43.52734" lon="3.8101">
        <ele>59.880535569751</ele>
        <time>2020-08-02T07:27:23.000Z</time>
      </trkpt>
      <trkpt lat="43.52735" lon="3.81017">
        <ele>59.777548991951</ele>
        <time>2020-08-02T07:27:24.000Z</time>
      </trkpt>
      <trkpt lat="43.52736" lon="3.81025">
        <ele>59.67456241415</ele>
        <time>2020-08-02T07:27:25.000Z</time>
      </trkpt>
      <trkpt lat="43.52737" lon="3.81032">
        <ele>59.57157583635</ele>
        <time>2020-08-02T07:27:26.000Z</time>
      </trkpt>
      <trkpt lat="43.52737" lon="3.81039">
        <ele>59.468589258549</ele>
        <time>2020-08-02T07:27:27.000Z</time>
      </trkpt>
      <trkpt lat="43.52738" lon="3.81045">
        <ele>59.365602680749</ele>
        <time>2020-08-02T07:27:28.000Z</time>
      </trkpt>
      <trkpt lat="43.52738" lon="3.81049">
        <ele>59.262616102948</ele>
        <time>2020-08-02T07:27:29.000Z</time>
      </trkpt>
      <trkpt lat="43.52739" lon="3.81052">
        <ele>59.159629525148</ele>
        <time>2020-08-02T07:27:30.000Z</time>
      </trkpt>
      <trkpt lat="43.52739" lon="3.81055">
        <ele>59.056642947347</ele>
        <time>2020-08-02T07:27:31.000Z</time>
      </trkpt>
      <trkpt lat="43.5274" lon="3.81058">
        <ele>58.95500032</ele>
        <time>2020-08-02T07:27:32.000Z</time>
      </trkpt>
      <trkpt lat="43.52739" lon="3.81061">
        <ele>58.85500032</ele>
        <time>2020-08-02T07:27:33.000Z</time>
      </trkpt>
      <trkpt lat="43.52738" lon="3.81064">
        <ele>58.75500032</ele>
        <time>2020-08-02T07:27:34.000Z</time>
      </trkpt>
      <trkpt lat="43.52737" lon="3.81067">
        <ele>58.65500032</ele>
        <time>2020-08-02T07:27:35.000Z</time>
      </trkpt>
      <trkpt lat="43.52737" lon="3.81071">
        <ele>58.55500032</ele>
        <time>2020-08-02T07:27:36.000Z</time>
      </trkpt>
      <trkpt lat="43.52736" lon="3.81075">
        <ele>58.45500032</ele>
        <time>2020-08-02T07:27:37.000Z</time>
      </trkpt>
      <trkpt lat="43.52735" lon="3.8108">
        <ele>58.35500032</ele>
        <time>2020-08-02T07:27:38.000Z</time>
      </trkpt>
      <trkpt lat="43.52734" lon="3.81086">
        <ele>58.25500032</ele>
        <time>2020-08-02T07:27:39.000Z</time>
      </trkpt>
      <trkpt lat="43.52733" lon="3.81092">
        <ele>58.15500032</ele>
        <time>2020-08-02T07:27:40.000Z</time>
      </trkpt>
      <trkpt lat="43.52733" lon="3.81099">
        <ele>58.05500032</ele>
        <time>2020-08-02T07:27:41.000Z</time>
      </trkpt>
      <trkpt lat="43.52733" lon="3.81105">
        <ele>58</ele>
        <time>2020-08-02T07:27:42.000Z</time>
      </trkpt>
      <trkpt lat="43.52734" lon="3.81112">
        <ele>58</ele>
        <time>2020-08-02T07:27:43.000Z</time>
      </trkpt>
      <trkpt lat="43.52734" lon="3.81118">
        <ele>58</ele>
        <time>2020-08-02T07:27:44.000Z</time>
      </trkpt>
      <trkpt lat="43.52735" lon="3.81125">
        <ele>58</ele>
        <time>2020-08-02T07:27:45.000Z</time>
      </trkpt>
      <trkpt lat="43.52736" lon="3.81132">
        <ele>58</ele>
        <time>2020-08-02T07:27:46.000Z</time>
      </trkpt>
      <trkpt lat="43.52736" lon="3.81138">
        <ele>58</ele>
        <time>2020-08-02T07:27:47.000Z</time>
      </trkpt>
      <trkpt lat="43.52736" lon="3.81145">
        <ele>58</ele>
        <time>2020-08-02T07:27:48.000Z</time>
      </trkpt>
      <trkpt lat="43.52736" lon="3.81151">
        <ele>58</ele>
        <time>2020-08-02T07:27:49.000Z</time>
      </trkpt>
      <trkpt lat="43.52736" lon="3.81158">
        <ele>58</ele>
        <time>2020-08-02T07:27:50.000Z</time>
      </trkpt>
      <trkpt lat="43.52736" lon="3.81165">
        <ele>58</ele>
        <time>2020-08-02T07:27:51.000Z</time>
      </trkpt>
      <trkpt lat="43.52736" lon="3.81171">
        <ele>58</ele>
        <time>2020-08-02T07:27:52.000Z</time>
      </trkpt>
      <trkpt lat="43.52736" lon="3.81178">
        <ele>58</ele>
        <time>2020-08-02T07:27:53.000Z</time>
      </trkpt>
      <trkpt lat="43.52736" lon="3.81184">
        <ele>58</ele>
        <time>2020-08-02T07:27:54.000Z</time>
      </trkpt>
      <trkpt lat="43.52736" lon="3.81191">
        <ele>58</ele>
        <time>2020-08-02T07:27:55.000Z</time>
      </trkpt>
      <trkpt lat="43.52736" lon="3.81198">
        <ele>58</ele>
        <time>2020-08-02T07:27:56.000Z</time>
      </trkpt>
      <trkpt lat="43.52736" lon="3.81205">
        <ele>58</ele>
        <time>2020-08-02T07:27:57.000Z</time>
      </trkpt>
      <trkpt lat="43.52735" lon="3.81211">
        <ele>58</ele>
        <time>2020-08-02T07:27:58.000Z</time>
      </trkpt>
      <trkpt lat="43.52735" lon="3.81219">
        <ele>58</ele>
        <time>2020-08-02T07:27:59.000Z</time>
      </trkpt>
      <trkpt lat="43.52734" lon="3.81226">
        <ele>58</ele>
        <time>2020-08-02T07:28:00.000Z</time>
      </trkpt>
      <trkpt lat="43.52734" lon="3.81233">
        <ele>58</ele>
        <time>2020-08-02T07:28:01.000Z</time>
      </trkpt>
      <trkpt lat="43.52733" lon="3.8124">
        <ele>57.955955970064</ele>
        <time>2020-08-02T07:28:02.000Z</time>
      </trkpt>
      <trkpt lat="43.52732" lon="3.81247">
        <ele>57.855855902028</ele>
        <time>2020-08-02T07:28:03.000Z</time>
      </trkpt>
      <trkpt lat="43.52731" lon="3.81254">
        <ele>57.755755833992</ele>
        <time>2020-08-02T07:28:04.000Z</time>
      </trkpt>
      <trkpt lat="43.5273" lon="3.81262">
        <ele>57.655655765956</ele>
        <time>2020-08-02T07:28:05.000Z</time>
      </trkpt>
      <trkpt lat="43.52729" lon="3.81269">
        <ele>57.55555569792</ele>
        <time>2020-08-02T07:28:06.000Z</time>
      </trkpt>
      <trkpt lat="43.52727" lon="3.81276">
        <ele>57.455455629884</ele>
        <time>2020-08-02T07:28:07.000Z</time>
      </trkpt>
      <trkpt lat="43.52725" lon="3.81283">
        <ele>57.355355561848</ele>
        <time>2020-08-02T07:28:08.000Z</time>
      </trkpt>
      <trkpt lat="43.52723" lon="3.81291">
        <ele>57.255255493812</ele>
        <time>2020-08-02T07:28:09.000Z</time>
      </trkpt>
      <trkpt lat="43.52722" lon="3.81299">
        <ele>57.155155425776</ele>
        <time>2020-08-02T07:28:10.000Z</time>
      </trkpt>
      <trkpt lat="43.5272" lon="3.81307">
        <ele>57.05505535774</ele>
        <time>2020-08-02T07:28:11.000Z</time>
      </trkpt>
      <trkpt lat="43.52717" lon="3.81314">
        <ele>56.86500096</ele>
        <time>2020-08-02T07:28:12.000Z</time>
      </trkpt>
      <trkpt lat="43.52714" lon="3.81322">
        <ele>56.56500096</ele>
        <time>2020-08-02T07:28:13.000Z</time>
      </trkpt>
      <trkpt lat="43.52712" lon="3.8133">
        <ele>56.26500096</ele>
        <time>2020-08-02T07:28:14.000Z</time>
      </trkpt>
      <trkpt lat="43.52708" lon="3.81338">
        <ele>55.96500096</ele>
        <time>2020-08-02T07:28:15.000Z</time>
      </trkpt>
      <trkpt lat="43.52705" lon="3.81346">
        <ele>55.66500096</ele>
        <time>2020-08-02T07:28:16.000Z</time>
      </trkpt>
      <trkpt lat="43.52701" lon="3.81354">
        <ele>55.36500096</ele>
        <time>2020-08-02T07:28:17.000Z</time>
      </trkpt>
      <trkpt lat="43.52697" lon="3.81362">
        <ele>55.06500096</ele>
        <time>2020-08-02T07:28:18.000Z</time>
      </trkpt>
      <trkpt lat="43.52692" lon="3.81371">
        <ele>54.76500096</ele>
        <time>2020-08-02T07:28:19.000Z</time>
      </trkpt>
      <trkpt lat="43.52688" lon="3.8138">
        <ele>54.46500096</ele>
        <time>2020-08-02T07:28:20.000Z</time>
      </trkpt>
      <trkpt lat="43.52683" lon="3.81388">
        <ele>54.16500096</ele>
        <time>2020-08-02T07:28:21.000Z</time>
      </trkpt>
      <trkpt lat="43.52678" lon="3.81395">
        <ele>53.82000128</ele>
        <time>2020-08-02T07:28:22.000Z</time>
      </trkpt>
      <trkpt lat="43.52674" lon="3.81402">
        <ele>53.42000128</ele>
        <time>2020-08-02T07:28:23.000Z</time>
      </trkpt>
      <trkpt lat="43.52669" lon="3.8141">
        <ele>53.02000128</ele>
        <time>2020-08-02T07:28:24.000Z</time>
      </trkpt>
      <trkpt lat="43.52663" lon="3.81416">
        <ele>52.62000128</ele>
        <time>2020-08-02T07:28:25.000Z</time>
      </trkpt>
      <trkpt lat="43.52657" lon="3.81423">
        <ele>52.22000128</ele>
        <time>2020-08-02T07:28:26.000Z</time>
      </trkpt>
      <trkpt lat="43.52651" lon="3.81429">
        <ele>51.82000128</ele>
        <time>2020-08-02T07:28:27.000Z</time>
      </trkpt>
      <trkpt lat="43.52645" lon="3.81436">
        <ele>51.42000128</ele>
        <time>2020-08-02T07:28:28.000Z</time>
      </trkpt>
      <trkpt lat="43.52638" lon="3.81443">
        <ele>51.02000128</ele>
        <time>2020-08-02T07:28:29.000Z</time>
      </trkpt>
      <trkpt lat="43.52632" lon="3.81451">
        <ele>50.62000128</ele>
        <time>2020-08-02T07:28:30.000Z</time>
      </trkpt>
      <trkpt lat="43.52625" lon="3.81458">
        <ele>50.22000128</ele>
        <time>2020-08-02T07:28:31.000Z</time>
      </trkpt>
      <trkpt lat="43.52618" lon="3.81465">
        <ele>49.825413300094</ele>
        <time>2020-08-02T07:28:32.000Z</time>
      </trkpt>
      <trkpt lat="43.52611" lon="3.81472">
        <ele>49.437440096937</ele>
        <time>2020-08-02T07:28:33.000Z</time>
      </trkpt>
      <trkpt lat="43.52604" lon="3.8148">
        <ele>49.049466893781</ele>
        <time>2020-08-02T07:28:34.000Z</time>
      </trkpt>
      <trkpt lat="43.52597" lon="3.81488">
        <ele>48.661493690625</ele>
        <time>2020-08-02T07:28:35.000Z</time>
      </trkpt>
      <trkpt lat="43.52589" lon="3.81495">
        <ele>48.273520487468</ele>
        <time>2020-08-02T07:28:36.000Z</time>
      </trkpt>
      <trkpt lat="43.52582" lon="3.81503">
        <ele>47.885547284312</ele>
        <time>2020-08-02T07:28:37.000Z</time>
      </trkpt>
      <trkpt lat="43.52574" lon="3.8151">
        <ele>47.497574081155</ele>
        <time>2020-08-02T07:28:38.000Z</time>
      </trkpt>
      <trkpt lat="43.52566" lon="3.81518">
        <ele>47.109600877999</ele>
        <time>2020-08-02T07:28:39.000Z</time>
      </trkpt>
      <trkpt lat="43.52558" lon="3.81525">
        <ele>46.721627674843</ele>
        <time>2020-08-02T07:28:40.000Z</time>
      </trkpt>
      <trkpt lat="43.52551" lon="3.81533">
        <ele>46.333654471686</ele>
        <time>2020-08-02T07:28:41.000Z</time>
      </trkpt>
      <trkpt lat="43.52543" lon="3.8154">
        <ele>45.956654408268</ele>
        <time>2020-08-02T07:28:42.000Z</time>
      </trkpt>
      <trkpt lat="43.52535" lon="3.81547">
        <ele>45.64705719177</ele>
        <time>2020-08-02T07:28:43.000Z</time>
      </trkpt>
      <trkpt lat="43.52527" lon="3.81555">
        <ele>45.337459975272</ele>
        <time>2020-08-02T07:28:44.000Z</time>
      </trkpt>
      <trkpt lat="43.5252" lon="3.81563">
        <ele>45.027862758774</ele>
        <time>2020-08-02T07:28:45.000Z</time>
      </trkpt>
      <trkpt lat="43.52512" lon="3.8157">
        <ele>44.718265542276</ele>
        <time>2020-08-02T07:28:46.000Z</time>
      </trkpt>
      <trkpt lat="43.52506" lon="3.81577">
        <ele>44.408668325777</ele>
        <time>2020-08-02T07:28:47.000Z</time>
      </trkpt>
      <trkpt lat="43.525" lon="3.81584">
        <ele>44.099071109279</ele>
        <time>2020-08-02T07:28:48.000Z</time>
      </trkpt>
      <trkpt lat="43.52497" lon="3.81593">
        <ele>43.789473892781</ele>
        <time>2020-08-02T07:28:49.000Z</time>
      </trkpt>
      <trkpt lat="43.52496" lon="3.81602">
        <ele>43.479876676283</ele>
        <time>2020-08-02T07:28:50.000Z</time>
      </trkpt>
      <trkpt lat="43.52496" lon="3.81613">
        <ele>43.170279459785</ele>
        <time>2020-08-02T07:28:51.000Z</time>
      </trkpt>
      <trkpt lat="43.52497" lon="3.81623">
        <ele>43</ele>
        <time>2020-08-02T07:28:52.000Z</time>
      </trkpt>
      <trkpt lat="43.52499" lon="3.81632">
        <ele>43</ele>
        <time>2020-08-02T07:28:53.000Z</time>
      </trkpt>
      <trkpt lat="43.52501" lon="3.81641">
        <ele>43</ele>
        <time>2020-08-02T07:28:54.000Z</time>
      </trkpt>
      <trkpt lat="43.52503" lon="3.8165">
        <ele>43</ele>
        <time>2020-08-02T07:28:55.000Z</time>
      </trkpt>
      <trkpt lat="43.52504" lon="3.81658">
        <ele>43</ele>
        <time>2020-08-02T07:28:56.000Z</time>
      </trkpt>
      <trkpt lat="43.52505" lon="3.81666">
        <ele>43</ele>
        <time>2020-08-02T07:28:57.000Z</time>
      </trkpt>
      <trkpt lat="43.52507" lon="3.81673">
        <ele>43</ele>
        <time>2020-08-02T07:28:58.000Z</time>
      </trkpt>
      <trkpt lat="43.52509" lon="3.8168">
        <ele>43</ele>
        <time>2020-08-02T07:28:59.000Z</time>
      </trkpt>
      <trkpt lat="43.5251" lon="3.81687">
        <ele>43</ele>
        <time>2020-08-02T07:29:00.000Z</time>
      </trkpt>
      <trkpt lat="43.52512" lon="3.81693">
        <ele>43</ele>
        <time>2020-08-02T07:29:01.000Z</time>
      </trkpt>
      <trkpt lat="43.52514" lon="3.817">
        <ele>43.031440466408</ele>
        <time>2020-08-02T07:29:02.000Z</time>
      </trkpt>
      <trkpt lat="43.52516" lon="3.81706">
        <ele>43.132860278874</ele>
        <time>2020-08-02T07:29:03.000Z</time>
      </trkpt>
      <trkpt lat="43.52519" lon="3.81712">
        <ele>43.234280091339</ele>
        <time>2020-08-02T07:29:04.000Z</time>
      </trkpt>
      <trkpt lat="43.52521" lon="3.81718">
        <ele>43.335699903805</ele>
        <time>2020-08-02T07:29:05.000Z</time>
      </trkpt>
      <trkpt lat="43.52523" lon="3.81724">
        <ele>43.437119716271</ele>
        <time>2020-08-02T07:29:06.000Z</time>
      </trkpt>
      <trkpt lat="43.52526" lon="3.8173">
        <ele>43.538539528737</ele>
        <time>2020-08-02T07:29:07.000Z</time>
      </trkpt>
      <trkpt lat="43.52528" lon="3.81735">
        <ele>43.639959341203</ele>
        <time>2020-08-02T07:29:08.000Z</time>
      </trkpt>
      <trkpt lat="43.5253" lon="3.8174">
        <ele>43.741379153669</ele>
        <time>2020-08-02T07:29:09.000Z</time>
      </trkpt>
      <trkpt lat="43.52533" lon="3.81746">
        <ele>43.842798966135</ele>
        <time>2020-08-02T07:29:10.000Z</time>
      </trkpt>
      <trkpt lat="43.52535" lon="3.81751">
        <ele>43.9442187786</ele>
        <time>2020-08-02T07:29:11.000Z</time>
      </trkpt>
      <trkpt lat="43.52538" lon="3.81755">
        <ele>44.04499968</ele>
        <time>2020-08-02T07:29:12.000Z</time>
      </trkpt>
      <trkpt lat="43.5254" lon="3.8176">
        <ele>44.14499968</ele>
        <time>2020-08-02T07:29:13.000Z</time>
      </trkpt>
      <trkpt lat="43.52542" lon="3.81765">
        <ele>44.24499968</ele>
        <time>2020-08-02T07:29:14.000Z</time>
      </trkpt>
      <trkpt lat="43.52545" lon="3.8177">
        <ele>44.34499968</ele>
        <time>2020-08-02T07:29:15.000Z</time>
      </trkpt>
      <trkpt lat="43.52548" lon="3.81774">
        <ele>44.44499968</ele>
        <time>2020-08-02T07:29:16.000Z</time>
      </trkpt>
      <trkpt lat="43.5255" lon="3.81779">
        <ele>44.54499968</ele>
        <time>2020-08-02T07:29:17.000Z</time>
      </trkpt>
      <trkpt lat="43.52553" lon="3.81784">
        <ele>44.64499968</ele>
        <time>2020-08-02T07:29:18.000Z</time>
      </trkpt>
      <trkpt lat="43.52555" lon="3.81789">
        <ele>44.74499968</ele>
        <time>2020-08-02T07:29:19.000Z</time>
      </trkpt>
      <trkpt lat="43.52558" lon="3.81794">
        <ele>44.84499968</ele>
        <time>2020-08-02T07:29:20.000Z</time>
      </trkpt>
      <trkpt lat="43.52561" lon="3.818">
        <ele>44.94499968</ele>
        <time>2020-08-02T07:29:21.000Z</time>
      </trkpt>
      <trkpt lat="43.52564" lon="3.81805">
        <ele>45</ele>
        <time>2020-08-02T07:29:22.000Z</time>
      </trkpt>
      <trkpt lat="43.52568" lon="3.8181">
        <ele>45</ele>
        <time>2020-08-02T07:29:23.000Z</time>
      </trkpt>
      <trkpt lat="43.52571" lon="3.81815">
        <ele>45</ele>
        <time>2020-08-02T07:29:24.000Z</time>
      </trkpt>
      <trkpt lat="43.52574" lon="3.81821">
        <ele>45</ele>
        <time>2020-08-02T07:29:25.000Z</time>
      </trkpt>
      <trkpt lat="43.52578" lon="3.81827">
        <ele>45</ele>
        <time>2020-08-02T07:29:26.000Z</time>
      </trkpt>
      <trkpt lat="43.52581" lon="3.81832">
        <ele>45</ele>
        <time>2020-08-02T07:29:27.000Z</time>
      </trkpt>
      <trkpt lat="43.52585" lon="3.81838">
        <ele>45</ele>
        <time>2020-08-02T07:29:28.000Z</time>
      </trkpt>
      <trkpt lat="43.52589" lon="3.81844">
        <ele>45</ele>
        <time>2020-08-02T07:29:29.000Z</time>
      </trkpt>
      <trkpt lat="43.52593" lon="3.8185">
        <ele>45</ele>
        <time>2020-08-02T07:29:30.000Z</time>
      </trkpt>
      <trkpt lat="43.52596" lon="3.81856">
        <ele>45</ele>
        <time>2020-08-02T07:29:31.000Z</time>
      </trkpt>
      <trkpt lat="43.526" lon="3.81862">
        <ele>45</ele>
        <time>2020-08-02T07:29:32.000Z</time>
      </trkpt>
      <trkpt lat="43.52604" lon="3.81868">
        <ele>45</ele>
        <time>2020-08-02T07:29:33.000Z</time>
      </trkpt>
      <trkpt lat="43.52609" lon="3.81875">
        <ele>45</ele>
        <time>2020-08-02T07:29:34.000Z</time>
      </trkpt>
      <trkpt lat="43.52613" lon="3.81881">
        <ele>45</ele>
        <time>2020-08-02T07:29:35.000Z</time>
      </trkpt>
      <trkpt lat="43.52617" lon="3.81888">
        <ele>45</ele>
        <time>2020-08-02T07:29:36.000Z</time>
      </trkpt>
      <trkpt lat="43.52621" lon="3.81895">
        <ele>45</ele>
        <time>2020-08-02T07:29:37.000Z</time>
      </trkpt>
      <trkpt lat="43.52625" lon="3.81902">
        <ele>45</ele>
        <time>2020-08-02T07:29:38.000Z</time>
      </trkpt>
      <trkpt lat="43.52629" lon="3.81909">
        <ele>45</ele>
        <time>2020-08-02T07:29:39.000Z</time>
      </trkpt>
      <trkpt lat="43.52634" lon="3.81916">
        <ele>45</ele>
        <time>2020-08-02T07:29:40.000Z</time>
      </trkpt>
      <trkpt lat="43.52638" lon="3.81923">
        <ele>45</ele>
        <time>2020-08-02T07:29:41.000Z</time>
      </trkpt>
      <trkpt lat="43.52642" lon="3.8193">
        <ele>44.95500032</ele>
        <time>2020-08-02T07:29:42.000Z</time>
      </trkpt>
      <trkpt lat="43.52646" lon="3.81937">
        <ele>44.85500032</ele>
        <time>2020-08-02T07:29:43.000Z</time>
      </trkpt>
      <trkpt lat="43.5265" lon="3.81943">
        <ele>44.75500032</ele>
        <time>2020-08-02T07:29:44.000Z</time>
      </trkpt>
      <trkpt lat="43.52655" lon="3.8195">
        <ele>44.65500032</ele>
        <time>2020-08-02T07:29:45.000Z</time>
      </trkpt>
      <trkpt lat="43.52659" lon="3.81956">
        <ele>44.55500032</ele>
        <time>2020-08-02T07:29:46.000Z</time>
      </trkpt>
      <trkpt lat="43.52663" lon="3.81963">
        <ele>44.45500032</ele>
        <time>2020-08-02T07:29:47.000Z</time>
      </trkpt>
      <trkpt lat="43.52668" lon="3.81969">
        <ele>44.35500032</ele>
        <time>2020-08-02T07:29:48.000Z</time>
      </trkpt>
      <trkpt lat="43.52672" lon="3.81976">
        <ele>44.25500032</ele>
        <time>2020-08-02T07:29:49.000Z</time>
      </trkpt>
      <trkpt lat="43.52677" lon="3.81982">
        <ele>44.15500032</ele>
        <time>2020-08-02T07:29:50.000Z</time>
      </trkpt>
      <trkpt lat="43.52682" lon="3.81988">
        <ele>44.05500032</ele>
        <time>2020-08-02T07:29:51.000Z</time>
      </trkpt>
      <trkpt lat="43.52686" lon="3.81994">
        <ele>44</ele>
        <time>2020-08-02T07:29:52.000Z</time>
      </trkpt>
      <trkpt lat="43.52691" lon="3.82">
        <ele>44</ele>
        <time>2020-08-02T07:29:53.000Z</time>
      </trkpt>
      <trkpt lat="43.52695" lon="3.82006">
        <ele>44</ele>
        <time>2020-08-02T07:29:54.000Z</time>
      </trkpt>
      <trkpt lat="43.527" lon="3.82011">
        <ele>44</ele>
        <time>2020-08-02T07:29:55.000Z</time>
      </trkpt>
      <trkpt lat="43.52705" lon="3.82017">
        <ele>44</ele>
        <time>2020-08-02T07:29:56.000Z</time>
      </trkpt>
      <trkpt lat="43.52709" lon="3.82022">
        <ele>44</ele>
        <time>2020-08-02T07:29:57.000Z</time>
      </trkpt>
      <trkpt lat="43.52714" lon="3.82027">
        <ele>44</ele>
        <time>2020-08-02T07:29:58.000Z</time>
      </trkpt>
      <trkpt lat="43.52719" lon="3.82032">
        <ele>44</ele>
        <time>2020-08-02T07:29:59.000Z</time>
      </trkpt>
      <trkpt lat="43.52723" lon="3.82037">
        <ele>44</ele>
        <time>2020-08-02T07:30:00.000Z</time>
      </trkpt>
      <trkpt lat="43.52727" lon="3.82042">
        <ele>44</ele>
        <time>2020-08-02T07:30:01.000Z</time>
      </trkpt>
      <trkpt lat="43.52731" lon="3.82046">
        <ele>44</ele>
        <time>2020-08-02T07:30:02.000Z</time>
      </trkpt>
      <trkpt lat="43.52736" lon="3.8205">
        <ele>44</ele>
        <time>2020-08-02T07:30:03.000Z</time>
      </trkpt>
      <trkpt lat="43.52739" lon="3.82054">
        <ele>44</ele>
        <time>2020-08-02T07:30:04.000Z</time>
      </trkpt>
      <trkpt lat="43.52743" lon="3.82059">
        <ele>44</ele>
        <time>2020-08-02T07:30:05.000Z</time>
      </trkpt>
      <trkpt lat="43.52747" lon="3.82063">
        <ele>44</ele>
        <time>2020-08-02T07:30:06.000Z</time>
      </trkpt>
      <trkpt lat="43.52751" lon="3.82067">
        <ele>44</ele>
        <time>2020-08-02T07:30:07.000Z</time>
      </trkpt>
      <trkpt lat="43.52755" lon="3.82071">
        <ele>44</ele>
        <time>2020-08-02T07:30:08.000Z</time>
      </trkpt>
      <trkpt lat="43.52759" lon="3.82075">
        <ele>44</ele>
        <time>2020-08-02T07:30:09.000Z</time>
      </trkpt>
      <trkpt lat="43.52763" lon="3.8208">
        <ele>44</ele>
        <time>2020-08-02T07:30:10.000Z</time>
      </trkpt>
      <trkpt lat="43.52767" lon="3.82084">
        <ele>44</ele>
        <time>2020-08-02T07:30:11.000Z</time>
      </trkpt>
      <trkpt lat="43.52771" lon="3.82088">
        <ele>44</ele>
        <time>2020-08-02T07:30:12.000Z</time>
      </trkpt>
      <trkpt lat="43.52774" lon="3.82092">
        <ele>44</ele>
        <time>2020-08-02T07:30:13.000Z</time>
      </trkpt>
      <trkpt lat="43.52778" lon="3.82096">
        <ele>44</ele>
        <time>2020-08-02T07:30:14.000Z</time>
      </trkpt>
      <trkpt lat="43.52782" lon="3.821">
        <ele>44</ele>
        <time>2020-08-02T07:30:15.000Z</time>
      </trkpt>
      <trkpt lat="43.52786" lon="3.82104">
        <ele>44</ele>
        <time>2020-08-02T07:30:16.000Z</time>
      </trkpt>
      <trkpt lat="43.5279" lon="3.82107">
        <ele>44</ele>
        <time>2020-08-02T07:30:17.000Z</time>
      </trkpt>
      <trkpt lat="43.52793" lon="3.8211">
        <ele>44</ele>
        <time>2020-08-02T07:30:18.000Z</time>
      </trkpt>
      <trkpt lat="43.52797" lon="3.82114">
        <ele>44</ele>
        <time>2020-08-02T07:30:19.000Z</time>
      </trkpt>
      <trkpt lat="43.52801" lon="3.82117">
        <ele>44</ele>
        <time>2020-08-02T07:30:20.000Z</time>
      </trkpt>
      <trkpt lat="43.52806" lon="3.82119">
        <ele>44</ele>
        <time>2020-08-02T07:30:21.000Z</time>
      </trkpt>
      <trkpt lat="43.5281" lon="3.82122">
        <ele>44</ele>
        <time>2020-08-02T07:30:22.000Z</time>
      </trkpt>
      <trkpt lat="43.52814" lon="3.82125">
        <ele>44</ele>
        <time>2020-08-02T07:30:23.000Z</time>
      </trkpt>
      <trkpt lat="43.52819" lon="3.82127">
        <ele>44</ele>
        <time>2020-08-02T07:30:24.000Z</time>
      </trkpt>
      <trkpt lat="43.52823" lon="3.8213">
        <ele>44</ele>
        <time>2020-08-02T07:30:25.000Z</time>
      </trkpt>
      <trkpt lat="43.52828" lon="3.82132">
        <ele>44</ele>
        <time>2020-08-02T07:30:26.000Z</time>
      </trkpt>
      <trkpt lat="43.52832" lon="3.82133">
        <ele>44</ele>
        <time>2020-08-02T07:30:27.000Z</time>
      </trkpt>
      <trkpt lat="43.52837" lon="3.82135">
        <ele>44</ele>
        <time>2020-08-02T07:30:28.000Z</time>
      </trkpt>
      <trkpt lat="43.52842" lon="3.82137">
        <ele>44</ele>
        <time>2020-08-02T07:30:29.000Z</time>
      </trkpt>
      <trkpt lat="43.52846" lon="3.82139">
        <ele>44</ele>
        <time>2020-08-02T07:30:30.000Z</time>
      </trkpt>
      <trkpt lat="43.52851" lon="3.8214">
        <ele>44</ele>
        <time>2020-08-02T07:30:31.000Z</time>
      </trkpt>
      <trkpt lat="43.52855" lon="3.82142">
        <ele>43.967044295104</ele>
        <time>2020-08-02T07:30:32.000Z</time>
      </trkpt>
      <trkpt lat="43.5286" lon="3.82144">
        <ele>43.761071139503</ele>
        <time>2020-08-02T07:30:33.000Z</time>
      </trkpt>
      <trkpt lat="43.52865" lon="3.82147">
        <ele>43.555097983902</ele>
        <time>2020-08-02T07:30:34.000Z</time>
      </trkpt>
      <trkpt lat="43.52869" lon="3.8215">
        <ele>43.349124828301</ele>
        <time>2020-08-02T07:30:35.000Z</time>
      </trkpt>
      <trkpt lat="43.52873" lon="3.82154">
        <ele>43.1431516727</ele>
        <time>2020-08-02T07:30:36.000Z</time>
      </trkpt>
      <trkpt lat="43.52876" lon="3.82158">
        <ele>42.937178517099</ele>
        <time>2020-08-02T07:30:37.000Z</time>
      </trkpt>
      <trkpt lat="43.52879" lon="3.82164">
        <ele>42.731205361498</ele>
        <time>2020-08-02T07:30:38.000Z</time>
      </trkpt>
      <trkpt lat="43.52881" lon="3.8217">
        <ele>42.525232205897</ele>
        <time>2020-08-02T07:30:39.000Z</time>
      </trkpt>
      <trkpt lat="43.52882" lon="3.82177">
        <ele>42.319259050296</ele>
        <time>2020-08-02T07:30:40.000Z</time>
      </trkpt>
      <trkpt lat="43.52883" lon="3.82185">
        <ele>42.113285894695</ele>
        <time>2020-08-02T07:30:41.000Z</time>
      </trkpt>
      <trkpt lat="43.52884" lon="3.82192">
        <ele>41.955357460318</ele>
        <time>2020-08-02T07:30:42.000Z</time>
      </trkpt>
      <trkpt lat="43.52883" lon="3.82198">
        <ele>41.856151111111</ele>
        <time>2020-08-02T07:30:43.000Z</time>
      </trkpt>
      <trkpt lat="43.52882" lon="3.82205">
        <ele>41.756944761905</ele>
        <time>2020-08-02T07:30:44.000Z</time>
      </trkpt>
      <trkpt lat="43.5288" lon="3.82211">
        <ele>41.657738412698</ele>
        <time>2020-08-02T07:30:45.000Z</time>
      </trkpt>
      <trkpt lat="43.52878" lon="3.82218">
        <ele>41.558532063492</ele>
        <time>2020-08-02T07:30:46.000Z</time>
      </trkpt>
      <trkpt lat="43.52876" lon="3.82224">
        <ele>41.459325714286</ele>
        <time>2020-08-02T07:30:47.000Z</time>
      </trkpt>
      <trkpt lat="43.52872" lon="3.82228">
        <ele>41.360119365079</ele>
        <time>2020-08-02T07:30:48.000Z</time>
      </trkpt>
      <trkpt lat="43.52869" lon="3.82233">
        <ele>41.260913015873</ele>
        <time>2020-08-02T07:30:49.000Z</time>
      </trkpt>
      <trkpt lat="43.52865" lon="3.82237">
        <ele>41.161706666667</ele>
        <time>2020-08-02T07:30:50.000Z</time>
      </trkpt>
      <trkpt lat="43.52862" lon="3.82242">
        <ele>41.06250031746</ele>
        <time>2020-08-02T07:30:51.000Z</time>
      </trkpt>
      <trkpt lat="43.5286" lon="3.82247">
        <ele>40.962701935484</ele>
        <time>2020-08-02T07:30:52.000Z</time>
      </trkpt>
      <trkpt lat="43.52859" lon="3.82252">
        <ele>40.861895483871</ele>
        <time>2020-08-02T07:30:53.000Z</time>
      </trkpt>
      <trkpt lat="43.52859" lon="3.82257">
        <ele>40.761089032258</ele>
        <time>2020-08-02T07:30:54.000Z</time>
      </trkpt>
      <trkpt lat="43.52862" lon="3.82261">
        <ele>40.660282580645</ele>
        <time>2020-08-02T07:30:55.000Z</time>
      </trkpt>
      <trkpt lat="43.52865" lon="3.82263">
        <ele>40.559476129032</ele>
        <time>2020-08-02T07:30:56.000Z</time>
      </trkpt>
      <trkpt lat="43.52869" lon="3.82264">
        <ele>40.458669677419</ele>
        <time>2020-08-02T07:30:57.000Z</time>
      </trkpt>
      <trkpt lat="43.52873" lon="3.82264">
        <ele>40.357863225806</ele>
        <time>2020-08-02T07:30:58.000Z</time>
      </trkpt>
      <trkpt lat="43.52878" lon="3.82264">
        <ele>40.257056774194</ele>
        <time>2020-08-02T07:30:59.000Z</time>
      </trkpt>
      <trkpt lat="43.52883" lon="3.82264">
        <ele>40.156250322581</ele>
        <time>2020-08-02T07:31:00.000Z</time>
      </trkpt>
      <trkpt lat="43.52888" lon="3.82264">
        <ele>40.055443870968</ele>
        <time>2020-08-02T07:31:01.000Z</time>
      </trkpt>
      <trkpt lat="43.52893" lon="3.82264">
        <ele>40.08999936</ele>
        <time>2020-08-02T07:31:02.000Z</time>
      </trkpt>
      <trkpt lat="43.52898" lon="3.82265">
        <ele>40.28999936</ele>
        <time>2020-08-02T07:31:03.000Z</time>
      </trkpt>
      <trkpt lat="43.52903" lon="3.82265">
        <ele>40.48999936</ele>
        <time>2020-08-02T07:31:04.000Z</time>
      </trkpt>
      <trkpt lat="43.52907" lon="3.82266">
        <ele>40.68999936</ele>
        <time>2020-08-02T07:31:05.000Z</time>
      </trkpt>
      <trkpt lat="43.52911" lon="3.82266">
        <ele>40.88999936</ele>
        <time>2020-08-02T07:31:06.000Z</time>
      </trkpt>
      <trkpt lat="43.52916" lon="3.82267">
        <ele>41.08999936</ele>
        <time>2020-08-02T07:31:07.000Z</time>
      </trkpt>
      <trkpt lat="43.5292" lon="3.82267">
        <ele>41.28999936</ele>
        <time>2020-08-02T07:31:08.000Z</time>
      </trkpt>
      <trkpt lat="43.52924" lon="3.82268">
        <ele>41.48999936</ele>
        <time>2020-08-02T07:31:09.000Z</time>
      </trkpt>
      <trkpt lat="43.52928" lon="3.82268">
        <ele>41.68999936</ele>
        <time>2020-08-02T07:31:10.000Z</time>
      </trkpt>
      <trkpt lat="43.52932" lon="3.82269">
        <ele>41.88999936</ele>
        <time>2020-08-02T07:31:11.000Z</time>
      </trkpt>
      <trkpt lat="43.52935" lon="3.82269">
        <ele>42.04499968</ele>
        <time>2020-08-02T07:31:12.000Z</time>
      </trkpt>
      <trkpt lat="43.52939" lon="3.82269">
        <ele>42.14499968</ele>
        <time>2020-08-02T07:31:13.000Z</time>
      </trkpt>
      <trkpt lat="43.52943" lon="3.8227">
        <ele>42.24499968</ele>
        <time>2020-08-02T07:31:14.000Z</time>
      </trkpt>
      <trkpt lat="43.52947" lon="3.8227">
        <ele>42.34499968</ele>
        <time>2020-08-02T07:31:15.000Z</time>
      </trkpt>
      <trkpt lat="43.52951" lon="3.8227">
        <ele>42.44499968</ele>
        <time>2020-08-02T07:31:16.000Z</time>
      </trkpt>
      <trkpt lat="43.52955" lon="3.8227">
        <ele>42.54499968</ele>
        <time>2020-08-02T07:31:17.000Z</time>
      </trkpt>
      <trkpt lat="43.52959" lon="3.82271">
        <ele>42.64499968</ele>
        <time>2020-08-02T07:31:18.000Z</time>
      </trkpt>
      <trkpt lat="43.52963" lon="3.82271">
        <ele>42.74499968</ele>
        <time>2020-08-02T07:31:19.000Z</time>
      </trkpt>
      <trkpt lat="43.52967" lon="3.82271">
        <ele>42.84499968</ele>
        <time>2020-08-02T07:31:20.000Z</time>
      </trkpt>
      <trkpt lat="43.52971" lon="3.82272">
        <ele>42.94499968</ele>
        <time>2020-08-02T07:31:21.000Z</time>
      </trkpt>
      <trkpt lat="43.52975" lon="3.82272">
        <ele>43</ele>
        <time>2020-08-02T07:31:22.000Z</time>
      </trkpt>
      <trkpt lat="43.52979" lon="3.82272">
        <ele>43</ele>
        <time>2020-08-02T07:31:23.000Z</time>
      </trkpt>
      <trkpt lat="43.52983" lon="3.82272">
        <ele>43</ele>
        <time>2020-08-02T07:31:24.000Z</time>
      </trkpt>
      <trkpt lat="43.52987" lon="3.82272">
        <ele>43</ele>
        <time>2020-08-02T07:31:25.000Z</time>
      </trkpt>
      <trkpt lat="43.52991" lon="3.82273">
        <ele>43</ele>
        <time>2020-08-02T07:31:26.000Z</time>
      </trkpt>
      <trkpt lat="43.52995" lon="3.82273">
        <ele>43</ele>
        <time>2020-08-02T07:31:27.000Z</time>
      </trkpt>
      <trkpt lat="43.52999" lon="3.82273">
        <ele>43</ele>
        <time>2020-08-02T07:31:28.000Z</time>
      </trkpt>
      <trkpt lat="43.53003" lon="3.82274">
        <ele>43</ele>
        <time>2020-08-02T07:31:29.000Z</time>
      </trkpt>
      <trkpt lat="43.53007" lon="3.82274">
        <ele>43</ele>
        <time>2020-08-02T07:31:30.000Z</time>
      </trkpt>
      <trkpt lat="43.53011" lon="3.82274">
        <ele>43</ele>
        <time>2020-08-02T07:31:31.000Z</time>
      </trkpt>
      <trkpt lat="43.53015" lon="3.82274">
        <ele>43.04499968</ele>
        <time>2020-08-02T07:31:32.000Z</time>
      </trkpt>
      <trkpt lat="43.5302" lon="3.82274">
        <ele>43.14499968</ele>
        <time>2020-08-02T07:31:33.000Z</time>
      </trkpt>
      <trkpt lat="43.53024" lon="3.82274">
        <ele>43.24499968</ele>
        <time>2020-08-02T07:31:34.000Z</time>
      </trkpt>
      <trkpt lat="43.53028" lon="3.82274">
        <ele>43.34499968</ele>
        <time>2020-08-02T07:31:35.000Z</time>
      </trkpt>
      <trkpt lat="43.53032" lon="3.82275">
        <ele>43.44499968</ele>
        <time>2020-08-02T07:31:36.000Z</time>
      </trkpt>
      <trkpt lat="43.53036" lon="3.82275">
        <ele>43.54499968</ele>
        <time>2020-08-02T07:31:37.000Z</time>
      </trkpt>
      <trkpt lat="43.53041" lon="3.82275">
        <ele>43.64499968</ele>
        <time>2020-08-02T07:31:38.000Z</time>
      </trkpt>
      <trkpt lat="43.53045" lon="3.82276">
        <ele>43.74499968</ele>
        <time>2020-08-02T07:31:39.000Z</time>
      </trkpt>
      <trkpt lat="43.53049" lon="3.82276">
        <ele>43.84499968</ele>
        <time>2020-08-02T07:31:40.000Z</time>
      </trkpt>
      <trkpt lat="43.53053" lon="3.82276">
        <ele>43.94499968</ele>
        <time>2020-08-02T07:31:41.000Z</time>
      </trkpt>
      <trkpt lat="43.53057" lon="3.82277">
        <ele>44</ele>
        <time>2020-08-02T07:31:42.000Z</time>
      </trkpt>
      <trkpt lat="43.53062" lon="3.82277">
        <ele>44</ele>
        <time>2020-08-02T07:31:43.000Z</time>
      </trkpt>
      <trkpt lat="43.53066" lon="3.82278">
        <ele>44</ele>
        <time>2020-08-02T07:31:44.000Z</time>
      </trkpt>
      <trkpt lat="43.53071" lon="3.82278">
        <ele>44</ele>
        <time>2020-08-02T07:31:45.000Z</time>
      </trkpt>
      <trkpt lat="43.53075" lon="3.82279">
        <ele>44</ele>
        <time>2020-08-02T07:31:46.000Z</time>
      </trkpt>
      <trkpt lat="43.53079" lon="3.82279">
        <ele>44</ele>
        <time>2020-08-02T07:31:47.000Z</time>
      </trkpt>
      <trkpt lat="43.53084" lon="3.8228">
        <ele>44</ele>
        <time>2020-08-02T07:31:48.000Z</time>
      </trkpt>
      <trkpt lat="43.53088" lon="3.8228">
        <ele>44</ele>
        <time>2020-08-02T07:31:49.000Z</time>
      </trkpt>
      <trkpt lat="43.53092" lon="3.82281">
        <ele>44</ele>
        <time>2020-08-02T07:31:50.000Z</time>
      </trkpt>
      <trkpt lat="43.53096" lon="3.82281">
        <ele>44</ele>
        <time>2020-08-02T07:31:51.000Z</time>
      </trkpt>
      <trkpt lat="43.531" lon="3.82282">
        <ele>44.0430207529</ele>
        <time>2020-08-02T07:31:52.000Z</time>
      </trkpt>
      <trkpt lat="43.53105" lon="3.82282">
        <ele>44.13862310585</ele>
        <time>2020-08-02T07:31:53.000Z</time>
      </trkpt>
      <trkpt lat="43.53109" lon="3.82282">
        <ele>44.2342254588</ele>
        <time>2020-08-02T07:31:54.000Z</time>
      </trkpt>
      <trkpt lat="43.53113" lon="3.82283">
        <ele>44.329827811749</ele>
        <time>2020-08-02T07:31:55.000Z</time>
      </trkpt>
      <trkpt lat="43.53117" lon="3.82283">
        <ele>44.425430164699</ele>
        <time>2020-08-02T07:31:56.000Z</time>
      </trkpt>
      <trkpt lat="43.53121" lon="3.82283">
        <ele>44.521032517649</ele>
        <time>2020-08-02T07:31:57.000Z</time>
      </trkpt>
      <trkpt lat="43.53126" lon="3.82283">
        <ele>44.616634870599</ele>
        <time>2020-08-02T07:31:58.000Z</time>
      </trkpt>
      <trkpt lat="43.5313" lon="3.82283">
        <ele>44.712237223549</ele>
        <time>2020-08-02T07:31:59.000Z</time>
      </trkpt>
      <trkpt lat="43.53134" lon="3.82283">
        <ele>44.807839576498</ele>
        <time>2020-08-02T07:32:00.000Z</time>
      </trkpt>
      <trkpt lat="43.53139" lon="3.82284">
        <ele>44.903441929448</ele>
        <time>2020-08-02T07:32:01.000Z</time>
      </trkpt>
      <trkpt lat="43.53143" lon="3.82284">
        <ele>44.999044282398</ele>
        <time>2020-08-02T07:32:02.000Z</time>
      </trkpt>
      <trkpt lat="43.53147" lon="3.82284">
        <ele>45</ele>
        <time>2020-08-02T07:32:03.000Z</time>
      </trkpt>
      <trkpt lat="43.53152" lon="3.82284">
        <ele>45</ele>
        <time>2020-08-02T07:32:04.000Z</time>
      </trkpt>
      <trkpt lat="43.53156" lon="3.82284">
        <ele>45</ele>
        <time>2020-08-02T07:32:05.000Z</time>
      </trkpt>
      <trkpt lat="43.5316" lon="3.82284">
        <ele>45</ele>
        <time>2020-08-02T07:32:06.000Z</time>
      </trkpt>
      <trkpt lat="43.53164" lon="3.82285">
        <ele>45</ele>
        <time>2020-08-02T07:32:07.000Z</time>
      </trkpt>
      <trkpt lat="43.53169" lon="3.82285">
        <ele>45</ele>
        <time>2020-08-02T07:32:08.000Z</time>
      </trkpt>
      <trkpt lat="43.53173" lon="3.82285">
        <ele>45</ele>
        <time>2020-08-02T07:32:09.000Z</time>
      </trkpt>
      <trkpt lat="43.53177" lon="3.82285">
        <ele>45</ele>
        <time>2020-08-02T07:32:10.000Z</time>
      </trkpt>
      <trkpt lat="43.53181" lon="3.82285">
        <ele>45</ele>
        <time>2020-08-02T07:32:11.000Z</time>
      </trkpt>
      <trkpt lat="43.53185" lon="3.82285">
        <ele>45</ele>
        <time>2020-08-02T07:32:12.000Z</time>
      </trkpt>
      <trkpt lat="43.53189" lon="3.82285">
        <ele>45</ele>
        <time>2020-08-02T07:32:13.000Z</time>
      </trkpt>
      <trkpt lat="43.53193" lon="3.82285">
        <ele>45</ele>
        <time>2020-08-02T07:32:14.000Z</time>
      </trkpt>
      <trkpt lat="43.53197" lon="3.82286">
        <ele>45</ele>
        <time>2020-08-02T07:32:15.000Z</time>
      </trkpt>
      <trkpt lat="43.53201" lon="3.82286">
        <ele>45</ele>
        <time>2020-08-02T07:32:16.000Z</time>
      </trkpt>
      <trkpt lat="43.53205" lon="3.82286">
        <ele>45</ele>
        <time>2020-08-02T07:32:17.000Z</time>
      </trkpt>
      <trkpt lat="43.53208" lon="3.82287">
        <ele>45</ele>
        <time>2020-08-02T07:32:18.000Z</time>
      </trkpt>
      <trkpt lat="43.53212" lon="3.82287">
        <ele>45</ele>
        <time>2020-08-02T07:32:19.000Z</time>
      </trkpt>
      <trkpt lat="43.53216" lon="3.82287">
        <ele>45</ele>
        <time>2020-08-02T07:32:20.000Z</time>
      </trkpt>
      <trkpt lat="43.5322" lon="3.82288">
        <ele>45</ele>
        <time>2020-08-02T07:32:21.000Z</time>
      </trkpt>
      <trkpt lat="43.53224" lon="3.82287">
        <ele>45.04499968</ele>
        <time>2020-08-02T07:32:22.000Z</time>
      </trkpt>
      <trkpt lat="43.53228" lon="3.82287">
        <ele>45.14499968</ele>
        <time>2020-08-02T07:32:23.000Z</time>
      </trkpt>
      <trkpt lat="43.53231" lon="3.82288">
        <ele>45.24499968</ele>
        <time>2020-08-02T07:32:24.000Z</time>
      </trkpt>
      <trkpt lat="43.53235" lon="3.82288">
        <ele>45.34499968</ele>
        <time>2020-08-02T07:32:25.000Z</time>
      </trkpt>
      <trkpt lat="43.53239" lon="3.82288">
        <ele>45.44499968</ele>
        <time>2020-08-02T07:32:26.000Z</time>
      </trkpt>
      <trkpt lat="43.53243" lon="3.82288">
        <ele>45.54499968</ele>
        <time>2020-08-02T07:32:27.000Z</time>
      </trkpt>
      <trkpt lat="43.53247" lon="3.82289">
        <ele>45.64499968</ele>
        <time>2020-08-02T07:32:28.000Z</time>
      </trkpt>
      <trkpt lat="43.53251" lon="3.82289">
        <ele>45.74499968</ele>
        <time>2020-08-02T07:32:29.000Z</time>
      </trkpt>
      <trkpt lat="43.53255" lon="3.82289">
        <ele>45.84499968</ele>
        <time>2020-08-02T07:32:30.000Z</time>
      </trkpt>
      <trkpt lat="43.53258" lon="3.8229">
        <ele>45.94499968</ele>
        <time>2020-08-02T07:32:31.000Z</time>
      </trkpt>
      <trkpt lat="43.53262" lon="3.8229">
        <ele>46</ele>
        <time>2020-08-02T07:32:32.000Z</time>
      </trkpt>
      <trkpt lat="43.53266" lon="3.8229">
        <ele>46</ele>
        <time>2020-08-02T07:32:33.000Z</time>
      </trkpt>
      <trkpt lat="43.5327" lon="3.82291">
        <ele>46</ele>
        <time>2020-08-02T07:32:34.000Z</time>
      </trkpt>
      <trkpt lat="43.53274" lon="3.82291">
        <ele>46</ele>
        <time>2020-08-02T07:32:35.000Z</time>
      </trkpt>
      <trkpt lat="43.53278" lon="3.82291">
        <ele>46</ele>
        <time>2020-08-02T07:32:36.000Z</time>
      </trkpt>
      <trkpt lat="43.53282" lon="3.82291">
        <ele>46</ele>
        <time>2020-08-02T07:32:37.000Z</time>
      </trkpt>
      <trkpt lat="43.53286" lon="3.82291">
        <ele>46</ele>
        <time>2020-08-02T07:32:38.000Z</time>
      </trkpt>
      <trkpt lat="43.53289" lon="3.82291">
        <ele>46</ele>
        <time>2020-08-02T07:32:39.000Z</time>
      </trkpt>
      <trkpt lat="43.53293" lon="3.82291">
        <ele>46</ele>
        <time>2020-08-02T07:32:40.000Z</time>
      </trkpt>
      <trkpt lat="43.53297" lon="3.82291">
        <ele>46</ele>
        <time>2020-08-02T07:32:41.000Z</time>
      </trkpt>
      <trkpt lat="43.53301" lon="3.82291">
        <ele>46</ele>
        <time>2020-08-02T07:32:42.000Z</time>
      </trkpt>
      <trkpt lat="43.53305" lon="3.82291">
        <ele>46</ele>
        <time>2020-08-02T07:32:43.000Z</time>
      </trkpt>
      <trkpt lat="43.53308" lon="3.82291">
        <ele>46</ele>
        <time>2020-08-02T07:32:44.000Z</time>
      </trkpt>
      <trkpt lat="43.53312" lon="3.82291">
        <ele>46</ele>
        <time>2020-08-02T07:32:45.000Z</time>
      </trkpt>
      <trkpt lat="43.53315" lon="3.82291">
        <ele>46</ele>
        <time>2020-08-02T07:32:46.000Z</time>
      </trkpt>
      <trkpt lat="43.53319" lon="3.82291">
        <ele>46</ele>
        <time>2020-08-02T07:32:47.000Z</time>
      </trkpt>
      <trkpt lat="43.53321" lon="3.82291">
        <ele>46</ele>
        <time>2020-08-02T07:32:48.000Z</time>
      </trkpt>
      <trkpt lat="43.53324" lon="3.82292">
        <ele>46</ele>
        <time>2020-08-02T07:32:49.000Z</time>
      </trkpt>
      <trkpt lat="43.53325" lon="3.82294">
        <ele>46</ele>
        <time>2020-08-02T07:32:50.000Z</time>
      </trkpt>
      <trkpt lat="43.53327" lon="3.82296">
        <ele>46</ele>
        <time>2020-08-02T07:32:51.000Z</time>
      </trkpt>
      <trkpt lat="43.53327" lon="3.82299">
        <ele>45.95500032</ele>
        <time>2020-08-02T07:32:52.000Z</time>
      </trkpt>
      <trkpt lat="43.53328" lon="3.82302">
        <ele>45.85500032</ele>
        <time>2020-08-02T07:32:53.000Z</time>
      </trkpt>
      <trkpt lat="43.53329" lon="3.82305">
        <ele>45.75500032</ele>
        <time>2020-08-02T07:32:54.000Z</time>
      </trkpt>
      <trkpt lat="43.5333" lon="3.82308">
        <ele>45.65500032</ele>
        <time>2020-08-02T07:32:55.000Z</time>
      </trkpt>
      <trkpt lat="43.5333" lon="3.82311">
        <ele>45.55500032</ele>
        <time>2020-08-02T07:32:56.000Z</time>
      </trkpt>
      <trkpt lat="43.53331" lon="3.82314">
        <ele>45.35500032</ele>
        <time>2020-08-02T07:32:58.000Z</time>
      </trkpt>
      <trkpt lat="43.53331" lon="3.82314">
        <ele>45</ele>
        <time>2020-08-02T07:33:03.000Z</time>
      </trkpt>
      <trkpt lat="43.53332" lon="3.82323">
        <ele>42.946586920962</ele>
        <time>2020-08-02T07:34:18.000Z</time>
      </trkpt>
      <trkpt lat="43.53333" lon="3.82327">
        <ele>42.74876304688</ele>
        <time>2020-08-02T07:34:19.000Z</time>
      </trkpt>
      <trkpt lat="43.53334" lon="3.82331">
        <ele>42.550939172799</ele>
        <time>2020-08-02T07:34:20.000Z</time>
      </trkpt>
      <trkpt lat="43.53335" lon="3.82335">
        <ele>42.353115298717</ele>
        <time>2020-08-02T07:34:21.000Z</time>
      </trkpt>
      <trkpt lat="43.53336" lon="3.8234">
        <ele>42.155291424636</ele>
        <time>2020-08-02T07:34:22.000Z</time>
      </trkpt>
      <trkpt lat="43.53337" lon="3.82344">
        <ele>41.957467550554</ele>
        <time>2020-08-02T07:34:23.000Z</time>
      </trkpt>
      <trkpt lat="43.53339" lon="3.82349">
        <ele>41.759643676473</ele>
        <time>2020-08-02T07:34:24.000Z</time>
      </trkpt>
      <trkpt lat="43.53341" lon="3.82354">
        <ele>41.561819802391</ele>
        <time>2020-08-02T07:34:25.000Z</time>
      </trkpt>
      <trkpt lat="43.53342" lon="3.82359">
        <ele>41.36399592831</ele>
        <time>2020-08-02T07:34:26.000Z</time>
      </trkpt>
      <trkpt lat="43.53344" lon="3.82365">
        <ele>41.166172054228</ele>
        <time>2020-08-02T07:34:27.000Z</time>
      </trkpt>
      <trkpt lat="43.53346" lon="3.8237">
        <ele>40.968</ele>
        <time>2020-08-02T07:34:28.000Z</time>
      </trkpt>
      <trkpt lat="43.53348" lon="3.82375">
        <ele>40.768</ele>
        <time>2020-08-02T07:34:29.000Z</time>
      </trkpt>
      <trkpt lat="43.5335" lon="3.8238">
        <ele>40.568</ele>
        <time>2020-08-02T07:34:30.000Z</time>
      </trkpt>
      <trkpt lat="43.53351" lon="3.82384">
        <ele>40.368</ele>
        <time>2020-08-02T07:34:31.000Z</time>
      </trkpt>
      <trkpt lat="43.53353" lon="3.82389">
        <ele>40.168</ele>
        <time>2020-08-02T07:34:32.000Z</time>
      </trkpt>
      <trkpt lat="43.53354" lon="3.82394">
        <ele>39.968</ele>
        <time>2020-08-02T07:34:33.000Z</time>
      </trkpt>
      <trkpt lat="43.53356" lon="3.824">
        <ele>39.768</ele>
        <time>2020-08-02T07:34:34.000Z</time>
      </trkpt>
      <trkpt lat="43.53357" lon="3.82406">
        <ele>39.568</ele>
        <time>2020-08-02T07:34:35.000Z</time>
      </trkpt>
      <trkpt lat="43.53358" lon="3.82412">
        <ele>39.368</ele>
        <time>2020-08-02T07:34:36.000Z</time>
      </trkpt>
      <trkpt lat="43.53358" lon="3.82418">
        <ele>39.168</ele>
        <time>2020-08-02T07:34:37.000Z</time>
      </trkpt>
      <trkpt lat="43.53359" lon="3.82424">
        <ele>38.983522147552</ele>
        <time>2020-08-02T07:34:38.000Z</time>
      </trkpt>
      <trkpt lat="43.53359" lon="3.8243">
        <ele>38.880535569751</ele>
        <time>2020-08-02T07:34:39.000Z</time>
      </trkpt>
      <trkpt lat="43.5336" lon="3.82437">
        <ele>38.777548991951</ele>
        <time>2020-08-02T07:34:40.000Z</time>
      </trkpt>
      <trkpt lat="43.5336" lon="3.82443">
        <ele>38.67456241415</ele>
        <time>2020-08-02T07:34:41.000Z</time>
      </trkpt>
      <trkpt lat="43.5336" lon="3.8245">
        <ele>38.57157583635</ele>
        <time>2020-08-02T07:34:42.000Z</time>
      </trkpt>
      <trkpt lat="43.5336" lon="3.82456">
        <ele>38.468589258549</ele>
        <time>2020-08-02T07:34:43.000Z</time>
      </trkpt>
      <trkpt lat="43.5336" lon="3.82462">
        <ele>38.365602680749</ele>
        <time>2020-08-02T07:34:44.000Z</time>
      </trkpt>
      <trkpt lat="43.5336" lon="3.82468">
        <ele>38.262616102948</ele>
        <time>2020-08-02T07:34:45.000Z</time>
      </trkpt>
      <trkpt lat="43.53361" lon="3.82475">
        <ele>38.159629525148</ele>
        <time>2020-08-02T07:34:46.000Z</time>
      </trkpt>
      <trkpt lat="43.53362" lon="3.8248">
        <ele>38.056642947347</ele>
        <time>2020-08-02T07:34:47.000Z</time>
      </trkpt>
      <trkpt lat="43.53362" lon="3.82487">
        <ele>37.910714920635</ele>
        <time>2020-08-02T07:34:48.000Z</time>
      </trkpt>
      <trkpt lat="43.53363" lon="3.82493">
        <ele>37.712302222222</ele>
        <time>2020-08-02T07:34:49.000Z</time>
      </trkpt>
      <trkpt lat="43.53362" lon="3.82499">
        <ele>37.51388952381</ele>
        <time>2020-08-02T07:34:50.000Z</time>
      </trkpt>
      <trkpt lat="43.53362" lon="3.82506">
        <ele>37.315476825397</ele>
        <time>2020-08-02T07:34:51.000Z</time>
      </trkpt>
      <trkpt lat="43.53361" lon="3.82512">
        <ele>37.117064126984</ele>
        <time>2020-08-02T07:34:52.000Z</time>
      </trkpt>
      <trkpt lat="43.53359" lon="3.82519">
        <ele>36.918651428571</ele>
        <time>2020-08-02T07:34:53.000Z</time>
      </trkpt>
      <trkpt lat="43.53358" lon="3.82525">
        <ele>36.720238730159</ele>
        <time>2020-08-02T07:34:54.000Z</time>
      </trkpt>
      <trkpt lat="43.53356" lon="3.82532">
        <ele>36.521826031746</ele>
        <time>2020-08-02T07:34:55.000Z</time>
      </trkpt>
      <trkpt lat="43.53355" lon="3.82539">
        <ele>36.323413333333</ele>
        <time>2020-08-02T07:34:56.000Z</time>
      </trkpt>
      <trkpt lat="43.53353" lon="3.82546">
        <ele>36.125000634921</ele>
        <time>2020-08-02T07:34:57.000Z</time>
      </trkpt>
      <trkpt lat="43.53352" lon="3.82553">
        <ele>36</ele>
        <time>2020-08-02T07:34:58.000Z</time>
      </trkpt>
      <trkpt lat="43.53352" lon="3.82561">
        <ele>36</ele>
        <time>2020-08-02T07:34:59.000Z</time>
      </trkpt>
      <trkpt lat="43.5335" lon="3.82568">
        <ele>36</ele>
        <time>2020-08-02T07:35:00.000Z</time>
      </trkpt>
      <trkpt lat="43.53349" lon="3.82576">
        <ele>36</ele>
        <time>2020-08-02T07:35:01.000Z</time>
      </trkpt>
      <trkpt lat="43.53348" lon="3.82583">
        <ele>36</ele>
        <time>2020-08-02T07:35:02.000Z</time>
      </trkpt>
      <trkpt lat="43.53346" lon="3.8259">
        <ele>36</ele>
        <time>2020-08-02T07:35:03.000Z</time>
      </trkpt>
      <trkpt lat="43.53345" lon="3.82597">
        <ele>36</ele>
        <time>2020-08-02T07:35:04.000Z</time>
      </trkpt>
      <trkpt lat="43.53345" lon="3.82604">
        <ele>36</ele>
        <time>2020-08-02T07:35:05.000Z</time>
      </trkpt>
      <trkpt lat="43.53346" lon="3.82611">
        <ele>36</ele>
        <time>2020-08-02T07:35:06.000Z</time>
      </trkpt>
      <trkpt lat="43.53347" lon="3.82617">
        <ele>36</ele>
        <time>2020-08-02T07:35:07.000Z</time>
      </trkpt>
      <trkpt lat="43.53348" lon="3.82624">
        <ele>35.91000064</ele>
        <time>2020-08-02T07:35:08.000Z</time>
      </trkpt>
      <trkpt lat="43.53348" lon="3.8263">
        <ele>35.71000064</ele>
        <time>2020-08-02T07:35:09.000Z</time>
      </trkpt>
      <trkpt lat="43.53349" lon="3.82636">
        <ele>35.51000064</ele>
        <time>2020-08-02T07:35:10.000Z</time>
      </trkpt>
      <trkpt lat="43.5335" lon="3.82642">
        <ele>35.31000064</ele>
        <time>2020-08-02T07:35:11.000Z</time>
      </trkpt>
      <trkpt lat="43.53351" lon="3.82648">
        <ele>35.11000064</ele>
        <time>2020-08-02T07:35:12.000Z</time>
      </trkpt>
      <trkpt lat="43.53352" lon="3.82653">
        <ele>34.91000064</ele>
        <time>2020-08-02T07:35:13.000Z</time>
      </trkpt>
      <trkpt lat="43.53353" lon="3.82659">
        <ele>34.71000064</ele>
        <time>2020-08-02T07:35:14.000Z</time>
      </trkpt>
      <trkpt lat="43.53354" lon="3.82664">
        <ele>34.51000064</ele>
        <time>2020-08-02T07:35:15.000Z</time>
      </trkpt>
      <trkpt lat="43.53356" lon="3.82668">
        <ele>34.31000064</ele>
        <time>2020-08-02T07:35:16.000Z</time>
      </trkpt>
      <trkpt lat="43.53357" lon="3.82673">
        <ele>34.11000064</ele>
        <time>2020-08-02T07:35:17.000Z</time>
      </trkpt>
      <trkpt lat="43.53357" lon="3.82679">
        <ele>34</ele>
        <time>2020-08-02T07:35:18.000Z</time>
      </trkpt>
      <trkpt lat="43.53357" lon="3.82686">
        <ele>34</ele>
        <time>2020-08-02T07:35:19.000Z</time>
      </trkpt>
      <trkpt lat="43.53357" lon="3.82693">
        <ele>34</ele>
        <time>2020-08-02T07:35:20.000Z</time>
      </trkpt>
      <trkpt lat="43.53357" lon="3.827">
        <ele>34</ele>
        <time>2020-08-02T07:35:21.000Z</time>
      </trkpt>
      <trkpt lat="43.53358" lon="3.82707">
        <ele>34</ele>
        <time>2020-08-02T07:35:22.000Z</time>
      </trkpt>
      <trkpt lat="43.53358" lon="3.82713">
        <ele>33.85046737916</ele>
        <time>2020-08-02T07:35:23.000Z</time>
      </trkpt>
      <trkpt lat="43.53359" lon="3.8272">
        <ele>33.663551603109</ele>
        <time>2020-08-02T07:35:24.000Z</time>
      </trkpt>
      <trkpt lat="43.53361" lon="3.82726">
        <ele>33.476635827059</ele>
        <time>2020-08-02T07:35:25.000Z</time>
      </trkpt>
      <trkpt lat="43.53363" lon="3.82732">
        <ele>33.289720051009</ele>
        <time>2020-08-02T07:35:26.000Z</time>
      </trkpt>
      <trkpt lat="43.53364" lon="3.82739">
        <ele>33.102804274958</ele>
        <time>2020-08-02T07:35:27.000Z</time>
      </trkpt>
      <trkpt lat="43.53365" lon="3.82745">
        <ele>32.91000064</ele>
        <time>2020-08-02T07:35:28.000Z</time>
      </trkpt>
      <trkpt lat="43.53366" lon="3.82752">
        <ele>32.71000064</ele>
        <time>2020-08-02T07:35:29.000Z</time>
      </trkpt>
      <trkpt lat="43.53366" lon="3.82759">
        <ele>32.51000064</ele>
        <time>2020-08-02T07:35:30.000Z</time>
      </trkpt>
      <trkpt lat="43.53366" lon="3.82765">
        <ele>32.31000064</ele>
        <time>2020-08-02T07:35:31.000Z</time>
      </trkpt>
      <trkpt lat="43.53366" lon="3.82772">
        <ele>32.11000064</ele>
        <time>2020-08-02T07:35:32.000Z</time>
      </trkpt>
      <trkpt lat="43.53365" lon="3.82779">
        <ele>31.91000064</ele>
        <time>2020-08-02T07:35:33.000Z</time>
      </trkpt>
      <trkpt lat="43.53365" lon="3.82786">
        <ele>31.71000064</ele>
        <time>2020-08-02T07:35:34.000Z</time>
      </trkpt>
      <trkpt lat="43.53364" lon="3.82793">
        <ele>31.51000064</ele>
        <time>2020-08-02T07:35:35.000Z</time>
      </trkpt>
      <trkpt lat="43.53364" lon="3.82799">
        <ele>31.31000064</ele>
        <time>2020-08-02T07:35:36.000Z</time>
      </trkpt>
      <trkpt lat="43.53364" lon="3.82806">
        <ele>31.11000064</ele>
        <time>2020-08-02T07:35:37.000Z</time>
      </trkpt>
      <trkpt lat="43.53363" lon="3.82813">
        <ele>30.91000064</ele>
        <time>2020-08-02T07:35:38.000Z</time>
      </trkpt>
      <trkpt lat="43.53361" lon="3.82819">
        <ele>30.71000064</ele>
        <time>2020-08-02T07:35:39.000Z</time>
      </trkpt>
      <trkpt lat="43.53358" lon="3.82826">
        <ele>30.51000064</ele>
        <time>2020-08-02T07:35:40.000Z</time>
      </trkpt>
      <trkpt lat="43.53355" lon="3.82832">
        <ele>30.31000064</ele>
        <time>2020-08-02T07:35:41.000Z</time>
      </trkpt>
      <trkpt lat="43.53352" lon="3.82837">
        <ele>30.11000064</ele>
        <time>2020-08-02T07:35:42.000Z</time>
      </trkpt>
      <trkpt lat="43.53349" lon="3.82842">
        <ele>29.91000064</ele>
        <time>2020-08-02T07:35:43.000Z</time>
      </trkpt>
      <trkpt lat="43.53346" lon="3.82847">
        <ele>29.71000064</ele>
        <time>2020-08-02T07:35:44.000Z</time>
      </trkpt>
      <trkpt lat="43.53343" lon="3.82852">
        <ele>29.51000064</ele>
        <time>2020-08-02T07:35:45.000Z</time>
      </trkpt>
      <trkpt lat="43.53341" lon="3.82856">
        <ele>29.31000064</ele>
        <time>2020-08-02T07:35:46.000Z</time>
      </trkpt>
      <trkpt lat="43.5334" lon="3.8286">
        <ele>29.11000064</ele>
        <time>2020-08-02T07:35:47.000Z</time>
      </trkpt>
      <trkpt lat="43.53338" lon="3.82863">
        <ele>28.91000064</ele>
        <time>2020-08-02T07:35:48.000Z</time>
      </trkpt>
      <trkpt lat="43.53336" lon="3.82867">
        <ele>28.71000064</ele>
        <time>2020-08-02T07:35:49.000Z</time>
      </trkpt>
      <trkpt lat="43.53334" lon="3.82871">
        <ele>28.51000064</ele>
        <time>2020-08-02T07:35:50.000Z</time>
      </trkpt>
      <trkpt lat="43.53332" lon="3.82875">
        <ele>28.31000064</ele>
        <time>2020-08-02T07:35:51.000Z</time>
      </trkpt>
      <trkpt lat="43.5333" lon="3.82879">
        <ele>28.11000064</ele>
        <time>2020-08-02T07:35:52.000Z</time>
      </trkpt>
      <trkpt lat="43.53327" lon="3.82883">
        <ele>27.91000064</ele>
        <time>2020-08-02T07:35:53.000Z</time>
      </trkpt>
      <trkpt lat="43.53324" lon="3.82886">
        <ele>27.71000064</ele>
        <time>2020-08-02T07:35:54.000Z</time>
      </trkpt>
      <trkpt lat="43.53322" lon="3.82889">
        <ele>27.51000064</ele>
        <time>2020-08-02T07:35:55.000Z</time>
      </trkpt>
      <trkpt lat="43.5332" lon="3.82893">
        <ele>27.31000064</ele>
        <time>2020-08-02T07:35:56.000Z</time>
      </trkpt>
      <trkpt lat="43.53318" lon="3.82897">
        <ele>27.11000064</ele>
        <time>2020-08-02T07:35:57.000Z</time>
      </trkpt>
      <trkpt lat="43.53316" lon="3.82901">
        <ele>26.91000064</ele>
        <time>2020-08-02T07:35:58.000Z</time>
      </trkpt>
      <trkpt lat="43.53314" lon="3.82906">
        <ele>26.71000064</ele>
        <time>2020-08-02T07:35:59.000Z</time>
      </trkpt>
      <trkpt lat="43.53312" lon="3.8291">
        <ele>26.51000064</ele>
        <time>2020-08-02T07:36:00.000Z</time>
      </trkpt>
      <trkpt lat="43.5331" lon="3.82914">
        <ele>26.31000064</ele>
        <time>2020-08-02T07:36:01.000Z</time>
      </trkpt>
      <trkpt lat="43.53308" lon="3.82918">
        <ele>26.11000064</ele>
        <time>2020-08-02T07:36:02.000Z</time>
      </trkpt>
      <trkpt lat="43.53306" lon="3.82922">
        <ele>25.91000064</ele>
        <time>2020-08-02T07:36:03.000Z</time>
      </trkpt>
      <trkpt lat="43.53304" lon="3.82927">
        <ele>25.71000064</ele>
        <time>2020-08-02T07:36:04.000Z</time>
      </trkpt>
      <trkpt lat="43.53302" lon="3.82931">
        <ele>25.51000064</ele>
        <time>2020-08-02T07:36:05.000Z</time>
      </trkpt>
      <trkpt lat="43.53301" lon="3.82935">
        <ele>25.31000064</ele>
        <time>2020-08-02T07:36:06.000Z</time>
      </trkpt>
      <trkpt lat="43.53299" lon="3.82939">
        <ele>25.11000064</ele>
        <time>2020-08-02T07:36:07.000Z</time>
      </trkpt>
      <trkpt lat="43.53297" lon="3.82943">
        <ele>24.91000064</ele>
        <time>2020-08-02T07:36:08.000Z</time>
      </trkpt>
      <trkpt lat="43.53295" lon="3.82946">
        <ele>24.71000064</ele>
        <time>2020-08-02T07:36:09.000Z</time>
      </trkpt>
      <trkpt lat="43.53294" lon="3.8295">
        <ele>24.51000064</ele>
        <time>2020-08-02T07:36:10.000Z</time>
      </trkpt>
      <trkpt lat="43.53292" lon="3.82954">
        <ele>24.31000064</ele>
        <time>2020-08-02T07:36:11.000Z</time>
      </trkpt>
      <trkpt lat="43.5329" lon="3.82958">
        <ele>24.11000064</ele>
        <time>2020-08-02T07:36:12.000Z</time>
      </trkpt>
      <trkpt lat="43.53287" lon="3.82961">
        <ele>23.91000064</ele>
        <time>2020-08-02T07:36:13.000Z</time>
      </trkpt>
      <trkpt lat="43.53283" lon="3.82965">
        <ele>23.71000064</ele>
        <time>2020-08-02T07:36:14.000Z</time>
      </trkpt>
      <trkpt lat="43.5328" lon="3.82968">
        <ele>23.51000064</ele>
        <time>2020-08-02T07:36:15.000Z</time>
      </trkpt>
      <trkpt lat="43.53278" lon="3.82972">
        <ele>23.31000064</ele>
        <time>2020-08-02T07:36:16.000Z</time>
      </trkpt>
      <trkpt lat="43.53275" lon="3.82975">
        <ele>23.11000064</ele>
        <time>2020-08-02T07:36:17.000Z</time>
      </trkpt>
      <trkpt lat="43.53273" lon="3.82977">
        <ele>22.86500096</ele>
        <time>2020-08-02T07:36:18.000Z</time>
      </trkpt>
      <trkpt lat="43.5327" lon="3.82981">
        <ele>22.56500096</ele>
        <time>2020-08-02T07:36:19.000Z</time>
      </trkpt>
      <trkpt lat="43.53267" lon="3.82985">
        <ele>22.26500096</ele>
        <time>2020-08-02T07:36:20.000Z</time>
      </trkpt>
      <trkpt lat="43.53264" lon="3.82989">
        <ele>21.96500096</ele>
        <time>2020-08-02T07:36:21.000Z</time>
      </trkpt>
      <trkpt lat="43.5326" lon="3.82993">
        <ele>21.66500096</ele>
        <time>2020-08-02T07:36:22.000Z</time>
      </trkpt>
      <trkpt lat="43.53258" lon="3.82997">
        <ele>21.36500096</ele>
        <time>2020-08-02T07:36:23.000Z</time>
      </trkpt>
      <trkpt lat="43.53256" lon="3.83001">
        <ele>21.06500096</ele>
        <time>2020-08-02T07:36:24.000Z</time>
      </trkpt>
      <trkpt lat="43.53253" lon="3.83005">
        <ele>20.76500096</ele>
        <time>2020-08-02T07:36:25.000Z</time>
      </trkpt>
      <trkpt lat="43.5325" lon="3.83008">
        <ele>20.46500096</ele>
        <time>2020-08-02T07:36:26.000Z</time>
      </trkpt>
      <trkpt lat="43.53248" lon="3.83011">
        <ele>20.16500096</ele>
        <time>2020-08-02T07:36:27.000Z</time>
      </trkpt>
      <trkpt lat="43.53246" lon="3.83015">
        <ele>19.86500096</ele>
        <time>2020-08-02T07:36:28.000Z</time>
      </trkpt>
      <trkpt lat="43.53244" lon="3.83018">
        <ele>19.56500096</ele>
        <time>2020-08-02T07:36:29.000Z</time>
      </trkpt>
      <trkpt lat="43.53241" lon="3.83023">
        <ele>19.26500096</ele>
        <time>2020-08-02T07:36:30.000Z</time>
      </trkpt>
      <trkpt lat="43.53239" lon="3.83027">
        <ele>18.96500096</ele>
        <time>2020-08-02T07:36:31.000Z</time>
      </trkpt>
      <trkpt lat="43.53236" lon="3.83032">
        <ele>18.66500096</ele>
        <time>2020-08-02T07:36:32.000Z</time>
      </trkpt>
      <trkpt lat="43.53232" lon="3.83036">
        <ele>18.36500096</ele>
        <time>2020-08-02T07:36:33.000Z</time>
      </trkpt>
      <trkpt lat="43.53229" lon="3.83041">
        <ele>18.06500096</ele>
        <time>2020-08-02T07:36:34.000Z</time>
      </trkpt>
      <trkpt lat="43.53225" lon="3.83046">
        <ele>17.76500096</ele>
        <time>2020-08-02T07:36:35.000Z</time>
      </trkpt>
      <trkpt lat="43.53222" lon="3.83052">
        <ele>17.46500096</ele>
        <time>2020-08-02T07:36:36.000Z</time>
      </trkpt>
      <trkpt lat="43.53219" lon="3.83058">
        <ele>17.16500096</ele>
        <time>2020-08-02T07:36:37.000Z</time>
      </trkpt>
      <trkpt lat="43.53216" lon="3.83064">
        <ele>16.91000064</ele>
        <time>2020-08-02T07:36:38.000Z</time>
      </trkpt>
      <trkpt lat="43.53213" lon="3.8307">
        <ele>16.71000064</ele>
        <time>2020-08-02T07:36:39.000Z</time>
      </trkpt>
      <trkpt lat="43.5321" lon="3.83076">
        <ele>16.51000064</ele>
        <time>2020-08-02T07:36:40.000Z</time>
      </trkpt>
      <trkpt lat="43.53208" lon="3.83083">
        <ele>16.31000064</ele>
        <time>2020-08-02T07:36:41.000Z</time>
      </trkpt>
      <trkpt lat="43.53206" lon="3.8309">
        <ele>16.11000064</ele>
        <time>2020-08-02T07:36:42.000Z</time>
      </trkpt>
      <trkpt lat="43.53203" lon="3.83097">
        <ele>15.91000064</ele>
        <time>2020-08-02T07:36:43.000Z</time>
      </trkpt>
      <trkpt lat="43.53201" lon="3.83104">
        <ele>15.71000064</ele>
        <time>2020-08-02T07:36:44.000Z</time>
      </trkpt>
      <trkpt lat="43.53199" lon="3.8311">
        <ele>15.51000064</ele>
        <time>2020-08-02T07:36:45.000Z</time>
      </trkpt>
      <trkpt lat="43.53197" lon="3.83116">
        <ele>15.31000064</ele>
        <time>2020-08-02T07:36:46.000Z</time>
      </trkpt>
      <trkpt lat="43.53195" lon="3.83122">
        <ele>15.11000064</ele>
        <time>2020-08-02T07:36:47.000Z</time>
      </trkpt>
      <trkpt lat="43.53193" lon="3.83128">
        <ele>14.910090520708</ele>
        <time>2020-08-02T07:36:48.000Z</time>
      </trkpt>
      <trkpt lat="43.5319" lon="3.83131">
        <ele>14.710290257036</ele>
        <time>2020-08-02T07:36:49.000Z</time>
      </trkpt>
      <trkpt lat="43.53187" lon="3.83131">
        <ele>14.510489993363</ele>
        <time>2020-08-02T07:36:50.000Z</time>
      </trkpt>
      <trkpt lat="43.53184" lon="3.83128">
        <ele>14.310689729691</ele>
        <time>2020-08-02T07:36:51.000Z</time>
      </trkpt>
      <trkpt lat="43.5318" lon="3.83124">
        <ele>14.110889466019</ele>
        <time>2020-08-02T07:36:52.000Z</time>
      </trkpt>
      <trkpt lat="43.53176" lon="3.83121">
        <ele>13.911089202346</ele>
        <time>2020-08-02T07:36:53.000Z</time>
      </trkpt>
      <trkpt lat="43.53171" lon="3.83117">
        <ele>13.711288938674</ele>
        <time>2020-08-02T07:36:54.000Z</time>
      </trkpt>
      <trkpt lat="43.53166" lon="3.83113">
        <ele>13.511488675001</ele>
        <time>2020-08-02T07:36:55.000Z</time>
      </trkpt>
      <trkpt lat="43.5316" lon="3.8311">
        <ele>13.311688411329</ele>
        <time>2020-08-02T07:36:56.000Z</time>
      </trkpt>
      <trkpt lat="43.53154" lon="3.83108">
        <ele>13.111888147657</ele>
        <time>2020-08-02T07:36:57.000Z</time>
      </trkpt>
      <trkpt lat="43.53148" lon="3.83107">
        <ele>13</ele>
        <time>2020-08-02T07:36:58.000Z</time>
      </trkpt>
      <trkpt lat="43.53142" lon="3.83104">
        <ele>13</ele>
        <time>2020-08-02T07:36:59.000Z</time>
      </trkpt>
      <trkpt lat="43.53136" lon="3.83101">
        <ele>13</ele>
        <time>2020-08-02T07:37:00.000Z</time>
      </trkpt>
      <trkpt lat="43.53131" lon="3.83098">
        <ele>13</ele>
        <time>2020-08-02T07:37:01.000Z</time>
      </trkpt>
      <trkpt lat="43.53126" lon="3.83095">
        <ele>13</ele>
        <time>2020-08-02T07:37:02.000Z</time>
      </trkpt>
      <trkpt lat="43.53121" lon="3.83091">
        <ele>13</ele>
        <time>2020-08-02T07:37:03.000Z</time>
      </trkpt>
      <trkpt lat="43.53116" lon="3.83088">
        <ele>13</ele>
        <time>2020-08-02T07:37:04.000Z</time>
      </trkpt>
      <trkpt lat="43.53112" lon="3.83086">
        <ele>13</ele>
        <time>2020-08-02T07:37:05.000Z</time>
      </trkpt>
      <trkpt lat="43.53107" lon="3.83084">
        <ele>13</ele>
        <time>2020-08-02T07:37:06.000Z</time>
      </trkpt>
      <trkpt lat="43.53103" lon="3.83083">
        <ele>13</ele>
        <time>2020-08-02T07:37:07.000Z</time>
      </trkpt>
      <trkpt lat="43.53099" lon="3.83081">
        <ele>12.95500032</ele>
        <time>2020-08-02T07:37:08.000Z</time>
      </trkpt>
      <trkpt lat="43.53095" lon="3.83079">
        <ele>12.85500032</ele>
        <time>2020-08-02T07:37:09.000Z</time>
      </trkpt>
      <trkpt lat="43.5309" lon="3.83077">
        <ele>12.75500032</ele>
        <time>2020-08-02T07:37:10.000Z</time>
      </trkpt>
      <trkpt lat="43.53085" lon="3.83076">
        <ele>12.65500032</ele>
        <time>2020-08-02T07:37:11.000Z</time>
      </trkpt>
      <trkpt lat="43.5308" lon="3.83074">
        <ele>12.55500032</ele>
        <time>2020-08-02T07:37:12.000Z</time>
      </trkpt>
      <trkpt lat="43.53075" lon="3.83074">
        <ele>12.45500032</ele>
        <time>2020-08-02T07:37:13.000Z</time>
      </trkpt>
      <trkpt lat="43.5307" lon="3.83075">
        <ele>12.35500032</ele>
        <time>2020-08-02T07:37:14.000Z</time>
      </trkpt>
      <trkpt lat="43.53064" lon="3.83076">
        <ele>12.25500032</ele>
        <time>2020-08-02T07:37:15.000Z</time>
      </trkpt>
      <trkpt lat="43.53058" lon="3.83077">
        <ele>12.15500032</ele>
        <time>2020-08-02T07:37:16.000Z</time>
      </trkpt>
      <trkpt lat="43.53053" lon="3.83077">
        <ele>12.05500032</ele>
        <time>2020-08-02T07:37:17.000Z</time>
      </trkpt>
      <trkpt lat="43.53047" lon="3.83077">
        <ele>11.91000064</ele>
        <time>2020-08-02T07:37:18.000Z</time>
      </trkpt>
      <trkpt lat="43.53042" lon="3.83077">
        <ele>11.71000064</ele>
        <time>2020-08-02T07:37:19.000Z</time>
      </trkpt>
      <trkpt lat="43.53036" lon="3.83076">
        <ele>11.51000064</ele>
        <time>2020-08-02T07:37:20.000Z</time>
      </trkpt>
      <trkpt lat="43.5303" lon="3.83075">
        <ele>11.31000064</ele>
        <time>2020-08-02T07:37:21.000Z</time>
      </trkpt>
      <trkpt lat="43.53025" lon="3.83074">
        <ele>11.11000064</ele>
        <time>2020-08-02T07:37:22.000Z</time>
      </trkpt>
      <trkpt lat="43.53019" lon="3.83074">
        <ele>10.91000064</ele>
        <time>2020-08-02T07:37:23.000Z</time>
      </trkpt>
      <trkpt lat="43.53014" lon="3.83074">
        <ele>10.71000064</ele>
        <time>2020-08-02T07:37:24.000Z</time>
      </trkpt>
      <trkpt lat="43.53009" lon="3.83073">
        <ele>10.51000064</ele>
        <time>2020-08-02T07:37:25.000Z</time>
      </trkpt>
      <trkpt lat="43.53003" lon="3.83073">
        <ele>10.31000064</ele>
        <time>2020-08-02T07:37:26.000Z</time>
      </trkpt>
      <trkpt lat="43.52998" lon="3.83073">
        <ele>10.11000064</ele>
        <time>2020-08-02T07:37:27.000Z</time>
      </trkpt>
      <trkpt lat="43.52993" lon="3.83072">
        <ele>9.95500032</ele>
        <time>2020-08-02T07:37:28.000Z</time>
      </trkpt>
      <trkpt lat="43.52987" lon="3.83072">
        <ele>9.85500032</ele>
        <time>2020-08-02T07:37:29.000Z</time>
      </trkpt>
      <trkpt lat="43.52982" lon="3.83072">
        <ele>9.75500032</ele>
        <time>2020-08-02T07:37:30.000Z</time>
      </trkpt>
      <trkpt lat="43.52976" lon="3.83071">
        <ele>9.65500032</ele>
        <time>2020-08-02T07:37:31.000Z</time>
      </trkpt>
      <trkpt lat="43.52971" lon="3.8307">
        <ele>9.55500032</ele>
        <time>2020-08-02T07:37:32.000Z</time>
      </trkpt>
      <trkpt lat="43.52966" lon="3.83069">
        <ele>9.45500032</ele>
        <time>2020-08-02T07:37:33.000Z</time>
      </trkpt>
      <trkpt lat="43.5296" lon="3.83068">
        <ele>9.35500032</ele>
        <time>2020-08-02T07:37:34.000Z</time>
      </trkpt>
      <trkpt lat="43.52955" lon="3.83068">
        <ele>9.25500032</ele>
        <time>2020-08-02T07:37:35.000Z</time>
      </trkpt>
      <trkpt lat="43.5295" lon="3.83067">
        <ele>9.15500032</ele>
        <time>2020-08-02T07:37:36.000Z</time>
      </trkpt>
      <trkpt lat="43.52945" lon="3.83067">
        <ele>9.05500032</ele>
        <time>2020-08-02T07:37:37.000Z</time>
      </trkpt>
      <trkpt lat="43.52941" lon="3.83066">
        <ele>9</ele>
        <time>2020-08-02T07:37:38.000Z</time>
      </trkpt>
      <trkpt lat="43.52936" lon="3.83065">
        <ele>9</ele>
        <time>2020-08-02T07:37:39.000Z</time>
      </trkpt>
      <trkpt lat="43.52931" lon="3.83063">
        <ele>9</ele>
        <time>2020-08-02T07:37:40.000Z</time>
      </trkpt>
      <trkpt lat="43.52926" lon="3.8306">
        <ele>9</ele>
        <time>2020-08-02T07:37:41.000Z</time>
      </trkpt>
      <trkpt lat="43.52921" lon="3.83057">
        <ele>9</ele>
        <time>2020-08-02T07:37:42.000Z</time>
      </trkpt>
      <trkpt lat="43.52916" lon="3.83054">
        <ele>9</ele>
        <time>2020-08-02T07:37:43.000Z</time>
      </trkpt>
      <trkpt lat="43.52911" lon="3.83052">
        <ele>9</ele>
        <time>2020-08-02T07:37:44.000Z</time>
      </trkpt>
      <trkpt lat="43.52907" lon="3.83049">
        <ele>9</ele>
        <time>2020-08-02T07:37:45.000Z</time>
      </trkpt>
      <trkpt lat="43.52902" lon="3.83047">
        <ele>9</ele>
        <time>2020-08-02T07:37:46.000Z</time>
      </trkpt>
      <trkpt lat="43.52898" lon="3.83044">
        <ele>9</ele>
        <time>2020-08-02T07:37:47.000Z</time>
      </trkpt>
      <trkpt lat="43.52893" lon="3.83041">
        <ele>9.0164778524481</ele>
        <time>2020-08-02T07:37:48.000Z</time>
      </trkpt>
      <trkpt lat="43.52889" lon="3.83039">
        <ele>9.1194644302486</ele>
        <time>2020-08-02T07:37:49.000Z</time>
      </trkpt>
      <trkpt lat="43.52885" lon="3.83036">
        <ele>9.2224510080491</ele>
        <time>2020-08-02T07:37:50.000Z</time>
      </trkpt>
      <trkpt lat="43.5288" lon="3.83034">
        <ele>9.3254375858496</ele>
        <time>2020-08-02T07:37:51.000Z</time>
      </trkpt>
      <trkpt lat="43.52876" lon="3.83032">
        <ele>9.4284241636501</ele>
        <time>2020-08-02T07:37:52.000Z</time>
      </trkpt>
      <trkpt lat="43.52871" lon="3.83029">
        <ele>9.5314107414506</ele>
        <time>2020-08-02T07:37:53.000Z</time>
      </trkpt>
      <trkpt lat="43.52867" lon="3.83028">
        <ele>9.6343973192511</ele>
        <time>2020-08-02T07:37:54.000Z</time>
      </trkpt>
      <trkpt lat="43.52862" lon="3.83026">
        <ele>9.7373838970517</ele>
        <time>2020-08-02T07:37:55.000Z</time>
      </trkpt>
      <trkpt lat="43.52858" lon="3.83024">
        <ele>9.8403704748522</ele>
        <time>2020-08-02T07:37:56.000Z</time>
      </trkpt>
      <trkpt lat="43.52854" lon="3.83023">
        <ele>9.9433570526527</ele>
        <time>2020-08-02T07:37:57.000Z</time>
      </trkpt>
      <trkpt lat="43.5285" lon="3.83021">
        <ele>10.044247486882</ele>
        <time>2020-08-02T07:37:58.000Z</time>
      </trkpt>
      <trkpt lat="43.52846" lon="3.83019">
        <ele>10.142575934734</ele>
        <time>2020-08-02T07:37:59.000Z</time>
      </trkpt>
      <trkpt lat="43.52842" lon="3.83016">
        <ele>10.240904382585</ele>
        <time>2020-08-02T07:38:00.000Z</time>
      </trkpt>
      <trkpt lat="43.52838" lon="3.83014">
        <ele>10.339232830437</ele>
        <time>2020-08-02T07:38:01.000Z</time>
      </trkpt>
      <trkpt lat="43.52834" lon="3.83011">
        <ele>10.437561278289</ele>
        <time>2020-08-02T07:38:02.000Z</time>
      </trkpt>
      <trkpt lat="43.52831" lon="3.83008">
        <ele>10.53588972614</ele>
        <time>2020-08-02T07:38:03.000Z</time>
      </trkpt>
      <trkpt lat="43.52827" lon="3.83004">
        <ele>10.634218173992</ele>
        <time>2020-08-02T07:38:04.000Z</time>
      </trkpt>
      <trkpt lat="43.52824" lon="3.83001">
        <ele>10.732546621844</ele>
        <time>2020-08-02T07:38:05.000Z</time>
      </trkpt>
      <trkpt lat="43.52821" lon="3.82997">
        <ele>10.830875069695</ele>
        <time>2020-08-02T07:38:06.000Z</time>
      </trkpt>
      <trkpt lat="43.52818" lon="3.82992">
        <ele>10.929203517547</ele>
        <time>2020-08-02T07:38:07.000Z</time>
      </trkpt>
      <trkpt lat="43.52815" lon="3.82988">
        <ele>11</ele>
        <time>2020-08-02T07:38:08.000Z</time>
      </trkpt>
      <trkpt lat="43.52812" lon="3.82983">
        <ele>11</ele>
        <time>2020-08-02T07:38:09.000Z</time>
      </trkpt>
      <trkpt lat="43.52809" lon="3.82978">
        <ele>11</ele>
        <time>2020-08-02T07:38:10.000Z</time>
      </trkpt>
      <trkpt lat="43.52807" lon="3.82974">
        <ele>11</ele>
        <time>2020-08-02T07:38:11.000Z</time>
      </trkpt>
      <trkpt lat="43.52804" lon="3.82969">
        <ele>11</ele>
        <time>2020-08-02T07:38:12.000Z</time>
      </trkpt>
      <trkpt lat="43.52801" lon="3.82964">
        <ele>11</ele>
        <time>2020-08-02T07:38:13.000Z</time>
      </trkpt>
      <trkpt lat="43.52798" lon="3.8296">
        <ele>11</ele>
        <time>2020-08-02T07:38:14.000Z</time>
      </trkpt>
      <trkpt lat="43.52794" lon="3.82956">
        <ele>11</ele>
        <time>2020-08-02T07:38:15.000Z</time>
      </trkpt>
      <trkpt lat="43.5279" lon="3.82952">
        <ele>11</ele>
        <time>2020-08-02T07:38:16.000Z</time>
      </trkpt>
      <trkpt lat="43.52786" lon="3.82947">
        <ele>11</ele>
        <time>2020-08-02T07:38:17.000Z</time>
      </trkpt>
      <trkpt lat="43.52783" lon="3.82942">
        <ele>11</ele>
        <time>2020-08-02T07:38:18.000Z</time>
      </trkpt>
      <trkpt lat="43.52779" lon="3.82936">
        <ele>11</ele>
        <time>2020-08-02T07:38:19.000Z</time>
      </trkpt>
      <trkpt lat="43.52776" lon="3.8293">
        <ele>11</ele>
        <time>2020-08-02T07:38:20.000Z</time>
      </trkpt>
      <trkpt lat="43.52773" lon="3.82923">
        <ele>11</ele>
        <time>2020-08-02T07:38:21.000Z</time>
      </trkpt>
      <trkpt lat="43.5277" lon="3.82915">
        <ele>11</ele>
        <time>2020-08-02T07:38:22.000Z</time>
      </trkpt>
      <trkpt lat="43.52768" lon="3.82907">
        <ele>11</ele>
        <time>2020-08-02T07:38:23.000Z</time>
      </trkpt>
      <trkpt lat="43.52766" lon="3.82898">
        <ele>11</ele>
        <time>2020-08-02T07:38:24.000Z</time>
      </trkpt>
      <trkpt lat="43.52764" lon="3.82889">
        <ele>11</ele>
        <time>2020-08-02T07:38:25.000Z</time>
      </trkpt>
      <trkpt lat="43.52761" lon="3.8288">
        <ele>11</ele>
        <time>2020-08-02T07:38:26.000Z</time>
      </trkpt>
      <trkpt lat="43.52759" lon="3.82871">
        <ele>11</ele>
        <time>2020-08-02T07:38:27.000Z</time>
      </trkpt>
      <trkpt lat="43.52757" lon="3.82862">
        <ele>10.955955970064</ele>
        <time>2020-08-02T07:38:28.000Z</time>
      </trkpt>
      <trkpt lat="43.52755" lon="3.82852">
        <ele>10.855855902028</ele>
        <time>2020-08-02T07:38:29.000Z</time>
      </trkpt>
      <trkpt lat="43.52753" lon="3.82843">
        <ele>10.755755833992</ele>
        <time>2020-08-02T07:38:30.000Z</time>
      </trkpt>
      <trkpt lat="43.52751" lon="3.82834">
        <ele>10.655655765956</ele>
        <time>2020-08-02T07:38:31.000Z</time>
      </trkpt>
      <trkpt lat="43.52749" lon="3.82825">
        <ele>10.55555569792</ele>
        <time>2020-08-02T07:38:32.000Z</time>
      </trkpt>
      <trkpt lat="43.52748" lon="3.82816">
        <ele>10.455455629884</ele>
        <time>2020-08-02T07:38:33.000Z</time>
      </trkpt>
      <trkpt lat="43.52746" lon="3.82807">
        <ele>10.355355561848</ele>
        <time>2020-08-02T07:38:34.000Z</time>
      </trkpt>
      <trkpt lat="43.52743" lon="3.82799">
        <ele>10.255255493812</ele>
        <time>2020-08-02T07:38:35.000Z</time>
      </trkpt>
      <trkpt lat="43.52741" lon="3.82792">
        <ele>10.155155425776</ele>
        <time>2020-08-02T07:38:36.000Z</time>
      </trkpt>
      <trkpt lat="43.52737" lon="3.82786">
        <ele>10.05505535774</ele>
        <time>2020-08-02T07:38:37.000Z</time>
      </trkpt>
      <trkpt lat="43.52734" lon="3.8278">
        <ele>10</ele>
        <time>2020-08-02T07:38:38.000Z</time>
      </trkpt>
      <trkpt lat="43.5273" lon="3.82775">
        <ele>10</ele>
        <time>2020-08-02T07:38:39.000Z</time>
      </trkpt>
      <trkpt lat="43.52726" lon="3.8277">
        <ele>10</ele>
        <time>2020-08-02T07:38:40.000Z</time>
      </trkpt>
      <trkpt lat="43.52722" lon="3.82765">
        <ele>10</ele>
        <time>2020-08-02T07:38:41.000Z</time>
      </trkpt>
      <trkpt lat="43.52718" lon="3.82761">
        <ele>10</ele>
        <time>2020-08-02T07:38:42.000Z</time>
      </trkpt>
      <trkpt lat="43.52714" lon="3.82756">
        <ele>10</ele>
        <time>2020-08-02T07:38:43.000Z</time>
      </trkpt>
      <trkpt lat="43.5271" lon="3.82752">
        <ele>10</ele>
        <time>2020-08-02T07:38:44.000Z</time>
      </trkpt>
      <trkpt lat="43.52706" lon="3.82748">
        <ele>10</ele>
        <time>2020-08-02T07:38:45.000Z</time>
      </trkpt>
      <trkpt lat="43.52703" lon="3.82745">
        <ele>10</ele>
        <time>2020-08-02T07:38:46.000Z</time>
      </trkpt>
      <trkpt lat="43.52699" lon="3.82743">
        <ele>10</ele>
        <time>2020-08-02T07:38:47.000Z</time>
      </trkpt>
      <trkpt lat="43.52697" lon="3.8274">
        <ele>9.9559258627779</ele>
        <time>2020-08-02T07:38:48.000Z</time>
      </trkpt>
      <trkpt lat="43.52694" lon="3.82739">
        <ele>9.8579826391327</ele>
        <time>2020-08-02T07:38:49.000Z</time>
      </trkpt>
      <trkpt lat="43.52691" lon="3.8274">
        <ele>9.7600394154874</ele>
        <time>2020-08-02T07:38:50.000Z</time>
      </trkpt>
      <trkpt lat="43.52689" lon="3.82742">
        <ele>9.6620961918421</ele>
        <time>2020-08-02T07:38:51.000Z</time>
      </trkpt>
      <trkpt lat="43.52687" lon="3.82746">
        <ele>9.5641529681968</ele>
        <time>2020-08-02T07:38:52.000Z</time>
      </trkpt>
      <trkpt lat="43.52685" lon="3.8275">
        <ele>9.4662097445515</ele>
        <time>2020-08-02T07:38:53.000Z</time>
      </trkpt>
      <trkpt lat="43.52684" lon="3.82755">
        <ele>9.3682665209063</ele>
        <time>2020-08-02T07:38:54.000Z</time>
      </trkpt>
      <trkpt lat="43.52682" lon="3.8276">
        <ele>9.270323297261</ele>
        <time>2020-08-02T07:38:55.000Z</time>
      </trkpt>
      <trkpt lat="43.5268" lon="3.82766">
        <ele>9.1723800736157</ele>
        <time>2020-08-02T07:38:56.000Z</time>
      </trkpt>
      <trkpt lat="43.52678" lon="3.82771">
        <ele>9.0744368499704</ele>
        <time>2020-08-02T07:38:57.000Z</time>
      </trkpt>
      <trkpt lat="43.52676" lon="3.82776">
        <ele>8.9754851969813</ele>
        <time>2020-08-02T07:38:58.000Z</time>
      </trkpt>
      <trkpt lat="43.52674" lon="3.82781">
        <ele>8.8733401844036</ele>
        <time>2020-08-02T07:38:59.000Z</time>
      </trkpt>
      <trkpt lat="43.52672" lon="3.82786">
        <ele>8.7711951718259</ele>
        <time>2020-08-02T07:39:00.000Z</time>
      </trkpt>
      <trkpt lat="43.5267" lon="3.82792">
        <ele>8.6690501592482</ele>
        <time>2020-08-02T07:39:01.000Z</time>
      </trkpt>
      <trkpt lat="43.52668" lon="3.82797">
        <ele>8.5669051466704</ele>
        <time>2020-08-02T07:39:02.000Z</time>
      </trkpt>
      <trkpt lat="43.52667" lon="3.82802">
        <ele>8.4647601340927</ele>
        <time>2020-08-02T07:39:03.000Z</time>
      </trkpt>
      <trkpt lat="43.52665" lon="3.82807">
        <ele>8.362615121515</ele>
        <time>2020-08-02T07:39:04.000Z</time>
      </trkpt>
      <trkpt lat="43.52663" lon="3.82812">
        <ele>8.2604701089373</ele>
        <time>2020-08-02T07:39:05.000Z</time>
      </trkpt>
      <trkpt lat="43.52661" lon="3.82817">
        <ele>8.1583250963595</ele>
        <time>2020-08-02T07:39:06.000Z</time>
      </trkpt>
      <trkpt lat="43.5266" lon="3.82821">
        <ele>8.0561800837818</ele>
        <time>2020-08-02T07:39:07.000Z</time>
      </trkpt>
      <trkpt lat="43.52659" lon="3.82825">
        <ele>7.95500032</ele>
        <time>2020-08-02T07:39:08.000Z</time>
      </trkpt>
      <trkpt lat="43.52658" lon="3.82829">
        <ele>7.85500032</ele>
        <time>2020-08-02T07:39:09.000Z</time>
      </trkpt>
      <trkpt lat="43.52656" lon="3.82834">
        <ele>7.75500032</ele>
        <time>2020-08-02T07:39:10.000Z</time>
      </trkpt>
      <trkpt lat="43.52655" lon="3.82839">
        <ele>7.65500032</ele>
        <time>2020-08-02T07:39:11.000Z</time>
      </trkpt>
      <trkpt lat="43.52652" lon="3.82844">
        <ele>7.55500032</ele>
        <time>2020-08-02T07:39:12.000Z</time>
      </trkpt>
      <trkpt lat="43.52648" lon="3.82849">
        <ele>7.45500032</ele>
        <time>2020-08-02T07:39:13.000Z</time>
      </trkpt>
      <trkpt lat="43.52645" lon="3.82854">
        <ele>7.35500032</ele>
        <time>2020-08-02T07:39:14.000Z</time>
      </trkpt>
      <trkpt lat="43.52642" lon="3.82858">
        <ele>7.25500032</ele>
        <time>2020-08-02T07:39:15.000Z</time>
      </trkpt>
      <trkpt lat="43.52639" lon="3.82862">
        <ele>7.15500032</ele>
        <time>2020-08-02T07:39:16.000Z</time>
      </trkpt>
      <trkpt lat="43.52636" lon="3.82867">
        <ele>7.05500032</ele>
        <time>2020-08-02T07:39:17.000Z</time>
      </trkpt>
      <trkpt lat="43.52634" lon="3.82871">
        <ele>7</ele>
        <time>2020-08-02T07:39:18.000Z</time>
      </trkpt>
      <trkpt lat="43.52631" lon="3.82876">
        <ele>7</ele>
        <time>2020-08-02T07:39:19.000Z</time>
      </trkpt>
      <trkpt lat="43.52629" lon="3.82881">
        <ele>7</ele>
        <time>2020-08-02T07:39:20.000Z</time>
      </trkpt>
      <trkpt lat="43.52627" lon="3.82886">
        <ele>7</ele>
        <time>2020-08-02T07:39:21.000Z</time>
      </trkpt>
      <trkpt lat="43.52625" lon="3.82892">
        <ele>7</ele>
        <time>2020-08-02T07:39:22.000Z</time>
      </trkpt>
      <trkpt lat="43.52622" lon="3.82897">
        <ele>7</ele>
        <time>2020-08-02T07:39:23.000Z</time>
      </trkpt>
      <trkpt lat="43.5262" lon="3.82902">
        <ele>7</ele>
        <time>2020-08-02T07:39:24.000Z</time>
      </trkpt>
      <trkpt lat="43.52618" lon="3.82907">
        <ele>7</ele>
        <time>2020-08-02T07:39:25.000Z</time>
      </trkpt>
      <trkpt lat="43.52615" lon="3.82913">
        <ele>7</ele>
        <time>2020-08-02T07:39:26.000Z</time>
      </trkpt>
      <trkpt lat="43.52613" lon="3.82918">
        <ele>7</ele>
        <time>2020-08-02T07:39:27.000Z</time>
      </trkpt>
      <trkpt lat="43.5261" lon="3.82924">
        <ele>7</ele>
        <time>2020-08-02T07:39:28.000Z</time>
      </trkpt>
      <trkpt lat="43.52608" lon="3.82929">
        <ele>7</ele>
        <time>2020-08-02T07:39:29.000Z</time>
      </trkpt>
      <trkpt lat="43.52605" lon="3.82934">
        <ele>7</ele>
        <time>2020-08-02T07:39:30.000Z</time>
      </trkpt>
      <trkpt lat="43.52602" lon="3.82939">
        <ele>7</ele>
        <time>2020-08-02T07:39:31.000Z</time>
      </trkpt>
      <trkpt lat="43.526" lon="3.82944">
        <ele>7</ele>
        <time>2020-08-02T07:39:32.000Z</time>
      </trkpt>
      <trkpt lat="43.52597" lon="3.8295">
        <ele>7</ele>
        <time>2020-08-02T07:39:33.000Z</time>
      </trkpt>
      <trkpt lat="43.52595" lon="3.82956">
        <ele>7</ele>
        <time>2020-08-02T07:39:34.000Z</time>
      </trkpt>
      <trkpt lat="43.52593" lon="3.82962">
        <ele>7</ele>
        <time>2020-08-02T07:39:35.000Z</time>
      </trkpt>
      <trkpt lat="43.52591" lon="3.82969">
        <ele>7</ele>
        <time>2020-08-02T07:39:36.000Z</time>
      </trkpt>
      <trkpt lat="43.52589" lon="3.82975">
        <ele>7</ele>
        <time>2020-08-02T07:39:37.000Z</time>
      </trkpt>
      <trkpt lat="43.52586" lon="3.8298">
        <ele>6.984</ele>
        <time>2020-08-02T07:39:38.000Z</time>
      </trkpt>
      <trkpt lat="43.52584" lon="3.82986">
        <ele>6.884</ele>
        <time>2020-08-02T07:39:39.000Z</time>
      </trkpt>
      <trkpt lat="43.52581" lon="3.82992">
        <ele>6.784</ele>
        <time>2020-08-02T07:39:40.000Z</time>
      </trkpt>
      <trkpt lat="43.52578" lon="3.82998">
        <ele>6.684</ele>
        <time>2020-08-02T07:39:41.000Z</time>
      </trkpt>
      <trkpt lat="43.52576" lon="3.83004">
        <ele>6.584</ele>
        <time>2020-08-02T07:39:42.000Z</time>
      </trkpt>
      <trkpt lat="43.52573" lon="3.8301">
        <ele>6.484</ele>
        <time>2020-08-02T07:39:43.000Z</time>
      </trkpt>
      <trkpt lat="43.5257" lon="3.83016">
        <ele>6.384</ele>
        <time>2020-08-02T07:39:44.000Z</time>
      </trkpt>
      <trkpt lat="43.52568" lon="3.83022">
        <ele>6.284</ele>
        <time>2020-08-02T07:39:45.000Z</time>
      </trkpt>
      <trkpt lat="43.52565" lon="3.83028">
        <ele>6.184</ele>
        <time>2020-08-02T07:39:46.000Z</time>
      </trkpt>
      <trkpt lat="43.52563" lon="3.83034">
        <ele>6.084</ele>
        <time>2020-08-02T07:39:47.000Z</time>
      </trkpt>
      <trkpt lat="43.5256" lon="3.83041">
        <ele>6</ele>
        <time>2020-08-02T07:39:48.000Z</time>
      </trkpt>
      <trkpt lat="43.52558" lon="3.83047">
        <ele>6</ele>
        <time>2020-08-02T07:39:49.000Z</time>
      </trkpt>
      <trkpt lat="43.52556" lon="3.83054">
        <ele>6</ele>
        <time>2020-08-02T07:39:50.000Z</time>
      </trkpt>
      <trkpt lat="43.52553" lon="3.8306">
        <ele>6</ele>
        <time>2020-08-02T07:39:51.000Z</time>
      </trkpt>
      <trkpt lat="43.52551" lon="3.83066">
        <ele>6</ele>
        <time>2020-08-02T07:39:52.000Z</time>
      </trkpt>
      <trkpt lat="43.52549" lon="3.83073">
        <ele>6</ele>
        <time>2020-08-02T07:39:53.000Z</time>
      </trkpt>
      <trkpt lat="43.52546" lon="3.83079">
        <ele>6</ele>
        <time>2020-08-02T07:39:54.000Z</time>
      </trkpt>
      <trkpt lat="43.52544" lon="3.83085">
        <ele>6</ele>
        <time>2020-08-02T07:39:55.000Z</time>
      </trkpt>
      <trkpt lat="43.52541" lon="3.83091">
        <ele>6</ele>
        <time>2020-08-02T07:39:56.000Z</time>
      </trkpt>
      <trkpt lat="43.52539" lon="3.83097">
        <ele>6</ele>
        <time>2020-08-02T07:39:57.000Z</time>
      </trkpt>
      <trkpt lat="43.52537" lon="3.83103">
        <ele>6</ele>
        <time>2020-08-02T07:39:58.000Z</time>
      </trkpt>
      <trkpt lat="43.52534" lon="3.83109">
        <ele>6</ele>
        <time>2020-08-02T07:39:59.000Z</time>
      </trkpt>
      <trkpt lat="43.52532" lon="3.83115">
        <ele>6</ele>
        <time>2020-08-02T07:40:00.000Z</time>
      </trkpt>
      <trkpt lat="43.5253" lon="3.83121">
        <ele>6</ele>
        <time>2020-08-02T07:40:01.000Z</time>
      </trkpt>
      <trkpt lat="43.52528" lon="3.83127">
        <ele>6</ele>
        <time>2020-08-02T07:40:02.000Z</time>
      </trkpt>
      <trkpt lat="43.52526" lon="3.83133">
        <ele>6</ele>
        <time>2020-08-02T07:40:03.000Z</time>
      </trkpt>
      <trkpt lat="43.52524" lon="3.83138">
        <ele>6</ele>
        <time>2020-08-02T07:40:04.000Z</time>
      </trkpt>
      <trkpt lat="43.52522" lon="3.83143">
        <ele>6</ele>
        <time>2020-08-02T07:40:05.000Z</time>
      </trkpt>
      <trkpt lat="43.5252" lon="3.83148">
        <ele>6</ele>
        <time>2020-08-02T07:40:06.000Z</time>
      </trkpt>
      <trkpt lat="43.52517" lon="3.83151">
        <ele>6</ele>
        <time>2020-08-02T07:40:07.000Z</time>
      </trkpt>
      <trkpt lat="43.52513" lon="3.83152">
        <ele>6</ele>
        <time>2020-08-02T07:40:08.000Z</time>
      </trkpt>
      <trkpt lat="43.52509" lon="3.83151">
        <ele>6</ele>
        <time>2020-08-02T07:40:09.000Z</time>
      </trkpt>
      <trkpt lat="43.52505" lon="3.83148">
        <ele>6</ele>
        <time>2020-08-02T07:40:10.000Z</time>
      </trkpt>
      <trkpt lat="43.52502" lon="3.83146">
        <ele>6</ele>
        <time>2020-08-02T07:40:11.000Z</time>
      </trkpt>
      <trkpt lat="43.52498" lon="3.83145">
        <ele>6</ele>
        <time>2020-08-02T07:40:12.000Z</time>
      </trkpt>
      <trkpt lat="43.52494" lon="3.83145">
        <ele>6</ele>
        <time>2020-08-02T07:40:13.000Z</time>
      </trkpt>
      <trkpt lat="43.5249" lon="3.83145">
        <ele>6</ele>
        <time>2020-08-02T07:40:14.000Z</time>
      </trkpt>
      <trkpt lat="43.52486" lon="3.83147">
        <ele>6</ele>
        <time>2020-08-02T07:40:15.000Z</time>
      </trkpt>
      <trkpt lat="43.52482" lon="3.83149">
        <ele>6</ele>
        <time>2020-08-02T07:40:16.000Z</time>
      </trkpt>
      <trkpt lat="43.52478" lon="3.83151">
        <ele>6</ele>
        <time>2020-08-02T07:40:17.000Z</time>
      </trkpt>
      <trkpt lat="43.52474" lon="3.83153">
        <ele>6.04499968</ele>
        <time>2020-08-02T07:40:18.000Z</time>
      </trkpt>
      <trkpt lat="43.5247" lon="3.83155">
        <ele>6.14499968</ele>
        <time>2020-08-02T07:40:19.000Z</time>
      </trkpt>
      <trkpt lat="43.52465" lon="3.83158">
        <ele>6.24499968</ele>
        <time>2020-08-02T07:40:20.000Z</time>
      </trkpt>
      <trkpt lat="43.52461" lon="3.8316">
        <ele>6.34499968</ele>
        <time>2020-08-02T07:40:21.000Z</time>
      </trkpt>
      <trkpt lat="43.52457" lon="3.83161">
        <ele>6.44499968</ele>
        <time>2020-08-02T07:40:22.000Z</time>
      </trkpt>
      <trkpt lat="43.52453" lon="3.83163">
        <ele>6.54499968</ele>
        <time>2020-08-02T07:40:23.000Z</time>
      </trkpt>
      <trkpt lat="43.5245" lon="3.83164">
        <ele>6.64499968</ele>
        <time>2020-08-02T07:40:24.000Z</time>
      </trkpt>
      <trkpt lat="43.52446" lon="3.83166">
        <ele>6.74499968</ele>
        <time>2020-08-02T07:40:25.000Z</time>
      </trkpt>
      <trkpt lat="43.52442" lon="3.83168">
        <ele>6.84499968</ele>
        <time>2020-08-02T07:40:26.000Z</time>
      </trkpt>
      <trkpt lat="43.52437" lon="3.8317">
        <ele>6.94499968</ele>
        <time>2020-08-02T07:40:27.000Z</time>
      </trkpt>
      <trkpt lat="43.52433" lon="3.83173">
        <ele>7</ele>
        <time>2020-08-02T07:40:28.000Z</time>
      </trkpt>
      <trkpt lat="43.52428" lon="3.83175">
        <ele>7</ele>
        <time>2020-08-02T07:40:29.000Z</time>
      </trkpt>
      <trkpt lat="43.52423" lon="3.83178">
        <ele>7</ele>
        <time>2020-08-02T07:40:30.000Z</time>
      </trkpt>
      <trkpt lat="43.52418" lon="3.83181">
        <ele>7</ele>
        <time>2020-08-02T07:40:31.000Z</time>
      </trkpt>
      <trkpt lat="43.52413" lon="3.83183">
        <ele>7</ele>
        <time>2020-08-02T07:40:32.000Z</time>
      </trkpt>
      <trkpt lat="43.52409" lon="3.83186">
        <ele>7</ele>
        <time>2020-08-02T07:40:33.000Z</time>
      </trkpt>
      <trkpt lat="43.52404" lon="3.83189">
        <ele>7</ele>
        <time>2020-08-02T07:40:34.000Z</time>
      </trkpt>
      <trkpt lat="43.52399" lon="3.83192">
        <ele>7</ele>
        <time>2020-08-02T07:40:35.000Z</time>
      </trkpt>
      <trkpt lat="43.52394" lon="3.83194">
        <ele>7</ele>
        <time>2020-08-02T07:40:36.000Z</time>
      </trkpt>
      <trkpt lat="43.52389" lon="3.83197">
        <ele>7</ele>
        <time>2020-08-02T07:40:37.000Z</time>
      </trkpt>
      <trkpt lat="43.52384" lon="3.832">
        <ele>7</ele>
        <time>2020-08-02T07:40:38.000Z</time>
      </trkpt>
      <trkpt lat="43.5238" lon="3.83202">
        <ele>7</ele>
        <time>2020-08-02T07:40:39.000Z</time>
      </trkpt>
      <trkpt lat="43.52375" lon="3.83205">
        <ele>7</ele>
        <time>2020-08-02T07:40:40.000Z</time>
      </trkpt>
      <trkpt lat="43.52371" lon="3.83209">
        <ele>7</ele>
        <time>2020-08-02T07:40:41.000Z</time>
      </trkpt>
      <trkpt lat="43.52366" lon="3.83212">
        <ele>7</ele>
        <time>2020-08-02T07:40:42.000Z</time>
      </trkpt>
      <trkpt lat="43.52362" lon="3.83216">
        <ele>7</ele>
        <time>2020-08-02T07:40:43.000Z</time>
      </trkpt>
      <trkpt lat="43.52358" lon="3.83221">
        <ele>7</ele>
        <time>2020-08-02T07:40:44.000Z</time>
      </trkpt>
      <trkpt lat="43.52354" lon="3.83225">
        <ele>7</ele>
        <time>2020-08-02T07:40:45.000Z</time>
      </trkpt>
      <trkpt lat="43.5235" lon="3.8323">
        <ele>7</ele>
        <time>2020-08-02T07:40:46.000Z</time>
      </trkpt>
      <trkpt lat="43.52346" lon="3.83235">
        <ele>7</ele>
        <time>2020-08-02T07:40:47.000Z</time>
      </trkpt>
      <trkpt lat="43.52342" lon="3.83239">
        <ele>7</ele>
        <time>2020-08-02T07:40:48.000Z</time>
      </trkpt>
      <trkpt lat="43.52339" lon="3.83244">
        <ele>7</ele>
        <time>2020-08-02T07:40:49.000Z</time>
      </trkpt>
      <trkpt lat="43.52335" lon="3.83249">
        <ele>7</ele>
        <time>2020-08-02T07:40:50.000Z</time>
      </trkpt>
      <trkpt lat="43.52331" lon="3.83254">
        <ele>7</ele>
        <time>2020-08-02T07:40:51.000Z</time>
      </trkpt>
      <trkpt lat="43.52328" lon="3.83258">
        <ele>7</ele>
        <time>2020-08-02T07:40:52.000Z</time>
      </trkpt>
      <trkpt lat="43.52324" lon="3.83263">
        <ele>7</ele>
        <time>2020-08-02T07:40:53.000Z</time>
      </trkpt>
      <trkpt lat="43.52321" lon="3.83267">
        <ele>7</ele>
        <time>2020-08-02T07:40:54.000Z</time>
      </trkpt>
      <trkpt lat="43.52317" lon="3.83272">
        <ele>7</ele>
        <time>2020-08-02T07:40:55.000Z</time>
      </trkpt>
      <trkpt lat="43.52314" lon="3.83276">
        <ele>7</ele>
        <time>2020-08-02T07:40:56.000Z</time>
      </trkpt>
      <trkpt lat="43.5231" lon="3.8328">
        <ele>7</ele>
        <time>2020-08-02T07:40:57.000Z</time>
      </trkpt>
      <trkpt lat="43.52307" lon="3.83285">
        <ele>6.9835221475519</ele>
        <time>2020-08-02T07:40:58.000Z</time>
      </trkpt>
      <trkpt lat="43.52304" lon="3.83289">
        <ele>6.8805355697514</ele>
        <time>2020-08-02T07:40:59.000Z</time>
      </trkpt>
      <trkpt lat="43.52301" lon="3.83293">
        <ele>6.7775489919509</ele>
        <time>2020-08-02T07:41:00.000Z</time>
      </trkpt>
      <trkpt lat="43.52298" lon="3.83296">
        <ele>6.6745624141504</ele>
        <time>2020-08-02T07:41:01.000Z</time>
      </trkpt>
      <trkpt lat="43.52296" lon="3.83298">
        <ele>6.5715758363499</ele>
        <time>2020-08-02T07:41:02.000Z</time>
      </trkpt>
      <trkpt lat="43.52294" lon="3.83301">
        <ele>6.3656026807489</ele>
        <time>2020-08-02T07:41:04.000Z</time>
      </trkpt>
      <trkpt lat="43.52293" lon="3.83303">
        <ele>6.1596295251478</ele>
        <time>2020-08-02T07:41:06.000Z</time>
      </trkpt>
      <trkpt lat="43.52293" lon="3.83303">
        <ele>6</ele>
        <time>2020-08-02T07:41:11.000Z</time>
      </trkpt>
      <trkpt lat="43.52285" lon="3.83313">
        <ele>6</ele>
        <time>2020-08-02T07:41:20.000Z</time>
      </trkpt>
      <trkpt lat="43.52283" lon="3.83317">
        <ele>6</ele>
        <time>2020-08-02T07:41:21.000Z</time>
      </trkpt>
      <trkpt lat="43.5228" lon="3.83321">
        <ele>6</ele>
        <time>2020-08-02T07:41:22.000Z</time>
      </trkpt>
      <trkpt lat="43.52277" lon="3.83325">
        <ele>6</ele>
        <time>2020-08-02T07:41:23.000Z</time>
      </trkpt>
      <trkpt lat="43.52274" lon="3.83329">
        <ele>6</ele>
        <time>2020-08-02T07:41:24.000Z</time>
      </trkpt>
      <trkpt lat="43.52271" lon="3.83334">
        <ele>6</ele>
        <time>2020-08-02T07:41:25.000Z</time>
      </trkpt>
      <trkpt lat="43.52268" lon="3.83339">
        <ele>6</ele>
        <time>2020-08-02T07:41:26.000Z</time>
      </trkpt>
      <trkpt lat="43.52265" lon="3.83344">
        <ele>6</ele>
        <time>2020-08-02T07:41:27.000Z</time>
      </trkpt>
      <trkpt lat="43.52262" lon="3.83349">
        <ele>6</ele>
        <time>2020-08-02T07:41:28.000Z</time>
      </trkpt>
      <trkpt lat="43.52258" lon="3.83354">
        <ele>6</ele>
        <time>2020-08-02T07:41:29.000Z</time>
      </trkpt>
      <trkpt lat="43.52255" lon="3.83359">
        <ele>6</ele>
        <time>2020-08-02T07:41:30.000Z</time>
      </trkpt>
      <trkpt lat="43.52251" lon="3.83364">
        <ele>6</ele>
        <time>2020-08-02T07:41:31.000Z</time>
      </trkpt>
      <trkpt lat="43.52247" lon="3.83369">
        <ele>6</ele>
        <time>2020-08-02T07:41:32.000Z</time>
      </trkpt>
      <trkpt lat="43.52243" lon="3.83373">
        <ele>6</ele>
        <time>2020-08-02T07:41:33.000Z</time>
      </trkpt>
      <trkpt lat="43.52239" lon="3.83378">
        <ele>6</ele>
        <time>2020-08-02T07:41:34.000Z</time>
      </trkpt>
      <trkpt lat="43.52235" lon="3.83382">
        <ele>6</ele>
        <time>2020-08-02T07:41:35.000Z</time>
      </trkpt>
      <trkpt lat="43.5223" lon="3.83387">
        <ele>6</ele>
        <time>2020-08-02T07:41:36.000Z</time>
      </trkpt>
      <trkpt lat="43.52226" lon="3.83391">
        <ele>6</ele>
        <time>2020-08-02T07:41:37.000Z</time>
      </trkpt>
      <trkpt lat="43.52221" lon="3.83395">
        <ele>6</ele>
        <time>2020-08-02T07:41:38.000Z</time>
      </trkpt>
      <trkpt lat="43.52217" lon="3.83399">
        <ele>6</ele>
        <time>2020-08-02T07:41:39.000Z</time>
      </trkpt>
      <trkpt lat="43.52212" lon="3.83404">
        <ele>6</ele>
        <time>2020-08-02T07:41:40.000Z</time>
      </trkpt>
      <trkpt lat="43.52208" lon="3.83408">
        <ele>6</ele>
        <time>2020-08-02T07:41:41.000Z</time>
      </trkpt>
      <trkpt lat="43.52203" lon="3.83413">
        <ele>6</ele>
        <time>2020-08-02T07:41:42.000Z</time>
      </trkpt>
      <trkpt lat="43.52198" lon="3.83417">
        <ele>6</ele>
        <time>2020-08-02T07:41:43.000Z</time>
      </trkpt>
      <trkpt lat="43.52193" lon="3.83421">
        <ele>6</ele>
        <time>2020-08-02T07:41:44.000Z</time>
      </trkpt>
      <trkpt lat="43.52189" lon="3.83426">
        <ele>6</ele>
        <time>2020-08-02T07:41:45.000Z</time>
      </trkpt>
      <trkpt lat="43.52184" lon="3.8343">
        <ele>6</ele>
        <time>2020-08-02T07:41:46.000Z</time>
      </trkpt>
      <trkpt lat="43.52179" lon="3.83435">
        <ele>6</ele>
        <time>2020-08-02T07:41:47.000Z</time>
      </trkpt>
      <trkpt lat="43.52174" lon="3.83439">
        <ele>6</ele>
        <time>2020-08-02T07:41:48.000Z</time>
      </trkpt>
      <trkpt lat="43.5217" lon="3.83444">
        <ele>6</ele>
        <time>2020-08-02T07:41:49.000Z</time>
      </trkpt>
      <trkpt lat="43.52165" lon="3.83449">
        <ele>5.9552686792962</ele>
        <time>2020-08-02T07:41:50.000Z</time>
      </trkpt>
      <trkpt lat="43.5216" lon="3.83454">
        <ele>5.8558650375285</ele>
        <time>2020-08-02T07:41:51.000Z</time>
      </trkpt>
      <trkpt lat="43.52155" lon="3.83459">
        <ele>5.7564613957607</ele>
        <time>2020-08-02T07:41:52.000Z</time>
      </trkpt>
      <trkpt lat="43.52151" lon="3.83463">
        <ele>5.657057753993</ele>
        <time>2020-08-02T07:41:53.000Z</time>
      </trkpt>
      <trkpt lat="43.52146" lon="3.83468">
        <ele>5.5576541122253</ele>
        <time>2020-08-02T07:41:54.000Z</time>
      </trkpt>
      <trkpt lat="43.52141" lon="3.83473">
        <ele>5.4582504704576</ele>
        <time>2020-08-02T07:41:55.000Z</time>
      </trkpt>
      <trkpt lat="43.52136" lon="3.83478">
        <ele>5.3588468286898</ele>
        <time>2020-08-02T07:41:56.000Z</time>
      </trkpt>
      <trkpt lat="43.52131" lon="3.83483">
        <ele>5.2594431869221</ele>
        <time>2020-08-02T07:41:57.000Z</time>
      </trkpt>
      <trkpt lat="43.52126" lon="3.83488">
        <ele>5.1600395451544</ele>
        <time>2020-08-02T07:41:58.000Z</time>
      </trkpt>
      <trkpt lat="43.52121" lon="3.83492">
        <ele>5.0606359033867</ele>
        <time>2020-08-02T07:41:59.000Z</time>
      </trkpt>
      <trkpt lat="43.52115" lon="3.83496">
        <ele>5</ele>
        <time>2020-08-02T07:42:00.000Z</time>
      </trkpt>
      <trkpt lat="43.5211" lon="3.835">
        <ele>5</ele>
        <time>2020-08-02T07:42:01.000Z</time>
      </trkpt>
      <trkpt lat="43.52104" lon="3.83503">
        <ele>5</ele>
        <time>2020-08-02T07:42:02.000Z</time>
      </trkpt>
      <trkpt lat="43.52098" lon="3.83505">
        <ele>5</ele>
        <time>2020-08-02T07:42:03.000Z</time>
      </trkpt>
      <trkpt lat="43.52092" lon="3.83506">
        <ele>5</ele>
        <time>2020-08-02T07:42:04.000Z</time>
      </trkpt>
      <trkpt lat="43.52086" lon="3.83507">
        <ele>5</ele>
        <time>2020-08-02T07:42:05.000Z</time>
      </trkpt>
      <trkpt lat="43.5208" lon="3.83506">
        <ele>5</ele>
        <time>2020-08-02T07:42:06.000Z</time>
      </trkpt>
      <trkpt lat="43.52074" lon="3.83506">
        <ele>5</ele>
        <time>2020-08-02T07:42:07.000Z</time>
      </trkpt>
      <trkpt lat="43.52068" lon="3.83505">
        <ele>5</ele>
        <time>2020-08-02T07:42:08.000Z</time>
      </trkpt>
      <trkpt lat="43.52062" lon="3.83503">
        <ele>5</ele>
        <time>2020-08-02T07:42:09.000Z</time>
      </trkpt>
      <trkpt lat="43.52056" lon="3.83502">
        <ele>5</ele>
        <time>2020-08-02T07:42:10.000Z</time>
      </trkpt>
      <trkpt lat="43.52051" lon="3.835">
        <ele>5</ele>
        <time>2020-08-02T07:42:11.000Z</time>
      </trkpt>
      <trkpt lat="43.52046" lon="3.83499">
        <ele>5</ele>
        <time>2020-08-02T07:42:12.000Z</time>
      </trkpt>
      <trkpt lat="43.5204" lon="3.83497">
        <ele>5</ele>
        <time>2020-08-02T07:42:13.000Z</time>
      </trkpt>
      <trkpt lat="43.52035" lon="3.83495">
        <ele>5</ele>
        <time>2020-08-02T07:42:14.000Z</time>
      </trkpt>
      <trkpt lat="43.5203" lon="3.83493">
        <ele>5</ele>
        <time>2020-08-02T07:42:15.000Z</time>
      </trkpt>
      <trkpt lat="43.52024" lon="3.83491">
        <ele>5</ele>
        <time>2020-08-02T07:42:16.000Z</time>
      </trkpt>
      <trkpt lat="43.52019" lon="3.8349">
        <ele>5</ele>
        <time>2020-08-02T07:42:17.000Z</time>
      </trkpt>
      <trkpt lat="43.52014" lon="3.83488">
        <ele>5</ele>
        <time>2020-08-02T07:42:18.000Z</time>
      </trkpt>
      <trkpt lat="43.52009" lon="3.83485">
        <ele>5</ele>
        <time>2020-08-02T07:42:19.000Z</time>
      </trkpt>
      <trkpt lat="43.52004" lon="3.83481">
        <ele>5</ele>
        <time>2020-08-02T07:42:20.000Z</time>
      </trkpt>
      <trkpt lat="43.52" lon="3.83475">
        <ele>5</ele>
        <time>2020-08-02T07:42:21.000Z</time>
      </trkpt>
      <trkpt lat="43.51997" lon="3.83469">
        <ele>5</ele>
        <time>2020-08-02T07:42:22.000Z</time>
      </trkpt>
      <trkpt lat="43.51994" lon="3.83463">
        <ele>5</ele>
        <time>2020-08-02T07:42:23.000Z</time>
      </trkpt>
      <trkpt lat="43.51991" lon="3.83456">
        <ele>5</ele>
        <time>2020-08-02T07:42:24.000Z</time>
      </trkpt>
      <trkpt lat="43.51988" lon="3.83449">
        <ele>5</ele>
        <time>2020-08-02T07:42:25.000Z</time>
      </trkpt>
      <trkpt lat="43.51986" lon="3.83442">
        <ele>5</ele>
        <time>2020-08-02T07:42:26.000Z</time>
      </trkpt>
      <trkpt lat="43.51983" lon="3.83435">
        <ele>5</ele>
        <time>2020-08-02T07:42:27.000Z</time>
      </trkpt>
      <trkpt lat="43.51981" lon="3.83428">
        <ele>5</ele>
        <time>2020-08-02T07:42:28.000Z</time>
      </trkpt>
      <trkpt lat="43.51978" lon="3.83422">
        <ele>5</ele>
        <time>2020-08-02T07:42:29.000Z</time>
      </trkpt>
      <trkpt lat="43.51976" lon="3.83415">
        <ele>5</ele>
        <time>2020-08-02T07:42:30.000Z</time>
      </trkpt>
      <trkpt lat="43.51973" lon="3.83408">
        <ele>5</ele>
        <time>2020-08-02T07:42:31.000Z</time>
      </trkpt>
      <trkpt lat="43.51971" lon="3.83402">
        <ele>5</ele>
        <time>2020-08-02T07:42:32.000Z</time>
      </trkpt>
      <trkpt lat="43.51968" lon="3.83395">
        <ele>5</ele>
        <time>2020-08-02T07:42:33.000Z</time>
      </trkpt>
      <trkpt lat="43.51966" lon="3.83389">
        <ele>5</ele>
        <time>2020-08-02T07:42:34.000Z</time>
      </trkpt>
      <trkpt lat="43.51963" lon="3.83382">
        <ele>5</ele>
        <time>2020-08-02T07:42:35.000Z</time>
      </trkpt>
      <trkpt lat="43.51961" lon="3.83376">
        <ele>5</ele>
        <time>2020-08-02T07:42:36.000Z</time>
      </trkpt>
      <trkpt lat="43.51958" lon="3.8337">
        <ele>5</ele>
        <time>2020-08-02T07:42:37.000Z</time>
      </trkpt>
      <trkpt lat="43.51955" lon="3.83363">
        <ele>5</ele>
        <time>2020-08-02T07:42:38.000Z</time>
      </trkpt>
      <trkpt lat="43.51952" lon="3.83358">
        <ele>5</ele>
        <time>2020-08-02T07:42:39.000Z</time>
      </trkpt>
      <trkpt lat="43.51948" lon="3.83353">
        <ele>5</ele>
        <time>2020-08-02T07:42:40.000Z</time>
      </trkpt>
      <trkpt lat="43.51944" lon="3.83349">
        <ele>5</ele>
        <time>2020-08-02T07:42:41.000Z</time>
      </trkpt>
      <trkpt lat="43.51939" lon="3.83346">
        <ele>5</ele>
        <time>2020-08-02T07:42:42.000Z</time>
      </trkpt>
      <trkpt lat="43.51934" lon="3.83345">
        <ele>5</ele>
        <time>2020-08-02T07:42:43.000Z</time>
      </trkpt>
      <trkpt lat="43.51929" lon="3.83345">
        <ele>5</ele>
        <time>2020-08-02T07:42:44.000Z</time>
      </trkpt>
      <trkpt lat="43.51925" lon="3.83346">
        <ele>5</ele>
        <time>2020-08-02T07:42:45.000Z</time>
      </trkpt>
      <trkpt lat="43.5192" lon="3.83349">
        <ele>5</ele>
        <time>2020-08-02T07:42:46.000Z</time>
      </trkpt>
      <trkpt lat="43.51916" lon="3.83352">
        <ele>5</ele>
        <time>2020-08-02T07:42:47.000Z</time>
      </trkpt>
      <trkpt lat="43.51912" lon="3.83356">
        <ele>5</ele>
        <time>2020-08-02T07:42:48.000Z</time>
      </trkpt>
      <trkpt lat="43.51907" lon="3.83361">
        <ele>5</ele>
        <time>2020-08-02T07:42:49.000Z</time>
      </trkpt>
      <trkpt lat="43.51903" lon="3.83365">
        <ele>5</ele>
        <time>2020-08-02T07:42:50.000Z</time>
      </trkpt>
      <trkpt lat="43.51898" lon="3.83369">
        <ele>5</ele>
        <time>2020-08-02T07:42:51.000Z</time>
      </trkpt>
      <trkpt lat="43.51893" lon="3.83373">
        <ele>5</ele>
        <time>2020-08-02T07:42:52.000Z</time>
      </trkpt>
      <trkpt lat="43.51888" lon="3.83377">
        <ele>5</ele>
        <time>2020-08-02T07:42:53.000Z</time>
      </trkpt>
      <trkpt lat="43.51883" lon="3.83382">
        <ele>5</ele>
        <time>2020-08-02T07:42:54.000Z</time>
      </trkpt>
      <trkpt lat="43.51879" lon="3.83386">
        <ele>5</ele>
        <time>2020-08-02T07:42:55.000Z</time>
      </trkpt>
      <trkpt lat="43.51874" lon="3.8339">
        <ele>5</ele>
        <time>2020-08-02T07:42:56.000Z</time>
      </trkpt>
      <trkpt lat="43.51869" lon="3.83394">
        <ele>5</ele>
        <time>2020-08-02T07:42:57.000Z</time>
      </trkpt>
      <trkpt lat="43.51864" lon="3.83398">
        <ele>5</ele>
        <time>2020-08-02T07:42:58.000Z</time>
      </trkpt>
      <trkpt lat="43.5186" lon="3.83402">
        <ele>5</ele>
        <time>2020-08-02T07:42:59.000Z</time>
      </trkpt>
      <trkpt lat="43.51855" lon="3.83406">
        <ele>5</ele>
        <time>2020-08-02T07:43:00.000Z</time>
      </trkpt>
      <trkpt lat="43.5185" lon="3.8341">
        <ele>5</ele>
        <time>2020-08-02T07:43:01.000Z</time>
      </trkpt>
      <trkpt lat="43.51845" lon="3.83414">
        <ele>5</ele>
        <time>2020-08-02T07:43:02.000Z</time>
      </trkpt>
      <trkpt lat="43.5184" lon="3.83418">
        <ele>5</ele>
        <time>2020-08-02T07:43:03.000Z</time>
      </trkpt>
      <trkpt lat="43.51836" lon="3.83422">
        <ele>5</ele>
        <time>2020-08-02T07:43:04.000Z</time>
      </trkpt>
      <trkpt lat="43.51831" lon="3.83426">
        <ele>5</ele>
        <time>2020-08-02T07:43:05.000Z</time>
      </trkpt>
      <trkpt lat="43.51826" lon="3.8343">
        <ele>5</ele>
        <time>2020-08-02T07:43:06.000Z</time>
      </trkpt>
      <trkpt lat="43.51821" lon="3.83434">
        <ele>5</ele>
        <time>2020-08-02T07:43:07.000Z</time>
      </trkpt>
      <trkpt lat="43.51816" lon="3.83438">
        <ele>5</ele>
        <time>2020-08-02T07:43:08.000Z</time>
      </trkpt>
      <trkpt lat="43.51811" lon="3.83441">
        <ele>5</ele>
        <time>2020-08-02T07:43:09.000Z</time>
      </trkpt>
      <trkpt lat="43.51806" lon="3.83445">
        <ele>5</ele>
        <time>2020-08-02T07:43:10.000Z</time>
      </trkpt>
      <trkpt lat="43.518" lon="3.83449">
        <ele>5</ele>
        <time>2020-08-02T07:43:11.000Z</time>
      </trkpt>
      <trkpt lat="43.51795" lon="3.83452">
        <ele>5</ele>
        <time>2020-08-02T07:43:12.000Z</time>
      </trkpt>
      <trkpt lat="43.5179" lon="3.83456">
        <ele>5</ele>
        <time>2020-08-02T07:43:13.000Z</time>
      </trkpt>
      <trkpt lat="43.51785" lon="3.83459">
        <ele>5</ele>
        <time>2020-08-02T07:43:14.000Z</time>
      </trkpt>
      <trkpt lat="43.5178" lon="3.83462">
        <ele>5</ele>
        <time>2020-08-02T07:43:15.000Z</time>
      </trkpt>
      <trkpt lat="43.51774" lon="3.83464">
        <ele>5</ele>
        <time>2020-08-02T07:43:16.000Z</time>
      </trkpt>
      <trkpt lat="43.51769" lon="3.83468">
        <ele>5</ele>
        <time>2020-08-02T07:43:17.000Z</time>
      </trkpt>
      <trkpt lat="43.51763" lon="3.83471">
        <ele>5</ele>
        <time>2020-08-02T07:43:18.000Z</time>
      </trkpt>
      <trkpt lat="43.51758" lon="3.83474">
        <ele>5</ele>
        <time>2020-08-02T07:43:19.000Z</time>
      </trkpt>
      <trkpt lat="43.51752" lon="3.83477">
        <ele>5</ele>
        <time>2020-08-02T07:43:20.000Z</time>
      </trkpt>
      <trkpt lat="43.51746" lon="3.8348">
        <ele>5</ele>
        <time>2020-08-02T07:43:21.000Z</time>
      </trkpt>
      <trkpt lat="43.51741" lon="3.83483">
        <ele>5</ele>
        <time>2020-08-02T07:43:22.000Z</time>
      </trkpt>
      <trkpt lat="43.51735" lon="3.83485">
        <ele>5</ele>
        <time>2020-08-02T07:43:23.000Z</time>
      </trkpt>
      <trkpt lat="43.51729" lon="3.83487">
        <ele>5</ele>
        <time>2020-08-02T07:43:24.000Z</time>
      </trkpt>
      <trkpt lat="43.51722" lon="3.83488">
        <ele>5</ele>
        <time>2020-08-02T07:43:25.000Z</time>
      </trkpt>
      <trkpt lat="43.51716" lon="3.83489">
        <ele>5</ele>
        <time>2020-08-02T07:43:26.000Z</time>
      </trkpt>
      <trkpt lat="43.5171" lon="3.83489">
        <ele>5</ele>
        <time>2020-08-02T07:43:27.000Z</time>
      </trkpt>
      <trkpt lat="43.51704" lon="3.8349">
        <ele>5</ele>
        <time>2020-08-02T07:43:28.000Z</time>
      </trkpt>
      <trkpt lat="43.51698" lon="3.83491">
        <ele>5</ele>
        <time>2020-08-02T07:43:29.000Z</time>
      </trkpt>
      <trkpt lat="43.51692" lon="3.83492">
        <ele>5</ele>
        <time>2020-08-02T07:43:30.000Z</time>
      </trkpt>
      <trkpt lat="43.51686" lon="3.83493">
        <ele>5</ele>
        <time>2020-08-02T07:43:31.000Z</time>
      </trkpt>
      <trkpt lat="43.5168" lon="3.83494">
        <ele>5</ele>
        <time>2020-08-02T07:43:32.000Z</time>
      </trkpt>
      <trkpt lat="43.51673" lon="3.83494">
        <ele>5</ele>
        <time>2020-08-02T07:43:33.000Z</time>
      </trkpt>
      <trkpt lat="43.51667" lon="3.83494">
        <ele>5</ele>
        <time>2020-08-02T07:43:34.000Z</time>
      </trkpt>
      <trkpt lat="43.51661" lon="3.83493">
        <ele>5</ele>
        <time>2020-08-02T07:43:35.000Z</time>
      </trkpt>
      <trkpt lat="43.51655" lon="3.83491">
        <ele>5</ele>
        <time>2020-08-02T07:43:36.000Z</time>
      </trkpt>
      <trkpt lat="43.5165" lon="3.83488">
        <ele>5</ele>
        <time>2020-08-02T07:43:37.000Z</time>
      </trkpt>
      <trkpt lat="43.51644" lon="3.83485">
        <ele>5</ele>
        <time>2020-08-02T07:43:38.000Z</time>
      </trkpt>
      <trkpt lat="43.51639" lon="3.83482">
        <ele>5</ele>
        <time>2020-08-02T07:43:39.000Z</time>
      </trkpt>
      <trkpt lat="43.51634" lon="3.83478">
        <ele>5</ele>
        <time>2020-08-02T07:43:40.000Z</time>
      </trkpt>
      <trkpt lat="43.5163" lon="3.83474">
        <ele>5</ele>
        <time>2020-08-02T07:43:41.000Z</time>
      </trkpt>
      <trkpt lat="43.51626" lon="3.8347">
        <ele>5</ele>
        <time>2020-08-02T07:43:42.000Z</time>
      </trkpt>
      <trkpt lat="43.51621" lon="3.83467">
        <ele>5</ele>
        <time>2020-08-02T07:43:43.000Z</time>
      </trkpt>
      <trkpt lat="43.51617" lon="3.83463">
        <ele>5</ele>
        <time>2020-08-02T07:43:44.000Z</time>
      </trkpt>
      <trkpt lat="43.51613" lon="3.8346">
        <ele>5</ele>
        <time>2020-08-02T07:43:45.000Z</time>
      </trkpt>
      <trkpt lat="43.51609" lon="3.83457">
        <ele>5</ele>
        <time>2020-08-02T07:43:46.000Z</time>
      </trkpt>
      <trkpt lat="43.51604" lon="3.83453">
        <ele>5</ele>
        <time>2020-08-02T07:43:47.000Z</time>
      </trkpt>
      <trkpt lat="43.516" lon="3.83449">
        <ele>5</ele>
        <time>2020-08-02T07:43:48.000Z</time>
      </trkpt>
      <trkpt lat="43.51595" lon="3.83446">
        <ele>5</ele>
        <time>2020-08-02T07:43:49.000Z</time>
      </trkpt>
      <trkpt lat="43.5159" lon="3.83442">
        <ele>5</ele>
        <time>2020-08-02T07:43:50.000Z</time>
      </trkpt>
      <trkpt lat="43.51586" lon="3.83439">
        <ele>5</ele>
        <time>2020-08-02T07:43:51.000Z</time>
      </trkpt>
      <trkpt lat="43.51581" lon="3.83435">
        <ele>5</ele>
        <time>2020-08-02T07:43:52.000Z</time>
      </trkpt>
      <trkpt lat="43.51577" lon="3.83432">
        <ele>5</ele>
        <time>2020-08-02T07:43:53.000Z</time>
      </trkpt>
      <trkpt lat="43.51572" lon="3.83428">
        <ele>5</ele>
        <time>2020-08-02T07:43:54.000Z</time>
      </trkpt>
      <trkpt lat="43.51568" lon="3.83424">
        <ele>5</ele>
        <time>2020-08-02T07:43:55.000Z</time>
      </trkpt>
      <trkpt lat="43.51564" lon="3.8342">
        <ele>5</ele>
        <time>2020-08-02T07:43:56.000Z</time>
      </trkpt>
      <trkpt lat="43.5156" lon="3.83417">
        <ele>5</ele>
        <time>2020-08-02T07:43:57.000Z</time>
      </trkpt>
      <trkpt lat="43.51557" lon="3.83414">
        <ele>5</ele>
        <time>2020-08-02T07:43:58.000Z</time>
      </trkpt>
      <trkpt lat="43.51553" lon="3.83411">
        <ele>5</ele>
        <time>2020-08-02T07:43:59.000Z</time>
      </trkpt>
      <trkpt lat="43.5155" lon="3.83408">
        <ele>5</ele>
        <time>2020-08-02T07:44:00.000Z</time>
      </trkpt>
      <trkpt lat="43.51547" lon="3.83404">
        <ele>5</ele>
        <time>2020-08-02T07:44:01.000Z</time>
      </trkpt>
      <trkpt lat="43.51544" lon="3.83401">
        <ele>5</ele>
        <time>2020-08-02T07:44:02.000Z</time>
      </trkpt>
      <trkpt lat="43.51541" lon="3.83398">
        <ele>5</ele>
        <time>2020-08-02T07:44:03.000Z</time>
      </trkpt>
      <trkpt lat="43.51538" lon="3.83396">
        <ele>5</ele>
        <time>2020-08-02T07:44:04.000Z</time>
      </trkpt>
      <trkpt lat="43.51534" lon="3.83393">
        <ele>5</ele>
        <time>2020-08-02T07:44:05.000Z</time>
      </trkpt>
      <trkpt lat="43.51531" lon="3.8339">
        <ele>5</ele>
        <time>2020-08-02T07:44:06.000Z</time>
      </trkpt>
      <trkpt lat="43.51528" lon="3.83388">
        <ele>5</ele>
        <time>2020-08-02T07:44:07.000Z</time>
      </trkpt>
      <trkpt lat="43.51525" lon="3.83386">
        <ele>5</ele>
        <time>2020-08-02T07:44:08.000Z</time>
      </trkpt>
      <trkpt lat="43.51522" lon="3.83383">
        <ele>5</ele>
        <time>2020-08-02T07:44:09.000Z</time>
      </trkpt>
      <trkpt lat="43.5152" lon="3.83381">
        <ele>5</ele>
        <time>2020-08-02T07:44:10.000Z</time>
      </trkpt>
      <trkpt lat="43.51518" lon="3.83379">
        <ele>5</ele>
        <time>2020-08-02T07:44:11.000Z</time>
      </trkpt>
      <trkpt lat="43.51516" lon="3.83377">
        <ele>5</ele>
        <time>2020-08-02T07:44:12.000Z</time>
      </trkpt>
      <trkpt lat="43.51514" lon="3.83376">
        <ele>5</ele>
        <time>2020-08-02T07:44:13.000Z</time>
      </trkpt>
      <trkpt lat="43.51512" lon="3.83376">
        <ele>5</ele>
        <time>2020-08-02T07:44:14.000Z</time>
      </trkpt>
      <trkpt lat="43.51509" lon="3.83376">
        <ele>5</ele>
        <time>2020-08-02T07:44:16.000Z</time>
      </trkpt>
      <trkpt lat="43.51508" lon="3.83376">
        <ele>5</ele>
        <time>2020-08-02T07:44:23.000Z</time>
      </trkpt>
      <trkpt lat="43.51504" lon="3.83385">
        <ele>5</ele>
        <time>2020-08-02T07:44:38.000Z</time>
      </trkpt>
      <trkpt lat="43.51502" lon="3.83388">
        <ele>5</ele>
        <time>2020-08-02T07:44:39.000Z</time>
      </trkpt>
      <trkpt lat="43.51501" lon="3.83391">
        <ele>5</ele>
        <time>2020-08-02T07:44:40.000Z</time>
      </trkpt>
      <trkpt lat="43.515" lon="3.83393">
        <ele>5</ele>
        <time>2020-08-02T07:44:41.000Z</time>
      </trkpt>
      <trkpt lat="43.51499" lon="3.83396">
        <ele>5</ele>
        <time>2020-08-02T07:44:42.000Z</time>
      </trkpt>
      <trkpt lat="43.51498" lon="3.83399">
        <ele>5</ele>
        <time>2020-08-02T07:44:43.000Z</time>
      </trkpt>
      <trkpt lat="43.51497" lon="3.83402">
        <ele>5</ele>
        <time>2020-08-02T07:44:44.000Z</time>
      </trkpt>
      <trkpt lat="43.51496" lon="3.83405">
        <ele>5</ele>
        <time>2020-08-02T07:44:45.000Z</time>
      </trkpt>
      <trkpt lat="43.51495" lon="3.83408">
        <ele>5</ele>
        <time>2020-08-02T07:44:46.000Z</time>
      </trkpt>
      <trkpt lat="43.51494" lon="3.83411">
        <ele>5</ele>
        <time>2020-08-02T07:44:47.000Z</time>
      </trkpt>
      <trkpt lat="43.51493" lon="3.83415">
        <ele>5</ele>
        <time>2020-08-02T07:44:48.000Z</time>
      </trkpt>
      <trkpt lat="43.51493" lon="3.83418">
        <ele>5</ele>
        <time>2020-08-02T07:44:49.000Z</time>
      </trkpt>
      <trkpt lat="43.51492" lon="3.83422">
        <ele>5</ele>
        <time>2020-08-02T07:44:50.000Z</time>
      </trkpt>
      <trkpt lat="43.51491" lon="3.83426">
        <ele>5</ele>
        <time>2020-08-02T07:44:51.000Z</time>
      </trkpt>
      <trkpt lat="43.5149" lon="3.83431">
        <ele>5</ele>
        <time>2020-08-02T07:44:52.000Z</time>
      </trkpt>
      <trkpt lat="43.5149" lon="3.83435">
        <ele>5</ele>
        <time>2020-08-02T07:44:53.000Z</time>
      </trkpt>
      <trkpt lat="43.51489" lon="3.83439">
        <ele>5</ele>
        <time>2020-08-02T07:44:54.000Z</time>
      </trkpt>
      <trkpt lat="43.51488" lon="3.83443">
        <ele>5</ele>
        <time>2020-08-02T07:44:55.000Z</time>
      </trkpt>
      <trkpt lat="43.51487" lon="3.83448">
        <ele>5</ele>
        <time>2020-08-02T07:44:56.000Z</time>
      </trkpt>
      <trkpt lat="43.51486" lon="3.83453">
        <ele>5</ele>
        <time>2020-08-02T07:44:57.000Z</time>
      </trkpt>
      <trkpt lat="43.51485" lon="3.83458">
        <ele>5</ele>
        <time>2020-08-02T07:44:58.000Z</time>
      </trkpt>
      <trkpt lat="43.51483" lon="3.83462">
        <ele>5</ele>
        <time>2020-08-02T07:44:59.000Z</time>
      </trkpt>
      <trkpt lat="43.51481" lon="3.83466">
        <ele>5</ele>
        <time>2020-08-02T07:45:00.000Z</time>
      </trkpt>
      <trkpt lat="43.51479" lon="3.8347">
        <ele>5</ele>
        <time>2020-08-02T07:45:01.000Z</time>
      </trkpt>
      <trkpt lat="43.51476" lon="3.83473">
        <ele>5</ele>
        <time>2020-08-02T07:45:02.000Z</time>
      </trkpt>
      <trkpt lat="43.51473" lon="3.83476">
        <ele>5</ele>
        <time>2020-08-02T07:45:03.000Z</time>
      </trkpt>
      <trkpt lat="43.5147" lon="3.83478">
        <ele>5</ele>
        <time>2020-08-02T07:45:04.000Z</time>
      </trkpt>
      <trkpt lat="43.51466" lon="3.83479">
        <ele>5</ele>
        <time>2020-08-02T07:45:05.000Z</time>
      </trkpt>
      <trkpt lat="43.51463" lon="3.83481">
        <ele>5</ele>
        <time>2020-08-02T07:45:06.000Z</time>
      </trkpt>
      <trkpt lat="43.51461" lon="3.83482">
        <ele>5</ele>
        <time>2020-08-02T07:45:07.000Z</time>
      </trkpt>
      <trkpt lat="43.51458" lon="3.83481">
        <ele>5</ele>
        <time>2020-08-02T07:45:08.000Z</time>
      </trkpt>
      <trkpt lat="43.51457" lon="3.83478">
        <ele>5</ele>
        <time>2020-08-02T07:45:09.000Z</time>
      </trkpt>
      <trkpt lat="43.51455" lon="3.83474">
        <ele>5</ele>
        <time>2020-08-02T07:45:10.000Z</time>
      </trkpt>
      <trkpt lat="43.51454" lon="3.8347">
        <ele>5</ele>
        <time>2020-08-02T07:45:11.000Z</time>
      </trkpt>
      <trkpt lat="43.51452" lon="3.83466">
        <ele>5</ele>
        <time>2020-08-02T07:45:12.000Z</time>
      </trkpt>
      <trkpt lat="43.5145" lon="3.83462">
        <ele>5</ele>
        <time>2020-08-02T07:45:13.000Z</time>
      </trkpt>
      <trkpt lat="43.51449" lon="3.83457">
        <ele>5</ele>
        <time>2020-08-02T07:45:14.000Z</time>
      </trkpt>
      <trkpt lat="43.51447" lon="3.83453">
        <ele>5</ele>
        <time>2020-08-02T07:45:15.000Z</time>
      </trkpt>
      <trkpt lat="43.51445" lon="3.83448">
        <ele>5</ele>
        <time>2020-08-02T07:45:16.000Z</time>
      </trkpt>
      <trkpt lat="43.51443" lon="3.83443">
        <ele>5</ele>
        <time>2020-08-02T07:45:17.000Z</time>
      </trkpt>
      <trkpt lat="43.51441" lon="3.83438">
        <ele>5</ele>
        <time>2020-08-02T07:45:18.000Z</time>
      </trkpt>
      <trkpt lat="43.51438" lon="3.83432">
        <ele>5</ele>
        <time>2020-08-02T07:45:19.000Z</time>
      </trkpt>
      <trkpt lat="43.51436" lon="3.83427">
        <ele>5</ele>
        <time>2020-08-02T07:45:20.000Z</time>
      </trkpt>
      <trkpt lat="43.51433" lon="3.83421">
        <ele>5</ele>
        <time>2020-08-02T07:45:21.000Z</time>
      </trkpt>
      <trkpt lat="43.51431" lon="3.83416">
        <ele>5</ele>
        <time>2020-08-02T07:45:22.000Z</time>
      </trkpt>
      <trkpt lat="43.51428" lon="3.8341">
        <ele>5</ele>
        <time>2020-08-02T07:45:23.000Z</time>
      </trkpt>
      <trkpt lat="43.51426" lon="3.83404">
        <ele>5</ele>
        <time>2020-08-02T07:45:24.000Z</time>
      </trkpt>
      <trkpt lat="43.51423" lon="3.83398">
        <ele>5</ele>
        <time>2020-08-02T07:45:25.000Z</time>
      </trkpt>
      <trkpt lat="43.51421" lon="3.83392">
        <ele>5</ele>
        <time>2020-08-02T07:45:26.000Z</time>
      </trkpt>
      <trkpt lat="43.51418" lon="3.83386">
        <ele>5</ele>
        <time>2020-08-02T07:45:27.000Z</time>
      </trkpt>
      <trkpt lat="43.51416" lon="3.8338">
        <ele>5</ele>
        <time>2020-08-02T07:45:28.000Z</time>
      </trkpt>
      <trkpt lat="43.51413" lon="3.83374">
        <ele>5</ele>
        <time>2020-08-02T07:45:29.000Z</time>
      </trkpt>
      <trkpt lat="43.5141" lon="3.83368">
        <ele>5</ele>
        <time>2020-08-02T07:45:30.000Z</time>
      </trkpt>
      <trkpt lat="43.51407" lon="3.83362">
        <ele>5</ele>
        <time>2020-08-02T07:45:31.000Z</time>
      </trkpt>
      <trkpt lat="43.51404" lon="3.83357">
        <ele>5</ele>
        <time>2020-08-02T07:45:32.000Z</time>
      </trkpt>
      <trkpt lat="43.51402" lon="3.83351">
        <ele>5</ele>
        <time>2020-08-02T07:45:33.000Z</time>
      </trkpt>
      <trkpt lat="43.51399" lon="3.83344">
        <ele>5</ele>
        <time>2020-08-02T07:45:34.000Z</time>
      </trkpt>
      <trkpt lat="43.51397" lon="3.83338">
        <ele>5</ele>
        <time>2020-08-02T07:45:35.000Z</time>
      </trkpt>
      <trkpt lat="43.51394" lon="3.83332">
        <ele>5</ele>
        <time>2020-08-02T07:45:36.000Z</time>
      </trkpt>
      <trkpt lat="43.51392" lon="3.83325">
        <ele>5</ele>
        <time>2020-08-02T07:45:37.000Z</time>
      </trkpt>
      <trkpt lat="43.51389" lon="3.83319">
        <ele>5</ele>
        <time>2020-08-02T07:45:38.000Z</time>
      </trkpt>
      <trkpt lat="43.51387" lon="3.83313">
        <ele>5</ele>
        <time>2020-08-02T07:45:39.000Z</time>
      </trkpt>
      <trkpt lat="43.51384" lon="3.83306">
        <ele>5</ele>
        <time>2020-08-02T07:45:40.000Z</time>
      </trkpt>
      <trkpt lat="43.51381" lon="3.83301">
        <ele>5</ele>
        <time>2020-08-02T07:45:41.000Z</time>
      </trkpt>
      <trkpt lat="43.51378" lon="3.83295">
        <ele>5</ele>
        <time>2020-08-02T07:45:42.000Z</time>
      </trkpt>
      <trkpt lat="43.51374" lon="3.8329">
        <ele>5</ele>
        <time>2020-08-02T07:45:43.000Z</time>
      </trkpt>
      <trkpt lat="43.51371" lon="3.83285">
        <ele>5</ele>
        <time>2020-08-02T07:45:44.000Z</time>
      </trkpt>
      <trkpt lat="43.51366" lon="3.83281">
        <ele>5</ele>
        <time>2020-08-02T07:45:45.000Z</time>
      </trkpt>
      <trkpt lat="43.51363" lon="3.83275">
        <ele>5</ele>
        <time>2020-08-02T07:45:46.000Z</time>
      </trkpt>
      <trkpt lat="43.51359" lon="3.83269">
        <ele>5</ele>
        <time>2020-08-02T07:45:47.000Z</time>
      </trkpt>
      <trkpt lat="43.51355" lon="3.83265">
        <ele>5</ele>
        <time>2020-08-02T07:45:48.000Z</time>
      </trkpt>
      <trkpt lat="43.5135" lon="3.8326">
        <ele>5</ele>
        <time>2020-08-02T07:45:49.000Z</time>
      </trkpt>
      <trkpt lat="43.51346" lon="3.83256">
        <ele>5</ele>
        <time>2020-08-02T07:45:50.000Z</time>
      </trkpt>
      <trkpt lat="43.51342" lon="3.8325">
        <ele>5</ele>
        <time>2020-08-02T07:45:51.000Z</time>
      </trkpt>
      <trkpt lat="43.51339" lon="3.83245">
        <ele>5</ele>
        <time>2020-08-02T07:45:52.000Z</time>
      </trkpt>
      <trkpt lat="43.51336" lon="3.83239">
        <ele>5</ele>
        <time>2020-08-02T07:45:53.000Z</time>
      </trkpt>
      <trkpt lat="43.51333" lon="3.83232">
        <ele>5</ele>
        <time>2020-08-02T07:45:54.000Z</time>
      </trkpt>
      <trkpt lat="43.51331" lon="3.83225">
        <ele>5</ele>
        <time>2020-08-02T07:45:55.000Z</time>
      </trkpt>
      <trkpt lat="43.51329" lon="3.83218">
        <ele>5</ele>
        <time>2020-08-02T07:45:56.000Z</time>
      </trkpt>
      <trkpt lat="43.51326" lon="3.83212">
        <ele>5</ele>
        <time>2020-08-02T07:45:57.000Z</time>
      </trkpt>
      <trkpt lat="43.51324" lon="3.83205">
        <ele>5</ele>
        <time>2020-08-02T07:45:58.000Z</time>
      </trkpt>
      <trkpt lat="43.51321" lon="3.83198">
        <ele>5</ele>
        <time>2020-08-02T07:45:59.000Z</time>
      </trkpt>
      <trkpt lat="43.51318" lon="3.83192">
        <ele>5</ele>
        <time>2020-08-02T07:46:00.000Z</time>
      </trkpt>
      <trkpt lat="43.51316" lon="3.83185">
        <ele>5</ele>
        <time>2020-08-02T07:46:01.000Z</time>
      </trkpt>
      <trkpt lat="43.51314" lon="3.83178">
        <ele>5</ele>
        <time>2020-08-02T07:46:02.000Z</time>
      </trkpt>
      <trkpt lat="43.51312" lon="3.83172">
        <ele>5</ele>
        <time>2020-08-02T07:46:03.000Z</time>
      </trkpt>
      <trkpt lat="43.5131" lon="3.83165">
        <ele>5</ele>
        <time>2020-08-02T07:46:04.000Z</time>
      </trkpt>
      <trkpt lat="43.51308" lon="3.83159">
        <ele>5</ele>
        <time>2020-08-02T07:46:05.000Z</time>
      </trkpt>
      <trkpt lat="43.51305" lon="3.83153">
        <ele>5</ele>
        <time>2020-08-02T07:46:06.000Z</time>
      </trkpt>
      <trkpt lat="43.51303" lon="3.83146">
        <ele>5</ele>
        <time>2020-08-02T07:46:07.000Z</time>
      </trkpt>
      <trkpt lat="43.51301" lon="3.8314">
        <ele>5</ele>
        <time>2020-08-02T07:46:08.000Z</time>
      </trkpt>
      <trkpt lat="43.51299" lon="3.83134">
        <ele>5</ele>
        <time>2020-08-02T07:46:09.000Z</time>
      </trkpt>
      <trkpt lat="43.51296" lon="3.83128">
        <ele>5</ele>
        <time>2020-08-02T07:46:10.000Z</time>
      </trkpt>
      <trkpt lat="43.51294" lon="3.83121">
        <ele>5</ele>
        <time>2020-08-02T07:46:11.000Z</time>
      </trkpt>
      <trkpt lat="43.51292" lon="3.83115">
        <ele>5</ele>
        <time>2020-08-02T07:46:12.000Z</time>
      </trkpt>
      <trkpt lat="43.5129" lon="3.83109">
        <ele>5</ele>
        <time>2020-08-02T07:46:13.000Z</time>
      </trkpt>
      <trkpt lat="43.51288" lon="3.83102">
        <ele>5</ele>
        <time>2020-08-02T07:46:14.000Z</time>
      </trkpt>
      <trkpt lat="43.51286" lon="3.83097">
        <ele>5</ele>
        <time>2020-08-02T07:46:15.000Z</time>
      </trkpt>
      <trkpt lat="43.51285" lon="3.83092">
        <ele>5</ele>
        <time>2020-08-02T07:46:16.000Z</time>
      </trkpt>
      <trkpt lat="43.51283" lon="3.8309">
        <ele>5</ele>
        <time>2020-08-02T07:46:17.000Z</time>
      </trkpt>
      <trkpt lat="43.51281" lon="3.83087">
        <ele>5</ele>
        <time>2020-08-02T07:46:18.000Z</time>
      </trkpt>
      <trkpt lat="43.51281" lon="3.83084">
        <ele>5</ele>
        <time>2020-08-02T07:46:19.000Z</time>
      </trkpt>
      <trkpt lat="43.5128" lon="3.83081">
        <ele>5</ele>
        <time>2020-08-02T07:46:20.000Z</time>
      </trkpt>
      <trkpt lat="43.51279" lon="3.83078">
        <ele>5</ele>
        <time>2020-08-02T07:46:21.000Z</time>
      </trkpt>
      <trkpt lat="43.51278" lon="3.83073">
        <ele>5</ele>
        <time>2020-08-02T07:46:22.000Z</time>
      </trkpt>
      <trkpt lat="43.51276" lon="3.83069">
        <ele>5</ele>
        <time>2020-08-02T07:46:23.000Z</time>
      </trkpt>
      <trkpt lat="43.51274" lon="3.83064">
        <ele>5</ele>
        <time>2020-08-02T07:46:24.000Z</time>
      </trkpt>
      <trkpt lat="43.51273" lon="3.8306">
        <ele>5</ele>
        <time>2020-08-02T07:46:25.000Z</time>
      </trkpt>
      <trkpt lat="43.51271" lon="3.83056">
        <ele>5</ele>
        <time>2020-08-02T07:46:26.000Z</time>
      </trkpt>
      <trkpt lat="43.51269" lon="3.83052">
        <ele>5</ele>
        <time>2020-08-02T07:46:27.000Z</time>
      </trkpt>
      <trkpt lat="43.51267" lon="3.83049">
        <ele>5</ele>
        <time>2020-08-02T07:46:28.000Z</time>
      </trkpt>
      <trkpt lat="43.51264" lon="3.83048">
        <ele>5</ele>
        <time>2020-08-02T07:46:29.000Z</time>
      </trkpt>
      <trkpt lat="43.51261" lon="3.83047">
        <ele>5</ele>
        <time>2020-08-02T07:46:30.000Z</time>
      </trkpt>
      <trkpt lat="43.51257" lon="3.83046">
        <ele>5</ele>
        <time>2020-08-02T07:46:31.000Z</time>
      </trkpt>
      <trkpt lat="43.51253" lon="3.83046">
        <ele>5</ele>
        <time>2020-08-02T07:46:32.000Z</time>
      </trkpt>
      <trkpt lat="43.51248" lon="3.83047">
        <ele>5</ele>
        <time>2020-08-02T07:46:33.000Z</time>
      </trkpt>
      <trkpt lat="43.51244" lon="3.83048">
        <ele>5</ele>
        <time>2020-08-02T07:46:34.000Z</time>
      </trkpt>
      <trkpt lat="43.51239" lon="3.83048">
        <ele>5</ele>
        <time>2020-08-02T07:46:35.000Z</time>
      </trkpt>
      <trkpt lat="43.51235" lon="3.83049">
        <ele>5</ele>
        <time>2020-08-02T07:46:36.000Z</time>
      </trkpt>
      <trkpt lat="43.5123" lon="3.8305">
        <ele>5</ele>
        <time>2020-08-02T07:46:37.000Z</time>
      </trkpt>
      <trkpt lat="43.51226" lon="3.83052">
        <ele>5</ele>
        <time>2020-08-02T07:46:38.000Z</time>
      </trkpt>
      <trkpt lat="43.51222" lon="3.83053">
        <ele>5</ele>
        <time>2020-08-02T07:46:39.000Z</time>
      </trkpt>
      <trkpt lat="43.51217" lon="3.83055">
        <ele>5</ele>
        <time>2020-08-02T07:46:40.000Z</time>
      </trkpt>
      <trkpt lat="43.51213" lon="3.83057">
        <ele>5</ele>
        <time>2020-08-02T07:46:41.000Z</time>
      </trkpt>
      <trkpt lat="43.51209" lon="3.83058">
        <ele>5</ele>
        <time>2020-08-02T07:46:42.000Z</time>
      </trkpt>
      <trkpt lat="43.51204" lon="3.8306">
        <ele>5</ele>
        <time>2020-08-02T07:46:43.000Z</time>
      </trkpt>
      <trkpt lat="43.512" lon="3.83061">
        <ele>5</ele>
        <time>2020-08-02T07:46:44.000Z</time>
      </trkpt>
      <trkpt lat="43.51196" lon="3.83064">
        <ele>5</ele>
        <time>2020-08-02T07:46:45.000Z</time>
      </trkpt>
      <trkpt lat="43.51192" lon="3.83067">
        <ele>5</ele>
        <time>2020-08-02T07:46:46.000Z</time>
      </trkpt>
      <trkpt lat="43.51188" lon="3.83071">
        <ele>5</ele>
        <time>2020-08-02T07:46:47.000Z</time>
      </trkpt>
      <trkpt lat="43.51185" lon="3.83076">
        <ele>5.04509952</ele>
        <time>2020-08-02T07:46:48.000Z</time>
      </trkpt>
      <trkpt lat="43.51182" lon="3.83081">
        <ele>5.14509952</ele>
        <time>2020-08-02T07:46:49.000Z</time>
      </trkpt>
      <trkpt lat="43.51179" lon="3.83086">
        <ele>5.24509952</ele>
        <time>2020-08-02T07:46:50.000Z</time>
      </trkpt>
      <trkpt lat="43.51177" lon="3.83092">
        <ele>5.34509952</ele>
        <time>2020-08-02T07:46:51.000Z</time>
      </trkpt>
      <trkpt lat="43.51174" lon="3.83097">
        <ele>5.44509952</ele>
        <time>2020-08-02T07:46:52.000Z</time>
      </trkpt>
      <trkpt lat="43.51171" lon="3.83103">
        <ele>5.54509952</ele>
        <time>2020-08-02T07:46:53.000Z</time>
      </trkpt>
      <trkpt lat="43.51167" lon="3.83107">
        <ele>5.64509952</ele>
        <time>2020-08-02T07:46:54.000Z</time>
      </trkpt>
      <trkpt lat="43.51163" lon="3.8311">
        <ele>5.74509952</ele>
        <time>2020-08-02T07:46:55.000Z</time>
      </trkpt>
      <trkpt lat="43.51158" lon="3.83111">
        <ele>5.84509952</ele>
        <time>2020-08-02T07:46:56.000Z</time>
      </trkpt>
      <trkpt lat="43.51153" lon="3.83111">
        <ele>5.94509952</ele>
        <time>2020-08-02T07:46:57.000Z</time>
      </trkpt>
      <trkpt lat="43.51149" lon="3.83109">
        <ele>6</ele>
        <time>2020-08-02T07:46:58.000Z</time>
      </trkpt>
      <trkpt lat="43.51144" lon="3.83107">
        <ele>6</ele>
        <time>2020-08-02T07:46:59.000Z</time>
      </trkpt>
      <trkpt lat="43.51139" lon="3.83105">
        <ele>6</ele>
        <time>2020-08-02T07:47:00.000Z</time>
      </trkpt>
      <trkpt lat="43.51134" lon="3.83104">
        <ele>6</ele>
        <time>2020-08-02T07:47:01.000Z</time>
      </trkpt>
      <trkpt lat="43.51129" lon="3.83102">
        <ele>6</ele>
        <time>2020-08-02T07:47:02.000Z</time>
      </trkpt>
      <trkpt lat="43.51124" lon="3.83099">
        <ele>6</ele>
        <time>2020-08-02T07:47:03.000Z</time>
      </trkpt>
      <trkpt lat="43.51118" lon="3.83097">
        <ele>6</ele>
        <time>2020-08-02T07:47:04.000Z</time>
      </trkpt>
      <trkpt lat="43.51113" lon="3.83094">
        <ele>6</ele>
        <time>2020-08-02T07:47:05.000Z</time>
      </trkpt>
      <trkpt lat="43.51108" lon="3.83091">
        <ele>6</ele>
        <time>2020-08-02T07:47:06.000Z</time>
      </trkpt>
      <trkpt lat="43.51103" lon="3.83088">
        <ele>6</ele>
        <time>2020-08-02T07:47:07.000Z</time>
      </trkpt>
      <trkpt lat="43.51098" lon="3.83086">
        <ele>6</ele>
        <time>2020-08-02T07:47:08.000Z</time>
      </trkpt>
      <trkpt lat="43.51093" lon="3.83084">
        <ele>6</ele>
        <time>2020-08-02T07:47:09.000Z</time>
      </trkpt>
      <trkpt lat="43.51088" lon="3.83081">
        <ele>6</ele>
        <time>2020-08-02T07:47:10.000Z</time>
      </trkpt>
      <trkpt lat="43.51083" lon="3.83078">
        <ele>6</ele>
        <time>2020-08-02T07:47:11.000Z</time>
      </trkpt>
      <trkpt lat="43.51078" lon="3.83075">
        <ele>6</ele>
        <time>2020-08-02T07:47:12.000Z</time>
      </trkpt>
      <trkpt lat="43.51073" lon="3.83071">
        <ele>6</ele>
        <time>2020-08-02T07:47:13.000Z</time>
      </trkpt>
      <trkpt lat="43.51068" lon="3.83068">
        <ele>6</ele>
        <time>2020-08-02T07:47:14.000Z</time>
      </trkpt>
      <trkpt lat="43.51063" lon="3.83065">
        <ele>6</ele>
        <time>2020-08-02T07:47:15.000Z</time>
      </trkpt>
      <trkpt lat="43.51058" lon="3.83062">
        <ele>6</ele>
        <time>2020-08-02T07:47:16.000Z</time>
      </trkpt>
      <trkpt lat="43.51053" lon="3.83059">
        <ele>6</ele>
        <time>2020-08-02T07:47:17.000Z</time>
      </trkpt>
      <trkpt lat="43.51048" lon="3.83056">
        <ele>5.95490048</ele>
        <time>2020-08-02T07:47:18.000Z</time>
      </trkpt>
      <trkpt lat="43.51044" lon="3.83054">
        <ele>5.85490048</ele>
        <time>2020-08-02T07:47:19.000Z</time>
      </trkpt>
      <trkpt lat="43.51039" lon="3.83052">
        <ele>5.75490048</ele>
        <time>2020-08-02T07:47:20.000Z</time>
      </trkpt>
      <trkpt lat="43.51033" lon="3.8305">
        <ele>5.65490048</ele>
        <time>2020-08-02T07:47:21.000Z</time>
      </trkpt>
      <trkpt lat="43.51028" lon="3.83049">
        <ele>5.55490048</ele>
        <time>2020-08-02T07:47:22.000Z</time>
      </trkpt>
      <trkpt lat="43.51022" lon="3.83049">
        <ele>5.45490048</ele>
        <time>2020-08-02T07:47:23.000Z</time>
      </trkpt>
      <trkpt lat="43.51017" lon="3.83049">
        <ele>5.35490048</ele>
        <time>2020-08-02T07:47:24.000Z</time>
      </trkpt>
      <trkpt lat="43.51012" lon="3.83051">
        <ele>5.25490048</ele>
        <time>2020-08-02T07:47:25.000Z</time>
      </trkpt>
      <trkpt lat="43.51006" lon="3.83053">
        <ele>5.15490048</ele>
        <time>2020-08-02T07:47:26.000Z</time>
      </trkpt>
      <trkpt lat="43.51001" lon="3.83056">
        <ele>5.05490048</ele>
        <time>2020-08-02T07:47:27.000Z</time>
      </trkpt>
      <trkpt lat="43.50995" lon="3.83059">
        <ele>5</ele>
        <time>2020-08-02T07:47:28.000Z</time>
      </trkpt>
      <trkpt lat="43.5099" lon="3.83062">
        <ele>5</ele>
        <time>2020-08-02T07:47:29.000Z</time>
      </trkpt>
      <trkpt lat="43.50984" lon="3.83065">
        <ele>5</ele>
        <time>2020-08-02T07:47:30.000Z</time>
      </trkpt>
      <trkpt lat="43.50979" lon="3.83068">
        <ele>5</ele>
        <time>2020-08-02T07:47:31.000Z</time>
      </trkpt>
      <trkpt lat="43.50973" lon="3.83069">
        <ele>5</ele>
        <time>2020-08-02T07:47:32.000Z</time>
      </trkpt>
      <trkpt lat="43.50968" lon="3.83071">
        <ele>5</ele>
        <time>2020-08-02T07:47:33.000Z</time>
      </trkpt>
      <trkpt lat="43.50963" lon="3.83074">
        <ele>5</ele>
        <time>2020-08-02T07:47:34.000Z</time>
      </trkpt>
      <trkpt lat="43.50958" lon="3.83077">
        <ele>5</ele>
        <time>2020-08-02T07:47:35.000Z</time>
      </trkpt>
      <trkpt lat="43.50952" lon="3.8308">
        <ele>5</ele>
        <time>2020-08-02T07:47:36.000Z</time>
      </trkpt>
      <trkpt lat="43.50947" lon="3.83083">
        <ele>5</ele>
        <time>2020-08-02T07:47:37.000Z</time>
      </trkpt>
      <trkpt lat="43.50942" lon="3.83086">
        <ele>5</ele>
        <time>2020-08-02T07:47:38.000Z</time>
      </trkpt>
      <trkpt lat="43.50936" lon="3.83089">
        <ele>5</ele>
        <time>2020-08-02T07:47:39.000Z</time>
      </trkpt>
      <trkpt lat="43.50931" lon="3.83091">
        <ele>5</ele>
        <time>2020-08-02T07:47:40.000Z</time>
      </trkpt>
      <trkpt lat="43.50926" lon="3.83094">
        <ele>5</ele>
        <time>2020-08-02T07:47:41.000Z</time>
      </trkpt>
      <trkpt lat="43.50921" lon="3.83098">
        <ele>5</ele>
        <time>2020-08-02T07:47:42.000Z</time>
      </trkpt>
      <trkpt lat="43.50917" lon="3.83103">
        <ele>5</ele>
        <time>2020-08-02T07:47:43.000Z</time>
      </trkpt>
      <trkpt lat="43.50913" lon="3.83109">
        <ele>5</ele>
        <time>2020-08-02T07:47:44.000Z</time>
      </trkpt>
      <trkpt lat="43.50909" lon="3.83115">
        <ele>5</ele>
        <time>2020-08-02T07:47:45.000Z</time>
      </trkpt>
      <trkpt lat="43.50906" lon="3.83121">
        <ele>5</ele>
        <time>2020-08-02T07:47:46.000Z</time>
      </trkpt>
      <trkpt lat="43.50902" lon="3.83127">
        <ele>5</ele>
        <time>2020-08-02T07:47:47.000Z</time>
      </trkpt>
      <trkpt lat="43.50898" lon="3.83133">
        <ele>5</ele>
        <time>2020-08-02T07:47:48.000Z</time>
      </trkpt>
      <trkpt lat="43.50894" lon="3.83139">
        <ele>5</ele>
        <time>2020-08-02T07:47:49.000Z</time>
      </trkpt>
      <trkpt lat="43.50891" lon="3.83145">
        <ele>5</ele>
        <time>2020-08-02T07:47:50.000Z</time>
      </trkpt>
      <trkpt lat="43.50887" lon="3.83151">
        <ele>5</ele>
        <time>2020-08-02T07:47:51.000Z</time>
      </trkpt>
      <trkpt lat="43.50884" lon="3.83157">
        <ele>5</ele>
        <time>2020-08-02T07:47:52.000Z</time>
      </trkpt>
      <trkpt lat="43.5088" lon="3.83162">
        <ele>5</ele>
        <time>2020-08-02T07:47:53.000Z</time>
      </trkpt>
      <trkpt lat="43.50877" lon="3.83168">
        <ele>5</ele>
        <time>2020-08-02T07:47:54.000Z</time>
      </trkpt>
      <trkpt lat="43.50873" lon="3.83174">
        <ele>5</ele>
        <time>2020-08-02T07:47:55.000Z</time>
      </trkpt>
      <trkpt lat="43.50868" lon="3.83179">
        <ele>5</ele>
        <time>2020-08-02T07:47:56.000Z</time>
      </trkpt>
      <trkpt lat="43.50864" lon="3.83185">
        <ele>5</ele>
        <time>2020-08-02T07:47:57.000Z</time>
      </trkpt>
      <trkpt lat="43.5086" lon="3.8319">
        <ele>5.0444724934208</ele>
        <time>2020-08-02T07:47:58.000Z</time>
      </trkpt>
      <trkpt lat="43.50856" lon="3.83196">
        <ele>5.1430821757871</ele>
        <time>2020-08-02T07:47:59.000Z</time>
      </trkpt>
      <trkpt lat="43.50852" lon="3.83203">
        <ele>5.2416918581535</ele>
        <time>2020-08-02T07:48:00.000Z</time>
      </trkpt>
      <trkpt lat="43.50847" lon="3.83209">
        <ele>5.3403015405199</ele>
        <time>2020-08-02T07:48:01.000Z</time>
      </trkpt>
      <trkpt lat="43.50843" lon="3.83215">
        <ele>5.4389112228863</ele>
        <time>2020-08-02T07:48:02.000Z</time>
      </trkpt>
      <trkpt lat="43.50839" lon="3.83222">
        <ele>5.5375209052527</ele>
        <time>2020-08-02T07:48:03.000Z</time>
      </trkpt>
      <trkpt lat="43.50835" lon="3.8323">
        <ele>5.636130587619</ele>
        <time>2020-08-02T07:48:04.000Z</time>
      </trkpt>
      <trkpt lat="43.50832" lon="3.83237">
        <ele>5.7347402699854</ele>
        <time>2020-08-02T07:48:05.000Z</time>
      </trkpt>
      <trkpt lat="43.50829" lon="3.83245">
        <ele>5.8333499523518</ele>
        <time>2020-08-02T07:48:06.000Z</time>
      </trkpt>
      <trkpt lat="43.50826" lon="3.83253">
        <ele>5.9319596347182</ele>
        <time>2020-08-02T07:48:07.000Z</time>
      </trkpt>
      <trkpt lat="43.50823" lon="3.83261">
        <ele>6</ele>
        <time>2020-08-02T07:48:08.000Z</time>
      </trkpt>
      <trkpt lat="43.5082" lon="3.8327">
        <ele>6</ele>
        <time>2020-08-02T07:48:09.000Z</time>
      </trkpt>
      <trkpt lat="43.50817" lon="3.83278">
        <ele>6</ele>
        <time>2020-08-02T07:48:10.000Z</time>
      </trkpt>
      <trkpt lat="43.50815" lon="3.83286">
        <ele>6</ele>
        <time>2020-08-02T07:48:11.000Z</time>
      </trkpt>
      <trkpt lat="43.50812" lon="3.83295">
        <ele>6</ele>
        <time>2020-08-02T07:48:12.000Z</time>
      </trkpt>
      <trkpt lat="43.5081" lon="3.83303">
        <ele>6</ele>
        <time>2020-08-02T07:48:13.000Z</time>
      </trkpt>
      <trkpt lat="43.50807" lon="3.83312">
        <ele>6</ele>
        <time>2020-08-02T07:48:14.000Z</time>
      </trkpt>
      <trkpt lat="43.50804" lon="3.8332">
        <ele>6</ele>
        <time>2020-08-02T07:48:15.000Z</time>
      </trkpt>
      <trkpt lat="43.50802" lon="3.83328">
        <ele>6</ele>
        <time>2020-08-02T07:48:16.000Z</time>
      </trkpt>
      <trkpt lat="43.50799" lon="3.83336">
        <ele>6</ele>
        <time>2020-08-02T07:48:17.000Z</time>
      </trkpt>
      <trkpt lat="43.50796" lon="3.83344">
        <ele>6</ele>
        <time>2020-08-02T07:48:18.000Z</time>
      </trkpt>
      <trkpt lat="43.50794" lon="3.83351">
        <ele>6</ele>
        <time>2020-08-02T07:48:19.000Z</time>
      </trkpt>
      <trkpt lat="43.50792" lon="3.83358">
        <ele>6</ele>
        <time>2020-08-02T07:48:20.000Z</time>
      </trkpt>
      <trkpt lat="43.50789" lon="3.83365">
        <ele>6</ele>
        <time>2020-08-02T07:48:21.000Z</time>
      </trkpt>
      <trkpt lat="43.50786" lon="3.83371">
        <ele>6</ele>
        <time>2020-08-02T07:48:22.000Z</time>
      </trkpt>
      <trkpt lat="43.50784" lon="3.83378">
        <ele>6</ele>
        <time>2020-08-02T07:48:23.000Z</time>
      </trkpt>
      <trkpt lat="43.50782" lon="3.83385">
        <ele>6</ele>
        <time>2020-08-02T07:48:24.000Z</time>
      </trkpt>
      <trkpt lat="43.50781" lon="3.83393">
        <ele>6</ele>
        <time>2020-08-02T07:48:25.000Z</time>
      </trkpt>
      <trkpt lat="43.5078" lon="3.83401">
        <ele>6</ele>
        <time>2020-08-02T07:48:26.000Z</time>
      </trkpt>
      <trkpt lat="43.5078" lon="3.83409">
        <ele>6</ele>
        <time>2020-08-02T07:48:27.000Z</time>
      </trkpt>
      <trkpt lat="43.50781" lon="3.83418">
        <ele>6</ele>
        <time>2020-08-02T07:48:28.000Z</time>
      </trkpt>
      <trkpt lat="43.50781" lon="3.83426">
        <ele>6</ele>
        <time>2020-08-02T07:48:29.000Z</time>
      </trkpt>
      <trkpt lat="43.50781" lon="3.83435">
        <ele>6</ele>
        <time>2020-08-02T07:48:30.000Z</time>
      </trkpt>
      <trkpt lat="43.50781" lon="3.83443">
        <ele>6</ele>
        <time>2020-08-02T07:48:31.000Z</time>
      </trkpt>
      <trkpt lat="43.50781" lon="3.83452">
        <ele>6</ele>
        <time>2020-08-02T07:48:32.000Z</time>
      </trkpt>
      <trkpt lat="43.50781" lon="3.83461">
        <ele>6</ele>
        <time>2020-08-02T07:48:33.000Z</time>
      </trkpt>
      <trkpt lat="43.50782" lon="3.83469">
        <ele>6</ele>
        <time>2020-08-02T07:48:34.000Z</time>
      </trkpt>
      <trkpt lat="43.50782" lon="3.83478">
        <ele>6</ele>
        <time>2020-08-02T07:48:35.000Z</time>
      </trkpt>
      <trkpt lat="43.50782" lon="3.83486">
        <ele>6</ele>
        <time>2020-08-02T07:48:36.000Z</time>
      </trkpt>
      <trkpt lat="43.50782" lon="3.83495">
        <ele>6</ele>
        <time>2020-08-02T07:48:37.000Z</time>
      </trkpt>
      <trkpt lat="43.50782" lon="3.83503">
        <ele>6</ele>
        <time>2020-08-02T07:48:38.000Z</time>
      </trkpt>
      <trkpt lat="43.50783" lon="3.83512">
        <ele>6</ele>
        <time>2020-08-02T07:48:39.000Z</time>
      </trkpt>
      <trkpt lat="43.50784" lon="3.8352">
        <ele>6</ele>
        <time>2020-08-02T07:48:40.000Z</time>
      </trkpt>
      <trkpt lat="43.50785" lon="3.83528">
        <ele>6</ele>
        <time>2020-08-02T07:48:41.000Z</time>
      </trkpt>
      <trkpt lat="43.50787" lon="3.83536">
        <ele>6</ele>
        <time>2020-08-02T07:48:42.000Z</time>
      </trkpt>
      <trkpt lat="43.50788" lon="3.83544">
        <ele>6</ele>
        <time>2020-08-02T07:48:43.000Z</time>
      </trkpt>
      <trkpt lat="43.5079" lon="3.83552">
        <ele>6</ele>
        <time>2020-08-02T07:48:44.000Z</time>
      </trkpt>
      <trkpt lat="43.50791" lon="3.83559">
        <ele>6</ele>
        <time>2020-08-02T07:48:45.000Z</time>
      </trkpt>
      <trkpt lat="43.50792" lon="3.83567">
        <ele>6</ele>
        <time>2020-08-02T07:48:46.000Z</time>
      </trkpt>
      <trkpt lat="43.50794" lon="3.83575">
        <ele>6</ele>
        <time>2020-08-02T07:48:47.000Z</time>
      </trkpt>
      <trkpt lat="43.50795" lon="3.83583">
        <ele>6</ele>
        <time>2020-08-02T07:48:48.000Z</time>
      </trkpt>
      <trkpt lat="43.50797" lon="3.8359">
        <ele>6</ele>
        <time>2020-08-02T07:48:49.000Z</time>
      </trkpt>
      <trkpt lat="43.50798" lon="3.83598">
        <ele>6</ele>
        <time>2020-08-02T07:48:50.000Z</time>
      </trkpt>
      <trkpt lat="43.50799" lon="3.83606">
        <ele>6</ele>
        <time>2020-08-02T07:48:51.000Z</time>
      </trkpt>
      <trkpt lat="43.50801" lon="3.83614">
        <ele>6</ele>
        <time>2020-08-02T07:48:52.000Z</time>
      </trkpt>
      <trkpt lat="43.50802" lon="3.83622">
        <ele>6</ele>
        <time>2020-08-02T07:48:53.000Z</time>
      </trkpt>
      <trkpt lat="43.50803" lon="3.8363">
        <ele>6</ele>
        <time>2020-08-02T07:48:54.000Z</time>
      </trkpt>
      <trkpt lat="43.50805" lon="3.83638">
        <ele>6</ele>
        <time>2020-08-02T07:48:55.000Z</time>
      </trkpt>
      <trkpt lat="43.50806" lon="3.83645">
        <ele>6</ele>
        <time>2020-08-02T07:48:56.000Z</time>
      </trkpt>
      <trkpt lat="43.50807" lon="3.83653">
        <ele>6</ele>
        <time>2020-08-02T07:48:57.000Z</time>
      </trkpt>
      <trkpt lat="43.50809" lon="3.8366">
        <ele>6</ele>
        <time>2020-08-02T07:48:58.000Z</time>
      </trkpt>
      <trkpt lat="43.5081" lon="3.83667">
        <ele>6</ele>
        <time>2020-08-02T07:48:59.000Z</time>
      </trkpt>
      <trkpt lat="43.50811" lon="3.83674">
        <ele>6</ele>
        <time>2020-08-02T07:49:00.000Z</time>
      </trkpt>
      <trkpt lat="43.50813" lon="3.83681">
        <ele>6</ele>
        <time>2020-08-02T07:49:01.000Z</time>
      </trkpt>
      <trkpt lat="43.50814" lon="3.83689">
        <ele>6</ele>
        <time>2020-08-02T07:49:02.000Z</time>
      </trkpt>
      <trkpt lat="43.50815" lon="3.83696">
        <ele>6</ele>
        <time>2020-08-02T07:49:03.000Z</time>
      </trkpt>
      <trkpt lat="43.50816" lon="3.83703">
        <ele>6</ele>
        <time>2020-08-02T07:49:04.000Z</time>
      </trkpt>
      <trkpt lat="43.50818" lon="3.83711">
        <ele>6</ele>
        <time>2020-08-02T07:49:05.000Z</time>
      </trkpt>
      <trkpt lat="43.50819" lon="3.83719">
        <ele>6</ele>
        <time>2020-08-02T07:49:06.000Z</time>
      </trkpt>
      <trkpt lat="43.5082" lon="3.83727">
        <ele>6</ele>
        <time>2020-08-02T07:49:07.000Z</time>
      </trkpt>
      <trkpt lat="43.50822" lon="3.83734">
        <ele>5.95490048</ele>
        <time>2020-08-02T07:49:08.000Z</time>
      </trkpt>
      <trkpt lat="43.50823" lon="3.83742">
        <ele>5.85490048</ele>
        <time>2020-08-02T07:49:09.000Z</time>
      </trkpt>
      <trkpt lat="43.50825" lon="3.83749">
        <ele>5.75490048</ele>
        <time>2020-08-02T07:49:10.000Z</time>
      </trkpt>
      <trkpt lat="43.50825" lon="3.83754">
        <ele>5.65490048</ele>
        <time>2020-08-02T07:49:11.000Z</time>
      </trkpt>
      <trkpt lat="43.50824" lon="3.83759">
        <ele>5.55490048</ele>
        <time>2020-08-02T07:49:12.000Z</time>
      </trkpt>
      <trkpt lat="43.50821" lon="3.83761">
        <ele>5.45490048</ele>
        <time>2020-08-02T07:49:13.000Z</time>
      </trkpt>
      <trkpt lat="43.50818" lon="3.83762">
        <ele>5.35490048</ele>
        <time>2020-08-02T07:49:14.000Z</time>
      </trkpt>
      <trkpt lat="43.50813" lon="3.83761">
        <ele>5.25490048</ele>
        <time>2020-08-02T07:49:15.000Z</time>
      </trkpt>
      <trkpt lat="43.50809" lon="3.8376">
        <ele>5.15490048</ele>
        <time>2020-08-02T07:49:16.000Z</time>
      </trkpt>
      <trkpt lat="43.50805" lon="3.83759">
        <ele>5.05490048</ele>
        <time>2020-08-02T07:49:17.000Z</time>
      </trkpt>
      <trkpt lat="43.508" lon="3.83757">
        <ele>4.9549949545913</ele>
        <time>2020-08-02T07:49:18.000Z</time>
      </trkpt>
      <trkpt lat="43.50795" lon="3.83755">
        <ele>4.8552044348504</ele>
        <time>2020-08-02T07:49:19.000Z</time>
      </trkpt>
      <trkpt lat="43.50791" lon="3.83753">
        <ele>4.7554139151094</ele>
        <time>2020-08-02T07:49:20.000Z</time>
      </trkpt>
      <trkpt lat="43.50786" lon="3.83751">
        <ele>4.6556233953684</ele>
        <time>2020-08-02T07:49:21.000Z</time>
      </trkpt>
      <trkpt lat="43.50782" lon="3.83748">
        <ele>4.5558328756275</ele>
        <time>2020-08-02T07:49:22.000Z</time>
      </trkpt>
      <trkpt lat="43.50777" lon="3.83746">
        <ele>4.4560423558865</ele>
        <time>2020-08-02T07:49:23.000Z</time>
      </trkpt>
      <trkpt lat="43.50772" lon="3.83744">
        <ele>4.3562518361456</ele>
        <time>2020-08-02T07:49:24.000Z</time>
      </trkpt>
      <trkpt lat="43.50767" lon="3.83744">
        <ele>4.2564613164046</ele>
        <time>2020-08-02T07:49:25.000Z</time>
      </trkpt>
      <trkpt lat="43.50762" lon="3.83744">
        <ele>4.1566707966636</ele>
        <time>2020-08-02T07:49:26.000Z</time>
      </trkpt>
      <trkpt lat="43.50757" lon="3.83745">
        <ele>4.0568802769227</ele>
        <time>2020-08-02T07:49:27.000Z</time>
      </trkpt>
      <trkpt lat="43.50752" lon="3.83747">
        <ele>4.0430864653554</ele>
        <time>2020-08-02T07:49:28.000Z</time>
      </trkpt>
      <trkpt lat="43.50748" lon="3.83749">
        <ele>4.1432868019003</ele>
        <time>2020-08-02T07:49:29.000Z</time>
      </trkpt>
      <trkpt lat="43.50743" lon="3.83752">
        <ele>4.2434871384451</ele>
        <time>2020-08-02T07:49:30.000Z</time>
      </trkpt>
      <trkpt lat="43.50738" lon="3.83755">
        <ele>4.34368747499</ele>
        <time>2020-08-02T07:49:31.000Z</time>
      </trkpt>
      <trkpt lat="43.50733" lon="3.83758">
        <ele>4.4438878115349</ele>
        <time>2020-08-02T07:49:32.000Z</time>
      </trkpt>
      <trkpt lat="43.50728" lon="3.83761">
        <ele>4.5440881480797</ele>
        <time>2020-08-02T07:49:33.000Z</time>
      </trkpt>
      <trkpt lat="43.50724" lon="3.83764">
        <ele>4.6442884846246</ele>
        <time>2020-08-02T07:49:34.000Z</time>
      </trkpt>
      <trkpt lat="43.50719" lon="3.83768">
        <ele>4.7444888211695</ele>
        <time>2020-08-02T07:49:35.000Z</time>
      </trkpt>
      <trkpt lat="43.50714" lon="3.83771">
        <ele>4.8446891577144</ele>
        <time>2020-08-02T07:49:36.000Z</time>
      </trkpt>
      <trkpt lat="43.5071" lon="3.83774">
        <ele>4.9448894942592</ele>
        <time>2020-08-02T07:49:37.000Z</time>
      </trkpt>
      <trkpt lat="43.50705" lon="3.83777">
        <ele>4.95500032</ele>
        <time>2020-08-02T07:49:38.000Z</time>
      </trkpt>
      <trkpt lat="43.50701" lon="3.8378">
        <ele>4.85500032</ele>
        <time>2020-08-02T07:49:39.000Z</time>
      </trkpt>
      <trkpt lat="43.50696" lon="3.83783">
        <ele>4.75500032</ele>
        <time>2020-08-02T07:49:40.000Z</time>
      </trkpt>
      <trkpt lat="43.50692" lon="3.83786">
        <ele>4.65500032</ele>
        <time>2020-08-02T07:49:41.000Z</time>
      </trkpt>
      <trkpt lat="43.50688" lon="3.83788">
        <ele>4.55500032</ele>
        <time>2020-08-02T07:49:42.000Z</time>
      </trkpt>
      <trkpt lat="43.50683" lon="3.83791">
        <ele>4.45500032</ele>
        <time>2020-08-02T07:49:43.000Z</time>
      </trkpt>
      <trkpt lat="43.50679" lon="3.83794">
        <ele>4.35500032</ele>
        <time>2020-08-02T07:49:44.000Z</time>
      </trkpt>
      <trkpt lat="43.50674" lon="3.83797">
        <ele>4.25500032</ele>
        <time>2020-08-02T07:49:45.000Z</time>
      </trkpt>
      <trkpt lat="43.5067" lon="3.83799">
        <ele>4.15500032</ele>
        <time>2020-08-02T07:49:46.000Z</time>
      </trkpt>
      <trkpt lat="43.50666" lon="3.83802">
        <ele>4.05500032</ele>
        <time>2020-08-02T07:49:47.000Z</time>
      </trkpt>
      <trkpt lat="43.50661" lon="3.83804">
        <ele>4</ele>
        <time>2020-08-02T07:49:48.000Z</time>
      </trkpt>
      <trkpt lat="43.50657" lon="3.83807">
        <ele>4</ele>
        <time>2020-08-02T07:49:49.000Z</time>
      </trkpt>
      <trkpt lat="43.50654" lon="3.8381">
        <ele>4</ele>
        <time>2020-08-02T07:49:50.000Z</time>
      </trkpt>
      <trkpt lat="43.50651" lon="3.83813">
        <ele>4</ele>
        <time>2020-08-02T07:49:51.000Z</time>
      </trkpt>
      <trkpt lat="43.50649" lon="3.83817">
        <ele>4</ele>
        <time>2020-08-02T07:49:52.000Z</time>
      </trkpt>
      <trkpt lat="43.50647" lon="3.83822">
        <ele>4</ele>
        <time>2020-08-02T07:49:53.000Z</time>
      </trkpt>
      <trkpt lat="43.50646" lon="3.83828">
        <ele>4</ele>
        <time>2020-08-02T07:49:54.000Z</time>
      </trkpt>
      <trkpt lat="43.50646" lon="3.83833">
        <ele>4</ele>
        <time>2020-08-02T07:49:55.000Z</time>
      </trkpt>
      <trkpt lat="43.50647" lon="3.83839">
        <ele>4</ele>
        <time>2020-08-02T07:49:56.000Z</time>
      </trkpt>
      <trkpt lat="43.50647" lon="3.83844">
        <ele>4</ele>
        <time>2020-08-02T07:49:57.000Z</time>
      </trkpt>
      <trkpt lat="43.50645" lon="3.83848">
        <ele>4</ele>
        <time>2020-08-02T07:49:58.000Z</time>
      </trkpt>
      <trkpt lat="43.50643" lon="3.83851">
        <ele>4</ele>
        <time>2020-08-02T07:49:59.000Z</time>
      </trkpt>
      <trkpt lat="43.5064" lon="3.83854">
        <ele>4</ele>
        <time>2020-08-02T07:50:00.000Z</time>
      </trkpt>
      <trkpt lat="43.50636" lon="3.83856">
        <ele>4</ele>
        <time>2020-08-02T07:50:01.000Z</time>
      </trkpt>
      <trkpt lat="43.50633" lon="3.83858">
        <ele>4</ele>
        <time>2020-08-02T07:50:02.000Z</time>
      </trkpt>
      <trkpt lat="43.50629" lon="3.83861">
        <ele>4</ele>
        <time>2020-08-02T07:50:03.000Z</time>
      </trkpt>
      <trkpt lat="43.50625" lon="3.83863">
        <ele>4</ele>
        <time>2020-08-02T07:50:04.000Z</time>
      </trkpt>
      <trkpt lat="43.50621" lon="3.83866">
        <ele>4</ele>
        <time>2020-08-02T07:50:05.000Z</time>
      </trkpt>
      <trkpt lat="43.50617" lon="3.83868">
        <ele>4</ele>
        <time>2020-08-02T07:50:06.000Z</time>
      </trkpt>
      <trkpt lat="43.50613" lon="3.83871">
        <ele>4</ele>
        <time>2020-08-02T07:50:07.000Z</time>
      </trkpt>
      <trkpt lat="43.50609" lon="3.83873">
        <ele>4</ele>
        <time>2020-08-02T07:50:08.000Z</time>
      </trkpt>
      <trkpt lat="43.50604" lon="3.83876">
        <ele>4</ele>
        <time>2020-08-02T07:50:09.000Z</time>
      </trkpt>
      <trkpt lat="43.506" lon="3.83879">
        <ele>4</ele>
        <time>2020-08-02T07:50:10.000Z</time>
      </trkpt>
      <trkpt lat="43.50596" lon="3.83883">
        <ele>4</ele>
        <time>2020-08-02T07:50:11.000Z</time>
      </trkpt>
      <trkpt lat="43.50593" lon="3.83887">
        <ele>4</ele>
        <time>2020-08-02T07:50:12.000Z</time>
      </trkpt>
      <trkpt lat="43.5059" lon="3.83893">
        <ele>4</ele>
        <time>2020-08-02T07:50:13.000Z</time>
      </trkpt>
      <trkpt lat="43.50588" lon="3.83899">
        <ele>4</ele>
        <time>2020-08-02T07:50:14.000Z</time>
      </trkpt>
      <trkpt lat="43.50587" lon="3.83905">
        <ele>4</ele>
        <time>2020-08-02T07:50:15.000Z</time>
      </trkpt>
      <trkpt lat="43.50587" lon="3.83911">
        <ele>4</ele>
        <time>2020-08-02T07:50:16.000Z</time>
      </trkpt>
      <trkpt lat="43.50588" lon="3.83918">
        <ele>4</ele>
        <time>2020-08-02T07:50:17.000Z</time>
      </trkpt>
      <trkpt lat="43.50589" lon="3.83924">
        <ele>4</ele>
        <time>2020-08-02T07:50:18.000Z</time>
      </trkpt>
      <trkpt lat="43.5059" lon="3.8393">
        <ele>4</ele>
        <time>2020-08-02T07:50:19.000Z</time>
      </trkpt>
      <trkpt lat="43.50593" lon="3.83936">
        <ele>4</ele>
        <time>2020-08-02T07:50:20.000Z</time>
      </trkpt>
      <trkpt lat="43.50596" lon="3.83942">
        <ele>4</ele>
        <time>2020-08-02T07:50:21.000Z</time>
      </trkpt>
      <trkpt lat="43.506" lon="3.83947">
        <ele>4</ele>
        <time>2020-08-02T07:50:22.000Z</time>
      </trkpt>
      <trkpt lat="43.50604" lon="3.83952">
        <ele>4</ele>
        <time>2020-08-02T07:50:23.000Z</time>
      </trkpt>
      <trkpt lat="43.50608" lon="3.83956">
        <ele>4</ele>
        <time>2020-08-02T07:50:24.000Z</time>
      </trkpt>
      <trkpt lat="43.50612" lon="3.83961">
        <ele>4</ele>
        <time>2020-08-02T07:50:25.000Z</time>
      </trkpt>
      <trkpt lat="43.50615" lon="3.83966">
        <ele>4</ele>
        <time>2020-08-02T07:50:26.000Z</time>
      </trkpt>
      <trkpt lat="43.50619" lon="3.83971">
        <ele>4</ele>
        <time>2020-08-02T07:50:27.000Z</time>
      </trkpt>
      <trkpt lat="43.50622" lon="3.83976">
        <ele>4</ele>
        <time>2020-08-02T07:50:28.000Z</time>
      </trkpt>
      <trkpt lat="43.50625" lon="3.83981">
        <ele>4</ele>
        <time>2020-08-02T07:50:29.000Z</time>
      </trkpt>
      <trkpt lat="43.50628" lon="3.83986">
        <ele>4</ele>
        <time>2020-08-02T07:50:30.000Z</time>
      </trkpt>
      <trkpt lat="43.50631" lon="3.83992">
        <ele>4</ele>
        <time>2020-08-02T07:50:31.000Z</time>
      </trkpt>
      <trkpt lat="43.50634" lon="3.83997">
        <ele>4</ele>
        <time>2020-08-02T07:50:32.000Z</time>
      </trkpt>
      <trkpt lat="43.50637" lon="3.84002">
        <ele>4</ele>
        <time>2020-08-02T07:50:33.000Z</time>
      </trkpt>
      <trkpt lat="43.5064" lon="3.84007">
        <ele>4</ele>
        <time>2020-08-02T07:50:34.000Z</time>
      </trkpt>
      <trkpt lat="43.50643" lon="3.84012">
        <ele>4</ele>
        <time>2020-08-02T07:50:35.000Z</time>
      </trkpt>
      <trkpt lat="43.50645" lon="3.84018">
        <ele>4</ele>
        <time>2020-08-02T07:50:36.000Z</time>
      </trkpt>
      <trkpt lat="43.50648" lon="3.84023">
        <ele>4</ele>
        <time>2020-08-02T07:50:37.000Z</time>
      </trkpt>
      <trkpt lat="43.50651" lon="3.84029">
        <ele>4</ele>
        <time>2020-08-02T07:50:38.000Z</time>
      </trkpt>
      <trkpt lat="43.50654" lon="3.84034">
        <ele>4</ele>
        <time>2020-08-02T07:50:39.000Z</time>
      </trkpt>
      <trkpt lat="43.50657" lon="3.8404">
        <ele>4</ele>
        <time>2020-08-02T07:50:40.000Z</time>
      </trkpt>
      <trkpt lat="43.5066" lon="3.84046">
        <ele>4</ele>
        <time>2020-08-02T07:50:41.000Z</time>
      </trkpt>
      <trkpt lat="43.50663" lon="3.84052">
        <ele>4</ele>
        <time>2020-08-02T07:50:42.000Z</time>
      </trkpt>
      <trkpt lat="43.50665" lon="3.84059">
        <ele>4</ele>
        <time>2020-08-02T07:50:43.000Z</time>
      </trkpt>
      <trkpt lat="43.50668" lon="3.84065">
        <ele>4</ele>
        <time>2020-08-02T07:50:44.000Z</time>
      </trkpt>
      <trkpt lat="43.5067" lon="3.84071">
        <ele>4</ele>
        <time>2020-08-02T07:50:45.000Z</time>
      </trkpt>
      <trkpt lat="43.50672" lon="3.84077">
        <ele>4</ele>
        <time>2020-08-02T07:50:46.000Z</time>
      </trkpt>
      <trkpt lat="43.50674" lon="3.84083">
        <ele>4</ele>
        <time>2020-08-02T07:50:47.000Z</time>
      </trkpt>
      <trkpt lat="43.50676" lon="3.84088">
        <ele>4</ele>
        <time>2020-08-02T07:50:48.000Z</time>
      </trkpt>
      <trkpt lat="43.50678" lon="3.84094">
        <ele>4</ele>
        <time>2020-08-02T07:50:49.000Z</time>
      </trkpt>
      <trkpt lat="43.50679" lon="3.841">
        <ele>4</ele>
        <time>2020-08-02T07:50:50.000Z</time>
      </trkpt>
      <trkpt lat="43.50681" lon="3.84106">
        <ele>4</ele>
        <time>2020-08-02T07:50:51.000Z</time>
      </trkpt>
      <trkpt lat="43.50684" lon="3.84111">
        <ele>4</ele>
        <time>2020-08-02T07:50:52.000Z</time>
      </trkpt>
      <trkpt lat="43.50687" lon="3.84115">
        <ele>4</ele>
        <time>2020-08-02T07:50:53.000Z</time>
      </trkpt>
      <trkpt lat="43.50691" lon="3.84119">
        <ele>4</ele>
        <time>2020-08-02T07:50:54.000Z</time>
      </trkpt>
      <trkpt lat="43.50694" lon="3.84124">
        <ele>4</ele>
        <time>2020-08-02T07:50:55.000Z</time>
      </trkpt>
      <trkpt lat="43.50696" lon="3.84129">
        <ele>4</ele>
        <time>2020-08-02T07:50:56.000Z</time>
      </trkpt>
      <trkpt lat="43.50697" lon="3.84135">
        <ele>4</ele>
        <time>2020-08-02T07:50:57.000Z</time>
      </trkpt>
      <trkpt lat="43.50697" lon="3.84141">
        <ele>4.04499968</ele>
        <time>2020-08-02T07:50:58.000Z</time>
      </trkpt>
      <trkpt lat="43.50697" lon="3.84147">
        <ele>4.14499968</ele>
        <time>2020-08-02T07:50:59.000Z</time>
      </trkpt>
      <trkpt lat="43.50697" lon="3.84153">
        <ele>4.24499968</ele>
        <time>2020-08-02T07:51:00.000Z</time>
      </trkpt>
      <trkpt lat="43.50698" lon="3.8416">
        <ele>4.34499968</ele>
        <time>2020-08-02T07:51:01.000Z</time>
      </trkpt>
      <trkpt lat="43.50698" lon="3.84166">
        <ele>4.44499968</ele>
        <time>2020-08-02T07:51:02.000Z</time>
      </trkpt>
      <trkpt lat="43.50699" lon="3.84172">
        <ele>4.54499968</ele>
        <time>2020-08-02T07:51:03.000Z</time>
      </trkpt>
      <trkpt lat="43.50699" lon="3.84178">
        <ele>4.64499968</ele>
        <time>2020-08-02T07:51:04.000Z</time>
      </trkpt>
      <trkpt lat="43.50699" lon="3.84185">
        <ele>4.74499968</ele>
        <time>2020-08-02T07:51:05.000Z</time>
      </trkpt>
      <trkpt lat="43.50699" lon="3.84191">
        <ele>4.84499968</ele>
        <time>2020-08-02T07:51:06.000Z</time>
      </trkpt>
      <trkpt lat="43.50699" lon="3.84197">
        <ele>4.94499968</ele>
        <time>2020-08-02T07:51:07.000Z</time>
      </trkpt>
      <trkpt lat="43.50699" lon="3.84204">
        <ele>5</ele>
        <time>2020-08-02T07:51:08.000Z</time>
      </trkpt>
      <trkpt lat="43.507" lon="3.8421">
        <ele>5</ele>
        <time>2020-08-02T07:51:09.000Z</time>
      </trkpt>
      <trkpt lat="43.507" lon="3.84217">
        <ele>5</ele>
        <time>2020-08-02T07:51:10.000Z</time>
      </trkpt>
      <trkpt lat="43.507" lon="3.84223">
        <ele>5</ele>
        <time>2020-08-02T07:51:11.000Z</time>
      </trkpt>
      <trkpt lat="43.507" lon="3.84229">
        <ele>5</ele>
        <time>2020-08-02T07:51:12.000Z</time>
      </trkpt>
      <trkpt lat="43.50701" lon="3.84236">
        <ele>5</ele>
        <time>2020-08-02T07:51:13.000Z</time>
      </trkpt>
      <trkpt lat="43.50701" lon="3.84242">
        <ele>5</ele>
        <time>2020-08-02T07:51:14.000Z</time>
      </trkpt>
      <trkpt lat="43.50702" lon="3.84248">
        <ele>5</ele>
        <time>2020-08-02T07:51:15.000Z</time>
      </trkpt>
      <trkpt lat="43.50702" lon="3.84254">
        <ele>5</ele>
        <time>2020-08-02T07:51:16.000Z</time>
      </trkpt>
      <trkpt lat="43.50703" lon="3.84259">
        <ele>5</ele>
        <time>2020-08-02T07:51:17.000Z</time>
      </trkpt>
      <trkpt lat="43.50703" lon="3.84265">
        <ele>5.0174893827161</ele>
        <time>2020-08-02T07:51:18.000Z</time>
      </trkpt>
      <trkpt lat="43.50703" lon="3.84271">
        <ele>5.1203700411523</ele>
        <time>2020-08-02T07:51:19.000Z</time>
      </trkpt>
      <trkpt lat="43.50703" lon="3.84277">
        <ele>5.2232506995885</ele>
        <time>2020-08-02T07:51:20.000Z</time>
      </trkpt>
      <trkpt lat="43.50703" lon="3.84283">
        <ele>5.3261313580247</ele>
        <time>2020-08-02T07:51:21.000Z</time>
      </trkpt>
      <trkpt lat="43.50703" lon="3.84288">
        <ele>5.4290120164609</ele>
        <time>2020-08-02T07:51:22.000Z</time>
      </trkpt>
      <trkpt lat="43.50704" lon="3.84294">
        <ele>5.5318926748971</ele>
        <time>2020-08-02T07:51:23.000Z</time>
      </trkpt>
      <trkpt lat="43.50706" lon="3.84298">
        <ele>5.6347733333333</ele>
        <time>2020-08-02T07:51:24.000Z</time>
      </trkpt>
      <trkpt lat="43.5071" lon="3.843">
        <ele>5.7376539917695</ele>
        <time>2020-08-02T07:51:25.000Z</time>
      </trkpt>
      <trkpt lat="43.50714" lon="3.843">
        <ele>5.8405346502058</ele>
        <time>2020-08-02T07:51:26.000Z</time>
      </trkpt>
      <trkpt lat="43.50719" lon="3.84301">
        <ele>5.943415308642</ele>
        <time>2020-08-02T07:51:27.000Z</time>
      </trkpt>
      <trkpt lat="43.50723" lon="3.84302">
        <ele>6.0445100551501</ele>
        <time>2020-08-02T07:51:28.000Z</time>
      </trkpt>
      <trkpt lat="43.50727" lon="3.84303">
        <ele>6.1434219921909</ele>
        <time>2020-08-02T07:51:29.000Z</time>
      </trkpt>
      <trkpt lat="43.50732" lon="3.84304">
        <ele>6.2423339292316</ele>
        <time>2020-08-02T07:51:30.000Z</time>
      </trkpt>
      <trkpt lat="43.50735" lon="3.84305">
        <ele>6.3412458662723</ele>
        <time>2020-08-02T07:51:31.000Z</time>
      </trkpt>
      <trkpt lat="43.50739" lon="3.84306">
        <ele>6.4401578033131</ele>
        <time>2020-08-02T07:51:32.000Z</time>
      </trkpt>
      <trkpt lat="43.50741" lon="3.84307">
        <ele>6.5390697403538</ele>
        <time>2020-08-02T07:51:33.000Z</time>
      </trkpt>
      <trkpt lat="43.50742" lon="3.84309">
        <ele>6.6379816773945</ele>
        <time>2020-08-02T07:51:34.000Z</time>
      </trkpt>
      <trkpt lat="43.50743" lon="3.84311">
        <ele>6.7368936144353</ele>
        <time>2020-08-02T07:51:35.000Z</time>
      </trkpt>
      <trkpt lat="43.50745" lon="3.84313">
        <ele>6.835805551476</ele>
        <time>2020-08-02T07:51:36.000Z</time>
      </trkpt>
      <trkpt lat="43.50748" lon="3.84314">
        <ele>6.9347174885167</ele>
        <time>2020-08-02T07:51:37.000Z</time>
      </trkpt>
      <trkpt lat="43.50751" lon="3.84315">
        <ele>7.0343775237622</ele>
        <time>2020-08-02T07:51:38.000Z</time>
      </trkpt>
      <trkpt lat="43.50755" lon="3.84316">
        <ele>7.1354897910584</ele>
        <time>2020-08-02T07:51:39.000Z</time>
      </trkpt>
      <trkpt lat="43.50759" lon="3.84317">
        <ele>7.2366020583546</ele>
        <time>2020-08-02T07:51:40.000Z</time>
      </trkpt>
      <trkpt lat="43.50762" lon="3.84317">
        <ele>7.3377143256507</ele>
        <time>2020-08-02T07:51:41.000Z</time>
      </trkpt>
      <trkpt lat="43.50766" lon="3.84318">
        <ele>7.4388265929469</ele>
        <time>2020-08-02T07:51:42.000Z</time>
      </trkpt>
      <trkpt lat="43.5077" lon="3.84318">
        <ele>7.5399388602431</ele>
        <time>2020-08-02T07:51:43.000Z</time>
      </trkpt>
      <trkpt lat="43.50774" lon="3.84318">
        <ele>7.6410511275393</ele>
        <time>2020-08-02T07:51:44.000Z</time>
      </trkpt>
      <trkpt lat="43.50777" lon="3.84319">
        <ele>7.7421633948355</ele>
        <time>2020-08-02T07:51:45.000Z</time>
      </trkpt>
      <trkpt lat="43.50781" lon="3.84319">
        <ele>7.8432756621317</ele>
        <time>2020-08-02T07:51:46.000Z</time>
      </trkpt>
      <trkpt lat="43.50785" lon="3.84319">
        <ele>7.9443879294278</ele>
        <time>2020-08-02T07:51:47.000Z</time>
      </trkpt>
      <trkpt lat="43.50789" lon="3.8432">
        <ele>8</ele>
        <time>2020-08-02T07:51:48.000Z</time>
      </trkpt>
      <trkpt lat="43.50792" lon="3.84322">
        <ele>8</ele>
        <time>2020-08-02T07:51:49.000Z</time>
      </trkpt>
      <trkpt lat="43.50795" lon="3.84323">
        <ele>8</ele>
        <time>2020-08-02T07:51:50.000Z</time>
      </trkpt>
      <trkpt lat="43.50799" lon="3.84324">
        <ele>8</ele>
        <time>2020-08-02T07:51:51.000Z</time>
      </trkpt>
      <trkpt lat="43.50802" lon="3.84325">
        <ele>8</ele>
        <time>2020-08-02T07:51:52.000Z</time>
      </trkpt>
      <trkpt lat="43.50805" lon="3.84325">
        <ele>8</ele>
        <time>2020-08-02T07:51:53.000Z</time>
      </trkpt>
      <trkpt lat="43.50809" lon="3.84326">
        <ele>8</ele>
        <time>2020-08-02T07:51:54.000Z</time>
      </trkpt>
      <trkpt lat="43.50812" lon="3.84326">
        <ele>8</ele>
        <time>2020-08-02T07:51:55.000Z</time>
      </trkpt>
      <trkpt lat="43.50815" lon="3.84328">
        <ele>8</ele>
        <time>2020-08-02T07:51:56.000Z</time>
      </trkpt>
      <trkpt lat="43.50817" lon="3.84332">
        <ele>8</ele>
        <time>2020-08-02T07:51:57.000Z</time>
      </trkpt>
      <trkpt lat="43.50818" lon="3.84337">
        <ele>8.044378410653</ele>
        <time>2020-08-02T07:51:58.000Z</time>
      </trkpt>
      <trkpt lat="43.50819" lon="3.84341">
        <ele>8.1429978022866</ele>
        <time>2020-08-02T07:51:59.000Z</time>
      </trkpt>
      <trkpt lat="43.5082" lon="3.84346">
        <ele>8.2416171939201</ele>
        <time>2020-08-02T07:52:00.000Z</time>
      </trkpt>
      <trkpt lat="43.50822" lon="3.84351">
        <ele>8.3402365855537</ele>
        <time>2020-08-02T07:52:01.000Z</time>
      </trkpt>
      <trkpt lat="43.50824" lon="3.84356">
        <ele>8.4388559771872</ele>
        <time>2020-08-02T07:52:02.000Z</time>
      </trkpt>
      <trkpt lat="43.50825" lon="3.8436">
        <ele>8.5374753688208</ele>
        <time>2020-08-02T07:52:03.000Z</time>
      </trkpt>
      <trkpt lat="43.50827" lon="3.84365">
        <ele>8.6360947604543</ele>
        <time>2020-08-02T07:52:04.000Z</time>
      </trkpt>
      <trkpt lat="43.50829" lon="3.8437">
        <ele>8.7347141520878</ele>
        <time>2020-08-02T07:52:05.000Z</time>
      </trkpt>
      <trkpt lat="43.5083" lon="3.84375">
        <ele>8.8333335437214</ele>
        <time>2020-08-02T07:52:06.000Z</time>
      </trkpt>
      <trkpt lat="43.50832" lon="3.84379">
        <ele>8.9319529353549</ele>
        <time>2020-08-02T07:52:07.000Z</time>
      </trkpt>
      <trkpt lat="43.50833" lon="3.84384">
        <ele>9.0314404664078</ele>
        <time>2020-08-02T07:52:08.000Z</time>
      </trkpt>
      <trkpt lat="43.50835" lon="3.84389">
        <ele>9.1328602788737</ele>
        <time>2020-08-02T07:52:09.000Z</time>
      </trkpt>
      <trkpt lat="43.50837" lon="3.84393">
        <ele>9.2342800913395</ele>
        <time>2020-08-02T07:52:10.000Z</time>
      </trkpt>
      <trkpt lat="43.50838" lon="3.84397">
        <ele>9.3356999038053</ele>
        <time>2020-08-02T07:52:11.000Z</time>
      </trkpt>
      <trkpt lat="43.5084" lon="3.84402">
        <ele>9.4371197162712</ele>
        <time>2020-08-02T07:52:12.000Z</time>
      </trkpt>
      <trkpt lat="43.50842" lon="3.84406">
        <ele>9.538539528737</ele>
        <time>2020-08-02T07:52:13.000Z</time>
      </trkpt>
      <trkpt lat="43.50844" lon="3.84411">
        <ele>9.6399593412029</ele>
        <time>2020-08-02T07:52:14.000Z</time>
      </trkpt>
      <trkpt lat="43.50845" lon="3.84415">
        <ele>9.7413791536687</ele>
        <time>2020-08-02T07:52:15.000Z</time>
      </trkpt>
      <trkpt lat="43.50847" lon="3.8442">
        <ele>9.8427989661345</ele>
        <time>2020-08-02T07:52:16.000Z</time>
      </trkpt>
      <trkpt lat="43.50849" lon="3.84424">
        <ele>9.9442187786004</ele>
        <time>2020-08-02T07:52:17.000Z</time>
      </trkpt>
      <trkpt lat="43.50851" lon="3.84429">
        <ele>10.04499968</ele>
        <time>2020-08-02T07:52:18.000Z</time>
      </trkpt>
      <trkpt lat="43.50852" lon="3.84433">
        <ele>10.14499968</ele>
        <time>2020-08-02T07:52:19.000Z</time>
      </trkpt>
      <trkpt lat="43.50854" lon="3.84438">
        <ele>10.24499968</ele>
        <time>2020-08-02T07:52:20.000Z</time>
      </trkpt>
      <trkpt lat="43.50855" lon="3.84442">
        <ele>10.34499968</ele>
        <time>2020-08-02T07:52:21.000Z</time>
      </trkpt>
      <trkpt lat="43.50857" lon="3.84447">
        <ele>10.44499968</ele>
        <time>2020-08-02T07:52:22.000Z</time>
      </trkpt>
      <trkpt lat="43.50858" lon="3.84452">
        <ele>10.54499968</ele>
        <time>2020-08-02T07:52:23.000Z</time>
      </trkpt>
      <trkpt lat="43.5086" lon="3.84456">
        <ele>10.64499968</ele>
        <time>2020-08-02T07:52:24.000Z</time>
      </trkpt>
      <trkpt lat="43.50861" lon="3.8446">
        <ele>10.74499968</ele>
        <time>2020-08-02T07:52:25.000Z</time>
      </trkpt>
      <trkpt lat="43.50863" lon="3.84465">
        <ele>10.84499968</ele>
        <time>2020-08-02T07:52:26.000Z</time>
      </trkpt>
      <trkpt lat="43.50865" lon="3.84469">
        <ele>10.94499968</ele>
        <time>2020-08-02T07:52:27.000Z</time>
      </trkpt>
      <trkpt lat="43.50867" lon="3.84473">
        <ele>11.088234666667</ele>
        <time>2020-08-02T07:52:28.000Z</time>
      </trkpt>
      <trkpt lat="43.50868" lon="3.84477">
        <ele>11.284313098039</ele>
        <time>2020-08-02T07:52:29.000Z</time>
      </trkpt>
      <trkpt lat="43.5087" lon="3.84481">
        <ele>11.480391529412</ele>
        <time>2020-08-02T07:52:30.000Z</time>
      </trkpt>
      <trkpt lat="43.50872" lon="3.84484">
        <ele>11.676469960784</ele>
        <time>2020-08-02T07:52:31.000Z</time>
      </trkpt>
      <trkpt lat="43.50875" lon="3.84488">
        <ele>11.872548392157</ele>
        <time>2020-08-02T07:52:32.000Z</time>
      </trkpt>
      <trkpt lat="43.50877" lon="3.84491">
        <ele>12.068626823529</ele>
        <time>2020-08-02T07:52:33.000Z</time>
      </trkpt>
      <trkpt lat="43.50879" lon="3.84495">
        <ele>12.264705254902</ele>
        <time>2020-08-02T07:52:34.000Z</time>
      </trkpt>
      <trkpt lat="43.50881" lon="3.84499">
        <ele>12.460783686274</ele>
        <time>2020-08-02T07:52:35.000Z</time>
      </trkpt>
      <trkpt lat="43.50883" lon="3.84502">
        <ele>12.656862117647</ele>
        <time>2020-08-02T07:52:36.000Z</time>
      </trkpt>
      <trkpt lat="43.50885" lon="3.84506">
        <ele>12.85294054902</ele>
        <time>2020-08-02T07:52:37.000Z</time>
      </trkpt>
      <trkpt lat="43.50887" lon="3.8451">
        <ele>13.025509877551</ele>
        <time>2020-08-02T07:52:38.000Z</time>
      </trkpt>
      <trkpt lat="43.50889" lon="3.84514">
        <ele>13.127550693878</ele>
        <time>2020-08-02T07:52:39.000Z</time>
      </trkpt>
      <trkpt lat="43.50891" lon="3.84518">
        <ele>13.229591510204</ele>
        <time>2020-08-02T07:52:40.000Z</time>
      </trkpt>
      <trkpt lat="43.50893" lon="3.84522">
        <ele>13.331632326531</ele>
        <time>2020-08-02T07:52:41.000Z</time>
      </trkpt>
      <trkpt lat="43.50896" lon="3.84525">
        <ele>13.433673142857</ele>
        <time>2020-08-02T07:52:42.000Z</time>
      </trkpt>
      <trkpt lat="43.50898" lon="3.84529">
        <ele>13.535713959184</ele>
        <time>2020-08-02T07:52:43.000Z</time>
      </trkpt>
      <trkpt lat="43.509" lon="3.84533">
        <ele>13.63775477551</ele>
        <time>2020-08-02T07:52:44.000Z</time>
      </trkpt>
      <trkpt lat="43.50903" lon="3.84536">
        <ele>13.739795591837</ele>
        <time>2020-08-02T07:52:45.000Z</time>
      </trkpt>
      <trkpt lat="43.50905" lon="3.8454">
        <ele>13.841836408163</ele>
        <time>2020-08-02T07:52:46.000Z</time>
      </trkpt>
      <trkpt lat="43.50907" lon="3.84544">
        <ele>13.94387722449</ele>
        <time>2020-08-02T07:52:47.000Z</time>
      </trkpt>
      <trkpt lat="43.50909" lon="3.84547">
        <ele>14.04499968</ele>
        <time>2020-08-02T07:52:48.000Z</time>
      </trkpt>
      <trkpt lat="43.50911" lon="3.84551">
        <ele>14.14499968</ele>
        <time>2020-08-02T07:52:49.000Z</time>
      </trkpt>
      <trkpt lat="43.50913" lon="3.84555">
        <ele>14.24499968</ele>
        <time>2020-08-02T07:52:50.000Z</time>
      </trkpt>
      <trkpt lat="43.50915" lon="3.84558">
        <ele>14.34499968</ele>
        <time>2020-08-02T07:52:51.000Z</time>
      </trkpt>
      <trkpt lat="43.50917" lon="3.84562">
        <ele>14.44499968</ele>
        <time>2020-08-02T07:52:52.000Z</time>
      </trkpt>
      <trkpt lat="43.50919" lon="3.84565">
        <ele>14.54499968</ele>
        <time>2020-08-02T07:52:53.000Z</time>
      </trkpt>
      <trkpt lat="43.50921" lon="3.84569">
        <ele>14.64499968</ele>
        <time>2020-08-02T07:52:54.000Z</time>
      </trkpt>
      <trkpt lat="43.50922" lon="3.84573">
        <ele>14.74499968</ele>
        <time>2020-08-02T07:52:55.000Z</time>
      </trkpt>
      <trkpt lat="43.50924" lon="3.84577">
        <ele>14.84499968</ele>
        <time>2020-08-02T07:52:56.000Z</time>
      </trkpt>
      <trkpt lat="43.50926" lon="3.84581">
        <ele>14.94499968</ele>
        <time>2020-08-02T07:52:57.000Z</time>
      </trkpt>
      <trkpt lat="43.50929" lon="3.84585">
        <ele>15.04499968</ele>
        <time>2020-08-02T07:52:58.000Z</time>
      </trkpt>
      <trkpt lat="43.50931" lon="3.84589">
        <ele>15.14499968</ele>
        <time>2020-08-02T07:52:59.000Z</time>
      </trkpt>
      <trkpt lat="43.50933" lon="3.84593">
        <ele>15.24499968</ele>
        <time>2020-08-02T07:53:00.000Z</time>
      </trkpt>
      <trkpt lat="43.50935" lon="3.84597">
        <ele>15.34499968</ele>
        <time>2020-08-02T07:53:01.000Z</time>
      </trkpt>
      <trkpt lat="43.50937" lon="3.84601">
        <ele>15.44499968</ele>
        <time>2020-08-02T07:53:02.000Z</time>
      </trkpt>
      <trkpt lat="43.5094" lon="3.84605">
        <ele>15.54499968</ele>
        <time>2020-08-02T07:53:03.000Z</time>
      </trkpt>
      <trkpt lat="43.50942" lon="3.84609">
        <ele>15.64499968</ele>
        <time>2020-08-02T07:53:04.000Z</time>
      </trkpt>
      <trkpt lat="43.50944" lon="3.84613">
        <ele>15.74499968</ele>
        <time>2020-08-02T07:53:05.000Z</time>
      </trkpt>
      <trkpt lat="43.50947" lon="3.84617">
        <ele>15.84499968</ele>
        <time>2020-08-02T07:53:06.000Z</time>
      </trkpt>
      <trkpt lat="43.50949" lon="3.8462">
        <ele>15.94499968</ele>
        <time>2020-08-02T07:53:07.000Z</time>
      </trkpt>
      <trkpt lat="43.50951" lon="3.84624">
        <ele>16.04499968</ele>
        <time>2020-08-02T07:53:08.000Z</time>
      </trkpt>
      <trkpt lat="43.50954" lon="3.84628">
        <ele>16.14499968</ele>
        <time>2020-08-02T07:53:09.000Z</time>
      </trkpt>
      <trkpt lat="43.50956" lon="3.84631">
        <ele>16.24499968</ele>
        <time>2020-08-02T07:53:10.000Z</time>
      </trkpt>
      <trkpt lat="43.50958" lon="3.84635">
        <ele>16.34499968</ele>
        <time>2020-08-02T07:53:11.000Z</time>
      </trkpt>
      <trkpt lat="43.5096" lon="3.84639">
        <ele>16.44499968</ele>
        <time>2020-08-02T07:53:12.000Z</time>
      </trkpt>
      <trkpt lat="43.50962" lon="3.84642">
        <ele>16.54499968</ele>
        <time>2020-08-02T07:53:13.000Z</time>
      </trkpt>
      <trkpt lat="43.50964" lon="3.84646">
        <ele>16.64499968</ele>
        <time>2020-08-02T07:53:14.000Z</time>
      </trkpt>
      <trkpt lat="43.50966" lon="3.8465">
        <ele>16.74499968</ele>
        <time>2020-08-02T07:53:15.000Z</time>
      </trkpt>
      <trkpt lat="43.50969" lon="3.84654">
        <ele>16.84499968</ele>
        <time>2020-08-02T07:53:16.000Z</time>
      </trkpt>
      <trkpt lat="43.50971" lon="3.84658">
        <ele>16.94499968</ele>
        <time>2020-08-02T07:53:17.000Z</time>
      </trkpt>
      <trkpt lat="43.50973" lon="3.84662">
        <ele>17.043604341085</ele>
        <time>2020-08-02T07:53:18.000Z</time>
      </trkpt>
      <trkpt lat="43.50975" lon="3.84666">
        <ele>17.140503565891</ele>
        <time>2020-08-02T07:53:19.000Z</time>
      </trkpt>
      <trkpt lat="43.50978" lon="3.8467">
        <ele>17.237402790698</ele>
        <time>2020-08-02T07:53:20.000Z</time>
      </trkpt>
      <trkpt lat="43.5098" lon="3.84674">
        <ele>17.334302015504</ele>
        <time>2020-08-02T07:53:21.000Z</time>
      </trkpt>
      <trkpt lat="43.50982" lon="3.84678">
        <ele>17.43120124031</ele>
        <time>2020-08-02T07:53:22.000Z</time>
      </trkpt>
      <trkpt lat="43.50985" lon="3.84682">
        <ele>17.528100465116</ele>
        <time>2020-08-02T07:53:23.000Z</time>
      </trkpt>
      <trkpt lat="43.50987" lon="3.84686">
        <ele>17.624999689923</ele>
        <time>2020-08-02T07:53:24.000Z</time>
      </trkpt>
      <trkpt lat="43.50989" lon="3.8469">
        <ele>17.721898914729</ele>
        <time>2020-08-02T07:53:25.000Z</time>
      </trkpt>
      <trkpt lat="43.50991" lon="3.84694">
        <ele>17.818798139535</ele>
        <time>2020-08-02T07:53:26.000Z</time>
      </trkpt>
      <trkpt lat="43.50994" lon="3.84698">
        <ele>17.915697364341</ele>
        <time>2020-08-02T07:53:27.000Z</time>
      </trkpt>
      <trkpt lat="43.50996" lon="3.84702">
        <ele>18.013429421488</ele>
        <time>2020-08-02T07:53:28.000Z</time>
      </trkpt>
      <trkpt lat="43.50999" lon="3.84706">
        <ele>18.116735206612</ele>
        <time>2020-08-02T07:53:29.000Z</time>
      </trkpt>
      <trkpt lat="43.51001" lon="3.8471">
        <ele>18.220040991736</ele>
        <time>2020-08-02T07:53:30.000Z</time>
      </trkpt>
      <trkpt lat="43.51004" lon="3.84715">
        <ele>18.323346776859</ele>
        <time>2020-08-02T07:53:31.000Z</time>
      </trkpt>
      <trkpt lat="43.51006" lon="3.84719">
        <ele>18.426652561983</ele>
        <time>2020-08-02T07:53:32.000Z</time>
      </trkpt>
      <trkpt lat="43.51009" lon="3.84723">
        <ele>18.529958347107</ele>
        <time>2020-08-02T07:53:33.000Z</time>
      </trkpt>
      <trkpt lat="43.51011" lon="3.84727">
        <ele>18.633264132231</ele>
        <time>2020-08-02T07:53:34.000Z</time>
      </trkpt>
      <trkpt lat="43.51014" lon="3.84731">
        <ele>18.736569917355</ele>
        <time>2020-08-02T07:53:35.000Z</time>
      </trkpt>
      <trkpt lat="43.51016" lon="3.84736">
        <ele>18.839875702479</ele>
        <time>2020-08-02T07:53:36.000Z</time>
      </trkpt>
      <trkpt lat="43.51019" lon="3.8474">
        <ele>18.943181487603</ele>
        <time>2020-08-02T07:53:37.000Z</time>
      </trkpt>
      <trkpt lat="43.51022" lon="3.84744">
        <ele>18.95500032</ele>
        <time>2020-08-02T07:53:38.000Z</time>
      </trkpt>
      <trkpt lat="43.51025" lon="3.84749">
        <ele>18.85500032</ele>
        <time>2020-08-02T07:53:39.000Z</time>
      </trkpt>
      <trkpt lat="43.51027" lon="3.84753">
        <ele>18.75500032</ele>
        <time>2020-08-02T07:53:40.000Z</time>
      </trkpt>
      <trkpt lat="43.5103" lon="3.84758">
        <ele>18.65500032</ele>
        <time>2020-08-02T07:53:41.000Z</time>
      </trkpt>
      <trkpt lat="43.51033" lon="3.84763">
        <ele>18.55500032</ele>
        <time>2020-08-02T07:53:42.000Z</time>
      </trkpt>
      <trkpt lat="43.51036" lon="3.84768">
        <ele>18.45500032</ele>
        <time>2020-08-02T07:53:43.000Z</time>
      </trkpt>
      <trkpt lat="43.51039" lon="3.84772">
        <ele>18.35500032</ele>
        <time>2020-08-02T07:53:44.000Z</time>
      </trkpt>
      <trkpt lat="43.51042" lon="3.84777">
        <ele>18.25500032</ele>
        <time>2020-08-02T07:53:45.000Z</time>
      </trkpt>
      <trkpt lat="43.51045" lon="3.84782">
        <ele>18.15500032</ele>
        <time>2020-08-02T07:53:46.000Z</time>
      </trkpt>
      <trkpt lat="43.51048" lon="3.84787">
        <ele>18.05500032</ele>
        <time>2020-08-02T07:53:47.000Z</time>
      </trkpt>
      <trkpt lat="43.51051" lon="3.84791">
        <ele>18</ele>
        <time>2020-08-02T07:53:48.000Z</time>
      </trkpt>
      <trkpt lat="43.51055" lon="3.84796">
        <ele>18</ele>
        <time>2020-08-02T07:53:49.000Z</time>
      </trkpt>
      <trkpt lat="43.51058" lon="3.848">
        <ele>18</ele>
        <time>2020-08-02T07:53:50.000Z</time>
      </trkpt>
      <trkpt lat="43.51061" lon="3.84805">
        <ele>18</ele>
        <time>2020-08-02T07:53:51.000Z</time>
      </trkpt>
      <trkpt lat="43.51065" lon="3.8481">
        <ele>18</ele>
        <time>2020-08-02T07:53:52.000Z</time>
      </trkpt>
      <trkpt lat="43.51067" lon="3.84816">
        <ele>18</ele>
        <time>2020-08-02T07:53:53.000Z</time>
      </trkpt>
      <trkpt lat="43.51071" lon="3.84821">
        <ele>18</ele>
        <time>2020-08-02T07:53:54.000Z</time>
      </trkpt>
      <trkpt lat="43.51074" lon="3.84826">
        <ele>18</ele>
        <time>2020-08-02T07:53:55.000Z</time>
      </trkpt>
      <trkpt lat="43.51078" lon="3.8483">
        <ele>18</ele>
        <time>2020-08-02T07:53:56.000Z</time>
      </trkpt>
      <trkpt lat="43.51082" lon="3.84834">
        <ele>18</ele>
        <time>2020-08-02T07:53:57.000Z</time>
      </trkpt>
      <trkpt lat="43.51087" lon="3.84839">
        <ele>17.91000064</ele>
        <time>2020-08-02T07:53:58.000Z</time>
      </trkpt>
      <trkpt lat="43.51092" lon="3.84844">
        <ele>17.71000064</ele>
        <time>2020-08-02T07:53:59.000Z</time>
      </trkpt>
      <trkpt lat="43.51096" lon="3.84848">
        <ele>17.51000064</ele>
        <time>2020-08-02T07:54:00.000Z</time>
      </trkpt>
      <trkpt lat="43.51101" lon="3.84853">
        <ele>17.31000064</ele>
        <time>2020-08-02T07:54:01.000Z</time>
      </trkpt>
      <trkpt lat="43.51107" lon="3.84858">
        <ele>17.11000064</ele>
        <time>2020-08-02T07:54:02.000Z</time>
      </trkpt>
      <trkpt lat="43.51112" lon="3.84863">
        <ele>16.91000064</ele>
        <time>2020-08-02T07:54:03.000Z</time>
      </trkpt>
      <trkpt lat="43.51117" lon="3.84867">
        <ele>16.71000064</ele>
        <time>2020-08-02T07:54:04.000Z</time>
      </trkpt>
      <trkpt lat="43.51122" lon="3.84872">
        <ele>16.51000064</ele>
        <time>2020-08-02T07:54:05.000Z</time>
      </trkpt>
      <trkpt lat="43.51127" lon="3.84877">
        <ele>16.31000064</ele>
        <time>2020-08-02T07:54:06.000Z</time>
      </trkpt>
      <trkpt lat="43.51131" lon="3.84882">
        <ele>16.11000064</ele>
        <time>2020-08-02T07:54:07.000Z</time>
      </trkpt>
      <trkpt lat="43.51136" lon="3.84887">
        <ele>16</ele>
        <time>2020-08-02T07:54:08.000Z</time>
      </trkpt>
      <trkpt lat="43.5114" lon="3.84892">
        <ele>16</ele>
        <time>2020-08-02T07:54:09.000Z</time>
      </trkpt>
      <trkpt lat="43.51145" lon="3.84898">
        <ele>16</ele>
        <time>2020-08-02T07:54:10.000Z</time>
      </trkpt>
      <trkpt lat="43.51149" lon="3.84904">
        <ele>16</ele>
        <time>2020-08-02T07:54:11.000Z</time>
      </trkpt>
      <trkpt lat="43.51153" lon="3.84909">
        <ele>16</ele>
        <time>2020-08-02T07:54:12.000Z</time>
      </trkpt>
      <trkpt lat="43.51157" lon="3.84915">
        <ele>16</ele>
        <time>2020-08-02T07:54:13.000Z</time>
      </trkpt>
      <trkpt lat="43.51161" lon="3.84921">
        <ele>16</ele>
        <time>2020-08-02T07:54:14.000Z</time>
      </trkpt>
      <trkpt lat="43.51165" lon="3.84927">
        <ele>16</ele>
        <time>2020-08-02T07:54:15.000Z</time>
      </trkpt>
      <trkpt lat="43.51169" lon="3.84932">
        <ele>16</ele>
        <time>2020-08-02T07:54:16.000Z</time>
      </trkpt>
      <trkpt lat="43.51172" lon="3.84937">
        <ele>16</ele>
        <time>2020-08-02T07:54:17.000Z</time>
      </trkpt>
      <trkpt lat="43.51176" lon="3.84942">
        <ele>16.027945371372</ele>
        <time>2020-08-02T07:54:18.000Z</time>
      </trkpt>
      <trkpt lat="43.51179" lon="3.84947">
        <ele>16.227546042286</ele>
        <time>2020-08-02T07:54:19.000Z</time>
      </trkpt>
      <trkpt lat="43.51182" lon="3.84952">
        <ele>16.4271467132</ele>
        <time>2020-08-02T07:54:20.000Z</time>
      </trkpt>
      <trkpt lat="43.51186" lon="3.84956">
        <ele>16.626747384113</ele>
        <time>2020-08-02T07:54:21.000Z</time>
      </trkpt>
      <trkpt lat="43.51188" lon="3.84961">
        <ele>16.826348055027</ele>
        <time>2020-08-02T07:54:22.000Z</time>
      </trkpt>
      <trkpt lat="43.51191" lon="3.84965">
        <ele>17.025948725941</ele>
        <time>2020-08-02T07:54:23.000Z</time>
      </trkpt>
      <trkpt lat="43.51195" lon="3.8497">
        <ele>17.225549396855</ele>
        <time>2020-08-02T07:54:24.000Z</time>
      </trkpt>
      <trkpt lat="43.51198" lon="3.84974">
        <ele>17.425150067768</ele>
        <time>2020-08-02T07:54:25.000Z</time>
      </trkpt>
      <trkpt lat="43.51201" lon="3.84978">
        <ele>17.624750738682</ele>
        <time>2020-08-02T07:54:26.000Z</time>
      </trkpt>
      <trkpt lat="43.51205" lon="3.84983">
        <ele>17.824351409596</ele>
        <time>2020-08-02T07:54:27.000Z</time>
      </trkpt>
      <trkpt lat="43.51209" lon="3.84986">
        <ele>17.987590490146</ele>
        <time>2020-08-02T07:54:28.000Z</time>
      </trkpt>
      <trkpt lat="43.51213" lon="3.84989">
        <ele>17.884177908028</ele>
        <time>2020-08-02T07:54:29.000Z</time>
      </trkpt>
      <trkpt lat="43.51218" lon="3.84992">
        <ele>17.78076532591</ele>
        <time>2020-08-02T07:54:30.000Z</time>
      </trkpt>
      <trkpt lat="43.51222" lon="3.84994">
        <ele>17.677352743792</ele>
        <time>2020-08-02T07:54:31.000Z</time>
      </trkpt>
      <trkpt lat="43.51227" lon="3.84997">
        <ele>17.573940161674</ele>
        <time>2020-08-02T07:54:32.000Z</time>
      </trkpt>
      <trkpt lat="43.51231" lon="3.84999">
        <ele>17.470527579556</ele>
        <time>2020-08-02T07:54:33.000Z</time>
      </trkpt>
      <trkpt lat="43.51236" lon="3.85001">
        <ele>17.367114997439</ele>
        <time>2020-08-02T07:54:34.000Z</time>
      </trkpt>
      <trkpt lat="43.51241" lon="3.85004">
        <ele>17.263702415321</ele>
        <time>2020-08-02T07:54:35.000Z</time>
      </trkpt>
      <trkpt lat="43.51245" lon="3.85006">
        <ele>17.160289833203</ele>
        <time>2020-08-02T07:54:36.000Z</time>
      </trkpt>
      <trkpt lat="43.51249" lon="3.85008">
        <ele>17.056877251085</ele>
        <time>2020-08-02T07:54:37.000Z</time>
      </trkpt>
      <trkpt lat="43.51254" lon="3.8501">
        <ele>17</ele>
        <time>2020-08-02T07:54:38.000Z</time>
      </trkpt>
      <trkpt lat="43.51258" lon="3.85013">
        <ele>17</ele>
        <time>2020-08-02T07:54:39.000Z</time>
      </trkpt>
      <trkpt lat="43.51263" lon="3.85016">
        <ele>17</ele>
        <time>2020-08-02T07:54:40.000Z</time>
      </trkpt>
      <trkpt lat="43.51267" lon="3.85018">
        <ele>17</ele>
        <time>2020-08-02T07:54:41.000Z</time>
      </trkpt>
      <trkpt lat="43.51272" lon="3.85021">
        <ele>17</ele>
        <time>2020-08-02T07:54:42.000Z</time>
      </trkpt>
      <trkpt lat="43.51276" lon="3.85023">
        <ele>17</ele>
        <time>2020-08-02T07:54:43.000Z</time>
      </trkpt>
      <trkpt lat="43.51281" lon="3.85026">
        <ele>17</ele>
        <time>2020-08-02T07:54:44.000Z</time>
      </trkpt>
      <trkpt lat="43.51285" lon="3.85029">
        <ele>17</ele>
        <time>2020-08-02T07:54:45.000Z</time>
      </trkpt>
      <trkpt lat="43.5129" lon="3.85031">
        <ele>17</ele>
        <time>2020-08-02T07:54:46.000Z</time>
      </trkpt>
      <trkpt lat="43.51294" lon="3.85034">
        <ele>17</ele>
        <time>2020-08-02T07:54:47.000Z</time>
      </trkpt>
      <trkpt lat="43.51299" lon="3.85037">
        <ele>16.956353325023</ele>
        <time>2020-08-02T07:54:48.000Z</time>
      </trkpt>
      <trkpt lat="43.51303" lon="3.85039">
        <ele>16.859360024234</ele>
        <time>2020-08-02T07:54:49.000Z</time>
      </trkpt>
      <trkpt lat="43.51308" lon="3.85043">
        <ele>16.762366723445</ele>
        <time>2020-08-02T07:54:50.000Z</time>
      </trkpt>
      <trkpt lat="43.51312" lon="3.85046">
        <ele>16.665373422656</ele>
        <time>2020-08-02T07:54:51.000Z</time>
      </trkpt>
      <trkpt lat="43.51317" lon="3.8505">
        <ele>16.568380121867</ele>
        <time>2020-08-02T07:54:52.000Z</time>
      </trkpt>
      <trkpt lat="43.51321" lon="3.85053">
        <ele>16.471386821078</ele>
        <time>2020-08-02T07:54:53.000Z</time>
      </trkpt>
      <trkpt lat="43.51326" lon="3.85057">
        <ele>16.374393520289</ele>
        <time>2020-08-02T07:54:54.000Z</time>
      </trkpt>
      <trkpt lat="43.51331" lon="3.8506">
        <ele>16.2774002195</ele>
        <time>2020-08-02T07:54:55.000Z</time>
      </trkpt>
      <trkpt lat="43.51336" lon="3.85064">
        <ele>16.180406918711</ele>
        <time>2020-08-02T07:54:56.000Z</time>
      </trkpt>
      <trkpt lat="43.51342" lon="3.85068">
        <ele>16.083413617922</ele>
        <time>2020-08-02T07:54:57.000Z</time>
      </trkpt>
      <trkpt lat="43.51347" lon="3.85073">
        <ele>15.985551469423</ele>
        <time>2020-08-02T07:54:58.000Z</time>
      </trkpt>
      <trkpt lat="43.51352" lon="3.85078">
        <ele>15.882352397257</ele>
        <time>2020-08-02T07:54:59.000Z</time>
      </trkpt>
      <trkpt lat="43.51357" lon="3.85084">
        <ele>15.779153325091</ele>
        <time>2020-08-02T07:55:00.000Z</time>
      </trkpt>
      <trkpt lat="43.51362" lon="3.8509">
        <ele>15.675954252925</ele>
        <time>2020-08-02T07:55:01.000Z</time>
      </trkpt>
      <trkpt lat="43.51367" lon="3.85096">
        <ele>15.572755180759</ele>
        <time>2020-08-02T07:55:02.000Z</time>
      </trkpt>
      <trkpt lat="43.51372" lon="3.85102">
        <ele>15.469556108592</ele>
        <time>2020-08-02T07:55:03.000Z</time>
      </trkpt>
      <trkpt lat="43.51378" lon="3.85109">
        <ele>15.366357036426</ele>
        <time>2020-08-02T07:55:04.000Z</time>
      </trkpt>
      <trkpt lat="43.51383" lon="3.85115">
        <ele>15.26315796426</ele>
        <time>2020-08-02T07:55:05.000Z</time>
      </trkpt>
      <trkpt lat="43.51388" lon="3.85122">
        <ele>15.159958892094</ele>
        <time>2020-08-02T07:55:06.000Z</time>
      </trkpt>
      <trkpt lat="43.51393" lon="3.85128">
        <ele>15.056759819928</ele>
        <time>2020-08-02T07:55:07.000Z</time>
      </trkpt>
      <trkpt lat="43.51398" lon="3.85134">
        <ele>15</ele>
        <time>2020-08-02T07:55:08.000Z</time>
      </trkpt>
      <trkpt lat="43.51403" lon="3.85141">
        <ele>15</ele>
        <time>2020-08-02T07:55:09.000Z</time>
      </trkpt>
      <trkpt lat="43.51407" lon="3.85147">
        <ele>15</ele>
        <time>2020-08-02T07:55:10.000Z</time>
      </trkpt>
      <trkpt lat="43.51412" lon="3.85154">
        <ele>15</ele>
        <time>2020-08-02T07:55:11.000Z</time>
      </trkpt>
      <trkpt lat="43.51417" lon="3.85161">
        <ele>15</ele>
        <time>2020-08-02T07:55:12.000Z</time>
      </trkpt>
      <trkpt lat="43.51422" lon="3.85168">
        <ele>15</ele>
        <time>2020-08-02T07:55:13.000Z</time>
      </trkpt>
      <trkpt lat="43.51426" lon="3.85175">
        <ele>15</ele>
        <time>2020-08-02T07:55:14.000Z</time>
      </trkpt>
      <trkpt lat="43.51431" lon="3.85182">
        <ele>15</ele>
        <time>2020-08-02T07:55:15.000Z</time>
      </trkpt>
      <trkpt lat="43.51435" lon="3.85189">
        <ele>15</ele>
        <time>2020-08-02T07:55:16.000Z</time>
      </trkpt>
      <trkpt lat="43.51439" lon="3.85197">
        <ele>15</ele>
        <time>2020-08-02T07:55:17.000Z</time>
      </trkpt>
      <trkpt lat="43.51443" lon="3.85204">
        <ele>14.95500032</ele>
        <time>2020-08-02T07:55:18.000Z</time>
      </trkpt>
      <trkpt lat="43.51448" lon="3.85211">
        <ele>14.85500032</ele>
        <time>2020-08-02T07:55:19.000Z</time>
      </trkpt>
      <trkpt lat="43.51452" lon="3.85218">
        <ele>14.75500032</ele>
        <time>2020-08-02T07:55:20.000Z</time>
      </trkpt>
      <trkpt lat="43.51456" lon="3.85224">
        <ele>14.65500032</ele>
        <time>2020-08-02T07:55:21.000Z</time>
      </trkpt>
      <trkpt lat="43.51459" lon="3.8523">
        <ele>14.55500032</ele>
        <time>2020-08-02T07:55:22.000Z</time>
      </trkpt>
      <trkpt lat="43.51462" lon="3.85237">
        <ele>14.45500032</ele>
        <time>2020-08-02T07:55:23.000Z</time>
      </trkpt>
      <trkpt lat="43.51466" lon="3.85243">
        <ele>14.35500032</ele>
        <time>2020-08-02T07:55:24.000Z</time>
      </trkpt>
      <trkpt lat="43.51469" lon="3.85248">
        <ele>14.25500032</ele>
        <time>2020-08-02T07:55:25.000Z</time>
      </trkpt>
      <trkpt lat="43.51473" lon="3.85254">
        <ele>14.15500032</ele>
        <time>2020-08-02T07:55:26.000Z</time>
      </trkpt>
      <trkpt lat="43.51476" lon="3.85259">
        <ele>14.05500032</ele>
        <time>2020-08-02T07:55:27.000Z</time>
      </trkpt>
      <trkpt lat="43.51479" lon="3.85264">
        <ele>14</ele>
        <time>2020-08-02T07:55:28.000Z</time>
      </trkpt>
      <trkpt lat="43.5148" lon="3.85268">
        <ele>14</ele>
        <time>2020-08-02T07:55:29.000Z</time>
      </trkpt>
      <trkpt lat="43.5148" lon="3.85271">
        <ele>14</ele>
        <time>2020-08-02T07:55:30.000Z</time>
      </trkpt>
      <trkpt lat="43.51479" lon="3.85274">
        <ele>14</ele>
        <time>2020-08-02T07:55:31.000Z</time>
      </trkpt>
      <trkpt lat="43.51477" lon="3.85275">
        <ele>14</ele>
        <time>2020-08-02T07:55:32.000Z</time>
      </trkpt>
      <trkpt lat="43.51475" lon="3.85276">
        <ele>14</ele>
        <time>2020-08-02T07:55:33.000Z</time>
      </trkpt>
      <trkpt lat="43.51473" lon="3.85275">
        <ele>14</ele>
        <time>2020-08-02T07:55:34.000Z</time>
      </trkpt>
      <trkpt lat="43.51471" lon="3.85273">
        <ele>14</ele>
        <time>2020-08-02T07:55:35.000Z</time>
      </trkpt>
      <trkpt lat="43.51468" lon="3.85272">
        <ele>14</ele>
        <time>2020-08-02T07:55:36.000Z</time>
      </trkpt>
      <trkpt lat="43.51466" lon="3.8527">
        <ele>14</ele>
        <time>2020-08-02T07:55:37.000Z</time>
      </trkpt>
      <trkpt lat="43.51463" lon="3.85269">
        <ele>14</ele>
        <time>2020-08-02T07:55:38.000Z</time>
      </trkpt>
      <trkpt lat="43.5146" lon="3.85268">
        <ele>14</ele>
        <time>2020-08-02T07:55:39.000Z</time>
      </trkpt>
      <trkpt lat="43.51457" lon="3.85266">
        <ele>14</ele>
        <time>2020-08-02T07:55:40.000Z</time>
      </trkpt>
      <trkpt lat="43.51454" lon="3.85265">
        <ele>14</ele>
        <time>2020-08-02T07:55:41.000Z</time>
      </trkpt>
      <trkpt lat="43.51451" lon="3.85264">
        <ele>14</ele>
        <time>2020-08-02T07:55:42.000Z</time>
      </trkpt>
      <trkpt lat="43.51448" lon="3.85262">
        <ele>14</ele>
        <time>2020-08-02T07:55:43.000Z</time>
      </trkpt>
      <trkpt lat="43.51445" lon="3.85261">
        <ele>14</ele>
        <time>2020-08-02T07:55:44.000Z</time>
      </trkpt>
      <trkpt lat="43.51442" lon="3.8526">
        <ele>14</ele>
        <time>2020-08-02T07:55:45.000Z</time>
      </trkpt>
      <trkpt lat="43.51439" lon="3.85259">
        <ele>14</ele>
        <time>2020-08-02T07:55:46.000Z</time>
      </trkpt>
      <trkpt lat="43.51435" lon="3.85258">
        <ele>14</ele>
        <time>2020-08-02T07:55:47.000Z</time>
      </trkpt>
      <trkpt lat="43.51432" lon="3.85257">
        <ele>14</ele>
        <time>2020-08-02T07:55:48.000Z</time>
      </trkpt>
      <trkpt lat="43.51429" lon="3.85256">
        <ele>14.090425191489</ele>
        <time>2020-08-02T07:55:49.000Z</time>
      </trkpt>
      <trkpt lat="43.51426" lon="3.85254">
        <ele>14.196808170213</ele>
        <time>2020-08-02T07:55:50.000Z</time>
      </trkpt>
      <trkpt lat="43.51423" lon="3.85254">
        <ele>14.303191148936</ele>
        <time>2020-08-02T07:55:51.000Z</time>
      </trkpt>
      <trkpt lat="43.5142" lon="3.85253">
        <ele>14.40957412766</ele>
        <time>2020-08-02T07:55:52.000Z</time>
      </trkpt>
      <trkpt lat="43.51416" lon="3.85252">
        <ele>14.515957106383</ele>
        <time>2020-08-02T07:55:53.000Z</time>
      </trkpt>
      <trkpt lat="43.51413" lon="3.85252">
        <ele>14.622340085106</ele>
        <time>2020-08-02T07:55:54.000Z</time>
      </trkpt>
      <trkpt lat="43.51409" lon="3.85251">
        <ele>14.72872306383</ele>
        <time>2020-08-02T07:55:55.000Z</time>
      </trkpt>
      <trkpt lat="43.51406" lon="3.8525">
        <ele>14.835106042553</ele>
        <time>2020-08-02T07:55:56.000Z</time>
      </trkpt>
      <trkpt lat="43.51403" lon="3.8525">
        <ele>14.941489021277</ele>
        <time>2020-08-02T07:55:57.000Z</time>
      </trkpt>
      <trkpt lat="43.51399" lon="3.85249">
        <ele>15.04499968</ele>
        <time>2020-08-02T07:55:58.000Z</time>
      </trkpt>
      <trkpt lat="43.51396" lon="3.85249">
        <ele>15.14499968</ele>
        <time>2020-08-02T07:55:59.000Z</time>
      </trkpt>
      <trkpt lat="43.51393" lon="3.85248">
        <ele>15.24499968</ele>
        <time>2020-08-02T07:56:00.000Z</time>
      </trkpt>
      <trkpt lat="43.51389" lon="3.85247">
        <ele>15.34499968</ele>
        <time>2020-08-02T07:56:01.000Z</time>
      </trkpt>
      <trkpt lat="43.51386" lon="3.85246">
        <ele>15.44499968</ele>
        <time>2020-08-02T07:56:02.000Z</time>
      </trkpt>
      <trkpt lat="43.51383" lon="3.85244">
        <ele>15.54499968</ele>
        <time>2020-08-02T07:56:03.000Z</time>
      </trkpt>
      <trkpt lat="43.5138" lon="3.85243">
        <ele>15.64499968</ele>
        <time>2020-08-02T07:56:04.000Z</time>
      </trkpt>
      <trkpt lat="43.51377" lon="3.85241">
        <ele>15.74499968</ele>
        <time>2020-08-02T07:56:05.000Z</time>
      </trkpt>
      <trkpt lat="43.51375" lon="3.85238">
        <ele>15.84499968</ele>
        <time>2020-08-02T07:56:06.000Z</time>
      </trkpt>
      <trkpt lat="43.51372" lon="3.85236">
        <ele>15.94499968</ele>
        <time>2020-08-02T07:56:07.000Z</time>
      </trkpt>
      <trkpt lat="43.5137" lon="3.85234">
        <ele>16.044820398406</ele>
        <time>2020-08-02T07:56:08.000Z</time>
      </trkpt>
      <trkpt lat="43.51367" lon="3.85231">
        <ele>16.144421992032</ele>
        <time>2020-08-02T07:56:09.000Z</time>
      </trkpt>
      <trkpt lat="43.51365" lon="3.85229">
        <ele>16.244023585657</ele>
        <time>2020-08-02T07:56:10.000Z</time>
      </trkpt>
      <trkpt lat="43.51362" lon="3.85227">
        <ele>16.343625179283</ele>
        <time>2020-08-02T07:56:11.000Z</time>
      </trkpt>
      <trkpt lat="43.51359" lon="3.85225">
        <ele>16.443226772908</ele>
        <time>2020-08-02T07:56:12.000Z</time>
      </trkpt>
      <trkpt lat="43.51357" lon="3.85223">
        <ele>16.542828366534</ele>
        <time>2020-08-02T07:56:13.000Z</time>
      </trkpt>
      <trkpt lat="43.51354" lon="3.85222">
        <ele>16.642429960159</ele>
        <time>2020-08-02T07:56:14.000Z</time>
      </trkpt>
      <trkpt lat="43.51351" lon="3.85221">
        <ele>16.742031553785</ele>
        <time>2020-08-02T07:56:15.000Z</time>
      </trkpt>
      <trkpt lat="43.51348" lon="3.8522">
        <ele>16.84163314741</ele>
        <time>2020-08-02T07:56:16.000Z</time>
      </trkpt>
      <trkpt lat="43.51346" lon="3.85219">
        <ele>16.941234741036</ele>
        <time>2020-08-02T07:56:17.000Z</time>
      </trkpt>
      <trkpt lat="43.51343" lon="3.85219">
        <ele>17.082328674699</ele>
        <time>2020-08-02T07:56:18.000Z</time>
      </trkpt>
      <trkpt lat="43.5134" lon="3.85219">
        <ele>17.28313188755</ele>
        <time>2020-08-02T07:56:19.000Z</time>
      </trkpt>
      <trkpt lat="43.51337" lon="3.85219">
        <ele>17.483935100402</ele>
        <time>2020-08-02T07:56:20.000Z</time>
      </trkpt>
      <trkpt lat="43.51334" lon="3.85219">
        <ele>17.684738313253</ele>
        <time>2020-08-02T07:56:21.000Z</time>
      </trkpt>
      <trkpt lat="43.51331" lon="3.85219">
        <ele>17.885541526104</ele>
        <time>2020-08-02T07:56:22.000Z</time>
      </trkpt>
      <trkpt lat="43.51328" lon="3.85219">
        <ele>18.086344738956</ele>
        <time>2020-08-02T07:56:23.000Z</time>
      </trkpt>
      <trkpt lat="43.51325" lon="3.85219">
        <ele>18.287147951807</ele>
        <time>2020-08-02T07:56:24.000Z</time>
      </trkpt>
      <trkpt lat="43.51322" lon="3.85219">
        <ele>18.487951164659</ele>
        <time>2020-08-02T07:56:25.000Z</time>
      </trkpt>
      <trkpt lat="43.51319" lon="3.85219">
        <ele>18.68875437751</ele>
        <time>2020-08-02T07:56:26.000Z</time>
      </trkpt>
      <trkpt lat="43.51316" lon="3.85219">
        <ele>18.889557590361</ele>
        <time>2020-08-02T07:56:27.000Z</time>
      </trkpt>
      <trkpt lat="43.51313" lon="3.85219">
        <ele>19</ele>
        <time>2020-08-02T07:56:28.000Z</time>
      </trkpt>
      <trkpt lat="43.5131" lon="3.85219">
        <ele>19</ele>
        <time>2020-08-02T07:56:29.000Z</time>
      </trkpt>
      <trkpt lat="43.51307" lon="3.85219">
        <ele>19</ele>
        <time>2020-08-02T07:56:30.000Z</time>
      </trkpt>
      <trkpt lat="43.51304" lon="3.85219">
        <ele>19</ele>
        <time>2020-08-02T07:56:31.000Z</time>
      </trkpt>
      <trkpt lat="43.513" lon="3.85219">
        <ele>19</ele>
        <time>2020-08-02T07:56:32.000Z</time>
      </trkpt>
      <trkpt lat="43.51297" lon="3.8522">
        <ele>19</ele>
        <time>2020-08-02T07:56:33.000Z</time>
      </trkpt>
      <trkpt lat="43.51293" lon="3.8522">
        <ele>19</ele>
        <time>2020-08-02T07:56:34.000Z</time>
      </trkpt>
      <trkpt lat="43.51289" lon="3.8522">
        <ele>19</ele>
        <time>2020-08-02T07:56:35.000Z</time>
      </trkpt>
      <trkpt lat="43.51286" lon="3.85221">
        <ele>19</ele>
        <time>2020-08-02T07:56:36.000Z</time>
      </trkpt>
      <trkpt lat="43.51282" lon="3.85221">
        <ele>19</ele>
        <time>2020-08-02T07:56:37.000Z</time>
      </trkpt>
      <trkpt lat="43.51278" lon="3.85221">
        <ele>19</ele>
        <time>2020-08-02T07:56:38.000Z</time>
      </trkpt>
      <trkpt lat="43.51274" lon="3.85221">
        <ele>19</ele>
        <time>2020-08-02T07:56:39.000Z</time>
      </trkpt>
      <trkpt lat="43.5127" lon="3.85221">
        <ele>19</ele>
        <time>2020-08-02T07:56:40.000Z</time>
      </trkpt>
      <trkpt lat="43.51266" lon="3.85222">
        <ele>19</ele>
        <time>2020-08-02T07:56:41.000Z</time>
      </trkpt>
      <trkpt lat="43.51262" lon="3.85222">
        <ele>19</ele>
        <time>2020-08-02T07:56:42.000Z</time>
      </trkpt>
      <trkpt lat="43.51258" lon="3.85223">
        <ele>19</ele>
        <time>2020-08-02T07:56:43.000Z</time>
      </trkpt>
      <trkpt lat="43.51254" lon="3.85224">
        <ele>19</ele>
        <time>2020-08-02T07:56:44.000Z</time>
      </trkpt>
      <trkpt lat="43.51249" lon="3.85225">
        <ele>19</ele>
        <time>2020-08-02T07:56:45.000Z</time>
      </trkpt>
      <trkpt lat="43.51245" lon="3.85225">
        <ele>19</ele>
        <time>2020-08-02T07:56:46.000Z</time>
      </trkpt>
      <trkpt lat="43.51241" lon="3.85226">
        <ele>19</ele>
        <time>2020-08-02T07:56:47.000Z</time>
      </trkpt>
      <trkpt lat="43.51237" lon="3.85227">
        <ele>19</ele>
        <time>2020-08-02T07:56:48.000Z</time>
      </trkpt>
      <trkpt lat="43.51232" lon="3.85228">
        <ele>19</ele>
        <time>2020-08-02T07:56:49.000Z</time>
      </trkpt>
      <trkpt lat="43.51228" lon="3.85229">
        <ele>19</ele>
        <time>2020-08-02T07:56:50.000Z</time>
      </trkpt>
      <trkpt lat="43.51223" lon="3.8523">
        <ele>19</ele>
        <time>2020-08-02T07:56:51.000Z</time>
      </trkpt>
      <trkpt lat="43.51219" lon="3.85231">
        <ele>19</ele>
        <time>2020-08-02T07:56:52.000Z</time>
      </trkpt>
      <trkpt lat="43.51214" lon="3.85231">
        <ele>19</ele>
        <time>2020-08-02T07:56:53.000Z</time>
      </trkpt>
      <trkpt lat="43.5121" lon="3.85232">
        <ele>19</ele>
        <time>2020-08-02T07:56:54.000Z</time>
      </trkpt>
      <trkpt lat="43.51206" lon="3.85233">
        <ele>19</ele>
        <time>2020-08-02T07:56:55.000Z</time>
      </trkpt>
      <trkpt lat="43.51201" lon="3.85235">
        <ele>19</ele>
        <time>2020-08-02T07:56:56.000Z</time>
      </trkpt>
      <trkpt lat="43.51197" lon="3.85237">
        <ele>19</ele>
        <time>2020-08-02T07:56:57.000Z</time>
      </trkpt>
      <trkpt lat="43.51193" lon="3.85239">
        <ele>19</ele>
        <time>2020-08-02T07:56:58.000Z</time>
      </trkpt>
      <trkpt lat="43.51189" lon="3.85242">
        <ele>19</ele>
        <time>2020-08-02T07:56:59.000Z</time>
      </trkpt>
      <trkpt lat="43.51186" lon="3.85245">
        <ele>19</ele>
        <time>2020-08-02T07:57:00.000Z</time>
      </trkpt>
      <trkpt lat="43.51185" lon="3.8525">
        <ele>19</ele>
        <time>2020-08-02T07:57:01.000Z</time>
      </trkpt>
      <trkpt lat="43.51184" lon="3.85256">
        <ele>19</ele>
        <time>2020-08-02T07:57:02.000Z</time>
      </trkpt>
      <trkpt lat="43.51185" lon="3.85261">
        <ele>19</ele>
        <time>2020-08-02T07:57:03.000Z</time>
      </trkpt>
      <trkpt lat="43.51186" lon="3.85267">
        <ele>19</ele>
        <time>2020-08-02T07:57:04.000Z</time>
      </trkpt>
      <trkpt lat="43.51189" lon="3.85272">
        <ele>19</ele>
        <time>2020-08-02T07:57:05.000Z</time>
      </trkpt>
      <trkpt lat="43.51191" lon="3.85278">
        <ele>19</ele>
        <time>2020-08-02T07:57:06.000Z</time>
      </trkpt>
      <trkpt lat="43.51193" lon="3.85284">
        <ele>19</ele>
        <time>2020-08-02T07:57:07.000Z</time>
      </trkpt>
      <trkpt lat="43.51195" lon="3.85289">
        <ele>19</ele>
        <time>2020-08-02T07:57:08.000Z</time>
      </trkpt>
      <trkpt lat="43.51197" lon="3.85295">
        <ele>19</ele>
        <time>2020-08-02T07:57:09.000Z</time>
      </trkpt>
      <trkpt lat="43.51199" lon="3.85301">
        <ele>19</ele>
        <time>2020-08-02T07:57:10.000Z</time>
      </trkpt>
      <trkpt lat="43.51201" lon="3.85307">
        <ele>19</ele>
        <time>2020-08-02T07:57:11.000Z</time>
      </trkpt>
      <trkpt lat="43.51204" lon="3.85312">
        <ele>19</ele>
        <time>2020-08-02T07:57:12.000Z</time>
      </trkpt>
      <trkpt lat="43.51206" lon="3.85318">
        <ele>19</ele>
        <time>2020-08-02T07:57:13.000Z</time>
      </trkpt>
      <trkpt lat="43.51207" lon="3.85324">
        <ele>19</ele>
        <time>2020-08-02T07:57:14.000Z</time>
      </trkpt>
      <trkpt lat="43.5121" lon="3.8533">
        <ele>19</ele>
        <time>2020-08-02T07:57:15.000Z</time>
      </trkpt>
      <trkpt lat="43.51211" lon="3.85336">
        <ele>19</ele>
        <time>2020-08-02T07:57:16.000Z</time>
      </trkpt>
      <trkpt lat="43.51213" lon="3.85341">
        <ele>19</ele>
        <time>2020-08-02T07:57:17.000Z</time>
      </trkpt>
      <trkpt lat="43.51215" lon="3.85347">
        <ele>19</ele>
        <time>2020-08-02T07:57:18.000Z</time>
      </trkpt>
      <trkpt lat="43.51217" lon="3.85353">
        <ele>19</ele>
        <time>2020-08-02T07:57:19.000Z</time>
      </trkpt>
      <trkpt lat="43.51219" lon="3.85359">
        <ele>19</ele>
        <time>2020-08-02T07:57:20.000Z</time>
      </trkpt>
      <trkpt lat="43.51222" lon="3.85365">
        <ele>19</ele>
        <time>2020-08-02T07:57:21.000Z</time>
      </trkpt>
      <trkpt lat="43.51224" lon="3.85371">
        <ele>19</ele>
        <time>2020-08-02T07:57:22.000Z</time>
      </trkpt>
      <trkpt lat="43.51227" lon="3.85377">
        <ele>19</ele>
        <time>2020-08-02T07:57:23.000Z</time>
      </trkpt>
      <trkpt lat="43.5123" lon="3.85383">
        <ele>19</ele>
        <time>2020-08-02T07:57:24.000Z</time>
      </trkpt>
      <trkpt lat="43.51233" lon="3.85388">
        <ele>19</ele>
        <time>2020-08-02T07:57:25.000Z</time>
      </trkpt>
      <trkpt lat="43.51236" lon="3.85394">
        <ele>19</ele>
        <time>2020-08-02T07:57:26.000Z</time>
      </trkpt>
      <trkpt lat="43.51239" lon="3.85399">
        <ele>19</ele>
        <time>2020-08-02T07:57:27.000Z</time>
      </trkpt>
      <trkpt lat="43.51242" lon="3.85405">
        <ele>18.955179601594</ele>
        <time>2020-08-02T07:57:28.000Z</time>
      </trkpt>
      <trkpt lat="43.51246" lon="3.8541">
        <ele>18.855578007968</ele>
        <time>2020-08-02T07:57:29.000Z</time>
      </trkpt>
      <trkpt lat="43.5125" lon="3.85415">
        <ele>18.755976414343</ele>
        <time>2020-08-02T07:57:30.000Z</time>
      </trkpt>
      <trkpt lat="43.51254" lon="3.8542">
        <ele>18.656374820717</ele>
        <time>2020-08-02T07:57:31.000Z</time>
      </trkpt>
      <trkpt lat="43.51258" lon="3.85425">
        <ele>18.556773227092</ele>
        <time>2020-08-02T07:57:32.000Z</time>
      </trkpt>
      <trkpt lat="43.51262" lon="3.8543">
        <ele>18.457171633466</ele>
        <time>2020-08-02T07:57:33.000Z</time>
      </trkpt>
      <trkpt lat="43.51266" lon="3.85435">
        <ele>18.357570039841</ele>
        <time>2020-08-02T07:57:34.000Z</time>
      </trkpt>
      <trkpt lat="43.51271" lon="3.8544">
        <ele>18.257968446215</ele>
        <time>2020-08-02T07:57:35.000Z</time>
      </trkpt>
      <trkpt lat="43.51275" lon="3.85444">
        <ele>18.15836685259</ele>
        <time>2020-08-02T07:57:36.000Z</time>
      </trkpt>
      <trkpt lat="43.51279" lon="3.85449">
        <ele>18.058765258964</ele>
        <time>2020-08-02T07:57:37.000Z</time>
      </trkpt>
      <trkpt lat="43.51283" lon="3.85453">
        <ele>18</ele>
        <time>2020-08-02T07:57:38.000Z</time>
      </trkpt>
      <trkpt lat="43.51287" lon="3.85457">
        <ele>18</ele>
        <time>2020-08-02T07:57:39.000Z</time>
      </trkpt>
      <trkpt lat="43.51291" lon="3.85462">
        <ele>18</ele>
        <time>2020-08-02T07:57:40.000Z</time>
      </trkpt>
      <trkpt lat="43.51295" lon="3.85467">
        <ele>18</ele>
        <time>2020-08-02T07:57:41.000Z</time>
      </trkpt>
      <trkpt lat="43.51299" lon="3.85471">
        <ele>18</ele>
        <time>2020-08-02T07:57:42.000Z</time>
      </trkpt>
      <trkpt lat="43.51303" lon="3.85476">
        <ele>18</ele>
        <time>2020-08-02T07:57:43.000Z</time>
      </trkpt>
      <trkpt lat="43.51306" lon="3.85481">
        <ele>18</ele>
        <time>2020-08-02T07:57:44.000Z</time>
      </trkpt>
      <trkpt lat="43.5131" lon="3.85485">
        <ele>18</ele>
        <time>2020-08-02T07:57:45.000Z</time>
      </trkpt>
      <trkpt lat="43.51314" lon="3.8549">
        <ele>18</ele>
        <time>2020-08-02T07:57:46.000Z</time>
      </trkpt>
      <trkpt lat="43.51318" lon="3.85494">
        <ele>18</ele>
        <time>2020-08-02T07:57:47.000Z</time>
      </trkpt>
      <trkpt lat="43.51322" lon="3.85499">
        <ele>18</ele>
        <time>2020-08-02T07:57:48.000Z</time>
      </trkpt>
      <trkpt lat="43.51326" lon="3.85503">
        <ele>18</ele>
        <time>2020-08-02T07:57:49.000Z</time>
      </trkpt>
      <trkpt lat="43.5133" lon="3.85508">
        <ele>18</ele>
        <time>2020-08-02T07:57:50.000Z</time>
      </trkpt>
      <trkpt lat="43.51334" lon="3.85512">
        <ele>18</ele>
        <time>2020-08-02T07:57:51.000Z</time>
      </trkpt>
      <trkpt lat="43.51337" lon="3.85517">
        <ele>18</ele>
        <time>2020-08-02T07:57:52.000Z</time>
      </trkpt>
      <trkpt lat="43.51341" lon="3.85521">
        <ele>18</ele>
        <time>2020-08-02T07:57:53.000Z</time>
      </trkpt>
      <trkpt lat="43.51345" lon="3.85526">
        <ele>18</ele>
        <time>2020-08-02T07:57:54.000Z</time>
      </trkpt>
      <trkpt lat="43.51349" lon="3.8553">
        <ele>18</ele>
        <time>2020-08-02T07:57:55.000Z</time>
      </trkpt>
      <trkpt lat="43.51353" lon="3.85535">
        <ele>18</ele>
        <time>2020-08-02T07:57:56.000Z</time>
      </trkpt>
      <trkpt lat="43.51356" lon="3.85539">
        <ele>18</ele>
        <time>2020-08-02T07:57:57.000Z</time>
      </trkpt>
      <trkpt lat="43.5136" lon="3.85544">
        <ele>17.961731517359</ele>
        <time>2020-08-02T07:57:58.000Z</time>
      </trkpt>
      <trkpt lat="43.51364" lon="3.85548">
        <ele>17.861026680176</ele>
        <time>2020-08-02T07:57:59.000Z</time>
      </trkpt>
      <trkpt lat="43.51368" lon="3.85553">
        <ele>17.760321842992</ele>
        <time>2020-08-02T07:58:00.000Z</time>
      </trkpt>
      <trkpt lat="43.51372" lon="3.85558">
        <ele>17.659617005808</ele>
        <time>2020-08-02T07:58:01.000Z</time>
      </trkpt>
      <trkpt lat="43.51375" lon="3.85563">
        <ele>17.558912168625</ele>
        <time>2020-08-02T07:58:02.000Z</time>
      </trkpt>
      <trkpt lat="43.51379" lon="3.85568">
        <ele>17.458207331441</ele>
        <time>2020-08-02T07:58:03.000Z</time>
      </trkpt>
      <trkpt lat="43.51383" lon="3.85573">
        <ele>17.357502494257</ele>
        <time>2020-08-02T07:58:04.000Z</time>
      </trkpt>
      <trkpt lat="43.51387" lon="3.85578">
        <ele>17.256797657074</ele>
        <time>2020-08-02T07:58:05.000Z</time>
      </trkpt>
      <trkpt lat="43.51392" lon="3.85583">
        <ele>17.15609281989</ele>
        <time>2020-08-02T07:58:06.000Z</time>
      </trkpt>
      <trkpt lat="43.51396" lon="3.85588">
        <ele>17.055387982706</ele>
        <time>2020-08-02T07:58:07.000Z</time>
      </trkpt>
      <trkpt lat="43.514" lon="3.85593">
        <ele>17</ele>
        <time>2020-08-02T07:58:08.000Z</time>
      </trkpt>
      <trkpt lat="43.51405" lon="3.85598">
        <ele>17</ele>
        <time>2020-08-02T07:58:09.000Z</time>
      </trkpt>
      <trkpt lat="43.51409" lon="3.85603">
        <ele>17</ele>
        <time>2020-08-02T07:58:10.000Z</time>
      </trkpt>
      <trkpt lat="43.51413" lon="3.85608">
        <ele>17</ele>
        <time>2020-08-02T07:58:11.000Z</time>
      </trkpt>
      <trkpt lat="43.51418" lon="3.85613">
        <ele>17</ele>
        <time>2020-08-02T07:58:12.000Z</time>
      </trkpt>
      <trkpt lat="43.51422" lon="3.85617">
        <ele>17</ele>
        <time>2020-08-02T07:58:13.000Z</time>
      </trkpt>
      <trkpt lat="43.51427" lon="3.85622">
        <ele>17</ele>
        <time>2020-08-02T07:58:14.000Z</time>
      </trkpt>
      <trkpt lat="43.51431" lon="3.85626">
        <ele>17</ele>
        <time>2020-08-02T07:58:15.000Z</time>
      </trkpt>
      <trkpt lat="43.51436" lon="3.8563">
        <ele>17</ele>
        <time>2020-08-02T07:58:16.000Z</time>
      </trkpt>
      <trkpt lat="43.51441" lon="3.85635">
        <ele>17</ele>
        <time>2020-08-02T07:58:17.000Z</time>
      </trkpt>
      <trkpt lat="43.51445" lon="3.85639">
        <ele>16.982510617284</ele>
        <time>2020-08-02T07:58:18.000Z</time>
      </trkpt>
      <trkpt lat="43.5145" lon="3.85643">
        <ele>16.879629958848</ele>
        <time>2020-08-02T07:58:19.000Z</time>
      </trkpt>
      <trkpt lat="43.51455" lon="3.85647">
        <ele>16.776749300411</ele>
        <time>2020-08-02T07:58:20.000Z</time>
      </trkpt>
      <trkpt lat="43.5146" lon="3.8565">
        <ele>16.673868641975</ele>
        <time>2020-08-02T07:58:21.000Z</time>
      </trkpt>
      <trkpt lat="43.51465" lon="3.85653">
        <ele>16.570987983539</ele>
        <time>2020-08-02T07:58:22.000Z</time>
      </trkpt>
      <trkpt lat="43.5147" lon="3.85656">
        <ele>16.468107325103</ele>
        <time>2020-08-02T07:58:23.000Z</time>
      </trkpt>
      <trkpt lat="43.51476" lon="3.85657">
        <ele>16.365226666667</ele>
        <time>2020-08-02T07:58:24.000Z</time>
      </trkpt>
      <trkpt lat="43.51481" lon="3.85659">
        <ele>16.262346008231</ele>
        <time>2020-08-02T07:58:25.000Z</time>
      </trkpt>
      <trkpt lat="43.51487" lon="3.8566">
        <ele>16.159465349794</ele>
        <time>2020-08-02T07:58:26.000Z</time>
      </trkpt>
      <trkpt lat="43.51492" lon="3.85662">
        <ele>16.056584691358</ele>
        <time>2020-08-02T07:58:27.000Z</time>
      </trkpt>
      <trkpt lat="43.51498" lon="3.85662">
        <ele>15.95500032</ele>
        <time>2020-08-02T07:58:28.000Z</time>
      </trkpt>
      <trkpt lat="43.51503" lon="3.85663">
        <ele>15.85500032</ele>
        <time>2020-08-02T07:58:29.000Z</time>
      </trkpt>
      <trkpt lat="43.51509" lon="3.85664">
        <ele>15.75500032</ele>
        <time>2020-08-02T07:58:30.000Z</time>
      </trkpt>
      <trkpt lat="43.51514" lon="3.85665">
        <ele>15.65500032</ele>
        <time>2020-08-02T07:58:31.000Z</time>
      </trkpt>
      <trkpt lat="43.5152" lon="3.85666">
        <ele>15.55500032</ele>
        <time>2020-08-02T07:58:32.000Z</time>
      </trkpt>
      <trkpt lat="43.51526" lon="3.85667">
        <ele>15.45500032</ele>
        <time>2020-08-02T07:58:33.000Z</time>
      </trkpt>
      <trkpt lat="43.51531" lon="3.85668">
        <ele>15.35500032</ele>
        <time>2020-08-02T07:58:34.000Z</time>
      </trkpt>
      <trkpt lat="43.51537" lon="3.85671">
        <ele>15.25500032</ele>
        <time>2020-08-02T07:58:35.000Z</time>
      </trkpt>
      <trkpt lat="43.51542" lon="3.85674">
        <ele>15.15500032</ele>
        <time>2020-08-02T07:58:36.000Z</time>
      </trkpt>
      <trkpt lat="43.51547" lon="3.85678">
        <ele>15.05500032</ele>
        <time>2020-08-02T07:58:37.000Z</time>
      </trkpt>
      <trkpt lat="43.51552" lon="3.85682">
        <ele>14.95500032</ele>
        <time>2020-08-02T07:58:38.000Z</time>
      </trkpt>
      <trkpt lat="43.51557" lon="3.85686">
        <ele>14.85500032</ele>
        <time>2020-08-02T07:58:39.000Z</time>
      </trkpt>
      <trkpt lat="43.51561" lon="3.85691">
        <ele>14.75500032</ele>
        <time>2020-08-02T07:58:40.000Z</time>
      </trkpt>
      <trkpt lat="43.51566" lon="3.85695">
        <ele>14.65500032</ele>
        <time>2020-08-02T07:58:41.000Z</time>
      </trkpt>
      <trkpt lat="43.5157" lon="3.857">
        <ele>14.55500032</ele>
        <time>2020-08-02T07:58:42.000Z</time>
      </trkpt>
      <trkpt lat="43.51574" lon="3.85705">
        <ele>14.45500032</ele>
        <time>2020-08-02T07:58:43.000Z</time>
      </trkpt>
      <trkpt lat="43.51579" lon="3.8571">
        <ele>14.35500032</ele>
        <time>2020-08-02T07:58:44.000Z</time>
      </trkpt>
      <trkpt lat="43.51583" lon="3.85714">
        <ele>14.25500032</ele>
        <time>2020-08-02T07:58:45.000Z</time>
      </trkpt>
      <trkpt lat="43.51588" lon="3.85719">
        <ele>14.15500032</ele>
        <time>2020-08-02T07:58:46.000Z</time>
      </trkpt>
      <trkpt lat="43.51592" lon="3.85723">
        <ele>14.05500032</ele>
        <time>2020-08-02T07:58:47.000Z</time>
      </trkpt>
      <trkpt lat="43.51596" lon="3.85728">
        <ele>13.95500032</ele>
        <time>2020-08-02T07:58:48.000Z</time>
      </trkpt>
      <trkpt lat="43.51601" lon="3.85734">
        <ele>13.85500032</ele>
        <time>2020-08-02T07:58:49.000Z</time>
      </trkpt>
      <trkpt lat="43.51605" lon="3.85739">
        <ele>13.75500032</ele>
        <time>2020-08-02T07:58:50.000Z</time>
      </trkpt>
      <trkpt lat="43.51609" lon="3.85745">
        <ele>13.65500032</ele>
        <time>2020-08-02T07:58:51.000Z</time>
      </trkpt>
      <trkpt lat="43.51612" lon="3.85751">
        <ele>13.55500032</ele>
        <time>2020-08-02T07:58:52.000Z</time>
      </trkpt>
      <trkpt lat="43.51616" lon="3.85757">
        <ele>13.45500032</ele>
        <time>2020-08-02T07:58:53.000Z</time>
      </trkpt>
      <trkpt lat="43.5162" lon="3.85763">
        <ele>13.35500032</ele>
        <time>2020-08-02T07:58:54.000Z</time>
      </trkpt>
      <trkpt lat="43.51624" lon="3.85768">
        <ele>13.25500032</ele>
        <time>2020-08-02T07:58:55.000Z</time>
      </trkpt>
      <trkpt lat="43.51627" lon="3.85774">
        <ele>13.15500032</ele>
        <time>2020-08-02T07:58:56.000Z</time>
      </trkpt>
      <trkpt lat="43.51631" lon="3.8578">
        <ele>13.05500032</ele>
        <time>2020-08-02T07:58:57.000Z</time>
      </trkpt>
      <trkpt lat="43.51634" lon="3.85786">
        <ele>12.95500032</ele>
        <time>2020-08-02T07:58:58.000Z</time>
      </trkpt>
      <trkpt lat="43.51638" lon="3.85793">
        <ele>12.85500032</ele>
        <time>2020-08-02T07:58:59.000Z</time>
      </trkpt>
      <trkpt lat="43.51642" lon="3.85799">
        <ele>12.75500032</ele>
        <time>2020-08-02T07:59:00.000Z</time>
      </trkpt>
      <trkpt lat="43.51645" lon="3.85805">
        <ele>12.65500032</ele>
        <time>2020-08-02T07:59:01.000Z</time>
      </trkpt>
      <trkpt lat="43.51649" lon="3.85811">
        <ele>12.55500032</ele>
        <time>2020-08-02T07:59:02.000Z</time>
      </trkpt>
      <trkpt lat="43.51652" lon="3.85818">
        <ele>12.45500032</ele>
        <time>2020-08-02T07:59:03.000Z</time>
      </trkpt>
      <trkpt lat="43.51655" lon="3.85824">
        <ele>12.35500032</ele>
        <time>2020-08-02T07:59:04.000Z</time>
      </trkpt>
      <trkpt lat="43.51659" lon="3.85831">
        <ele>12.25500032</ele>
        <time>2020-08-02T07:59:05.000Z</time>
      </trkpt>
      <trkpt lat="43.51662" lon="3.85838">
        <ele>12.15500032</ele>
        <time>2020-08-02T07:59:06.000Z</time>
      </trkpt>
      <trkpt lat="43.51665" lon="3.85844">
        <ele>12.05500032</ele>
        <time>2020-08-02T07:59:07.000Z</time>
      </trkpt>
      <trkpt lat="43.51669" lon="3.8585">
        <ele>11.955134929568</ele>
        <time>2020-08-02T07:59:08.000Z</time>
      </trkpt>
      <trkpt lat="43.51672" lon="3.85857">
        <ele>11.855434064069</ele>
        <time>2020-08-02T07:59:09.000Z</time>
      </trkpt>
      <trkpt lat="43.51676" lon="3.85863">
        <ele>11.75573319857</ele>
        <time>2020-08-02T07:59:10.000Z</time>
      </trkpt>
      <trkpt lat="43.51679" lon="3.8587">
        <ele>11.65603233307</ele>
        <time>2020-08-02T07:59:11.000Z</time>
      </trkpt>
      <trkpt lat="43.51682" lon="3.85876">
        <ele>11.556331467571</ele>
        <time>2020-08-02T07:59:12.000Z</time>
      </trkpt>
      <trkpt lat="43.51685" lon="3.85883">
        <ele>11.456630602072</ele>
        <time>2020-08-02T07:59:13.000Z</time>
      </trkpt>
      <trkpt lat="43.51688" lon="3.8589">
        <ele>11.356929736573</ele>
        <time>2020-08-02T07:59:14.000Z</time>
      </trkpt>
      <trkpt lat="43.51691" lon="3.85897">
        <ele>11.257228871073</ele>
        <time>2020-08-02T07:59:15.000Z</time>
      </trkpt>
      <trkpt lat="43.51695" lon="3.85903">
        <ele>11.157528005574</ele>
        <time>2020-08-02T07:59:16.000Z</time>
      </trkpt>
      <trkpt lat="43.51698" lon="3.8591">
        <ele>11.057827140075</ele>
        <time>2020-08-02T07:59:17.000Z</time>
      </trkpt>
      <trkpt lat="43.51701" lon="3.85916">
        <ele>11</ele>
        <time>2020-08-02T07:59:18.000Z</time>
      </trkpt>
      <trkpt lat="43.51705" lon="3.85922">
        <ele>11</ele>
        <time>2020-08-02T07:59:19.000Z</time>
      </trkpt>
      <trkpt lat="43.51709" lon="3.85927">
        <ele>11</ele>
        <time>2020-08-02T07:59:20.000Z</time>
      </trkpt>
      <trkpt lat="43.51712" lon="3.8593">
        <ele>11</ele>
        <time>2020-08-02T07:59:21.000Z</time>
      </trkpt>
      <trkpt lat="43.51714" lon="3.85933">
        <ele>11</ele>
        <time>2020-08-02T07:59:22.000Z</time>
      </trkpt>
      <trkpt lat="43.51714" lon="3.85935">
        <ele>11</ele>
        <time>2020-08-02T07:59:23.000Z</time>
      </trkpt>
      <trkpt lat="43.51713" lon="3.85938">
        <ele>11</ele>
        <time>2020-08-02T07:59:24.000Z</time>
      </trkpt>
      <trkpt lat="43.5171" lon="3.85939">
        <ele>11</ele>
        <time>2020-08-02T07:59:25.000Z</time>
      </trkpt>
      <trkpt lat="43.51707" lon="3.85939">
        <ele>11</ele>
        <time>2020-08-02T07:59:26.000Z</time>
      </trkpt>
      <trkpt lat="43.51704" lon="3.8594">
        <ele>11</ele>
        <time>2020-08-02T07:59:27.000Z</time>
      </trkpt>
      <trkpt lat="43.517" lon="3.8594">
        <ele>10.957760026556</ele>
        <time>2020-08-02T07:59:28.000Z</time>
      </trkpt>
      <trkpt lat="43.51696" lon="3.85941">
        <ele>10.8595282612</ele>
        <time>2020-08-02T07:59:29.000Z</time>
      </trkpt>
      <trkpt lat="43.51692" lon="3.85943">
        <ele>10.761296495845</ele>
        <time>2020-08-02T07:59:30.000Z</time>
      </trkpt>
      <trkpt lat="43.51687" lon="3.85944">
        <ele>10.66306473049</ele>
        <time>2020-08-02T07:59:31.000Z</time>
      </trkpt>
      <trkpt lat="43.51683" lon="3.85945">
        <ele>10.564832965134</ele>
        <time>2020-08-02T07:59:32.000Z</time>
      </trkpt>
      <trkpt lat="43.51678" lon="3.85947">
        <ele>10.466601199779</ele>
        <time>2020-08-02T07:59:33.000Z</time>
      </trkpt>
      <trkpt lat="43.51673" lon="3.85948">
        <ele>10.368369434424</ele>
        <time>2020-08-02T07:59:34.000Z</time>
      </trkpt>
      <trkpt lat="43.51669" lon="3.85949">
        <ele>10.270137669069</ele>
        <time>2020-08-02T07:59:35.000Z</time>
      </trkpt>
      <trkpt lat="43.51664" lon="3.85951">
        <ele>10.171905903713</ele>
        <time>2020-08-02T07:59:36.000Z</time>
      </trkpt>
      <trkpt lat="43.51659" lon="3.85952">
        <ele>10.073674138358</ele>
        <time>2020-08-02T07:59:37.000Z</time>
      </trkpt>
      <trkpt lat="43.51655" lon="3.85954">
        <ele>10</ele>
        <time>2020-08-02T07:59:38.000Z</time>
      </trkpt>
      <trkpt lat="43.5165" lon="3.85956">
        <ele>10</ele>
        <time>2020-08-02T07:59:39.000Z</time>
      </trkpt>
      <trkpt lat="43.51645" lon="3.85958">
        <ele>10</ele>
        <time>2020-08-02T07:59:40.000Z</time>
      </trkpt>
      <trkpt lat="43.5164" lon="3.8596">
        <ele>10</ele>
        <time>2020-08-02T07:59:41.000Z</time>
      </trkpt>
      <trkpt lat="43.51635" lon="3.85962">
        <ele>10</ele>
        <time>2020-08-02T07:59:42.000Z</time>
      </trkpt>
      <trkpt lat="43.51631" lon="3.85963">
        <ele>10</ele>
        <time>2020-08-02T07:59:43.000Z</time>
      </trkpt>
      <trkpt lat="43.51626" lon="3.85965">
        <ele>10</ele>
        <time>2020-08-02T07:59:44.000Z</time>
      </trkpt>
      <trkpt lat="43.51621" lon="3.85967">
        <ele>10</ele>
        <time>2020-08-02T07:59:45.000Z</time>
      </trkpt>
      <trkpt lat="43.51616" lon="3.85969">
        <ele>10</ele>
        <time>2020-08-02T07:59:46.000Z</time>
      </trkpt>
      <trkpt lat="43.51611" lon="3.85972">
        <ele>10</ele>
        <time>2020-08-02T07:59:47.000Z</time>
      </trkpt>
      <trkpt lat="43.51606" lon="3.85974">
        <ele>10</ele>
        <time>2020-08-02T07:59:48.000Z</time>
      </trkpt>
      <trkpt lat="43.51601" lon="3.85976">
        <ele>10</ele>
        <time>2020-08-02T07:59:49.000Z</time>
      </trkpt>
      <trkpt lat="43.51596" lon="3.85978">
        <ele>10</ele>
        <time>2020-08-02T07:59:50.000Z</time>
      </trkpt>
      <trkpt lat="43.51591" lon="3.8598">
        <ele>10</ele>
        <time>2020-08-02T07:59:51.000Z</time>
      </trkpt>
      <trkpt lat="43.51586" lon="3.85982">
        <ele>10</ele>
        <time>2020-08-02T07:59:52.000Z</time>
      </trkpt>
      <trkpt lat="43.5158" lon="3.85984">
        <ele>10</ele>
        <time>2020-08-02T07:59:53.000Z</time>
      </trkpt>
      <trkpt lat="43.51575" lon="3.85987">
        <ele>10</ele>
        <time>2020-08-02T07:59:54.000Z</time>
      </trkpt>
      <trkpt lat="43.5157" lon="3.85989">
        <ele>10</ele>
        <time>2020-08-02T07:59:55.000Z</time>
      </trkpt>
      <trkpt lat="43.51565" lon="3.85991">
        <ele>10</ele>
        <time>2020-08-02T07:59:56.000Z</time>
      </trkpt>
      <trkpt lat="43.51559" lon="3.85993">
        <ele>10</ele>
        <time>2020-08-02T07:59:57.000Z</time>
      </trkpt>
      <trkpt lat="43.51554" lon="3.85995">
        <ele>10</ele>
        <time>2020-08-02T07:59:58.000Z</time>
      </trkpt>
      <trkpt lat="43.51549" lon="3.85997">
        <ele>10</ele>
        <time>2020-08-02T07:59:59.000Z</time>
      </trkpt>
      <trkpt lat="43.51544" lon="3.85999">
        <ele>10</ele>
        <time>2020-08-02T08:00:00.000Z</time>
      </trkpt>
      <trkpt lat="43.51539" lon="3.86">
        <ele>10</ele>
        <time>2020-08-02T08:00:01.000Z</time>
      </trkpt>
      <trkpt lat="43.51534" lon="3.86002">
        <ele>10</ele>
        <time>2020-08-02T08:00:02.000Z</time>
      </trkpt>
      <trkpt lat="43.51529" lon="3.86003">
        <ele>10</ele>
        <time>2020-08-02T08:00:03.000Z</time>
      </trkpt>
      <trkpt lat="43.51524" lon="3.86005">
        <ele>10</ele>
        <time>2020-08-02T08:00:04.000Z</time>
      </trkpt>
      <trkpt lat="43.5152" lon="3.86007">
        <ele>10</ele>
        <time>2020-08-02T08:00:05.000Z</time>
      </trkpt>
      <trkpt lat="43.51515" lon="3.86008">
        <ele>10</ele>
        <time>2020-08-02T08:00:06.000Z</time>
      </trkpt>
      <trkpt lat="43.5151" lon="3.8601">
        <ele>10</ele>
        <time>2020-08-02T08:00:07.000Z</time>
      </trkpt>
      <trkpt lat="43.51506" lon="3.86011">
        <ele>10.044044029936</ele>
        <time>2020-08-02T08:00:08.000Z</time>
      </trkpt>
      <trkpt lat="43.51501" lon="3.86013">
        <ele>10.144144097972</ele>
        <time>2020-08-02T08:00:09.000Z</time>
      </trkpt>
      <trkpt lat="43.51497" lon="3.86014">
        <ele>10.244244166008</ele>
        <time>2020-08-02T08:00:10.000Z</time>
      </trkpt>
      <trkpt lat="43.51492" lon="3.86016">
        <ele>10.344344234044</ele>
        <time>2020-08-02T08:00:11.000Z</time>
      </trkpt>
      <trkpt lat="43.51488" lon="3.86017">
        <ele>10.44444430208</ele>
        <time>2020-08-02T08:00:12.000Z</time>
      </trkpt>
      <trkpt lat="43.51483" lon="3.86018">
        <ele>10.544544370116</ele>
        <time>2020-08-02T08:00:13.000Z</time>
      </trkpt>
      <trkpt lat="43.51478" lon="3.86019">
        <ele>10.644644438152</ele>
        <time>2020-08-02T08:00:14.000Z</time>
      </trkpt>
      <trkpt lat="43.51474" lon="3.8602">
        <ele>10.744744506188</ele>
        <time>2020-08-02T08:00:15.000Z</time>
      </trkpt>
      <trkpt lat="43.5147" lon="3.86021">
        <ele>10.844844574224</ele>
        <time>2020-08-02T08:00:16.000Z</time>
      </trkpt>
      <trkpt lat="43.51465" lon="3.86022">
        <ele>10.94494464226</ele>
        <time>2020-08-02T08:00:17.000Z</time>
      </trkpt>
      <trkpt lat="43.51461" lon="3.86023">
        <ele>11.04499968</ele>
        <time>2020-08-02T08:00:18.000Z</time>
      </trkpt>
      <trkpt lat="43.51457" lon="3.86024">
        <ele>11.14499968</ele>
        <time>2020-08-02T08:00:19.000Z</time>
      </trkpt>
      <trkpt lat="43.51453" lon="3.86025">
        <ele>11.24499968</ele>
        <time>2020-08-02T08:00:20.000Z</time>
      </trkpt>
      <trkpt lat="43.51449" lon="3.86026">
        <ele>11.34499968</ele>
        <time>2020-08-02T08:00:21.000Z</time>
      </trkpt>
      <trkpt lat="43.51445" lon="3.86027">
        <ele>11.44499968</ele>
        <time>2020-08-02T08:00:22.000Z</time>
      </trkpt>
      <trkpt lat="43.51441" lon="3.86027">
        <ele>11.54499968</ele>
        <time>2020-08-02T08:00:23.000Z</time>
      </trkpt>
      <trkpt lat="43.51437" lon="3.86028">
        <ele>11.64499968</ele>
        <time>2020-08-02T08:00:24.000Z</time>
      </trkpt>
      <trkpt lat="43.51432" lon="3.86029">
        <ele>11.74499968</ele>
        <time>2020-08-02T08:00:25.000Z</time>
      </trkpt>
      <trkpt lat="43.51428" lon="3.86029">
        <ele>11.84499968</ele>
        <time>2020-08-02T08:00:26.000Z</time>
      </trkpt>
      <trkpt lat="43.51424" lon="3.8603">
        <ele>11.94499968</ele>
        <time>2020-08-02T08:00:27.000Z</time>
      </trkpt>
      <trkpt lat="43.51419" lon="3.86031">
        <ele>12</ele>
        <time>2020-08-02T08:00:28.000Z</time>
      </trkpt>
      <trkpt lat="43.51414" lon="3.86032">
        <ele>12</ele>
        <time>2020-08-02T08:00:29.000Z</time>
      </trkpt>
      <trkpt lat="43.5141" lon="3.86032">
        <ele>12</ele>
        <time>2020-08-02T08:00:30.000Z</time>
      </trkpt>
      <trkpt lat="43.51405" lon="3.86033">
        <ele>12</ele>
        <time>2020-08-02T08:00:31.000Z</time>
      </trkpt>
      <trkpt lat="43.514" lon="3.86033">
        <ele>12</ele>
        <time>2020-08-02T08:00:32.000Z</time>
      </trkpt>
      <trkpt lat="43.51395" lon="3.86034">
        <ele>12</ele>
        <time>2020-08-02T08:00:33.000Z</time>
      </trkpt>
      <trkpt lat="43.51389" lon="3.86034">
        <ele>12</ele>
        <time>2020-08-02T08:00:34.000Z</time>
      </trkpt>
      <trkpt lat="43.51384" lon="3.86034">
        <ele>12</ele>
        <time>2020-08-02T08:00:35.000Z</time>
      </trkpt>
      <trkpt lat="43.51379" lon="3.86033">
        <ele>12</ele>
        <time>2020-08-02T08:00:36.000Z</time>
      </trkpt>
      <trkpt lat="43.51373" lon="3.86033">
        <ele>12</ele>
        <time>2020-08-02T08:00:37.000Z</time>
      </trkpt>
      <trkpt lat="43.51368" lon="3.86033">
        <ele>11.956268518956</ele>
        <time>2020-08-02T08:00:38.000Z</time>
      </trkpt>
      <trkpt lat="43.51362" lon="3.86032">
        <ele>11.8590867589</ele>
        <time>2020-08-02T08:00:39.000Z</time>
      </trkpt>
      <trkpt lat="43.51357" lon="3.86032">
        <ele>11.761904998843</ele>
        <time>2020-08-02T08:00:40.000Z</time>
      </trkpt>
      <trkpt lat="43.51352" lon="3.86032">
        <ele>11.664723238787</ele>
        <time>2020-08-02T08:00:41.000Z</time>
      </trkpt>
      <trkpt lat="43.51347" lon="3.86032">
        <ele>11.56754147873</ele>
        <time>2020-08-02T08:00:42.000Z</time>
      </trkpt>
      <trkpt lat="43.51343" lon="3.86034">
        <ele>11.470359718674</ele>
        <time>2020-08-02T08:00:43.000Z</time>
      </trkpt>
      <trkpt lat="43.51338" lon="3.86037">
        <ele>11.373177958617</ele>
        <time>2020-08-02T08:00:44.000Z</time>
      </trkpt>
      <trkpt lat="43.51334" lon="3.86041">
        <ele>11.275996198561</ele>
        <time>2020-08-02T08:00:45.000Z</time>
      </trkpt>
      <trkpt lat="43.5133" lon="3.86045">
        <ele>11.178814438504</ele>
        <time>2020-08-02T08:00:46.000Z</time>
      </trkpt>
      <trkpt lat="43.51326" lon="3.8605">
        <ele>11.081632678447</ele>
        <time>2020-08-02T08:00:47.000Z</time>
      </trkpt>
      <trkpt lat="43.51323" lon="3.86056">
        <ele>11</ele>
        <time>2020-08-02T08:00:48.000Z</time>
      </trkpt>
      <trkpt lat="43.51319" lon="3.86061">
        <ele>11</ele>
        <time>2020-08-02T08:00:49.000Z</time>
      </trkpt>
      <trkpt lat="43.51316" lon="3.86067">
        <ele>11</ele>
        <time>2020-08-02T08:00:50.000Z</time>
      </trkpt>
      <trkpt lat="43.51312" lon="3.86072">
        <ele>11</ele>
        <time>2020-08-02T08:00:51.000Z</time>
      </trkpt>
      <trkpt lat="43.51309" lon="3.86078">
        <ele>11</ele>
        <time>2020-08-02T08:00:52.000Z</time>
      </trkpt>
      <trkpt lat="43.51306" lon="3.86083">
        <ele>11</ele>
        <time>2020-08-02T08:00:53.000Z</time>
      </trkpt>
      <trkpt lat="43.51302" lon="3.86089">
        <ele>11</ele>
        <time>2020-08-02T08:00:54.000Z</time>
      </trkpt>
      <trkpt lat="43.51299" lon="3.86094">
        <ele>11</ele>
        <time>2020-08-02T08:00:55.000Z</time>
      </trkpt>
      <trkpt lat="43.51296" lon="3.86099">
        <ele>11</ele>
        <time>2020-08-02T08:00:56.000Z</time>
      </trkpt>
      <trkpt lat="43.51292" lon="3.86105">
        <ele>11</ele>
        <time>2020-08-02T08:00:57.000Z</time>
      </trkpt>
      <trkpt lat="43.51289" lon="3.86111">
        <ele>10.955752513118</ele>
        <time>2020-08-02T08:00:58.000Z</time>
      </trkpt>
      <trkpt lat="43.51285" lon="3.86116">
        <ele>10.857424065266</ele>
        <time>2020-08-02T08:00:59.000Z</time>
      </trkpt>
      <trkpt lat="43.51282" lon="3.86122">
        <ele>10.759095617415</ele>
        <time>2020-08-02T08:01:00.000Z</time>
      </trkpt>
      <trkpt lat="43.51278" lon="3.86128">
        <ele>10.660767169563</ele>
        <time>2020-08-02T08:01:01.000Z</time>
      </trkpt>
      <trkpt lat="43.51275" lon="3.86134">
        <ele>10.562438721711</ele>
        <time>2020-08-02T08:01:02.000Z</time>
      </trkpt>
      <trkpt lat="43.51271" lon="3.8614">
        <ele>10.46411027386</ele>
        <time>2020-08-02T08:01:03.000Z</time>
      </trkpt>
      <trkpt lat="43.51267" lon="3.86146">
        <ele>10.365781826008</ele>
        <time>2020-08-02T08:01:04.000Z</time>
      </trkpt>
      <trkpt lat="43.51264" lon="3.86152">
        <ele>10.267453378156</ele>
        <time>2020-08-02T08:01:05.000Z</time>
      </trkpt>
      <trkpt lat="43.5126" lon="3.86158">
        <ele>10.169124930305</ele>
        <time>2020-08-02T08:01:06.000Z</time>
      </trkpt>
      <trkpt lat="43.51257" lon="3.86164">
        <ele>10.070796482453</ele>
        <time>2020-08-02T08:01:07.000Z</time>
      </trkpt>
      <trkpt lat="43.51253" lon="3.86171">
        <ele>9.9719719809499</ele>
        <time>2020-08-02T08:01:08.000Z</time>
      </trkpt>
      <trkpt lat="43.51249" lon="3.86177">
        <ele>9.8718719129139</ele>
        <time>2020-08-02T08:01:09.000Z</time>
      </trkpt>
      <trkpt lat="43.51245" lon="3.86184">
        <ele>9.7717718448779</ele>
        <time>2020-08-02T08:01:10.000Z</time>
      </trkpt>
      <trkpt lat="43.51241" lon="3.8619">
        <ele>9.6716717768419</ele>
        <time>2020-08-02T08:01:11.000Z</time>
      </trkpt>
      <trkpt lat="43.51237" lon="3.86197">
        <ele>9.5715717088059</ele>
        <time>2020-08-02T08:01:12.000Z</time>
      </trkpt>
      <trkpt lat="43.51233" lon="3.86204">
        <ele>9.4714716407699</ele>
        <time>2020-08-02T08:01:13.000Z</time>
      </trkpt>
      <trkpt lat="43.51229" lon="3.86211">
        <ele>9.3713715727338</ele>
        <time>2020-08-02T08:01:14.000Z</time>
      </trkpt>
      <trkpt lat="43.51225" lon="3.86219">
        <ele>9.2712715046978</ele>
        <time>2020-08-02T08:01:15.000Z</time>
      </trkpt>
      <trkpt lat="43.5122" lon="3.86226">
        <ele>9.1711714366618</ele>
        <time>2020-08-02T08:01:16.000Z</time>
      </trkpt>
      <trkpt lat="43.51216" lon="3.86233">
        <ele>9.0710713686258</ele>
        <time>2020-08-02T08:01:17.000Z</time>
      </trkpt>
      <trkpt lat="43.51212" lon="3.86241">
        <ele>9</ele>
        <time>2020-08-02T08:01:18.000Z</time>
      </trkpt>
      <trkpt lat="43.51207" lon="3.86248">
        <ele>9</ele>
        <time>2020-08-02T08:01:19.000Z</time>
      </trkpt>
      <trkpt lat="43.51203" lon="3.86255">
        <ele>9</ele>
        <time>2020-08-02T08:01:20.000Z</time>
      </trkpt>
      <trkpt lat="43.51198" lon="3.86263">
        <ele>9</ele>
        <time>2020-08-02T08:01:21.000Z</time>
      </trkpt>
      <trkpt lat="43.51194" lon="3.86271">
        <ele>9</ele>
        <time>2020-08-02T08:01:22.000Z</time>
      </trkpt>
      <trkpt lat="43.5119" lon="3.86279">
        <ele>9</ele>
        <time>2020-08-02T08:01:23.000Z</time>
      </trkpt>
      <trkpt lat="43.51187" lon="3.86288">
        <ele>9</ele>
        <time>2020-08-02T08:01:24.000Z</time>
      </trkpt>
      <trkpt lat="43.51184" lon="3.86297">
        <ele>9</ele>
        <time>2020-08-02T08:01:25.000Z</time>
      </trkpt>
      <trkpt lat="43.51181" lon="3.86306">
        <ele>9</ele>
        <time>2020-08-02T08:01:26.000Z</time>
      </trkpt>
      <trkpt lat="43.51179" lon="3.86315">
        <ele>9</ele>
        <time>2020-08-02T08:01:27.000Z</time>
      </trkpt>
      <trkpt lat="43.51177" lon="3.86324">
        <ele>8.95500032</ele>
        <time>2020-08-02T08:01:28.000Z</time>
      </trkpt>
      <trkpt lat="43.51175" lon="3.86333">
        <ele>8.85500032</ele>
        <time>2020-08-02T08:01:29.000Z</time>
      </trkpt>
      <trkpt lat="43.51174" lon="3.86341">
        <ele>8.75500032</ele>
        <time>2020-08-02T08:01:30.000Z</time>
      </trkpt>
      <trkpt lat="43.51173" lon="3.86348">
        <ele>8.65500032</ele>
        <time>2020-08-02T08:01:31.000Z</time>
      </trkpt>
      <trkpt lat="43.51173" lon="3.86353">
        <ele>8.55500032</ele>
        <time>2020-08-02T08:01:32.000Z</time>
      </trkpt>
      <trkpt lat="43.51175" lon="3.86358">
        <ele>8.45500032</ele>
        <time>2020-08-02T08:01:33.000Z</time>
      </trkpt>
      <trkpt lat="43.51178" lon="3.86361">
        <ele>8.35500032</ele>
        <time>2020-08-02T08:01:34.000Z</time>
      </trkpt>
      <trkpt lat="43.51181" lon="3.86362">
        <ele>8.25500032</ele>
        <time>2020-08-02T08:01:35.000Z</time>
      </trkpt>
      <trkpt lat="43.51186" lon="3.86363">
        <ele>8.15500032</ele>
        <time>2020-08-02T08:01:36.000Z</time>
      </trkpt>
      <trkpt lat="43.5119" lon="3.86363">
        <ele>8.05500032</ele>
        <time>2020-08-02T08:01:37.000Z</time>
      </trkpt>
      <trkpt lat="43.51195" lon="3.86365">
        <ele>8</ele>
        <time>2020-08-02T08:01:38.000Z</time>
      </trkpt>
      <trkpt lat="43.512" lon="3.86367">
        <ele>8</ele>
        <time>2020-08-02T08:01:39.000Z</time>
      </trkpt>
      <trkpt lat="43.51204" lon="3.86369">
        <ele>8</ele>
        <time>2020-08-02T08:01:40.000Z</time>
      </trkpt>
      <trkpt lat="43.51208" lon="3.86373">
        <ele>8</ele>
        <time>2020-08-02T08:01:41.000Z</time>
      </trkpt>
      <trkpt lat="43.51212" lon="3.86377">
        <ele>8</ele>
        <time>2020-08-02T08:01:42.000Z</time>
      </trkpt>
      <trkpt lat="43.51216" lon="3.86381">
        <ele>8</ele>
        <time>2020-08-02T08:01:43.000Z</time>
      </trkpt>
      <trkpt lat="43.51219" lon="3.86384">
        <ele>8</ele>
        <time>2020-08-02T08:01:44.000Z</time>
      </trkpt>
      <trkpt lat="43.51222" lon="3.86388">
        <ele>8</ele>
        <time>2020-08-02T08:01:45.000Z</time>
      </trkpt>
      <trkpt lat="43.51226" lon="3.86391">
        <ele>8</ele>
        <time>2020-08-02T08:01:46.000Z</time>
      </trkpt>
      <trkpt lat="43.5123" lon="3.86394">
        <ele>8</ele>
        <time>2020-08-02T08:01:47.000Z</time>
      </trkpt>
      <trkpt lat="43.51233" lon="3.86397">
        <ele>7.95500032</ele>
        <time>2020-08-02T08:01:48.000Z</time>
      </trkpt>
      <trkpt lat="43.51237" lon="3.864">
        <ele>7.85500032</ele>
        <time>2020-08-02T08:01:49.000Z</time>
      </trkpt>
      <trkpt lat="43.51241" lon="3.86403">
        <ele>7.75500032</ele>
        <time>2020-08-02T08:01:50.000Z</time>
      </trkpt>
      <trkpt lat="43.51245" lon="3.86406">
        <ele>7.65500032</ele>
        <time>2020-08-02T08:01:51.000Z</time>
      </trkpt>
      <trkpt lat="43.51249" lon="3.86408">
        <ele>7.55500032</ele>
        <time>2020-08-02T08:01:52.000Z</time>
      </trkpt>
      <trkpt lat="43.51254" lon="3.86411">
        <ele>7.45500032</ele>
        <time>2020-08-02T08:01:53.000Z</time>
      </trkpt>
      <trkpt lat="43.51259" lon="3.86414">
        <ele>7.35500032</ele>
        <time>2020-08-02T08:01:54.000Z</time>
      </trkpt>
      <trkpt lat="43.51264" lon="3.86416">
        <ele>7.25500032</ele>
        <time>2020-08-02T08:01:55.000Z</time>
      </trkpt>
      <trkpt lat="43.51269" lon="3.86418">
        <ele>7.15500032</ele>
        <time>2020-08-02T08:01:56.000Z</time>
      </trkpt>
      <trkpt lat="43.51274" lon="3.86421">
        <ele>7.05500032</ele>
        <time>2020-08-02T08:01:57.000Z</time>
      </trkpt>
      <trkpt lat="43.51281" lon="3.86423">
        <ele>6.95500032</ele>
        <time>2020-08-02T08:01:58.000Z</time>
      </trkpt>
      <trkpt lat="43.51287" lon="3.86426">
        <ele>6.85500032</ele>
        <time>2020-08-02T08:01:59.000Z</time>
      </trkpt>
      <trkpt lat="43.51294" lon="3.86428">
        <ele>6.75500032</ele>
        <time>2020-08-02T08:02:00.000Z</time>
      </trkpt>
      <trkpt lat="43.513" lon="3.8643">
        <ele>6.65500032</ele>
        <time>2020-08-02T08:02:01.000Z</time>
      </trkpt>
      <trkpt lat="43.51307" lon="3.8643">
        <ele>6.55500032</ele>
        <time>2020-08-02T08:02:02.000Z</time>
      </trkpt>
      <trkpt lat="43.51313" lon="3.8643">
        <ele>6.45500032</ele>
        <time>2020-08-02T08:02:03.000Z</time>
      </trkpt>
      <trkpt lat="43.51319" lon="3.86428">
        <ele>6.35500032</ele>
        <time>2020-08-02T08:02:04.000Z</time>
      </trkpt>
      <trkpt lat="43.51325" lon="3.86427">
        <ele>6.25500032</ele>
        <time>2020-08-02T08:02:05.000Z</time>
      </trkpt>
      <trkpt lat="43.51331" lon="3.86425">
        <ele>6.15500032</ele>
        <time>2020-08-02T08:02:06.000Z</time>
      </trkpt>
      <trkpt lat="43.51337" lon="3.86424">
        <ele>6.05500032</ele>
        <time>2020-08-02T08:02:07.000Z</time>
      </trkpt>
      <trkpt lat="43.51343" lon="3.86422">
        <ele>6</ele>
        <time>2020-08-02T08:02:08.000Z</time>
      </trkpt>
      <trkpt lat="43.51349" lon="3.86421">
        <ele>6</ele>
        <time>2020-08-02T08:02:09.000Z</time>
      </trkpt>
      <trkpt lat="43.51355" lon="3.86421">
        <ele>6</ele>
        <time>2020-08-02T08:02:10.000Z</time>
      </trkpt>
      <trkpt lat="43.5136" lon="3.8642">
        <ele>6</ele>
        <time>2020-08-02T08:02:11.000Z</time>
      </trkpt>
      <trkpt lat="43.51366" lon="3.8642">
        <ele>6</ele>
        <time>2020-08-02T08:02:12.000Z</time>
      </trkpt>
      <trkpt lat="43.51371" lon="3.86421">
        <ele>6</ele>
        <time>2020-08-02T08:02:13.000Z</time>
      </trkpt>
      <trkpt lat="43.51377" lon="3.86421">
        <ele>6</ele>
        <time>2020-08-02T08:02:14.000Z</time>
      </trkpt>
      <trkpt lat="43.51382" lon="3.86422">
        <ele>6</ele>
        <time>2020-08-02T08:02:15.000Z</time>
      </trkpt>
      <trkpt lat="43.51387" lon="3.86423">
        <ele>6</ele>
        <time>2020-08-02T08:02:16.000Z</time>
      </trkpt>
      <trkpt lat="43.51393" lon="3.86423">
        <ele>6</ele>
        <time>2020-08-02T08:02:17.000Z</time>
      </trkpt>
      <trkpt lat="43.51398" lon="3.86424">
        <ele>6.0448203984064</ele>
        <time>2020-08-02T08:02:18.000Z</time>
      </trkpt>
      <trkpt lat="43.51404" lon="3.86424">
        <ele>6.1444219920319</ele>
        <time>2020-08-02T08:02:19.000Z</time>
      </trkpt>
      <trkpt lat="43.51409" lon="3.86425">
        <ele>6.2440235856574</ele>
        <time>2020-08-02T08:02:20.000Z</time>
      </trkpt>
      <trkpt lat="43.51414" lon="3.86426">
        <ele>6.3436251792829</ele>
        <time>2020-08-02T08:02:21.000Z</time>
      </trkpt>
      <trkpt lat="43.51419" lon="3.86426">
        <ele>6.4432267729084</ele>
        <time>2020-08-02T08:02:22.000Z</time>
      </trkpt>
      <trkpt lat="43.51425" lon="3.86427">
        <ele>6.5428283665339</ele>
        <time>2020-08-02T08:02:23.000Z</time>
      </trkpt>
      <trkpt lat="43.5143" lon="3.86428">
        <ele>6.6424299601594</ele>
        <time>2020-08-02T08:02:24.000Z</time>
      </trkpt>
      <trkpt lat="43.51435" lon="3.86428">
        <ele>6.7420315537849</ele>
        <time>2020-08-02T08:02:25.000Z</time>
      </trkpt>
      <trkpt lat="43.51441" lon="3.86429">
        <ele>6.8416331474104</ele>
        <time>2020-08-02T08:02:26.000Z</time>
      </trkpt>
      <trkpt lat="43.51446" lon="3.8643">
        <ele>6.9412347410359</ele>
        <time>2020-08-02T08:02:27.000Z</time>
      </trkpt>
      <trkpt lat="43.51451" lon="3.86431">
        <ele>7</ele>
        <time>2020-08-02T08:02:28.000Z</time>
      </trkpt>
      <trkpt lat="43.51456" lon="3.86432">
        <ele>7</ele>
        <time>2020-08-02T08:02:29.000Z</time>
      </trkpt>
      <trkpt lat="43.51462" lon="3.86433">
        <ele>7</ele>
        <time>2020-08-02T08:02:30.000Z</time>
      </trkpt>
      <trkpt lat="43.51467" lon="3.86434">
        <ele>7</ele>
        <time>2020-08-02T08:02:31.000Z</time>
      </trkpt>
      <trkpt lat="43.51472" lon="3.86435">
        <ele>7</ele>
        <time>2020-08-02T08:02:32.000Z</time>
      </trkpt>
      <trkpt lat="43.51477" lon="3.86436">
        <ele>7</ele>
        <time>2020-08-02T08:02:33.000Z</time>
      </trkpt>
      <trkpt lat="43.51483" lon="3.86437">
        <ele>7</ele>
        <time>2020-08-02T08:02:34.000Z</time>
      </trkpt>
      <trkpt lat="43.51488" lon="3.86437">
        <ele>7</ele>
        <time>2020-08-02T08:02:35.000Z</time>
      </trkpt>
      <trkpt lat="43.51493" lon="3.86438">
        <ele>7</ele>
        <time>2020-08-02T08:02:36.000Z</time>
      </trkpt>
      <trkpt lat="43.51498" lon="3.86439">
        <ele>7</ele>
        <time>2020-08-02T08:02:37.000Z</time>
      </trkpt>
      <trkpt lat="43.51503" lon="3.86439">
        <ele>6.95500032</ele>
        <time>2020-08-02T08:02:38.000Z</time>
      </trkpt>
      <trkpt lat="43.51508" lon="3.86441">
        <ele>6.85500032</ele>
        <time>2020-08-02T08:02:39.000Z</time>
      </trkpt>
      <trkpt lat="43.51513" lon="3.86442">
        <ele>6.75500032</ele>
        <time>2020-08-02T08:02:40.000Z</time>
      </trkpt>
      <trkpt lat="43.51518" lon="3.86443">
        <ele>6.65500032</ele>
        <time>2020-08-02T08:02:41.000Z</time>
      </trkpt>
      <trkpt lat="43.51523" lon="3.86445">
        <ele>6.55500032</ele>
        <time>2020-08-02T08:02:42.000Z</time>
      </trkpt>
      <trkpt lat="43.51528" lon="3.86447">
        <ele>6.45500032</ele>
        <time>2020-08-02T08:02:43.000Z</time>
      </trkpt>
      <trkpt lat="43.51533" lon="3.86449">
        <ele>6.35500032</ele>
        <time>2020-08-02T08:02:44.000Z</time>
      </trkpt>
      <trkpt lat="43.51538" lon="3.86451">
        <ele>6.25500032</ele>
        <time>2020-08-02T08:02:45.000Z</time>
      </trkpt>
      <trkpt lat="43.51543" lon="3.86452">
        <ele>6.15500032</ele>
        <time>2020-08-02T08:02:46.000Z</time>
      </trkpt>
      <trkpt lat="43.51548" lon="3.86454">
        <ele>6.05500032</ele>
        <time>2020-08-02T08:02:47.000Z</time>
      </trkpt>
      <trkpt lat="43.51553" lon="3.86455">
        <ele>6</ele>
        <time>2020-08-02T08:02:48.000Z</time>
      </trkpt>
      <trkpt lat="43.51559" lon="3.86455">
        <ele>6</ele>
        <time>2020-08-02T08:02:49.000Z</time>
      </trkpt>
      <trkpt lat="43.51564" lon="3.86456">
        <ele>6</ele>
        <time>2020-08-02T08:02:50.000Z</time>
      </trkpt>
      <trkpt lat="43.51569" lon="3.86456">
        <ele>6</ele>
        <time>2020-08-02T08:02:51.000Z</time>
      </trkpt>
      <trkpt lat="43.51574" lon="3.86455">
        <ele>6</ele>
        <time>2020-08-02T08:02:52.000Z</time>
      </trkpt>
      <trkpt lat="43.5158" lon="3.86455">
        <ele>6</ele>
        <time>2020-08-02T08:02:53.000Z</time>
      </trkpt>
      <trkpt lat="43.51585" lon="3.86455">
        <ele>6</ele>
        <time>2020-08-02T08:02:54.000Z</time>
      </trkpt>
      <trkpt lat="43.5159" lon="3.86456">
        <ele>6</ele>
        <time>2020-08-02T08:02:55.000Z</time>
      </trkpt>
      <trkpt lat="43.51596" lon="3.86456">
        <ele>6</ele>
        <time>2020-08-02T08:02:56.000Z</time>
      </trkpt>
      <trkpt lat="43.51601" lon="3.86458">
        <ele>6</ele>
        <time>2020-08-02T08:02:57.000Z</time>
      </trkpt>
      <trkpt lat="43.51606" lon="3.86459">
        <ele>5.95500032</ele>
        <time>2020-08-02T08:02:58.000Z</time>
      </trkpt>
      <trkpt lat="43.51611" lon="3.86461">
        <ele>5.85500032</ele>
        <time>2020-08-02T08:02:59.000Z</time>
      </trkpt>
      <trkpt lat="43.51616" lon="3.86462">
        <ele>5.75500032</ele>
        <time>2020-08-02T08:03:00.000Z</time>
      </trkpt>
      <trkpt lat="43.51621" lon="3.86464">
        <ele>5.65500032</ele>
        <time>2020-08-02T08:03:01.000Z</time>
      </trkpt>
      <trkpt lat="43.51626" lon="3.86466">
        <ele>5.55500032</ele>
        <time>2020-08-02T08:03:02.000Z</time>
      </trkpt>
      <trkpt lat="43.51631" lon="3.86469">
        <ele>5.45500032</ele>
        <time>2020-08-02T08:03:03.000Z</time>
      </trkpt>
      <trkpt lat="43.51636" lon="3.86471">
        <ele>5.35500032</ele>
        <time>2020-08-02T08:03:04.000Z</time>
      </trkpt>
      <trkpt lat="43.51641" lon="3.86474">
        <ele>5.25500032</ele>
        <time>2020-08-02T08:03:05.000Z</time>
      </trkpt>
      <trkpt lat="43.51646" lon="3.86477">
        <ele>5.15500032</ele>
        <time>2020-08-02T08:03:06.000Z</time>
      </trkpt>
      <trkpt lat="43.51651" lon="3.86479">
        <ele>5.05500032</ele>
        <time>2020-08-02T08:03:07.000Z</time>
      </trkpt>
      <trkpt lat="43.51655" lon="3.86482">
        <ele>4.95500032</ele>
        <time>2020-08-02T08:03:08.000Z</time>
      </trkpt>
      <trkpt lat="43.5166" lon="3.86484">
        <ele>4.85500032</ele>
        <time>2020-08-02T08:03:09.000Z</time>
      </trkpt>
      <trkpt lat="43.51665" lon="3.86487">
        <ele>4.75500032</ele>
        <time>2020-08-02T08:03:10.000Z</time>
      </trkpt>
      <trkpt lat="43.5167" lon="3.86489">
        <ele>4.65500032</ele>
        <time>2020-08-02T08:03:11.000Z</time>
      </trkpt>
      <trkpt lat="43.51675" lon="3.86492">
        <ele>4.55500032</ele>
        <time>2020-08-02T08:03:12.000Z</time>
      </trkpt>
      <trkpt lat="43.51679" lon="3.86494">
        <ele>4.45500032</ele>
        <time>2020-08-02T08:03:13.000Z</time>
      </trkpt>
      <trkpt lat="43.51684" lon="3.86496">
        <ele>4.35500032</ele>
        <time>2020-08-02T08:03:14.000Z</time>
      </trkpt>
      <trkpt lat="43.51689" lon="3.86499">
        <ele>4.25500032</ele>
        <time>2020-08-02T08:03:15.000Z</time>
      </trkpt>
      <trkpt lat="43.51694" lon="3.86501">
        <ele>4.15500032</ele>
        <time>2020-08-02T08:03:16.000Z</time>
      </trkpt>
      <trkpt lat="43.51698" lon="3.86503">
        <ele>4.05500032</ele>
        <time>2020-08-02T08:03:17.000Z</time>
      </trkpt>
      <trkpt lat="43.51703" lon="3.86505">
        <ele>4</ele>
        <time>2020-08-02T08:03:18.000Z</time>
      </trkpt>
      <trkpt lat="43.51708" lon="3.86507">
        <ele>4</ele>
        <time>2020-08-02T08:03:19.000Z</time>
      </trkpt>
      <trkpt lat="43.51713" lon="3.86508">
        <ele>4</ele>
        <time>2020-08-02T08:03:20.000Z</time>
      </trkpt>
      <trkpt lat="43.51717" lon="3.8651">
        <ele>4</ele>
        <time>2020-08-02T08:03:21.000Z</time>
      </trkpt>
      <trkpt lat="43.51722" lon="3.86511">
        <ele>4</ele>
        <time>2020-08-02T08:03:22.000Z</time>
      </trkpt>
      <trkpt lat="43.51727" lon="3.86512">
        <ele>4</ele>
        <time>2020-08-02T08:03:23.000Z</time>
      </trkpt>
      <trkpt lat="43.51732" lon="3.86513">
        <ele>4</ele>
        <time>2020-08-02T08:03:24.000Z</time>
      </trkpt>
      <trkpt lat="43.51737" lon="3.86514">
        <ele>4</ele>
        <time>2020-08-02T08:03:25.000Z</time>
      </trkpt>
      <trkpt lat="43.51741" lon="3.86515">
        <ele>4</ele>
        <time>2020-08-02T08:03:26.000Z</time>
      </trkpt>
      <trkpt lat="43.51746" lon="3.86517">
        <ele>4</ele>
        <time>2020-08-02T08:03:27.000Z</time>
      </trkpt>
      <trkpt lat="43.5175" lon="3.86519">
        <ele>4</ele>
        <time>2020-08-02T08:03:28.000Z</time>
      </trkpt>
      <trkpt lat="43.51754" lon="3.86521">
        <ele>4</ele>
        <time>2020-08-02T08:03:29.000Z</time>
      </trkpt>
      <trkpt lat="43.51759" lon="3.86523">
        <ele>4</ele>
        <time>2020-08-02T08:03:30.000Z</time>
      </trkpt>
      <trkpt lat="43.51763" lon="3.86525">
        <ele>4</ele>
        <time>2020-08-02T08:03:31.000Z</time>
      </trkpt>
      <trkpt lat="43.51767" lon="3.86528">
        <ele>4</ele>
        <time>2020-08-02T08:03:32.000Z</time>
      </trkpt>
      <trkpt lat="43.51771" lon="3.8653">
        <ele>4</ele>
        <time>2020-08-02T08:03:33.000Z</time>
      </trkpt>
      <trkpt lat="43.51775" lon="3.86532">
        <ele>4</ele>
        <time>2020-08-02T08:03:34.000Z</time>
      </trkpt>
      <trkpt lat="43.51779" lon="3.86535">
        <ele>4</ele>
        <time>2020-08-02T08:03:35.000Z</time>
      </trkpt>
      <trkpt lat="43.51783" lon="3.86537">
        <ele>4</ele>
        <time>2020-08-02T08:03:36.000Z</time>
      </trkpt>
      <trkpt lat="43.51787" lon="3.86539">
        <ele>4</ele>
        <time>2020-08-02T08:03:37.000Z</time>
      </trkpt>
      <trkpt lat="43.51792" lon="3.86542">
        <ele>4</ele>
        <time>2020-08-02T08:03:38.000Z</time>
      </trkpt>
      <trkpt lat="43.51796" lon="3.86544">
        <ele>4</ele>
        <time>2020-08-02T08:03:39.000Z</time>
      </trkpt>
      <trkpt lat="43.518" lon="3.86547">
        <ele>4</ele>
        <time>2020-08-02T08:03:40.000Z</time>
      </trkpt>
      <trkpt lat="43.51804" lon="3.86549">
        <ele>4</ele>
        <time>2020-08-02T08:03:41.000Z</time>
      </trkpt>
      <trkpt lat="43.51808" lon="3.86552">
        <ele>4</ele>
        <time>2020-08-02T08:03:42.000Z</time>
      </trkpt>
      <trkpt lat="43.51812" lon="3.86554">
        <ele>4</ele>
        <time>2020-08-02T08:03:43.000Z</time>
      </trkpt>
      <trkpt lat="43.51816" lon="3.86557">
        <ele>4</ele>
        <time>2020-08-02T08:03:44.000Z</time>
      </trkpt>
      <trkpt lat="43.5182" lon="3.86559">
        <ele>4</ele>
        <time>2020-08-02T08:03:45.000Z</time>
      </trkpt>
      <trkpt lat="43.51824" lon="3.86562">
        <ele>4</ele>
        <time>2020-08-02T08:03:46.000Z</time>
      </trkpt>
      <trkpt lat="43.51828" lon="3.86564">
        <ele>4</ele>
        <time>2020-08-02T08:03:47.000Z</time>
      </trkpt>
      <trkpt lat="43.51832" lon="3.86567">
        <ele>4</ele>
        <time>2020-08-02T08:03:48.000Z</time>
      </trkpt>
      <trkpt lat="43.51836" lon="3.86569">
        <ele>4</ele>
        <time>2020-08-02T08:03:49.000Z</time>
      </trkpt>
      <trkpt lat="43.5184" lon="3.86571">
        <ele>4</ele>
        <time>2020-08-02T08:03:50.000Z</time>
      </trkpt>
      <trkpt lat="43.51844" lon="3.86574">
        <ele>4</ele>
        <time>2020-08-02T08:03:51.000Z</time>
      </trkpt>
      <trkpt lat="43.51848" lon="3.86576">
        <ele>4</ele>
        <time>2020-08-02T08:03:52.000Z</time>
      </trkpt>
      <trkpt lat="43.51852" lon="3.86578">
        <ele>4</ele>
        <time>2020-08-02T08:03:53.000Z</time>
      </trkpt>
      <trkpt lat="43.51856" lon="3.86579">
        <ele>4</ele>
        <time>2020-08-02T08:03:54.000Z</time>
      </trkpt>
      <trkpt lat="43.5186" lon="3.86581">
        <ele>4</ele>
        <time>2020-08-02T08:03:55.000Z</time>
      </trkpt>
      <trkpt lat="43.51864" lon="3.86582">
        <ele>4</ele>
        <time>2020-08-02T08:03:56.000Z</time>
      </trkpt>
      <trkpt lat="43.51868" lon="3.86584">
        <ele>4</ele>
        <time>2020-08-02T08:03:57.000Z</time>
      </trkpt>
      <trkpt lat="43.51872" lon="3.86585">
        <ele>4.0174893827161</ele>
        <time>2020-08-02T08:03:58.000Z</time>
      </trkpt>
      <trkpt lat="43.51876" lon="3.86585">
        <ele>4.1203700411523</ele>
        <time>2020-08-02T08:03:59.000Z</time>
      </trkpt>
      <trkpt lat="43.5188" lon="3.86585">
        <ele>4.2232506995885</ele>
        <time>2020-08-02T08:04:00.000Z</time>
      </trkpt>
      <trkpt lat="43.51884" lon="3.86585">
        <ele>4.3261313580247</ele>
        <time>2020-08-02T08:04:01.000Z</time>
      </trkpt>
      <trkpt lat="43.51889" lon="3.86585">
        <ele>4.4290120164609</ele>
        <time>2020-08-02T08:04:02.000Z</time>
      </trkpt>
      <trkpt lat="43.51893" lon="3.86585">
        <ele>4.5318926748971</ele>
        <time>2020-08-02T08:04:03.000Z</time>
      </trkpt>
      <trkpt lat="43.51897" lon="3.86584">
        <ele>4.6347733333333</ele>
        <time>2020-08-02T08:04:04.000Z</time>
      </trkpt>
      <trkpt lat="43.51901" lon="3.86583">
        <ele>4.7376539917695</ele>
        <time>2020-08-02T08:04:05.000Z</time>
      </trkpt>
      <trkpt lat="43.51905" lon="3.86582">
        <ele>4.8405346502058</ele>
        <time>2020-08-02T08:04:06.000Z</time>
      </trkpt>
      <trkpt lat="43.51909" lon="3.86581">
        <ele>4.943415308642</ele>
        <time>2020-08-02T08:04:07.000Z</time>
      </trkpt>
      <trkpt lat="43.51914" lon="3.8658">
        <ele>5</ele>
        <time>2020-08-02T08:04:08.000Z</time>
      </trkpt>
      <trkpt lat="43.51918" lon="3.86579">
        <ele>5</ele>
        <time>2020-08-02T08:04:09.000Z</time>
      </trkpt>
      <trkpt lat="43.51922" lon="3.86578">
        <ele>5</ele>
        <time>2020-08-02T08:04:10.000Z</time>
      </trkpt>
      <trkpt lat="43.51926" lon="3.86577">
        <ele>5</ele>
        <time>2020-08-02T08:04:11.000Z</time>
      </trkpt>
      <trkpt lat="43.5193" lon="3.86576">
        <ele>5</ele>
        <time>2020-08-02T08:04:12.000Z</time>
      </trkpt>
      <trkpt lat="43.51935" lon="3.86575">
        <ele>5</ele>
        <time>2020-08-02T08:04:13.000Z</time>
      </trkpt>
      <trkpt lat="43.51939" lon="3.86574">
        <ele>5</ele>
        <time>2020-08-02T08:04:14.000Z</time>
      </trkpt>
      <trkpt lat="43.51943" lon="3.86573">
        <ele>5</ele>
        <time>2020-08-02T08:04:15.000Z</time>
      </trkpt>
      <trkpt lat="43.51947" lon="3.86572">
        <ele>5</ele>
        <time>2020-08-02T08:04:16.000Z</time>
      </trkpt>
      <trkpt lat="43.51952" lon="3.86572">
        <ele>5</ele>
        <time>2020-08-02T08:04:17.000Z</time>
      </trkpt>
      <trkpt lat="43.51956" lon="3.86571">
        <ele>5</ele>
        <time>2020-08-02T08:04:18.000Z</time>
      </trkpt>
      <trkpt lat="43.5196" lon="3.86571">
        <ele>5</ele>
        <time>2020-08-02T08:04:19.000Z</time>
      </trkpt>
      <trkpt lat="43.51965" lon="3.8657">
        <ele>5</ele>
        <time>2020-08-02T08:04:20.000Z</time>
      </trkpt>
      <trkpt lat="43.51969" lon="3.8657">
        <ele>5</ele>
        <time>2020-08-02T08:04:21.000Z</time>
      </trkpt>
      <trkpt lat="43.51973" lon="3.86569">
        <ele>5</ele>
        <time>2020-08-02T08:04:22.000Z</time>
      </trkpt>
      <trkpt lat="43.51978" lon="3.86569">
        <ele>5</ele>
        <time>2020-08-02T08:04:23.000Z</time>
      </trkpt>
      <trkpt lat="43.51982" lon="3.86568">
        <ele>5</ele>
        <time>2020-08-02T08:04:24.000Z</time>
      </trkpt>
      <trkpt lat="43.51986" lon="3.86568">
        <ele>5</ele>
        <time>2020-08-02T08:04:25.000Z</time>
      </trkpt>
      <trkpt lat="43.51991" lon="3.86568">
        <ele>5</ele>
        <time>2020-08-02T08:04:26.000Z</time>
      </trkpt>
      <trkpt lat="43.51995" lon="3.86568">
        <ele>5</ele>
        <time>2020-08-02T08:04:27.000Z</time>
      </trkpt>
      <trkpt lat="43.52" lon="3.86568">
        <ele>5.04499968</ele>
        <time>2020-08-02T08:04:28.000Z</time>
      </trkpt>
      <trkpt lat="43.52005" lon="3.86568">
        <ele>5.14499968</ele>
        <time>2020-08-02T08:04:29.000Z</time>
      </trkpt>
      <trkpt lat="43.5201" lon="3.86567">
        <ele>5.24499968</ele>
        <time>2020-08-02T08:04:30.000Z</time>
      </trkpt>
      <trkpt lat="43.52015" lon="3.86567">
        <ele>5.34499968</ele>
        <time>2020-08-02T08:04:31.000Z</time>
      </trkpt>
      <trkpt lat="43.52019" lon="3.86567">
        <ele>5.44499968</ele>
        <time>2020-08-02T08:04:32.000Z</time>
      </trkpt>
      <trkpt lat="43.52024" lon="3.86567">
        <ele>5.54499968</ele>
        <time>2020-08-02T08:04:33.000Z</time>
      </trkpt>
      <trkpt lat="43.52029" lon="3.86567">
        <ele>5.64499968</ele>
        <time>2020-08-02T08:04:34.000Z</time>
      </trkpt>
      <trkpt lat="43.52034" lon="3.86567">
        <ele>5.74499968</ele>
        <time>2020-08-02T08:04:35.000Z</time>
      </trkpt>
      <trkpt lat="43.52039" lon="3.86567">
        <ele>5.84499968</ele>
        <time>2020-08-02T08:04:36.000Z</time>
      </trkpt>
      <trkpt lat="43.52043" lon="3.86567">
        <ele>5.94499968</ele>
        <time>2020-08-02T08:04:37.000Z</time>
      </trkpt>
      <trkpt lat="43.52048" lon="3.86567">
        <ele>6</ele>
        <time>2020-08-02T08:04:38.000Z</time>
      </trkpt>
      <trkpt lat="43.52053" lon="3.86567">
        <ele>6</ele>
        <time>2020-08-02T08:04:39.000Z</time>
      </trkpt>
      <trkpt lat="43.52057" lon="3.86567">
        <ele>6</ele>
        <time>2020-08-02T08:04:40.000Z</time>
      </trkpt>
      <trkpt lat="43.52062" lon="3.86566">
        <ele>6</ele>
        <time>2020-08-02T08:04:41.000Z</time>
      </trkpt>
      <trkpt lat="43.52066" lon="3.86566">
        <ele>6</ele>
        <time>2020-08-02T08:04:42.000Z</time>
      </trkpt>
      <trkpt lat="43.52071" lon="3.86566">
        <ele>6</ele>
        <time>2020-08-02T08:04:43.000Z</time>
      </trkpt>
      <trkpt lat="43.52075" lon="3.86566">
        <ele>6</ele>
        <time>2020-08-02T08:04:44.000Z</time>
      </trkpt>
      <trkpt lat="43.5208" lon="3.86566">
        <ele>6</ele>
        <time>2020-08-02T08:04:45.000Z</time>
      </trkpt>
      <trkpt lat="43.52084" lon="3.86565">
        <ele>6</ele>
        <time>2020-08-02T08:04:46.000Z</time>
      </trkpt>
      <trkpt lat="43.52089" lon="3.86565">
        <ele>6</ele>
        <time>2020-08-02T08:04:47.000Z</time>
      </trkpt>
      <trkpt lat="43.52093" lon="3.86565">
        <ele>6</ele>
        <time>2020-08-02T08:04:48.000Z</time>
      </trkpt>
      <trkpt lat="43.52097" lon="3.86565">
        <ele>6</ele>
        <time>2020-08-02T08:04:49.000Z</time>
      </trkpt>
      <trkpt lat="43.52102" lon="3.86564">
        <ele>6</ele>
        <time>2020-08-02T08:04:50.000Z</time>
      </trkpt>
      <trkpt lat="43.52106" lon="3.86564">
        <ele>6</ele>
        <time>2020-08-02T08:04:51.000Z</time>
      </trkpt>
      <trkpt lat="43.5211" lon="3.86563">
        <ele>6</ele>
        <time>2020-08-02T08:04:52.000Z</time>
      </trkpt>
      <trkpt lat="43.52114" lon="3.86562">
        <ele>6</ele>
        <time>2020-08-02T08:04:53.000Z</time>
      </trkpt>
      <trkpt lat="43.52119" lon="3.86561">
        <ele>6</ele>
        <time>2020-08-02T08:04:54.000Z</time>
      </trkpt>
      <trkpt lat="43.52123" lon="3.8656">
        <ele>6</ele>
        <time>2020-08-02T08:04:55.000Z</time>
      </trkpt>
      <trkpt lat="43.52127" lon="3.86559">
        <ele>6</ele>
        <time>2020-08-02T08:04:56.000Z</time>
      </trkpt>
      <trkpt lat="43.52131" lon="3.86558">
        <ele>6</ele>
        <time>2020-08-02T08:04:57.000Z</time>
      </trkpt>
      <trkpt lat="43.52135" lon="3.86557">
        <ele>6</ele>
        <time>2020-08-02T08:04:58.000Z</time>
      </trkpt>
      <trkpt lat="43.52139" lon="3.86557">
        <ele>6</ele>
        <time>2020-08-02T08:04:59.000Z</time>
      </trkpt>
      <trkpt lat="43.52144" lon="3.86556">
        <ele>6</ele>
        <time>2020-08-02T08:05:00.000Z</time>
      </trkpt>
      <trkpt lat="43.52148" lon="3.86556">
        <ele>6</ele>
        <time>2020-08-02T08:05:01.000Z</time>
      </trkpt>
      <trkpt lat="43.52153" lon="3.86556">
        <ele>6</ele>
        <time>2020-08-02T08:05:02.000Z</time>
      </trkpt>
      <trkpt lat="43.52157" lon="3.86557">
        <ele>6</ele>
        <time>2020-08-02T08:05:03.000Z</time>
      </trkpt>
      <trkpt lat="43.52161" lon="3.86558">
        <ele>6</ele>
        <time>2020-08-02T08:05:04.000Z</time>
      </trkpt>
      <trkpt lat="43.52165" lon="3.86559">
        <ele>6</ele>
        <time>2020-08-02T08:05:05.000Z</time>
      </trkpt>
      <trkpt lat="43.5217" lon="3.8656">
        <ele>6</ele>
        <time>2020-08-02T08:05:06.000Z</time>
      </trkpt>
      <trkpt lat="43.52174" lon="3.86562">
        <ele>6</ele>
        <time>2020-08-02T08:05:07.000Z</time>
      </trkpt>
      <trkpt lat="43.52178" lon="3.86563">
        <ele>6.04499968</ele>
        <time>2020-08-02T08:05:08.000Z</time>
      </trkpt>
      <trkpt lat="43.52182" lon="3.86565">
        <ele>6.14499968</ele>
        <time>2020-08-02T08:05:09.000Z</time>
      </trkpt>
      <trkpt lat="43.52186" lon="3.86567">
        <ele>6.24499968</ele>
        <time>2020-08-02T08:05:10.000Z</time>
      </trkpt>
      <trkpt lat="43.5219" lon="3.86569">
        <ele>6.34499968</ele>
        <time>2020-08-02T08:05:11.000Z</time>
      </trkpt>
      <trkpt lat="43.52194" lon="3.86571">
        <ele>6.44499968</ele>
        <time>2020-08-02T08:05:12.000Z</time>
      </trkpt>
      <trkpt lat="43.52198" lon="3.86573">
        <ele>6.54499968</ele>
        <time>2020-08-02T08:05:13.000Z</time>
      </trkpt>
      <trkpt lat="43.52203" lon="3.86575">
        <ele>6.64499968</ele>
        <time>2020-08-02T08:05:14.000Z</time>
      </trkpt>
      <trkpt lat="43.52207" lon="3.86577">
        <ele>6.74499968</ele>
        <time>2020-08-02T08:05:15.000Z</time>
      </trkpt>
      <trkpt lat="43.52211" lon="3.86579">
        <ele>6.84499968</ele>
        <time>2020-08-02T08:05:16.000Z</time>
      </trkpt>
      <trkpt lat="43.52215" lon="3.8658">
        <ele>6.94499968</ele>
        <time>2020-08-02T08:05:17.000Z</time>
      </trkpt>
      <trkpt lat="43.52219" lon="3.86582">
        <ele>7</ele>
        <time>2020-08-02T08:05:18.000Z</time>
      </trkpt>
      <trkpt lat="43.52223" lon="3.86583">
        <ele>7</ele>
        <time>2020-08-02T08:05:19.000Z</time>
      </trkpt>
      <trkpt lat="43.52227" lon="3.86584">
        <ele>7</ele>
        <time>2020-08-02T08:05:20.000Z</time>
      </trkpt>
      <trkpt lat="43.52231" lon="3.86585">
        <ele>7</ele>
        <time>2020-08-02T08:05:21.000Z</time>
      </trkpt>
      <trkpt lat="43.52235" lon="3.86585">
        <ele>7</ele>
        <time>2020-08-02T08:05:22.000Z</time>
      </trkpt>
      <trkpt lat="43.52239" lon="3.86586">
        <ele>7</ele>
        <time>2020-08-02T08:05:23.000Z</time>
      </trkpt>
      <trkpt lat="43.52242" lon="3.86586">
        <ele>7</ele>
        <time>2020-08-02T08:05:24.000Z</time>
      </trkpt>
      <trkpt lat="43.52246" lon="3.86586">
        <ele>7</ele>
        <time>2020-08-02T08:05:25.000Z</time>
      </trkpt>
      <trkpt lat="43.5225" lon="3.86586">
        <ele>7</ele>
        <time>2020-08-02T08:05:26.000Z</time>
      </trkpt>
      <trkpt lat="43.52253" lon="3.86586">
        <ele>7</ele>
        <time>2020-08-02T08:05:27.000Z</time>
      </trkpt>
      <trkpt lat="43.52257" lon="3.86586">
        <ele>7.0430864653554</ele>
        <time>2020-08-02T08:05:28.000Z</time>
      </trkpt>
      <trkpt lat="43.5226" lon="3.86585">
        <ele>7.1432868019003</ele>
        <time>2020-08-02T08:05:29.000Z</time>
      </trkpt>
      <trkpt lat="43.52263" lon="3.86584">
        <ele>7.2434871384451</ele>
        <time>2020-08-02T08:05:30.000Z</time>
      </trkpt>
      <trkpt lat="43.52267" lon="3.86583">
        <ele>7.34368747499</ele>
        <time>2020-08-02T08:05:31.000Z</time>
      </trkpt>
      <trkpt lat="43.5227" lon="3.86581">
        <ele>7.4438878115349</ele>
        <time>2020-08-02T08:05:32.000Z</time>
      </trkpt>
      <trkpt lat="43.52273" lon="3.8658">
        <ele>7.5440881480797</ele>
        <time>2020-08-02T08:05:33.000Z</time>
      </trkpt>
      <trkpt lat="43.52277" lon="3.86578">
        <ele>7.6442884846246</ele>
        <time>2020-08-02T08:05:34.000Z</time>
      </trkpt>
      <trkpt lat="43.5228" lon="3.86576">
        <ele>7.7444888211695</ele>
        <time>2020-08-02T08:05:35.000Z</time>
      </trkpt>
      <trkpt lat="43.52284" lon="3.86575">
        <ele>7.8446891577144</ele>
        <time>2020-08-02T08:05:36.000Z</time>
      </trkpt>
      <trkpt lat="43.52287" lon="3.86573">
        <ele>7.9448894942592</ele>
        <time>2020-08-02T08:05:37.000Z</time>
      </trkpt>
      <trkpt lat="43.52291" lon="3.86571">
        <ele>8</ele>
        <time>2020-08-02T08:05:38.000Z</time>
      </trkpt>
      <trkpt lat="43.52294" lon="3.86569">
        <ele>8</ele>
        <time>2020-08-02T08:05:39.000Z</time>
      </trkpt>
      <trkpt lat="43.52298" lon="3.86567">
        <ele>8</ele>
        <time>2020-08-02T08:05:40.000Z</time>
      </trkpt>
      <trkpt lat="43.52301" lon="3.86566">
        <ele>8</ele>
        <time>2020-08-02T08:05:41.000Z</time>
      </trkpt>
      <trkpt lat="43.52305" lon="3.86565">
        <ele>8</ele>
        <time>2020-08-02T08:05:42.000Z</time>
      </trkpt>
      <trkpt lat="43.52308" lon="3.86567">
        <ele>8</ele>
        <time>2020-08-02T08:05:43.000Z</time>
      </trkpt>
      <trkpt lat="43.5231" lon="3.86571">
        <ele>8</ele>
        <time>2020-08-02T08:05:44.000Z</time>
      </trkpt>
      <trkpt lat="43.52311" lon="3.86576">
        <ele>8</ele>
        <time>2020-08-02T08:05:45.000Z</time>
      </trkpt>
      <trkpt lat="43.52311" lon="3.86581">
        <ele>8</ele>
        <time>2020-08-02T08:05:46.000Z</time>
      </trkpt>
      <trkpt lat="43.52311" lon="3.86587">
        <ele>8</ele>
        <time>2020-08-02T08:05:47.000Z</time>
      </trkpt>
      <trkpt lat="43.52311" lon="3.86592">
        <ele>8</ele>
        <time>2020-08-02T08:05:48.000Z</time>
      </trkpt>
      <trkpt lat="43.52311" lon="3.86598">
        <ele>8</ele>
        <time>2020-08-02T08:05:49.000Z</time>
      </trkpt>
      <trkpt lat="43.52311" lon="3.86604">
        <ele>8</ele>
        <time>2020-08-02T08:05:50.000Z</time>
      </trkpt>
      <trkpt lat="43.52311" lon="3.86609">
        <ele>8</ele>
        <time>2020-08-02T08:05:51.000Z</time>
      </trkpt>
      <trkpt lat="43.52311" lon="3.86615">
        <ele>8</ele>
        <time>2020-08-02T08:05:52.000Z</time>
      </trkpt>
      <trkpt lat="43.52311" lon="3.86622">
        <ele>8</ele>
        <time>2020-08-02T08:05:53.000Z</time>
      </trkpt>
      <trkpt lat="43.52311" lon="3.86628">
        <ele>8</ele>
        <time>2020-08-02T08:05:54.000Z</time>
      </trkpt>
      <trkpt lat="43.52311" lon="3.86634">
        <ele>8</ele>
        <time>2020-08-02T08:05:55.000Z</time>
      </trkpt>
      <trkpt lat="43.52311" lon="3.8664">
        <ele>8</ele>
        <time>2020-08-02T08:05:56.000Z</time>
      </trkpt>
      <trkpt lat="43.52311" lon="3.86646">
        <ele>8</ele>
        <time>2020-08-02T08:05:57.000Z</time>
      </trkpt>
      <trkpt lat="43.52311" lon="3.86652">
        <ele>8</ele>
        <time>2020-08-02T08:05:58.000Z</time>
      </trkpt>
      <trkpt lat="43.52311" lon="3.86658">
        <ele>8</ele>
        <time>2020-08-02T08:05:59.000Z</time>
      </trkpt>
      <trkpt lat="43.52311" lon="3.86665">
        <ele>8</ele>
        <time>2020-08-02T08:06:00.000Z</time>
      </trkpt>
      <trkpt lat="43.52312" lon="3.86671">
        <ele>8</ele>
        <time>2020-08-02T08:06:01.000Z</time>
      </trkpt>
      <trkpt lat="43.52312" lon="3.86677">
        <ele>8</ele>
        <time>2020-08-02T08:06:02.000Z</time>
      </trkpt>
      <trkpt lat="43.52312" lon="3.86684">
        <ele>8</ele>
        <time>2020-08-02T08:06:03.000Z</time>
      </trkpt>
      <trkpt lat="43.52312" lon="3.8669">
        <ele>8</ele>
        <time>2020-08-02T08:06:04.000Z</time>
      </trkpt>
      <trkpt lat="43.52312" lon="3.86697">
        <ele>8</ele>
        <time>2020-08-02T08:06:05.000Z</time>
      </trkpt>
      <trkpt lat="43.52312" lon="3.86703">
        <ele>8</ele>
        <time>2020-08-02T08:06:06.000Z</time>
      </trkpt>
      <trkpt lat="43.52311" lon="3.8671">
        <ele>8</ele>
        <time>2020-08-02T08:06:07.000Z</time>
      </trkpt>
      <trkpt lat="43.52311" lon="3.86716">
        <ele>8</ele>
        <time>2020-08-02T08:06:08.000Z</time>
      </trkpt>
      <trkpt lat="43.5231" lon="3.86723">
        <ele>8</ele>
        <time>2020-08-02T08:06:09.000Z</time>
      </trkpt>
      <trkpt lat="43.52309" lon="3.8673">
        <ele>8</ele>
        <time>2020-08-02T08:06:10.000Z</time>
      </trkpt>
      <trkpt lat="43.52308" lon="3.86737">
        <ele>8</ele>
        <time>2020-08-02T08:06:11.000Z</time>
      </trkpt>
      <trkpt lat="43.52306" lon="3.86743">
        <ele>8</ele>
        <time>2020-08-02T08:06:12.000Z</time>
      </trkpt>
      <trkpt lat="43.52304" lon="3.8675">
        <ele>8</ele>
        <time>2020-08-02T08:06:13.000Z</time>
      </trkpt>
      <trkpt lat="43.52301" lon="3.86756">
        <ele>8</ele>
        <time>2020-08-02T08:06:14.000Z</time>
      </trkpt>
      <trkpt lat="43.52298" lon="3.86762">
        <ele>8</ele>
        <time>2020-08-02T08:06:15.000Z</time>
      </trkpt>
      <trkpt lat="43.52295" lon="3.86768">
        <ele>8</ele>
        <time>2020-08-02T08:06:16.000Z</time>
      </trkpt>
      <trkpt lat="43.52292" lon="3.86773">
        <ele>8</ele>
        <time>2020-08-02T08:06:17.000Z</time>
      </trkpt>
      <trkpt lat="43.52289" lon="3.86779">
        <ele>8.04499968</ele>
        <time>2020-08-02T08:06:18.000Z</time>
      </trkpt>
      <trkpt lat="43.52286" lon="3.86784">
        <ele>8.14499968</ele>
        <time>2020-08-02T08:06:19.000Z</time>
      </trkpt>
      <trkpt lat="43.52283" lon="3.86788">
        <ele>8.24499968</ele>
        <time>2020-08-02T08:06:20.000Z</time>
      </trkpt>
      <trkpt lat="43.5228" lon="3.86794">
        <ele>8.34499968</ele>
        <time>2020-08-02T08:06:21.000Z</time>
      </trkpt>
      <trkpt lat="43.52277" lon="3.86799">
        <ele>8.44499968</ele>
        <time>2020-08-02T08:06:22.000Z</time>
      </trkpt>
      <trkpt lat="43.52274" lon="3.86804">
        <ele>8.54499968</ele>
        <time>2020-08-02T08:06:23.000Z</time>
      </trkpt>
      <trkpt lat="43.52271" lon="3.86809">
        <ele>8.64499968</ele>
        <time>2020-08-02T08:06:24.000Z</time>
      </trkpt>
      <trkpt lat="43.52268" lon="3.86814">
        <ele>8.74499968</ele>
        <time>2020-08-02T08:06:25.000Z</time>
      </trkpt>
      <trkpt lat="43.52265" lon="3.86819">
        <ele>8.84499968</ele>
        <time>2020-08-02T08:06:26.000Z</time>
      </trkpt>
      <trkpt lat="43.52262" lon="3.86824">
        <ele>8.94499968</ele>
        <time>2020-08-02T08:06:27.000Z</time>
      </trkpt>
      <trkpt lat="43.5226" lon="3.86829">
        <ele>9</ele>
        <time>2020-08-02T08:06:28.000Z</time>
      </trkpt>
      <trkpt lat="43.52258" lon="3.86834">
        <ele>9</ele>
        <time>2020-08-02T08:06:29.000Z</time>
      </trkpt>
      <trkpt lat="43.52258" lon="3.8684">
        <ele>9</ele>
        <time>2020-08-02T08:06:30.000Z</time>
      </trkpt>
      <trkpt lat="43.5226" lon="3.86846">
        <ele>9</ele>
        <time>2020-08-02T08:06:31.000Z</time>
      </trkpt>
      <trkpt lat="43.52263" lon="3.8685">
        <ele>9</ele>
        <time>2020-08-02T08:06:32.000Z</time>
      </trkpt>
      <trkpt lat="43.52267" lon="3.86855">
        <ele>9</ele>
        <time>2020-08-02T08:06:33.000Z</time>
      </trkpt>
      <trkpt lat="43.52272" lon="3.86859">
        <ele>9</ele>
        <time>2020-08-02T08:06:34.000Z</time>
      </trkpt>
      <trkpt lat="43.52276" lon="3.86863">
        <ele>9</ele>
        <time>2020-08-02T08:06:35.000Z</time>
      </trkpt>
      <trkpt lat="43.52281" lon="3.86866">
        <ele>9</ele>
        <time>2020-08-02T08:06:36.000Z</time>
      </trkpt>
      <trkpt lat="43.52286" lon="3.8687">
        <ele>9</ele>
        <time>2020-08-02T08:06:37.000Z</time>
      </trkpt>
      <trkpt lat="43.5229" lon="3.86873">
        <ele>9</ele>
        <time>2020-08-02T08:06:38.000Z</time>
      </trkpt>
      <trkpt lat="43.52295" lon="3.86876">
        <ele>9</ele>
        <time>2020-08-02T08:06:39.000Z</time>
      </trkpt>
      <trkpt lat="43.52299" lon="3.86879">
        <ele>9</ele>
        <time>2020-08-02T08:06:40.000Z</time>
      </trkpt>
      <trkpt lat="43.52303" lon="3.86882">
        <ele>9</ele>
        <time>2020-08-02T08:06:41.000Z</time>
      </trkpt>
      <trkpt lat="43.52307" lon="3.86886">
        <ele>9</ele>
        <time>2020-08-02T08:06:42.000Z</time>
      </trkpt>
      <trkpt lat="43.5231" lon="3.86891">
        <ele>9</ele>
        <time>2020-08-02T08:06:43.000Z</time>
      </trkpt>
      <trkpt lat="43.52311" lon="3.86897">
        <ele>9</ele>
        <time>2020-08-02T08:06:44.000Z</time>
      </trkpt>
      <trkpt lat="43.52311" lon="3.86902">
        <ele>9</ele>
        <time>2020-08-02T08:06:45.000Z</time>
      </trkpt>
      <trkpt lat="43.52308" lon="3.86908">
        <ele>9</ele>
        <time>2020-08-02T08:06:46.000Z</time>
      </trkpt>
      <trkpt lat="43.52305" lon="3.86913">
        <ele>9</ele>
        <time>2020-08-02T08:06:47.000Z</time>
      </trkpt>
      <trkpt lat="43.52302" lon="3.86918">
        <ele>8.91000064</ele>
        <time>2020-08-02T08:06:48.000Z</time>
      </trkpt>
      <trkpt lat="43.52298" lon="3.86923">
        <ele>8.71000064</ele>
        <time>2020-08-02T08:06:49.000Z</time>
      </trkpt>
      <trkpt lat="43.52294" lon="3.86927">
        <ele>8.51000064</ele>
        <time>2020-08-02T08:06:50.000Z</time>
      </trkpt>
      <trkpt lat="43.52291" lon="3.86932">
        <ele>8.31000064</ele>
        <time>2020-08-02T08:06:51.000Z</time>
      </trkpt>
      <trkpt lat="43.52288" lon="3.86937">
        <ele>8.11000064</ele>
        <time>2020-08-02T08:06:52.000Z</time>
      </trkpt>
      <trkpt lat="43.52285" lon="3.86942">
        <ele>7.91000064</ele>
        <time>2020-08-02T08:06:53.000Z</time>
      </trkpt>
      <trkpt lat="43.52283" lon="3.86948">
        <ele>7.71000064</ele>
        <time>2020-08-02T08:06:54.000Z</time>
      </trkpt>
      <trkpt lat="43.52281" lon="3.86954">
        <ele>7.51000064</ele>
        <time>2020-08-02T08:06:55.000Z</time>
      </trkpt>
      <trkpt lat="43.5228" lon="3.86961">
        <ele>7.31000064</ele>
        <time>2020-08-02T08:06:56.000Z</time>
      </trkpt>
      <trkpt lat="43.52281" lon="3.86968">
        <ele>7.11000064</ele>
        <time>2020-08-02T08:06:57.000Z</time>
      </trkpt>
      <trkpt lat="43.52282" lon="3.86976">
        <ele>7</ele>
        <time>2020-08-02T08:06:58.000Z</time>
      </trkpt>
      <trkpt lat="43.52284" lon="3.86983">
        <ele>7</ele>
        <time>2020-08-02T08:06:59.000Z</time>
      </trkpt>
      <trkpt lat="43.52286" lon="3.8699">
        <ele>7</ele>
        <time>2020-08-02T08:07:00.000Z</time>
      </trkpt>
      <trkpt lat="43.52288" lon="3.86997">
        <ele>7</ele>
        <time>2020-08-02T08:07:01.000Z</time>
      </trkpt>
      <trkpt lat="43.5229" lon="3.87004">
        <ele>7</ele>
        <time>2020-08-02T08:07:02.000Z</time>
      </trkpt>
      <trkpt lat="43.52292" lon="3.8701">
        <ele>7</ele>
        <time>2020-08-02T08:07:03.000Z</time>
      </trkpt>
      <trkpt lat="43.52294" lon="3.87016">
        <ele>7</ele>
        <time>2020-08-02T08:07:04.000Z</time>
      </trkpt>
      <trkpt lat="43.52297" lon="3.87021">
        <ele>7</ele>
        <time>2020-08-02T08:07:05.000Z</time>
      </trkpt>
      <trkpt lat="43.523" lon="3.87025">
        <ele>7</ele>
        <time>2020-08-02T08:07:06.000Z</time>
      </trkpt>
      <trkpt lat="43.52303" lon="3.8703">
        <ele>7</ele>
        <time>2020-08-02T08:07:07.000Z</time>
      </trkpt>
      <trkpt lat="43.52307" lon="3.87034">
        <ele>7</ele>
        <time>2020-08-02T08:07:08.000Z</time>
      </trkpt>
      <trkpt lat="43.52311" lon="3.87038">
        <ele>7</ele>
        <time>2020-08-02T08:07:09.000Z</time>
      </trkpt>
      <trkpt lat="43.52315" lon="3.87042">
        <ele>7</ele>
        <time>2020-08-02T08:07:10.000Z</time>
      </trkpt>
      <trkpt lat="43.52318" lon="3.87045">
        <ele>7</ele>
        <time>2020-08-02T08:07:11.000Z</time>
      </trkpt>
      <trkpt lat="43.52323" lon="3.87048">
        <ele>7</ele>
        <time>2020-08-02T08:07:12.000Z</time>
      </trkpt>
      <trkpt lat="43.52326" lon="3.87051">
        <ele>7</ele>
        <time>2020-08-02T08:07:13.000Z</time>
      </trkpt>
      <trkpt lat="43.5233" lon="3.87054">
        <ele>7</ele>
        <time>2020-08-02T08:07:14.000Z</time>
      </trkpt>
      <trkpt lat="43.52334" lon="3.87058">
        <ele>7</ele>
        <time>2020-08-02T08:07:15.000Z</time>
      </trkpt>
      <trkpt lat="43.52338" lon="3.87062">
        <ele>7</ele>
        <time>2020-08-02T08:07:16.000Z</time>
      </trkpt>
      <trkpt lat="43.52342" lon="3.87065">
        <ele>7</ele>
        <time>2020-08-02T08:07:17.000Z</time>
      </trkpt>
      <trkpt lat="43.52346" lon="3.87069">
        <ele>7</ele>
        <time>2020-08-02T08:07:18.000Z</time>
      </trkpt>
      <trkpt lat="43.52349" lon="3.87073">
        <ele>7</ele>
        <time>2020-08-02T08:07:19.000Z</time>
      </trkpt>
      <trkpt lat="43.52353" lon="3.87076">
        <ele>7</ele>
        <time>2020-08-02T08:07:20.000Z</time>
      </trkpt>
      <trkpt lat="43.52357" lon="3.8708">
        <ele>7</ele>
        <time>2020-08-02T08:07:21.000Z</time>
      </trkpt>
      <trkpt lat="43.52361" lon="3.87083">
        <ele>7</ele>
        <time>2020-08-02T08:07:22.000Z</time>
      </trkpt>
      <trkpt lat="43.52365" lon="3.87086">
        <ele>7</ele>
        <time>2020-08-02T08:07:23.000Z</time>
      </trkpt>
      <trkpt lat="43.52368" lon="3.87089">
        <ele>7</ele>
        <time>2020-08-02T08:07:24.000Z</time>
      </trkpt>
      <trkpt lat="43.52372" lon="3.87092">
        <ele>7</ele>
        <time>2020-08-02T08:07:25.000Z</time>
      </trkpt>
      <trkpt lat="43.52376" lon="3.87095">
        <ele>7</ele>
        <time>2020-08-02T08:07:26.000Z</time>
      </trkpt>
      <trkpt lat="43.5238" lon="3.87098">
        <ele>7</ele>
        <time>2020-08-02T08:07:27.000Z</time>
      </trkpt>
      <trkpt lat="43.52384" lon="3.87101">
        <ele>7</ele>
        <time>2020-08-02T08:07:28.000Z</time>
      </trkpt>
      <trkpt lat="43.52388" lon="3.87104">
        <ele>7</ele>
        <time>2020-08-02T08:07:29.000Z</time>
      </trkpt>
      <trkpt lat="43.52392" lon="3.87107">
        <ele>7</ele>
        <time>2020-08-02T08:07:30.000Z</time>
      </trkpt>
      <trkpt lat="43.52395" lon="3.8711">
        <ele>7</ele>
        <time>2020-08-02T08:07:31.000Z</time>
      </trkpt>
      <trkpt lat="43.52399" lon="3.87113">
        <ele>7</ele>
        <time>2020-08-02T08:07:32.000Z</time>
      </trkpt>
      <trkpt lat="43.52402" lon="3.87116">
        <ele>7</ele>
        <time>2020-08-02T08:07:33.000Z</time>
      </trkpt>
      <trkpt lat="43.52405" lon="3.87118">
        <ele>7</ele>
        <time>2020-08-02T08:07:34.000Z</time>
      </trkpt>
      <trkpt lat="43.52408" lon="3.87121">
        <ele>7</ele>
        <time>2020-08-02T08:07:35.000Z</time>
      </trkpt>
      <trkpt lat="43.52409" lon="3.87124">
        <ele>7</ele>
        <time>2020-08-02T08:07:36.000Z</time>
      </trkpt>
      <trkpt lat="43.5241" lon="3.87127">
        <ele>7</ele>
        <time>2020-08-02T08:07:37.000Z</time>
      </trkpt>
      <trkpt lat="43.52409" lon="3.87131">
        <ele>7</ele>
        <time>2020-08-02T08:07:38.000Z</time>
      </trkpt>
      <trkpt lat="43.52407" lon="3.87135">
        <ele>7</ele>
        <time>2020-08-02T08:07:39.000Z</time>
      </trkpt>
      <trkpt lat="43.52404" lon="3.8714">
        <ele>7</ele>
        <time>2020-08-02T08:07:40.000Z</time>
      </trkpt>
      <trkpt lat="43.52401" lon="3.87144">
        <ele>7</ele>
        <time>2020-08-02T08:07:41.000Z</time>
      </trkpt>
      <trkpt lat="43.52398" lon="3.87149">
        <ele>7</ele>
        <time>2020-08-02T08:07:42.000Z</time>
      </trkpt>
      <trkpt lat="43.52395" lon="3.87153">
        <ele>7</ele>
        <time>2020-08-02T08:07:43.000Z</time>
      </trkpt>
      <trkpt lat="43.52392" lon="3.87158">
        <ele>7</ele>
        <time>2020-08-02T08:07:44.000Z</time>
      </trkpt>
      <trkpt lat="43.52389" lon="3.87163">
        <ele>7</ele>
        <time>2020-08-02T08:07:45.000Z</time>
      </trkpt>
      <trkpt lat="43.52386" lon="3.87168">
        <ele>7</ele>
        <time>2020-08-02T08:07:46.000Z</time>
      </trkpt>
      <trkpt lat="43.52383" lon="3.87173">
        <ele>7</ele>
        <time>2020-08-02T08:07:47.000Z</time>
      </trkpt>
      <trkpt lat="43.5238" lon="3.87178">
        <ele>6.95500032</ele>
        <time>2020-08-02T08:07:48.000Z</time>
      </trkpt>
      <trkpt lat="43.52377" lon="3.87184">
        <ele>6.85500032</ele>
        <time>2020-08-02T08:07:49.000Z</time>
      </trkpt>
      <trkpt lat="43.52374" lon="3.87189">
        <ele>6.75500032</ele>
        <time>2020-08-02T08:07:50.000Z</time>
      </trkpt>
      <trkpt lat="43.52371" lon="3.87195">
        <ele>6.65500032</ele>
        <time>2020-08-02T08:07:51.000Z</time>
      </trkpt>
      <trkpt lat="43.52368" lon="3.872">
        <ele>6.55500032</ele>
        <time>2020-08-02T08:07:52.000Z</time>
      </trkpt>
      <trkpt lat="43.52365" lon="3.87206">
        <ele>6.45500032</ele>
        <time>2020-08-02T08:07:53.000Z</time>
      </trkpt>
      <trkpt lat="43.52362" lon="3.87212">
        <ele>6.35500032</ele>
        <time>2020-08-02T08:07:54.000Z</time>
      </trkpt>
      <trkpt lat="43.52359" lon="3.87217">
        <ele>6.25500032</ele>
        <time>2020-08-02T08:07:55.000Z</time>
      </trkpt>
      <trkpt lat="43.52357" lon="3.87223">
        <ele>6.15500032</ele>
        <time>2020-08-02T08:07:56.000Z</time>
      </trkpt>
      <trkpt lat="43.52354" lon="3.87229">
        <ele>6.05500032</ele>
        <time>2020-08-02T08:07:57.000Z</time>
      </trkpt>
      <trkpt lat="43.52351" lon="3.87235">
        <ele>5.95500032</ele>
        <time>2020-08-02T08:07:58.000Z</time>
      </trkpt>
      <trkpt lat="43.52349" lon="3.8724">
        <ele>5.85500032</ele>
        <time>2020-08-02T08:07:59.000Z</time>
      </trkpt>
      <trkpt lat="43.52347" lon="3.87246">
        <ele>5.75500032</ele>
        <time>2020-08-02T08:08:00.000Z</time>
      </trkpt>
      <trkpt lat="43.52344" lon="3.87252">
        <ele>5.65500032</ele>
        <time>2020-08-02T08:08:01.000Z</time>
      </trkpt>
      <trkpt lat="43.52342" lon="3.87258">
        <ele>5.55500032</ele>
        <time>2020-08-02T08:08:02.000Z</time>
      </trkpt>
      <trkpt lat="43.5234" lon="3.87264">
        <ele>5.45500032</ele>
        <time>2020-08-02T08:08:03.000Z</time>
      </trkpt>
      <trkpt lat="43.52338" lon="3.8727">
        <ele>5.35500032</ele>
        <time>2020-08-02T08:08:04.000Z</time>
      </trkpt>
      <trkpt lat="43.52337" lon="3.87277">
        <ele>5.25500032</ele>
        <time>2020-08-02T08:08:05.000Z</time>
      </trkpt>
      <trkpt lat="43.52334" lon="3.87283">
        <ele>5.15500032</ele>
        <time>2020-08-02T08:08:06.000Z</time>
      </trkpt>
      <trkpt lat="43.52332" lon="3.8729">
        <ele>5.05500032</ele>
        <time>2020-08-02T08:08:07.000Z</time>
      </trkpt>
      <trkpt lat="43.52331" lon="3.87297">
        <ele>5</ele>
        <time>2020-08-02T08:08:08.000Z</time>
      </trkpt>
      <trkpt lat="43.52329" lon="3.87303">
        <ele>5</ele>
        <time>2020-08-02T08:08:09.000Z</time>
      </trkpt>
      <trkpt lat="43.52327" lon="3.8731">
        <ele>5</ele>
        <time>2020-08-02T08:08:10.000Z</time>
      </trkpt>
      <trkpt lat="43.52326" lon="3.87317">
        <ele>5</ele>
        <time>2020-08-02T08:08:11.000Z</time>
      </trkpt>
      <trkpt lat="43.52324" lon="3.87323">
        <ele>5</ele>
        <time>2020-08-02T08:08:12.000Z</time>
      </trkpt>
      <trkpt lat="43.52322" lon="3.87329">
        <ele>5</ele>
        <time>2020-08-02T08:08:13.000Z</time>
      </trkpt>
      <trkpt lat="43.52321" lon="3.87335">
        <ele>5</ele>
        <time>2020-08-02T08:08:14.000Z</time>
      </trkpt>
      <trkpt lat="43.52319" lon="3.87342">
        <ele>5</ele>
        <time>2020-08-02T08:08:15.000Z</time>
      </trkpt>
      <trkpt lat="43.52317" lon="3.87347">
        <ele>5</ele>
        <time>2020-08-02T08:08:16.000Z</time>
      </trkpt>
      <trkpt lat="43.52314" lon="3.87353">
        <ele>5</ele>
        <time>2020-08-02T08:08:17.000Z</time>
      </trkpt>
      <trkpt lat="43.52312" lon="3.8736">
        <ele>5</ele>
        <time>2020-08-02T08:08:18.000Z</time>
      </trkpt>
      <trkpt lat="43.5231" lon="3.87366">
        <ele>5</ele>
        <time>2020-08-02T08:08:19.000Z</time>
      </trkpt>
      <trkpt lat="43.52308" lon="3.87372">
        <ele>5</ele>
        <time>2020-08-02T08:08:20.000Z</time>
      </trkpt>
      <trkpt lat="43.52305" lon="3.87378">
        <ele>5</ele>
        <time>2020-08-02T08:08:21.000Z</time>
      </trkpt>
      <trkpt lat="43.52303" lon="3.87384">
        <ele>5</ele>
        <time>2020-08-02T08:08:22.000Z</time>
      </trkpt>
      <trkpt lat="43.52299" lon="3.8739">
        <ele>5</ele>
        <time>2020-08-02T08:08:23.000Z</time>
      </trkpt>
      <trkpt lat="43.52296" lon="3.87396">
        <ele>5</ele>
        <time>2020-08-02T08:08:24.000Z</time>
      </trkpt>
      <trkpt lat="43.52292" lon="3.87401">
        <ele>5</ele>
        <time>2020-08-02T08:08:25.000Z</time>
      </trkpt>
      <trkpt lat="43.52288" lon="3.87406">
        <ele>5</ele>
        <time>2020-08-02T08:08:26.000Z</time>
      </trkpt>
      <trkpt lat="43.52284" lon="3.87411">
        <ele>5</ele>
        <time>2020-08-02T08:08:27.000Z</time>
      </trkpt>
      <trkpt lat="43.5228" lon="3.87416">
        <ele>5.04499968</ele>
        <time>2020-08-02T08:08:28.000Z</time>
      </trkpt>
      <trkpt lat="43.52275" lon="3.87421">
        <ele>5.14499968</ele>
        <time>2020-08-02T08:08:29.000Z</time>
      </trkpt>
      <trkpt lat="43.52271" lon="3.87426">
        <ele>5.24499968</ele>
        <time>2020-08-02T08:08:30.000Z</time>
      </trkpt>
      <trkpt lat="43.52266" lon="3.8743">
        <ele>5.34499968</ele>
        <time>2020-08-02T08:08:31.000Z</time>
      </trkpt>
      <trkpt lat="43.52262" lon="3.87435">
        <ele>5.44499968</ele>
        <time>2020-08-02T08:08:32.000Z</time>
      </trkpt>
      <trkpt lat="43.52258" lon="3.87441">
        <ele>5.54499968</ele>
        <time>2020-08-02T08:08:33.000Z</time>
      </trkpt>
      <trkpt lat="43.52253" lon="3.87445">
        <ele>5.64499968</ele>
        <time>2020-08-02T08:08:34.000Z</time>
      </trkpt>
      <trkpt lat="43.52248" lon="3.87449">
        <ele>5.74499968</ele>
        <time>2020-08-02T08:08:35.000Z</time>
      </trkpt>
      <trkpt lat="43.52244" lon="3.87454">
        <ele>5.84499968</ele>
        <time>2020-08-02T08:08:36.000Z</time>
      </trkpt>
      <trkpt lat="43.52239" lon="3.87459">
        <ele>5.94499968</ele>
        <time>2020-08-02T08:08:37.000Z</time>
      </trkpt>
      <trkpt lat="43.52234" lon="3.87464">
        <ele>5.95500032</ele>
        <time>2020-08-02T08:08:38.000Z</time>
      </trkpt>
      <trkpt lat="43.52229" lon="3.87469">
        <ele>5.85500032</ele>
        <time>2020-08-02T08:08:39.000Z</time>
      </trkpt>
      <trkpt lat="43.52224" lon="3.87474">
        <ele>5.75500032</ele>
        <time>2020-08-02T08:08:40.000Z</time>
      </trkpt>
      <trkpt lat="43.52219" lon="3.8748">
        <ele>5.65500032</ele>
        <time>2020-08-02T08:08:41.000Z</time>
      </trkpt>
      <trkpt lat="43.52214" lon="3.87485">
        <ele>5.55500032</ele>
        <time>2020-08-02T08:08:42.000Z</time>
      </trkpt>
      <trkpt lat="43.52209" lon="3.8749">
        <ele>5.45500032</ele>
        <time>2020-08-02T08:08:43.000Z</time>
      </trkpt>
      <trkpt lat="43.52204" lon="3.87495">
        <ele>5.35500032</ele>
        <time>2020-08-02T08:08:44.000Z</time>
      </trkpt>
      <trkpt lat="43.52199" lon="3.875">
        <ele>5.25500032</ele>
        <time>2020-08-02T08:08:45.000Z</time>
      </trkpt>
      <trkpt lat="43.52194" lon="3.87506">
        <ele>5.15500032</ele>
        <time>2020-08-02T08:08:46.000Z</time>
      </trkpt>
      <trkpt lat="43.52189" lon="3.87511">
        <ele>5.05500032</ele>
        <time>2020-08-02T08:08:47.000Z</time>
      </trkpt>
      <trkpt lat="43.52184" lon="3.87516">
        <ele>5</ele>
        <time>2020-08-02T08:08:48.000Z</time>
      </trkpt>
      <trkpt lat="43.52179" lon="3.87522">
        <ele>5</ele>
        <time>2020-08-02T08:08:49.000Z</time>
      </trkpt>
      <trkpt lat="43.52174" lon="3.87527">
        <ele>5</ele>
        <time>2020-08-02T08:08:50.000Z</time>
      </trkpt>
      <trkpt lat="43.52169" lon="3.87533">
        <ele>5</ele>
        <time>2020-08-02T08:08:51.000Z</time>
      </trkpt>
      <trkpt lat="43.52164" lon="3.87538">
        <ele>5</ele>
        <time>2020-08-02T08:08:52.000Z</time>
      </trkpt>
      <trkpt lat="43.52159" lon="3.87544">
        <ele>5</ele>
        <time>2020-08-02T08:08:53.000Z</time>
      </trkpt>
      <trkpt lat="43.52155" lon="3.8755">
        <ele>5</ele>
        <time>2020-08-02T08:08:54.000Z</time>
      </trkpt>
      <trkpt lat="43.5215" lon="3.87555">
        <ele>5</ele>
        <time>2020-08-02T08:08:55.000Z</time>
      </trkpt>
      <trkpt lat="43.52145" lon="3.8756">
        <ele>5</ele>
        <time>2020-08-02T08:08:56.000Z</time>
      </trkpt>
      <trkpt lat="43.5214" lon="3.87565">
        <ele>5</ele>
        <time>2020-08-02T08:08:57.000Z</time>
      </trkpt>
      <trkpt lat="43.52135" lon="3.87571">
        <ele>5</ele>
        <time>2020-08-02T08:08:58.000Z</time>
      </trkpt>
      <trkpt lat="43.52129" lon="3.87576">
        <ele>5</ele>
        <time>2020-08-02T08:08:59.000Z</time>
      </trkpt>
      <trkpt lat="43.52124" lon="3.87581">
        <ele>5</ele>
        <time>2020-08-02T08:09:00.000Z</time>
      </trkpt>
      <trkpt lat="43.52119" lon="3.87586">
        <ele>5</ele>
        <time>2020-08-02T08:09:01.000Z</time>
      </trkpt>
      <trkpt lat="43.52114" lon="3.87592">
        <ele>5</ele>
        <time>2020-08-02T08:09:02.000Z</time>
      </trkpt>
      <trkpt lat="43.52109" lon="3.87597">
        <ele>5</ele>
        <time>2020-08-02T08:09:03.000Z</time>
      </trkpt>
      <trkpt lat="43.52104" lon="3.87603">
        <ele>5</ele>
        <time>2020-08-02T08:09:04.000Z</time>
      </trkpt>
      <trkpt lat="43.52099" lon="3.87608">
        <ele>5</ele>
        <time>2020-08-02T08:09:05.000Z</time>
      </trkpt>
      <trkpt lat="43.52094" lon="3.87613">
        <ele>5</ele>
        <time>2020-08-02T08:09:06.000Z</time>
      </trkpt>
      <trkpt lat="43.52089" lon="3.87618">
        <ele>5</ele>
        <time>2020-08-02T08:09:07.000Z</time>
      </trkpt>
      <trkpt lat="43.52084" lon="3.87623">
        <ele>5</ele>
        <time>2020-08-02T08:09:08.000Z</time>
      </trkpt>
      <trkpt lat="43.52079" lon="3.87629">
        <ele>5</ele>
        <time>2020-08-02T08:09:09.000Z</time>
      </trkpt>
      <trkpt lat="43.52074" lon="3.87634">
        <ele>5</ele>
        <time>2020-08-02T08:09:10.000Z</time>
      </trkpt>
      <trkpt lat="43.52069" lon="3.8764">
        <ele>5</ele>
        <time>2020-08-02T08:09:11.000Z</time>
      </trkpt>
      <trkpt lat="43.52064" lon="3.87645">
        <ele>5</ele>
        <time>2020-08-02T08:09:12.000Z</time>
      </trkpt>
      <trkpt lat="43.52059" lon="3.8765">
        <ele>5</ele>
        <time>2020-08-02T08:09:13.000Z</time>
      </trkpt>
      <trkpt lat="43.52054" lon="3.87656">
        <ele>5</ele>
        <time>2020-08-02T08:09:14.000Z</time>
      </trkpt>
      <trkpt lat="43.52049" lon="3.87661">
        <ele>5</ele>
        <time>2020-08-02T08:09:15.000Z</time>
      </trkpt>
      <trkpt lat="43.52044" lon="3.87666">
        <ele>5</ele>
        <time>2020-08-02T08:09:16.000Z</time>
      </trkpt>
      <trkpt lat="43.52039" lon="3.87671">
        <ele>5</ele>
        <time>2020-08-02T08:09:17.000Z</time>
      </trkpt>
      <trkpt lat="43.52034" lon="3.87676">
        <ele>5.0154642372195</ele>
        <time>2020-08-02T08:09:18.000Z</time>
      </trkpt>
      <trkpt lat="43.52029" lon="3.87681">
        <ele>5.1185569527047</ele>
        <time>2020-08-02T08:09:19.000Z</time>
      </trkpt>
      <trkpt lat="43.52024" lon="3.87686">
        <ele>5.2216496681899</ele>
        <time>2020-08-02T08:09:20.000Z</time>
      </trkpt>
      <trkpt lat="43.52019" lon="3.87691">
        <ele>5.3247423836751</ele>
        <time>2020-08-02T08:09:21.000Z</time>
      </trkpt>
      <trkpt lat="43.52014" lon="3.87697">
        <ele>5.4278350991604</ele>
        <time>2020-08-02T08:09:22.000Z</time>
      </trkpt>
      <trkpt lat="43.52009" lon="3.87702">
        <ele>5.5309278146456</ele>
        <time>2020-08-02T08:09:23.000Z</time>
      </trkpt>
      <trkpt lat="43.52004" lon="3.87708">
        <ele>5.6340205301308</ele>
        <time>2020-08-02T08:09:24.000Z</time>
      </trkpt>
      <trkpt lat="43.52" lon="3.87713">
        <ele>5.737113245616</ele>
        <time>2020-08-02T08:09:25.000Z</time>
      </trkpt>
      <trkpt lat="43.51995" lon="3.87718">
        <ele>5.8402059611012</ele>
        <time>2020-08-02T08:09:26.000Z</time>
      </trkpt>
      <trkpt lat="43.5199" lon="3.87723">
        <ele>5.9432986765864</ele>
        <time>2020-08-02T08:09:27.000Z</time>
      </trkpt>
      <trkpt lat="43.51986" lon="3.87728">
        <ele>5.95500032</ele>
        <time>2020-08-02T08:09:28.000Z</time>
      </trkpt>
      <trkpt lat="43.51982" lon="3.87733">
        <ele>5.85500032</ele>
        <time>2020-08-02T08:09:29.000Z</time>
      </trkpt>
      <trkpt lat="43.51977" lon="3.87737">
        <ele>5.75500032</ele>
        <time>2020-08-02T08:09:30.000Z</time>
      </trkpt>
      <trkpt lat="43.51972" lon="3.87742">
        <ele>5.65500032</ele>
        <time>2020-08-02T08:09:31.000Z</time>
      </trkpt>
      <trkpt lat="43.51967" lon="3.87747">
        <ele>5.55500032</ele>
        <time>2020-08-02T08:09:32.000Z</time>
      </trkpt>
      <trkpt lat="43.51963" lon="3.87753">
        <ele>5.45500032</ele>
        <time>2020-08-02T08:09:33.000Z</time>
      </trkpt>
      <trkpt lat="43.51957" lon="3.87758">
        <ele>5.35500032</ele>
        <time>2020-08-02T08:09:34.000Z</time>
      </trkpt>
      <trkpt lat="43.51952" lon="3.87764">
        <ele>5.25500032</ele>
        <time>2020-08-02T08:09:35.000Z</time>
      </trkpt>
      <trkpt lat="43.51947" lon="3.8777">
        <ele>5.15500032</ele>
        <time>2020-08-02T08:09:36.000Z</time>
      </trkpt>
      <trkpt lat="43.51941" lon="3.87775">
        <ele>5.05500032</ele>
        <time>2020-08-02T08:09:37.000Z</time>
      </trkpt>
      <trkpt lat="43.51936" lon="3.8778">
        <ele>5</ele>
        <time>2020-08-02T08:09:38.000Z</time>
      </trkpt>
      <trkpt lat="43.5193" lon="3.87786">
        <ele>5</ele>
        <time>2020-08-02T08:09:39.000Z</time>
      </trkpt>
      <trkpt lat="43.51925" lon="3.87791">
        <ele>5</ele>
        <time>2020-08-02T08:09:40.000Z</time>
      </trkpt>
      <trkpt lat="43.51919" lon="3.87797">
        <ele>5</ele>
        <time>2020-08-02T08:09:41.000Z</time>
      </trkpt>
      <trkpt lat="43.51914" lon="3.87802">
        <ele>5</ele>
        <time>2020-08-02T08:09:42.000Z</time>
      </trkpt>
      <trkpt lat="43.51908" lon="3.87808">
        <ele>5</ele>
        <time>2020-08-02T08:09:43.000Z</time>
      </trkpt>
      <trkpt lat="43.51903" lon="3.87814">
        <ele>5</ele>
        <time>2020-08-02T08:09:44.000Z</time>
      </trkpt>
      <trkpt lat="43.51898" lon="3.87819">
        <ele>5</ele>
        <time>2020-08-02T08:09:45.000Z</time>
      </trkpt>
      <trkpt lat="43.51893" lon="3.87825">
        <ele>5</ele>
        <time>2020-08-02T08:09:46.000Z</time>
      </trkpt>
      <trkpt lat="43.51887" lon="3.87831">
        <ele>5</ele>
        <time>2020-08-02T08:09:47.000Z</time>
      </trkpt>
      <trkpt lat="43.51882" lon="3.87837">
        <ele>5</ele>
        <time>2020-08-02T08:09:48.000Z</time>
      </trkpt>
      <trkpt lat="43.51877" lon="3.87844">
        <ele>5</ele>
        <time>2020-08-02T08:09:49.000Z</time>
      </trkpt>
      <trkpt lat="43.51872" lon="3.87849">
        <ele>5</ele>
        <time>2020-08-02T08:09:50.000Z</time>
      </trkpt>
      <trkpt lat="43.51866" lon="3.87854">
        <ele>5</ele>
        <time>2020-08-02T08:09:51.000Z</time>
      </trkpt>
      <trkpt lat="43.51861" lon="3.87859">
        <ele>5</ele>
        <time>2020-08-02T08:09:52.000Z</time>
      </trkpt>
      <trkpt lat="43.51856" lon="3.87864">
        <ele>5</ele>
        <time>2020-08-02T08:09:53.000Z</time>
      </trkpt>
      <trkpt lat="43.51851" lon="3.87869">
        <ele>5</ele>
        <time>2020-08-02T08:09:54.000Z</time>
      </trkpt>
      <trkpt lat="43.51846" lon="3.87875">
        <ele>5</ele>
        <time>2020-08-02T08:09:55.000Z</time>
      </trkpt>
      <trkpt lat="43.51842" lon="3.8788">
        <ele>5</ele>
        <time>2020-08-02T08:09:56.000Z</time>
      </trkpt>
      <trkpt lat="43.51837" lon="3.87884">
        <ele>5</ele>
        <time>2020-08-02T08:09:57.000Z</time>
      </trkpt>
      <trkpt lat="43.51832" lon="3.87889">
        <ele>5</ele>
        <time>2020-08-02T08:09:58.000Z</time>
      </trkpt>
      <trkpt lat="43.51828" lon="3.87894">
        <ele>5</ele>
        <time>2020-08-02T08:09:59.000Z</time>
      </trkpt>
      <trkpt lat="43.51823" lon="3.87898">
        <ele>5</ele>
        <time>2020-08-02T08:10:00.000Z</time>
      </trkpt>
      <trkpt lat="43.51819" lon="3.87903">
        <ele>5</ele>
        <time>2020-08-02T08:10:01.000Z</time>
      </trkpt>
      <trkpt lat="43.51815" lon="3.87907">
        <ele>5</ele>
        <time>2020-08-02T08:10:02.000Z</time>
      </trkpt>
      <trkpt lat="43.5181" lon="3.87912">
        <ele>5</ele>
        <time>2020-08-02T08:10:03.000Z</time>
      </trkpt>
      <trkpt lat="43.51806" lon="3.87917">
        <ele>5</ele>
        <time>2020-08-02T08:10:04.000Z</time>
      </trkpt>
      <trkpt lat="43.51802" lon="3.87922">
        <ele>5</ele>
        <time>2020-08-02T08:10:05.000Z</time>
      </trkpt>
      <trkpt lat="43.51797" lon="3.87927">
        <ele>5</ele>
        <time>2020-08-02T08:10:06.000Z</time>
      </trkpt>
      <trkpt lat="43.51793" lon="3.87932">
        <ele>5</ele>
        <time>2020-08-02T08:10:07.000Z</time>
      </trkpt>
      <trkpt lat="43.51789" lon="3.87938">
        <ele>5</ele>
        <time>2020-08-02T08:10:08.000Z</time>
      </trkpt>
      <trkpt lat="43.51785" lon="3.87944">
        <ele>5</ele>
        <time>2020-08-02T08:10:09.000Z</time>
      </trkpt>
      <trkpt lat="43.51781" lon="3.8795">
        <ele>5</ele>
        <time>2020-08-02T08:10:10.000Z</time>
      </trkpt>
      <trkpt lat="43.51778" lon="3.87956">
        <ele>5</ele>
        <time>2020-08-02T08:10:11.000Z</time>
      </trkpt>
      <trkpt lat="43.51774" lon="3.87962">
        <ele>5</ele>
        <time>2020-08-02T08:10:12.000Z</time>
      </trkpt>
      <trkpt lat="43.5177" lon="3.87968">
        <ele>5</ele>
        <time>2020-08-02T08:10:13.000Z</time>
      </trkpt>
      <trkpt lat="43.51766" lon="3.87974">
        <ele>5</ele>
        <time>2020-08-02T08:10:14.000Z</time>
      </trkpt>
      <trkpt lat="43.51762" lon="3.8798">
        <ele>5</ele>
        <time>2020-08-02T08:10:15.000Z</time>
      </trkpt>
      <trkpt lat="43.51759" lon="3.87986">
        <ele>5</ele>
        <time>2020-08-02T08:10:16.000Z</time>
      </trkpt>
      <trkpt lat="43.51755" lon="3.87992">
        <ele>5</ele>
        <time>2020-08-02T08:10:17.000Z</time>
      </trkpt>
      <trkpt lat="43.51751" lon="3.87998">
        <ele>5</ele>
        <time>2020-08-02T08:10:18.000Z</time>
      </trkpt>
      <trkpt lat="43.51747" lon="3.88003">
        <ele>5</ele>
        <time>2020-08-02T08:10:19.000Z</time>
      </trkpt>
      <trkpt lat="43.51743" lon="3.88007">
        <ele>5</ele>
        <time>2020-08-02T08:10:20.000Z</time>
      </trkpt>
      <trkpt lat="43.51739" lon="3.88011">
        <ele>5</ele>
        <time>2020-08-02T08:10:21.000Z</time>
      </trkpt>
      <trkpt lat="43.51736" lon="3.88016">
        <ele>5</ele>
        <time>2020-08-02T08:10:22.000Z</time>
      </trkpt>
      <trkpt lat="43.51734" lon="3.8802">
        <ele>5</ele>
        <time>2020-08-02T08:10:23.000Z</time>
      </trkpt>
      <trkpt lat="43.51733" lon="3.88023">
        <ele>5</ele>
        <time>2020-08-02T08:10:24.000Z</time>
      </trkpt>
      <trkpt lat="43.51733" lon="3.88026">
        <ele>5</ele>
        <time>2020-08-02T08:10:25.000Z</time>
      </trkpt>
      <trkpt lat="43.51732" lon="3.88028">
        <ele>5</ele>
        <time>2020-08-02T08:10:26.000Z</time>
      </trkpt>
      <trkpt lat="43.5173" lon="3.88031">
        <ele>5</ele>
        <time>2020-08-02T08:10:28.000Z</time>
      </trkpt>
      <trkpt lat="43.51731" lon="3.88032">
        <ele>5</ele>
        <time>2020-08-02T08:10:33.000Z</time>
      </trkpt>
      <trkpt lat="43.51733" lon="3.88036">
        <ele>5</ele>
        <time>2020-08-02T08:10:36.000Z</time>
      </trkpt>
      <trkpt lat="43.51734" lon="3.88039">
        <ele>5</ele>
        <time>2020-08-02T08:10:38.000Z</time>
      </trkpt>
      <trkpt lat="43.51732" lon="3.88041">
        <ele>5</ele>
        <time>2020-08-02T08:10:40.000Z</time>
      </trkpt>
      <trkpt lat="43.51729" lon="3.88043">
        <ele>5</ele>
        <time>2020-08-02T08:10:42.000Z</time>
      </trkpt>
      <trkpt lat="43.51727" lon="3.88045">
        <ele>5</ele>
        <time>2020-08-02T08:10:44.000Z</time>
      </trkpt>
      <trkpt lat="43.51725" lon="3.88047">
        <ele>5</ele>
        <time>2020-08-02T08:10:46.000Z</time>
      </trkpt>
      <trkpt lat="43.51723" lon="3.88048">
        <ele>5</ele>
        <time>2020-08-02T08:10:48.000Z</time>
      </trkpt>
      <trkpt lat="43.51721" lon="3.8805">
        <ele>5</ele>
        <time>2020-08-02T08:10:50.000Z</time>
      </trkpt>
      <trkpt lat="43.51718" lon="3.88052">
        <ele>5</ele>
        <time>2020-08-02T08:10:52.000Z</time>
      </trkpt>
      <trkpt lat="43.51715" lon="3.88054">
        <ele>5</ele>
        <time>2020-08-02T08:10:54.000Z</time>
      </trkpt>
      <trkpt lat="43.51713" lon="3.88056">
        <ele>5</ele>
        <time>2020-08-02T08:10:56.000Z</time>
      </trkpt>
      <trkpt lat="43.51711" lon="3.88058">
        <ele>5</ele>
        <time>2020-08-02T08:10:58.000Z</time>
      </trkpt>
      <trkpt lat="43.51708" lon="3.8806">
        <ele>5</ele>
        <time>2020-08-02T08:11:00.000Z</time>
      </trkpt>
      <trkpt lat="43.51706" lon="3.88061">
        <ele>5</ele>
        <time>2020-08-02T08:11:02.000Z</time>
      </trkpt>
      <trkpt lat="43.51704" lon="3.88063">
        <ele>5</ele>
        <time>2020-08-02T08:11:04.000Z</time>
      </trkpt>
      <trkpt lat="43.51702" lon="3.88065">
        <ele>5</ele>
        <time>2020-08-02T08:11:06.000Z</time>
      </trkpt>
      <trkpt lat="43.51699" lon="3.88067">
        <ele>5</ele>
        <time>2020-08-02T08:11:08.000Z</time>
      </trkpt>
      <trkpt lat="43.51697" lon="3.88069">
        <ele>5</ele>
        <time>2020-08-02T08:11:10.000Z</time>
      </trkpt>
      <trkpt lat="43.51695" lon="3.88071">
        <ele>5</ele>
        <time>2020-08-02T08:11:12.000Z</time>
      </trkpt>
      <trkpt lat="43.51693" lon="3.88073">
        <ele>5</ele>
        <time>2020-08-02T08:11:14.000Z</time>
      </trkpt>
      <trkpt lat="43.51691" lon="3.88075">
        <ele>5</ele>
        <time>2020-08-02T08:11:16.000Z</time>
      </trkpt>
      <trkpt lat="43.51688" lon="3.88077">
        <ele>5</ele>
        <time>2020-08-02T08:11:18.000Z</time>
      </trkpt>
      <trkpt lat="43.51686" lon="3.88079">
        <ele>5</ele>
        <time>2020-08-02T08:11:20.000Z</time>
      </trkpt>
      <trkpt lat="43.51685" lon="3.88081">
        <ele>5</ele>
        <time>2020-08-02T08:11:22.000Z</time>
      </trkpt>
      <trkpt lat="43.51682" lon="3.88083">
        <ele>5</ele>
        <time>2020-08-02T08:11:24.000Z</time>
      </trkpt>
      <trkpt lat="43.51679" lon="3.88084">
        <ele>5.04499968</ele>
        <time>2020-08-02T08:11:26.000Z</time>
      </trkpt>
      <trkpt lat="43.51677" lon="3.88085">
        <ele>5.24499968</ele>
        <time>2020-08-02T08:11:28.000Z</time>
      </trkpt>
      <trkpt lat="43.51675" lon="3.88087">
        <ele>5.44499968</ele>
        <time>2020-08-02T08:11:30.000Z</time>
      </trkpt>
      <trkpt lat="43.51673" lon="3.88089">
        <ele>5.74499968</ele>
        <time>2020-08-02T08:11:33.000Z</time>
      </trkpt>
      <trkpt lat="43.51674" lon="3.88092">
        <ele>5.94499968</ele>
        <time>2020-08-02T08:11:35.000Z</time>
      </trkpt>
      <trkpt lat="43.51675" lon="3.88095">
        <ele>6</ele>
        <time>2020-08-02T08:11:38.000Z</time>
      </trkpt>
      <trkpt lat="43.51675" lon="3.88095">
        <ele>6</ele>
        <time>2020-08-02T08:11:43.000Z</time>
      </trkpt>
      <trkpt lat="43.51677" lon="3.881">
        <ele>6</ele>
        <time>2020-08-02T08:11:48.000Z</time>
      </trkpt>
      <trkpt lat="43.51678" lon="3.88102">
        <ele>6</ele>
        <time>2020-08-02T08:11:49.000Z</time>
      </trkpt>
      <trkpt lat="43.51679" lon="3.88104">
        <ele>6</ele>
        <time>2020-08-02T08:11:50.000Z</time>
      </trkpt>
      <trkpt lat="43.5168" lon="3.88107">
        <ele>6</ele>
        <time>2020-08-02T08:11:51.000Z</time>
      </trkpt>
      <trkpt lat="43.51681" lon="3.8811">
        <ele>6</ele>
        <time>2020-08-02T08:11:52.000Z</time>
      </trkpt>
      <trkpt lat="43.51683" lon="3.88114">
        <ele>6</ele>
        <time>2020-08-02T08:11:53.000Z</time>
      </trkpt>
      <trkpt lat="43.51684" lon="3.88118">
        <ele>6</ele>
        <time>2020-08-02T08:11:54.000Z</time>
      </trkpt>
      <trkpt lat="43.51686" lon="3.88122">
        <ele>6</ele>
        <time>2020-08-02T08:11:55.000Z</time>
      </trkpt>
      <trkpt lat="43.51687" lon="3.88127">
        <ele>6</ele>
        <time>2020-08-02T08:11:56.000Z</time>
      </trkpt>
      <trkpt lat="43.51689" lon="3.88132">
        <ele>6</ele>
        <time>2020-08-02T08:11:57.000Z</time>
      </trkpt>
      <trkpt lat="43.51691" lon="3.88137">
        <ele>6</ele>
        <time>2020-08-02T08:11:58.000Z</time>
      </trkpt>
      <trkpt lat="43.51693" lon="3.88142">
        <ele>6</ele>
        <time>2020-08-02T08:11:59.000Z</time>
      </trkpt>
      <trkpt lat="43.51695" lon="3.88147">
        <ele>6</ele>
        <time>2020-08-02T08:12:00.000Z</time>
      </trkpt>
      <trkpt lat="43.51697" lon="3.88152">
        <ele>6</ele>
        <time>2020-08-02T08:12:01.000Z</time>
      </trkpt>
      <trkpt lat="43.51699" lon="3.88157">
        <ele>6</ele>
        <time>2020-08-02T08:12:02.000Z</time>
      </trkpt>
      <trkpt lat="43.51701" lon="3.88163">
        <ele>6</ele>
        <time>2020-08-02T08:12:03.000Z</time>
      </trkpt>
      <trkpt lat="43.51703" lon="3.88169">
        <ele>6</ele>
        <time>2020-08-02T08:12:04.000Z</time>
      </trkpt>
      <trkpt lat="43.51705" lon="3.88174">
        <ele>6</ele>
        <time>2020-08-02T08:12:05.000Z</time>
      </trkpt>
      <trkpt lat="43.51707" lon="3.8818">
        <ele>6</ele>
        <time>2020-08-02T08:12:06.000Z</time>
      </trkpt>
      <trkpt lat="43.51709" lon="3.88187">
        <ele>6</ele>
        <time>2020-08-02T08:12:07.000Z</time>
      </trkpt>
      <trkpt lat="43.5171" lon="3.88193">
        <ele>6</ele>
        <time>2020-08-02T08:12:08.000Z</time>
      </trkpt>
      <trkpt lat="43.51712" lon="3.882">
        <ele>6</ele>
        <time>2020-08-02T08:12:09.000Z</time>
      </trkpt>
      <trkpt lat="43.51714" lon="3.88206">
        <ele>6</ele>
        <time>2020-08-02T08:12:10.000Z</time>
      </trkpt>
      <trkpt lat="43.51716" lon="3.88213">
        <ele>6</ele>
        <time>2020-08-02T08:12:11.000Z</time>
      </trkpt>
      <trkpt lat="43.51717" lon="3.88219">
        <ele>6</ele>
        <time>2020-08-02T08:12:12.000Z</time>
      </trkpt>
      <trkpt lat="43.51719" lon="3.88226">
        <ele>6</ele>
        <time>2020-08-02T08:12:13.000Z</time>
      </trkpt>
      <trkpt lat="43.51721" lon="3.88232">
        <ele>6</ele>
        <time>2020-08-02T08:12:14.000Z</time>
      </trkpt>
      <trkpt lat="43.51723" lon="3.88239">
        <ele>6</ele>
        <time>2020-08-02T08:12:15.000Z</time>
      </trkpt>
      <trkpt lat="43.51725" lon="3.88246">
        <ele>6</ele>
        <time>2020-08-02T08:12:16.000Z</time>
      </trkpt>
      <trkpt lat="43.51726" lon="3.88253">
        <ele>6</ele>
        <time>2020-08-02T08:12:17.000Z</time>
      </trkpt>
      <trkpt lat="43.51728" lon="3.8826">
        <ele>6</ele>
        <time>2020-08-02T08:12:18.000Z</time>
      </trkpt>
      <trkpt lat="43.51729" lon="3.88267">
        <ele>6</ele>
        <time>2020-08-02T08:12:19.000Z</time>
      </trkpt>
      <trkpt lat="43.51731" lon="3.88274">
        <ele>6</ele>
        <time>2020-08-02T08:12:20.000Z</time>
      </trkpt>
      <trkpt lat="43.51732" lon="3.88281">
        <ele>6</ele>
        <time>2020-08-02T08:12:21.000Z</time>
      </trkpt>
      <trkpt lat="43.51734" lon="3.88288">
        <ele>6</ele>
        <time>2020-08-02T08:12:22.000Z</time>
      </trkpt>
      <trkpt lat="43.51735" lon="3.88295">
        <ele>6</ele>
        <time>2020-08-02T08:12:23.000Z</time>
      </trkpt>
      <trkpt lat="43.51737" lon="3.88302">
        <ele>6</ele>
        <time>2020-08-02T08:12:24.000Z</time>
      </trkpt>
      <trkpt lat="43.51739" lon="3.8831">
        <ele>6</ele>
        <time>2020-08-02T08:12:25.000Z</time>
      </trkpt>
      <trkpt lat="43.5174" lon="3.88317">
        <ele>6</ele>
        <time>2020-08-02T08:12:26.000Z</time>
      </trkpt>
      <trkpt lat="43.51742" lon="3.88324">
        <ele>6</ele>
        <time>2020-08-02T08:12:27.000Z</time>
      </trkpt>
      <trkpt lat="43.51743" lon="3.88332">
        <ele>6</ele>
        <time>2020-08-02T08:12:28.000Z</time>
      </trkpt>
      <trkpt lat="43.51745" lon="3.88339">
        <ele>6</ele>
        <time>2020-08-02T08:12:29.000Z</time>
      </trkpt>
      <trkpt lat="43.51746" lon="3.88347">
        <ele>6</ele>
        <time>2020-08-02T08:12:30.000Z</time>
      </trkpt>
      <trkpt lat="43.51748" lon="3.88354">
        <ele>6</ele>
        <time>2020-08-02T08:12:31.000Z</time>
      </trkpt>
      <trkpt lat="43.51749" lon="3.88362">
        <ele>6</ele>
        <time>2020-08-02T08:12:32.000Z</time>
      </trkpt>
      <trkpt lat="43.51751" lon="3.88369">
        <ele>6</ele>
        <time>2020-08-02T08:12:33.000Z</time>
      </trkpt>
      <trkpt lat="43.51752" lon="3.88377">
        <ele>6</ele>
        <time>2020-08-02T08:12:34.000Z</time>
      </trkpt>
      <trkpt lat="43.51754" lon="3.88384">
        <ele>6</ele>
        <time>2020-08-02T08:12:35.000Z</time>
      </trkpt>
      <trkpt lat="43.51755" lon="3.88392">
        <ele>6</ele>
        <time>2020-08-02T08:12:36.000Z</time>
      </trkpt>
      <trkpt lat="43.51757" lon="3.884">
        <ele>6</ele>
        <time>2020-08-02T08:12:37.000Z</time>
      </trkpt>
      <trkpt lat="43.51758" lon="3.88407">
        <ele>6</ele>
        <time>2020-08-02T08:12:38.000Z</time>
      </trkpt>
      <trkpt lat="43.5176" lon="3.88415">
        <ele>6</ele>
        <time>2020-08-02T08:12:39.000Z</time>
      </trkpt>
      <trkpt lat="43.51761" lon="3.88423">
        <ele>6</ele>
        <time>2020-08-02T08:12:40.000Z</time>
      </trkpt>
      <trkpt lat="43.51763" lon="3.8843">
        <ele>6</ele>
        <time>2020-08-02T08:12:41.000Z</time>
      </trkpt>
      <trkpt lat="43.51764" lon="3.88438">
        <ele>6</ele>
        <time>2020-08-02T08:12:42.000Z</time>
      </trkpt>
      <trkpt lat="43.51766" lon="3.88446">
        <ele>6</ele>
        <time>2020-08-02T08:12:43.000Z</time>
      </trkpt>
      <trkpt lat="43.51767" lon="3.88453">
        <ele>6</ele>
        <time>2020-08-02T08:12:44.000Z</time>
      </trkpt>
      <trkpt lat="43.51768" lon="3.88461">
        <ele>6</ele>
        <time>2020-08-02T08:12:45.000Z</time>
      </trkpt>
      <trkpt lat="43.5177" lon="3.88469">
        <ele>6</ele>
        <time>2020-08-02T08:12:46.000Z</time>
      </trkpt>
      <trkpt lat="43.51772" lon="3.88477">
        <ele>6</ele>
        <time>2020-08-02T08:12:47.000Z</time>
      </trkpt>
      <trkpt lat="43.51773" lon="3.88485">
        <ele>6</ele>
        <time>2020-08-02T08:12:48.000Z</time>
      </trkpt>
      <trkpt lat="43.51775" lon="3.88492">
        <ele>6</ele>
        <time>2020-08-02T08:12:49.000Z</time>
      </trkpt>
      <trkpt lat="43.51776" lon="3.885">
        <ele>6</ele>
        <time>2020-08-02T08:12:50.000Z</time>
      </trkpt>
      <trkpt lat="43.51778" lon="3.88508">
        <ele>6</ele>
        <time>2020-08-02T08:12:51.000Z</time>
      </trkpt>
      <trkpt lat="43.51779" lon="3.88515">
        <ele>6</ele>
        <time>2020-08-02T08:12:52.000Z</time>
      </trkpt>
      <trkpt lat="43.5178" lon="3.88523">
        <ele>6</ele>
        <time>2020-08-02T08:12:53.000Z</time>
      </trkpt>
      <trkpt lat="43.51782" lon="3.8853">
        <ele>6</ele>
        <time>2020-08-02T08:12:54.000Z</time>
      </trkpt>
      <trkpt lat="43.51783" lon="3.88538">
        <ele>6</ele>
        <time>2020-08-02T08:12:55.000Z</time>
      </trkpt>
      <trkpt lat="43.51785" lon="3.88545">
        <ele>6</ele>
        <time>2020-08-02T08:12:56.000Z</time>
      </trkpt>
      <trkpt lat="43.51786" lon="3.88553">
        <ele>6</ele>
        <time>2020-08-02T08:12:57.000Z</time>
      </trkpt>
      <trkpt lat="43.51787" lon="3.88561">
        <ele>6.04499968</ele>
        <time>2020-08-02T08:12:58.000Z</time>
      </trkpt>
      <trkpt lat="43.51789" lon="3.88568">
        <ele>6.14499968</ele>
        <time>2020-08-02T08:12:59.000Z</time>
      </trkpt>
      <trkpt lat="43.5179" lon="3.88575">
        <ele>6.24499968</ele>
        <time>2020-08-02T08:13:00.000Z</time>
      </trkpt>
      <trkpt lat="43.51792" lon="3.88583">
        <ele>6.34499968</ele>
        <time>2020-08-02T08:13:01.000Z</time>
      </trkpt>
      <trkpt lat="43.51793" lon="3.88591">
        <ele>6.44499968</ele>
        <time>2020-08-02T08:13:02.000Z</time>
      </trkpt>
      <trkpt lat="43.51795" lon="3.88598">
        <ele>6.54499968</ele>
        <time>2020-08-02T08:13:03.000Z</time>
      </trkpt>
      <trkpt lat="43.51796" lon="3.88606">
        <ele>6.64499968</ele>
        <time>2020-08-02T08:13:04.000Z</time>
      </trkpt>
      <trkpt lat="43.51798" lon="3.88614">
        <ele>6.74499968</ele>
        <time>2020-08-02T08:13:05.000Z</time>
      </trkpt>
      <trkpt lat="43.51799" lon="3.88621">
        <ele>6.84499968</ele>
        <time>2020-08-02T08:13:06.000Z</time>
      </trkpt>
      <trkpt lat="43.51801" lon="3.88629">
        <ele>6.94499968</ele>
        <time>2020-08-02T08:13:07.000Z</time>
      </trkpt>
      <trkpt lat="43.51803" lon="3.88637">
        <ele>7</ele>
        <time>2020-08-02T08:13:08.000Z</time>
      </trkpt>
      <trkpt lat="43.51804" lon="3.88644">
        <ele>7</ele>
        <time>2020-08-02T08:13:09.000Z</time>
      </trkpt>
      <trkpt lat="43.51806" lon="3.88652">
        <ele>7</ele>
        <time>2020-08-02T08:13:10.000Z</time>
      </trkpt>
      <trkpt lat="43.51808" lon="3.8866">
        <ele>7</ele>
        <time>2020-08-02T08:13:11.000Z</time>
      </trkpt>
      <trkpt lat="43.51809" lon="3.88667">
        <ele>7</ele>
        <time>2020-08-02T08:13:12.000Z</time>
      </trkpt>
      <trkpt lat="43.51811" lon="3.88675">
        <ele>7</ele>
        <time>2020-08-02T08:13:13.000Z</time>
      </trkpt>
      <trkpt lat="43.51813" lon="3.88682">
        <ele>7</ele>
        <time>2020-08-02T08:13:14.000Z</time>
      </trkpt>
      <trkpt lat="43.51815" lon="3.8869">
        <ele>7</ele>
        <time>2020-08-02T08:13:15.000Z</time>
      </trkpt>
      <trkpt lat="43.51817" lon="3.88698">
        <ele>7</ele>
        <time>2020-08-02T08:13:16.000Z</time>
      </trkpt>
      <trkpt lat="43.51819" lon="3.88706">
        <ele>7</ele>
        <time>2020-08-02T08:13:17.000Z</time>
      </trkpt>
      <trkpt lat="43.51821" lon="3.88714">
        <ele>7</ele>
        <time>2020-08-02T08:13:18.000Z</time>
      </trkpt>
      <trkpt lat="43.51824" lon="3.88722">
        <ele>7</ele>
        <time>2020-08-02T08:13:19.000Z</time>
      </trkpt>
      <trkpt lat="43.51826" lon="3.88729">
        <ele>7</ele>
        <time>2020-08-02T08:13:20.000Z</time>
      </trkpt>
      <trkpt lat="43.51829" lon="3.88737">
        <ele>7</ele>
        <time>2020-08-02T08:13:21.000Z</time>
      </trkpt>
      <trkpt lat="43.51832" lon="3.88744">
        <ele>7</ele>
        <time>2020-08-02T08:13:22.000Z</time>
      </trkpt>
      <trkpt lat="43.51835" lon="3.88751">
        <ele>7</ele>
        <time>2020-08-02T08:13:23.000Z</time>
      </trkpt>
      <trkpt lat="43.51839" lon="3.88758">
        <ele>7</ele>
        <time>2020-08-02T08:13:24.000Z</time>
      </trkpt>
      <trkpt lat="43.51843" lon="3.88765">
        <ele>7</ele>
        <time>2020-08-02T08:13:25.000Z</time>
      </trkpt>
      <trkpt lat="43.51846" lon="3.88771">
        <ele>7</ele>
        <time>2020-08-02T08:13:26.000Z</time>
      </trkpt>
      <trkpt lat="43.5185" lon="3.88778">
        <ele>7</ele>
        <time>2020-08-02T08:13:27.000Z</time>
      </trkpt>
      <trkpt lat="43.51853" lon="3.88786">
        <ele>7</ele>
        <time>2020-08-02T08:13:28.000Z</time>
      </trkpt>
      <trkpt lat="43.51856" lon="3.88793">
        <ele>7</ele>
        <time>2020-08-02T08:13:29.000Z</time>
      </trkpt>
      <trkpt lat="43.51859" lon="3.88801">
        <ele>7</ele>
        <time>2020-08-02T08:13:30.000Z</time>
      </trkpt>
      <trkpt lat="43.51862" lon="3.88808">
        <ele>7</ele>
        <time>2020-08-02T08:13:31.000Z</time>
      </trkpt>
      <trkpt lat="43.51864" lon="3.88816">
        <ele>7</ele>
        <time>2020-08-02T08:13:32.000Z</time>
      </trkpt>
      <trkpt lat="43.51867" lon="3.88823">
        <ele>7</ele>
        <time>2020-08-02T08:13:33.000Z</time>
      </trkpt>
      <trkpt lat="43.5187" lon="3.88831">
        <ele>7</ele>
        <time>2020-08-02T08:13:34.000Z</time>
      </trkpt>
      <trkpt lat="43.51872" lon="3.88838">
        <ele>7</ele>
        <time>2020-08-02T08:13:35.000Z</time>
      </trkpt>
      <trkpt lat="43.51875" lon="3.88846">
        <ele>7</ele>
        <time>2020-08-02T08:13:36.000Z</time>
      </trkpt>
      <trkpt lat="43.51878" lon="3.88854">
        <ele>7</ele>
        <time>2020-08-02T08:13:37.000Z</time>
      </trkpt>
      <trkpt lat="43.51881" lon="3.88861">
        <ele>6.95500032</ele>
        <time>2020-08-02T08:13:38.000Z</time>
      </trkpt>
      <trkpt lat="43.51884" lon="3.88869">
        <ele>6.85500032</ele>
        <time>2020-08-02T08:13:39.000Z</time>
      </trkpt>
      <trkpt lat="43.51887" lon="3.88877">
        <ele>6.75500032</ele>
        <time>2020-08-02T08:13:40.000Z</time>
      </trkpt>
      <trkpt lat="43.5189" lon="3.88885">
        <ele>6.65500032</ele>
        <time>2020-08-02T08:13:41.000Z</time>
      </trkpt>
      <trkpt lat="43.51893" lon="3.88893">
        <ele>6.55500032</ele>
        <time>2020-08-02T08:13:42.000Z</time>
      </trkpt>
      <trkpt lat="43.51896" lon="3.88901">
        <ele>6.45500032</ele>
        <time>2020-08-02T08:13:43.000Z</time>
      </trkpt>
      <trkpt lat="43.51899" lon="3.88909">
        <ele>6.35500032</ele>
        <time>2020-08-02T08:13:44.000Z</time>
      </trkpt>
      <trkpt lat="43.51902" lon="3.88917">
        <ele>6.25500032</ele>
        <time>2020-08-02T08:13:45.000Z</time>
      </trkpt>
      <trkpt lat="43.51905" lon="3.88925">
        <ele>6.15500032</ele>
        <time>2020-08-02T08:13:46.000Z</time>
      </trkpt>
      <trkpt lat="43.51908" lon="3.88933">
        <ele>6.05500032</ele>
        <time>2020-08-02T08:13:47.000Z</time>
      </trkpt>
      <trkpt lat="43.51911" lon="3.88941">
        <ele>6</ele>
        <time>2020-08-02T08:13:48.000Z</time>
      </trkpt>
      <trkpt lat="43.51914" lon="3.88949">
        <ele>6</ele>
        <time>2020-08-02T08:13:49.000Z</time>
      </trkpt>
      <trkpt lat="43.51917" lon="3.88957">
        <ele>6</ele>
        <time>2020-08-02T08:13:50.000Z</time>
      </trkpt>
      <trkpt lat="43.5192" lon="3.88965">
        <ele>6</ele>
        <time>2020-08-02T08:13:51.000Z</time>
      </trkpt>
      <trkpt lat="43.51923" lon="3.88973">
        <ele>6</ele>
        <time>2020-08-02T08:13:52.000Z</time>
      </trkpt>
      <trkpt lat="43.51926" lon="3.88981">
        <ele>6</ele>
        <time>2020-08-02T08:13:53.000Z</time>
      </trkpt>
      <trkpt lat="43.51929" lon="3.88988">
        <ele>6</ele>
        <time>2020-08-02T08:13:54.000Z</time>
      </trkpt>
      <trkpt lat="43.51932" lon="3.88996">
        <ele>6</ele>
        <time>2020-08-02T08:13:55.000Z</time>
      </trkpt>
      <trkpt lat="43.51935" lon="3.89004">
        <ele>6</ele>
        <time>2020-08-02T08:13:56.000Z</time>
      </trkpt>
      <trkpt lat="43.51938" lon="3.89012">
        <ele>6</ele>
        <time>2020-08-02T08:13:57.000Z</time>
      </trkpt>
      <trkpt lat="43.51941" lon="3.8902">
        <ele>6</ele>
        <time>2020-08-02T08:13:58.000Z</time>
      </trkpt>
      <trkpt lat="43.51944" lon="3.89028">
        <ele>6</ele>
        <time>2020-08-02T08:13:59.000Z</time>
      </trkpt>
      <trkpt lat="43.51947" lon="3.89036">
        <ele>6</ele>
        <time>2020-08-02T08:14:00.000Z</time>
      </trkpt>
      <trkpt lat="43.5195" lon="3.89044">
        <ele>6</ele>
        <time>2020-08-02T08:14:01.000Z</time>
      </trkpt>
      <trkpt lat="43.51953" lon="3.89052">
        <ele>6</ele>
        <time>2020-08-02T08:14:02.000Z</time>
      </trkpt>
      <trkpt lat="43.51956" lon="3.8906">
        <ele>6</ele>
        <time>2020-08-02T08:14:03.000Z</time>
      </trkpt>
      <trkpt lat="43.51959" lon="3.89069">
        <ele>6</ele>
        <time>2020-08-02T08:14:04.000Z</time>
      </trkpt>
      <trkpt lat="43.51962" lon="3.89077">
        <ele>6</ele>
        <time>2020-08-02T08:14:05.000Z</time>
      </trkpt>
      <trkpt lat="43.51965" lon="3.89085">
        <ele>6</ele>
        <time>2020-08-02T08:14:06.000Z</time>
      </trkpt>
      <trkpt lat="43.51968" lon="3.89093">
        <ele>6</ele>
        <time>2020-08-02T08:14:07.000Z</time>
      </trkpt>
      <trkpt lat="43.51971" lon="3.89101">
        <ele>6</ele>
        <time>2020-08-02T08:14:08.000Z</time>
      </trkpt>
      <trkpt lat="43.51974" lon="3.89109">
        <ele>6</ele>
        <time>2020-08-02T08:14:09.000Z</time>
      </trkpt>
      <trkpt lat="43.51977" lon="3.89117">
        <ele>6</ele>
        <time>2020-08-02T08:14:10.000Z</time>
      </trkpt>
      <trkpt lat="43.5198" lon="3.89125">
        <ele>6</ele>
        <time>2020-08-02T08:14:11.000Z</time>
      </trkpt>
      <trkpt lat="43.51983" lon="3.89133">
        <ele>6</ele>
        <time>2020-08-02T08:14:12.000Z</time>
      </trkpt>
      <trkpt lat="43.51986" lon="3.89141">
        <ele>6</ele>
        <time>2020-08-02T08:14:13.000Z</time>
      </trkpt>
      <trkpt lat="43.51989" lon="3.89149">
        <ele>6</ele>
        <time>2020-08-02T08:14:14.000Z</time>
      </trkpt>
      <trkpt lat="43.51992" lon="3.89157">
        <ele>6</ele>
        <time>2020-08-02T08:14:15.000Z</time>
      </trkpt>
      <trkpt lat="43.51995" lon="3.89165">
        <ele>6</ele>
        <time>2020-08-02T08:14:16.000Z</time>
      </trkpt>
      <trkpt lat="43.51998" lon="3.89173">
        <ele>6</ele>
        <time>2020-08-02T08:14:17.000Z</time>
      </trkpt>
      <trkpt lat="43.52001" lon="3.89181">
        <ele>6</ele>
        <time>2020-08-02T08:14:18.000Z</time>
      </trkpt>
      <trkpt lat="43.52004" lon="3.89189">
        <ele>6</ele>
        <time>2020-08-02T08:14:19.000Z</time>
      </trkpt>
      <trkpt lat="43.52007" lon="3.89197">
        <ele>6</ele>
        <time>2020-08-02T08:14:20.000Z</time>
      </trkpt>
      <trkpt lat="43.5201" lon="3.89204">
        <ele>6</ele>
        <time>2020-08-02T08:14:21.000Z</time>
      </trkpt>
      <trkpt lat="43.52013" lon="3.89212">
        <ele>6</ele>
        <time>2020-08-02T08:14:22.000Z</time>
      </trkpt>
      <trkpt lat="43.52016" lon="3.8922">
        <ele>6</ele>
        <time>2020-08-02T08:14:23.000Z</time>
      </trkpt>
      <trkpt lat="43.5202" lon="3.89227">
        <ele>6</ele>
        <time>2020-08-02T08:14:24.000Z</time>
      </trkpt>
      <trkpt lat="43.52023" lon="3.89235">
        <ele>6</ele>
        <time>2020-08-02T08:14:25.000Z</time>
      </trkpt>
      <trkpt lat="43.52027" lon="3.89242">
        <ele>6</ele>
        <time>2020-08-02T08:14:26.000Z</time>
      </trkpt>
      <trkpt lat="43.52031" lon="3.89249">
        <ele>6</ele>
        <time>2020-08-02T08:14:27.000Z</time>
      </trkpt>
      <trkpt lat="43.52035" lon="3.89256">
        <ele>6</ele>
        <time>2020-08-02T08:14:28.000Z</time>
      </trkpt>
      <trkpt lat="43.52038" lon="3.89263">
        <ele>6</ele>
        <time>2020-08-02T08:14:29.000Z</time>
      </trkpt>
      <trkpt lat="43.52042" lon="3.8927">
        <ele>6</ele>
        <time>2020-08-02T08:14:30.000Z</time>
      </trkpt>
      <trkpt lat="43.52046" lon="3.89277">
        <ele>6</ele>
        <time>2020-08-02T08:14:31.000Z</time>
      </trkpt>
      <trkpt lat="43.5205" lon="3.89284">
        <ele>6</ele>
        <time>2020-08-02T08:14:32.000Z</time>
      </trkpt>
      <trkpt lat="43.52054" lon="3.89292">
        <ele>6</ele>
        <time>2020-08-02T08:14:33.000Z</time>
      </trkpt>
      <trkpt lat="43.52058" lon="3.89299">
        <ele>6</ele>
        <time>2020-08-02T08:14:34.000Z</time>
      </trkpt>
      <trkpt lat="43.52062" lon="3.89306">
        <ele>6</ele>
        <time>2020-08-02T08:14:35.000Z</time>
      </trkpt>
      <trkpt lat="43.52066" lon="3.89313">
        <ele>6</ele>
        <time>2020-08-02T08:14:36.000Z</time>
      </trkpt>
      <trkpt lat="43.5207" lon="3.8932">
        <ele>6</ele>
        <time>2020-08-02T08:14:37.000Z</time>
      </trkpt>
      <trkpt lat="43.52074" lon="3.89327">
        <ele>6</ele>
        <time>2020-08-02T08:14:38.000Z</time>
      </trkpt>
      <trkpt lat="43.52078" lon="3.89335">
        <ele>6</ele>
        <time>2020-08-02T08:14:39.000Z</time>
      </trkpt>
      <trkpt lat="43.52082" lon="3.89342">
        <ele>6</ele>
        <time>2020-08-02T08:14:40.000Z</time>
      </trkpt>
      <trkpt lat="43.52085" lon="3.89349">
        <ele>6</ele>
        <time>2020-08-02T08:14:41.000Z</time>
      </trkpt>
      <trkpt lat="43.52089" lon="3.89356">
        <ele>6</ele>
        <time>2020-08-02T08:14:42.000Z</time>
      </trkpt>
      <trkpt lat="43.52093" lon="3.89363">
        <ele>6</ele>
        <time>2020-08-02T08:14:43.000Z</time>
      </trkpt>
      <trkpt lat="43.52097" lon="3.8937">
        <ele>6</ele>
        <time>2020-08-02T08:14:44.000Z</time>
      </trkpt>
      <trkpt lat="43.52101" lon="3.89377">
        <ele>6</ele>
        <time>2020-08-02T08:14:45.000Z</time>
      </trkpt>
      <trkpt lat="43.52105" lon="3.89384">
        <ele>6</ele>
        <time>2020-08-02T08:14:46.000Z</time>
      </trkpt>
      <trkpt lat="43.52109" lon="3.89391">
        <ele>6</ele>
        <time>2020-08-02T08:14:47.000Z</time>
      </trkpt>
      <trkpt lat="43.52113" lon="3.89398">
        <ele>6</ele>
        <time>2020-08-02T08:14:48.000Z</time>
      </trkpt>
      <trkpt lat="43.52116" lon="3.89405">
        <ele>6</ele>
        <time>2020-08-02T08:14:49.000Z</time>
      </trkpt>
      <trkpt lat="43.5212" lon="3.89413">
        <ele>6</ele>
        <time>2020-08-02T08:14:50.000Z</time>
      </trkpt>
      <trkpt lat="43.52122" lon="3.89421">
        <ele>6</ele>
        <time>2020-08-02T08:14:51.000Z</time>
      </trkpt>
      <trkpt lat="43.52124" lon="3.89429">
        <ele>6</ele>
        <time>2020-08-02T08:14:52.000Z</time>
      </trkpt>
      <trkpt lat="43.52127" lon="3.89437">
        <ele>6</ele>
        <time>2020-08-02T08:14:53.000Z</time>
      </trkpt>
      <trkpt lat="43.5213" lon="3.89444">
        <ele>6</ele>
        <time>2020-08-02T08:14:54.000Z</time>
      </trkpt>
      <trkpt lat="43.52134" lon="3.89451">
        <ele>6</ele>
        <time>2020-08-02T08:14:55.000Z</time>
      </trkpt>
      <trkpt lat="43.52138" lon="3.89458">
        <ele>6</ele>
        <time>2020-08-02T08:14:56.000Z</time>
      </trkpt>
      <trkpt lat="43.52141" lon="3.89464">
        <ele>6</ele>
        <time>2020-08-02T08:14:57.000Z</time>
      </trkpt>
      <trkpt lat="43.52145" lon="3.8947">
        <ele>6</ele>
        <time>2020-08-02T08:14:58.000Z</time>
      </trkpt>
      <trkpt lat="43.52148" lon="3.89476">
        <ele>6</ele>
        <time>2020-08-02T08:14:59.000Z</time>
      </trkpt>
      <trkpt lat="43.52151" lon="3.89482">
        <ele>6</ele>
        <time>2020-08-02T08:15:00.000Z</time>
      </trkpt>
      <trkpt lat="43.52155" lon="3.89488">
        <ele>6</ele>
        <time>2020-08-02T08:15:01.000Z</time>
      </trkpt>
      <trkpt lat="43.52158" lon="3.89494">
        <ele>6</ele>
        <time>2020-08-02T08:15:02.000Z</time>
      </trkpt>
      <trkpt lat="43.52161" lon="3.89499">
        <ele>6</ele>
        <time>2020-08-02T08:15:03.000Z</time>
      </trkpt>
      <trkpt lat="43.52164" lon="3.89505">
        <ele>6</ele>
        <time>2020-08-02T08:15:04.000Z</time>
      </trkpt>
      <trkpt lat="43.52167" lon="3.8951">
        <ele>6</ele>
        <time>2020-08-02T08:15:05.000Z</time>
      </trkpt>
      <trkpt lat="43.5217" lon="3.89516">
        <ele>6</ele>
        <time>2020-08-02T08:15:06.000Z</time>
      </trkpt>
      <trkpt lat="43.52173" lon="3.89522">
        <ele>6</ele>
        <time>2020-08-02T08:15:07.000Z</time>
      </trkpt>
      <trkpt lat="43.52177" lon="3.89528">
        <ele>6</ele>
        <time>2020-08-02T08:15:08.000Z</time>
      </trkpt>
      <trkpt lat="43.5218" lon="3.89534">
        <ele>6</ele>
        <time>2020-08-02T08:15:09.000Z</time>
      </trkpt>
      <trkpt lat="43.52183" lon="3.8954">
        <ele>6</ele>
        <time>2020-08-02T08:15:10.000Z</time>
      </trkpt>
      <trkpt lat="43.52186" lon="3.89546">
        <ele>6</ele>
        <time>2020-08-02T08:15:11.000Z</time>
      </trkpt>
      <trkpt lat="43.5219" lon="3.89552">
        <ele>6</ele>
        <time>2020-08-02T08:15:12.000Z</time>
      </trkpt>
      <trkpt lat="43.52193" lon="3.89558">
        <ele>6</ele>
        <time>2020-08-02T08:15:13.000Z</time>
      </trkpt>
      <trkpt lat="43.52197" lon="3.89565">
        <ele>6</ele>
        <time>2020-08-02T08:15:14.000Z</time>
      </trkpt>
      <trkpt lat="43.522" lon="3.89571">
        <ele>6</ele>
        <time>2020-08-02T08:15:15.000Z</time>
      </trkpt>
      <trkpt lat="43.52203" lon="3.89578">
        <ele>6</ele>
        <time>2020-08-02T08:15:16.000Z</time>
      </trkpt>
      <trkpt lat="43.52207" lon="3.89584">
        <ele>6</ele>
        <time>2020-08-02T08:15:17.000Z</time>
      </trkpt>
      <trkpt lat="43.5221" lon="3.8959">
        <ele>5.9588356626506</ele>
        <time>2020-08-02T08:15:18.000Z</time>
      </trkpt>
      <trkpt lat="43.52213" lon="3.89596">
        <ele>5.8584340562249</ele>
        <time>2020-08-02T08:15:19.000Z</time>
      </trkpt>
      <trkpt lat="43.52217" lon="3.89602">
        <ele>5.7580324497992</ele>
        <time>2020-08-02T08:15:20.000Z</time>
      </trkpt>
      <trkpt lat="43.5222" lon="3.89607">
        <ele>5.6576308433735</ele>
        <time>2020-08-02T08:15:21.000Z</time>
      </trkpt>
      <trkpt lat="43.52224" lon="3.89613">
        <ele>5.5572292369478</ele>
        <time>2020-08-02T08:15:22.000Z</time>
      </trkpt>
      <trkpt lat="43.52227" lon="3.89619">
        <ele>5.4568276305221</ele>
        <time>2020-08-02T08:15:23.000Z</time>
      </trkpt>
      <trkpt lat="43.5223" lon="3.89625">
        <ele>5.3564260240964</ele>
        <time>2020-08-02T08:15:24.000Z</time>
      </trkpt>
      <trkpt lat="43.52233" lon="3.89631">
        <ele>5.2560244176707</ele>
        <time>2020-08-02T08:15:25.000Z</time>
      </trkpt>
      <trkpt lat="43.52237" lon="3.89637">
        <ele>5.155622811245</ele>
        <time>2020-08-02T08:15:26.000Z</time>
      </trkpt>
      <trkpt lat="43.5224" lon="3.89643">
        <ele>5.0552212048193</ele>
        <time>2020-08-02T08:15:27.000Z</time>
      </trkpt>
      <trkpt lat="43.52243" lon="3.89649">
        <ele>5.0435621432138</ele>
        <time>2020-08-02T08:15:28.000Z</time>
      </trkpt>
      <trkpt lat="43.52246" lon="3.89656">
        <ele>5.1403675943056</ele>
        <time>2020-08-02T08:15:29.000Z</time>
      </trkpt>
      <trkpt lat="43.52249" lon="3.89662">
        <ele>5.2371730453973</ele>
        <time>2020-08-02T08:15:30.000Z</time>
      </trkpt>
      <trkpt lat="43.52252" lon="3.89668">
        <ele>5.333978496489</ele>
        <time>2020-08-02T08:15:31.000Z</time>
      </trkpt>
      <trkpt lat="43.52255" lon="3.89674">
        <ele>5.4307839475807</ele>
        <time>2020-08-02T08:15:32.000Z</time>
      </trkpt>
      <trkpt lat="43.52259" lon="3.8968">
        <ele>5.5275893986724</ele>
        <time>2020-08-02T08:15:33.000Z</time>
      </trkpt>
      <trkpt lat="43.52262" lon="3.89686">
        <ele>5.6243948497641</ele>
        <time>2020-08-02T08:15:34.000Z</time>
      </trkpt>
      <trkpt lat="43.52266" lon="3.89691">
        <ele>5.7212003008559</ele>
        <time>2020-08-02T08:15:35.000Z</time>
      </trkpt>
      <trkpt lat="43.52269" lon="3.89697">
        <ele>5.8180057519476</ele>
        <time>2020-08-02T08:15:36.000Z</time>
      </trkpt>
      <trkpt lat="43.52272" lon="3.89703">
        <ele>5.9148112030393</ele>
        <time>2020-08-02T08:15:37.000Z</time>
      </trkpt>
      <trkpt lat="43.52275" lon="3.89709">
        <ele>5.9875904901459</ele>
        <time>2020-08-02T08:15:38.000Z</time>
      </trkpt>
      <trkpt lat="43.52278" lon="3.89715">
        <ele>5.884177908028</ele>
        <time>2020-08-02T08:15:39.000Z</time>
      </trkpt>
      <trkpt lat="43.52282" lon="3.89721">
        <ele>5.7807653259101</ele>
        <time>2020-08-02T08:15:40.000Z</time>
      </trkpt>
      <trkpt lat="43.52285" lon="3.89727">
        <ele>5.6773527437923</ele>
        <time>2020-08-02T08:15:41.000Z</time>
      </trkpt>
      <trkpt lat="43.52288" lon="3.89733">
        <ele>5.5739401616744</ele>
        <time>2020-08-02T08:15:42.000Z</time>
      </trkpt>
      <trkpt lat="43.52292" lon="3.89739">
        <ele>5.4705275795565</ele>
        <time>2020-08-02T08:15:43.000Z</time>
      </trkpt>
      <trkpt lat="43.52295" lon="3.89745">
        <ele>5.3671149974387</ele>
        <time>2020-08-02T08:15:44.000Z</time>
      </trkpt>
      <trkpt lat="43.52298" lon="3.89751">
        <ele>5.2637024153208</ele>
        <time>2020-08-02T08:15:45.000Z</time>
      </trkpt>
      <trkpt lat="43.52302" lon="3.89758">
        <ele>5.1602898332029</ele>
        <time>2020-08-02T08:15:46.000Z</time>
      </trkpt>
      <trkpt lat="43.52305" lon="3.89764">
        <ele>5.0568772510851</ele>
        <time>2020-08-02T08:15:47.000Z</time>
      </trkpt>
      <trkpt lat="43.52308" lon="3.8977">
        <ele>5</ele>
        <time>2020-08-02T08:15:48.000Z</time>
      </trkpt>
      <trkpt lat="43.52312" lon="3.89776">
        <ele>5</ele>
        <time>2020-08-02T08:15:49.000Z</time>
      </trkpt>
      <trkpt lat="43.52315" lon="3.89782">
        <ele>5</ele>
        <time>2020-08-02T08:15:50.000Z</time>
      </trkpt>
      <trkpt lat="43.52319" lon="3.89789">
        <ele>5</ele>
        <time>2020-08-02T08:15:51.000Z</time>
      </trkpt>
      <trkpt lat="43.52322" lon="3.89795">
        <ele>5</ele>
        <time>2020-08-02T08:15:52.000Z</time>
      </trkpt>
      <trkpt lat="43.52326" lon="3.89801">
        <ele>5</ele>
        <time>2020-08-02T08:15:53.000Z</time>
      </trkpt>
      <trkpt lat="43.5233" lon="3.89808">
        <ele>5</ele>
        <time>2020-08-02T08:15:54.000Z</time>
      </trkpt>
      <trkpt lat="43.52334" lon="3.89814">
        <ele>5</ele>
        <time>2020-08-02T08:15:55.000Z</time>
      </trkpt>
      <trkpt lat="43.52338" lon="3.8982">
        <ele>5</ele>
        <time>2020-08-02T08:15:56.000Z</time>
      </trkpt>
      <trkpt lat="43.52342" lon="3.89826">
        <ele>5</ele>
        <time>2020-08-02T08:15:57.000Z</time>
      </trkpt>
      <trkpt lat="43.52346" lon="3.89832">
        <ele>5.0430433495757</ele>
        <time>2020-08-02T08:15:58.000Z</time>
      </trkpt>
      <trkpt lat="43.5235" lon="3.89837">
        <ele>5.1431434176117</ele>
        <time>2020-08-02T08:15:59.000Z</time>
      </trkpt>
      <trkpt lat="43.52353" lon="3.89843">
        <ele>5.2432434856477</ele>
        <time>2020-08-02T08:16:00.000Z</time>
      </trkpt>
      <trkpt lat="43.52357" lon="3.89849">
        <ele>5.3433435536838</ele>
        <time>2020-08-02T08:16:01.000Z</time>
      </trkpt>
      <trkpt lat="43.52361" lon="3.89855">
        <ele>5.4434436217198</ele>
        <time>2020-08-02T08:16:02.000Z</time>
      </trkpt>
      <trkpt lat="43.52364" lon="3.89861">
        <ele>5.5435436897558</ele>
        <time>2020-08-02T08:16:03.000Z</time>
      </trkpt>
      <trkpt lat="43.52367" lon="3.89868">
        <ele>5.6436437577918</ele>
        <time>2020-08-02T08:16:04.000Z</time>
      </trkpt>
      <trkpt lat="43.5237" lon="3.89874">
        <ele>5.7437438258278</ele>
        <time>2020-08-02T08:16:05.000Z</time>
      </trkpt>
      <trkpt lat="43.52374" lon="3.8988">
        <ele>5.8438438938638</ele>
        <time>2020-08-02T08:16:06.000Z</time>
      </trkpt>
      <trkpt lat="43.52377" lon="3.89886">
        <ele>5.9439439618998</ele>
        <time>2020-08-02T08:16:07.000Z</time>
      </trkpt>
      <trkpt lat="43.5238" lon="3.89891">
        <ele>5.9559559700642</ele>
        <time>2020-08-02T08:16:08.000Z</time>
      </trkpt>
      <trkpt lat="43.52384" lon="3.89896">
        <ele>5.8558559020281</ele>
        <time>2020-08-02T08:16:09.000Z</time>
      </trkpt>
      <trkpt lat="43.52386" lon="3.89901">
        <ele>5.7557558339921</ele>
        <time>2020-08-02T08:16:10.000Z</time>
      </trkpt>
      <trkpt lat="43.52389" lon="3.89907">
        <ele>5.6556557659561</ele>
        <time>2020-08-02T08:16:11.000Z</time>
      </trkpt>
      <trkpt lat="43.52392" lon="3.89913">
        <ele>5.5555556979201</ele>
        <time>2020-08-02T08:16:12.000Z</time>
      </trkpt>
      <trkpt lat="43.52396" lon="3.8992">
        <ele>5.4554556298841</ele>
        <time>2020-08-02T08:16:13.000Z</time>
      </trkpt>
      <trkpt lat="43.524" lon="3.89927">
        <ele>5.3553555618481</ele>
        <time>2020-08-02T08:16:14.000Z</time>
      </trkpt>
      <trkpt lat="43.52404" lon="3.89934">
        <ele>5.255255493812</ele>
        <time>2020-08-02T08:16:15.000Z</time>
      </trkpt>
      <trkpt lat="43.52408" lon="3.89941">
        <ele>5.155155425776</ele>
        <time>2020-08-02T08:16:16.000Z</time>
      </trkpt>
      <trkpt lat="43.52412" lon="3.89948">
        <ele>5.05505535774</ele>
        <time>2020-08-02T08:16:17.000Z</time>
      </trkpt>
      <trkpt lat="43.52416" lon="3.89954">
        <ele>5</ele>
        <time>2020-08-02T08:16:18.000Z</time>
      </trkpt>
      <trkpt lat="43.5242" lon="3.89961">
        <ele>5</ele>
        <time>2020-08-02T08:16:19.000Z</time>
      </trkpt>
      <trkpt lat="43.52423" lon="3.89968">
        <ele>5</ele>
        <time>2020-08-02T08:16:20.000Z</time>
      </trkpt>
      <trkpt lat="43.52427" lon="3.89974">
        <ele>5</ele>
        <time>2020-08-02T08:16:21.000Z</time>
      </trkpt>
      <trkpt lat="43.52431" lon="3.89981">
        <ele>5</ele>
        <time>2020-08-02T08:16:22.000Z</time>
      </trkpt>
      <trkpt lat="43.52434" lon="3.89988">
        <ele>5</ele>
        <time>2020-08-02T08:16:23.000Z</time>
      </trkpt>
      <trkpt lat="43.52438" lon="3.89995">
        <ele>5</ele>
        <time>2020-08-02T08:16:24.000Z</time>
      </trkpt>
      <trkpt lat="43.52442" lon="3.90002">
        <ele>5</ele>
        <time>2020-08-02T08:16:25.000Z</time>
      </trkpt>
      <trkpt lat="43.52446" lon="3.90008">
        <ele>5</ele>
        <time>2020-08-02T08:16:26.000Z</time>
      </trkpt>
      <trkpt lat="43.52449" lon="3.90015">
        <ele>5</ele>
        <time>2020-08-02T08:16:27.000Z</time>
      </trkpt>
      <trkpt lat="43.52453" lon="3.90022">
        <ele>5</ele>
        <time>2020-08-02T08:16:28.000Z</time>
      </trkpt>
      <trkpt lat="43.52456" lon="3.90029">
        <ele>5</ele>
        <time>2020-08-02T08:16:29.000Z</time>
      </trkpt>
      <trkpt lat="43.5246" lon="3.90036">
        <ele>5</ele>
        <time>2020-08-02T08:16:30.000Z</time>
      </trkpt>
      <trkpt lat="43.52464" lon="3.90042">
        <ele>5</ele>
        <time>2020-08-02T08:16:31.000Z</time>
      </trkpt>
      <trkpt lat="43.52468" lon="3.90049">
        <ele>5</ele>
        <time>2020-08-02T08:16:32.000Z</time>
      </trkpt>
      <trkpt lat="43.52471" lon="3.90056">
        <ele>5</ele>
        <time>2020-08-02T08:16:33.000Z</time>
      </trkpt>
      <trkpt lat="43.52475" lon="3.90062">
        <ele>5</ele>
        <time>2020-08-02T08:16:34.000Z</time>
      </trkpt>
      <trkpt lat="43.52479" lon="3.90068">
        <ele>5</ele>
        <time>2020-08-02T08:16:35.000Z</time>
      </trkpt>
      <trkpt lat="43.52482" lon="3.90074">
        <ele>5</ele>
        <time>2020-08-02T08:16:36.000Z</time>
      </trkpt>
      <trkpt lat="43.52486" lon="3.90081">
        <ele>5</ele>
        <time>2020-08-02T08:16:37.000Z</time>
      </trkpt>
      <trkpt lat="43.52489" lon="3.90087">
        <ele>5</ele>
        <time>2020-08-02T08:16:38.000Z</time>
      </trkpt>
      <trkpt lat="43.52492" lon="3.90094">
        <ele>5</ele>
        <time>2020-08-02T08:16:39.000Z</time>
      </trkpt>
      <trkpt lat="43.52496" lon="3.901">
        <ele>5</ele>
        <time>2020-08-02T08:16:40.000Z</time>
      </trkpt>
      <trkpt lat="43.52499" lon="3.90106">
        <ele>5</ele>
        <time>2020-08-02T08:16:41.000Z</time>
      </trkpt>
      <trkpt lat="43.52503" lon="3.90112">
        <ele>5</ele>
        <time>2020-08-02T08:16:42.000Z</time>
      </trkpt>
      <trkpt lat="43.52507" lon="3.90118">
        <ele>5</ele>
        <time>2020-08-02T08:16:43.000Z</time>
      </trkpt>
      <trkpt lat="43.5251" lon="3.90124">
        <ele>5</ele>
        <time>2020-08-02T08:16:44.000Z</time>
      </trkpt>
      <trkpt lat="43.52514" lon="3.9013">
        <ele>5</ele>
        <time>2020-08-02T08:16:45.000Z</time>
      </trkpt>
      <trkpt lat="43.52517" lon="3.90137">
        <ele>5</ele>
        <time>2020-08-02T08:16:46.000Z</time>
      </trkpt>
      <trkpt lat="43.5252" lon="3.90143">
        <ele>5</ele>
        <time>2020-08-02T08:16:47.000Z</time>
      </trkpt>
      <trkpt lat="43.52523" lon="3.90149">
        <ele>5</ele>
        <time>2020-08-02T08:16:48.000Z</time>
      </trkpt>
      <trkpt lat="43.52526" lon="3.90155">
        <ele>5</ele>
        <time>2020-08-02T08:16:49.000Z</time>
      </trkpt>
      <trkpt lat="43.5253" lon="3.90161">
        <ele>5</ele>
        <time>2020-08-02T08:16:50.000Z</time>
      </trkpt>
      <trkpt lat="43.52533" lon="3.90168">
        <ele>5</ele>
        <time>2020-08-02T08:16:51.000Z</time>
      </trkpt>
      <trkpt lat="43.52536" lon="3.90174">
        <ele>5</ele>
        <time>2020-08-02T08:16:52.000Z</time>
      </trkpt>
      <trkpt lat="43.5254" lon="3.9018">
        <ele>5</ele>
        <time>2020-08-02T08:16:53.000Z</time>
      </trkpt>
      <trkpt lat="43.52543" lon="3.90186">
        <ele>5</ele>
        <time>2020-08-02T08:16:54.000Z</time>
      </trkpt>
      <trkpt lat="43.52547" lon="3.90192">
        <ele>5</ele>
        <time>2020-08-02T08:16:55.000Z</time>
      </trkpt>
      <trkpt lat="43.5255" lon="3.90198">
        <ele>5</ele>
        <time>2020-08-02T08:16:56.000Z</time>
      </trkpt>
      <trkpt lat="43.52554" lon="3.90205">
        <ele>5</ele>
        <time>2020-08-02T08:16:57.000Z</time>
      </trkpt>
      <trkpt lat="43.52557" lon="3.90211">
        <ele>5</ele>
        <time>2020-08-02T08:16:58.000Z</time>
      </trkpt>
      <trkpt lat="43.5256" lon="3.90217">
        <ele>5</ele>
        <time>2020-08-02T08:16:59.000Z</time>
      </trkpt>
      <trkpt lat="43.52563" lon="3.90223">
        <ele>5</ele>
        <time>2020-08-02T08:17:00.000Z</time>
      </trkpt>
      <trkpt lat="43.52567" lon="3.90229">
        <ele>5</ele>
        <time>2020-08-02T08:17:01.000Z</time>
      </trkpt>
      <trkpt lat="43.5257" lon="3.90235">
        <ele>5</ele>
        <time>2020-08-02T08:17:02.000Z</time>
      </trkpt>
      <trkpt lat="43.52574" lon="3.90242">
        <ele>5</ele>
        <time>2020-08-02T08:17:03.000Z</time>
      </trkpt>
      <trkpt lat="43.52577" lon="3.90248">
        <ele>5</ele>
        <time>2020-08-02T08:17:04.000Z</time>
      </trkpt>
      <trkpt lat="43.52581" lon="3.90254">
        <ele>5</ele>
        <time>2020-08-02T08:17:05.000Z</time>
      </trkpt>
      <trkpt lat="43.52584" lon="3.9026">
        <ele>5</ele>
        <time>2020-08-02T08:17:06.000Z</time>
      </trkpt>
      <trkpt lat="43.52588" lon="3.90267">
        <ele>5</ele>
        <time>2020-08-02T08:17:07.000Z</time>
      </trkpt>
      <trkpt lat="43.52591" lon="3.90273">
        <ele>5</ele>
        <time>2020-08-02T08:17:08.000Z</time>
      </trkpt>
      <trkpt lat="43.52595" lon="3.90279">
        <ele>5</ele>
        <time>2020-08-02T08:17:09.000Z</time>
      </trkpt>
      <trkpt lat="43.52598" lon="3.90285">
        <ele>5</ele>
        <time>2020-08-02T08:17:10.000Z</time>
      </trkpt>
      <trkpt lat="43.52602" lon="3.90291">
        <ele>5</ele>
        <time>2020-08-02T08:17:11.000Z</time>
      </trkpt>
      <trkpt lat="43.52605" lon="3.90297">
        <ele>5</ele>
        <time>2020-08-02T08:17:12.000Z</time>
      </trkpt>
      <trkpt lat="43.52608" lon="3.90303">
        <ele>5</ele>
        <time>2020-08-02T08:17:13.000Z</time>
      </trkpt>
      <trkpt lat="43.52612" lon="3.9031">
        <ele>5</ele>
        <time>2020-08-02T08:17:14.000Z</time>
      </trkpt>
      <trkpt lat="43.52615" lon="3.90316">
        <ele>5</ele>
        <time>2020-08-02T08:17:15.000Z</time>
      </trkpt>
      <trkpt lat="43.52618" lon="3.90322">
        <ele>5</ele>
        <time>2020-08-02T08:17:16.000Z</time>
      </trkpt>
      <trkpt lat="43.52621" lon="3.90328">
        <ele>5</ele>
        <time>2020-08-02T08:17:17.000Z</time>
      </trkpt>
      <trkpt lat="43.52625" lon="3.90334">
        <ele>5</ele>
        <time>2020-08-02T08:17:18.000Z</time>
      </trkpt>
      <trkpt lat="43.52628" lon="3.9034">
        <ele>5</ele>
        <time>2020-08-02T08:17:19.000Z</time>
      </trkpt>
      <trkpt lat="43.52632" lon="3.90347">
        <ele>5</ele>
        <time>2020-08-02T08:17:20.000Z</time>
      </trkpt>
      <trkpt lat="43.52636" lon="3.90353">
        <ele>5</ele>
        <time>2020-08-02T08:17:21.000Z</time>
      </trkpt>
      <trkpt lat="43.52639" lon="3.90359">
        <ele>5</ele>
        <time>2020-08-02T08:17:22.000Z</time>
      </trkpt>
      <trkpt lat="43.52642" lon="3.90366">
        <ele>5</ele>
        <time>2020-08-02T08:17:23.000Z</time>
      </trkpt>
      <trkpt lat="43.52646" lon="3.90372">
        <ele>5</ele>
        <time>2020-08-02T08:17:24.000Z</time>
      </trkpt>
      <trkpt lat="43.52649" lon="3.90378">
        <ele>5</ele>
        <time>2020-08-02T08:17:25.000Z</time>
      </trkpt>
      <trkpt lat="43.52653" lon="3.90384">
        <ele>5</ele>
        <time>2020-08-02T08:17:26.000Z</time>
      </trkpt>
      <trkpt lat="43.52656" lon="3.9039">
        <ele>5</ele>
        <time>2020-08-02T08:17:27.000Z</time>
      </trkpt>
      <trkpt lat="43.5266" lon="3.90396">
        <ele>5</ele>
        <time>2020-08-02T08:17:28.000Z</time>
      </trkpt>
      <trkpt lat="43.52663" lon="3.90402">
        <ele>5</ele>
        <time>2020-08-02T08:17:29.000Z</time>
      </trkpt>
      <trkpt lat="43.52667" lon="3.90409">
        <ele>5</ele>
        <time>2020-08-02T08:17:30.000Z</time>
      </trkpt>
      <trkpt lat="43.52671" lon="3.90415">
        <ele>5</ele>
        <time>2020-08-02T08:17:31.000Z</time>
      </trkpt>
      <trkpt lat="43.52674" lon="3.90422">
        <ele>5</ele>
        <time>2020-08-02T08:17:32.000Z</time>
      </trkpt>
      <trkpt lat="43.52678" lon="3.90429">
        <ele>5</ele>
        <time>2020-08-02T08:17:33.000Z</time>
      </trkpt>
      <trkpt lat="43.52681" lon="3.90435">
        <ele>5</ele>
        <time>2020-08-02T08:17:34.000Z</time>
      </trkpt>
      <trkpt lat="43.52685" lon="3.90441">
        <ele>5</ele>
        <time>2020-08-02T08:17:35.000Z</time>
      </trkpt>
      <trkpt lat="43.52688" lon="3.90448">
        <ele>5</ele>
        <time>2020-08-02T08:17:36.000Z</time>
      </trkpt>
      <trkpt lat="43.52692" lon="3.90454">
        <ele>5</ele>
        <time>2020-08-02T08:17:37.000Z</time>
      </trkpt>
      <trkpt lat="43.52696" lon="3.90461">
        <ele>5</ele>
        <time>2020-08-02T08:17:38.000Z</time>
      </trkpt>
      <trkpt lat="43.52699" lon="3.90467">
        <ele>5</ele>
        <time>2020-08-02T08:17:39.000Z</time>
      </trkpt>
      <trkpt lat="43.52703" lon="3.90474">
        <ele>5</ele>
        <time>2020-08-02T08:17:40.000Z</time>
      </trkpt>
      <trkpt lat="43.52706" lon="3.9048">
        <ele>5</ele>
        <time>2020-08-02T08:17:41.000Z</time>
      </trkpt>
      <trkpt lat="43.5271" lon="3.90486">
        <ele>5</ele>
        <time>2020-08-02T08:17:42.000Z</time>
      </trkpt>
      <trkpt lat="43.52713" lon="3.90493">
        <ele>5</ele>
        <time>2020-08-02T08:17:43.000Z</time>
      </trkpt>
      <trkpt lat="43.52717" lon="3.90499">
        <ele>5</ele>
        <time>2020-08-02T08:17:44.000Z</time>
      </trkpt>
      <trkpt lat="43.52721" lon="3.90506">
        <ele>5</ele>
        <time>2020-08-02T08:17:45.000Z</time>
      </trkpt>
      <trkpt lat="43.52724" lon="3.90513">
        <ele>5</ele>
        <time>2020-08-02T08:17:46.000Z</time>
      </trkpt>
      <trkpt lat="43.52728" lon="3.90519">
        <ele>5</ele>
        <time>2020-08-02T08:17:47.000Z</time>
      </trkpt>
      <trkpt lat="43.52731" lon="3.90525">
        <ele>5</ele>
        <time>2020-08-02T08:17:48.000Z</time>
      </trkpt>
      <trkpt lat="43.52735" lon="3.90532">
        <ele>5</ele>
        <time>2020-08-02T08:17:49.000Z</time>
      </trkpt>
      <trkpt lat="43.52738" lon="3.90538">
        <ele>5</ele>
        <time>2020-08-02T08:17:50.000Z</time>
      </trkpt>
      <trkpt lat="43.52742" lon="3.90545">
        <ele>5</ele>
        <time>2020-08-02T08:17:51.000Z</time>
      </trkpt>
      <trkpt lat="43.52746" lon="3.90551">
        <ele>5</ele>
        <time>2020-08-02T08:17:52.000Z</time>
      </trkpt>
      <trkpt lat="43.52749" lon="3.90558">
        <ele>5</ele>
        <time>2020-08-02T08:17:53.000Z</time>
      </trkpt>
      <trkpt lat="43.52753" lon="3.90564">
        <ele>5</ele>
        <time>2020-08-02T08:17:54.000Z</time>
      </trkpt>
      <trkpt lat="43.52756" lon="3.90571">
        <ele>5</ele>
        <time>2020-08-02T08:17:55.000Z</time>
      </trkpt>
      <trkpt lat="43.52759" lon="3.90577">
        <ele>5</ele>
        <time>2020-08-02T08:17:56.000Z</time>
      </trkpt>
      <trkpt lat="43.52763" lon="3.90583">
        <ele>5</ele>
        <time>2020-08-02T08:17:57.000Z</time>
      </trkpt>
      <trkpt lat="43.52766" lon="3.90589">
        <ele>5</ele>
        <time>2020-08-02T08:17:58.000Z</time>
      </trkpt>
      <trkpt lat="43.5277" lon="3.90595">
        <ele>5</ele>
        <time>2020-08-02T08:17:59.000Z</time>
      </trkpt>
      <trkpt lat="43.52773" lon="3.90601">
        <ele>5</ele>
        <time>2020-08-02T08:18:00.000Z</time>
      </trkpt>
      <trkpt lat="43.52776" lon="3.90607">
        <ele>5</ele>
        <time>2020-08-02T08:18:01.000Z</time>
      </trkpt>
      <trkpt lat="43.5278" lon="3.90613">
        <ele>5</ele>
        <time>2020-08-02T08:18:02.000Z</time>
      </trkpt>
      <trkpt lat="43.52783" lon="3.90619">
        <ele>5</ele>
        <time>2020-08-02T08:18:03.000Z</time>
      </trkpt>
      <trkpt lat="43.52786" lon="3.90626">
        <ele>5</ele>
        <time>2020-08-02T08:18:04.000Z</time>
      </trkpt>
      <trkpt lat="43.5279" lon="3.90632">
        <ele>5</ele>
        <time>2020-08-02T08:18:05.000Z</time>
      </trkpt>
      <trkpt lat="43.52793" lon="3.90638">
        <ele>5</ele>
        <time>2020-08-02T08:18:06.000Z</time>
      </trkpt>
      <trkpt lat="43.52797" lon="3.90644">
        <ele>5</ele>
        <time>2020-08-02T08:18:07.000Z</time>
      </trkpt>
      <trkpt lat="43.528" lon="3.9065">
        <ele>5</ele>
        <time>2020-08-02T08:18:08.000Z</time>
      </trkpt>
      <trkpt lat="43.52803" lon="3.90656">
        <ele>5</ele>
        <time>2020-08-02T08:18:09.000Z</time>
      </trkpt>
      <trkpt lat="43.52806" lon="3.90662">
        <ele>5</ele>
        <time>2020-08-02T08:18:10.000Z</time>
      </trkpt>
      <trkpt lat="43.5281" lon="3.90668">
        <ele>5</ele>
        <time>2020-08-02T08:18:11.000Z</time>
      </trkpt>
      <trkpt lat="43.52813" lon="3.90674">
        <ele>5</ele>
        <time>2020-08-02T08:18:12.000Z</time>
      </trkpt>
      <trkpt lat="43.52816" lon="3.9068">
        <ele>5</ele>
        <time>2020-08-02T08:18:13.000Z</time>
      </trkpt>
      <trkpt lat="43.5282" lon="3.90686">
        <ele>5</ele>
        <time>2020-08-02T08:18:14.000Z</time>
      </trkpt>
      <trkpt lat="43.52823" lon="3.90691">
        <ele>5</ele>
        <time>2020-08-02T08:18:15.000Z</time>
      </trkpt>
      <trkpt lat="43.52826" lon="3.90697">
        <ele>5</ele>
        <time>2020-08-02T08:18:16.000Z</time>
      </trkpt>
      <trkpt lat="43.52829" lon="3.90703">
        <ele>5</ele>
        <time>2020-08-02T08:18:17.000Z</time>
      </trkpt>
      <trkpt lat="43.52832" lon="3.90709">
        <ele>5</ele>
        <time>2020-08-02T08:18:18.000Z</time>
      </trkpt>
      <trkpt lat="43.52835" lon="3.90715">
        <ele>5</ele>
        <time>2020-08-02T08:18:19.000Z</time>
      </trkpt>
      <trkpt lat="43.52838" lon="3.90721">
        <ele>5</ele>
        <time>2020-08-02T08:18:20.000Z</time>
      </trkpt>
      <trkpt lat="43.52841" lon="3.90727">
        <ele>5</ele>
        <time>2020-08-02T08:18:21.000Z</time>
      </trkpt>
      <trkpt lat="43.52844" lon="3.90732">
        <ele>5</ele>
        <time>2020-08-02T08:18:22.000Z</time>
      </trkpt>
      <trkpt lat="43.52847" lon="3.90738">
        <ele>5</ele>
        <time>2020-08-02T08:18:23.000Z</time>
      </trkpt>
      <trkpt lat="43.5285" lon="3.90744">
        <ele>5</ele>
        <time>2020-08-02T08:18:24.000Z</time>
      </trkpt>
      <trkpt lat="43.52853" lon="3.9075">
        <ele>5</ele>
        <time>2020-08-02T08:18:25.000Z</time>
      </trkpt>
      <trkpt lat="43.52856" lon="3.90756">
        <ele>5</ele>
        <time>2020-08-02T08:18:26.000Z</time>
      </trkpt>
      <trkpt lat="43.5286" lon="3.90762">
        <ele>5</ele>
        <time>2020-08-02T08:18:27.000Z</time>
      </trkpt>
      <trkpt lat="43.52863" lon="3.90768">
        <ele>5</ele>
        <time>2020-08-02T08:18:28.000Z</time>
      </trkpt>
      <trkpt lat="43.52866" lon="3.90774">
        <ele>5</ele>
        <time>2020-08-02T08:18:29.000Z</time>
      </trkpt>
      <trkpt lat="43.52869" lon="3.9078">
        <ele>5</ele>
        <time>2020-08-02T08:18:30.000Z</time>
      </trkpt>
      <trkpt lat="43.52873" lon="3.90786">
        <ele>5</ele>
        <time>2020-08-02T08:18:31.000Z</time>
      </trkpt>
      <trkpt lat="43.52876" lon="3.90792">
        <ele>5</ele>
        <time>2020-08-02T08:18:32.000Z</time>
      </trkpt>
      <trkpt lat="43.5288" lon="3.90798">
        <ele>5</ele>
        <time>2020-08-02T08:18:33.000Z</time>
      </trkpt>
      <trkpt lat="43.52883" lon="3.90804">
        <ele>5</ele>
        <time>2020-08-02T08:18:34.000Z</time>
      </trkpt>
      <trkpt lat="43.52886" lon="3.90811">
        <ele>5</ele>
        <time>2020-08-02T08:18:35.000Z</time>
      </trkpt>
      <trkpt lat="43.52889" lon="3.90817">
        <ele>5</ele>
        <time>2020-08-02T08:18:36.000Z</time>
      </trkpt>
      <trkpt lat="43.52893" lon="3.90823">
        <ele>5</ele>
        <time>2020-08-02T08:18:37.000Z</time>
      </trkpt>
      <trkpt lat="43.52896" lon="3.90829">
        <ele>5</ele>
        <time>2020-08-02T08:18:38.000Z</time>
      </trkpt>
      <trkpt lat="43.52899" lon="3.90835">
        <ele>5</ele>
        <time>2020-08-02T08:18:39.000Z</time>
      </trkpt>
      <trkpt lat="43.52903" lon="3.90841">
        <ele>5</ele>
        <time>2020-08-02T08:18:40.000Z</time>
      </trkpt>
      <trkpt lat="43.52906" lon="3.90847">
        <ele>5</ele>
        <time>2020-08-02T08:18:41.000Z</time>
      </trkpt>
      <trkpt lat="43.52909" lon="3.90853">
        <ele>5</ele>
        <time>2020-08-02T08:18:42.000Z</time>
      </trkpt>
      <trkpt lat="43.52913" lon="3.90859">
        <ele>5</ele>
        <time>2020-08-02T08:18:43.000Z</time>
      </trkpt>
      <trkpt lat="43.52916" lon="3.90865">
        <ele>5</ele>
        <time>2020-08-02T08:18:44.000Z</time>
      </trkpt>
      <trkpt lat="43.52919" lon="3.90871">
        <ele>5</ele>
        <time>2020-08-02T08:18:45.000Z</time>
      </trkpt>
      <trkpt lat="43.52923" lon="3.90878">
        <ele>5</ele>
        <time>2020-08-02T08:18:46.000Z</time>
      </trkpt>
      <trkpt lat="43.52926" lon="3.90884">
        <ele>5</ele>
        <time>2020-08-02T08:18:47.000Z</time>
      </trkpt>
      <trkpt lat="43.52929" lon="3.9089">
        <ele>5</ele>
        <time>2020-08-02T08:18:48.000Z</time>
      </trkpt>
      <trkpt lat="43.52933" lon="3.90896">
        <ele>5</ele>
        <time>2020-08-02T08:18:49.000Z</time>
      </trkpt>
      <trkpt lat="43.52936" lon="3.90902">
        <ele>5</ele>
        <time>2020-08-02T08:18:50.000Z</time>
      </trkpt>
      <trkpt lat="43.52939" lon="3.90908">
        <ele>5</ele>
        <time>2020-08-02T08:18:51.000Z</time>
      </trkpt>
      <trkpt lat="43.52942" lon="3.90914">
        <ele>5</ele>
        <time>2020-08-02T08:18:52.000Z</time>
      </trkpt>
      <trkpt lat="43.52946" lon="3.9092">
        <ele>5</ele>
        <time>2020-08-02T08:18:53.000Z</time>
      </trkpt>
      <trkpt lat="43.5295" lon="3.90925">
        <ele>5</ele>
        <time>2020-08-02T08:18:54.000Z</time>
      </trkpt>
      <trkpt lat="43.52953" lon="3.90931">
        <ele>5</ele>
        <time>2020-08-02T08:18:55.000Z</time>
      </trkpt>
      <trkpt lat="43.52957" lon="3.90937">
        <ele>5</ele>
        <time>2020-08-02T08:18:56.000Z</time>
      </trkpt>
      <trkpt lat="43.5296" lon="3.90943">
        <ele>5</ele>
        <time>2020-08-02T08:18:57.000Z</time>
      </trkpt>
      <trkpt lat="43.52964" lon="3.90949">
        <ele>5</ele>
        <time>2020-08-02T08:18:58.000Z</time>
      </trkpt>
      <trkpt lat="43.52967" lon="3.90955">
        <ele>5</ele>
        <time>2020-08-02T08:18:59.000Z</time>
      </trkpt>
      <trkpt lat="43.5297" lon="3.90961">
        <ele>5</ele>
        <time>2020-08-02T08:19:00.000Z</time>
      </trkpt>
      <trkpt lat="43.52974" lon="3.90967">
        <ele>5</ele>
        <time>2020-08-02T08:19:01.000Z</time>
      </trkpt>
      <trkpt lat="43.52977" lon="3.90973">
        <ele>5</ele>
        <time>2020-08-02T08:19:02.000Z</time>
      </trkpt>
      <trkpt lat="43.52981" lon="3.90979">
        <ele>5</ele>
        <time>2020-08-02T08:19:03.000Z</time>
      </trkpt>
      <trkpt lat="43.52984" lon="3.90985">
        <ele>5</ele>
        <time>2020-08-02T08:19:04.000Z</time>
      </trkpt>
      <trkpt lat="43.52987" lon="3.90991">
        <ele>5</ele>
        <time>2020-08-02T08:19:05.000Z</time>
      </trkpt>
      <trkpt lat="43.52991" lon="3.90998">
        <ele>5</ele>
        <time>2020-08-02T08:19:06.000Z</time>
      </trkpt>
      <trkpt lat="43.52994" lon="3.91004">
        <ele>5</ele>
        <time>2020-08-02T08:19:07.000Z</time>
      </trkpt>
      <trkpt lat="43.52997" lon="3.9101">
        <ele>5</ele>
        <time>2020-08-02T08:19:08.000Z</time>
      </trkpt>
      <trkpt lat="43.53001" lon="3.91016">
        <ele>5</ele>
        <time>2020-08-02T08:19:09.000Z</time>
      </trkpt>
      <trkpt lat="43.53004" lon="3.91023">
        <ele>5</ele>
        <time>2020-08-02T08:19:10.000Z</time>
      </trkpt>
      <trkpt lat="43.53008" lon="3.91029">
        <ele>5</ele>
        <time>2020-08-02T08:19:11.000Z</time>
      </trkpt>
      <trkpt lat="43.53011" lon="3.91035">
        <ele>5</ele>
        <time>2020-08-02T08:19:12.000Z</time>
      </trkpt>
      <trkpt lat="43.53014" lon="3.91041">
        <ele>5</ele>
        <time>2020-08-02T08:19:13.000Z</time>
      </trkpt>
      <trkpt lat="43.53018" lon="3.91047">
        <ele>5</ele>
        <time>2020-08-02T08:19:14.000Z</time>
      </trkpt>
      <trkpt lat="43.53021" lon="3.91053">
        <ele>5</ele>
        <time>2020-08-02T08:19:15.000Z</time>
      </trkpt>
      <trkpt lat="43.53025" lon="3.91059">
        <ele>5</ele>
        <time>2020-08-02T08:19:16.000Z</time>
      </trkpt>
      <trkpt lat="43.53028" lon="3.91065">
        <ele>5</ele>
        <time>2020-08-02T08:19:17.000Z</time>
      </trkpt>
      <trkpt lat="43.53031" lon="3.91071">
        <ele>5</ele>
        <time>2020-08-02T08:19:18.000Z</time>
      </trkpt>
      <trkpt lat="43.53035" lon="3.91077">
        <ele>5</ele>
        <time>2020-08-02T08:19:19.000Z</time>
      </trkpt>
      <trkpt lat="43.53038" lon="3.91083">
        <ele>5</ele>
        <time>2020-08-02T08:19:20.000Z</time>
      </trkpt>
      <trkpt lat="43.53041" lon="3.91089">
        <ele>5</ele>
        <time>2020-08-02T08:19:21.000Z</time>
      </trkpt>
      <trkpt lat="43.53044" lon="3.91095">
        <ele>5</ele>
        <time>2020-08-02T08:19:22.000Z</time>
      </trkpt>
      <trkpt lat="43.53048" lon="3.91101">
        <ele>5</ele>
        <time>2020-08-02T08:19:23.000Z</time>
      </trkpt>
      <trkpt lat="43.53051" lon="3.91108">
        <ele>5</ele>
        <time>2020-08-02T08:19:24.000Z</time>
      </trkpt>
      <trkpt lat="43.53054" lon="3.91114">
        <ele>5</ele>
        <time>2020-08-02T08:19:25.000Z</time>
      </trkpt>
      <trkpt lat="43.53058" lon="3.9112">
        <ele>5</ele>
        <time>2020-08-02T08:19:26.000Z</time>
      </trkpt>
      <trkpt lat="43.53061" lon="3.91127">
        <ele>5</ele>
        <time>2020-08-02T08:19:27.000Z</time>
      </trkpt>
      <trkpt lat="43.53065" lon="3.91133">
        <ele>5</ele>
        <time>2020-08-02T08:19:28.000Z</time>
      </trkpt>
      <trkpt lat="43.53068" lon="3.91139">
        <ele>5</ele>
        <time>2020-08-02T08:19:29.000Z</time>
      </trkpt>
      <trkpt lat="43.53072" lon="3.91146">
        <ele>5</ele>
        <time>2020-08-02T08:19:30.000Z</time>
      </trkpt>
      <trkpt lat="43.53075" lon="3.91152">
        <ele>5</ele>
        <time>2020-08-02T08:19:31.000Z</time>
      </trkpt>
      <trkpt lat="43.53078" lon="3.91158">
        <ele>5</ele>
        <time>2020-08-02T08:19:32.000Z</time>
      </trkpt>
      <trkpt lat="43.53082" lon="3.91164">
        <ele>5</ele>
        <time>2020-08-02T08:19:33.000Z</time>
      </trkpt>
      <trkpt lat="43.53085" lon="3.9117">
        <ele>5</ele>
        <time>2020-08-02T08:19:34.000Z</time>
      </trkpt>
      <trkpt lat="43.53088" lon="3.91176">
        <ele>5</ele>
        <time>2020-08-02T08:19:35.000Z</time>
      </trkpt>
      <trkpt lat="43.53092" lon="3.91182">
        <ele>5</ele>
        <time>2020-08-02T08:19:36.000Z</time>
      </trkpt>
      <trkpt lat="43.53095" lon="3.91188">
        <ele>5</ele>
        <time>2020-08-02T08:19:37.000Z</time>
      </trkpt>
      <trkpt lat="43.53098" lon="3.91194">
        <ele>5.0314404664078</ele>
        <time>2020-08-02T08:19:38.000Z</time>
      </trkpt>
      <trkpt lat="43.53101" lon="3.912">
        <ele>5.1328602788737</ele>
        <time>2020-08-02T08:19:39.000Z</time>
      </trkpt>
      <trkpt lat="43.53105" lon="3.91206">
        <ele>5.2342800913395</ele>
        <time>2020-08-02T08:19:40.000Z</time>
      </trkpt>
      <trkpt lat="43.53108" lon="3.91212">
        <ele>5.3356999038053</ele>
        <time>2020-08-02T08:19:41.000Z</time>
      </trkpt>
      <trkpt lat="43.53112" lon="3.91218">
        <ele>5.4371197162712</ele>
        <time>2020-08-02T08:19:42.000Z</time>
      </trkpt>
      <trkpt lat="43.53115" lon="3.91225">
        <ele>5.538539528737</ele>
        <time>2020-08-02T08:19:43.000Z</time>
      </trkpt>
      <trkpt lat="43.53118" lon="3.91231">
        <ele>5.6399593412029</ele>
        <time>2020-08-02T08:19:44.000Z</time>
      </trkpt>
      <trkpt lat="43.53122" lon="3.91237">
        <ele>5.7413791536687</ele>
        <time>2020-08-02T08:19:45.000Z</time>
      </trkpt>
      <trkpt lat="43.53125" lon="3.91244">
        <ele>5.8427989661345</ele>
        <time>2020-08-02T08:19:46.000Z</time>
      </trkpt>
      <trkpt lat="43.53129" lon="3.9125">
        <ele>5.9442187786004</ele>
        <time>2020-08-02T08:19:47.000Z</time>
      </trkpt>
      <trkpt lat="43.53133" lon="3.91257">
        <ele>5.95500032</ele>
        <time>2020-08-02T08:19:48.000Z</time>
      </trkpt>
      <trkpt lat="43.53136" lon="3.91263">
        <ele>5.85500032</ele>
        <time>2020-08-02T08:19:49.000Z</time>
      </trkpt>
      <trkpt lat="43.53139" lon="3.9127">
        <ele>5.75500032</ele>
        <time>2020-08-02T08:19:50.000Z</time>
      </trkpt>
      <trkpt lat="43.53143" lon="3.91276">
        <ele>5.65500032</ele>
        <time>2020-08-02T08:19:51.000Z</time>
      </trkpt>
      <trkpt lat="43.53147" lon="3.91283">
        <ele>5.55500032</ele>
        <time>2020-08-02T08:19:52.000Z</time>
      </trkpt>
      <trkpt lat="43.5315" lon="3.91289">
        <ele>5.45500032</ele>
        <time>2020-08-02T08:19:53.000Z</time>
      </trkpt>
      <trkpt lat="43.53154" lon="3.91296">
        <ele>5.35500032</ele>
        <time>2020-08-02T08:19:54.000Z</time>
      </trkpt>
      <trkpt lat="43.53157" lon="3.91302">
        <ele>5.25500032</ele>
        <time>2020-08-02T08:19:55.000Z</time>
      </trkpt>
      <trkpt lat="43.53161" lon="3.91308">
        <ele>5.15500032</ele>
        <time>2020-08-02T08:19:56.000Z</time>
      </trkpt>
      <trkpt lat="43.53165" lon="3.91315">
        <ele>5.05500032</ele>
        <time>2020-08-02T08:19:57.000Z</time>
      </trkpt>
      <trkpt lat="43.53168" lon="3.91321">
        <ele>4.95500032</ele>
        <time>2020-08-02T08:19:58.000Z</time>
      </trkpt>
      <trkpt lat="43.53171" lon="3.91328">
        <ele>4.85500032</ele>
        <time>2020-08-02T08:19:59.000Z</time>
      </trkpt>
      <trkpt lat="43.53175" lon="3.91334">
        <ele>4.75500032</ele>
        <time>2020-08-02T08:20:00.000Z</time>
      </trkpt>
      <trkpt lat="43.53178" lon="3.9134">
        <ele>4.65500032</ele>
        <time>2020-08-02T08:20:01.000Z</time>
      </trkpt>
      <trkpt lat="43.53182" lon="3.91346">
        <ele>4.55500032</ele>
        <time>2020-08-02T08:20:02.000Z</time>
      </trkpt>
      <trkpt lat="43.53186" lon="3.91353">
        <ele>4.45500032</ele>
        <time>2020-08-02T08:20:03.000Z</time>
      </trkpt>
      <trkpt lat="43.53189" lon="3.91359">
        <ele>4.35500032</ele>
        <time>2020-08-02T08:20:04.000Z</time>
      </trkpt>
      <trkpt lat="43.53192" lon="3.91365">
        <ele>4.25500032</ele>
        <time>2020-08-02T08:20:05.000Z</time>
      </trkpt>
      <trkpt lat="43.53195" lon="3.91372">
        <ele>4.15500032</ele>
        <time>2020-08-02T08:20:06.000Z</time>
      </trkpt>
      <trkpt lat="43.53198" lon="3.91378">
        <ele>4.05500032</ele>
        <time>2020-08-02T08:20:07.000Z</time>
      </trkpt>
      <trkpt lat="43.53201" lon="3.91383">
        <ele>4</ele>
        <time>2020-08-02T08:20:08.000Z</time>
      </trkpt>
      <trkpt lat="43.53204" lon="3.91389">
        <ele>4</ele>
        <time>2020-08-02T08:20:09.000Z</time>
      </trkpt>
      <trkpt lat="43.53208" lon="3.91395">
        <ele>4</ele>
        <time>2020-08-02T08:20:10.000Z</time>
      </trkpt>
      <trkpt lat="43.53211" lon="3.914">
        <ele>4</ele>
        <time>2020-08-02T08:20:11.000Z</time>
      </trkpt>
      <trkpt lat="43.53214" lon="3.91406">
        <ele>4</ele>
        <time>2020-08-02T08:20:12.000Z</time>
      </trkpt>
      <trkpt lat="43.53217" lon="3.91412">
        <ele>4</ele>
        <time>2020-08-02T08:20:13.000Z</time>
      </trkpt>
      <trkpt lat="43.5322" lon="3.91417">
        <ele>4</ele>
        <time>2020-08-02T08:20:14.000Z</time>
      </trkpt>
      <trkpt lat="43.53223" lon="3.91423">
        <ele>4</ele>
        <time>2020-08-02T08:20:15.000Z</time>
      </trkpt>
      <trkpt lat="43.53226" lon="3.91429">
        <ele>4</ele>
        <time>2020-08-02T08:20:16.000Z</time>
      </trkpt>
      <trkpt lat="43.53228" lon="3.91435">
        <ele>4</ele>
        <time>2020-08-02T08:20:17.000Z</time>
      </trkpt>
      <trkpt lat="43.53231" lon="3.91441">
        <ele>4</ele>
        <time>2020-08-02T08:20:18.000Z</time>
      </trkpt>
      <trkpt lat="43.53234" lon="3.91446">
        <ele>4</ele>
        <time>2020-08-02T08:20:19.000Z</time>
      </trkpt>
      <trkpt lat="43.53237" lon="3.91452">
        <ele>4</ele>
        <time>2020-08-02T08:20:20.000Z</time>
      </trkpt>
      <trkpt lat="43.5324" lon="3.91457">
        <ele>4</ele>
        <time>2020-08-02T08:20:21.000Z</time>
      </trkpt>
      <trkpt lat="43.53243" lon="3.91463">
        <ele>4</ele>
        <time>2020-08-02T08:20:22.000Z</time>
      </trkpt>
      <trkpt lat="43.53245" lon="3.91469">
        <ele>4</ele>
        <time>2020-08-02T08:20:23.000Z</time>
      </trkpt>
      <trkpt lat="43.53248" lon="3.91475">
        <ele>4</ele>
        <time>2020-08-02T08:20:24.000Z</time>
      </trkpt>
      <trkpt lat="43.53251" lon="3.9148">
        <ele>4</ele>
        <time>2020-08-02T08:20:25.000Z</time>
      </trkpt>
      <trkpt lat="43.53254" lon="3.91486">
        <ele>4</ele>
        <time>2020-08-02T08:20:26.000Z</time>
      </trkpt>
      <trkpt lat="43.53257" lon="3.91491">
        <ele>4</ele>
        <time>2020-08-02T08:20:27.000Z</time>
      </trkpt>
      <trkpt lat="43.5326" lon="3.91497">
        <ele>4</ele>
        <time>2020-08-02T08:20:28.000Z</time>
      </trkpt>
      <trkpt lat="43.53263" lon="3.91502">
        <ele>4</ele>
        <time>2020-08-02T08:20:29.000Z</time>
      </trkpt>
      <trkpt lat="43.53267" lon="3.91508">
        <ele>4</ele>
        <time>2020-08-02T08:20:30.000Z</time>
      </trkpt>
      <trkpt lat="43.5327" lon="3.91513">
        <ele>4</ele>
        <time>2020-08-02T08:20:31.000Z</time>
      </trkpt>
      <trkpt lat="43.53273" lon="3.91518">
        <ele>4</ele>
        <time>2020-08-02T08:20:32.000Z</time>
      </trkpt>
      <trkpt lat="43.53276" lon="3.91524">
        <ele>4</ele>
        <time>2020-08-02T08:20:33.000Z</time>
      </trkpt>
      <trkpt lat="43.5328" lon="3.91529">
        <ele>4</ele>
        <time>2020-08-02T08:20:34.000Z</time>
      </trkpt>
      <trkpt lat="43.53283" lon="3.91535">
        <ele>4</ele>
        <time>2020-08-02T08:20:35.000Z</time>
      </trkpt>
      <trkpt lat="43.53286" lon="3.91541">
        <ele>4</ele>
        <time>2020-08-02T08:20:36.000Z</time>
      </trkpt>
      <trkpt lat="43.53289" lon="3.91546">
        <ele>4</ele>
        <time>2020-08-02T08:20:37.000Z</time>
      </trkpt>
      <trkpt lat="43.53293" lon="3.91552">
        <ele>4</ele>
        <time>2020-08-02T08:20:38.000Z</time>
      </trkpt>
      <trkpt lat="43.53296" lon="3.91557">
        <ele>4</ele>
        <time>2020-08-02T08:20:39.000Z</time>
      </trkpt>
      <trkpt lat="43.53299" lon="3.91562">
        <ele>4</ele>
        <time>2020-08-02T08:20:40.000Z</time>
      </trkpt>
      <trkpt lat="43.53302" lon="3.91568">
        <ele>4</ele>
        <time>2020-08-02T08:20:41.000Z</time>
      </trkpt>
      <trkpt lat="43.53305" lon="3.91573">
        <ele>4</ele>
        <time>2020-08-02T08:20:42.000Z</time>
      </trkpt>
      <trkpt lat="43.53307" lon="3.91579">
        <ele>4</ele>
        <time>2020-08-02T08:20:43.000Z</time>
      </trkpt>
      <trkpt lat="43.5331" lon="3.91584">
        <ele>4</ele>
        <time>2020-08-02T08:20:44.000Z</time>
      </trkpt>
      <trkpt lat="43.53312" lon="3.91588">
        <ele>4</ele>
        <time>2020-08-02T08:20:45.000Z</time>
      </trkpt>
      <trkpt lat="43.53315" lon="3.91593">
        <ele>4</ele>
        <time>2020-08-02T08:20:46.000Z</time>
      </trkpt>
      <trkpt lat="43.53317" lon="3.91597">
        <ele>4</ele>
        <time>2020-08-02T08:20:47.000Z</time>
      </trkpt>
      <trkpt lat="43.53319" lon="3.91601">
        <ele>4</ele>
        <time>2020-08-02T08:20:48.000Z</time>
      </trkpt>
      <trkpt lat="43.53321" lon="3.91605">
        <ele>4</ele>
        <time>2020-08-02T08:20:49.000Z</time>
      </trkpt>
      <trkpt lat="43.53323" lon="3.91609">
        <ele>4</ele>
        <time>2020-08-02T08:20:50.000Z</time>
      </trkpt>
      <trkpt lat="43.53325" lon="3.91613">
        <ele>4</ele>
        <time>2020-08-02T08:20:51.000Z</time>
      </trkpt>
      <trkpt lat="43.53327" lon="3.91616">
        <ele>4</ele>
        <time>2020-08-02T08:20:52.000Z</time>
      </trkpt>
      <trkpt lat="43.53329" lon="3.9162">
        <ele>4</ele>
        <time>2020-08-02T08:20:53.000Z</time>
      </trkpt>
      <trkpt lat="43.53331" lon="3.91624">
        <ele>4</ele>
        <time>2020-08-02T08:20:54.000Z</time>
      </trkpt>
      <trkpt lat="43.53333" lon="3.91628">
        <ele>4</ele>
        <time>2020-08-02T08:20:55.000Z</time>
      </trkpt>
      <trkpt lat="43.53335" lon="3.91632">
        <ele>4</ele>
        <time>2020-08-02T08:20:56.000Z</time>
      </trkpt>
      <trkpt lat="43.53337" lon="3.91636">
        <ele>4</ele>
        <time>2020-08-02T08:20:57.000Z</time>
      </trkpt>
      <trkpt lat="43.53339" lon="3.9164">
        <ele>4.0436043410853</ele>
        <time>2020-08-02T08:20:58.000Z</time>
      </trkpt>
      <trkpt lat="43.53341" lon="3.91644">
        <ele>4.1405035658915</ele>
        <time>2020-08-02T08:20:59.000Z</time>
      </trkpt>
      <trkpt lat="43.53343" lon="3.91649">
        <ele>4.2374027906977</ele>
        <time>2020-08-02T08:21:00.000Z</time>
      </trkpt>
      <trkpt lat="43.53345" lon="3.91653">
        <ele>4.3343020155039</ele>
        <time>2020-08-02T08:21:01.000Z</time>
      </trkpt>
      <trkpt lat="43.53347" lon="3.91657">
        <ele>4.4312012403101</ele>
        <time>2020-08-02T08:21:02.000Z</time>
      </trkpt>
      <trkpt lat="43.53349" lon="3.91661">
        <ele>4.5281004651163</ele>
        <time>2020-08-02T08:21:03.000Z</time>
      </trkpt>
      <trkpt lat="43.53351" lon="3.91665">
        <ele>4.6249996899225</ele>
        <time>2020-08-02T08:21:04.000Z</time>
      </trkpt>
      <trkpt lat="43.53353" lon="3.91669">
        <ele>4.7218989147287</ele>
        <time>2020-08-02T08:21:05.000Z</time>
      </trkpt>
      <trkpt lat="43.53355" lon="3.91674">
        <ele>4.8187981395349</ele>
        <time>2020-08-02T08:21:06.000Z</time>
      </trkpt>
      <trkpt lat="43.53357" lon="3.91678">
        <ele>4.9156973643411</ele>
        <time>2020-08-02T08:21:07.000Z</time>
      </trkpt>
      <trkpt lat="43.53359" lon="3.91683">
        <ele>5</ele>
        <time>2020-08-02T08:21:08.000Z</time>
      </trkpt>
      <trkpt lat="43.53361" lon="3.91687">
        <ele>5</ele>
        <time>2020-08-02T08:21:09.000Z</time>
      </trkpt>
      <trkpt lat="43.53363" lon="3.91692">
        <ele>5</ele>
        <time>2020-08-02T08:21:10.000Z</time>
      </trkpt>
      <trkpt lat="43.53364" lon="3.91697">
        <ele>5</ele>
        <time>2020-08-02T08:21:11.000Z</time>
      </trkpt>
      <trkpt lat="43.53365" lon="3.91701">
        <ele>5</ele>
        <time>2020-08-02T08:21:12.000Z</time>
      </trkpt>
      <trkpt lat="43.53366" lon="3.91706">
        <ele>5</ele>
        <time>2020-08-02T08:21:13.000Z</time>
      </trkpt>
      <trkpt lat="43.53366" lon="3.91711">
        <ele>5</ele>
        <time>2020-08-02T08:21:14.000Z</time>
      </trkpt>
      <trkpt lat="43.53366" lon="3.91717">
        <ele>5</ele>
        <time>2020-08-02T08:21:15.000Z</time>
      </trkpt>
      <trkpt lat="43.53366" lon="3.91722">
        <ele>5</ele>
        <time>2020-08-02T08:21:16.000Z</time>
      </trkpt>
      <trkpt lat="43.53366" lon="3.91726">
        <ele>5</ele>
        <time>2020-08-02T08:21:17.000Z</time>
      </trkpt>
      <trkpt lat="43.53367" lon="3.91731">
        <ele>5</ele>
        <time>2020-08-02T08:21:18.000Z</time>
      </trkpt>
      <trkpt lat="43.53368" lon="3.91736">
        <ele>5</ele>
        <time>2020-08-02T08:21:19.000Z</time>
      </trkpt>
      <trkpt lat="43.53369" lon="3.91741">
        <ele>5</ele>
        <time>2020-08-02T08:21:20.000Z</time>
      </trkpt>
      <trkpt lat="43.53371" lon="3.91746">
        <ele>5</ele>
        <time>2020-08-02T08:21:21.000Z</time>
      </trkpt>
      <trkpt lat="43.53373" lon="3.91751">
        <ele>5</ele>
        <time>2020-08-02T08:21:22.000Z</time>
      </trkpt>
      <trkpt lat="43.53375" lon="3.91756">
        <ele>5</ele>
        <time>2020-08-02T08:21:23.000Z</time>
      </trkpt>
      <trkpt lat="43.53377" lon="3.91761">
        <ele>5</ele>
        <time>2020-08-02T08:21:24.000Z</time>
      </trkpt>
      <trkpt lat="43.5338" lon="3.91766">
        <ele>5</ele>
        <time>2020-08-02T08:21:25.000Z</time>
      </trkpt>
      <trkpt lat="43.53382" lon="3.91771">
        <ele>5</ele>
        <time>2020-08-02T08:21:26.000Z</time>
      </trkpt>
      <trkpt lat="43.53384" lon="3.91776">
        <ele>5</ele>
        <time>2020-08-02T08:21:27.000Z</time>
      </trkpt>
      <trkpt lat="43.53387" lon="3.91782">
        <ele>5.0875480155642</ele>
        <time>2020-08-02T08:21:28.000Z</time>
      </trkpt>
      <trkpt lat="43.53389" lon="3.91787">
        <ele>5.2821005447471</ele>
        <time>2020-08-02T08:21:29.000Z</time>
      </trkpt>
      <trkpt lat="43.5339" lon="3.91793">
        <ele>5.47665307393</ele>
        <time>2020-08-02T08:21:30.000Z</time>
      </trkpt>
      <trkpt lat="43.53392" lon="3.91798">
        <ele>5.6712056031128</ele>
        <time>2020-08-02T08:21:31.000Z</time>
      </trkpt>
      <trkpt lat="43.53394" lon="3.91803">
        <ele>5.8657581322957</ele>
        <time>2020-08-02T08:21:32.000Z</time>
      </trkpt>
      <trkpt lat="43.53396" lon="3.91807">
        <ele>6.0603106614786</ele>
        <time>2020-08-02T08:21:33.000Z</time>
      </trkpt>
      <trkpt lat="43.53399" lon="3.91809">
        <ele>6.2548631906615</ele>
        <time>2020-08-02T08:21:34.000Z</time>
      </trkpt>
      <trkpt lat="43.53402" lon="3.91811">
        <ele>6.4494157198444</ele>
        <time>2020-08-02T08:21:35.000Z</time>
      </trkpt>
      <trkpt lat="43.53406" lon="3.91813">
        <ele>6.6439682490272</ele>
        <time>2020-08-02T08:21:36.000Z</time>
      </trkpt>
      <trkpt lat="43.53409" lon="3.91814">
        <ele>6.8385207782101</ele>
        <time>2020-08-02T08:21:37.000Z</time>
      </trkpt>
      <trkpt lat="43.53413" lon="3.91816">
        <ele>7.0171887618811</ele>
        <time>2020-08-02T08:21:38.000Z</time>
      </trkpt>
      <trkpt lat="43.53416" lon="3.9182">
        <ele>7.1183010291773</ele>
        <time>2020-08-02T08:21:39.000Z</time>
      </trkpt>
      <trkpt lat="43.5342" lon="3.91826">
        <ele>7.2194132964735</ele>
        <time>2020-08-02T08:21:40.000Z</time>
      </trkpt>
      <trkpt lat="43.53423" lon="3.91834">
        <ele>7.3205255637696</ele>
        <time>2020-08-02T08:21:41.000Z</time>
      </trkpt>
      <trkpt lat="43.53426" lon="3.91843">
        <ele>7.4216378310658</ele>
        <time>2020-08-02T08:21:42.000Z</time>
      </trkpt>
      <trkpt lat="43.53428" lon="3.91853">
        <ele>7.522750098362</ele>
        <time>2020-08-02T08:21:43.000Z</time>
      </trkpt>
      <trkpt lat="43.5343" lon="3.91863">
        <ele>7.6238623656582</ele>
        <time>2020-08-02T08:21:44.000Z</time>
      </trkpt>
      <trkpt lat="43.53432" lon="3.91873">
        <ele>7.7249746329544</ele>
        <time>2020-08-02T08:21:45.000Z</time>
      </trkpt>
      <trkpt lat="43.53434" lon="3.91883">
        <ele>7.8260869002506</ele>
        <time>2020-08-02T08:21:46.000Z</time>
      </trkpt>
      <trkpt lat="43.53435" lon="3.91891">
        <ele>7.9271991675467</ele>
        <time>2020-08-02T08:21:47.000Z</time>
      </trkpt>
      <trkpt lat="43.53435" lon="3.91899">
        <ele>8.0282542794739</ele>
        <time>2020-08-02T08:21:48.000Z</time>
      </trkpt>
      <trkpt lat="43.53434" lon="3.91906">
        <ele>8.1291624204521</ele>
        <time>2020-08-02T08:21:49.000Z</time>
      </trkpt>
      <trkpt lat="43.53435" lon="3.9191">
        <ele>8.2300705614303</ele>
        <time>2020-08-02T08:21:50.000Z</time>
      </trkpt>
      <trkpt lat="43.53437" lon="3.91911">
        <ele>8.3309787024085</ele>
        <time>2020-08-02T08:21:51.000Z</time>
      </trkpt>
      <trkpt lat="43.53438" lon="3.9191">
        <ele>8.4318868433867</ele>
        <time>2020-08-02T08:21:52.000Z</time>
      </trkpt>
      <trkpt lat="43.5344" lon="3.91907">
        <ele>8.5327949843649</ele>
        <time>2020-08-02T08:21:53.000Z</time>
      </trkpt>
      <trkpt lat="43.53441" lon="3.91904">
        <ele>8.6337031253431</ele>
        <time>2020-08-02T08:21:54.000Z</time>
      </trkpt>
      <trkpt lat="43.53443" lon="3.919">
        <ele>8.7346112663213</ele>
        <time>2020-08-02T08:21:55.000Z</time>
      </trkpt>
      <trkpt lat="43.53445" lon="3.91897">
        <ele>8.8355194072995</ele>
        <time>2020-08-02T08:21:56.000Z</time>
      </trkpt>
      <trkpt lat="43.53447" lon="3.91894">
        <ele>8.9364275482777</ele>
        <time>2020-08-02T08:21:57.000Z</time>
      </trkpt>
      <trkpt lat="43.53449" lon="3.91891">
        <ele>9.0372980645161</ele>
        <time>2020-08-02T08:21:58.000Z</time>
      </trkpt>
      <trkpt lat="43.5345" lon="3.91889">
        <ele>9.138104516129</ele>
        <time>2020-08-02T08:21:59.000Z</time>
      </trkpt>
      <trkpt lat="43.53452" lon="3.91886">
        <ele>9.2389109677419</ele>
        <time>2020-08-02T08:22:00.000Z</time>
      </trkpt>
      <trkpt lat="43.53453" lon="3.91884">
        <ele>9.3397174193548</ele>
        <time>2020-08-02T08:22:01.000Z</time>
      </trkpt>
      <trkpt lat="43.53454" lon="3.91881">
        <ele>9.4405238709677</ele>
        <time>2020-08-02T08:22:02.000Z</time>
      </trkpt>
      <trkpt lat="43.53455" lon="3.91878">
        <ele>9.5413303225807</ele>
        <time>2020-08-02T08:22:03.000Z</time>
      </trkpt>
      <trkpt lat="43.53457" lon="3.91874">
        <ele>9.6421367741936</ele>
        <time>2020-08-02T08:22:04.000Z</time>
      </trkpt>
      <trkpt lat="43.53459" lon="3.91871">
        <ele>9.7429432258064</ele>
        <time>2020-08-02T08:22:05.000Z</time>
      </trkpt>
      <trkpt lat="43.53461" lon="3.91867">
        <ele>9.8437496774194</ele>
        <time>2020-08-02T08:22:06.000Z</time>
      </trkpt>
      <trkpt lat="43.53463" lon="3.91864">
        <ele>9.9445561290323</ele>
        <time>2020-08-02T08:22:07.000Z</time>
      </trkpt>
      <trkpt lat="43.53465" lon="3.9186">
        <ele>10</ele>
        <time>2020-08-02T08:22:08.000Z</time>
      </trkpt>
      <trkpt lat="43.53467" lon="3.91856">
        <ele>10</ele>
        <time>2020-08-02T08:22:09.000Z</time>
      </trkpt>
      <trkpt lat="43.53469" lon="3.91852">
        <ele>10</ele>
        <time>2020-08-02T08:22:10.000Z</time>
      </trkpt>
      <trkpt lat="43.5347" lon="3.91849">
        <ele>10</ele>
        <time>2020-08-02T08:22:11.000Z</time>
      </trkpt>
      <trkpt lat="43.53472" lon="3.91845">
        <ele>10</ele>
        <time>2020-08-02T08:22:12.000Z</time>
      </trkpt>
      <trkpt lat="43.53474" lon="3.9184">
        <ele>10</ele>
        <time>2020-08-02T08:22:13.000Z</time>
      </trkpt>
      <trkpt lat="43.53476" lon="3.91836">
        <ele>10</ele>
        <time>2020-08-02T08:22:14.000Z</time>
      </trkpt>
      <trkpt lat="43.53478" lon="3.91833">
        <ele>10</ele>
        <time>2020-08-02T08:22:15.000Z</time>
      </trkpt>
      <trkpt lat="43.53479" lon="3.9183">
        <ele>10</ele>
        <time>2020-08-02T08:22:16.000Z</time>
      </trkpt>
      <trkpt lat="43.53482" lon="3.91829">
        <ele>9.9430315546591</ele>
        <time>2020-08-02T08:22:18.000Z</time>
      </trkpt>
      <trkpt lat="43.53484" lon="3.91831">
        <ele>9.7395728212988</ele>
        <time>2020-08-02T08:22:19.000Z</time>
      </trkpt>
      <trkpt lat="43.53487" lon="3.91833">
        <ele>9.5361140879385</ele>
        <time>2020-08-02T08:22:20.000Z</time>
      </trkpt>
      <trkpt lat="43.53491" lon="3.91833">
        <ele>9.3326553545781</ele>
        <time>2020-08-02T08:22:21.000Z</time>
      </trkpt>
      <trkpt lat="43.53494" lon="3.91832">
        <ele>9.1291966212178</ele>
        <time>2020-08-02T08:22:22.000Z</time>
      </trkpt>
      <trkpt lat="43.53496" lon="3.91828">
        <ele>8.9257378878574</ele>
        <time>2020-08-02T08:22:23.000Z</time>
      </trkpt>
      <trkpt lat="43.53498" lon="3.91823">
        <ele>8.7222791544971</ele>
        <time>2020-08-02T08:22:24.000Z</time>
      </trkpt>
      <trkpt lat="43.535" lon="3.91818">
        <ele>8.5188204211368</ele>
        <time>2020-08-02T08:22:25.000Z</time>
      </trkpt>
      <trkpt lat="43.53501" lon="3.91813">
        <ele>8.3153616877765</ele>
        <time>2020-08-02T08:22:26.000Z</time>
      </trkpt>
      <trkpt lat="43.53503" lon="3.91807">
        <ele>8.1119029544161</ele>
        <time>2020-08-02T08:22:27.000Z</time>
      </trkpt>
      <trkpt lat="43.53506" lon="3.91802">
        <ele>8</ele>
        <time>2020-08-02T08:22:28.000Z</time>
      </trkpt>
      <trkpt lat="43.53508" lon="3.91798">
        <ele>8</ele>
        <time>2020-08-02T08:22:29.000Z</time>
      </trkpt>
      <trkpt lat="43.53511" lon="3.91793">
        <ele>8</ele>
        <time>2020-08-02T08:22:30.000Z</time>
      </trkpt>
      <trkpt lat="43.53514" lon="3.91789">
        <ele>8</ele>
        <time>2020-08-02T08:22:31.000Z</time>
      </trkpt>
      <trkpt lat="43.53517" lon="3.91784">
        <ele>8</ele>
        <time>2020-08-02T08:22:32.000Z</time>
      </trkpt>
      <trkpt lat="43.53519" lon="3.9178">
        <ele>8</ele>
        <time>2020-08-02T08:22:33.000Z</time>
      </trkpt>
      <trkpt lat="43.53522" lon="3.91776">
        <ele>8</ele>
        <time>2020-08-02T08:22:34.000Z</time>
      </trkpt>
      <trkpt lat="43.53524" lon="3.91771">
        <ele>8</ele>
        <time>2020-08-02T08:22:35.000Z</time>
      </trkpt>
      <trkpt lat="43.53526" lon="3.91766">
        <ele>8</ele>
        <time>2020-08-02T08:22:36.000Z</time>
      </trkpt>
      <trkpt lat="43.53528" lon="3.91762">
        <ele>8</ele>
        <time>2020-08-02T08:22:37.000Z</time>
      </trkpt>
      <trkpt lat="43.53531" lon="3.91758">
        <ele>8</ele>
        <time>2020-08-02T08:22:38.000Z</time>
      </trkpt>
      <trkpt lat="43.53533" lon="3.91754">
        <ele>8</ele>
        <time>2020-08-02T08:22:39.000Z</time>
      </trkpt>
      <trkpt lat="43.53534" lon="3.9175">
        <ele>8</ele>
        <time>2020-08-02T08:22:40.000Z</time>
      </trkpt>
      <trkpt lat="43.53535" lon="3.91746">
        <ele>8</ele>
        <time>2020-08-02T08:22:41.000Z</time>
      </trkpt>
      <trkpt lat="43.53536" lon="3.91742">
        <ele>8</ele>
        <time>2020-08-02T08:22:42.000Z</time>
      </trkpt>
      <trkpt lat="43.53537" lon="3.91737">
        <ele>8</ele>
        <time>2020-08-02T08:22:43.000Z</time>
      </trkpt>
      <trkpt lat="43.53538" lon="3.91733">
        <ele>8</ele>
        <time>2020-08-02T08:22:44.000Z</time>
      </trkpt>
      <trkpt lat="43.53539" lon="3.91728">
        <ele>8</ele>
        <time>2020-08-02T08:22:45.000Z</time>
      </trkpt>
      <trkpt lat="43.53541" lon="3.91723">
        <ele>8</ele>
        <time>2020-08-02T08:22:46.000Z</time>
      </trkpt>
      <trkpt lat="43.53543" lon="3.91719">
        <ele>8</ele>
        <time>2020-08-02T08:22:47.000Z</time>
      </trkpt>
      <trkpt lat="43.53545" lon="3.91715">
        <ele>7.95500032</ele>
        <time>2020-08-02T08:22:48.000Z</time>
      </trkpt>
      <trkpt lat="43.53546" lon="3.9171">
        <ele>7.85500032</ele>
        <time>2020-08-02T08:22:49.000Z</time>
      </trkpt>
      <trkpt lat="43.53548" lon="3.91705">
        <ele>7.75500032</ele>
        <time>2020-08-02T08:22:50.000Z</time>
      </trkpt>
      <trkpt lat="43.53549" lon="3.917">
        <ele>7.65500032</ele>
        <time>2020-08-02T08:22:51.000Z</time>
      </trkpt>
      <trkpt lat="43.53551" lon="3.91694">
        <ele>7.55500032</ele>
        <time>2020-08-02T08:22:52.000Z</time>
      </trkpt>
      <trkpt lat="43.53552" lon="3.91689">
        <ele>7.45500032</ele>
        <time>2020-08-02T08:22:53.000Z</time>
      </trkpt>
      <trkpt lat="43.53553" lon="3.91684">
        <ele>7.35500032</ele>
        <time>2020-08-02T08:22:54.000Z</time>
      </trkpt>
      <trkpt lat="43.53554" lon="3.91678">
        <ele>7.25500032</ele>
        <time>2020-08-02T08:22:55.000Z</time>
      </trkpt>
      <trkpt lat="43.53555" lon="3.91672">
        <ele>7.15500032</ele>
        <time>2020-08-02T08:22:56.000Z</time>
      </trkpt>
      <trkpt lat="43.53556" lon="3.91667">
        <ele>7.05500032</ele>
        <time>2020-08-02T08:22:57.000Z</time>
      </trkpt>
      <trkpt lat="43.53557" lon="3.91661">
        <ele>7</ele>
        <time>2020-08-02T08:22:58.000Z</time>
      </trkpt>
      <trkpt lat="43.53559" lon="3.91656">
        <ele>7</ele>
        <time>2020-08-02T08:22:59.000Z</time>
      </trkpt>
      <trkpt lat="43.53561" lon="3.91651">
        <ele>7</ele>
        <time>2020-08-02T08:23:00.000Z</time>
      </trkpt>
      <trkpt lat="43.53563" lon="3.91647">
        <ele>7</ele>
        <time>2020-08-02T08:23:01.000Z</time>
      </trkpt>
      <trkpt lat="43.53564" lon="3.91641">
        <ele>7</ele>
        <time>2020-08-02T08:23:02.000Z</time>
      </trkpt>
      <trkpt lat="43.53566" lon="3.91636">
        <ele>7</ele>
        <time>2020-08-02T08:23:03.000Z</time>
      </trkpt>
      <trkpt lat="43.53567" lon="3.91631">
        <ele>7</ele>
        <time>2020-08-02T08:23:04.000Z</time>
      </trkpt>
      <trkpt lat="43.53568" lon="3.91625">
        <ele>7</ele>
        <time>2020-08-02T08:23:05.000Z</time>
      </trkpt>
      <trkpt lat="43.5357" lon="3.9162">
        <ele>7</ele>
        <time>2020-08-02T08:23:06.000Z</time>
      </trkpt>
      <trkpt lat="43.53571" lon="3.91614">
        <ele>7</ele>
        <time>2020-08-02T08:23:07.000Z</time>
      </trkpt>
      <trkpt lat="43.53572" lon="3.91608">
        <ele>6.95500032</ele>
        <time>2020-08-02T08:23:08.000Z</time>
      </trkpt>
      <trkpt lat="43.53573" lon="3.91603">
        <ele>6.85500032</ele>
        <time>2020-08-02T08:23:09.000Z</time>
      </trkpt>
      <trkpt lat="43.53575" lon="3.91598">
        <ele>6.75500032</ele>
        <time>2020-08-02T08:23:10.000Z</time>
      </trkpt>
      <trkpt lat="43.53576" lon="3.91593">
        <ele>6.65500032</ele>
        <time>2020-08-02T08:23:11.000Z</time>
      </trkpt>
      <trkpt lat="43.53578" lon="3.91588">
        <ele>6.55500032</ele>
        <time>2020-08-02T08:23:12.000Z</time>
      </trkpt>
      <trkpt lat="43.5358" lon="3.91582">
        <ele>6.45500032</ele>
        <time>2020-08-02T08:23:13.000Z</time>
      </trkpt>
      <trkpt lat="43.53582" lon="3.91577">
        <ele>6.35500032</ele>
        <time>2020-08-02T08:23:14.000Z</time>
      </trkpt>
      <trkpt lat="43.53583" lon="3.91572">
        <ele>6.25500032</ele>
        <time>2020-08-02T08:23:15.000Z</time>
      </trkpt>
      <trkpt lat="43.53585" lon="3.91567">
        <ele>6.15500032</ele>
        <time>2020-08-02T08:23:16.000Z</time>
      </trkpt>
      <trkpt lat="43.53586" lon="3.91561">
        <ele>6.05500032</ele>
        <time>2020-08-02T08:23:17.000Z</time>
      </trkpt>
      <trkpt lat="43.53587" lon="3.91555">
        <ele>6</ele>
        <time>2020-08-02T08:23:18.000Z</time>
      </trkpt>
      <trkpt lat="43.53588" lon="3.91549">
        <ele>6</ele>
        <time>2020-08-02T08:23:19.000Z</time>
      </trkpt>
      <trkpt lat="43.5359" lon="3.91544">
        <ele>6</ele>
        <time>2020-08-02T08:23:20.000Z</time>
      </trkpt>
      <trkpt lat="43.53591" lon="3.91538">
        <ele>6</ele>
        <time>2020-08-02T08:23:21.000Z</time>
      </trkpt>
      <trkpt lat="43.53593" lon="3.91532">
        <ele>6</ele>
        <time>2020-08-02T08:23:22.000Z</time>
      </trkpt>
      <trkpt lat="43.53595" lon="3.91526">
        <ele>6</ele>
        <time>2020-08-02T08:23:23.000Z</time>
      </trkpt>
      <trkpt lat="43.53596" lon="3.91521">
        <ele>6</ele>
        <time>2020-08-02T08:23:24.000Z</time>
      </trkpt>
      <trkpt lat="43.53597" lon="3.91515">
        <ele>6</ele>
        <time>2020-08-02T08:23:25.000Z</time>
      </trkpt>
      <trkpt lat="43.53598" lon="3.91509">
        <ele>6</ele>
        <time>2020-08-02T08:23:26.000Z</time>
      </trkpt>
      <trkpt lat="43.53598" lon="3.91503">
        <ele>6</ele>
        <time>2020-08-02T08:23:27.000Z</time>
      </trkpt>
      <trkpt lat="43.53599" lon="3.91497">
        <ele>6</ele>
        <time>2020-08-02T08:23:28.000Z</time>
      </trkpt>
      <trkpt lat="43.536" lon="3.91492">
        <ele>6</ele>
        <time>2020-08-02T08:23:29.000Z</time>
      </trkpt>
      <trkpt lat="43.53601" lon="3.91486">
        <ele>6</ele>
        <time>2020-08-02T08:23:30.000Z</time>
      </trkpt>
      <trkpt lat="43.53603" lon="3.9148">
        <ele>6</ele>
        <time>2020-08-02T08:23:31.000Z</time>
      </trkpt>
      <trkpt lat="43.53603" lon="3.91475">
        <ele>6</ele>
        <time>2020-08-02T08:23:32.000Z</time>
      </trkpt>
      <trkpt lat="43.53604" lon="3.91469">
        <ele>6</ele>
        <time>2020-08-02T08:23:33.000Z</time>
      </trkpt>
      <trkpt lat="43.53605" lon="3.91464">
        <ele>6</ele>
        <time>2020-08-02T08:23:34.000Z</time>
      </trkpt>
      <trkpt lat="43.53606" lon="3.91458">
        <ele>6</ele>
        <time>2020-08-02T08:23:35.000Z</time>
      </trkpt>
      <trkpt lat="43.53607" lon="3.91453">
        <ele>6</ele>
        <time>2020-08-02T08:23:36.000Z</time>
      </trkpt>
      <trkpt lat="43.53608" lon="3.91448">
        <ele>6</ele>
        <time>2020-08-02T08:23:37.000Z</time>
      </trkpt>
      <trkpt lat="43.53609" lon="3.91442">
        <ele>6</ele>
        <time>2020-08-02T08:23:38.000Z</time>
      </trkpt>
      <trkpt lat="43.53609" lon="3.91437">
        <ele>6</ele>
        <time>2020-08-02T08:23:39.000Z</time>
      </trkpt>
      <trkpt lat="43.5361" lon="3.91431">
        <ele>6</ele>
        <time>2020-08-02T08:23:40.000Z</time>
      </trkpt>
      <trkpt lat="43.53611" lon="3.91425">
        <ele>6</ele>
        <time>2020-08-02T08:23:41.000Z</time>
      </trkpt>
      <trkpt lat="43.53612" lon="3.91419">
        <ele>6</ele>
        <time>2020-08-02T08:23:42.000Z</time>
      </trkpt>
      <trkpt lat="43.53612" lon="3.91413">
        <ele>6</ele>
        <time>2020-08-02T08:23:43.000Z</time>
      </trkpt>
      <trkpt lat="43.53613" lon="3.91407">
        <ele>6</ele>
        <time>2020-08-02T08:23:44.000Z</time>
      </trkpt>
      <trkpt lat="43.53614" lon="3.91401">
        <ele>6</ele>
        <time>2020-08-02T08:23:45.000Z</time>
      </trkpt>
      <trkpt lat="43.53614" lon="3.91395">
        <ele>6</ele>
        <time>2020-08-02T08:23:46.000Z</time>
      </trkpt>
      <trkpt lat="43.53615" lon="3.91389">
        <ele>6</ele>
        <time>2020-08-02T08:23:47.000Z</time>
      </trkpt>
      <trkpt lat="43.53615" lon="3.91383">
        <ele>6.043945</ele>
        <time>2020-08-02T08:23:48.000Z</time>
      </trkpt>
      <trkpt lat="43.53615" lon="3.91377">
        <ele>6.14160125</ele>
        <time>2020-08-02T08:23:49.000Z</time>
      </trkpt>
      <trkpt lat="43.53614" lon="3.91372">
        <ele>6.2392575</ele>
        <time>2020-08-02T08:23:50.000Z</time>
      </trkpt>
      <trkpt lat="43.53612" lon="3.91367">
        <ele>6.33691375</ele>
        <time>2020-08-02T08:23:51.000Z</time>
      </trkpt>
      <trkpt lat="43.5361" lon="3.91363">
        <ele>6.43457</ele>
        <time>2020-08-02T08:23:52.000Z</time>
      </trkpt>
      <trkpt lat="43.53609" lon="3.91358">
        <ele>6.53222625</ele>
        <time>2020-08-02T08:23:53.000Z</time>
      </trkpt>
      <trkpt lat="43.53609" lon="3.91352">
        <ele>6.6298825</ele>
        <time>2020-08-02T08:23:54.000Z</time>
      </trkpt>
      <trkpt lat="43.53609" lon="3.91347">
        <ele>6.72753875</ele>
        <time>2020-08-02T08:23:55.000Z</time>
      </trkpt>
      <trkpt lat="43.53609" lon="3.91341">
        <ele>6.825195</ele>
        <time>2020-08-02T08:23:56.000Z</time>
      </trkpt>
      <trkpt lat="43.53609" lon="3.91336">
        <ele>6.92285125</ele>
        <time>2020-08-02T08:23:57.000Z</time>
      </trkpt>
      <trkpt lat="43.5361" lon="3.91331">
        <ele>6.9784839344262</ele>
        <time>2020-08-02T08:23:58.000Z</time>
      </trkpt>
      <trkpt lat="43.5361" lon="3.91327">
        <ele>6.8760249180328</ele>
        <time>2020-08-02T08:23:59.000Z</time>
      </trkpt>
      <trkpt lat="43.53611" lon="3.91323">
        <ele>6.7735659016393</ele>
        <time>2020-08-02T08:24:00.000Z</time>
      </trkpt>
      <trkpt lat="43.53612" lon="3.9132">
        <ele>6.6711068852459</ele>
        <time>2020-08-02T08:24:01.000Z</time>
      </trkpt>
      <trkpt lat="43.53615" lon="3.91319">
        <ele>6.5686478688525</ele>
        <time>2020-08-02T08:24:02.000Z</time>
      </trkpt>
      <trkpt lat="43.53618" lon="3.91317">
        <ele>6.466188852459</ele>
        <time>2020-08-02T08:24:03.000Z</time>
      </trkpt>
      <trkpt lat="43.53622" lon="3.91314">
        <ele>6.3637298360656</ele>
        <time>2020-08-02T08:24:04.000Z</time>
      </trkpt>
      <trkpt lat="43.53625" lon="3.91311">
        <ele>6.2612708196721</ele>
        <time>2020-08-02T08:24:05.000Z</time>
      </trkpt>
      <trkpt lat="43.53626" lon="3.91306">
        <ele>6.1588118032787</ele>
        <time>2020-08-02T08:24:06.000Z</time>
      </trkpt>
      <trkpt lat="43.53627" lon="3.91301">
        <ele>6.0563527868852</ele>
        <time>2020-08-02T08:24:07.000Z</time>
      </trkpt>
      <trkpt lat="43.53627" lon="3.91295">
        <ele>6</ele>
        <time>2020-08-02T08:24:08.000Z</time>
      </trkpt>
      <trkpt lat="43.53626" lon="3.9129">
        <ele>6</ele>
        <time>2020-08-02T08:24:09.000Z</time>
      </trkpt>
      <trkpt lat="43.53625" lon="3.91284">
        <ele>6</ele>
        <time>2020-08-02T08:24:10.000Z</time>
      </trkpt>
      <trkpt lat="43.53625" lon="3.91278">
        <ele>6</ele>
        <time>2020-08-02T08:24:11.000Z</time>
      </trkpt>
      <trkpt lat="43.53624" lon="3.91272">
        <ele>6</ele>
        <time>2020-08-02T08:24:12.000Z</time>
      </trkpt>
      <trkpt lat="43.53624" lon="3.91266">
        <ele>6</ele>
        <time>2020-08-02T08:24:13.000Z</time>
      </trkpt>
      <trkpt lat="43.53623" lon="3.9126">
        <ele>6</ele>
        <time>2020-08-02T08:24:14.000Z</time>
      </trkpt>
      <trkpt lat="43.53623" lon="3.91253">
        <ele>6</ele>
        <time>2020-08-02T08:24:15.000Z</time>
      </trkpt>
      <trkpt lat="43.53623" lon="3.91247">
        <ele>6</ele>
        <time>2020-08-02T08:24:16.000Z</time>
      </trkpt>
      <trkpt lat="43.53622" lon="3.91241">
        <ele>6</ele>
        <time>2020-08-02T08:24:17.000Z</time>
      </trkpt>
      <trkpt lat="43.53622" lon="3.91235">
        <ele>6</ele>
        <time>2020-08-02T08:24:18.000Z</time>
      </trkpt>
      <trkpt lat="43.53621" lon="3.91229">
        <ele>6</ele>
        <time>2020-08-02T08:24:19.000Z</time>
      </trkpt>
      <trkpt lat="43.53621" lon="3.91223">
        <ele>6</ele>
        <time>2020-08-02T08:24:20.000Z</time>
      </trkpt>
      <trkpt lat="43.53621" lon="3.91216">
        <ele>6</ele>
        <time>2020-08-02T08:24:21.000Z</time>
      </trkpt>
      <trkpt lat="43.53621" lon="3.9121">
        <ele>6</ele>
        <time>2020-08-02T08:24:22.000Z</time>
      </trkpt>
      <trkpt lat="43.53621" lon="3.91204">
        <ele>6</ele>
        <time>2020-08-02T08:24:23.000Z</time>
      </trkpt>
      <trkpt lat="43.53621" lon="3.91198">
        <ele>6</ele>
        <time>2020-08-02T08:24:24.000Z</time>
      </trkpt>
      <trkpt lat="43.53621" lon="3.91192">
        <ele>6</ele>
        <time>2020-08-02T08:24:25.000Z</time>
      </trkpt>
      <trkpt lat="43.53621" lon="3.91186">
        <ele>6</ele>
        <time>2020-08-02T08:24:26.000Z</time>
      </trkpt>
      <trkpt lat="43.53621" lon="3.9118">
        <ele>6</ele>
        <time>2020-08-02T08:24:27.000Z</time>
      </trkpt>
      <trkpt lat="43.53621" lon="3.91174">
        <ele>6</ele>
        <time>2020-08-02T08:24:28.000Z</time>
      </trkpt>
      <trkpt lat="43.5362" lon="3.91168">
        <ele>6</ele>
        <time>2020-08-02T08:24:29.000Z</time>
      </trkpt>
      <trkpt lat="43.5362" lon="3.91162">
        <ele>6</ele>
        <time>2020-08-02T08:24:30.000Z</time>
      </trkpt>
      <trkpt lat="43.53619" lon="3.91156">
        <ele>6</ele>
        <time>2020-08-02T08:24:31.000Z</time>
      </trkpt>
      <trkpt lat="43.53619" lon="3.9115">
        <ele>6</ele>
        <time>2020-08-02T08:24:32.000Z</time>
      </trkpt>
      <trkpt lat="43.53619" lon="3.91144">
        <ele>6</ele>
        <time>2020-08-02T08:24:33.000Z</time>
      </trkpt>
      <trkpt lat="43.53619" lon="3.91138">
        <ele>6</ele>
        <time>2020-08-02T08:24:34.000Z</time>
      </trkpt>
      <trkpt lat="43.53619" lon="3.91133">
        <ele>6</ele>
        <time>2020-08-02T08:24:35.000Z</time>
      </trkpt>
      <trkpt lat="43.53619" lon="3.91127">
        <ele>6</ele>
        <time>2020-08-02T08:24:36.000Z</time>
      </trkpt>
      <trkpt lat="43.53619" lon="3.91121">
        <ele>6</ele>
        <time>2020-08-02T08:24:37.000Z</time>
      </trkpt>
      <trkpt lat="43.5362" lon="3.91115">
        <ele>6</ele>
        <time>2020-08-02T08:24:38.000Z</time>
      </trkpt>
      <trkpt lat="43.5362" lon="3.91109">
        <ele>6</ele>
        <time>2020-08-02T08:24:39.000Z</time>
      </trkpt>
      <trkpt lat="43.5362" lon="3.91104">
        <ele>6</ele>
        <time>2020-08-02T08:24:40.000Z</time>
      </trkpt>
      <trkpt lat="43.53619" lon="3.91098">
        <ele>6</ele>
        <time>2020-08-02T08:24:41.000Z</time>
      </trkpt>
      <trkpt lat="43.53619" lon="3.91092">
        <ele>6</ele>
        <time>2020-08-02T08:24:42.000Z</time>
      </trkpt>
      <trkpt lat="43.53619" lon="3.91087">
        <ele>6</ele>
        <time>2020-08-02T08:24:43.000Z</time>
      </trkpt>
      <trkpt lat="43.53619" lon="3.91081">
        <ele>6</ele>
        <time>2020-08-02T08:24:44.000Z</time>
      </trkpt>
      <trkpt lat="43.53619" lon="3.91075">
        <ele>6</ele>
        <time>2020-08-02T08:24:45.000Z</time>
      </trkpt>
      <trkpt lat="43.53619" lon="3.9107">
        <ele>6</ele>
        <time>2020-08-02T08:24:46.000Z</time>
      </trkpt>
      <trkpt lat="43.53619" lon="3.91064">
        <ele>6</ele>
        <time>2020-08-02T08:24:47.000Z</time>
      </trkpt>
      <trkpt lat="43.53619" lon="3.91059">
        <ele>6</ele>
        <time>2020-08-02T08:24:48.000Z</time>
      </trkpt>
      <trkpt lat="43.53619" lon="3.91053">
        <ele>6</ele>
        <time>2020-08-02T08:24:49.000Z</time>
      </trkpt>
      <trkpt lat="43.53619" lon="3.91047">
        <ele>6</ele>
        <time>2020-08-02T08:24:50.000Z</time>
      </trkpt>
      <trkpt lat="43.53619" lon="3.91042">
        <ele>6</ele>
        <time>2020-08-02T08:24:51.000Z</time>
      </trkpt>
      <trkpt lat="43.53618" lon="3.91036">
        <ele>6</ele>
        <time>2020-08-02T08:24:52.000Z</time>
      </trkpt>
      <trkpt lat="43.53618" lon="3.9103">
        <ele>6</ele>
        <time>2020-08-02T08:24:53.000Z</time>
      </trkpt>
      <trkpt lat="43.53618" lon="3.91025">
        <ele>6</ele>
        <time>2020-08-02T08:24:54.000Z</time>
      </trkpt>
      <trkpt lat="43.53618" lon="3.91019">
        <ele>6</ele>
        <time>2020-08-02T08:24:55.000Z</time>
      </trkpt>
      <trkpt lat="43.53618" lon="3.91013">
        <ele>6</ele>
        <time>2020-08-02T08:24:56.000Z</time>
      </trkpt>
      <trkpt lat="43.53618" lon="3.91007">
        <ele>6</ele>
        <time>2020-08-02T08:24:57.000Z</time>
      </trkpt>
      <trkpt lat="43.53618" lon="3.91001">
        <ele>6</ele>
        <time>2020-08-02T08:24:58.000Z</time>
      </trkpt>
      <trkpt lat="43.53619" lon="3.90996">
        <ele>6</ele>
        <time>2020-08-02T08:24:59.000Z</time>
      </trkpt>
      <trkpt lat="43.53619" lon="3.9099">
        <ele>6</ele>
        <time>2020-08-02T08:25:00.000Z</time>
      </trkpt>
      <trkpt lat="43.5362" lon="3.90984">
        <ele>6</ele>
        <time>2020-08-02T08:25:01.000Z</time>
      </trkpt>
      <trkpt lat="43.5362" lon="3.90978">
        <ele>6</ele>
        <time>2020-08-02T08:25:02.000Z</time>
      </trkpt>
      <trkpt lat="43.5362" lon="3.90973">
        <ele>6</ele>
        <time>2020-08-02T08:25:03.000Z</time>
      </trkpt>
      <trkpt lat="43.5362" lon="3.90967">
        <ele>6</ele>
        <time>2020-08-02T08:25:04.000Z</time>
      </trkpt>
      <trkpt lat="43.53619" lon="3.90961">
        <ele>6</ele>
        <time>2020-08-02T08:25:05.000Z</time>
      </trkpt>
      <trkpt lat="43.53619" lon="3.90955">
        <ele>6</ele>
        <time>2020-08-02T08:25:06.000Z</time>
      </trkpt>
      <trkpt lat="43.53618" lon="3.90949">
        <ele>6</ele>
        <time>2020-08-02T08:25:07.000Z</time>
      </trkpt>
      <trkpt lat="43.53618" lon="3.90944">
        <ele>6</ele>
        <time>2020-08-02T08:25:08.000Z</time>
      </trkpt>
      <trkpt lat="43.53617" lon="3.90938">
        <ele>6</ele>
        <time>2020-08-02T08:25:09.000Z</time>
      </trkpt>
      <trkpt lat="43.53617" lon="3.90932">
        <ele>6</ele>
        <time>2020-08-02T08:25:10.000Z</time>
      </trkpt>
      <trkpt lat="43.53617" lon="3.90926">
        <ele>6</ele>
        <time>2020-08-02T08:25:11.000Z</time>
      </trkpt>
      <trkpt lat="43.53616" lon="3.9092">
        <ele>6</ele>
        <time>2020-08-02T08:25:12.000Z</time>
      </trkpt>
      <trkpt lat="43.53616" lon="3.90914">
        <ele>6</ele>
        <time>2020-08-02T08:25:13.000Z</time>
      </trkpt>
      <trkpt lat="43.53616" lon="3.90909">
        <ele>6</ele>
        <time>2020-08-02T08:25:14.000Z</time>
      </trkpt>
      <trkpt lat="43.53616" lon="3.90903">
        <ele>6</ele>
        <time>2020-08-02T08:25:15.000Z</time>
      </trkpt>
      <trkpt lat="43.53616" lon="3.90897">
        <ele>6</ele>
        <time>2020-08-02T08:25:16.000Z</time>
      </trkpt>
      <trkpt lat="43.53616" lon="3.90891">
        <ele>6</ele>
        <time>2020-08-02T08:25:17.000Z</time>
      </trkpt>
      <trkpt lat="43.53615" lon="3.90886">
        <ele>6</ele>
        <time>2020-08-02T08:25:18.000Z</time>
      </trkpt>
      <trkpt lat="43.53615" lon="3.9088">
        <ele>6</ele>
        <time>2020-08-02T08:25:19.000Z</time>
      </trkpt>
      <trkpt lat="43.53615" lon="3.90874">
        <ele>6</ele>
        <time>2020-08-02T08:25:20.000Z</time>
      </trkpt>
      <trkpt lat="43.53615" lon="3.90868">
        <ele>6</ele>
        <time>2020-08-02T08:25:21.000Z</time>
      </trkpt>
      <trkpt lat="43.53615" lon="3.90863">
        <ele>6</ele>
        <time>2020-08-02T08:25:22.000Z</time>
      </trkpt>
      <trkpt lat="43.53615" lon="3.90857">
        <ele>6</ele>
        <time>2020-08-02T08:25:23.000Z</time>
      </trkpt>
      <trkpt lat="43.53616" lon="3.90851">
        <ele>6</ele>
        <time>2020-08-02T08:25:24.000Z</time>
      </trkpt>
      <trkpt lat="43.53616" lon="3.90846">
        <ele>6</ele>
        <time>2020-08-02T08:25:25.000Z</time>
      </trkpt>
      <trkpt lat="43.53617" lon="3.90841">
        <ele>6</ele>
        <time>2020-08-02T08:25:26.000Z</time>
      </trkpt>
      <trkpt lat="43.53617" lon="3.90835">
        <ele>6</ele>
        <time>2020-08-02T08:25:27.000Z</time>
      </trkpt>
      <trkpt lat="43.53617" lon="3.9083">
        <ele>6</ele>
        <time>2020-08-02T08:25:28.000Z</time>
      </trkpt>
      <trkpt lat="43.53617" lon="3.90824">
        <ele>6</ele>
        <time>2020-08-02T08:25:29.000Z</time>
      </trkpt>
      <trkpt lat="43.53617" lon="3.90818">
        <ele>6</ele>
        <time>2020-08-02T08:25:30.000Z</time>
      </trkpt>
      <trkpt lat="43.53617" lon="3.90812">
        <ele>6</ele>
        <time>2020-08-02T08:25:31.000Z</time>
      </trkpt>
      <trkpt lat="43.53617" lon="3.90807">
        <ele>6</ele>
        <time>2020-08-02T08:25:32.000Z</time>
      </trkpt>
      <trkpt lat="43.53617" lon="3.90801">
        <ele>6</ele>
        <time>2020-08-02T08:25:33.000Z</time>
      </trkpt>
      <trkpt lat="43.53617" lon="3.90795">
        <ele>6</ele>
        <time>2020-08-02T08:25:34.000Z</time>
      </trkpt>
      <trkpt lat="43.53617" lon="3.90789">
        <ele>6</ele>
        <time>2020-08-02T08:25:35.000Z</time>
      </trkpt>
      <trkpt lat="43.53617" lon="3.90783">
        <ele>6</ele>
        <time>2020-08-02T08:25:36.000Z</time>
      </trkpt>
      <trkpt lat="43.53617" lon="3.90778">
        <ele>6</ele>
        <time>2020-08-02T08:25:37.000Z</time>
      </trkpt>
      <trkpt lat="43.53617" lon="3.90772">
        <ele>6</ele>
        <time>2020-08-02T08:25:38.000Z</time>
      </trkpt>
      <trkpt lat="43.53617" lon="3.90766">
        <ele>6</ele>
        <time>2020-08-02T08:25:39.000Z</time>
      </trkpt>
      <trkpt lat="43.53616" lon="3.9076">
        <ele>6</ele>
        <time>2020-08-02T08:25:40.000Z</time>
      </trkpt>
      <trkpt lat="43.53616" lon="3.90754">
        <ele>6</ele>
        <time>2020-08-02T08:25:41.000Z</time>
      </trkpt>
      <trkpt lat="43.53617" lon="3.90749">
        <ele>6</ele>
        <time>2020-08-02T08:25:42.000Z</time>
      </trkpt>
      <trkpt lat="43.53618" lon="3.90743">
        <ele>6</ele>
        <time>2020-08-02T08:25:43.000Z</time>
      </trkpt>
      <trkpt lat="43.53619" lon="3.90737">
        <ele>6</ele>
        <time>2020-08-02T08:25:44.000Z</time>
      </trkpt>
      <trkpt lat="43.53619" lon="3.90731">
        <ele>6</ele>
        <time>2020-08-02T08:25:45.000Z</time>
      </trkpt>
      <trkpt lat="43.5362" lon="3.90725">
        <ele>6</ele>
        <time>2020-08-02T08:25:46.000Z</time>
      </trkpt>
      <trkpt lat="43.53622" lon="3.9072">
        <ele>6</ele>
        <time>2020-08-02T08:25:47.000Z</time>
      </trkpt>
      <trkpt lat="43.53623" lon="3.90714">
        <ele>6</ele>
        <time>2020-08-02T08:25:48.000Z</time>
      </trkpt>
      <trkpt lat="43.53624" lon="3.90708">
        <ele>6</ele>
        <time>2020-08-02T08:25:49.000Z</time>
      </trkpt>
      <trkpt lat="43.53625" lon="3.90703">
        <ele>6</ele>
        <time>2020-08-02T08:25:50.000Z</time>
      </trkpt>
      <trkpt lat="43.53626" lon="3.90697">
        <ele>6</ele>
        <time>2020-08-02T08:25:51.000Z</time>
      </trkpt>
      <trkpt lat="43.53628" lon="3.90692">
        <ele>6</ele>
        <time>2020-08-02T08:25:52.000Z</time>
      </trkpt>
      <trkpt lat="43.5363" lon="3.90686">
        <ele>6</ele>
        <time>2020-08-02T08:25:53.000Z</time>
      </trkpt>
      <trkpt lat="43.53631" lon="3.9068">
        <ele>6</ele>
        <time>2020-08-02T08:25:54.000Z</time>
      </trkpt>
      <trkpt lat="43.53632" lon="3.90675">
        <ele>6</ele>
        <time>2020-08-02T08:25:55.000Z</time>
      </trkpt>
      <trkpt lat="43.53633" lon="3.90669">
        <ele>6</ele>
        <time>2020-08-02T08:25:56.000Z</time>
      </trkpt>
      <trkpt lat="43.53635" lon="3.90663">
        <ele>6</ele>
        <time>2020-08-02T08:25:57.000Z</time>
      </trkpt>
      <trkpt lat="43.53637" lon="3.90658">
        <ele>6</ele>
        <time>2020-08-02T08:25:58.000Z</time>
      </trkpt>
      <trkpt lat="43.53639" lon="3.90652">
        <ele>6</ele>
        <time>2020-08-02T08:25:59.000Z</time>
      </trkpt>
      <trkpt lat="43.53641" lon="3.90646">
        <ele>6</ele>
        <time>2020-08-02T08:26:00.000Z</time>
      </trkpt>
      <trkpt lat="43.53643" lon="3.90641">
        <ele>6</ele>
        <time>2020-08-02T08:26:01.000Z</time>
      </trkpt>
      <trkpt lat="43.53645" lon="3.90635">
        <ele>6</ele>
        <time>2020-08-02T08:26:02.000Z</time>
      </trkpt>
      <trkpt lat="43.53647" lon="3.90631">
        <ele>6</ele>
        <time>2020-08-02T08:26:03.000Z</time>
      </trkpt>
      <trkpt lat="43.5365" lon="3.90627">
        <ele>6</ele>
        <time>2020-08-02T08:26:04.000Z</time>
      </trkpt>
      <trkpt lat="43.53652" lon="3.90623">
        <ele>6</ele>
        <time>2020-08-02T08:26:05.000Z</time>
      </trkpt>
      <trkpt lat="43.53654" lon="3.90618">
        <ele>6</ele>
        <time>2020-08-02T08:26:06.000Z</time>
      </trkpt>
      <trkpt lat="43.53656" lon="3.90613">
        <ele>6</ele>
        <time>2020-08-02T08:26:07.000Z</time>
      </trkpt>
      <trkpt lat="43.53658" lon="3.90608">
        <ele>6</ele>
        <time>2020-08-02T08:26:08.000Z</time>
      </trkpt>
      <trkpt lat="43.5366" lon="3.90603">
        <ele>6</ele>
        <time>2020-08-02T08:26:09.000Z</time>
      </trkpt>
      <trkpt lat="43.53663" lon="3.90599">
        <ele>6</ele>
        <time>2020-08-02T08:26:10.000Z</time>
      </trkpt>
      <trkpt lat="43.53665" lon="3.90594">
        <ele>6</ele>
        <time>2020-08-02T08:26:11.000Z</time>
      </trkpt>
      <trkpt lat="43.53667" lon="3.90589">
        <ele>6</ele>
        <time>2020-08-02T08:26:12.000Z</time>
      </trkpt>
      <trkpt lat="43.53669" lon="3.90585">
        <ele>6</ele>
        <time>2020-08-02T08:26:13.000Z</time>
      </trkpt>
      <trkpt lat="43.53672" lon="3.90582">
        <ele>6</ele>
        <time>2020-08-02T08:26:14.000Z</time>
      </trkpt>
      <trkpt lat="43.53674" lon="3.90579">
        <ele>6</ele>
        <time>2020-08-02T08:26:15.000Z</time>
      </trkpt>
      <trkpt lat="43.53676" lon="3.90574">
        <ele>6</ele>
        <time>2020-08-02T08:26:16.000Z</time>
      </trkpt>
      <trkpt lat="43.53676" lon="3.9057">
        <ele>6</ele>
        <time>2020-08-02T08:26:17.000Z</time>
      </trkpt>
      <trkpt lat="43.53677" lon="3.90565">
        <ele>6</ele>
        <time>2020-08-02T08:26:18.000Z</time>
      </trkpt>
      <trkpt lat="43.53677" lon="3.90561">
        <ele>6</ele>
        <time>2020-08-02T08:26:19.000Z</time>
      </trkpt>
      <trkpt lat="43.53678" lon="3.90557">
        <ele>6</ele>
        <time>2020-08-02T08:26:20.000Z</time>
      </trkpt>
      <trkpt lat="43.5368" lon="3.90554">
        <ele>6</ele>
        <time>2020-08-02T08:26:21.000Z</time>
      </trkpt>
      <trkpt lat="43.53682" lon="3.90552">
        <ele>6</ele>
        <time>2020-08-02T08:26:22.000Z</time>
      </trkpt>
      <trkpt lat="43.53683" lon="3.90549">
        <ele>6</ele>
        <time>2020-08-02T08:26:23.000Z</time>
      </trkpt>
      <trkpt lat="43.53685" lon="3.90547">
        <ele>6</ele>
        <time>2020-08-02T08:26:24.000Z</time>
      </trkpt>
      <trkpt lat="43.53687" lon="3.90544">
        <ele>6</ele>
        <time>2020-08-02T08:26:25.000Z</time>
      </trkpt>
      <trkpt lat="43.53688" lon="3.90541">
        <ele>6</ele>
        <time>2020-08-02T08:26:26.000Z</time>
      </trkpt>
      <trkpt lat="43.5369" lon="3.90537">
        <ele>6</ele>
        <time>2020-08-02T08:26:27.000Z</time>
      </trkpt>
      <trkpt lat="43.53691" lon="3.90533">
        <ele>6</ele>
        <time>2020-08-02T08:26:28.000Z</time>
      </trkpt>
      <trkpt lat="43.53693" lon="3.90529">
        <ele>6</ele>
        <time>2020-08-02T08:26:29.000Z</time>
      </trkpt>
      <trkpt lat="43.53695" lon="3.90525">
        <ele>6</ele>
        <time>2020-08-02T08:26:30.000Z</time>
      </trkpt>
      <trkpt lat="43.53698" lon="3.90521">
        <ele>6</ele>
        <time>2020-08-02T08:26:31.000Z</time>
      </trkpt>
      <trkpt lat="43.53701" lon="3.90518">
        <ele>6</ele>
        <time>2020-08-02T08:26:32.000Z</time>
      </trkpt>
      <trkpt lat="43.53704" lon="3.90515">
        <ele>6</ele>
        <time>2020-08-02T08:26:33.000Z</time>
      </trkpt>
      <trkpt lat="43.53707" lon="3.90511">
        <ele>6</ele>
        <time>2020-08-02T08:26:34.000Z</time>
      </trkpt>
      <trkpt lat="43.5371" lon="3.90508">
        <ele>6</ele>
        <time>2020-08-02T08:26:35.000Z</time>
      </trkpt>
      <trkpt lat="43.53712" lon="3.90504">
        <ele>6</ele>
        <time>2020-08-02T08:26:36.000Z</time>
      </trkpt>
      <trkpt lat="43.53714" lon="3.90499">
        <ele>6</ele>
        <time>2020-08-02T08:26:37.000Z</time>
      </trkpt>
      <trkpt lat="43.53715" lon="3.90495">
        <ele>6</ele>
        <time>2020-08-02T08:26:38.000Z</time>
      </trkpt>
      <trkpt lat="43.53716" lon="3.90492">
        <ele>6</ele>
        <time>2020-08-02T08:26:39.000Z</time>
      </trkpt>
      <trkpt lat="43.53715" lon="3.90492">
        <ele>6</ele>
        <time>2020-08-02T08:26:44.000Z</time>
      </trkpt>
      <trkpt lat="43.53715" lon="3.90487">
        <ele>5</ele>
        <time>2020-08-02T08:26:49.000Z</time>
      </trkpt>
      <trkpt lat="43.53714" lon="3.90486">
        <ele>5</ele>
        <time>2020-08-02T08:26:50.000Z</time>
      </trkpt>
      <trkpt lat="43.53714" lon="3.90483">
        <ele>5</ele>
        <time>2020-08-02T08:26:53.000Z</time>
      </trkpt>
      <trkpt lat="43.53715" lon="3.9048">
        <ele>5</ele>
        <time>2020-08-02T08:26:56.000Z</time>
      </trkpt>
      <trkpt lat="43.53719" lon="3.90478">
        <ele>5</ele>
        <time>2020-08-02T08:26:58.000Z</time>
      </trkpt>
      <trkpt lat="43.53721" lon="3.90479">
        <ele>5</ele>
        <time>2020-08-02T08:26:59.000Z</time>
      </trkpt>
      <trkpt lat="43.53723" lon="3.90482">
        <ele>5</ele>
        <time>2020-08-02T08:27:00.000Z</time>
      </trkpt>
      <trkpt lat="43.53726" lon="3.90483">
        <ele>5</ele>
        <time>2020-08-02T08:27:01.000Z</time>
      </trkpt>
      <trkpt lat="43.53729" lon="3.90482">
        <ele>5</ele>
        <time>2020-08-02T08:27:02.000Z</time>
      </trkpt>
      <trkpt lat="43.53732" lon="3.90479">
        <ele>5</ele>
        <time>2020-08-02T08:27:03.000Z</time>
      </trkpt>
      <trkpt lat="43.53735" lon="3.90476">
        <ele>5</ele>
        <time>2020-08-02T08:27:04.000Z</time>
      </trkpt>
      <trkpt lat="43.53738" lon="3.90473">
        <ele>5</ele>
        <time>2020-08-02T08:27:05.000Z</time>
      </trkpt>
      <trkpt lat="43.53741" lon="3.90469">
        <ele>5</ele>
        <time>2020-08-02T08:27:06.000Z</time>
      </trkpt>
      <trkpt lat="43.53744" lon="3.90465">
        <ele>5</ele>
        <time>2020-08-02T08:27:07.000Z</time>
      </trkpt>
      <trkpt lat="43.53747" lon="3.90462">
        <ele>5</ele>
        <time>2020-08-02T08:27:08.000Z</time>
      </trkpt>
      <trkpt lat="43.5375" lon="3.90458">
        <ele>4.9835221475519</ele>
        <time>2020-08-02T08:27:09.000Z</time>
      </trkpt>
      <trkpt lat="43.53753" lon="3.90454">
        <ele>4.8805355697514</ele>
        <time>2020-08-02T08:27:10.000Z</time>
      </trkpt>
      <trkpt lat="43.53756" lon="3.90451">
        <ele>4.7775489919509</ele>
        <time>2020-08-02T08:27:11.000Z</time>
      </trkpt>
      <trkpt lat="43.53759" lon="3.90447">
        <ele>4.6745624141504</ele>
        <time>2020-08-02T08:27:12.000Z</time>
      </trkpt>
      <trkpt lat="43.53762" lon="3.90444">
        <ele>4.5715758363499</ele>
        <time>2020-08-02T08:27:13.000Z</time>
      </trkpt>
      <trkpt lat="43.53765" lon="3.90441">
        <ele>4.4685892585494</ele>
        <time>2020-08-02T08:27:14.000Z</time>
      </trkpt>
      <trkpt lat="43.53768" lon="3.90437">
        <ele>4.3656026807489</ele>
        <time>2020-08-02T08:27:15.000Z</time>
      </trkpt>
      <trkpt lat="43.53771" lon="3.90434">
        <ele>4.2626161029483</ele>
        <time>2020-08-02T08:27:16.000Z</time>
      </trkpt>
      <trkpt lat="43.53774" lon="3.90431">
        <ele>4.1596295251478</ele>
        <time>2020-08-02T08:27:17.000Z</time>
      </trkpt>
      <trkpt lat="43.53777" lon="3.90428">
        <ele>4.0566429473473</ele>
        <time>2020-08-02T08:27:18.000Z</time>
      </trkpt>
      <trkpt lat="43.5378" lon="3.90424">
        <ele>4</ele>
        <time>2020-08-02T08:27:19.000Z</time>
      </trkpt>
      <trkpt lat="43.53783" lon="3.90421">
        <ele>4</ele>
        <time>2020-08-02T08:27:20.000Z</time>
      </trkpt>
      <trkpt lat="43.53786" lon="3.90418">
        <ele>4</ele>
        <time>2020-08-02T08:27:21.000Z</time>
      </trkpt>
      <trkpt lat="43.53789" lon="3.90415">
        <ele>4</ele>
        <time>2020-08-02T08:27:22.000Z</time>
      </trkpt>
      <trkpt lat="43.53792" lon="3.90412">
        <ele>4</ele>
        <time>2020-08-02T08:27:23.000Z</time>
      </trkpt>
      <trkpt lat="43.53795" lon="3.90409">
        <ele>4</ele>
        <time>2020-08-02T08:27:24.000Z</time>
      </trkpt>
      <trkpt lat="43.53798" lon="3.90406">
        <ele>4</ele>
        <time>2020-08-02T08:27:25.000Z</time>
      </trkpt>
      <trkpt lat="43.53801" lon="3.90402">
        <ele>4</ele>
        <time>2020-08-02T08:27:26.000Z</time>
      </trkpt>
      <trkpt lat="43.53804" lon="3.90399">
        <ele>4</ele>
        <time>2020-08-02T08:27:27.000Z</time>
      </trkpt>
      <trkpt lat="43.53807" lon="3.90396">
        <ele>4</ele>
        <time>2020-08-02T08:27:28.000Z</time>
      </trkpt>
      <trkpt lat="43.5381" lon="3.90392">
        <ele>4</ele>
        <time>2020-08-02T08:27:29.000Z</time>
      </trkpt>
      <trkpt lat="43.53813" lon="3.90389">
        <ele>4</ele>
        <time>2020-08-02T08:27:30.000Z</time>
      </trkpt>
      <trkpt lat="43.53815" lon="3.90385">
        <ele>4</ele>
        <time>2020-08-02T08:27:31.000Z</time>
      </trkpt>
      <trkpt lat="43.53818" lon="3.90382">
        <ele>4</ele>
        <time>2020-08-02T08:27:32.000Z</time>
      </trkpt>
      <trkpt lat="43.53819" lon="3.9038">
        <ele>4</ele>
        <time>2020-08-02T08:27:38.000Z</time>
      </trkpt>
      <trkpt lat="43.53823" lon="3.90376">
        <ele>4.0322580645161</ele>
        <time>2020-08-02T08:27:41.000Z</time>
      </trkpt>
      <trkpt lat="43.53826" lon="3.90374">
        <ele>4.133064516129</ele>
        <time>2020-08-02T08:27:42.000Z</time>
      </trkpt>
      <trkpt lat="43.53828" lon="3.90372">
        <ele>4.2338709677419</ele>
        <time>2020-08-02T08:27:43.000Z</time>
      </trkpt>
      <trkpt lat="43.53831" lon="3.90369">
        <ele>4.3346774193548</ele>
        <time>2020-08-02T08:27:44.000Z</time>
      </trkpt>
      <trkpt lat="43.53834" lon="3.90367">
        <ele>4.4354838709677</ele>
        <time>2020-08-02T08:27:45.000Z</time>
      </trkpt>
      <trkpt lat="43.53836" lon="3.90364">
        <ele>4.5362903225807</ele>
        <time>2020-08-02T08:27:46.000Z</time>
      </trkpt>
      <trkpt lat="43.53838" lon="3.90361">
        <ele>4.6370967741935</ele>
        <time>2020-08-02T08:27:47.000Z</time>
      </trkpt>
      <trkpt lat="43.5384" lon="3.90357">
        <ele>4.7379032258065</ele>
        <time>2020-08-02T08:27:48.000Z</time>
      </trkpt>
      <trkpt lat="43.53842" lon="3.90354">
        <ele>4.8387096774193</ele>
        <time>2020-08-02T08:27:49.000Z</time>
      </trkpt>
      <trkpt lat="43.53843" lon="3.90352">
        <ele>4.9395161290323</ele>
        <time>2020-08-02T08:27:50.000Z</time>
      </trkpt>
      <trkpt lat="43.53846" lon="3.90351">
        <ele>5</ele>
        <time>2020-08-02T08:27:52.000Z</time>
      </trkpt>
      <trkpt lat="43.53848" lon="3.90349">
        <ele>5</ele>
        <time>2020-08-02T08:27:54.000Z</time>
      </trkpt>
      <trkpt lat="43.53849" lon="3.90345">
        <ele>5</ele>
        <time>2020-08-02T08:27:56.000Z</time>
      </trkpt>
      <trkpt lat="43.53849" lon="3.9034">
        <ele>5</ele>
        <time>2020-08-02T08:27:58.000Z</time>
      </trkpt>
      <trkpt lat="43.53849" lon="3.90337">
        <ele>5</ele>
        <time>2020-08-02T08:27:59.000Z</time>
      </trkpt>
      <trkpt lat="43.5385" lon="3.90334">
        <ele>5</ele>
        <time>2020-08-02T08:28:00.000Z</time>
      </trkpt>
      <trkpt lat="43.53852" lon="3.90332">
        <ele>5</ele>
        <time>2020-08-02T08:28:01.000Z</time>
      </trkpt>
      <trkpt lat="43.53854" lon="3.9033">
        <ele>5</ele>
        <time>2020-08-02T08:28:02.000Z</time>
      </trkpt>
      <trkpt lat="43.53856" lon="3.90328">
        <ele>5</ele>
        <time>2020-08-02T08:28:03.000Z</time>
      </trkpt>
      <trkpt lat="43.53858" lon="3.90326">
        <ele>5</ele>
        <time>2020-08-02T08:28:04.000Z</time>
      </trkpt>
      <trkpt lat="43.5386" lon="3.90323">
        <ele>5</ele>
        <time>2020-08-02T08:28:05.000Z</time>
      </trkpt>
      <trkpt lat="43.53862" lon="3.9032">
        <ele>5</ele>
        <time>2020-08-02T08:28:06.000Z</time>
      </trkpt>
      <trkpt lat="43.53865" lon="3.90317">
        <ele>5</ele>
        <time>2020-08-02T08:28:07.000Z</time>
      </trkpt>
      <trkpt lat="43.53868" lon="3.90314">
        <ele>5</ele>
        <time>2020-08-02T08:28:08.000Z</time>
      </trkpt>
      <trkpt lat="43.53871" lon="3.90312">
        <ele>5</ele>
        <time>2020-08-02T08:28:09.000Z</time>
      </trkpt>
      <trkpt lat="43.53874" lon="3.9031">
        <ele>5</ele>
        <time>2020-08-02T08:28:10.000Z</time>
      </trkpt>
      <trkpt lat="43.53877" lon="3.90309">
        <ele>5</ele>
        <time>2020-08-02T08:28:11.000Z</time>
      </trkpt>
      <trkpt lat="43.5388" lon="3.90307">
        <ele>5</ele>
        <time>2020-08-02T08:28:12.000Z</time>
      </trkpt>
      <trkpt lat="43.53883" lon="3.90305">
        <ele>5</ele>
        <time>2020-08-02T08:28:13.000Z</time>
      </trkpt>
      <trkpt lat="43.53886" lon="3.90302">
        <ele>5</ele>
        <time>2020-08-02T08:28:14.000Z</time>
      </trkpt>
      <trkpt lat="43.53889" lon="3.90299">
        <ele>5</ele>
        <time>2020-08-02T08:28:15.000Z</time>
      </trkpt>
      <trkpt lat="43.53892" lon="3.90295">
        <ele>5</ele>
        <time>2020-08-02T08:28:16.000Z</time>
      </trkpt>
      <trkpt lat="43.53895" lon="3.90292">
        <ele>5</ele>
        <time>2020-08-02T08:28:17.000Z</time>
      </trkpt>
      <trkpt lat="43.53898" lon="3.90288">
        <ele>5</ele>
        <time>2020-08-02T08:28:18.000Z</time>
      </trkpt>
      <trkpt lat="43.53901" lon="3.90285">
        <ele>5</ele>
        <time>2020-08-02T08:28:19.000Z</time>
      </trkpt>
      <trkpt lat="43.53905" lon="3.90281">
        <ele>5</ele>
        <time>2020-08-02T08:28:20.000Z</time>
      </trkpt>
      <trkpt lat="43.53908" lon="3.90278">
        <ele>5</ele>
        <time>2020-08-02T08:28:21.000Z</time>
      </trkpt>
      <trkpt lat="43.53911" lon="3.90274">
        <ele>5</ele>
        <time>2020-08-02T08:28:22.000Z</time>
      </trkpt>
      <trkpt lat="43.53914" lon="3.9027">
        <ele>5</ele>
        <time>2020-08-02T08:28:23.000Z</time>
      </trkpt>
      <trkpt lat="43.53918" lon="3.90266">
        <ele>5</ele>
        <time>2020-08-02T08:28:24.000Z</time>
      </trkpt>
      <trkpt lat="43.53921" lon="3.90262">
        <ele>5</ele>
        <time>2020-08-02T08:28:25.000Z</time>
      </trkpt>
      <trkpt lat="43.53924" lon="3.90258">
        <ele>5</ele>
        <time>2020-08-02T08:28:26.000Z</time>
      </trkpt>
      <trkpt lat="43.53927" lon="3.90254">
        <ele>5</ele>
        <time>2020-08-02T08:28:27.000Z</time>
      </trkpt>
      <trkpt lat="43.5393" lon="3.9025">
        <ele>5</ele>
        <time>2020-08-02T08:28:28.000Z</time>
      </trkpt>
      <trkpt lat="43.53933" lon="3.90247">
        <ele>5</ele>
        <time>2020-08-02T08:28:29.000Z</time>
      </trkpt>
      <trkpt lat="43.53936" lon="3.90243">
        <ele>5</ele>
        <time>2020-08-02T08:28:30.000Z</time>
      </trkpt>
      <trkpt lat="43.53939" lon="3.90239">
        <ele>5.0437314810438</ele>
        <time>2020-08-02T08:28:31.000Z</time>
      </trkpt>
      <trkpt lat="43.53942" lon="3.90235">
        <ele>5.1409132411003</ele>
        <time>2020-08-02T08:28:32.000Z</time>
      </trkpt>
      <trkpt lat="43.53945" lon="3.90232">
        <ele>5.2380950011569</ele>
        <time>2020-08-02T08:28:33.000Z</time>
      </trkpt>
      <trkpt lat="43.53948" lon="3.90228">
        <ele>5.3352767612134</ele>
        <time>2020-08-02T08:28:34.000Z</time>
      </trkpt>
      <trkpt lat="43.53951" lon="3.90224">
        <ele>5.4324585212699</ele>
        <time>2020-08-02T08:28:35.000Z</time>
      </trkpt>
      <trkpt lat="43.53954" lon="3.9022">
        <ele>5.5296402813264</ele>
        <time>2020-08-02T08:28:36.000Z</time>
      </trkpt>
      <trkpt lat="43.53958" lon="3.90216">
        <ele>5.626822041383</ele>
        <time>2020-08-02T08:28:37.000Z</time>
      </trkpt>
      <trkpt lat="43.53961" lon="3.90213">
        <ele>5.7240038014395</ele>
        <time>2020-08-02T08:28:38.000Z</time>
      </trkpt>
      <trkpt lat="43.53964" lon="3.90209">
        <ele>5.821185561496</ele>
        <time>2020-08-02T08:28:39.000Z</time>
      </trkpt>
      <trkpt lat="43.53968" lon="3.90204">
        <ele>5.9183673215525</ele>
        <time>2020-08-02T08:28:40.000Z</time>
      </trkpt>
      <trkpt lat="43.53971" lon="3.902">
        <ele>6</ele>
        <time>2020-08-02T08:28:41.000Z</time>
      </trkpt>
      <trkpt lat="43.53974" lon="3.90196">
        <ele>6</ele>
        <time>2020-08-02T08:28:42.000Z</time>
      </trkpt>
      <trkpt lat="43.53977" lon="3.90192">
        <ele>6</ele>
        <time>2020-08-02T08:28:43.000Z</time>
      </trkpt>
      <trkpt lat="43.53981" lon="3.90188">
        <ele>6</ele>
        <time>2020-08-02T08:28:44.000Z</time>
      </trkpt>
      <trkpt lat="43.53984" lon="3.90184">
        <ele>6</ele>
        <time>2020-08-02T08:28:45.000Z</time>
      </trkpt>
      <trkpt lat="43.53988" lon="3.9018">
        <ele>6</ele>
        <time>2020-08-02T08:28:46.000Z</time>
      </trkpt>
      <trkpt lat="43.53991" lon="3.90176">
        <ele>6</ele>
        <time>2020-08-02T08:28:47.000Z</time>
      </trkpt>
      <trkpt lat="43.53995" lon="3.90172">
        <ele>6</ele>
        <time>2020-08-02T08:28:48.000Z</time>
      </trkpt>
      <trkpt lat="43.53998" lon="3.90168">
        <ele>6</ele>
        <time>2020-08-02T08:28:49.000Z</time>
      </trkpt>
      <trkpt lat="43.54001" lon="3.90163">
        <ele>6</ele>
        <time>2020-08-02T08:28:50.000Z</time>
      </trkpt>
      <trkpt lat="43.54005" lon="3.90159">
        <ele>6</ele>
        <time>2020-08-02T08:28:51.000Z</time>
      </trkpt>
      <trkpt lat="43.54008" lon="3.90155">
        <ele>6</ele>
        <time>2020-08-02T08:28:52.000Z</time>
      </trkpt>
      <trkpt lat="43.54012" lon="3.90151">
        <ele>6</ele>
        <time>2020-08-02T08:28:53.000Z</time>
      </trkpt>
      <trkpt lat="43.54016" lon="3.90147">
        <ele>6</ele>
        <time>2020-08-02T08:28:54.000Z</time>
      </trkpt>
      <trkpt lat="43.54019" lon="3.90143">
        <ele>6</ele>
        <time>2020-08-02T08:28:55.000Z</time>
      </trkpt>
      <trkpt lat="43.54023" lon="3.90138">
        <ele>6</ele>
        <time>2020-08-02T08:28:56.000Z</time>
      </trkpt>
      <trkpt lat="43.54027" lon="3.90134">
        <ele>6</ele>
        <time>2020-08-02T08:28:57.000Z</time>
      </trkpt>
      <trkpt lat="43.5403" lon="3.9013">
        <ele>6</ele>
        <time>2020-08-02T08:28:58.000Z</time>
      </trkpt>
      <trkpt lat="43.54034" lon="3.90126">
        <ele>6</ele>
        <time>2020-08-02T08:28:59.000Z</time>
      </trkpt>
      <trkpt lat="43.54038" lon="3.90121">
        <ele>6</ele>
        <time>2020-08-02T08:29:00.000Z</time>
      </trkpt>
      <trkpt lat="43.54041" lon="3.90117">
        <ele>6</ele>
        <time>2020-08-02T08:29:01.000Z</time>
      </trkpt>
      <trkpt lat="43.54045" lon="3.90113">
        <ele>6</ele>
        <time>2020-08-02T08:29:02.000Z</time>
      </trkpt>
      <trkpt lat="43.54049" lon="3.90109">
        <ele>6</ele>
        <time>2020-08-02T08:29:03.000Z</time>
      </trkpt>
      <trkpt lat="43.54052" lon="3.90105">
        <ele>6</ele>
        <time>2020-08-02T08:29:04.000Z</time>
      </trkpt>
      <trkpt lat="43.54056" lon="3.901">
        <ele>6</ele>
        <time>2020-08-02T08:29:05.000Z</time>
      </trkpt>
      <trkpt lat="43.54059" lon="3.90096">
        <ele>6</ele>
        <time>2020-08-02T08:29:06.000Z</time>
      </trkpt>
      <trkpt lat="43.54063" lon="3.90092">
        <ele>6</ele>
        <time>2020-08-02T08:29:07.000Z</time>
      </trkpt>
      <trkpt lat="43.54066" lon="3.90088">
        <ele>6</ele>
        <time>2020-08-02T08:29:08.000Z</time>
      </trkpt>
      <trkpt lat="43.54069" lon="3.90083">
        <ele>6</ele>
        <time>2020-08-02T08:29:09.000Z</time>
      </trkpt>
      <trkpt lat="43.54073" lon="3.90078">
        <ele>6</ele>
        <time>2020-08-02T08:29:10.000Z</time>
      </trkpt>
      <trkpt lat="43.54077" lon="3.90074">
        <ele>6</ele>
        <time>2020-08-02T08:29:11.000Z</time>
      </trkpt>
      <trkpt lat="43.5408" lon="3.9007">
        <ele>6</ele>
        <time>2020-08-02T08:29:12.000Z</time>
      </trkpt>
      <trkpt lat="43.54084" lon="3.90066">
        <ele>6</ele>
        <time>2020-08-02T08:29:13.000Z</time>
      </trkpt>
      <trkpt lat="43.54087" lon="3.90061">
        <ele>6</ele>
        <time>2020-08-02T08:29:14.000Z</time>
      </trkpt>
      <trkpt lat="43.54091" lon="3.90057">
        <ele>6</ele>
        <time>2020-08-02T08:29:15.000Z</time>
      </trkpt>
      <trkpt lat="43.54094" lon="3.90053">
        <ele>6</ele>
        <time>2020-08-02T08:29:16.000Z</time>
      </trkpt>
      <trkpt lat="43.54098" lon="3.90049">
        <ele>6</ele>
        <time>2020-08-02T08:29:17.000Z</time>
      </trkpt>
      <trkpt lat="43.54102" lon="3.90045">
        <ele>6</ele>
        <time>2020-08-02T08:29:18.000Z</time>
      </trkpt>
      <trkpt lat="43.54106" lon="3.90041">
        <ele>6</ele>
        <time>2020-08-02T08:29:19.000Z</time>
      </trkpt>
      <trkpt lat="43.54109" lon="3.90037">
        <ele>6</ele>
        <time>2020-08-02T08:29:20.000Z</time>
      </trkpt>
      <trkpt lat="43.54113" lon="3.90032">
        <ele>5.95500032</ele>
        <time>2020-08-02T08:29:21.000Z</time>
      </trkpt>
      <trkpt lat="43.54117" lon="3.90029">
        <ele>5.85500032</ele>
        <time>2020-08-02T08:29:22.000Z</time>
      </trkpt>
      <trkpt lat="43.54121" lon="3.90025">
        <ele>5.75500032</ele>
        <time>2020-08-02T08:29:23.000Z</time>
      </trkpt>
      <trkpt lat="43.54125" lon="3.90022">
        <ele>5.65500032</ele>
        <time>2020-08-02T08:29:24.000Z</time>
      </trkpt>
      <trkpt lat="43.54128" lon="3.90018">
        <ele>5.55500032</ele>
        <time>2020-08-02T08:29:25.000Z</time>
      </trkpt>
      <trkpt lat="43.54132" lon="3.90014">
        <ele>5.45500032</ele>
        <time>2020-08-02T08:29:26.000Z</time>
      </trkpt>
      <trkpt lat="43.54136" lon="3.9001">
        <ele>5.35500032</ele>
        <time>2020-08-02T08:29:27.000Z</time>
      </trkpt>
      <trkpt lat="43.54139" lon="3.90005">
        <ele>5.25500032</ele>
        <time>2020-08-02T08:29:28.000Z</time>
      </trkpt>
      <trkpt lat="43.54143" lon="3.90001">
        <ele>5.15500032</ele>
        <time>2020-08-02T08:29:29.000Z</time>
      </trkpt>
      <trkpt lat="43.54147" lon="3.89997">
        <ele>5.05500032</ele>
        <time>2020-08-02T08:29:30.000Z</time>
      </trkpt>
      <trkpt lat="43.5415" lon="3.89993">
        <ele>5</ele>
        <time>2020-08-02T08:29:31.000Z</time>
      </trkpt>
      <trkpt lat="43.54154" lon="3.89989">
        <ele>5</ele>
        <time>2020-08-02T08:29:32.000Z</time>
      </trkpt>
      <trkpt lat="43.54158" lon="3.89986">
        <ele>5</ele>
        <time>2020-08-02T08:29:33.000Z</time>
      </trkpt>
      <trkpt lat="43.54162" lon="3.89983">
        <ele>5</ele>
        <time>2020-08-02T08:29:34.000Z</time>
      </trkpt>
      <trkpt lat="43.54166" lon="3.8998">
        <ele>5</ele>
        <time>2020-08-02T08:29:35.000Z</time>
      </trkpt>
      <trkpt lat="43.5417" lon="3.89977">
        <ele>5</ele>
        <time>2020-08-02T08:29:36.000Z</time>
      </trkpt>
      <trkpt lat="43.54174" lon="3.89973">
        <ele>5</ele>
        <time>2020-08-02T08:29:37.000Z</time>
      </trkpt>
      <trkpt lat="43.54177" lon="3.8997">
        <ele>5</ele>
        <time>2020-08-02T08:29:38.000Z</time>
      </trkpt>
      <trkpt lat="43.54181" lon="3.89967">
        <ele>5</ele>
        <time>2020-08-02T08:29:39.000Z</time>
      </trkpt>
      <trkpt lat="43.54184" lon="3.89964">
        <ele>5</ele>
        <time>2020-08-02T08:29:40.000Z</time>
      </trkpt>
      <trkpt lat="43.54188" lon="3.8996">
        <ele>5</ele>
        <time>2020-08-02T08:29:41.000Z</time>
      </trkpt>
      <trkpt lat="43.54191" lon="3.89957">
        <ele>5</ele>
        <time>2020-08-02T08:29:42.000Z</time>
      </trkpt>
      <trkpt lat="43.54195" lon="3.89954">
        <ele>5</ele>
        <time>2020-08-02T08:29:43.000Z</time>
      </trkpt>
      <trkpt lat="43.54198" lon="3.8995">
        <ele>5</ele>
        <time>2020-08-02T08:29:44.000Z</time>
      </trkpt>
      <trkpt lat="43.54201" lon="3.89947">
        <ele>5</ele>
        <time>2020-08-02T08:29:45.000Z</time>
      </trkpt>
      <trkpt lat="43.54205" lon="3.89943">
        <ele>5</ele>
        <time>2020-08-02T08:29:46.000Z</time>
      </trkpt>
      <trkpt lat="43.54208" lon="3.89939">
        <ele>5</ele>
        <time>2020-08-02T08:29:47.000Z</time>
      </trkpt>
      <trkpt lat="43.54211" lon="3.89936">
        <ele>5</ele>
        <time>2020-08-02T08:29:48.000Z</time>
      </trkpt>
      <trkpt lat="43.54214" lon="3.89932">
        <ele>5</ele>
        <time>2020-08-02T08:29:49.000Z</time>
      </trkpt>
      <trkpt lat="43.54218" lon="3.89928">
        <ele>5</ele>
        <time>2020-08-02T08:29:50.000Z</time>
      </trkpt>
      <trkpt lat="43.54221" lon="3.89924">
        <ele>5.0208536974447</ele>
        <time>2020-08-02T08:29:51.000Z</time>
      </trkpt>
      <trkpt lat="43.54224" lon="3.89921">
        <ele>5.1201585318265</ele>
        <time>2020-08-02T08:29:52.000Z</time>
      </trkpt>
      <trkpt lat="43.54227" lon="3.89917">
        <ele>5.2194633662083</ele>
        <time>2020-08-02T08:29:53.000Z</time>
      </trkpt>
      <trkpt lat="43.5423" lon="3.89912">
        <ele>5.31876820059</ele>
        <time>2020-08-02T08:29:54.000Z</time>
      </trkpt>
      <trkpt lat="43.54233" lon="3.89908">
        <ele>5.4180730349718</ele>
        <time>2020-08-02T08:29:55.000Z</time>
      </trkpt>
      <trkpt lat="43.54236" lon="3.89903">
        <ele>5.5173778693536</ele>
        <time>2020-08-02T08:29:56.000Z</time>
      </trkpt>
      <trkpt lat="43.54239" lon="3.89899">
        <ele>5.6166827037354</ele>
        <time>2020-08-02T08:29:57.000Z</time>
      </trkpt>
      <trkpt lat="43.54242" lon="3.89894">
        <ele>5.7159875381172</ele>
        <time>2020-08-02T08:29:58.000Z</time>
      </trkpt>
      <trkpt lat="43.54245" lon="3.8989">
        <ele>5.815292372499</ele>
        <time>2020-08-02T08:29:59.000Z</time>
      </trkpt>
      <trkpt lat="43.54248" lon="3.89886">
        <ele>5.9145972068807</ele>
        <time>2020-08-02T08:30:00.000Z</time>
      </trkpt>
      <trkpt lat="43.54251" lon="3.89881">
        <ele>5.9855527712868</ele>
        <time>2020-08-02T08:30:01.000Z</time>
      </trkpt>
      <trkpt lat="43.54254" lon="3.89877">
        <ele>5.8823535627999</ele>
        <time>2020-08-02T08:30:02.000Z</time>
      </trkpt>
      <trkpt lat="43.54257" lon="3.89873">
        <ele>5.7791543543131</ele>
        <time>2020-08-02T08:30:03.000Z</time>
      </trkpt>
      <trkpt lat="43.5426" lon="3.89869">
        <ele>5.6759551458263</ele>
        <time>2020-08-02T08:30:04.000Z</time>
      </trkpt>
      <trkpt lat="43.54263" lon="3.89865">
        <ele>5.5727559373394</ele>
        <time>2020-08-02T08:30:05.000Z</time>
      </trkpt>
      <trkpt lat="43.54266" lon="3.89861">
        <ele>5.4695567288526</ele>
        <time>2020-08-02T08:30:06.000Z</time>
      </trkpt>
      <trkpt lat="43.54269" lon="3.89857">
        <ele>5.3663575203657</ele>
        <time>2020-08-02T08:30:07.000Z</time>
      </trkpt>
      <trkpt lat="43.54273" lon="3.89853">
        <ele>5.2631583118789</ele>
        <time>2020-08-02T08:30:08.000Z</time>
      </trkpt>
      <trkpt lat="43.54277" lon="3.89849">
        <ele>5.1599591033921</ele>
        <time>2020-08-02T08:30:09.000Z</time>
      </trkpt>
      <trkpt lat="43.54281" lon="3.89845">
        <ele>5.0567598949052</ele>
        <time>2020-08-02T08:30:10.000Z</time>
      </trkpt>
      <trkpt lat="43.54285" lon="3.89841">
        <ele>5.04499968</ele>
        <time>2020-08-02T08:30:11.000Z</time>
      </trkpt>
      <trkpt lat="43.54289" lon="3.89837">
        <ele>5.14499968</ele>
        <time>2020-08-02T08:30:12.000Z</time>
      </trkpt>
      <trkpt lat="43.54293" lon="3.89834">
        <ele>5.24499968</ele>
        <time>2020-08-02T08:30:13.000Z</time>
      </trkpt>
      <trkpt lat="43.54297" lon="3.8983">
        <ele>5.34499968</ele>
        <time>2020-08-02T08:30:14.000Z</time>
      </trkpt>
      <trkpt lat="43.54301" lon="3.89827">
        <ele>5.44499968</ele>
        <time>2020-08-02T08:30:15.000Z</time>
      </trkpt>
      <trkpt lat="43.54305" lon="3.89823">
        <ele>5.54499968</ele>
        <time>2020-08-02T08:30:16.000Z</time>
      </trkpt>
      <trkpt lat="43.54309" lon="3.8982">
        <ele>5.64499968</ele>
        <time>2020-08-02T08:30:17.000Z</time>
      </trkpt>
      <trkpt lat="43.54313" lon="3.89817">
        <ele>5.74499968</ele>
        <time>2020-08-02T08:30:18.000Z</time>
      </trkpt>
      <trkpt lat="43.54316" lon="3.89814">
        <ele>5.84499968</ele>
        <time>2020-08-02T08:30:19.000Z</time>
      </trkpt>
      <trkpt lat="43.5432" lon="3.89811">
        <ele>5.94499968</ele>
        <time>2020-08-02T08:30:20.000Z</time>
      </trkpt>
      <trkpt lat="43.54324" lon="3.89808">
        <ele>5.9558393303295</ele>
        <time>2020-08-02T08:30:21.000Z</time>
      </trkpt>
      <trkpt lat="43.54328" lon="3.89805">
        <ele>5.8577038109869</ele>
        <time>2020-08-02T08:30:22.000Z</time>
      </trkpt>
      <trkpt lat="43.54331" lon="3.89803">
        <ele>5.7595682916443</ele>
        <time>2020-08-02T08:30:23.000Z</time>
      </trkpt>
      <trkpt lat="43.54335" lon="3.898">
        <ele>5.6614327723017</ele>
        <time>2020-08-02T08:30:24.000Z</time>
      </trkpt>
      <trkpt lat="43.54339" lon="3.89797">
        <ele>5.5632972529591</ele>
        <time>2020-08-02T08:30:25.000Z</time>
      </trkpt>
      <trkpt lat="43.54343" lon="3.89795">
        <ele>5.4651617336165</ele>
        <time>2020-08-02T08:30:26.000Z</time>
      </trkpt>
      <trkpt lat="43.54347" lon="3.89792">
        <ele>5.367026214274</ele>
        <time>2020-08-02T08:30:27.000Z</time>
      </trkpt>
      <trkpt lat="43.54351" lon="3.8979">
        <ele>5.2688906949314</ele>
        <time>2020-08-02T08:30:28.000Z</time>
      </trkpt>
      <trkpt lat="43.54355" lon="3.89788">
        <ele>5.1707551755888</ele>
        <time>2020-08-02T08:30:29.000Z</time>
      </trkpt>
      <trkpt lat="43.54359" lon="3.89785">
        <ele>5.0726196562462</ele>
        <time>2020-08-02T08:30:30.000Z</time>
      </trkpt>
      <trkpt lat="43.54363" lon="3.89783">
        <ele>5</ele>
        <time>2020-08-02T08:30:31.000Z</time>
      </trkpt>
      <trkpt lat="43.54367" lon="3.8978">
        <ele>5</ele>
        <time>2020-08-02T08:30:32.000Z</time>
      </trkpt>
      <trkpt lat="43.54372" lon="3.89778">
        <ele>5</ele>
        <time>2020-08-02T08:30:33.000Z</time>
      </trkpt>
      <trkpt lat="43.54376" lon="3.89776">
        <ele>5</ele>
        <time>2020-08-02T08:30:34.000Z</time>
      </trkpt>
      <trkpt lat="43.5438" lon="3.89774">
        <ele>5</ele>
        <time>2020-08-02T08:30:35.000Z</time>
      </trkpt>
      <trkpt lat="43.54385" lon="3.89773">
        <ele>5</ele>
        <time>2020-08-02T08:30:36.000Z</time>
      </trkpt>
      <trkpt lat="43.54389" lon="3.89771">
        <ele>5</ele>
        <time>2020-08-02T08:30:37.000Z</time>
      </trkpt>
      <trkpt lat="43.54393" lon="3.8977">
        <ele>5</ele>
        <time>2020-08-02T08:30:38.000Z</time>
      </trkpt>
      <trkpt lat="43.54398" lon="3.89768">
        <ele>5</ele>
        <time>2020-08-02T08:30:39.000Z</time>
      </trkpt>
      <trkpt lat="43.54402" lon="3.89767">
        <ele>5</ele>
        <time>2020-08-02T08:30:40.000Z</time>
      </trkpt>
      <trkpt lat="43.54406" lon="3.89766">
        <ele>5</ele>
        <time>2020-08-02T08:30:41.000Z</time>
      </trkpt>
      <trkpt lat="43.5441" lon="3.89766">
        <ele>5</ele>
        <time>2020-08-02T08:30:42.000Z</time>
      </trkpt>
      <trkpt lat="43.54414" lon="3.89765">
        <ele>5</ele>
        <time>2020-08-02T08:30:43.000Z</time>
      </trkpt>
      <trkpt lat="43.54418" lon="3.89765">
        <ele>5</ele>
        <time>2020-08-02T08:30:44.000Z</time>
      </trkpt>
      <trkpt lat="43.54422" lon="3.89764">
        <ele>5</ele>
        <time>2020-08-02T08:30:45.000Z</time>
      </trkpt>
      <trkpt lat="43.54426" lon="3.89763">
        <ele>5</ele>
        <time>2020-08-02T08:30:46.000Z</time>
      </trkpt>
      <trkpt lat="43.5443" lon="3.89762">
        <ele>5</ele>
        <time>2020-08-02T08:30:47.000Z</time>
      </trkpt>
      <trkpt lat="43.54435" lon="3.8976">
        <ele>5</ele>
        <time>2020-08-02T08:30:48.000Z</time>
      </trkpt>
      <trkpt lat="43.54439" lon="3.89759">
        <ele>5</ele>
        <time>2020-08-02T08:30:49.000Z</time>
      </trkpt>
      <trkpt lat="43.54444" lon="3.89758">
        <ele>5</ele>
        <time>2020-08-02T08:30:50.000Z</time>
      </trkpt>
      <trkpt lat="43.54448" lon="3.89757">
        <ele>5</ele>
        <time>2020-08-02T08:30:51.000Z</time>
      </trkpt>
      <trkpt lat="43.54452" lon="3.89756">
        <ele>5</ele>
        <time>2020-08-02T08:30:52.000Z</time>
      </trkpt>
      <trkpt lat="43.54457" lon="3.89755">
        <ele>5</ele>
        <time>2020-08-02T08:30:53.000Z</time>
      </trkpt>
      <trkpt lat="43.54461" lon="3.89754">
        <ele>5</ele>
        <time>2020-08-02T08:30:54.000Z</time>
      </trkpt>
      <trkpt lat="43.54465" lon="3.89753">
        <ele>5</ele>
        <time>2020-08-02T08:30:55.000Z</time>
      </trkpt>
      <trkpt lat="43.5447" lon="3.89752">
        <ele>5</ele>
        <time>2020-08-02T08:30:56.000Z</time>
      </trkpt>
      <trkpt lat="43.54474" lon="3.89751">
        <ele>5</ele>
        <time>2020-08-02T08:30:57.000Z</time>
      </trkpt>
      <trkpt lat="43.54478" lon="3.89751">
        <ele>5</ele>
        <time>2020-08-02T08:30:58.000Z</time>
      </trkpt>
      <trkpt lat="43.54483" lon="3.8975">
        <ele>5</ele>
        <time>2020-08-02T08:30:59.000Z</time>
      </trkpt>
      <trkpt lat="43.54487" lon="3.8975">
        <ele>5</ele>
        <time>2020-08-02T08:31:00.000Z</time>
      </trkpt>
      <trkpt lat="43.54492" lon="3.89749">
        <ele>4.9562685189562</ele>
        <time>2020-08-02T08:31:01.000Z</time>
      </trkpt>
      <trkpt lat="43.54496" lon="3.89748">
        <ele>4.8590867588997</ele>
        <time>2020-08-02T08:31:02.000Z</time>
      </trkpt>
      <trkpt lat="43.545" lon="3.89748">
        <ele>4.7619049988431</ele>
        <time>2020-08-02T08:31:03.000Z</time>
      </trkpt>
      <trkpt lat="43.54505" lon="3.89747">
        <ele>4.6647232387866</ele>
        <time>2020-08-02T08:31:04.000Z</time>
      </trkpt>
      <trkpt lat="43.54509" lon="3.89746">
        <ele>4.5675414787301</ele>
        <time>2020-08-02T08:31:05.000Z</time>
      </trkpt>
      <trkpt lat="43.54514" lon="3.89746">
        <ele>4.4703597186736</ele>
        <time>2020-08-02T08:31:06.000Z</time>
      </trkpt>
      <trkpt lat="43.54518" lon="3.89745">
        <ele>4.373177958617</ele>
        <time>2020-08-02T08:31:07.000Z</time>
      </trkpt>
      <trkpt lat="43.54523" lon="3.89744">
        <ele>4.2759961985605</ele>
        <time>2020-08-02T08:31:08.000Z</time>
      </trkpt>
      <trkpt lat="43.54528" lon="3.89744">
        <ele>4.178814438504</ele>
        <time>2020-08-02T08:31:09.000Z</time>
      </trkpt>
      <trkpt lat="43.54532" lon="3.89743">
        <ele>4.0816326784475</ele>
        <time>2020-08-02T08:31:10.000Z</time>
      </trkpt>
      <trkpt lat="43.54537" lon="3.89743">
        <ele>4</ele>
        <time>2020-08-02T08:31:11.000Z</time>
      </trkpt>
      <trkpt lat="43.54542" lon="3.89742">
        <ele>4</ele>
        <time>2020-08-02T08:31:12.000Z</time>
      </trkpt>
      <trkpt lat="43.54546" lon="3.89742">
        <ele>4</ele>
        <time>2020-08-02T08:31:13.000Z</time>
      </trkpt>
      <trkpt lat="43.54551" lon="3.89741">
        <ele>4</ele>
        <time>2020-08-02T08:31:14.000Z</time>
      </trkpt>
      <trkpt lat="43.54556" lon="3.89741">
        <ele>4</ele>
        <time>2020-08-02T08:31:15.000Z</time>
      </trkpt>
      <trkpt lat="43.5456" lon="3.8974">
        <ele>4</ele>
        <time>2020-08-02T08:31:16.000Z</time>
      </trkpt>
      <trkpt lat="43.54565" lon="3.8974">
        <ele>4</ele>
        <time>2020-08-02T08:31:17.000Z</time>
      </trkpt>
      <trkpt lat="43.5457" lon="3.8974">
        <ele>4</ele>
        <time>2020-08-02T08:31:18.000Z</time>
      </trkpt>
      <trkpt lat="43.54575" lon="3.89739">
        <ele>4</ele>
        <time>2020-08-02T08:31:19.000Z</time>
      </trkpt>
      <trkpt lat="43.54579" lon="3.89739">
        <ele>4</ele>
        <time>2020-08-02T08:31:20.000Z</time>
      </trkpt>
      <trkpt lat="43.54584" lon="3.89738">
        <ele>4</ele>
        <time>2020-08-02T08:31:21.000Z</time>
      </trkpt>
      <trkpt lat="43.54589" lon="3.89738">
        <ele>4</ele>
        <time>2020-08-02T08:31:22.000Z</time>
      </trkpt>
      <trkpt lat="43.54594" lon="3.89737">
        <ele>4</ele>
        <time>2020-08-02T08:31:23.000Z</time>
      </trkpt>
      <trkpt lat="43.54598" lon="3.89737">
        <ele>4</ele>
        <time>2020-08-02T08:31:24.000Z</time>
      </trkpt>
      <trkpt lat="43.54603" lon="3.89736">
        <ele>4</ele>
        <time>2020-08-02T08:31:25.000Z</time>
      </trkpt>
      <trkpt lat="43.54608" lon="3.89736">
        <ele>4</ele>
        <time>2020-08-02T08:31:26.000Z</time>
      </trkpt>
      <trkpt lat="43.54612" lon="3.89735">
        <ele>4</ele>
        <time>2020-08-02T08:31:27.000Z</time>
      </trkpt>
      <trkpt lat="43.54617" lon="3.89735">
        <ele>4</ele>
        <time>2020-08-02T08:31:28.000Z</time>
      </trkpt>
      <trkpt lat="43.54622" lon="3.89735">
        <ele>4</ele>
        <time>2020-08-02T08:31:29.000Z</time>
      </trkpt>
      <trkpt lat="43.54626" lon="3.89735">
        <ele>4</ele>
        <time>2020-08-02T08:31:30.000Z</time>
      </trkpt>
      <trkpt lat="43.54631" lon="3.89734">
        <ele>4</ele>
        <time>2020-08-02T08:31:31.000Z</time>
      </trkpt>
      <trkpt lat="43.54636" lon="3.89734">
        <ele>4</ele>
        <time>2020-08-02T08:31:32.000Z</time>
      </trkpt>
      <trkpt lat="43.54641" lon="3.89734">
        <ele>4</ele>
        <time>2020-08-02T08:31:33.000Z</time>
      </trkpt>
      <trkpt lat="43.54646" lon="3.89733">
        <ele>4</ele>
        <time>2020-08-02T08:31:34.000Z</time>
      </trkpt>
      <trkpt lat="43.54651" lon="3.89733">
        <ele>4</ele>
        <time>2020-08-02T08:31:35.000Z</time>
      </trkpt>
      <trkpt lat="43.54655" lon="3.89733">
        <ele>4</ele>
        <time>2020-08-02T08:31:36.000Z</time>
      </trkpt>
      <trkpt lat="43.5466" lon="3.89732">
        <ele>4</ele>
        <time>2020-08-02T08:31:37.000Z</time>
      </trkpt>
      <trkpt lat="43.54665" lon="3.89732">
        <ele>4</ele>
        <time>2020-08-02T08:31:38.000Z</time>
      </trkpt>
      <trkpt lat="43.5467" lon="3.89732">
        <ele>4</ele>
        <time>2020-08-02T08:31:39.000Z</time>
      </trkpt>
      <trkpt lat="43.54675" lon="3.89731">
        <ele>4</ele>
        <time>2020-08-02T08:31:40.000Z</time>
      </trkpt>
      <trkpt lat="43.54679" lon="3.89731">
        <ele>3.95500032</ele>
        <time>2020-08-02T08:31:41.000Z</time>
      </trkpt>
      <trkpt lat="43.54684" lon="3.89731">
        <ele>3.85500032</ele>
        <time>2020-08-02T08:31:42.000Z</time>
      </trkpt>
      <trkpt lat="43.54689" lon="3.8973">
        <ele>3.75500032</ele>
        <time>2020-08-02T08:31:43.000Z</time>
      </trkpt>
      <trkpt lat="43.54694" lon="3.8973">
        <ele>3.65500032</ele>
        <time>2020-08-02T08:31:44.000Z</time>
      </trkpt>
      <trkpt lat="43.54699" lon="3.8973">
        <ele>3.55500032</ele>
        <time>2020-08-02T08:31:45.000Z</time>
      </trkpt>
      <trkpt lat="43.54703" lon="3.8973">
        <ele>3.45500032</ele>
        <time>2020-08-02T08:31:46.000Z</time>
      </trkpt>
      <trkpt lat="43.54708" lon="3.8973">
        <ele>3.35500032</ele>
        <time>2020-08-02T08:31:47.000Z</time>
      </trkpt>
      <trkpt lat="43.54713" lon="3.8973">
        <ele>3.25500032</ele>
        <time>2020-08-02T08:31:48.000Z</time>
      </trkpt>
      <trkpt lat="43.54718" lon="3.8973">
        <ele>3.15500032</ele>
        <time>2020-08-02T08:31:49.000Z</time>
      </trkpt>
      <trkpt lat="43.54723" lon="3.8973">
        <ele>3.05500032</ele>
        <time>2020-08-02T08:31:50.000Z</time>
      </trkpt>
      <trkpt lat="43.54728" lon="3.8973">
        <ele>3</ele>
        <time>2020-08-02T08:31:51.000Z</time>
      </trkpt>
      <trkpt lat="43.54732" lon="3.8973">
        <ele>3</ele>
        <time>2020-08-02T08:31:52.000Z</time>
      </trkpt>
      <trkpt lat="43.54737" lon="3.8973">
        <ele>3</ele>
        <time>2020-08-02T08:31:53.000Z</time>
      </trkpt>
      <trkpt lat="43.54742" lon="3.8973">
        <ele>3</ele>
        <time>2020-08-02T08:31:54.000Z</time>
      </trkpt>
      <trkpt lat="43.54747" lon="3.8973">
        <ele>3</ele>
        <time>2020-08-02T08:31:55.000Z</time>
      </trkpt>
      <trkpt lat="43.54752" lon="3.8973">
        <ele>3</ele>
        <time>2020-08-02T08:31:56.000Z</time>
      </trkpt>
      <trkpt lat="43.54756" lon="3.8973">
        <ele>3</ele>
        <time>2020-08-02T08:31:57.000Z</time>
      </trkpt>
      <trkpt lat="43.54761" lon="3.8973">
        <ele>3</ele>
        <time>2020-08-02T08:31:58.000Z</time>
      </trkpt>
      <trkpt lat="43.54766" lon="3.8973">
        <ele>3</ele>
        <time>2020-08-02T08:31:59.000Z</time>
      </trkpt>
      <trkpt lat="43.54771" lon="3.89731">
        <ele>3</ele>
        <time>2020-08-02T08:32:00.000Z</time>
      </trkpt>
      <trkpt lat="43.54776" lon="3.89731">
        <ele>3.0449547396459</ele>
        <time>2020-08-02T08:32:01.000Z</time>
      </trkpt>
      <trkpt lat="43.5478" lon="3.89732">
        <ele>3.1448548714821</ele>
        <time>2020-08-02T08:32:02.000Z</time>
      </trkpt>
      <trkpt lat="43.54785" lon="3.89732">
        <ele>3.2447550033183</ele>
        <time>2020-08-02T08:32:03.000Z</time>
      </trkpt>
      <trkpt lat="43.5479" lon="3.89733">
        <ele>3.3446551351545</ele>
        <time>2020-08-02T08:32:04.000Z</time>
      </trkpt>
      <trkpt lat="43.54795" lon="3.89733">
        <ele>3.4445552669907</ele>
        <time>2020-08-02T08:32:05.000Z</time>
      </trkpt>
      <trkpt lat="43.548" lon="3.89734">
        <ele>3.5444553988269</ele>
        <time>2020-08-02T08:32:06.000Z</time>
      </trkpt>
      <trkpt lat="43.54805" lon="3.89735">
        <ele>3.6443555306631</ele>
        <time>2020-08-02T08:32:07.000Z</time>
      </trkpt>
      <trkpt lat="43.5481" lon="3.89736">
        <ele>3.7442556624993</ele>
        <time>2020-08-02T08:32:08.000Z</time>
      </trkpt>
      <trkpt lat="43.54815" lon="3.89736">
        <ele>3.8441557943355</ele>
        <time>2020-08-02T08:32:09.000Z</time>
      </trkpt>
      <trkpt lat="43.5482" lon="3.89737">
        <ele>3.9440559261717</ele>
        <time>2020-08-02T08:32:10.000Z</time>
      </trkpt>
      <trkpt lat="43.54825" lon="3.89738">
        <ele>4</ele>
        <time>2020-08-02T08:32:11.000Z</time>
      </trkpt>
      <trkpt lat="43.5483" lon="3.89738">
        <ele>4</ele>
        <time>2020-08-02T08:32:12.000Z</time>
      </trkpt>
      <trkpt lat="43.54835" lon="3.89739">
        <ele>4</ele>
        <time>2020-08-02T08:32:13.000Z</time>
      </trkpt>
      <trkpt lat="43.5484" lon="3.89739">
        <ele>4</ele>
        <time>2020-08-02T08:32:14.000Z</time>
      </trkpt>
      <trkpt lat="43.54845" lon="3.8974">
        <ele>4</ele>
        <time>2020-08-02T08:32:15.000Z</time>
      </trkpt>
      <trkpt lat="43.54849" lon="3.8974">
        <ele>4</ele>
        <time>2020-08-02T08:32:16.000Z</time>
      </trkpt>
      <trkpt lat="43.54854" lon="3.89741">
        <ele>4</ele>
        <time>2020-08-02T08:32:17.000Z</time>
      </trkpt>
      <trkpt lat="43.54859" lon="3.89741">
        <ele>4</ele>
        <time>2020-08-02T08:32:18.000Z</time>
      </trkpt>
      <trkpt lat="43.54864" lon="3.89741">
        <ele>4</ele>
        <time>2020-08-02T08:32:19.000Z</time>
      </trkpt>
      <trkpt lat="43.54868" lon="3.89741">
        <ele>4</ele>
        <time>2020-08-02T08:32:20.000Z</time>
      </trkpt>
      <trkpt lat="43.54873" lon="3.89742">
        <ele>4</ele>
        <time>2020-08-02T08:32:21.000Z</time>
      </trkpt>
      <trkpt lat="43.54878" lon="3.89742">
        <ele>4</ele>
        <time>2020-08-02T08:32:22.000Z</time>
      </trkpt>
      <trkpt lat="43.54883" lon="3.89742">
        <ele>4</ele>
        <time>2020-08-02T08:32:23.000Z</time>
      </trkpt>
      <trkpt lat="43.54887" lon="3.89743">
        <ele>4</ele>
        <time>2020-08-02T08:32:24.000Z</time>
      </trkpt>
      <trkpt lat="43.54892" lon="3.89743">
        <ele>4</ele>
        <time>2020-08-02T08:32:25.000Z</time>
      </trkpt>
      <trkpt lat="43.54897" lon="3.89743">
        <ele>4</ele>
        <time>2020-08-02T08:32:26.000Z</time>
      </trkpt>
      <trkpt lat="43.54902" lon="3.89744">
        <ele>4</ele>
        <time>2020-08-02T08:32:27.000Z</time>
      </trkpt>
      <trkpt lat="43.54907" lon="3.89744">
        <ele>4</ele>
        <time>2020-08-02T08:32:28.000Z</time>
      </trkpt>
      <trkpt lat="43.54912" lon="3.89745">
        <ele>4</ele>
        <time>2020-08-02T08:32:29.000Z</time>
      </trkpt>
      <trkpt lat="43.54917" lon="3.89745">
        <ele>4</ele>
        <time>2020-08-02T08:32:30.000Z</time>
      </trkpt>
      <trkpt lat="43.54922" lon="3.89746">
        <ele>4</ele>
        <time>2020-08-02T08:32:31.000Z</time>
      </trkpt>
      <trkpt lat="43.54926" lon="3.89747">
        <ele>4</ele>
        <time>2020-08-02T08:32:32.000Z</time>
      </trkpt>
      <trkpt lat="43.54931" lon="3.89747">
        <ele>4</ele>
        <time>2020-08-02T08:32:33.000Z</time>
      </trkpt>
      <trkpt lat="43.54936" lon="3.89748">
        <ele>4</ele>
        <time>2020-08-02T08:32:34.000Z</time>
      </trkpt>
      <trkpt lat="43.54941" lon="3.89749">
        <ele>4</ele>
        <time>2020-08-02T08:32:35.000Z</time>
      </trkpt>
      <trkpt lat="43.54946" lon="3.8975">
        <ele>4</ele>
        <time>2020-08-02T08:32:36.000Z</time>
      </trkpt>
      <trkpt lat="43.54951" lon="3.89751">
        <ele>4</ele>
        <time>2020-08-02T08:32:37.000Z</time>
      </trkpt>
      <trkpt lat="43.54956" lon="3.89752">
        <ele>4</ele>
        <time>2020-08-02T08:32:38.000Z</time>
      </trkpt>
      <trkpt lat="43.54961" lon="3.89753">
        <ele>4</ele>
        <time>2020-08-02T08:32:39.000Z</time>
      </trkpt>
      <trkpt lat="43.54966" lon="3.89754">
        <ele>4</ele>
        <time>2020-08-02T08:32:40.000Z</time>
      </trkpt>
      <trkpt lat="43.54971" lon="3.89755">
        <ele>4</ele>
        <time>2020-08-02T08:32:41.000Z</time>
      </trkpt>
      <trkpt lat="43.54976" lon="3.89756">
        <ele>4</ele>
        <time>2020-08-02T08:32:42.000Z</time>
      </trkpt>
      <trkpt lat="43.54981" lon="3.89757">
        <ele>4</ele>
        <time>2020-08-02T08:32:43.000Z</time>
      </trkpt>
      <trkpt lat="43.54985" lon="3.89758">
        <ele>4</ele>
        <time>2020-08-02T08:32:44.000Z</time>
      </trkpt>
      <trkpt lat="43.5499" lon="3.89759">
        <ele>4</ele>
        <time>2020-08-02T08:32:45.000Z</time>
      </trkpt>
      <trkpt lat="43.54995" lon="3.8976">
        <ele>4</ele>
        <time>2020-08-02T08:32:46.000Z</time>
      </trkpt>
      <trkpt lat="43.55" lon="3.89762">
        <ele>4</ele>
        <time>2020-08-02T08:32:47.000Z</time>
      </trkpt>
      <trkpt lat="43.55005" lon="3.89763">
        <ele>4</ele>
        <time>2020-08-02T08:32:48.000Z</time>
      </trkpt>
      <trkpt lat="43.5501" lon="3.89764">
        <ele>4</ele>
        <time>2020-08-02T08:32:49.000Z</time>
      </trkpt>
      <trkpt lat="43.55015" lon="3.89765">
        <ele>4</ele>
        <time>2020-08-02T08:32:50.000Z</time>
      </trkpt>
      <trkpt lat="43.55019" lon="3.89766">
        <ele>4</ele>
        <time>2020-08-02T08:32:51.000Z</time>
      </trkpt>
      <trkpt lat="43.55024" lon="3.89767">
        <ele>4</ele>
        <time>2020-08-02T08:32:52.000Z</time>
      </trkpt>
      <trkpt lat="43.55029" lon="3.89768">
        <ele>4</ele>
        <time>2020-08-02T08:32:53.000Z</time>
      </trkpt>
      <trkpt lat="43.55033" lon="3.8977">
        <ele>4</ele>
        <time>2020-08-02T08:32:54.000Z</time>
      </trkpt>
      <trkpt lat="43.55038" lon="3.89771">
        <ele>4</ele>
        <time>2020-08-02T08:32:55.000Z</time>
      </trkpt>
      <trkpt lat="43.55043" lon="3.89772">
        <ele>4</ele>
        <time>2020-08-02T08:32:56.000Z</time>
      </trkpt>
      <trkpt lat="43.55047" lon="3.89773">
        <ele>4</ele>
        <time>2020-08-02T08:32:57.000Z</time>
      </trkpt>
      <trkpt lat="43.55052" lon="3.89774">
        <ele>4</ele>
        <time>2020-08-02T08:32:58.000Z</time>
      </trkpt>
      <trkpt lat="43.55056" lon="3.89775">
        <ele>4</ele>
        <time>2020-08-02T08:32:59.000Z</time>
      </trkpt>
      <trkpt lat="43.55061" lon="3.89776">
        <ele>4</ele>
        <time>2020-08-02T08:33:00.000Z</time>
      </trkpt>
      <trkpt lat="43.55065" lon="3.89778">
        <ele>4</ele>
        <time>2020-08-02T08:33:01.000Z</time>
      </trkpt>
      <trkpt lat="43.55069" lon="3.89779">
        <ele>4</ele>
        <time>2020-08-02T08:33:02.000Z</time>
      </trkpt>
      <trkpt lat="43.55074" lon="3.8978">
        <ele>4</ele>
        <time>2020-08-02T08:33:03.000Z</time>
      </trkpt>
      <trkpt lat="43.55078" lon="3.89781">
        <ele>4</ele>
        <time>2020-08-02T08:33:04.000Z</time>
      </trkpt>
      <trkpt lat="43.55082" lon="3.89782">
        <ele>4</ele>
        <time>2020-08-02T08:33:05.000Z</time>
      </trkpt>
      <trkpt lat="43.55086" lon="3.89783">
        <ele>4</ele>
        <time>2020-08-02T08:33:06.000Z</time>
      </trkpt>
      <trkpt lat="43.5509" lon="3.89785">
        <ele>4</ele>
        <time>2020-08-02T08:33:07.000Z</time>
      </trkpt>
      <trkpt lat="43.55094" lon="3.89786">
        <ele>4</ele>
        <time>2020-08-02T08:33:08.000Z</time>
      </trkpt>
      <trkpt lat="43.55098" lon="3.89787">
        <ele>4</ele>
        <time>2020-08-02T08:33:09.000Z</time>
      </trkpt>
      <trkpt lat="43.55102" lon="3.89787">
        <ele>4</ele>
        <time>2020-08-02T08:33:10.000Z</time>
      </trkpt>
      <trkpt lat="43.55105" lon="3.89787">
        <ele>4</ele>
        <time>2020-08-02T08:33:11.000Z</time>
      </trkpt>
      <trkpt lat="43.55109" lon="3.89788">
        <ele>4</ele>
        <time>2020-08-02T08:33:12.000Z</time>
      </trkpt>
      <trkpt lat="43.55112" lon="3.89788">
        <ele>4</ele>
        <time>2020-08-02T08:33:13.000Z</time>
      </trkpt>
      <trkpt lat="43.55116" lon="3.89787">
        <ele>4</ele>
        <time>2020-08-02T08:33:14.000Z</time>
      </trkpt>
      <trkpt lat="43.5512" lon="3.89786">
        <ele>4</ele>
        <time>2020-08-02T08:33:15.000Z</time>
      </trkpt>
      <trkpt lat="43.55124" lon="3.89785">
        <ele>4</ele>
        <time>2020-08-02T08:33:16.000Z</time>
      </trkpt>
      <trkpt lat="43.55127" lon="3.89785">
        <ele>4</ele>
        <time>2020-08-02T08:33:17.000Z</time>
      </trkpt>
      <trkpt lat="43.55131" lon="3.89786">
        <ele>4</ele>
        <time>2020-08-02T08:33:18.000Z</time>
      </trkpt>
      <trkpt lat="43.55135" lon="3.89787">
        <ele>4</ele>
        <time>2020-08-02T08:33:19.000Z</time>
      </trkpt>
      <trkpt lat="43.55139" lon="3.89789">
        <ele>4</ele>
        <time>2020-08-02T08:33:20.000Z</time>
      </trkpt>
      <trkpt lat="43.55143" lon="3.8979">
        <ele>4.0440440299358</ele>
        <time>2020-08-02T08:33:21.000Z</time>
      </trkpt>
      <trkpt lat="43.55147" lon="3.89792">
        <ele>4.1441440979719</ele>
        <time>2020-08-02T08:33:22.000Z</time>
      </trkpt>
      <trkpt lat="43.55151" lon="3.89794">
        <ele>4.2442441660079</ele>
        <time>2020-08-02T08:33:23.000Z</time>
      </trkpt>
      <trkpt lat="43.55155" lon="3.89795">
        <ele>4.3443442340439</ele>
        <time>2020-08-02T08:33:24.000Z</time>
      </trkpt>
      <trkpt lat="43.55159" lon="3.89797">
        <ele>4.4444443020799</ele>
        <time>2020-08-02T08:33:25.000Z</time>
      </trkpt>
      <trkpt lat="43.55164" lon="3.89798">
        <ele>4.5445443701159</ele>
        <time>2020-08-02T08:33:26.000Z</time>
      </trkpt>
      <trkpt lat="43.55168" lon="3.898">
        <ele>4.6446444381519</ele>
        <time>2020-08-02T08:33:27.000Z</time>
      </trkpt>
      <trkpt lat="43.55172" lon="3.89801">
        <ele>4.744744506188</ele>
        <time>2020-08-02T08:33:28.000Z</time>
      </trkpt>
      <trkpt lat="43.55176" lon="3.89801">
        <ele>4.844844574224</ele>
        <time>2020-08-02T08:33:29.000Z</time>
      </trkpt>
      <trkpt lat="43.55179" lon="3.898">
        <ele>4.94494464226</ele>
        <time>2020-08-02T08:33:30.000Z</time>
      </trkpt>
      <trkpt lat="43.55182" lon="3.89797">
        <ele>5</ele>
        <time>2020-08-02T08:33:31.000Z</time>
      </trkpt>
      <trkpt lat="43.55184" lon="3.89793">
        <ele>5</ele>
        <time>2020-08-02T08:33:32.000Z</time>
      </trkpt>
      <trkpt lat="43.55184" lon="3.89789">
        <ele>5</ele>
        <time>2020-08-02T08:33:33.000Z</time>
      </trkpt>
      <trkpt lat="43.55183" lon="3.89784">
        <ele>5</ele>
        <time>2020-08-02T08:33:34.000Z</time>
      </trkpt>
      <trkpt lat="43.55183" lon="3.89778">
        <ele>5</ele>
        <time>2020-08-02T08:33:35.000Z</time>
      </trkpt>
      <trkpt lat="43.55182" lon="3.89773">
        <ele>5</ele>
        <time>2020-08-02T08:33:36.000Z</time>
      </trkpt>
      <trkpt lat="43.55182" lon="3.89767">
        <ele>5</ele>
        <time>2020-08-02T08:33:37.000Z</time>
      </trkpt>
      <trkpt lat="43.55181" lon="3.89761">
        <ele>5</ele>
        <time>2020-08-02T08:33:38.000Z</time>
      </trkpt>
      <trkpt lat="43.55181" lon="3.89756">
        <ele>5</ele>
        <time>2020-08-02T08:33:39.000Z</time>
      </trkpt>
      <trkpt lat="43.5518" lon="3.8975">
        <ele>5</ele>
        <time>2020-08-02T08:33:40.000Z</time>
      </trkpt>
      <trkpt lat="43.55179" lon="3.89744">
        <ele>5.0430864653554</ele>
        <time>2020-08-02T08:33:41.000Z</time>
      </trkpt>
      <trkpt lat="43.55178" lon="3.89738">
        <ele>5.1432868019003</ele>
        <time>2020-08-02T08:33:42.000Z</time>
      </trkpt>
      <trkpt lat="43.55178" lon="3.89732">
        <ele>5.2434871384451</ele>
        <time>2020-08-02T08:33:43.000Z</time>
      </trkpt>
      <trkpt lat="43.55177" lon="3.89726">
        <ele>5.34368747499</ele>
        <time>2020-08-02T08:33:44.000Z</time>
      </trkpt>
      <trkpt lat="43.55176" lon="3.89721">
        <ele>5.4438878115349</ele>
        <time>2020-08-02T08:33:45.000Z</time>
      </trkpt>
      <trkpt lat="43.55176" lon="3.89715">
        <ele>5.5440881480797</ele>
        <time>2020-08-02T08:33:46.000Z</time>
      </trkpt>
      <trkpt lat="43.55175" lon="3.89709">
        <ele>5.6442884846246</ele>
        <time>2020-08-02T08:33:47.000Z</time>
      </trkpt>
      <trkpt lat="43.55174" lon="3.89704">
        <ele>5.7444888211695</ele>
        <time>2020-08-02T08:33:48.000Z</time>
      </trkpt>
      <trkpt lat="43.55173" lon="3.89698">
        <ele>5.8446891577144</ele>
        <time>2020-08-02T08:33:49.000Z</time>
      </trkpt>
      <trkpt lat="43.55173" lon="3.89692">
        <ele>5.9448894942592</ele>
        <time>2020-08-02T08:33:50.000Z</time>
      </trkpt>
      <trkpt lat="43.55173" lon="3.89687">
        <ele>6</ele>
        <time>2020-08-02T08:33:51.000Z</time>
      </trkpt>
      <trkpt lat="43.55174" lon="3.89684">
        <ele>6</ele>
        <time>2020-08-02T08:33:52.000Z</time>
      </trkpt>
      <trkpt lat="43.55177" lon="3.89683">
        <ele>6</ele>
        <time>2020-08-02T08:33:53.000Z</time>
      </trkpt>
      <trkpt lat="43.55179" lon="3.89684">
        <ele>6</ele>
        <time>2020-08-02T08:33:54.000Z</time>
      </trkpt>
      <trkpt lat="43.55183" lon="3.89684">
        <ele>6</ele>
        <time>2020-08-02T08:33:55.000Z</time>
      </trkpt>
      <trkpt lat="43.55186" lon="3.89684">
        <ele>6</ele>
        <time>2020-08-02T08:33:56.000Z</time>
      </trkpt>
      <trkpt lat="43.5519" lon="3.89685">
        <ele>6</ele>
        <time>2020-08-02T08:33:57.000Z</time>
      </trkpt>
      <trkpt lat="43.55194" lon="3.89686">
        <ele>6</ele>
        <time>2020-08-02T08:33:58.000Z</time>
      </trkpt>
      <trkpt lat="43.55197" lon="3.89686">
        <ele>6</ele>
        <time>2020-08-02T08:33:59.000Z</time>
      </trkpt>
      <trkpt lat="43.55201" lon="3.89687">
        <ele>6</ele>
        <time>2020-08-02T08:34:00.000Z</time>
      </trkpt>
      <trkpt lat="43.55205" lon="3.89688">
        <ele>6</ele>
        <time>2020-08-02T08:34:01.000Z</time>
      </trkpt>
      <trkpt lat="43.55209" lon="3.89689">
        <ele>6</ele>
        <time>2020-08-02T08:34:02.000Z</time>
      </trkpt>
      <trkpt lat="43.55213" lon="3.8969">
        <ele>6</ele>
        <time>2020-08-02T08:34:03.000Z</time>
      </trkpt>
      <trkpt lat="43.55217" lon="3.8969">
        <ele>6</ele>
        <time>2020-08-02T08:34:04.000Z</time>
      </trkpt>
      <trkpt lat="43.55222" lon="3.89691">
        <ele>6</ele>
        <time>2020-08-02T08:34:05.000Z</time>
      </trkpt>
      <trkpt lat="43.55226" lon="3.89692">
        <ele>6</ele>
        <time>2020-08-02T08:34:06.000Z</time>
      </trkpt>
      <trkpt lat="43.55231" lon="3.89693">
        <ele>6</ele>
        <time>2020-08-02T08:34:07.000Z</time>
      </trkpt>
      <trkpt lat="43.55235" lon="3.89694">
        <ele>6</ele>
        <time>2020-08-02T08:34:08.000Z</time>
      </trkpt>
      <trkpt lat="43.5524" lon="3.89695">
        <ele>6</ele>
        <time>2020-08-02T08:34:09.000Z</time>
      </trkpt>
      <trkpt lat="43.55245" lon="3.89696">
        <ele>6</ele>
        <time>2020-08-02T08:34:10.000Z</time>
      </trkpt>
      <trkpt lat="43.5525" lon="3.89697">
        <ele>6</ele>
        <time>2020-08-02T08:34:11.000Z</time>
      </trkpt>
      <trkpt lat="43.55255" lon="3.89698">
        <ele>6</ele>
        <time>2020-08-02T08:34:12.000Z</time>
      </trkpt>
      <trkpt lat="43.5526" lon="3.89699">
        <ele>6</ele>
        <time>2020-08-02T08:34:13.000Z</time>
      </trkpt>
      <trkpt lat="43.55265" lon="3.897">
        <ele>6</ele>
        <time>2020-08-02T08:34:14.000Z</time>
      </trkpt>
      <trkpt lat="43.5527" lon="3.89701">
        <ele>6</ele>
        <time>2020-08-02T08:34:15.000Z</time>
      </trkpt>
      <trkpt lat="43.55275" lon="3.89701">
        <ele>6</ele>
        <time>2020-08-02T08:34:16.000Z</time>
      </trkpt>
      <trkpt lat="43.5528" lon="3.89702">
        <ele>6</ele>
        <time>2020-08-02T08:34:17.000Z</time>
      </trkpt>
      <trkpt lat="43.55285" lon="3.89703">
        <ele>6</ele>
        <time>2020-08-02T08:34:18.000Z</time>
      </trkpt>
      <trkpt lat="43.55289" lon="3.89704">
        <ele>6</ele>
        <time>2020-08-02T08:34:19.000Z</time>
      </trkpt>
      <trkpt lat="43.55294" lon="3.89705">
        <ele>6</ele>
        <time>2020-08-02T08:34:20.000Z</time>
      </trkpt>
      <trkpt lat="43.55299" lon="3.89706">
        <ele>6</ele>
        <time>2020-08-02T08:34:21.000Z</time>
      </trkpt>
      <trkpt lat="43.55303" lon="3.89706">
        <ele>6</ele>
        <time>2020-08-02T08:34:22.000Z</time>
      </trkpt>
      <trkpt lat="43.55308" lon="3.89707">
        <ele>6</ele>
        <time>2020-08-02T08:34:23.000Z</time>
      </trkpt>
      <trkpt lat="43.55313" lon="3.89708">
        <ele>6</ele>
        <time>2020-08-02T08:34:24.000Z</time>
      </trkpt>
      <trkpt lat="43.55318" lon="3.89709">
        <ele>6</ele>
        <time>2020-08-02T08:34:25.000Z</time>
      </trkpt>
      <trkpt lat="43.55323" lon="3.8971">
        <ele>6</ele>
        <time>2020-08-02T08:34:26.000Z</time>
      </trkpt>
      <trkpt lat="43.55328" lon="3.8971">
        <ele>6</ele>
        <time>2020-08-02T08:34:27.000Z</time>
      </trkpt>
      <trkpt lat="43.55333" lon="3.89711">
        <ele>6</ele>
        <time>2020-08-02T08:34:28.000Z</time>
      </trkpt>
      <trkpt lat="43.55339" lon="3.89712">
        <ele>6</ele>
        <time>2020-08-02T08:34:29.000Z</time>
      </trkpt>
      <trkpt lat="43.55344" lon="3.89713">
        <ele>6</ele>
        <time>2020-08-02T08:34:30.000Z</time>
      </trkpt>
      <trkpt lat="43.55349" lon="3.89714">
        <ele>5.9554458331538</ele>
        <time>2020-08-02T08:34:31.000Z</time>
      </trkpt>
      <trkpt lat="43.55354" lon="3.89715">
        <ele>5.8564358694247</ele>
        <time>2020-08-02T08:34:32.000Z</time>
      </trkpt>
      <trkpt lat="43.55359" lon="3.89716">
        <ele>5.7574259056956</ele>
        <time>2020-08-02T08:34:33.000Z</time>
      </trkpt>
      <trkpt lat="43.55364" lon="3.89716">
        <ele>5.6584159419665</ele>
        <time>2020-08-02T08:34:34.000Z</time>
      </trkpt>
      <trkpt lat="43.5537" lon="3.89717">
        <ele>5.5594059782375</ele>
        <time>2020-08-02T08:34:35.000Z</time>
      </trkpt>
      <trkpt lat="43.55375" lon="3.89718">
        <ele>5.4603960145084</ele>
        <time>2020-08-02T08:34:36.000Z</time>
      </trkpt>
      <trkpt lat="43.5538" lon="3.89719">
        <ele>5.3613860507793</ele>
        <time>2020-08-02T08:34:37.000Z</time>
      </trkpt>
      <trkpt lat="43.55385" lon="3.8972">
        <ele>5.2623760870502</ele>
        <time>2020-08-02T08:34:38.000Z</time>
      </trkpt>
      <trkpt lat="43.5539" lon="3.8972">
        <ele>5.1633661233211</ele>
        <time>2020-08-02T08:34:39.000Z</time>
      </trkpt>
      <trkpt lat="43.55396" lon="3.89721">
        <ele>5.064356159592</ele>
        <time>2020-08-02T08:34:40.000Z</time>
      </trkpt>
      <trkpt lat="43.55401" lon="3.89722">
        <ele>5</ele>
        <time>2020-08-02T08:34:41.000Z</time>
      </trkpt>
      <trkpt lat="43.55406" lon="3.89723">
        <ele>5</ele>
        <time>2020-08-02T08:34:42.000Z</time>
      </trkpt>
      <trkpt lat="43.55412" lon="3.89723">
        <ele>5</ele>
        <time>2020-08-02T08:34:43.000Z</time>
      </trkpt>
      <trkpt lat="43.55417" lon="3.89724">
        <ele>5</ele>
        <time>2020-08-02T08:34:44.000Z</time>
      </trkpt>
      <trkpt lat="43.55423" lon="3.89725">
        <ele>5</ele>
        <time>2020-08-02T08:34:45.000Z</time>
      </trkpt>
      <trkpt lat="43.55428" lon="3.89726">
        <ele>5</ele>
        <time>2020-08-02T08:34:46.000Z</time>
      </trkpt>
      <trkpt lat="43.55433" lon="3.89727">
        <ele>5</ele>
        <time>2020-08-02T08:34:47.000Z</time>
      </trkpt>
      <trkpt lat="43.55439" lon="3.89728">
        <ele>5</ele>
        <time>2020-08-02T08:34:48.000Z</time>
      </trkpt>
      <trkpt lat="43.55444" lon="3.89729">
        <ele>5</ele>
        <time>2020-08-02T08:34:49.000Z</time>
      </trkpt>
      <trkpt lat="43.55449" lon="3.89729">
        <ele>5</ele>
        <time>2020-08-02T08:34:50.000Z</time>
      </trkpt>
      <trkpt lat="43.55455" lon="3.8973">
        <ele>5</ele>
        <time>2020-08-02T08:34:51.000Z</time>
      </trkpt>
      <trkpt lat="43.5546" lon="3.89731">
        <ele>5</ele>
        <time>2020-08-02T08:34:52.000Z</time>
      </trkpt>
      <trkpt lat="43.55466" lon="3.89732">
        <ele>5</ele>
        <time>2020-08-02T08:34:53.000Z</time>
      </trkpt>
      <trkpt lat="43.55472" lon="3.89733">
        <ele>5</ele>
        <time>2020-08-02T08:34:54.000Z</time>
      </trkpt>
      <trkpt lat="43.55477" lon="3.89734">
        <ele>5</ele>
        <time>2020-08-02T08:34:55.000Z</time>
      </trkpt>
      <trkpt lat="43.55483" lon="3.89734">
        <ele>5</ele>
        <time>2020-08-02T08:34:56.000Z</time>
      </trkpt>
      <trkpt lat="43.55488" lon="3.89735">
        <ele>5</ele>
        <time>2020-08-02T08:34:57.000Z</time>
      </trkpt>
      <trkpt lat="43.55494" lon="3.89735">
        <ele>5</ele>
        <time>2020-08-02T08:34:58.000Z</time>
      </trkpt>
      <trkpt lat="43.55499" lon="3.89736">
        <ele>5</ele>
        <time>2020-08-02T08:34:59.000Z</time>
      </trkpt>
      <trkpt lat="43.55504" lon="3.89737">
        <ele>5</ele>
        <time>2020-08-02T08:35:00.000Z</time>
      </trkpt>
      <trkpt lat="43.5551" lon="3.89737">
        <ele>5</ele>
        <time>2020-08-02T08:35:01.000Z</time>
      </trkpt>
      <trkpt lat="43.55515" lon="3.89738">
        <ele>5</ele>
        <time>2020-08-02T08:35:02.000Z</time>
      </trkpt>
      <trkpt lat="43.5552" lon="3.89738">
        <ele>5</ele>
        <time>2020-08-02T08:35:03.000Z</time>
      </trkpt>
      <trkpt lat="43.55525" lon="3.89739">
        <ele>5</ele>
        <time>2020-08-02T08:35:04.000Z</time>
      </trkpt>
      <trkpt lat="43.55531" lon="3.89739">
        <ele>5</ele>
        <time>2020-08-02T08:35:05.000Z</time>
      </trkpt>
      <trkpt lat="43.55536" lon="3.89739">
        <ele>5</ele>
        <time>2020-08-02T08:35:06.000Z</time>
      </trkpt>
      <trkpt lat="43.5554" lon="3.89739">
        <ele>5</ele>
        <time>2020-08-02T08:35:07.000Z</time>
      </trkpt>
      <trkpt lat="43.55545" lon="3.89738">
        <ele>5</ele>
        <time>2020-08-02T08:35:08.000Z</time>
      </trkpt>
      <trkpt lat="43.55549" lon="3.89737">
        <ele>5</ele>
        <time>2020-08-02T08:35:09.000Z</time>
      </trkpt>
      <trkpt lat="43.55553" lon="3.89737">
        <ele>5</ele>
        <time>2020-08-02T08:35:10.000Z</time>
      </trkpt>
      <trkpt lat="43.55557" lon="3.89736">
        <ele>5</ele>
        <time>2020-08-02T08:35:11.000Z</time>
      </trkpt>
      <trkpt lat="43.5556" lon="3.89735">
        <ele>5</ele>
        <time>2020-08-02T08:35:12.000Z</time>
      </trkpt>
      <trkpt lat="43.55562" lon="3.89735">
        <ele>5</ele>
        <time>2020-08-02T08:35:13.000Z</time>
      </trkpt>
      <trkpt lat="43.55565" lon="3.89734">
        <ele>5</ele>
        <time>2020-08-02T08:35:14.000Z</time>
      </trkpt>
      <trkpt lat="43.55567" lon="3.89734">
        <ele>5</ele>
        <time>2020-08-02T08:35:15.000Z</time>
      </trkpt>
      <trkpt lat="43.5557" lon="3.89733">
        <ele>5</ele>
        <time>2020-08-02T08:35:16.000Z</time>
      </trkpt>
      <trkpt lat="43.55573" lon="3.89732">
        <ele>5</ele>
        <time>2020-08-02T08:35:17.000Z</time>
      </trkpt>
      <trkpt lat="43.55577" lon="3.89731">
        <ele>5</ele>
        <time>2020-08-02T08:35:18.000Z</time>
      </trkpt>
      <trkpt lat="43.55581" lon="3.89729">
        <ele>5</ele>
        <time>2020-08-02T08:35:19.000Z</time>
      </trkpt>
      <trkpt lat="43.55585" lon="3.89727">
        <ele>5</ele>
        <time>2020-08-02T08:35:20.000Z</time>
      </trkpt>
      <trkpt lat="43.5559" lon="3.89726">
        <ele>5</ele>
        <time>2020-08-02T08:35:21.000Z</time>
      </trkpt>
      <trkpt lat="43.55594" lon="3.89724">
        <ele>5</ele>
        <time>2020-08-02T08:35:22.000Z</time>
      </trkpt>
      <trkpt lat="43.55599" lon="3.89722">
        <ele>5</ele>
        <time>2020-08-02T08:35:23.000Z</time>
      </trkpt>
      <trkpt lat="43.55604" lon="3.8972">
        <ele>5</ele>
        <time>2020-08-02T08:35:24.000Z</time>
      </trkpt>
      <trkpt lat="43.55609" lon="3.89717">
        <ele>5</ele>
        <time>2020-08-02T08:35:25.000Z</time>
      </trkpt>
      <trkpt lat="43.55613" lon="3.89715">
        <ele>5</ele>
        <time>2020-08-02T08:35:26.000Z</time>
      </trkpt>
      <trkpt lat="43.55618" lon="3.89713">
        <ele>5</ele>
        <time>2020-08-02T08:35:27.000Z</time>
      </trkpt>
      <trkpt lat="43.55623" lon="3.89711">
        <ele>5</ele>
        <time>2020-08-02T08:35:28.000Z</time>
      </trkpt>
      <trkpt lat="43.55628" lon="3.89709">
        <ele>5</ele>
        <time>2020-08-02T08:35:29.000Z</time>
      </trkpt>
      <trkpt lat="43.55632" lon="3.89706">
        <ele>5</ele>
        <time>2020-08-02T08:35:30.000Z</time>
      </trkpt>
      <trkpt lat="43.55637" lon="3.89704">
        <ele>5</ele>
        <time>2020-08-02T08:35:31.000Z</time>
      </trkpt>
      <trkpt lat="43.55642" lon="3.89702">
        <ele>5</ele>
        <time>2020-08-02T08:35:32.000Z</time>
      </trkpt>
      <trkpt lat="43.55647" lon="3.89699">
        <ele>5</ele>
        <time>2020-08-02T08:35:33.000Z</time>
      </trkpt>
      <trkpt lat="43.55651" lon="3.89697">
        <ele>5</ele>
        <time>2020-08-02T08:35:34.000Z</time>
      </trkpt>
      <trkpt lat="43.55656" lon="3.89695">
        <ele>5</ele>
        <time>2020-08-02T08:35:35.000Z</time>
      </trkpt>
      <trkpt lat="43.5566" lon="3.89693">
        <ele>5</ele>
        <time>2020-08-02T08:35:36.000Z</time>
      </trkpt>
      <trkpt lat="43.55664" lon="3.89691">
        <ele>5</ele>
        <time>2020-08-02T08:35:37.000Z</time>
      </trkpt>
      <trkpt lat="43.55668" lon="3.89688">
        <ele>5</ele>
        <time>2020-08-02T08:35:38.000Z</time>
      </trkpt>
      <trkpt lat="43.55672" lon="3.89686">
        <ele>5</ele>
        <time>2020-08-02T08:35:39.000Z</time>
      </trkpt>
      <trkpt lat="43.55676" lon="3.89683">
        <ele>5</ele>
        <time>2020-08-02T08:35:40.000Z</time>
      </trkpt>
      <trkpt lat="43.55679" lon="3.8968">
        <ele>5</ele>
        <time>2020-08-02T08:35:41.000Z</time>
      </trkpt>
      <trkpt lat="43.55682" lon="3.89677">
        <ele>5</ele>
        <time>2020-08-02T08:35:42.000Z</time>
      </trkpt>
      <trkpt lat="43.55686" lon="3.89674">
        <ele>5</ele>
        <time>2020-08-02T08:35:43.000Z</time>
      </trkpt>
      <trkpt lat="43.5569" lon="3.89672">
        <ele>5</ele>
        <time>2020-08-02T08:35:44.000Z</time>
      </trkpt>
      <trkpt lat="43.55694" lon="3.89669">
        <ele>5</ele>
        <time>2020-08-02T08:35:45.000Z</time>
      </trkpt>
      <trkpt lat="43.55698" lon="3.89665">
        <ele>5</ele>
        <time>2020-08-02T08:35:46.000Z</time>
      </trkpt>
      <trkpt lat="43.55701" lon="3.89661">
        <ele>5</ele>
        <time>2020-08-02T08:35:47.000Z</time>
      </trkpt>
      <trkpt lat="43.55705" lon="3.89657">
        <ele>5</ele>
        <time>2020-08-02T08:35:48.000Z</time>
      </trkpt>
      <trkpt lat="43.55708" lon="3.89653">
        <ele>5</ele>
        <time>2020-08-02T08:35:49.000Z</time>
      </trkpt>
      <trkpt lat="43.55711" lon="3.89648">
        <ele>5</ele>
        <time>2020-08-02T08:35:50.000Z</time>
      </trkpt>
      <trkpt lat="43.55715" lon="3.89644">
        <ele>5.04499968</ele>
        <time>2020-08-02T08:35:51.000Z</time>
      </trkpt>
      <trkpt lat="43.55718" lon="3.89639">
        <ele>5.14499968</ele>
        <time>2020-08-02T08:35:52.000Z</time>
      </trkpt>
      <trkpt lat="43.55721" lon="3.89634">
        <ele>5.24499968</ele>
        <time>2020-08-02T08:35:53.000Z</time>
      </trkpt>
      <trkpt lat="43.55724" lon="3.89629">
        <ele>5.34499968</ele>
        <time>2020-08-02T08:35:54.000Z</time>
      </trkpt>
      <trkpt lat="43.55727" lon="3.89623">
        <ele>5.44499968</ele>
        <time>2020-08-02T08:35:55.000Z</time>
      </trkpt>
      <trkpt lat="43.5573" lon="3.89618">
        <ele>5.54499968</ele>
        <time>2020-08-02T08:35:56.000Z</time>
      </trkpt>
      <trkpt lat="43.55732" lon="3.89613">
        <ele>5.64499968</ele>
        <time>2020-08-02T08:35:57.000Z</time>
      </trkpt>
      <trkpt lat="43.55735" lon="3.89607">
        <ele>5.74499968</ele>
        <time>2020-08-02T08:35:58.000Z</time>
      </trkpt>
      <trkpt lat="43.55738" lon="3.89602">
        <ele>5.84499968</ele>
        <time>2020-08-02T08:35:59.000Z</time>
      </trkpt>
      <trkpt lat="43.55741" lon="3.89596">
        <ele>5.94499968</ele>
        <time>2020-08-02T08:36:00.000Z</time>
      </trkpt>
      <trkpt lat="43.55744" lon="3.89591">
        <ele>6</ele>
        <time>2020-08-02T08:36:01.000Z</time>
      </trkpt>
      <trkpt lat="43.55747" lon="3.89585">
        <ele>6</ele>
        <time>2020-08-02T08:36:02.000Z</time>
      </trkpt>
      <trkpt lat="43.55749" lon="3.8958">
        <ele>6</ele>
        <time>2020-08-02T08:36:03.000Z</time>
      </trkpt>
      <trkpt lat="43.55752" lon="3.89575">
        <ele>6</ele>
        <time>2020-08-02T08:36:04.000Z</time>
      </trkpt>
      <trkpt lat="43.55754" lon="3.89569">
        <ele>6</ele>
        <time>2020-08-02T08:36:05.000Z</time>
      </trkpt>
      <trkpt lat="43.55756" lon="3.89564">
        <ele>6</ele>
        <time>2020-08-02T08:36:06.000Z</time>
      </trkpt>
      <trkpt lat="43.55759" lon="3.89559">
        <ele>6</ele>
        <time>2020-08-02T08:36:07.000Z</time>
      </trkpt>
      <trkpt lat="43.55761" lon="3.89554">
        <ele>6</ele>
        <time>2020-08-02T08:36:08.000Z</time>
      </trkpt>
      <trkpt lat="43.55763" lon="3.89549">
        <ele>6</ele>
        <time>2020-08-02T08:36:09.000Z</time>
      </trkpt>
      <trkpt lat="43.55766" lon="3.89544">
        <ele>6</ele>
        <time>2020-08-02T08:36:10.000Z</time>
      </trkpt>
      <trkpt lat="43.55768" lon="3.89539">
        <ele>6.0265041942467</ele>
        <time>2020-08-02T08:36:11.000Z</time>
      </trkpt>
      <trkpt lat="43.5577" lon="3.89534">
        <ele>6.1284408936766</ele>
        <time>2020-08-02T08:36:12.000Z</time>
      </trkpt>
      <trkpt lat="43.55773" lon="3.89529">
        <ele>6.2303775931065</ele>
        <time>2020-08-02T08:36:13.000Z</time>
      </trkpt>
      <trkpt lat="43.55775" lon="3.89525">
        <ele>6.3323142925365</ele>
        <time>2020-08-02T08:36:14.000Z</time>
      </trkpt>
      <trkpt lat="43.55777" lon="3.8952">
        <ele>6.4342509919664</ele>
        <time>2020-08-02T08:36:15.000Z</time>
      </trkpt>
      <trkpt lat="43.55779" lon="3.89515">
        <ele>6.5361876913963</ele>
        <time>2020-08-02T08:36:16.000Z</time>
      </trkpt>
      <trkpt lat="43.55782" lon="3.8951">
        <ele>6.6381243908263</ele>
        <time>2020-08-02T08:36:17.000Z</time>
      </trkpt>
      <trkpt lat="43.55784" lon="3.89505">
        <ele>6.7400610902562</ele>
        <time>2020-08-02T08:36:18.000Z</time>
      </trkpt>
      <trkpt lat="43.55786" lon="3.895">
        <ele>6.8419977896862</ele>
        <time>2020-08-02T08:36:19.000Z</time>
      </trkpt>
      <trkpt lat="43.55789" lon="3.89495">
        <ele>6.9439344891161</ele>
        <time>2020-08-02T08:36:20.000Z</time>
      </trkpt>
      <trkpt lat="43.55791" lon="3.8949">
        <ele>7</ele>
        <time>2020-08-02T08:36:21.000Z</time>
      </trkpt>
      <trkpt lat="43.55793" lon="3.89485">
        <ele>7</ele>
        <time>2020-08-02T08:36:22.000Z</time>
      </trkpt>
      <trkpt lat="43.55796" lon="3.8948">
        <ele>7</ele>
        <time>2020-08-02T08:36:23.000Z</time>
      </trkpt>
      <trkpt lat="43.55799" lon="3.89475">
        <ele>7</ele>
        <time>2020-08-02T08:36:24.000Z</time>
      </trkpt>
      <trkpt lat="43.55801" lon="3.8947">
        <ele>7</ele>
        <time>2020-08-02T08:36:25.000Z</time>
      </trkpt>
      <trkpt lat="43.55804" lon="3.89465">
        <ele>7</ele>
        <time>2020-08-02T08:36:26.000Z</time>
      </trkpt>
      <trkpt lat="43.55808" lon="3.89461">
        <ele>7</ele>
        <time>2020-08-02T08:36:27.000Z</time>
      </trkpt>
      <trkpt lat="43.55811" lon="3.89457">
        <ele>7</ele>
        <time>2020-08-02T08:36:28.000Z</time>
      </trkpt>
      <trkpt lat="43.55815" lon="3.89453">
        <ele>7</ele>
        <time>2020-08-02T08:36:29.000Z</time>
      </trkpt>
      <trkpt lat="43.55818" lon="3.89449">
        <ele>7</ele>
        <time>2020-08-02T08:36:30.000Z</time>
      </trkpt>
      <trkpt lat="43.55822" lon="3.89447">
        <ele>7</ele>
        <time>2020-08-02T08:36:31.000Z</time>
      </trkpt>
      <trkpt lat="43.55827" lon="3.89444">
        <ele>7</ele>
        <time>2020-08-02T08:36:32.000Z</time>
      </trkpt>
      <trkpt lat="43.55831" lon="3.89441">
        <ele>7</ele>
        <time>2020-08-02T08:36:33.000Z</time>
      </trkpt>
      <trkpt lat="43.55835" lon="3.89439">
        <ele>7</ele>
        <time>2020-08-02T08:36:34.000Z</time>
      </trkpt>
      <trkpt lat="43.55838" lon="3.89436">
        <ele>7</ele>
        <time>2020-08-02T08:36:35.000Z</time>
      </trkpt>
      <trkpt lat="43.55841" lon="3.89434">
        <ele>7</ele>
        <time>2020-08-02T08:36:36.000Z</time>
      </trkpt>
      <trkpt lat="43.55844" lon="3.89433">
        <ele>7</ele>
        <time>2020-08-02T08:36:37.000Z</time>
      </trkpt>
      <trkpt lat="43.55847" lon="3.89433">
        <ele>7</ele>
        <time>2020-08-02T08:36:38.000Z</time>
      </trkpt>
      <trkpt lat="43.55851" lon="3.89434">
        <ele>7</ele>
        <time>2020-08-02T08:36:39.000Z</time>
      </trkpt>
      <trkpt lat="43.55856" lon="3.89434">
        <ele>7</ele>
        <time>2020-08-02T08:36:40.000Z</time>
      </trkpt>
      <trkpt lat="43.5586" lon="3.89434">
        <ele>7</ele>
        <time>2020-08-02T08:36:41.000Z</time>
      </trkpt>
      <trkpt lat="43.55864" lon="3.89434">
        <ele>7</ele>
        <time>2020-08-02T08:36:42.000Z</time>
      </trkpt>
      <trkpt lat="43.55868" lon="3.89435">
        <ele>7</ele>
        <time>2020-08-02T08:36:43.000Z</time>
      </trkpt>
      <trkpt lat="43.55872" lon="3.89435">
        <ele>7</ele>
        <time>2020-08-02T08:36:44.000Z</time>
      </trkpt>
      <trkpt lat="43.55877" lon="3.89436">
        <ele>7</ele>
        <time>2020-08-02T08:36:45.000Z</time>
      </trkpt>
      <trkpt lat="43.55881" lon="3.89437">
        <ele>7</ele>
        <time>2020-08-02T08:36:46.000Z</time>
      </trkpt>
      <trkpt lat="43.55885" lon="3.89439">
        <ele>7</ele>
        <time>2020-08-02T08:36:47.000Z</time>
      </trkpt>
      <trkpt lat="43.55889" lon="3.89441">
        <ele>7</ele>
        <time>2020-08-02T08:36:48.000Z</time>
      </trkpt>
      <trkpt lat="43.55892" lon="3.89443">
        <ele>7</ele>
        <time>2020-08-02T08:36:49.000Z</time>
      </trkpt>
      <trkpt lat="43.55896" lon="3.89445">
        <ele>7</ele>
        <time>2020-08-02T08:36:50.000Z</time>
      </trkpt>
      <trkpt lat="43.559" lon="3.89447">
        <ele>7.0441173333333</ele>
        <time>2020-08-02T08:36:51.000Z</time>
      </trkpt>
      <trkpt lat="43.55903" lon="3.8945">
        <ele>7.1421565490196</ele>
        <time>2020-08-02T08:36:52.000Z</time>
      </trkpt>
      <trkpt lat="43.55907" lon="3.89452">
        <ele>7.2401957647059</ele>
        <time>2020-08-02T08:36:53.000Z</time>
      </trkpt>
      <trkpt lat="43.5591" lon="3.89455">
        <ele>7.3382349803922</ele>
        <time>2020-08-02T08:36:54.000Z</time>
      </trkpt>
      <trkpt lat="43.55914" lon="3.89457">
        <ele>7.4362741960784</ele>
        <time>2020-08-02T08:36:55.000Z</time>
      </trkpt>
      <trkpt lat="43.55917" lon="3.8946">
        <ele>7.5343134117647</ele>
        <time>2020-08-02T08:36:56.000Z</time>
      </trkpt>
      <trkpt lat="43.55921" lon="3.89463">
        <ele>7.632352627451</ele>
        <time>2020-08-02T08:36:57.000Z</time>
      </trkpt>
      <trkpt lat="43.55924" lon="3.89466">
        <ele>7.7303918431373</ele>
        <time>2020-08-02T08:36:58.000Z</time>
      </trkpt>
      <trkpt lat="43.55928" lon="3.89469">
        <ele>7.8284310588235</ele>
        <time>2020-08-02T08:36:59.000Z</time>
      </trkpt>
      <trkpt lat="43.55931" lon="3.89472">
        <ele>7.9264702745098</ele>
        <time>2020-08-02T08:37:00.000Z</time>
      </trkpt>
      <trkpt lat="43.55935" lon="3.89475">
        <ele>8</ele>
        <time>2020-08-02T08:37:01.000Z</time>
      </trkpt>
      <trkpt lat="43.55938" lon="3.89478">
        <ele>8</ele>
        <time>2020-08-02T08:37:02.000Z</time>
      </trkpt>
      <trkpt lat="43.55942" lon="3.89481">
        <ele>8</ele>
        <time>2020-08-02T08:37:03.000Z</time>
      </trkpt>
      <trkpt lat="43.55945" lon="3.89484">
        <ele>8</ele>
        <time>2020-08-02T08:37:04.000Z</time>
      </trkpt>
      <trkpt lat="43.55949" lon="3.89486">
        <ele>8</ele>
        <time>2020-08-02T08:37:05.000Z</time>
      </trkpt>
      <trkpt lat="43.55952" lon="3.89489">
        <ele>8</ele>
        <time>2020-08-02T08:37:06.000Z</time>
      </trkpt>
      <trkpt lat="43.55956" lon="3.89492">
        <ele>8</ele>
        <time>2020-08-02T08:37:07.000Z</time>
      </trkpt>
      <trkpt lat="43.55959" lon="3.89495">
        <ele>8</ele>
        <time>2020-08-02T08:37:08.000Z</time>
      </trkpt>
      <trkpt lat="43.55962" lon="3.89497">
        <ele>8</ele>
        <time>2020-08-02T08:37:09.000Z</time>
      </trkpt>
      <trkpt lat="43.55965" lon="3.89499">
        <ele>8</ele>
        <time>2020-08-02T08:37:10.000Z</time>
      </trkpt>
      <trkpt lat="43.55969" lon="3.89502">
        <ele>8</ele>
        <time>2020-08-02T08:37:11.000Z</time>
      </trkpt>
      <trkpt lat="43.55972" lon="3.89504">
        <ele>8</ele>
        <time>2020-08-02T08:37:12.000Z</time>
      </trkpt>
      <trkpt lat="43.55975" lon="3.89506">
        <ele>8</ele>
        <time>2020-08-02T08:37:13.000Z</time>
      </trkpt>
      <trkpt lat="43.55978" lon="3.89508">
        <ele>8</ele>
        <time>2020-08-02T08:37:14.000Z</time>
      </trkpt>
      <trkpt lat="43.55982" lon="3.8951">
        <ele>8</ele>
        <time>2020-08-02T08:37:15.000Z</time>
      </trkpt>
      <trkpt lat="43.55985" lon="3.89512">
        <ele>8</ele>
        <time>2020-08-02T08:37:16.000Z</time>
      </trkpt>
      <trkpt lat="43.55989" lon="3.89514">
        <ele>8</ele>
        <time>2020-08-02T08:37:17.000Z</time>
      </trkpt>
      <trkpt lat="43.55992" lon="3.89516">
        <ele>8</ele>
        <time>2020-08-02T08:37:18.000Z</time>
      </trkpt>
      <trkpt lat="43.55995" lon="3.89517">
        <ele>8</ele>
        <time>2020-08-02T08:37:19.000Z</time>
      </trkpt>
      <trkpt lat="43.55999" lon="3.89519">
        <ele>8</ele>
        <time>2020-08-02T08:37:20.000Z</time>
      </trkpt>
      <trkpt lat="43.56002" lon="3.89521">
        <ele>8</ele>
        <time>2020-08-02T08:37:21.000Z</time>
      </trkpt>
      <trkpt lat="43.56005" lon="3.89522">
        <ele>8</ele>
        <time>2020-08-02T08:37:22.000Z</time>
      </trkpt>
      <trkpt lat="43.56009" lon="3.89524">
        <ele>8</ele>
        <time>2020-08-02T08:37:23.000Z</time>
      </trkpt>
      <trkpt lat="43.56012" lon="3.89525">
        <ele>8</ele>
        <time>2020-08-02T08:37:24.000Z</time>
      </trkpt>
      <trkpt lat="43.56015" lon="3.89526">
        <ele>8</ele>
        <time>2020-08-02T08:37:25.000Z</time>
      </trkpt>
      <trkpt lat="43.56019" lon="3.89528">
        <ele>8</ele>
        <time>2020-08-02T08:37:26.000Z</time>
      </trkpt>
      <trkpt lat="43.56022" lon="3.89529">
        <ele>8</ele>
        <time>2020-08-02T08:37:27.000Z</time>
      </trkpt>
      <trkpt lat="43.56026" lon="3.89531">
        <ele>8</ele>
        <time>2020-08-02T08:37:28.000Z</time>
      </trkpt>
      <trkpt lat="43.5603" lon="3.89532">
        <ele>8</ele>
        <time>2020-08-02T08:37:29.000Z</time>
      </trkpt>
      <trkpt lat="43.56033" lon="3.89533">
        <ele>8</ele>
        <time>2020-08-02T08:37:30.000Z</time>
      </trkpt>
      <trkpt lat="43.56037" lon="3.89534">
        <ele>8</ele>
        <time>2020-08-02T08:37:31.000Z</time>
      </trkpt>
      <trkpt lat="43.5604" lon="3.89535">
        <ele>8</ele>
        <time>2020-08-02T08:37:32.000Z</time>
      </trkpt>
      <trkpt lat="43.56044" lon="3.89535">
        <ele>8</ele>
        <time>2020-08-02T08:37:33.000Z</time>
      </trkpt>
      <trkpt lat="43.56048" lon="3.89536">
        <ele>8</ele>
        <time>2020-08-02T08:37:34.000Z</time>
      </trkpt>
      <trkpt lat="43.56051" lon="3.89537">
        <ele>8</ele>
        <time>2020-08-02T08:37:35.000Z</time>
      </trkpt>
      <trkpt lat="43.56055" lon="3.89538">
        <ele>8</ele>
        <time>2020-08-02T08:37:36.000Z</time>
      </trkpt>
      <trkpt lat="43.56058" lon="3.89538">
        <ele>8</ele>
        <time>2020-08-02T08:37:37.000Z</time>
      </trkpt>
      <trkpt lat="43.56062" lon="3.89539">
        <ele>8</ele>
        <time>2020-08-02T08:37:38.000Z</time>
      </trkpt>
      <trkpt lat="43.56065" lon="3.8954">
        <ele>8</ele>
        <time>2020-08-02T08:37:39.000Z</time>
      </trkpt>
      <trkpt lat="43.56069" lon="3.8954">
        <ele>8</ele>
        <time>2020-08-02T08:37:40.000Z</time>
      </trkpt>
      <trkpt lat="43.56073" lon="3.89541">
        <ele>8</ele>
        <time>2020-08-02T08:37:41.000Z</time>
      </trkpt>
      <trkpt lat="43.56077" lon="3.89542">
        <ele>8</ele>
        <time>2020-08-02T08:37:42.000Z</time>
      </trkpt>
      <trkpt lat="43.56081" lon="3.89543">
        <ele>8</ele>
        <time>2020-08-02T08:37:43.000Z</time>
      </trkpt>
      <trkpt lat="43.56085" lon="3.89544">
        <ele>8</ele>
        <time>2020-08-02T08:37:44.000Z</time>
      </trkpt>
      <trkpt lat="43.56089" lon="3.89544">
        <ele>8</ele>
        <time>2020-08-02T08:37:45.000Z</time>
      </trkpt>
      <trkpt lat="43.56094" lon="3.89545">
        <ele>8</ele>
        <time>2020-08-02T08:37:46.000Z</time>
      </trkpt>
      <trkpt lat="43.56098" lon="3.89546">
        <ele>8</ele>
        <time>2020-08-02T08:37:47.000Z</time>
      </trkpt>
      <trkpt lat="43.56102" lon="3.89547">
        <ele>8</ele>
        <time>2020-08-02T08:37:48.000Z</time>
      </trkpt>
      <trkpt lat="43.56106" lon="3.89548">
        <ele>8</ele>
        <time>2020-08-02T08:37:49.000Z</time>
      </trkpt>
      <trkpt lat="43.56111" lon="3.89549">
        <ele>8</ele>
        <time>2020-08-02T08:37:50.000Z</time>
      </trkpt>
      <trkpt lat="43.56115" lon="3.8955">
        <ele>8</ele>
        <time>2020-08-02T08:37:51.000Z</time>
      </trkpt>
      <trkpt lat="43.56119" lon="3.89551">
        <ele>8</ele>
        <time>2020-08-02T08:37:52.000Z</time>
      </trkpt>
      <trkpt lat="43.56123" lon="3.89552">
        <ele>8</ele>
        <time>2020-08-02T08:37:53.000Z</time>
      </trkpt>
      <trkpt lat="43.56127" lon="3.89553">
        <ele>8</ele>
        <time>2020-08-02T08:37:54.000Z</time>
      </trkpt>
      <trkpt lat="43.56131" lon="3.89554">
        <ele>8</ele>
        <time>2020-08-02T08:37:55.000Z</time>
      </trkpt>
      <trkpt lat="43.56136" lon="3.89555">
        <ele>8</ele>
        <time>2020-08-02T08:37:56.000Z</time>
      </trkpt>
      <trkpt lat="43.5614" lon="3.89556">
        <ele>8</ele>
        <time>2020-08-02T08:37:57.000Z</time>
      </trkpt>
      <trkpt lat="43.56144" lon="3.89557">
        <ele>8</ele>
        <time>2020-08-02T08:37:58.000Z</time>
      </trkpt>
      <trkpt lat="43.56148" lon="3.89558">
        <ele>8</ele>
        <time>2020-08-02T08:37:59.000Z</time>
      </trkpt>
      <trkpt lat="43.56152" lon="3.89559">
        <ele>8</ele>
        <time>2020-08-02T08:38:00.000Z</time>
      </trkpt>
      <trkpt lat="43.56156" lon="3.8956">
        <ele>8</ele>
        <time>2020-08-02T08:38:01.000Z</time>
      </trkpt>
      <trkpt lat="43.5616" lon="3.89561">
        <ele>8</ele>
        <time>2020-08-02T08:38:02.000Z</time>
      </trkpt>
      <trkpt lat="43.56164" lon="3.89562">
        <ele>8</ele>
        <time>2020-08-02T08:38:03.000Z</time>
      </trkpt>
      <trkpt lat="43.56168" lon="3.89563">
        <ele>8</ele>
        <time>2020-08-02T08:38:04.000Z</time>
      </trkpt>
      <trkpt lat="43.56172" lon="3.89564">
        <ele>8</ele>
        <time>2020-08-02T08:38:05.000Z</time>
      </trkpt>
      <trkpt lat="43.56176" lon="3.89565">
        <ele>8</ele>
        <time>2020-08-02T08:38:06.000Z</time>
      </trkpt>
      <trkpt lat="43.56181" lon="3.89566">
        <ele>8</ele>
        <time>2020-08-02T08:38:07.000Z</time>
      </trkpt>
      <trkpt lat="43.56185" lon="3.89567">
        <ele>8</ele>
        <time>2020-08-02T08:38:08.000Z</time>
      </trkpt>
      <trkpt lat="43.56189" lon="3.89569">
        <ele>8</ele>
        <time>2020-08-02T08:38:09.000Z</time>
      </trkpt>
      <trkpt lat="43.56193" lon="3.8957">
        <ele>8</ele>
        <time>2020-08-02T08:38:10.000Z</time>
      </trkpt>
      <trkpt lat="43.56196" lon="3.89572">
        <ele>8</ele>
        <time>2020-08-02T08:38:11.000Z</time>
      </trkpt>
      <trkpt lat="43.562" lon="3.89573">
        <ele>8</ele>
        <time>2020-08-02T08:38:12.000Z</time>
      </trkpt>
      <trkpt lat="43.56204" lon="3.89575">
        <ele>8</ele>
        <time>2020-08-02T08:38:13.000Z</time>
      </trkpt>
      <trkpt lat="43.56207" lon="3.89576">
        <ele>8</ele>
        <time>2020-08-02T08:38:14.000Z</time>
      </trkpt>
      <trkpt lat="43.56211" lon="3.89577">
        <ele>8</ele>
        <time>2020-08-02T08:38:15.000Z</time>
      </trkpt>
      <trkpt lat="43.56215" lon="3.89578">
        <ele>8</ele>
        <time>2020-08-02T08:38:16.000Z</time>
      </trkpt>
      <trkpt lat="43.56219" lon="3.89578">
        <ele>8</ele>
        <time>2020-08-02T08:38:17.000Z</time>
      </trkpt>
      <trkpt lat="43.56223" lon="3.89579">
        <ele>8</ele>
        <time>2020-08-02T08:38:18.000Z</time>
      </trkpt>
      <trkpt lat="43.56227" lon="3.8958">
        <ele>8</ele>
        <time>2020-08-02T08:38:19.000Z</time>
      </trkpt>
      <trkpt lat="43.56231" lon="3.89582">
        <ele>8</ele>
        <time>2020-08-02T08:38:20.000Z</time>
      </trkpt>
      <trkpt lat="43.56235" lon="3.89583">
        <ele>8.025509877551</ele>
        <time>2020-08-02T08:38:21.000Z</time>
      </trkpt>
      <trkpt lat="43.56239" lon="3.89585">
        <ele>8.1275506938776</ele>
        <time>2020-08-02T08:38:22.000Z</time>
      </trkpt>
      <trkpt lat="43.56243" lon="3.89586">
        <ele>8.2295915102041</ele>
        <time>2020-08-02T08:38:23.000Z</time>
      </trkpt>
      <trkpt lat="43.56248" lon="3.89587">
        <ele>8.3316323265306</ele>
        <time>2020-08-02T08:38:24.000Z</time>
      </trkpt>
      <trkpt lat="43.56252" lon="3.89589">
        <ele>8.4336731428571</ele>
        <time>2020-08-02T08:38:25.000Z</time>
      </trkpt>
      <trkpt lat="43.56256" lon="3.8959">
        <ele>8.5357139591837</ele>
        <time>2020-08-02T08:38:26.000Z</time>
      </trkpt>
      <trkpt lat="43.5626" lon="3.89591">
        <ele>8.6377547755102</ele>
        <time>2020-08-02T08:38:27.000Z</time>
      </trkpt>
      <trkpt lat="43.56264" lon="3.89592">
        <ele>8.7397955918367</ele>
        <time>2020-08-02T08:38:28.000Z</time>
      </trkpt>
      <trkpt lat="43.56268" lon="3.89593">
        <ele>8.8418364081633</ele>
        <time>2020-08-02T08:38:29.000Z</time>
      </trkpt>
      <trkpt lat="43.56272" lon="3.89595">
        <ele>8.9438772244898</ele>
        <time>2020-08-02T08:38:30.000Z</time>
      </trkpt>
      <trkpt lat="43.56277" lon="3.89596">
        <ele>8.95500032</ele>
        <time>2020-08-02T08:38:31.000Z</time>
      </trkpt>
      <trkpt lat="43.56281" lon="3.89597">
        <ele>8.85500032</ele>
        <time>2020-08-02T08:38:32.000Z</time>
      </trkpt>
      <trkpt lat="43.56285" lon="3.89599">
        <ele>8.75500032</ele>
        <time>2020-08-02T08:38:33.000Z</time>
      </trkpt>
      <trkpt lat="43.56289" lon="3.896">
        <ele>8.65500032</ele>
        <time>2020-08-02T08:38:34.000Z</time>
      </trkpt>
      <trkpt lat="43.56293" lon="3.89601">
        <ele>8.55500032</ele>
        <time>2020-08-02T08:38:35.000Z</time>
      </trkpt>
      <trkpt lat="43.56297" lon="3.89603">
        <ele>8.45500032</ele>
        <time>2020-08-02T08:38:36.000Z</time>
      </trkpt>
      <trkpt lat="43.56301" lon="3.89604">
        <ele>8.35500032</ele>
        <time>2020-08-02T08:38:37.000Z</time>
      </trkpt>
      <trkpt lat="43.56306" lon="3.89605">
        <ele>8.25500032</ele>
        <time>2020-08-02T08:38:38.000Z</time>
      </trkpt>
      <trkpt lat="43.5631" lon="3.89606">
        <ele>8.15500032</ele>
        <time>2020-08-02T08:38:39.000Z</time>
      </trkpt>
      <trkpt lat="43.56314" lon="3.89608">
        <ele>8.05500032</ele>
        <time>2020-08-02T08:38:40.000Z</time>
      </trkpt>
      <trkpt lat="43.56317" lon="3.89609">
        <ele>8</ele>
        <time>2020-08-02T08:38:41.000Z</time>
      </trkpt>
      <trkpt lat="43.5632" lon="3.8961">
        <ele>8</ele>
        <time>2020-08-02T08:38:42.000Z</time>
      </trkpt>
      <trkpt lat="43.56323" lon="3.89611">
        <ele>8</ele>
        <time>2020-08-02T08:38:43.000Z</time>
      </trkpt>
      <trkpt lat="43.56324" lon="3.89612">
        <ele>8</ele>
        <time>2020-08-02T08:38:44.000Z</time>
      </trkpt>
      <trkpt lat="43.56326" lon="3.89613">
        <ele>8</ele>
        <time>2020-08-02T08:38:45.000Z</time>
      </trkpt>
      <trkpt lat="43.56328" lon="3.89613">
        <ele>8</ele>
        <time>2020-08-02T08:38:46.000Z</time>
      </trkpt>
      <trkpt lat="43.56331" lon="3.89613">
        <ele>8</ele>
        <time>2020-08-02T08:38:47.000Z</time>
      </trkpt>
      <trkpt lat="43.56333" lon="3.89614">
        <ele>8</ele>
        <time>2020-08-02T08:38:48.000Z</time>
      </trkpt>
      <trkpt lat="43.56336" lon="3.89614">
        <ele>8</ele>
        <time>2020-08-02T08:38:49.000Z</time>
      </trkpt>
      <trkpt lat="43.56338" lon="3.89615">
        <ele>8</ele>
        <time>2020-08-02T08:38:50.000Z</time>
      </trkpt>
      <trkpt lat="43.5634" lon="3.89617">
        <ele>7.95500032</ele>
        <time>2020-08-02T08:38:51.000Z</time>
      </trkpt>
      <trkpt lat="43.56341" lon="3.89621">
        <ele>7.85500032</ele>
        <time>2020-08-02T08:38:52.000Z</time>
      </trkpt>
      <trkpt lat="43.56342" lon="3.89626">
        <ele>7.75500032</ele>
        <time>2020-08-02T08:38:53.000Z</time>
      </trkpt>
      <trkpt lat="43.56344" lon="3.8963">
        <ele>7.65500032</ele>
        <time>2020-08-02T08:38:54.000Z</time>
      </trkpt>
      <trkpt lat="43.56348" lon="3.89633">
        <ele>7.55500032</ele>
        <time>2020-08-02T08:38:55.000Z</time>
      </trkpt>
      <trkpt lat="43.56352" lon="3.89633">
        <ele>7.45500032</ele>
        <time>2020-08-02T08:38:56.000Z</time>
      </trkpt>
      <trkpt lat="43.56356" lon="3.89634">
        <ele>7.35500032</ele>
        <time>2020-08-02T08:38:57.000Z</time>
      </trkpt>
      <trkpt lat="43.56361" lon="3.89635">
        <ele>7.25500032</ele>
        <time>2020-08-02T08:38:58.000Z</time>
      </trkpt>
      <trkpt lat="43.56365" lon="3.89636">
        <ele>7.15500032</ele>
        <time>2020-08-02T08:38:59.000Z</time>
      </trkpt>
      <trkpt lat="43.56369" lon="3.89638">
        <ele>7.05500032</ele>
        <time>2020-08-02T08:39:00.000Z</time>
      </trkpt>
      <trkpt lat="43.56374" lon="3.89639">
        <ele>6.95500032</ele>
        <time>2020-08-02T08:39:01.000Z</time>
      </trkpt>
      <trkpt lat="43.56378" lon="3.89641">
        <ele>6.85500032</ele>
        <time>2020-08-02T08:39:02.000Z</time>
      </trkpt>
      <trkpt lat="43.56382" lon="3.89642">
        <ele>6.75500032</ele>
        <time>2020-08-02T08:39:03.000Z</time>
      </trkpt>
      <trkpt lat="43.56386" lon="3.89644">
        <ele>6.65500032</ele>
        <time>2020-08-02T08:39:04.000Z</time>
      </trkpt>
      <trkpt lat="43.5639" lon="3.89645">
        <ele>6.55500032</ele>
        <time>2020-08-02T08:39:05.000Z</time>
      </trkpt>
      <trkpt lat="43.56394" lon="3.89646">
        <ele>6.45500032</ele>
        <time>2020-08-02T08:39:06.000Z</time>
      </trkpt>
      <trkpt lat="43.56398" lon="3.89648">
        <ele>6.35500032</ele>
        <time>2020-08-02T08:39:07.000Z</time>
      </trkpt>
      <trkpt lat="43.56402" lon="3.89649">
        <ele>6.25500032</ele>
        <time>2020-08-02T08:39:08.000Z</time>
      </trkpt>
      <trkpt lat="43.56406" lon="3.8965">
        <ele>6.15500032</ele>
        <time>2020-08-02T08:39:09.000Z</time>
      </trkpt>
      <trkpt lat="43.56411" lon="3.89652">
        <ele>6.05500032</ele>
        <time>2020-08-02T08:39:10.000Z</time>
      </trkpt>
      <trkpt lat="43.56415" lon="3.89653">
        <ele>6.04499968</ele>
        <time>2020-08-02T08:39:11.000Z</time>
      </trkpt>
      <trkpt lat="43.56419" lon="3.89654">
        <ele>6.14499968</ele>
        <time>2020-08-02T08:39:12.000Z</time>
      </trkpt>
      <trkpt lat="43.56423" lon="3.89655">
        <ele>6.24499968</ele>
        <time>2020-08-02T08:39:13.000Z</time>
      </trkpt>
      <trkpt lat="43.56427" lon="3.89657">
        <ele>6.34499968</ele>
        <time>2020-08-02T08:39:14.000Z</time>
      </trkpt>
      <trkpt lat="43.56431" lon="3.89658">
        <ele>6.44499968</ele>
        <time>2020-08-02T08:39:15.000Z</time>
      </trkpt>
      <trkpt lat="43.56435" lon="3.89659">
        <ele>6.54499968</ele>
        <time>2020-08-02T08:39:16.000Z</time>
      </trkpt>
      <trkpt lat="43.56439" lon="3.8966">
        <ele>6.64499968</ele>
        <time>2020-08-02T08:39:17.000Z</time>
      </trkpt>
      <trkpt lat="43.56443" lon="3.89662">
        <ele>6.74499968</ele>
        <time>2020-08-02T08:39:18.000Z</time>
      </trkpt>
      <trkpt lat="43.56446" lon="3.89663">
        <ele>6.84499968</ele>
        <time>2020-08-02T08:39:19.000Z</time>
      </trkpt>
      <trkpt lat="43.5645" lon="3.89664">
        <ele>6.94499968</ele>
        <time>2020-08-02T08:39:20.000Z</time>
      </trkpt>
      <trkpt lat="43.56454" lon="3.89666">
        <ele>7</ele>
        <time>2020-08-02T08:39:21.000Z</time>
      </trkpt>
      <trkpt lat="43.56457" lon="3.89667">
        <ele>7</ele>
        <time>2020-08-02T08:39:22.000Z</time>
      </trkpt>
      <trkpt lat="43.56461" lon="3.89669">
        <ele>7</ele>
        <time>2020-08-02T08:39:23.000Z</time>
      </trkpt>
      <trkpt lat="43.56464" lon="3.8967">
        <ele>7</ele>
        <time>2020-08-02T08:39:24.000Z</time>
      </trkpt>
      <trkpt lat="43.56467" lon="3.89671">
        <ele>7</ele>
        <time>2020-08-02T08:39:25.000Z</time>
      </trkpt>
      <trkpt lat="43.5647" lon="3.89672">
        <ele>7</ele>
        <time>2020-08-02T08:39:26.000Z</time>
      </trkpt>
      <trkpt lat="43.56472" lon="3.89672">
        <ele>7</ele>
        <time>2020-08-02T08:39:27.000Z</time>
      </trkpt>
      <trkpt lat="43.56475" lon="3.89669">
        <ele>7</ele>
        <time>2020-08-02T08:39:29.000Z</time>
      </trkpt>
      <trkpt lat="43.56478" lon="3.89667">
        <ele>7</ele>
        <time>2020-08-02T08:39:31.000Z</time>
      </trkpt>
      <trkpt lat="43.56481" lon="3.89665">
        <ele>7</ele>
        <time>2020-08-02T08:39:33.000Z</time>
      </trkpt>
      <trkpt lat="43.56483" lon="3.89663">
        <ele>7</ele>
        <time>2020-08-02T08:39:34.000Z</time>
      </trkpt>
      <trkpt lat="43.56484" lon="3.89662">
        <ele>7</ele>
        <time>2020-08-02T08:39:35.000Z</time>
      </trkpt>
      <trkpt lat="43.56487" lon="3.89662">
        <ele>7</ele>
        <time>2020-08-02T08:39:36.000Z</time>
      </trkpt>
      <trkpt lat="43.5649" lon="3.89662">
        <ele>7</ele>
        <time>2020-08-02T08:39:37.000Z</time>
      </trkpt>
      <trkpt lat="43.56493" lon="3.89664">
        <ele>7</ele>
        <time>2020-08-02T08:39:38.000Z</time>
      </trkpt>
      <trkpt lat="43.56496" lon="3.89665">
        <ele>7</ele>
        <time>2020-08-02T08:39:39.000Z</time>
      </trkpt>
      <trkpt lat="43.56499" lon="3.89666">
        <ele>7</ele>
        <time>2020-08-02T08:39:40.000Z</time>
      </trkpt>
      <trkpt lat="43.56503" lon="3.89667">
        <ele>7</ele>
        <time>2020-08-02T08:39:41.000Z</time>
      </trkpt>
      <trkpt lat="43.56507" lon="3.89668">
        <ele>7</ele>
        <time>2020-08-02T08:39:42.000Z</time>
      </trkpt>
      <trkpt lat="43.5651" lon="3.89669">
        <ele>7</ele>
        <time>2020-08-02T08:39:43.000Z</time>
      </trkpt>
      <trkpt lat="43.56514" lon="3.89671">
        <ele>7</ele>
        <time>2020-08-02T08:39:44.000Z</time>
      </trkpt>
      <trkpt lat="43.56518" lon="3.89672">
        <ele>7</ele>
        <time>2020-08-02T08:39:45.000Z</time>
      </trkpt>
      <trkpt lat="43.56521" lon="3.89673">
        <ele>7</ele>
        <time>2020-08-02T08:39:46.000Z</time>
      </trkpt>
      <trkpt lat="43.56525" lon="3.89674">
        <ele>7</ele>
        <time>2020-08-02T08:39:47.000Z</time>
      </trkpt>
      <trkpt lat="43.56529" lon="3.89676">
        <ele>7</ele>
        <time>2020-08-02T08:39:48.000Z</time>
      </trkpt>
      <trkpt lat="43.56532" lon="3.89677">
        <ele>7</ele>
        <time>2020-08-02T08:39:49.000Z</time>
      </trkpt>
      <trkpt lat="43.56536" lon="3.89678">
        <ele>7</ele>
        <time>2020-08-02T08:39:50.000Z</time>
      </trkpt>
      <trkpt lat="43.5654" lon="3.8968">
        <ele>7</ele>
        <time>2020-08-02T08:39:51.000Z</time>
      </trkpt>
      <trkpt lat="43.56544" lon="3.89681">
        <ele>7</ele>
        <time>2020-08-02T08:39:52.000Z</time>
      </trkpt>
      <trkpt lat="43.56547" lon="3.89683">
        <ele>7</ele>
        <time>2020-08-02T08:39:53.000Z</time>
      </trkpt>
      <trkpt lat="43.56551" lon="3.89684">
        <ele>7</ele>
        <time>2020-08-02T08:39:54.000Z</time>
      </trkpt>
      <trkpt lat="43.56555" lon="3.89686">
        <ele>7</ele>
        <time>2020-08-02T08:39:55.000Z</time>
      </trkpt>
      <trkpt lat="43.56559" lon="3.89688">
        <ele>7</ele>
        <time>2020-08-02T08:39:56.000Z</time>
      </trkpt>
      <trkpt lat="43.56562" lon="3.89689">
        <ele>7</ele>
        <time>2020-08-02T08:39:57.000Z</time>
      </trkpt>
      <trkpt lat="43.56566" lon="3.89691">
        <ele>7</ele>
        <time>2020-08-02T08:39:58.000Z</time>
      </trkpt>
      <trkpt lat="43.56568" lon="3.89692">
        <ele>7</ele>
        <time>2020-08-02T08:39:59.000Z</time>
      </trkpt>
      <trkpt lat="43.56571" lon="3.89693">
        <ele>7</ele>
        <time>2020-08-02T08:40:00.000Z</time>
      </trkpt>
      <trkpt lat="43.56574" lon="3.89694">
        <ele>7.04499968</ele>
        <time>2020-08-02T08:40:01.000Z</time>
      </trkpt>
      <trkpt lat="43.56577" lon="3.89694">
        <ele>7.14499968</ele>
        <time>2020-08-02T08:40:02.000Z</time>
      </trkpt>
      <trkpt lat="43.56581" lon="3.89695">
        <ele>7.24499968</ele>
        <time>2020-08-02T08:40:03.000Z</time>
      </trkpt>
      <trkpt lat="43.56585" lon="3.89696">
        <ele>7.34499968</ele>
        <time>2020-08-02T08:40:04.000Z</time>
      </trkpt>
      <trkpt lat="43.56589" lon="3.89698">
        <ele>7.44499968</ele>
        <time>2020-08-02T08:40:05.000Z</time>
      </trkpt>
      <trkpt lat="43.56593" lon="3.89699">
        <ele>7.54499968</ele>
        <time>2020-08-02T08:40:06.000Z</time>
      </trkpt>
      <trkpt lat="43.56597" lon="3.89699">
        <ele>7.64499968</ele>
        <time>2020-08-02T08:40:07.000Z</time>
      </trkpt>
      <trkpt lat="43.56601" lon="3.89699">
        <ele>7.74499968</ele>
        <time>2020-08-02T08:40:08.000Z</time>
      </trkpt>
      <trkpt lat="43.56604" lon="3.89697">
        <ele>7.84499968</ele>
        <time>2020-08-02T08:40:09.000Z</time>
      </trkpt>
      <trkpt lat="43.56607" lon="3.89696">
        <ele>7.94499968</ele>
        <time>2020-08-02T08:40:10.000Z</time>
      </trkpt>
      <trkpt lat="43.5661" lon="3.89695">
        <ele>8.04499968</ele>
        <time>2020-08-02T08:40:11.000Z</time>
      </trkpt>
      <trkpt lat="43.56613" lon="3.89695">
        <ele>8.14499968</ele>
        <time>2020-08-02T08:40:12.000Z</time>
      </trkpt>
      <trkpt lat="43.56616" lon="3.89695">
        <ele>8.24499968</ele>
        <time>2020-08-02T08:40:13.000Z</time>
      </trkpt>
      <trkpt lat="43.56619" lon="3.89695">
        <ele>8.34499968</ele>
        <time>2020-08-02T08:40:14.000Z</time>
      </trkpt>
      <trkpt lat="43.56623" lon="3.89695">
        <ele>8.44499968</ele>
        <time>2020-08-02T08:40:15.000Z</time>
      </trkpt>
      <trkpt lat="43.56626" lon="3.89697">
        <ele>8.54499968</ele>
        <time>2020-08-02T08:40:16.000Z</time>
      </trkpt>
      <trkpt lat="43.5663" lon="3.89698">
        <ele>8.64499968</ele>
        <time>2020-08-02T08:40:17.000Z</time>
      </trkpt>
      <trkpt lat="43.56634" lon="3.89699">
        <ele>8.74499968</ele>
        <time>2020-08-02T08:40:18.000Z</time>
      </trkpt>
      <trkpt lat="43.56638" lon="3.89701">
        <ele>8.84499968</ele>
        <time>2020-08-02T08:40:19.000Z</time>
      </trkpt>
      <trkpt lat="43.56641" lon="3.89702">
        <ele>8.94499968</ele>
        <time>2020-08-02T08:40:20.000Z</time>
      </trkpt>
      <trkpt lat="43.56645" lon="3.89703">
        <ele>9</ele>
        <time>2020-08-02T08:40:21.000Z</time>
      </trkpt>
      <trkpt lat="43.56649" lon="3.89704">
        <ele>9</ele>
        <time>2020-08-02T08:40:22.000Z</time>
      </trkpt>
      <trkpt lat="43.56653" lon="3.89705">
        <ele>9</ele>
        <time>2020-08-02T08:40:23.000Z</time>
      </trkpt>
      <trkpt lat="43.56657" lon="3.89707">
        <ele>9</ele>
        <time>2020-08-02T08:40:24.000Z</time>
      </trkpt>
      <trkpt lat="43.56661" lon="3.89707">
        <ele>9</ele>
        <time>2020-08-02T08:40:25.000Z</time>
      </trkpt>
      <trkpt lat="43.56665" lon="3.89708">
        <ele>9</ele>
        <time>2020-08-02T08:40:26.000Z</time>
      </trkpt>
      <trkpt lat="43.56668" lon="3.89709">
        <ele>9</ele>
        <time>2020-08-02T08:40:27.000Z</time>
      </trkpt>
      <trkpt lat="43.56672" lon="3.8971">
        <ele>9</ele>
        <time>2020-08-02T08:40:28.000Z</time>
      </trkpt>
      <trkpt lat="43.56676" lon="3.89711">
        <ele>9</ele>
        <time>2020-08-02T08:40:29.000Z</time>
      </trkpt>
      <trkpt lat="43.5668" lon="3.89712">
        <ele>9</ele>
        <time>2020-08-02T08:40:30.000Z</time>
      </trkpt>
      <trkpt lat="43.56684" lon="3.89713">
        <ele>9</ele>
        <time>2020-08-02T08:40:31.000Z</time>
      </trkpt>
      <trkpt lat="43.56688" lon="3.89714">
        <ele>9</ele>
        <time>2020-08-02T08:40:32.000Z</time>
      </trkpt>
      <trkpt lat="43.56692" lon="3.89715">
        <ele>9</ele>
        <time>2020-08-02T08:40:33.000Z</time>
      </trkpt>
      <trkpt lat="43.56696" lon="3.89716">
        <ele>9</ele>
        <time>2020-08-02T08:40:34.000Z</time>
      </trkpt>
      <trkpt lat="43.567" lon="3.89717">
        <ele>9</ele>
        <time>2020-08-02T08:40:35.000Z</time>
      </trkpt>
      <trkpt lat="43.56704" lon="3.89718">
        <ele>9</ele>
        <time>2020-08-02T08:40:36.000Z</time>
      </trkpt>
      <trkpt lat="43.56708" lon="3.89719">
        <ele>9</ele>
        <time>2020-08-02T08:40:37.000Z</time>
      </trkpt>
      <trkpt lat="43.56712" lon="3.89719">
        <ele>9</ele>
        <time>2020-08-02T08:40:38.000Z</time>
      </trkpt>
      <trkpt lat="43.56716" lon="3.8972">
        <ele>9</ele>
        <time>2020-08-02T08:40:39.000Z</time>
      </trkpt>
      <trkpt lat="43.56721" lon="3.8972">
        <ele>9</ele>
        <time>2020-08-02T08:40:40.000Z</time>
      </trkpt>
      <trkpt lat="43.56725" lon="3.89721">
        <ele>9</ele>
        <time>2020-08-02T08:40:41.000Z</time>
      </trkpt>
      <trkpt lat="43.56729" lon="3.89721">
        <ele>9</ele>
        <time>2020-08-02T08:40:42.000Z</time>
      </trkpt>
      <trkpt lat="43.56733" lon="3.89722">
        <ele>9</ele>
        <time>2020-08-02T08:40:43.000Z</time>
      </trkpt>
      <trkpt lat="43.56738" lon="3.89722">
        <ele>9</ele>
        <time>2020-08-02T08:40:44.000Z</time>
      </trkpt>
      <trkpt lat="43.56742" lon="3.89722">
        <ele>9</ele>
        <time>2020-08-02T08:40:45.000Z</time>
      </trkpt>
      <trkpt lat="43.56746" lon="3.89723">
        <ele>9</ele>
        <time>2020-08-02T08:40:46.000Z</time>
      </trkpt>
      <trkpt lat="43.5675" lon="3.89723">
        <ele>9</ele>
        <time>2020-08-02T08:40:47.000Z</time>
      </trkpt>
      <trkpt lat="43.56754" lon="3.89724">
        <ele>9</ele>
        <time>2020-08-02T08:40:48.000Z</time>
      </trkpt>
      <trkpt lat="43.56758" lon="3.89725">
        <ele>9</ele>
        <time>2020-08-02T08:40:49.000Z</time>
      </trkpt>
      <trkpt lat="43.56762" lon="3.89726">
        <ele>9</ele>
        <time>2020-08-02T08:40:50.000Z</time>
      </trkpt>
      <trkpt lat="43.56766" lon="3.89726">
        <ele>9</ele>
        <time>2020-08-02T08:40:51.000Z</time>
      </trkpt>
      <trkpt lat="43.5677" lon="3.89727">
        <ele>9</ele>
        <time>2020-08-02T08:40:52.000Z</time>
      </trkpt>
      <trkpt lat="43.56774" lon="3.89728">
        <ele>9</ele>
        <time>2020-08-02T08:40:53.000Z</time>
      </trkpt>
      <trkpt lat="43.56778" lon="3.89729">
        <ele>9</ele>
        <time>2020-08-02T08:40:54.000Z</time>
      </trkpt>
      <trkpt lat="43.56782" lon="3.89729">
        <ele>9</ele>
        <time>2020-08-02T08:40:55.000Z</time>
      </trkpt>
      <trkpt lat="43.56786" lon="3.8973">
        <ele>9</ele>
        <time>2020-08-02T08:40:56.000Z</time>
      </trkpt>
      <trkpt lat="43.5679" lon="3.89731">
        <ele>9</ele>
        <time>2020-08-02T08:40:57.000Z</time>
      </trkpt>
      <trkpt lat="43.56794" lon="3.89732">
        <ele>9</ele>
        <time>2020-08-02T08:40:58.000Z</time>
      </trkpt>
      <trkpt lat="43.56798" lon="3.89732">
        <ele>9</ele>
        <time>2020-08-02T08:40:59.000Z</time>
      </trkpt>
      <trkpt lat="43.56802" lon="3.89733">
        <ele>9</ele>
        <time>2020-08-02T08:41:00.000Z</time>
      </trkpt>
      <trkpt lat="43.56806" lon="3.89734">
        <ele>9</ele>
        <time>2020-08-02T08:41:01.000Z</time>
      </trkpt>
      <trkpt lat="43.56809" lon="3.89735">
        <ele>9</ele>
        <time>2020-08-02T08:41:02.000Z</time>
      </trkpt>
      <trkpt lat="43.56813" lon="3.89736">
        <ele>9</ele>
        <time>2020-08-02T08:41:03.000Z</time>
      </trkpt>
      <trkpt lat="43.56817" lon="3.89737">
        <ele>9</ele>
        <time>2020-08-02T08:41:04.000Z</time>
      </trkpt>
      <trkpt lat="43.56821" lon="3.89738">
        <ele>9</ele>
        <time>2020-08-02T08:41:05.000Z</time>
      </trkpt>
      <trkpt lat="43.56825" lon="3.89739">
        <ele>9</ele>
        <time>2020-08-02T08:41:06.000Z</time>
      </trkpt>
      <trkpt lat="43.56829" lon="3.8974">
        <ele>9</ele>
        <time>2020-08-02T08:41:07.000Z</time>
      </trkpt>
      <trkpt lat="43.56833" lon="3.8974">
        <ele>9</ele>
        <time>2020-08-02T08:41:08.000Z</time>
      </trkpt>
      <trkpt lat="43.56837" lon="3.89741">
        <ele>9</ele>
        <time>2020-08-02T08:41:09.000Z</time>
      </trkpt>
      <trkpt lat="43.56841" lon="3.89742">
        <ele>9</ele>
        <time>2020-08-02T08:41:10.000Z</time>
      </trkpt>
      <trkpt lat="43.56845" lon="3.89743">
        <ele>9</ele>
        <time>2020-08-02T08:41:11.000Z</time>
      </trkpt>
      <trkpt lat="43.56849" lon="3.89743">
        <ele>9</ele>
        <time>2020-08-02T08:41:12.000Z</time>
      </trkpt>
      <trkpt lat="43.56853" lon="3.89745">
        <ele>9</ele>
        <time>2020-08-02T08:41:13.000Z</time>
      </trkpt>
      <trkpt lat="43.56856" lon="3.89746">
        <ele>9</ele>
        <time>2020-08-02T08:41:14.000Z</time>
      </trkpt>
      <trkpt lat="43.5686" lon="3.89747">
        <ele>9</ele>
        <time>2020-08-02T08:41:15.000Z</time>
      </trkpt>
      <trkpt lat="43.56864" lon="3.89748">
        <ele>9</ele>
        <time>2020-08-02T08:41:16.000Z</time>
      </trkpt>
      <trkpt lat="43.56868" lon="3.89749">
        <ele>9</ele>
        <time>2020-08-02T08:41:17.000Z</time>
      </trkpt>
      <trkpt lat="43.56872" lon="3.8975">
        <ele>9</ele>
        <time>2020-08-02T08:41:18.000Z</time>
      </trkpt>
      <trkpt lat="43.56876" lon="3.89751">
        <ele>9</ele>
        <time>2020-08-02T08:41:19.000Z</time>
      </trkpt>
      <trkpt lat="43.56879" lon="3.89752">
        <ele>9</ele>
        <time>2020-08-02T08:41:20.000Z</time>
      </trkpt>
      <trkpt lat="43.56883" lon="3.89753">
        <ele>9</ele>
        <time>2020-08-02T08:41:21.000Z</time>
      </trkpt>
      <trkpt lat="43.56887" lon="3.89754">
        <ele>9</ele>
        <time>2020-08-02T08:41:22.000Z</time>
      </trkpt>
      <trkpt lat="43.5689" lon="3.89755">
        <ele>9</ele>
        <time>2020-08-02T08:41:23.000Z</time>
      </trkpt>
      <trkpt lat="43.56894" lon="3.89756">
        <ele>9</ele>
        <time>2020-08-02T08:41:24.000Z</time>
      </trkpt>
      <trkpt lat="43.56898" lon="3.89757">
        <ele>9</ele>
        <time>2020-08-02T08:41:25.000Z</time>
      </trkpt>
      <trkpt lat="43.56901" lon="3.89757">
        <ele>9</ele>
        <time>2020-08-02T08:41:26.000Z</time>
      </trkpt>
      <trkpt lat="43.56905" lon="3.89758">
        <ele>9</ele>
        <time>2020-08-02T08:41:27.000Z</time>
      </trkpt>
      <trkpt lat="43.56908" lon="3.89759">
        <ele>9</ele>
        <time>2020-08-02T08:41:28.000Z</time>
      </trkpt>
      <trkpt lat="43.56912" lon="3.8976">
        <ele>9</ele>
        <time>2020-08-02T08:41:29.000Z</time>
      </trkpt>
      <trkpt lat="43.56916" lon="3.89761">
        <ele>9</ele>
        <time>2020-08-02T08:41:30.000Z</time>
      </trkpt>
      <trkpt lat="43.56919" lon="3.89762">
        <ele>9.04499968</ele>
        <time>2020-08-02T08:41:31.000Z</time>
      </trkpt>
      <trkpt lat="43.56923" lon="3.89763">
        <ele>9.14499968</ele>
        <time>2020-08-02T08:41:32.000Z</time>
      </trkpt>
      <trkpt lat="43.56926" lon="3.89764">
        <ele>9.24499968</ele>
        <time>2020-08-02T08:41:33.000Z</time>
      </trkpt>
      <trkpt lat="43.5693" lon="3.89765">
        <ele>9.34499968</ele>
        <time>2020-08-02T08:41:34.000Z</time>
      </trkpt>
      <trkpt lat="43.56934" lon="3.89766">
        <ele>9.44499968</ele>
        <time>2020-08-02T08:41:35.000Z</time>
      </trkpt>
      <trkpt lat="43.56938" lon="3.89767">
        <ele>9.54499968</ele>
        <time>2020-08-02T08:41:36.000Z</time>
      </trkpt>
      <trkpt lat="43.56941" lon="3.89768">
        <ele>9.64499968</ele>
        <time>2020-08-02T08:41:37.000Z</time>
      </trkpt>
      <trkpt lat="43.56945" lon="3.89769">
        <ele>9.74499968</ele>
        <time>2020-08-02T08:41:38.000Z</time>
      </trkpt>
      <trkpt lat="43.56949" lon="3.8977">
        <ele>9.84499968</ele>
        <time>2020-08-02T08:41:39.000Z</time>
      </trkpt>
      <trkpt lat="43.56953" lon="3.89771">
        <ele>9.94499968</ele>
        <time>2020-08-02T08:41:40.000Z</time>
      </trkpt>
      <trkpt lat="43.56957" lon="3.89772">
        <ele>9.956055</ele>
        <time>2020-08-02T08:41:41.000Z</time>
      </trkpt>
      <trkpt lat="43.5696" lon="3.89774">
        <ele>9.85839875</ele>
        <time>2020-08-02T08:41:42.000Z</time>
      </trkpt>
      <trkpt lat="43.56964" lon="3.89775">
        <ele>9.7607425</ele>
        <time>2020-08-02T08:41:43.000Z</time>
      </trkpt>
      <trkpt lat="43.56968" lon="3.89777">
        <ele>9.66308625</ele>
        <time>2020-08-02T08:41:44.000Z</time>
      </trkpt>
      <trkpt lat="43.56972" lon="3.89778">
        <ele>9.56543</ele>
        <time>2020-08-02T08:41:45.000Z</time>
      </trkpt>
      <trkpt lat="43.56976" lon="3.89779">
        <ele>9.46777375</ele>
        <time>2020-08-02T08:41:46.000Z</time>
      </trkpt>
      <trkpt lat="43.5698" lon="3.89781">
        <ele>9.3701175</ele>
        <time>2020-08-02T08:41:47.000Z</time>
      </trkpt>
      <trkpt lat="43.56983" lon="3.89782">
        <ele>9.27246125</ele>
        <time>2020-08-02T08:41:48.000Z</time>
      </trkpt>
      <trkpt lat="43.56987" lon="3.89784">
        <ele>9.174805</ele>
        <time>2020-08-02T08:41:49.000Z</time>
      </trkpt>
      <trkpt lat="43.56991" lon="3.89785">
        <ele>9.07714875</ele>
        <time>2020-08-02T08:41:50.000Z</time>
      </trkpt>
      <trkpt lat="43.56995" lon="3.89787">
        <ele>9</ele>
        <time>2020-08-02T08:41:51.000Z</time>
      </trkpt>
      <trkpt lat="43.56998" lon="3.89789">
        <ele>9</ele>
        <time>2020-08-02T08:41:52.000Z</time>
      </trkpt>
      <trkpt lat="43.57002" lon="3.8979">
        <ele>9</ele>
        <time>2020-08-02T08:41:53.000Z</time>
      </trkpt>
      <trkpt lat="43.57006" lon="3.89791">
        <ele>9</ele>
        <time>2020-08-02T08:41:54.000Z</time>
      </trkpt>
      <trkpt lat="43.5701" lon="3.89792">
        <ele>9</ele>
        <time>2020-08-02T08:41:55.000Z</time>
      </trkpt>
      <trkpt lat="43.57014" lon="3.89794">
        <ele>9</ele>
        <time>2020-08-02T08:41:56.000Z</time>
      </trkpt>
      <trkpt lat="43.57018" lon="3.89795">
        <ele>9</ele>
        <time>2020-08-02T08:41:57.000Z</time>
      </trkpt>
      <trkpt lat="43.57022" lon="3.89797">
        <ele>9</ele>
        <time>2020-08-02T08:41:58.000Z</time>
      </trkpt>
      <trkpt lat="43.57026" lon="3.89798">
        <ele>9</ele>
        <time>2020-08-02T08:41:59.000Z</time>
      </trkpt>
      <trkpt lat="43.57029" lon="3.898">
        <ele>9</ele>
        <time>2020-08-02T08:42:00.000Z</time>
      </trkpt>
      <trkpt lat="43.57033" lon="3.89801">
        <ele>9.0436890368553</ele>
        <time>2020-08-02T08:42:01.000Z</time>
      </trkpt>
      <trkpt lat="43.57037" lon="3.89803">
        <ele>9.1407764758223</ele>
        <time>2020-08-02T08:42:02.000Z</time>
      </trkpt>
      <trkpt lat="43.57041" lon="3.89804">
        <ele>9.2378639147892</ele>
        <time>2020-08-02T08:42:03.000Z</time>
      </trkpt>
      <trkpt lat="43.57045" lon="3.89805">
        <ele>9.3349513537562</ele>
        <time>2020-08-02T08:42:04.000Z</time>
      </trkpt>
      <trkpt lat="43.57048" lon="3.89807">
        <ele>9.4320387927231</ele>
        <time>2020-08-02T08:42:05.000Z</time>
      </trkpt>
      <trkpt lat="43.57051" lon="3.89809">
        <ele>9.5291262316901</ele>
        <time>2020-08-02T08:42:06.000Z</time>
      </trkpt>
      <trkpt lat="43.57053" lon="3.89811">
        <ele>9.626213670657</ele>
        <time>2020-08-02T08:42:07.000Z</time>
      </trkpt>
      <trkpt lat="43.57054" lon="3.89815">
        <ele>9.723301109624</ele>
        <time>2020-08-02T08:42:08.000Z</time>
      </trkpt>
      <trkpt lat="43.57053" lon="3.89818">
        <ele>9.8203885485909</ele>
        <time>2020-08-02T08:42:09.000Z</time>
      </trkpt>
      <trkpt lat="43.57051" lon="3.89822">
        <ele>9.9174759875579</ele>
        <time>2020-08-02T08:42:10.000Z</time>
      </trkpt>
      <trkpt lat="43.57048" lon="3.89827">
        <ele>10</ele>
        <time>2020-08-02T08:42:11.000Z</time>
      </trkpt>
      <trkpt lat="43.57044" lon="3.89831">
        <ele>10</ele>
        <time>2020-08-02T08:42:12.000Z</time>
      </trkpt>
      <trkpt lat="43.5704" lon="3.89836">
        <ele>10</ele>
        <time>2020-08-02T08:42:13.000Z</time>
      </trkpt>
      <trkpt lat="43.57036" lon="3.89841">
        <ele>10</ele>
        <time>2020-08-02T08:42:14.000Z</time>
      </trkpt>
      <trkpt lat="43.57031" lon="3.89846">
        <ele>10</ele>
        <time>2020-08-02T08:42:15.000Z</time>
      </trkpt>
      <trkpt lat="43.57027" lon="3.8985">
        <ele>10</ele>
        <time>2020-08-02T08:42:16.000Z</time>
      </trkpt>
      <trkpt lat="43.57023" lon="3.89854">
        <ele>10</ele>
        <time>2020-08-02T08:42:17.000Z</time>
      </trkpt>
      <trkpt lat="43.5702" lon="3.89856">
        <ele>10</ele>
        <time>2020-08-02T08:42:18.000Z</time>
      </trkpt>
      <trkpt lat="43.57018" lon="3.89859">
        <ele>10</ele>
        <time>2020-08-02T08:42:20.000Z</time>
      </trkpt>
      <trkpt lat="43.5702" lon="3.89863">
        <ele>9.85500032</ele>
        <time>2020-08-02T08:42:22.000Z</time>
      </trkpt>
      <trkpt lat="43.57022" lon="3.89866">
        <ele>9.75500032</ele>
        <time>2020-08-02T08:42:23.000Z</time>
      </trkpt>
      <trkpt lat="43.57024" lon="3.8987">
        <ele>9.65500032</ele>
        <time>2020-08-02T08:42:24.000Z</time>
      </trkpt>
      <trkpt lat="43.57025" lon="3.89875">
        <ele>9.55500032</ele>
        <time>2020-08-02T08:42:25.000Z</time>
      </trkpt>
      <trkpt lat="43.57027" lon="3.8988">
        <ele>9.45500032</ele>
        <time>2020-08-02T08:42:26.000Z</time>
      </trkpt>
      <trkpt lat="43.5703" lon="3.89885">
        <ele>9.35500032</ele>
        <time>2020-08-02T08:42:27.000Z</time>
      </trkpt>
      <trkpt lat="43.57034" lon="3.89889">
        <ele>9.25500032</ele>
        <time>2020-08-02T08:42:28.000Z</time>
      </trkpt>
      <trkpt lat="43.57038" lon="3.89893">
        <ele>9.15500032</ele>
        <time>2020-08-02T08:42:29.000Z</time>
      </trkpt>
      <trkpt lat="43.57043" lon="3.89897">
        <ele>9.05500032</ele>
        <time>2020-08-02T08:42:30.000Z</time>
      </trkpt>
      <trkpt lat="43.57048" lon="3.899">
        <ele>9</ele>
        <time>2020-08-02T08:42:31.000Z</time>
      </trkpt>
      <trkpt lat="43.57054" lon="3.89903">
        <ele>9</ele>
        <time>2020-08-02T08:42:32.000Z</time>
      </trkpt>
      <trkpt lat="43.5706" lon="3.89906">
        <ele>9</ele>
        <time>2020-08-02T08:42:33.000Z</time>
      </trkpt>
      <trkpt lat="43.57064" lon="3.8991">
        <ele>9</ele>
        <time>2020-08-02T08:42:34.000Z</time>
      </trkpt>
      <trkpt lat="43.57069" lon="3.89915">
        <ele>9</ele>
        <time>2020-08-02T08:42:35.000Z</time>
      </trkpt>
      <trkpt lat="43.57072" lon="3.8992">
        <ele>9</ele>
        <time>2020-08-02T08:42:36.000Z</time>
      </trkpt>
      <trkpt lat="43.57076" lon="3.89925">
        <ele>9</ele>
        <time>2020-08-02T08:42:37.000Z</time>
      </trkpt>
      <trkpt lat="43.57078" lon="3.89929">
        <ele>9</ele>
        <time>2020-08-02T08:42:38.000Z</time>
      </trkpt>
      <trkpt lat="43.5708" lon="3.89933">
        <ele>9</ele>
        <time>2020-08-02T08:42:39.000Z</time>
      </trkpt>
      <trkpt lat="43.57083" lon="3.89934">
        <ele>9</ele>
        <time>2020-08-02T08:42:40.000Z</time>
      </trkpt>
      <trkpt lat="43.57085" lon="3.89933">
        <ele>9.04499968</ele>
        <time>2020-08-02T08:42:41.000Z</time>
      </trkpt>
      <trkpt lat="43.57086" lon="3.89931">
        <ele>9.14499968</ele>
        <time>2020-08-02T08:42:42.000Z</time>
      </trkpt>
      <trkpt lat="43.57086" lon="3.89928">
        <ele>9.24499968</ele>
        <time>2020-08-02T08:42:43.000Z</time>
      </trkpt>
      <trkpt lat="43.57085" lon="3.89923">
        <ele>9.34499968</ele>
        <time>2020-08-02T08:42:44.000Z</time>
      </trkpt>
      <trkpt lat="43.57083" lon="3.89919">
        <ele>9.44499968</ele>
        <time>2020-08-02T08:42:45.000Z</time>
      </trkpt>
      <trkpt lat="43.57081" lon="3.89914">
        <ele>9.54499968</ele>
        <time>2020-08-02T08:42:46.000Z</time>
      </trkpt>
      <trkpt lat="43.57078" lon="3.89909">
        <ele>9.64499968</ele>
        <time>2020-08-02T08:42:47.000Z</time>
      </trkpt>
      <trkpt lat="43.57075" lon="3.89905">
        <ele>9.74499968</ele>
        <time>2020-08-02T08:42:48.000Z</time>
      </trkpt>
      <trkpt lat="43.57073" lon="3.899">
        <ele>9.84499968</ele>
        <time>2020-08-02T08:42:49.000Z</time>
      </trkpt>
      <trkpt lat="43.57074" lon="3.89895">
        <ele>9.94499968</ele>
        <time>2020-08-02T08:42:50.000Z</time>
      </trkpt>
      <trkpt lat="43.57075" lon="3.89891">
        <ele>10.042292932331</ele>
        <time>2020-08-02T08:42:51.000Z</time>
      </trkpt>
      <trkpt lat="43.57073" lon="3.89886">
        <ele>10.136277894737</ele>
        <time>2020-08-02T08:42:52.000Z</time>
      </trkpt>
      <trkpt lat="43.57071" lon="3.89881">
        <ele>10.230262857143</ele>
        <time>2020-08-02T08:42:53.000Z</time>
      </trkpt>
      <trkpt lat="43.57069" lon="3.89876">
        <ele>10.324247819549</ele>
        <time>2020-08-02T08:42:54.000Z</time>
      </trkpt>
      <trkpt lat="43.57069" lon="3.89871">
        <ele>10.418232781955</ele>
        <time>2020-08-02T08:42:55.000Z</time>
      </trkpt>
      <trkpt lat="43.57071" lon="3.89866">
        <ele>10.512217744361</ele>
        <time>2020-08-02T08:42:56.000Z</time>
      </trkpt>
      <trkpt lat="43.57074" lon="3.89861">
        <ele>10.606202706767</ele>
        <time>2020-08-02T08:42:57.000Z</time>
      </trkpt>
      <trkpt lat="43.57076" lon="3.89857">
        <ele>10.700187669173</ele>
        <time>2020-08-02T08:42:58.000Z</time>
      </trkpt>
      <trkpt lat="43.57078" lon="3.89853">
        <ele>10.794172631579</ele>
        <time>2020-08-02T08:42:59.000Z</time>
      </trkpt>
      <trkpt lat="43.5708" lon="3.8985">
        <ele>10.888157593985</ele>
        <time>2020-08-02T08:43:00.000Z</time>
      </trkpt>
      <trkpt lat="43.57082" lon="3.89846">
        <ele>10.982142556391</ele>
        <time>2020-08-02T08:43:01.000Z</time>
      </trkpt>
      <trkpt lat="43.57084" lon="3.89843">
        <ele>11</ele>
        <time>2020-08-02T08:43:02.000Z</time>
      </trkpt>
      <trkpt lat="43.57085" lon="3.8984">
        <ele>11</ele>
        <time>2020-08-02T08:43:03.000Z</time>
      </trkpt>
      <trkpt lat="43.57088" lon="3.89837">
        <ele>11</ele>
        <time>2020-08-02T08:43:04.000Z</time>
      </trkpt>
      <trkpt lat="43.5709" lon="3.89834">
        <ele>11</ele>
        <time>2020-08-02T08:43:05.000Z</time>
      </trkpt>
      <trkpt lat="43.57093" lon="3.89831">
        <ele>11</ele>
        <time>2020-08-02T08:43:06.000Z</time>
      </trkpt>
      <trkpt lat="43.57096" lon="3.89828">
        <ele>11</ele>
        <time>2020-08-02T08:43:07.000Z</time>
      </trkpt>
      <trkpt lat="43.571" lon="3.89825">
        <ele>11</ele>
        <time>2020-08-02T08:43:08.000Z</time>
      </trkpt>
      <trkpt lat="43.57103" lon="3.89822">
        <ele>11</ele>
        <time>2020-08-02T08:43:09.000Z</time>
      </trkpt>
      <trkpt lat="43.57107" lon="3.8982">
        <ele>11</ele>
        <time>2020-08-02T08:43:10.000Z</time>
      </trkpt>
      <trkpt lat="43.57111" lon="3.89817">
        <ele>11</ele>
        <time>2020-08-02T08:43:11.000Z</time>
      </trkpt>
      <trkpt lat="43.57115" lon="3.89815">
        <ele>11</ele>
        <time>2020-08-02T08:43:12.000Z</time>
      </trkpt>
      <trkpt lat="43.5712" lon="3.89814">
        <ele>11</ele>
        <time>2020-08-02T08:43:13.000Z</time>
      </trkpt>
      <trkpt lat="43.57124" lon="3.89813">
        <ele>11</ele>
        <time>2020-08-02T08:43:14.000Z</time>
      </trkpt>
      <trkpt lat="43.57129" lon="3.89813">
        <ele>11</ele>
        <time>2020-08-02T08:43:15.000Z</time>
      </trkpt>
      <trkpt lat="43.57134" lon="3.89813">
        <ele>11</ele>
        <time>2020-08-02T08:43:16.000Z</time>
      </trkpt>
      <trkpt lat="43.57138" lon="3.89813">
        <ele>11</ele>
        <time>2020-08-02T08:43:17.000Z</time>
      </trkpt>
      <trkpt lat="43.57143" lon="3.89813">
        <ele>11</ele>
        <time>2020-08-02T08:43:18.000Z</time>
      </trkpt>
      <trkpt lat="43.57148" lon="3.89814">
        <ele>11</ele>
        <time>2020-08-02T08:43:19.000Z</time>
      </trkpt>
      <trkpt lat="43.57152" lon="3.89816">
        <ele>11</ele>
        <time>2020-08-02T08:43:20.000Z</time>
      </trkpt>
      <trkpt lat="43.57156" lon="3.8982">
        <ele>11.04499968</ele>
        <time>2020-08-02T08:43:21.000Z</time>
      </trkpt>
      <trkpt lat="43.57159" lon="3.89825">
        <ele>11.14499968</ele>
        <time>2020-08-02T08:43:22.000Z</time>
      </trkpt>
      <trkpt lat="43.57161" lon="3.89829">
        <ele>11.24499968</ele>
        <time>2020-08-02T08:43:23.000Z</time>
      </trkpt>
      <trkpt lat="43.57164" lon="3.89832">
        <ele>11.34499968</ele>
        <time>2020-08-02T08:43:24.000Z</time>
      </trkpt>
      <trkpt lat="43.57168" lon="3.89832">
        <ele>11.44499968</ele>
        <time>2020-08-02T08:43:25.000Z</time>
      </trkpt>
      <trkpt lat="43.57171" lon="3.89829">
        <ele>11.54499968</ele>
        <time>2020-08-02T08:43:26.000Z</time>
      </trkpt>
      <trkpt lat="43.57173" lon="3.89825">
        <ele>11.64499968</ele>
        <time>2020-08-02T08:43:27.000Z</time>
      </trkpt>
      <trkpt lat="43.57176" lon="3.89821">
        <ele>11.74499968</ele>
        <time>2020-08-02T08:43:28.000Z</time>
      </trkpt>
      <trkpt lat="43.57179" lon="3.89817">
        <ele>11.84499968</ele>
        <time>2020-08-02T08:43:29.000Z</time>
      </trkpt>
      <trkpt lat="43.57182" lon="3.89814">
        <ele>11.94499968</ele>
        <time>2020-08-02T08:43:30.000Z</time>
      </trkpt>
      <trkpt lat="43.57185" lon="3.89811">
        <ele>11.86500096</ele>
        <time>2020-08-02T08:43:31.000Z</time>
      </trkpt>
      <trkpt lat="43.57188" lon="3.89808">
        <ele>11.56500096</ele>
        <time>2020-08-02T08:43:32.000Z</time>
      </trkpt>
      <trkpt lat="43.57191" lon="3.89804">
        <ele>11.26500096</ele>
        <time>2020-08-02T08:43:33.000Z</time>
      </trkpt>
      <trkpt lat="43.57195" lon="3.898">
        <ele>10.96500096</ele>
        <time>2020-08-02T08:43:34.000Z</time>
      </trkpt>
      <trkpt lat="43.57197" lon="3.89795">
        <ele>10.66500096</ele>
        <time>2020-08-02T08:43:35.000Z</time>
      </trkpt>
      <trkpt lat="43.57198" lon="3.89789">
        <ele>10.36500096</ele>
        <time>2020-08-02T08:43:36.000Z</time>
      </trkpt>
      <trkpt lat="43.57198" lon="3.89783">
        <ele>10.06500096</ele>
        <time>2020-08-02T08:43:37.000Z</time>
      </trkpt>
      <trkpt lat="43.572" lon="3.89777">
        <ele>9.76500096</ele>
        <time>2020-08-02T08:43:38.000Z</time>
      </trkpt>
      <trkpt lat="43.57203" lon="3.89772">
        <ele>9.46500096</ele>
        <time>2020-08-02T08:43:39.000Z</time>
      </trkpt>
      <trkpt lat="43.57208" lon="3.89768">
        <ele>9.16500096</ele>
        <time>2020-08-02T08:43:40.000Z</time>
      </trkpt>
      <trkpt lat="43.57214" lon="3.89764">
        <ele>9</ele>
        <time>2020-08-02T08:43:41.000Z</time>
      </trkpt>
      <trkpt lat="43.57221" lon="3.89762">
        <ele>9</ele>
        <time>2020-08-02T08:43:42.000Z</time>
      </trkpt>
      <trkpt lat="43.57227" lon="3.8976">
        <ele>9</ele>
        <time>2020-08-02T08:43:43.000Z</time>
      </trkpt>
      <trkpt lat="43.57234" lon="3.89758">
        <ele>9</ele>
        <time>2020-08-02T08:43:44.000Z</time>
      </trkpt>
      <trkpt lat="43.5724" lon="3.89757">
        <ele>9</ele>
        <time>2020-08-02T08:43:45.000Z</time>
      </trkpt>
      <trkpt lat="43.57247" lon="3.89756">
        <ele>9</ele>
        <time>2020-08-02T08:43:46.000Z</time>
      </trkpt>
      <trkpt lat="43.57254" lon="3.89756">
        <ele>9</ele>
        <time>2020-08-02T08:43:47.000Z</time>
      </trkpt>
      <trkpt lat="43.5726" lon="3.89755">
        <ele>9</ele>
        <time>2020-08-02T08:43:48.000Z</time>
      </trkpt>
      <trkpt lat="43.57266" lon="3.89755">
        <ele>9</ele>
        <time>2020-08-02T08:43:49.000Z</time>
      </trkpt>
      <trkpt lat="43.57273" lon="3.89754">
        <ele>9</ele>
        <time>2020-08-02T08:43:50.000Z</time>
      </trkpt>
      <trkpt lat="43.57279" lon="3.89754">
        <ele>8.9835221475519</ele>
        <time>2020-08-02T08:43:51.000Z</time>
      </trkpt>
      <trkpt lat="43.57285" lon="3.89753">
        <ele>8.8805355697514</ele>
        <time>2020-08-02T08:43:52.000Z</time>
      </trkpt>
      <trkpt lat="43.57292" lon="3.89753">
        <ele>8.7775489919509</ele>
        <time>2020-08-02T08:43:53.000Z</time>
      </trkpt>
      <trkpt lat="43.57298" lon="3.89753">
        <ele>8.6745624141504</ele>
        <time>2020-08-02T08:43:54.000Z</time>
      </trkpt>
      <trkpt lat="43.57304" lon="3.89753">
        <ele>8.5715758363499</ele>
        <time>2020-08-02T08:43:55.000Z</time>
      </trkpt>
      <trkpt lat="43.5731" lon="3.89753">
        <ele>8.4685892585494</ele>
        <time>2020-08-02T08:43:56.000Z</time>
      </trkpt>
      <trkpt lat="43.57316" lon="3.89754">
        <ele>8.3656026807489</ele>
        <time>2020-08-02T08:43:57.000Z</time>
      </trkpt>
      <trkpt lat="43.57322" lon="3.89754">
        <ele>8.2626161029483</ele>
        <time>2020-08-02T08:43:58.000Z</time>
      </trkpt>
      <trkpt lat="43.57328" lon="3.89755">
        <ele>8.1596295251478</ele>
        <time>2020-08-02T08:43:59.000Z</time>
      </trkpt>
      <trkpt lat="43.57334" lon="3.89756">
        <ele>8.0566429473473</ele>
        <time>2020-08-02T08:44:00.000Z</time>
      </trkpt>
      <trkpt lat="43.57339" lon="3.89757">
        <ele>8</ele>
        <time>2020-08-02T08:44:01.000Z</time>
      </trkpt>
      <trkpt lat="43.57345" lon="3.89759">
        <ele>8</ele>
        <time>2020-08-02T08:44:02.000Z</time>
      </trkpt>
      <trkpt lat="43.57351" lon="3.8976">
        <ele>8</ele>
        <time>2020-08-02T08:44:03.000Z</time>
      </trkpt>
      <trkpt lat="43.57356" lon="3.89762">
        <ele>8</ele>
        <time>2020-08-02T08:44:04.000Z</time>
      </trkpt>
      <trkpt lat="43.57362" lon="3.89764">
        <ele>8</ele>
        <time>2020-08-02T08:44:05.000Z</time>
      </trkpt>
      <trkpt lat="43.57367" lon="3.89766">
        <ele>8</ele>
        <time>2020-08-02T08:44:06.000Z</time>
      </trkpt>
      <trkpt lat="43.57373" lon="3.89768">
        <ele>8</ele>
        <time>2020-08-02T08:44:07.000Z</time>
      </trkpt>
      <trkpt lat="43.57378" lon="3.8977">
        <ele>8</ele>
        <time>2020-08-02T08:44:08.000Z</time>
      </trkpt>
      <trkpt lat="43.57384" lon="3.89772">
        <ele>8</ele>
        <time>2020-08-02T08:44:09.000Z</time>
      </trkpt>
      <trkpt lat="43.57389" lon="3.89775">
        <ele>8</ele>
        <time>2020-08-02T08:44:10.000Z</time>
      </trkpt>
      <trkpt lat="43.57394" lon="3.89777">
        <ele>8</ele>
        <time>2020-08-02T08:44:11.000Z</time>
      </trkpt>
      <trkpt lat="43.574" lon="3.8978">
        <ele>7.9038265022476</ele>
        <time>2020-08-02T08:44:12.000Z</time>
      </trkpt>
      <trkpt lat="43.57405" lon="3.89784">
        <ele>7.8004137832443</ele>
        <time>2020-08-02T08:44:13.000Z</time>
      </trkpt>
      <trkpt lat="43.5741" lon="3.89787">
        <ele>7.697001064241</ele>
        <time>2020-08-02T08:44:14.000Z</time>
      </trkpt>
      <trkpt lat="43.57415" lon="3.8979">
        <ele>7.5935883452376</ele>
        <time>2020-08-02T08:44:15.000Z</time>
      </trkpt>
      <trkpt lat="43.5742" lon="3.89794">
        <ele>7.4901756262343</ele>
        <time>2020-08-02T08:44:16.000Z</time>
      </trkpt>
      <trkpt lat="43.57425" lon="3.89798">
        <ele>7.386762907231</ele>
        <time>2020-08-02T08:44:17.000Z</time>
      </trkpt>
      <trkpt lat="43.5743" lon="3.89802">
        <ele>7.2833501882277</ele>
        <time>2020-08-02T08:44:18.000Z</time>
      </trkpt>
      <trkpt lat="43.57434" lon="3.89806">
        <ele>7.1799374692244</ele>
        <time>2020-08-02T08:44:19.000Z</time>
      </trkpt>
      <trkpt lat="43.57438" lon="3.89811">
        <ele>7.0765247502211</ele>
        <time>2020-08-02T08:44:20.000Z</time>
      </trkpt>
      <trkpt lat="43.57442" lon="3.89816">
        <ele>7</ele>
        <time>2020-08-02T08:44:21.000Z</time>
      </trkpt>
      <trkpt lat="43.57446" lon="3.8982">
        <ele>7</ele>
        <time>2020-08-02T08:44:22.000Z</time>
      </trkpt>
      <trkpt lat="43.5745" lon="3.89825">
        <ele>7</ele>
        <time>2020-08-02T08:44:23.000Z</time>
      </trkpt>
      <trkpt lat="43.57454" lon="3.8983">
        <ele>7</ele>
        <time>2020-08-02T08:44:24.000Z</time>
      </trkpt>
      <trkpt lat="43.57458" lon="3.89835">
        <ele>7</ele>
        <time>2020-08-02T08:44:25.000Z</time>
      </trkpt>
      <trkpt lat="43.57462" lon="3.89841">
        <ele>7</ele>
        <time>2020-08-02T08:44:26.000Z</time>
      </trkpt>
      <trkpt lat="43.57465" lon="3.89846">
        <ele>7</ele>
        <time>2020-08-02T08:44:27.000Z</time>
      </trkpt>
      <trkpt lat="43.57469" lon="3.89852">
        <ele>7</ele>
        <time>2020-08-02T08:44:28.000Z</time>
      </trkpt>
      <trkpt lat="43.57473" lon="3.89857">
        <ele>7</ele>
        <time>2020-08-02T08:44:29.000Z</time>
      </trkpt>
      <trkpt lat="43.57477" lon="3.89863">
        <ele>7</ele>
        <time>2020-08-02T08:44:30.000Z</time>
      </trkpt>
      <trkpt lat="43.57481" lon="3.89868">
        <ele>7</ele>
        <time>2020-08-02T08:44:31.000Z</time>
      </trkpt>
      <trkpt lat="43.57485" lon="3.89874">
        <ele>7</ele>
        <time>2020-08-02T08:44:32.000Z</time>
      </trkpt>
      <trkpt lat="43.57489" lon="3.89881">
        <ele>7</ele>
        <time>2020-08-02T08:44:33.000Z</time>
      </trkpt>
      <trkpt lat="43.57492" lon="3.89887">
        <ele>7</ele>
        <time>2020-08-02T08:44:34.000Z</time>
      </trkpt>
      <trkpt lat="43.57495" lon="3.89893">
        <ele>7</ele>
        <time>2020-08-02T08:44:35.000Z</time>
      </trkpt>
      <trkpt lat="43.57499" lon="3.89898">
        <ele>7</ele>
        <time>2020-08-02T08:44:36.000Z</time>
      </trkpt>
      <trkpt lat="43.57502" lon="3.89904">
        <ele>7</ele>
        <time>2020-08-02T08:44:37.000Z</time>
      </trkpt>
      <trkpt lat="43.57505" lon="3.89909">
        <ele>7</ele>
        <time>2020-08-02T08:44:38.000Z</time>
      </trkpt>
      <trkpt lat="43.57508" lon="3.89914">
        <ele>7</ele>
        <time>2020-08-02T08:44:39.000Z</time>
      </trkpt>
      <trkpt lat="43.57511" lon="3.89918">
        <ele>7</ele>
        <time>2020-08-02T08:44:40.000Z</time>
      </trkpt>
      <trkpt lat="43.57513" lon="3.89923">
        <ele>7</ele>
        <time>2020-08-02T08:44:41.000Z</time>
      </trkpt>
      <trkpt lat="43.57515" lon="3.89927">
        <ele>7</ele>
        <time>2020-08-02T08:44:42.000Z</time>
      </trkpt>
      <trkpt lat="43.57518" lon="3.89931">
        <ele>7</ele>
        <time>2020-08-02T08:44:43.000Z</time>
      </trkpt>
      <trkpt lat="43.57521" lon="3.89935">
        <ele>7</ele>
        <time>2020-08-02T08:44:44.000Z</time>
      </trkpt>
      <trkpt lat="43.57524" lon="3.89939">
        <ele>7</ele>
        <time>2020-08-02T08:44:45.000Z</time>
      </trkpt>
      <trkpt lat="43.57527" lon="3.89942">
        <ele>7</ele>
        <time>2020-08-02T08:44:46.000Z</time>
      </trkpt>
      <trkpt lat="43.5753" lon="3.89945">
        <ele>7</ele>
        <time>2020-08-02T08:44:47.000Z</time>
      </trkpt>
      <trkpt lat="43.57534" lon="3.89949">
        <ele>7</ele>
        <time>2020-08-02T08:44:48.000Z</time>
      </trkpt>
      <trkpt lat="43.57537" lon="3.89952">
        <ele>7</ele>
        <time>2020-08-02T08:44:49.000Z</time>
      </trkpt>
      <trkpt lat="43.57541" lon="3.89955">
        <ele>7</ele>
        <time>2020-08-02T08:44:50.000Z</time>
      </trkpt>
      <trkpt lat="43.57544" lon="3.89959">
        <ele>6.9566894454854</ele>
        <time>2020-08-02T08:44:51.000Z</time>
      </trkpt>
      <trkpt lat="43.57548" lon="3.89962">
        <ele>6.8604430843679</ele>
        <time>2020-08-02T08:44:52.000Z</time>
      </trkpt>
      <trkpt lat="43.57551" lon="3.89966">
        <ele>6.7641967232503</ele>
        <time>2020-08-02T08:44:53.000Z</time>
      </trkpt>
      <trkpt lat="43.57555" lon="3.8997">
        <ele>6.6679503621327</ele>
        <time>2020-08-02T08:44:54.000Z</time>
      </trkpt>
      <trkpt lat="43.57558" lon="3.89973">
        <ele>6.5717040010151</ele>
        <time>2020-08-02T08:44:55.000Z</time>
      </trkpt>
      <trkpt lat="43.57562" lon="3.89977">
        <ele>6.4754576398975</ele>
        <time>2020-08-02T08:44:56.000Z</time>
      </trkpt>
      <trkpt lat="43.57565" lon="3.89981">
        <ele>6.37921127878</ele>
        <time>2020-08-02T08:44:57.000Z</time>
      </trkpt>
      <trkpt lat="43.57568" lon="3.89986">
        <ele>6.2829649176624</ele>
        <time>2020-08-02T08:44:58.000Z</time>
      </trkpt>
      <trkpt lat="43.57572" lon="3.8999">
        <ele>6.1867185565448</ele>
        <time>2020-08-02T08:44:59.000Z</time>
      </trkpt>
      <trkpt lat="43.57575" lon="3.89994">
        <ele>6.0904721954272</ele>
        <time>2020-08-02T08:45:00.000Z</time>
      </trkpt>
      <trkpt lat="43.57578" lon="3.89998">
        <ele>6.0124856649276</ele>
        <time>2020-08-02T08:45:01.000Z</time>
      </trkpt>
      <trkpt lat="43.57581" lon="3.90003">
        <ele>6.220602279493</ele>
        <time>2020-08-02T08:45:02.000Z</time>
      </trkpt>
      <trkpt lat="43.57585" lon="3.90007">
        <ele>6.4287188940583</ele>
        <time>2020-08-02T08:45:03.000Z</time>
      </trkpt>
      <trkpt lat="43.57587" lon="3.90012">
        <ele>6.6368355086237</ele>
        <time>2020-08-02T08:45:04.000Z</time>
      </trkpt>
      <trkpt lat="43.5759" lon="3.90017">
        <ele>6.8449521231891</ele>
        <time>2020-08-02T08:45:05.000Z</time>
      </trkpt>
      <trkpt lat="43.57593" lon="3.90022">
        <ele>7.0530687377544</ele>
        <time>2020-08-02T08:45:06.000Z</time>
      </trkpt>
      <trkpt lat="43.57595" lon="3.90026">
        <ele>7.2611853523198</ele>
        <time>2020-08-02T08:45:07.000Z</time>
      </trkpt>
      <trkpt lat="43.57597" lon="3.9003">
        <ele>7.4693019668852</ele>
        <time>2020-08-02T08:45:08.000Z</time>
      </trkpt>
      <trkpt lat="43.57598" lon="3.90033">
        <ele>7.6774185814505</ele>
        <time>2020-08-02T08:45:09.000Z</time>
      </trkpt>
      <trkpt lat="43.57599" lon="3.90035">
        <ele>8</ele>
        <time>2020-08-02T08:45:11.000Z</time>
      </trkpt>
      <trkpt lat="43.57599" lon="3.90034">
        <ele>8</ele>
        <time>2020-08-02T08:45:17.000Z</time>
      </trkpt>
      <trkpt lat="43.57601" lon="3.90037">
        <ele>7</ele>
        <time>2020-08-02T08:45:22.000Z</time>
      </trkpt>
      <trkpt lat="43.57603" lon="3.90039">
        <ele>7</ele>
        <time>2020-08-02T08:45:25.000Z</time>
      </trkpt>
      <trkpt lat="43.57604" lon="3.90041">
        <ele>7</ele>
        <time>2020-08-02T08:45:28.000Z</time>
      </trkpt>
      <trkpt lat="43.57605" lon="3.90043">
        <ele>7</ele>
        <time>2020-08-02T08:45:31.000Z</time>
      </trkpt>
      <trkpt lat="43.57606" lon="3.90046">
        <ele>7.2380950011569</ele>
        <time>2020-08-02T08:45:34.000Z</time>
      </trkpt>
      <trkpt lat="43.57608" lon="3.90049">
        <ele>7.5296402813264</ele>
        <time>2020-08-02T08:45:37.000Z</time>
      </trkpt>
      <trkpt lat="43.57609" lon="3.90052">
        <ele>7.821185561496</ele>
        <time>2020-08-02T08:45:40.000Z</time>
      </trkpt>
      <trkpt lat="43.57611" lon="3.90054">
        <ele>8</ele>
        <time>2020-08-02T08:45:43.000Z</time>
      </trkpt>
      <trkpt lat="43.57612" lon="3.90056">
        <ele>8</ele>
        <time>2020-08-02T08:45:46.000Z</time>
      </trkpt>
      <trkpt lat="43.57613" lon="3.90059">
        <ele>8</ele>
        <time>2020-08-02T08:45:49.000Z</time>
      </trkpt>
      <trkpt lat="43.57615" lon="3.9006">
        <ele>8</ele>
        <time>2020-08-02T08:45:52.000Z</time>
      </trkpt>
      <trkpt lat="43.57617" lon="3.90063">
        <ele>8</ele>
        <time>2020-08-02T08:45:56.000Z</time>
      </trkpt>
      <trkpt lat="43.57619" lon="3.90064">
        <ele>8</ele>
        <time>2020-08-02T08:46:00.000Z</time>
      </trkpt>
      <trkpt lat="43.57621" lon="3.90066">
        <ele>8</ele>
        <time>2020-08-02T08:46:03.000Z</time>
      </trkpt>
      <trkpt lat="43.57622" lon="3.90069">
        <ele>8</ele>
        <time>2020-08-02T08:46:07.000Z</time>
      </trkpt>
      <trkpt lat="43.57623" lon="3.90071">
        <ele>8</ele>
        <time>2020-08-02T08:46:09.000Z</time>
      </trkpt>
      <trkpt lat="43.57625" lon="3.90072">
        <ele>8</ele>
        <time>2020-08-02T08:46:11.000Z</time>
      </trkpt>
      <trkpt lat="43.57627" lon="3.90074">
        <ele>8</ele>
        <time>2020-08-02T08:46:15.000Z</time>
      </trkpt>
      <trkpt lat="43.57629" lon="3.90075">
        <ele>8</ele>
        <time>2020-08-02T08:46:18.000Z</time>
      </trkpt>
      <trkpt lat="43.57631" lon="3.90078">
        <ele>8</ele>
        <time>2020-08-02T08:46:20.000Z</time>
      </trkpt>
      <trkpt lat="43.57632" lon="3.9008">
        <ele>8</ele>
        <time>2020-08-02T08:46:21.000Z</time>
      </trkpt>
      <trkpt lat="43.57634" lon="3.90082">
        <ele>8</ele>
        <time>2020-08-02T08:46:22.000Z</time>
      </trkpt>
      <trkpt lat="43.57636" lon="3.90083">
        <ele>8</ele>
        <time>2020-08-02T08:46:23.000Z</time>
      </trkpt>
      <trkpt lat="43.57637" lon="3.90085">
        <ele>8</ele>
        <time>2020-08-02T08:46:24.000Z</time>
      </trkpt>
      <trkpt lat="43.57639" lon="3.90087">
        <ele>8</ele>
        <time>2020-08-02T08:46:25.000Z</time>
      </trkpt>
      <trkpt lat="43.57641" lon="3.90089">
        <ele>8</ele>
        <time>2020-08-02T08:46:26.000Z</time>
      </trkpt>
      <trkpt lat="43.57643" lon="3.90091">
        <ele>8</ele>
        <time>2020-08-02T08:46:27.000Z</time>
      </trkpt>
      <trkpt lat="43.57645" lon="3.90093">
        <ele>8</ele>
        <time>2020-08-02T08:46:28.000Z</time>
      </trkpt>
      <trkpt lat="43.57647" lon="3.90096">
        <ele>8</ele>
        <time>2020-08-02T08:46:29.000Z</time>
      </trkpt>
      <trkpt lat="43.57649" lon="3.90098">
        <ele>8</ele>
        <time>2020-08-02T08:46:30.000Z</time>
      </trkpt>
      <trkpt lat="43.57652" lon="3.901">
        <ele>8</ele>
        <time>2020-08-02T08:46:31.000Z</time>
      </trkpt>
      <trkpt lat="43.57654" lon="3.90103">
        <ele>8</ele>
        <time>2020-08-02T08:46:32.000Z</time>
      </trkpt>
      <trkpt lat="43.57657" lon="3.90105">
        <ele>8</ele>
        <time>2020-08-02T08:46:33.000Z</time>
      </trkpt>
      <trkpt lat="43.5766" lon="3.90108">
        <ele>8</ele>
        <time>2020-08-02T08:46:34.000Z</time>
      </trkpt>
      <trkpt lat="43.57662" lon="3.90112">
        <ele>8</ele>
        <time>2020-08-02T08:46:35.000Z</time>
      </trkpt>
      <trkpt lat="43.57665" lon="3.90115">
        <ele>8</ele>
        <time>2020-08-02T08:46:36.000Z</time>
      </trkpt>
      <trkpt lat="43.57668" lon="3.90119">
        <ele>8</ele>
        <time>2020-08-02T08:46:37.000Z</time>
      </trkpt>
      <trkpt lat="43.57671" lon="3.90122">
        <ele>8</ele>
        <time>2020-08-02T08:46:38.000Z</time>
      </trkpt>
      <trkpt lat="43.57673" lon="3.90126">
        <ele>8</ele>
        <time>2020-08-02T08:46:39.000Z</time>
      </trkpt>
      <trkpt lat="43.57676" lon="3.9013">
        <ele>8</ele>
        <time>2020-08-02T08:46:40.000Z</time>
      </trkpt>
      <trkpt lat="43.57679" lon="3.90134">
        <ele>8</ele>
        <time>2020-08-02T08:46:41.000Z</time>
      </trkpt>
      <trkpt lat="43.57683" lon="3.90138">
        <ele>8</ele>
        <time>2020-08-02T08:46:42.000Z</time>
      </trkpt>
      <trkpt lat="43.57686" lon="3.90142">
        <ele>8</ele>
        <time>2020-08-02T08:46:43.000Z</time>
      </trkpt>
      <trkpt lat="43.5769" lon="3.90146">
        <ele>8</ele>
        <time>2020-08-02T08:46:44.000Z</time>
      </trkpt>
      <trkpt lat="43.57693" lon="3.9015">
        <ele>8</ele>
        <time>2020-08-02T08:46:45.000Z</time>
      </trkpt>
      <trkpt lat="43.57697" lon="3.90154">
        <ele>8</ele>
        <time>2020-08-02T08:46:46.000Z</time>
      </trkpt>
      <trkpt lat="43.577" lon="3.90158">
        <ele>8</ele>
        <time>2020-08-02T08:46:47.000Z</time>
      </trkpt>
      <trkpt lat="43.57704" lon="3.90162">
        <ele>8</ele>
        <time>2020-08-02T08:46:48.000Z</time>
      </trkpt>
      <trkpt lat="43.57707" lon="3.90166">
        <ele>8</ele>
        <time>2020-08-02T08:46:49.000Z</time>
      </trkpt>
      <trkpt lat="43.5771" lon="3.9017">
        <ele>8</ele>
        <time>2020-08-02T08:46:50.000Z</time>
      </trkpt>
      <trkpt lat="43.57714" lon="3.90174">
        <ele>8</ele>
        <time>2020-08-02T08:46:51.000Z</time>
      </trkpt>
      <trkpt lat="43.57717" lon="3.90178">
        <ele>8.0449547396459</ele>
        <time>2020-08-02T08:46:52.000Z</time>
      </trkpt>
      <trkpt lat="43.57721" lon="3.90182">
        <ele>8.1448548714821</ele>
        <time>2020-08-02T08:46:53.000Z</time>
      </trkpt>
      <trkpt lat="43.57724" lon="3.90186">
        <ele>8.2447550033183</ele>
        <time>2020-08-02T08:46:54.000Z</time>
      </trkpt>
      <trkpt lat="43.57727" lon="3.9019">
        <ele>8.3446551351545</ele>
        <time>2020-08-02T08:46:55.000Z</time>
      </trkpt>
      <trkpt lat="43.57731" lon="3.90193">
        <ele>8.4445552669907</ele>
        <time>2020-08-02T08:46:56.000Z</time>
      </trkpt>
      <trkpt lat="43.57734" lon="3.90197">
        <ele>8.5444553988269</ele>
        <time>2020-08-02T08:46:57.000Z</time>
      </trkpt>
      <trkpt lat="43.57737" lon="3.90201">
        <ele>8.6443555306631</ele>
        <time>2020-08-02T08:46:58.000Z</time>
      </trkpt>
      <trkpt lat="43.5774" lon="3.90204">
        <ele>8.7442556624993</ele>
        <time>2020-08-02T08:46:59.000Z</time>
      </trkpt>
      <trkpt lat="43.57744" lon="3.90208">
        <ele>8.8441557943355</ele>
        <time>2020-08-02T08:47:00.000Z</time>
      </trkpt>
      <trkpt lat="43.57747" lon="3.90212">
        <ele>8.9440559261717</ele>
        <time>2020-08-02T08:47:01.000Z</time>
      </trkpt>
      <trkpt lat="43.5775" lon="3.90215">
        <ele>9</ele>
        <time>2020-08-02T08:47:02.000Z</time>
      </trkpt>
      <trkpt lat="43.57753" lon="3.90219">
        <ele>9</ele>
        <time>2020-08-02T08:47:03.000Z</time>
      </trkpt>
      <trkpt lat="43.57756" lon="3.90223">
        <ele>9</ele>
        <time>2020-08-02T08:47:04.000Z</time>
      </trkpt>
      <trkpt lat="43.57759" lon="3.90226">
        <ele>9</ele>
        <time>2020-08-02T08:47:05.000Z</time>
      </trkpt>
      <trkpt lat="43.57763" lon="3.9023">
        <ele>9</ele>
        <time>2020-08-02T08:47:06.000Z</time>
      </trkpt>
      <trkpt lat="43.57766" lon="3.90234">
        <ele>9</ele>
        <time>2020-08-02T08:47:07.000Z</time>
      </trkpt>
      <trkpt lat="43.5777" lon="3.90238">
        <ele>9</ele>
        <time>2020-08-02T08:47:08.000Z</time>
      </trkpt>
      <trkpt lat="43.57773" lon="3.90242">
        <ele>9</ele>
        <time>2020-08-02T08:47:09.000Z</time>
      </trkpt>
      <trkpt lat="43.57776" lon="3.90246">
        <ele>9</ele>
        <time>2020-08-02T08:47:10.000Z</time>
      </trkpt>
      <trkpt lat="43.5778" lon="3.9025">
        <ele>9</ele>
        <time>2020-08-02T08:47:11.000Z</time>
      </trkpt>
      <trkpt lat="43.57783" lon="3.90254">
        <ele>9</ele>
        <time>2020-08-02T08:47:12.000Z</time>
      </trkpt>
      <trkpt lat="43.57786" lon="3.90258">
        <ele>9</ele>
        <time>2020-08-02T08:47:13.000Z</time>
      </trkpt>
      <trkpt lat="43.57789" lon="3.90262">
        <ele>9</ele>
        <time>2020-08-02T08:47:14.000Z</time>
      </trkpt>
      <trkpt lat="43.57793" lon="3.90265">
        <ele>9</ele>
        <time>2020-08-02T08:47:15.000Z</time>
      </trkpt>
      <trkpt lat="43.57796" lon="3.90269">
        <ele>9</ele>
        <time>2020-08-02T08:47:16.000Z</time>
      </trkpt>
      <trkpt lat="43.578" lon="3.90273">
        <ele>9</ele>
        <time>2020-08-02T08:47:17.000Z</time>
      </trkpt>
      <trkpt lat="43.57803" lon="3.90277">
        <ele>9</ele>
        <time>2020-08-02T08:47:18.000Z</time>
      </trkpt>
      <trkpt lat="43.57806" lon="3.90281">
        <ele>9</ele>
        <time>2020-08-02T08:47:19.000Z</time>
      </trkpt>
      <trkpt lat="43.5781" lon="3.90285">
        <ele>9</ele>
        <time>2020-08-02T08:47:20.000Z</time>
      </trkpt>
      <trkpt lat="43.57813" lon="3.90289">
        <ele>9</ele>
        <time>2020-08-02T08:47:21.000Z</time>
      </trkpt>
      <trkpt lat="43.57816" lon="3.90293">
        <ele>9</ele>
        <time>2020-08-02T08:47:22.000Z</time>
      </trkpt>
      <trkpt lat="43.57819" lon="3.90296">
        <ele>9</ele>
        <time>2020-08-02T08:47:23.000Z</time>
      </trkpt>
      <trkpt lat="43.57823" lon="3.903">
        <ele>9</ele>
        <time>2020-08-02T08:47:24.000Z</time>
      </trkpt>
      <trkpt lat="43.57826" lon="3.90304">
        <ele>9</ele>
        <time>2020-08-02T08:47:25.000Z</time>
      </trkpt>
      <trkpt lat="43.57829" lon="3.90308">
        <ele>9</ele>
        <time>2020-08-02T08:47:26.000Z</time>
      </trkpt>
      <trkpt lat="43.57832" lon="3.90311">
        <ele>9</ele>
        <time>2020-08-02T08:47:27.000Z</time>
      </trkpt>
      <trkpt lat="43.57836" lon="3.90315">
        <ele>9</ele>
        <time>2020-08-02T08:47:28.000Z</time>
      </trkpt>
      <trkpt lat="43.57839" lon="3.90319">
        <ele>9</ele>
        <time>2020-08-02T08:47:29.000Z</time>
      </trkpt>
      <trkpt lat="43.57842" lon="3.90323">
        <ele>9</ele>
        <time>2020-08-02T08:47:30.000Z</time>
      </trkpt>
      <trkpt lat="43.57845" lon="3.90327">
        <ele>9</ele>
        <time>2020-08-02T08:47:31.000Z</time>
      </trkpt>
      <trkpt lat="43.57849" lon="3.90331">
        <ele>8.9550452603541</ele>
        <time>2020-08-02T08:47:32.000Z</time>
      </trkpt>
      <trkpt lat="43.57852" lon="3.90335">
        <ele>8.8551451285179</ele>
        <time>2020-08-02T08:47:33.000Z</time>
      </trkpt>
      <trkpt lat="43.57856" lon="3.90339">
        <ele>8.7552449966817</ele>
        <time>2020-08-02T08:47:34.000Z</time>
      </trkpt>
      <trkpt lat="43.57859" lon="3.90343">
        <ele>8.6553448648455</ele>
        <time>2020-08-02T08:47:35.000Z</time>
      </trkpt>
      <trkpt lat="43.57863" lon="3.90347">
        <ele>8.5554447330093</ele>
        <time>2020-08-02T08:47:36.000Z</time>
      </trkpt>
      <trkpt lat="43.57867" lon="3.90351">
        <ele>8.4555446011731</ele>
        <time>2020-08-02T08:47:37.000Z</time>
      </trkpt>
      <trkpt lat="43.57871" lon="3.90355">
        <ele>8.3556444693369</ele>
        <time>2020-08-02T08:47:38.000Z</time>
      </trkpt>
      <trkpt lat="43.57875" lon="3.9036">
        <ele>8.2557443375007</ele>
        <time>2020-08-02T08:47:39.000Z</time>
      </trkpt>
      <trkpt lat="43.57878" lon="3.90365">
        <ele>8.1558442056645</ele>
        <time>2020-08-02T08:47:40.000Z</time>
      </trkpt>
      <trkpt lat="43.57882" lon="3.90369">
        <ele>8.0559440738283</ele>
        <time>2020-08-02T08:47:41.000Z</time>
      </trkpt>
      <trkpt lat="43.57886" lon="3.90374">
        <ele>8</ele>
        <time>2020-08-02T08:47:42.000Z</time>
      </trkpt>
      <trkpt lat="43.5789" lon="3.90379">
        <ele>8</ele>
        <time>2020-08-02T08:47:43.000Z</time>
      </trkpt>
      <trkpt lat="43.57894" lon="3.90384">
        <ele>8</ele>
        <time>2020-08-02T08:47:44.000Z</time>
      </trkpt>
      <trkpt lat="43.57897" lon="3.90389">
        <ele>8</ele>
        <time>2020-08-02T08:47:45.000Z</time>
      </trkpt>
      <trkpt lat="43.57901" lon="3.90395">
        <ele>8</ele>
        <time>2020-08-02T08:47:46.000Z</time>
      </trkpt>
      <trkpt lat="43.57904" lon="3.90401">
        <ele>8</ele>
        <time>2020-08-02T08:47:47.000Z</time>
      </trkpt>
      <trkpt lat="43.57907" lon="3.90407">
        <ele>8</ele>
        <time>2020-08-02T08:47:48.000Z</time>
      </trkpt>
      <trkpt lat="43.57911" lon="3.90413">
        <ele>8</ele>
        <time>2020-08-02T08:47:49.000Z</time>
      </trkpt>
      <trkpt lat="43.57913" lon="3.9042">
        <ele>8</ele>
        <time>2020-08-02T08:47:50.000Z</time>
      </trkpt>
      <trkpt lat="43.57916" lon="3.90426">
        <ele>8</ele>
        <time>2020-08-02T08:47:51.000Z</time>
      </trkpt>
      <trkpt lat="43.57919" lon="3.90433">
        <ele>8.04499968</ele>
        <time>2020-08-02T08:47:52.000Z</time>
      </trkpt>
      <trkpt lat="43.57921" lon="3.9044">
        <ele>8.14499968</ele>
        <time>2020-08-02T08:47:53.000Z</time>
      </trkpt>
      <trkpt lat="43.57924" lon="3.90447">
        <ele>8.24499968</ele>
        <time>2020-08-02T08:47:54.000Z</time>
      </trkpt>
      <trkpt lat="43.57926" lon="3.90454">
        <ele>8.34499968</ele>
        <time>2020-08-02T08:47:55.000Z</time>
      </trkpt>
      <trkpt lat="43.57929" lon="3.90461">
        <ele>8.44499968</ele>
        <time>2020-08-02T08:47:56.000Z</time>
      </trkpt>
      <trkpt lat="43.57931" lon="3.90468">
        <ele>8.54499968</ele>
        <time>2020-08-02T08:47:57.000Z</time>
      </trkpt>
      <trkpt lat="43.57934" lon="3.90475">
        <ele>8.64499968</ele>
        <time>2020-08-02T08:47:58.000Z</time>
      </trkpt>
      <trkpt lat="43.57937" lon="3.90481">
        <ele>8.74499968</ele>
        <time>2020-08-02T08:47:59.000Z</time>
      </trkpt>
      <trkpt lat="43.57939" lon="3.90488">
        <ele>8.84499968</ele>
        <time>2020-08-02T08:48:00.000Z</time>
      </trkpt>
      <trkpt lat="43.57942" lon="3.90494">
        <ele>8.94499968</ele>
        <time>2020-08-02T08:48:01.000Z</time>
      </trkpt>
      <trkpt lat="43.57945" lon="3.90501">
        <ele>9</ele>
        <time>2020-08-02T08:48:02.000Z</time>
      </trkpt>
      <trkpt lat="43.57948" lon="3.90507">
        <ele>9</ele>
        <time>2020-08-02T08:48:03.000Z</time>
      </trkpt>
      <trkpt lat="43.5795" lon="3.90513">
        <ele>9</ele>
        <time>2020-08-02T08:48:04.000Z</time>
      </trkpt>
      <trkpt lat="43.57953" lon="3.90519">
        <ele>9</ele>
        <time>2020-08-02T08:48:05.000Z</time>
      </trkpt>
      <trkpt lat="43.57956" lon="3.90526">
        <ele>9</ele>
        <time>2020-08-02T08:48:06.000Z</time>
      </trkpt>
      <trkpt lat="43.57959" lon="3.90532">
        <ele>9</ele>
        <time>2020-08-02T08:48:07.000Z</time>
      </trkpt>
      <trkpt lat="43.57962" lon="3.90538">
        <ele>9</ele>
        <time>2020-08-02T08:48:08.000Z</time>
      </trkpt>
      <trkpt lat="43.57965" lon="3.90544">
        <ele>9</ele>
        <time>2020-08-02T08:48:09.000Z</time>
      </trkpt>
      <trkpt lat="43.57968" lon="3.90551">
        <ele>9</ele>
        <time>2020-08-02T08:48:10.000Z</time>
      </trkpt>
      <trkpt lat="43.57971" lon="3.90557">
        <ele>9</ele>
        <time>2020-08-02T08:48:11.000Z</time>
      </trkpt>
      <trkpt lat="43.57974" lon="3.90563">
        <ele>9.04499968</ele>
        <time>2020-08-02T08:48:12.000Z</time>
      </trkpt>
      <trkpt lat="43.57977" lon="3.90569">
        <ele>9.14499968</ele>
        <time>2020-08-02T08:48:13.000Z</time>
      </trkpt>
      <trkpt lat="43.57979" lon="3.90576">
        <ele>9.24499968</ele>
        <time>2020-08-02T08:48:14.000Z</time>
      </trkpt>
      <trkpt lat="43.57982" lon="3.90582">
        <ele>9.34499968</ele>
        <time>2020-08-02T08:48:15.000Z</time>
      </trkpt>
      <trkpt lat="43.57985" lon="3.90588">
        <ele>9.44499968</ele>
        <time>2020-08-02T08:48:16.000Z</time>
      </trkpt>
      <trkpt lat="43.57988" lon="3.90594">
        <ele>9.54499968</ele>
        <time>2020-08-02T08:48:17.000Z</time>
      </trkpt>
      <trkpt lat="43.57991" lon="3.906">
        <ele>9.64499968</ele>
        <time>2020-08-02T08:48:18.000Z</time>
      </trkpt>
      <trkpt lat="43.57994" lon="3.90606">
        <ele>9.74499968</ele>
        <time>2020-08-02T08:48:19.000Z</time>
      </trkpt>
      <trkpt lat="43.57997" lon="3.90612">
        <ele>9.84499968</ele>
        <time>2020-08-02T08:48:20.000Z</time>
      </trkpt>
      <trkpt lat="43.58" lon="3.90618">
        <ele>9.94499968</ele>
        <time>2020-08-02T08:48:21.000Z</time>
      </trkpt>
      <trkpt lat="43.58003" lon="3.90623">
        <ele>10</ele>
        <time>2020-08-02T08:48:22.000Z</time>
      </trkpt>
      <trkpt lat="43.58006" lon="3.90629">
        <ele>10</ele>
        <time>2020-08-02T08:48:23.000Z</time>
      </trkpt>
      <trkpt lat="43.58009" lon="3.90635">
        <ele>10</ele>
        <time>2020-08-02T08:48:24.000Z</time>
      </trkpt>
      <trkpt lat="43.58011" lon="3.9064">
        <ele>10</ele>
        <time>2020-08-02T08:48:25.000Z</time>
      </trkpt>
      <trkpt lat="43.58014" lon="3.90646">
        <ele>10</ele>
        <time>2020-08-02T08:48:26.000Z</time>
      </trkpt>
      <trkpt lat="43.58017" lon="3.90652">
        <ele>10</ele>
        <time>2020-08-02T08:48:27.000Z</time>
      </trkpt>
      <trkpt lat="43.5802" lon="3.90657">
        <ele>10</ele>
        <time>2020-08-02T08:48:28.000Z</time>
      </trkpt>
      <trkpt lat="43.58024" lon="3.90663">
        <ele>10</ele>
        <time>2020-08-02T08:48:29.000Z</time>
      </trkpt>
      <trkpt lat="43.58027" lon="3.90669">
        <ele>10</ele>
        <time>2020-08-02T08:48:30.000Z</time>
      </trkpt>
      <trkpt lat="43.58031" lon="3.90675">
        <ele>10</ele>
        <time>2020-08-02T08:48:31.000Z</time>
      </trkpt>
      <trkpt lat="43.58034" lon="3.90681">
        <ele>10</ele>
        <time>2020-08-02T08:48:32.000Z</time>
      </trkpt>
      <trkpt lat="43.58037" lon="3.90687">
        <ele>10</ele>
        <time>2020-08-02T08:48:33.000Z</time>
      </trkpt>
      <trkpt lat="43.58041" lon="3.90693">
        <ele>10</ele>
        <time>2020-08-02T08:48:34.000Z</time>
      </trkpt>
      <trkpt lat="43.58044" lon="3.90699">
        <ele>10</ele>
        <time>2020-08-02T08:48:35.000Z</time>
      </trkpt>
      <trkpt lat="43.58048" lon="3.90705">
        <ele>10</ele>
        <time>2020-08-02T08:48:36.000Z</time>
      </trkpt>
      <trkpt lat="43.58051" lon="3.90711">
        <ele>10</ele>
        <time>2020-08-02T08:48:37.000Z</time>
      </trkpt>
      <trkpt lat="43.58054" lon="3.90717">
        <ele>10</ele>
        <time>2020-08-02T08:48:38.000Z</time>
      </trkpt>
      <trkpt lat="43.58058" lon="3.90723">
        <ele>10</ele>
        <time>2020-08-02T08:48:39.000Z</time>
      </trkpt>
      <trkpt lat="43.58061" lon="3.90729">
        <ele>10</ele>
        <time>2020-08-02T08:48:40.000Z</time>
      </trkpt>
      <trkpt lat="43.58065" lon="3.90735">
        <ele>10</ele>
        <time>2020-08-02T08:48:41.000Z</time>
      </trkpt>
      <trkpt lat="43.58068" lon="3.9074">
        <ele>10</ele>
        <time>2020-08-02T08:48:42.000Z</time>
      </trkpt>
      <trkpt lat="43.58072" lon="3.90745">
        <ele>10</ele>
        <time>2020-08-02T08:48:43.000Z</time>
      </trkpt>
      <trkpt lat="43.58077" lon="3.90749">
        <ele>10</ele>
        <time>2020-08-02T08:48:44.000Z</time>
      </trkpt>
      <trkpt lat="43.58081" lon="3.90753">
        <ele>10</ele>
        <time>2020-08-02T08:48:45.000Z</time>
      </trkpt>
      <trkpt lat="43.58086" lon="3.90757">
        <ele>10</ele>
        <time>2020-08-02T08:48:46.000Z</time>
      </trkpt>
      <trkpt lat="43.58091" lon="3.90761">
        <ele>10</ele>
        <time>2020-08-02T08:48:47.000Z</time>
      </trkpt>
      <trkpt lat="43.58095" lon="3.90764">
        <ele>10</ele>
        <time>2020-08-02T08:48:48.000Z</time>
      </trkpt>
      <trkpt lat="43.581" lon="3.90767">
        <ele>10</ele>
        <time>2020-08-02T08:48:49.000Z</time>
      </trkpt>
      <trkpt lat="43.58105" lon="3.90769">
        <ele>10</ele>
        <time>2020-08-02T08:48:50.000Z</time>
      </trkpt>
      <trkpt lat="43.5811" lon="3.90772">
        <ele>10</ele>
        <time>2020-08-02T08:48:51.000Z</time>
      </trkpt>
      <trkpt lat="43.58115" lon="3.90774">
        <ele>10</ele>
        <time>2020-08-02T08:48:52.000Z</time>
      </trkpt>
      <trkpt lat="43.58121" lon="3.90777">
        <ele>10</ele>
        <time>2020-08-02T08:48:53.000Z</time>
      </trkpt>
      <trkpt lat="43.58126" lon="3.90779">
        <ele>10</ele>
        <time>2020-08-02T08:48:54.000Z</time>
      </trkpt>
      <trkpt lat="43.5813" lon="3.9078">
        <ele>10</ele>
        <time>2020-08-02T08:48:55.000Z</time>
      </trkpt>
      <trkpt lat="43.58135" lon="3.90782">
        <ele>10</ele>
        <time>2020-08-02T08:48:56.000Z</time>
      </trkpt>
      <trkpt lat="43.5814" lon="3.90784">
        <ele>10</ele>
        <time>2020-08-02T08:48:57.000Z</time>
      </trkpt>
      <trkpt lat="43.58145" lon="3.90785">
        <ele>10</ele>
        <time>2020-08-02T08:48:58.000Z</time>
      </trkpt>
      <trkpt lat="43.5815" lon="3.90786">
        <ele>10</ele>
        <time>2020-08-02T08:48:59.000Z</time>
      </trkpt>
      <trkpt lat="43.58156" lon="3.90787">
        <ele>10</ele>
        <time>2020-08-02T08:49:00.000Z</time>
      </trkpt>
      <trkpt lat="43.58161" lon="3.90787">
        <ele>10</ele>
        <time>2020-08-02T08:49:01.000Z</time>
      </trkpt>
      <trkpt lat="43.58166" lon="3.90788">
        <ele>9.9557525131178</ele>
        <time>2020-08-02T08:49:02.000Z</time>
      </trkpt>
      <trkpt lat="43.58171" lon="3.90788">
        <ele>9.8574240652662</ele>
        <time>2020-08-02T08:49:03.000Z</time>
      </trkpt>
      <trkpt lat="43.58177" lon="3.90789">
        <ele>9.7590956174146</ele>
        <time>2020-08-02T08:49:04.000Z</time>
      </trkpt>
      <trkpt lat="43.58182" lon="3.90789">
        <ele>9.6607671695629</ele>
        <time>2020-08-02T08:49:05.000Z</time>
      </trkpt>
      <trkpt lat="43.58187" lon="3.9079">
        <ele>9.5624387217113</ele>
        <time>2020-08-02T08:49:06.000Z</time>
      </trkpt>
      <trkpt lat="43.58192" lon="3.9079">
        <ele>9.4641102738597</ele>
        <time>2020-08-02T08:49:07.000Z</time>
      </trkpt>
      <trkpt lat="43.58197" lon="3.9079">
        <ele>9.365781826008</ele>
        <time>2020-08-02T08:49:08.000Z</time>
      </trkpt>
      <trkpt lat="43.58202" lon="3.9079">
        <ele>9.2674533781564</ele>
        <time>2020-08-02T08:49:09.000Z</time>
      </trkpt>
      <trkpt lat="43.58207" lon="3.90791">
        <ele>9.1691249303048</ele>
        <time>2020-08-02T08:49:10.000Z</time>
      </trkpt>
      <trkpt lat="43.58212" lon="3.90791">
        <ele>9.0707964824532</ele>
        <time>2020-08-02T08:49:11.000Z</time>
      </trkpt>
      <trkpt lat="43.58217" lon="3.90791">
        <ele>8.9715157773296</ele>
        <time>2020-08-02T08:49:12.000Z</time>
      </trkpt>
      <trkpt lat="43.58222" lon="3.90792">
        <ele>8.8697864106494</ele>
        <time>2020-08-02T08:49:13.000Z</time>
      </trkpt>
      <trkpt lat="43.58227" lon="3.90792">
        <ele>8.7680570439692</ele>
        <time>2020-08-02T08:49:14.000Z</time>
      </trkpt>
      <trkpt lat="43.58232" lon="3.90792">
        <ele>8.6663276772891</ele>
        <time>2020-08-02T08:49:15.000Z</time>
      </trkpt>
      <trkpt lat="43.58237" lon="3.90792">
        <ele>8.5645983106089</ele>
        <time>2020-08-02T08:49:16.000Z</time>
      </trkpt>
      <trkpt lat="43.58242" lon="3.90792">
        <ele>8.4628689439287</ele>
        <time>2020-08-02T08:49:17.000Z</time>
      </trkpt>
      <trkpt lat="43.58247" lon="3.90793">
        <ele>8.3611395772486</ele>
        <time>2020-08-02T08:49:18.000Z</time>
      </trkpt>
      <trkpt lat="43.58252" lon="3.90793">
        <ele>8.2594102105684</ele>
        <time>2020-08-02T08:49:19.000Z</time>
      </trkpt>
      <trkpt lat="43.58258" lon="3.90794">
        <ele>8.1576808438882</ele>
        <time>2020-08-02T08:49:20.000Z</time>
      </trkpt>
      <trkpt lat="43.58263" lon="3.90794">
        <ele>8.0559514772081</ele>
        <time>2020-08-02T08:49:21.000Z</time>
      </trkpt>
      <trkpt lat="43.58268" lon="3.90794">
        <ele>8</ele>
        <time>2020-08-02T08:49:22.000Z</time>
      </trkpt>
      <trkpt lat="43.58274" lon="3.90795">
        <ele>8</ele>
        <time>2020-08-02T08:49:23.000Z</time>
      </trkpt>
      <trkpt lat="43.58279" lon="3.90795">
        <ele>8</ele>
        <time>2020-08-02T08:49:24.000Z</time>
      </trkpt>
      <trkpt lat="43.58284" lon="3.90796">
        <ele>8</ele>
        <time>2020-08-02T08:49:25.000Z</time>
      </trkpt>
      <trkpt lat="43.5829" lon="3.90796">
        <ele>8</ele>
        <time>2020-08-02T08:49:26.000Z</time>
      </trkpt>
      <trkpt lat="43.58296" lon="3.90797">
        <ele>8</ele>
        <time>2020-08-02T08:49:27.000Z</time>
      </trkpt>
      <trkpt lat="43.58301" lon="3.90797">
        <ele>8</ele>
        <time>2020-08-02T08:49:28.000Z</time>
      </trkpt>
      <trkpt lat="43.58307" lon="3.90798">
        <ele>8</ele>
        <time>2020-08-02T08:49:29.000Z</time>
      </trkpt>
      <trkpt lat="43.58312" lon="3.90799">
        <ele>8</ele>
        <time>2020-08-02T08:49:30.000Z</time>
      </trkpt>
      <trkpt lat="43.58317" lon="3.90799">
        <ele>8</ele>
        <time>2020-08-02T08:49:31.000Z</time>
      </trkpt>
      <trkpt lat="43.58322" lon="3.90799">
        <ele>8.0382684826407</ele>
        <time>2020-08-02T08:49:32.000Z</time>
      </trkpt>
      <trkpt lat="43.58327" lon="3.908">
        <ele>8.1389733198244</ele>
        <time>2020-08-02T08:49:33.000Z</time>
      </trkpt>
      <trkpt lat="43.58332" lon="3.908">
        <ele>8.239678157008</ele>
        <time>2020-08-02T08:49:34.000Z</time>
      </trkpt>
      <trkpt lat="43.58337" lon="3.90801">
        <ele>8.3403829941917</ele>
        <time>2020-08-02T08:49:35.000Z</time>
      </trkpt>
      <trkpt lat="43.58341" lon="3.90801">
        <ele>8.4410878313753</ele>
        <time>2020-08-02T08:49:36.000Z</time>
      </trkpt>
      <trkpt lat="43.58346" lon="3.90801">
        <ele>8.5417926685589</ele>
        <time>2020-08-02T08:49:37.000Z</time>
      </trkpt>
      <trkpt lat="43.58351" lon="3.90801">
        <ele>8.6424975057426</ele>
        <time>2020-08-02T08:49:38.000Z</time>
      </trkpt>
      <trkpt lat="43.58356" lon="3.90801">
        <ele>8.7432023429262</ele>
        <time>2020-08-02T08:49:39.000Z</time>
      </trkpt>
      <trkpt lat="43.58361" lon="3.90801">
        <ele>8.8439071801099</ele>
        <time>2020-08-02T08:49:40.000Z</time>
      </trkpt>
      <trkpt lat="43.58366" lon="3.90801">
        <ele>8.9446120172935</ele>
        <time>2020-08-02T08:49:41.000Z</time>
      </trkpt>
      <trkpt lat="43.58371" lon="3.908">
        <ele>8.95500032</ele>
        <time>2020-08-02T08:49:42.000Z</time>
      </trkpt>
      <trkpt lat="43.58376" lon="3.908">
        <ele>8.85500032</ele>
        <time>2020-08-02T08:49:43.000Z</time>
      </trkpt>
      <trkpt lat="43.5838" lon="3.90799">
        <ele>8.75500032</ele>
        <time>2020-08-02T08:49:44.000Z</time>
      </trkpt>
      <trkpt lat="43.58385" lon="3.90798">
        <ele>8.65500032</ele>
        <time>2020-08-02T08:49:45.000Z</time>
      </trkpt>
      <trkpt lat="43.5839" lon="3.90797">
        <ele>8.55500032</ele>
        <time>2020-08-02T08:49:46.000Z</time>
      </trkpt>
      <trkpt lat="43.58395" lon="3.90796">
        <ele>8.45500032</ele>
        <time>2020-08-02T08:49:47.000Z</time>
      </trkpt>
      <trkpt lat="43.584" lon="3.90795">
        <ele>8.35500032</ele>
        <time>2020-08-02T08:49:48.000Z</time>
      </trkpt>
      <trkpt lat="43.58405" lon="3.90794">
        <ele>8.25500032</ele>
        <time>2020-08-02T08:49:49.000Z</time>
      </trkpt>
      <trkpt lat="43.5841" lon="3.90793">
        <ele>8.15500032</ele>
        <time>2020-08-02T08:49:50.000Z</time>
      </trkpt>
      <trkpt lat="43.58415" lon="3.90791">
        <ele>8.05500032</ele>
        <time>2020-08-02T08:49:51.000Z</time>
      </trkpt>
      <trkpt lat="43.58419" lon="3.9079">
        <ele>8.04499968</ele>
        <time>2020-08-02T08:49:52.000Z</time>
      </trkpt>
      <trkpt lat="43.58424" lon="3.90788">
        <ele>8.14499968</ele>
        <time>2020-08-02T08:49:53.000Z</time>
      </trkpt>
      <trkpt lat="43.58429" lon="3.90786">
        <ele>8.24499968</ele>
        <time>2020-08-02T08:49:54.000Z</time>
      </trkpt>
      <trkpt lat="43.58434" lon="3.90785">
        <ele>8.34499968</ele>
        <time>2020-08-02T08:49:55.000Z</time>
      </trkpt>
      <trkpt lat="43.58439" lon="3.90783">
        <ele>8.44499968</ele>
        <time>2020-08-02T08:49:56.000Z</time>
      </trkpt>
      <trkpt lat="43.58444" lon="3.90781">
        <ele>8.54499968</ele>
        <time>2020-08-02T08:49:57.000Z</time>
      </trkpt>
      <trkpt lat="43.58449" lon="3.90779">
        <ele>8.64499968</ele>
        <time>2020-08-02T08:49:58.000Z</time>
      </trkpt>
      <trkpt lat="43.58454" lon="3.90777">
        <ele>8.74499968</ele>
        <time>2020-08-02T08:49:59.000Z</time>
      </trkpt>
      <trkpt lat="43.58458" lon="3.90774">
        <ele>8.84499968</ele>
        <time>2020-08-02T08:50:00.000Z</time>
      </trkpt>
      <trkpt lat="43.58463" lon="3.90772">
        <ele>8.94499968</ele>
        <time>2020-08-02T08:50:01.000Z</time>
      </trkpt>
      <trkpt lat="43.58468" lon="3.90769">
        <ele>9</ele>
        <time>2020-08-02T08:50:02.000Z</time>
      </trkpt>
      <trkpt lat="43.58473" lon="3.90765">
        <ele>9</ele>
        <time>2020-08-02T08:50:03.000Z</time>
      </trkpt>
      <trkpt lat="43.58478" lon="3.90762">
        <ele>9</ele>
        <time>2020-08-02T08:50:04.000Z</time>
      </trkpt>
      <trkpt lat="43.58483" lon="3.90759">
        <ele>9</ele>
        <time>2020-08-02T08:50:05.000Z</time>
      </trkpt>
      <trkpt lat="43.58488" lon="3.90757">
        <ele>9</ele>
        <time>2020-08-02T08:50:06.000Z</time>
      </trkpt>
      <trkpt lat="43.58493" lon="3.90754">
        <ele>9</ele>
        <time>2020-08-02T08:50:07.000Z</time>
      </trkpt>
      <trkpt lat="43.58498" lon="3.90752">
        <ele>9</ele>
        <time>2020-08-02T08:50:08.000Z</time>
      </trkpt>
      <trkpt lat="43.58503" lon="3.9075">
        <ele>9</ele>
        <time>2020-08-02T08:50:09.000Z</time>
      </trkpt>
      <trkpt lat="43.58507" lon="3.90748">
        <ele>9</ele>
        <time>2020-08-02T08:50:10.000Z</time>
      </trkpt>
      <trkpt lat="43.58512" lon="3.90746">
        <ele>9</ele>
        <time>2020-08-02T08:50:11.000Z</time>
      </trkpt>
      <trkpt lat="43.58516" lon="3.90745">
        <ele>9</ele>
        <time>2020-08-02T08:50:12.000Z</time>
      </trkpt>
      <trkpt lat="43.58521" lon="3.90743">
        <ele>9</ele>
        <time>2020-08-02T08:50:13.000Z</time>
      </trkpt>
      <trkpt lat="43.58526" lon="3.90742">
        <ele>9</ele>
        <time>2020-08-02T08:50:14.000Z</time>
      </trkpt>
      <trkpt lat="43.58531" lon="3.9074">
        <ele>9</ele>
        <time>2020-08-02T08:50:15.000Z</time>
      </trkpt>
      <trkpt lat="43.58536" lon="3.90739">
        <ele>9</ele>
        <time>2020-08-02T08:50:16.000Z</time>
      </trkpt>
      <trkpt lat="43.5854" lon="3.90737">
        <ele>9</ele>
        <time>2020-08-02T08:50:17.000Z</time>
      </trkpt>
      <trkpt lat="43.58545" lon="3.90736">
        <ele>9</ele>
        <time>2020-08-02T08:50:18.000Z</time>
      </trkpt>
      <trkpt lat="43.5855" lon="3.90735">
        <ele>9</ele>
        <time>2020-08-02T08:50:19.000Z</time>
      </trkpt>
      <trkpt lat="43.58554" lon="3.90733">
        <ele>9</ele>
        <time>2020-08-02T08:50:20.000Z</time>
      </trkpt>
      <trkpt lat="43.58559" lon="3.90732">
        <ele>9</ele>
        <time>2020-08-02T08:50:21.000Z</time>
      </trkpt>
      <trkpt lat="43.58563" lon="3.9073">
        <ele>9</ele>
        <time>2020-08-02T08:50:22.000Z</time>
      </trkpt>
      <trkpt lat="43.58568" lon="3.90729">
        <ele>9</ele>
        <time>2020-08-02T08:50:23.000Z</time>
      </trkpt>
      <trkpt lat="43.58572" lon="3.90729">
        <ele>9</ele>
        <time>2020-08-02T08:50:24.000Z</time>
      </trkpt>
      <trkpt lat="43.58577" lon="3.90728">
        <ele>9</ele>
        <time>2020-08-02T08:50:25.000Z</time>
      </trkpt>
      <trkpt lat="43.58581" lon="3.90727">
        <ele>9</ele>
        <time>2020-08-02T08:50:26.000Z</time>
      </trkpt>
      <trkpt lat="43.58585" lon="3.90726">
        <ele>9</ele>
        <time>2020-08-02T08:50:27.000Z</time>
      </trkpt>
      <trkpt lat="43.58589" lon="3.90726">
        <ele>9</ele>
        <time>2020-08-02T08:50:28.000Z</time>
      </trkpt>
      <trkpt lat="43.58594" lon="3.90726">
        <ele>9</ele>
        <time>2020-08-02T08:50:29.000Z</time>
      </trkpt>
      <trkpt lat="43.58598" lon="3.90726">
        <ele>9</ele>
        <time>2020-08-02T08:50:30.000Z</time>
      </trkpt>
      <trkpt lat="43.58603" lon="3.90726">
        <ele>9</ele>
        <time>2020-08-02T08:50:31.000Z</time>
      </trkpt>
      <trkpt lat="43.58607" lon="3.90726">
        <ele>9.08999936</ele>
        <time>2020-08-02T08:50:32.000Z</time>
      </trkpt>
      <trkpt lat="43.58612" lon="3.90727">
        <ele>9.28999936</ele>
        <time>2020-08-02T08:50:33.000Z</time>
      </trkpt>
      <trkpt lat="43.58616" lon="3.90728">
        <ele>9.48999936</ele>
        <time>2020-08-02T08:50:34.000Z</time>
      </trkpt>
      <trkpt lat="43.5862" lon="3.9073">
        <ele>9.68999936</ele>
        <time>2020-08-02T08:50:35.000Z</time>
      </trkpt>
      <trkpt lat="43.58624" lon="3.90731">
        <ele>9.88999936</ele>
        <time>2020-08-02T08:50:36.000Z</time>
      </trkpt>
      <trkpt lat="43.58627" lon="3.90733">
        <ele>10.08999936</ele>
        <time>2020-08-02T08:50:37.000Z</time>
      </trkpt>
      <trkpt lat="43.58629" lon="3.90735">
        <ele>10.28999936</ele>
        <time>2020-08-02T08:50:38.000Z</time>
      </trkpt>
      <trkpt lat="43.58632" lon="3.90737">
        <ele>10.48999936</ele>
        <time>2020-08-02T08:50:39.000Z</time>
      </trkpt>
      <trkpt lat="43.58633" lon="3.90739">
        <ele>10.68999936</ele>
        <time>2020-08-02T08:50:40.000Z</time>
      </trkpt>
      <trkpt lat="43.58635" lon="3.90742">
        <ele>10.88999936</ele>
        <time>2020-08-02T08:50:41.000Z</time>
      </trkpt>
      <trkpt lat="43.58637" lon="3.90743">
        <ele>10.955752513118</ele>
        <time>2020-08-02T08:50:42.000Z</time>
      </trkpt>
      <trkpt lat="43.5864" lon="3.90745">
        <ele>10.759095617415</ele>
        <time>2020-08-02T08:50:44.000Z</time>
      </trkpt>
      <trkpt lat="43.58644" lon="3.90745">
        <ele>10.562438721711</ele>
        <time>2020-08-02T08:50:46.000Z</time>
      </trkpt>
      <trkpt lat="43.58646" lon="3.90746">
        <ele>10.46411027386</ele>
        <time>2020-08-02T08:50:47.000Z</time>
      </trkpt>
      <trkpt lat="43.58648" lon="3.90747">
        <ele>10.365781826008</ele>
        <time>2020-08-02T08:50:48.000Z</time>
      </trkpt>
      <trkpt lat="43.58651" lon="3.90749">
        <ele>10.267453378156</ele>
        <time>2020-08-02T08:50:49.000Z</time>
      </trkpt>
      <trkpt lat="43.58653" lon="3.90751">
        <ele>10.169124930305</ele>
        <time>2020-08-02T08:50:50.000Z</time>
      </trkpt>
      <trkpt lat="43.58655" lon="3.90754">
        <ele>10.070796482453</ele>
        <time>2020-08-02T08:50:51.000Z</time>
      </trkpt>
      <trkpt lat="43.58656" lon="3.90758">
        <ele>9.9715157773296</ele>
        <time>2020-08-02T08:50:52.000Z</time>
      </trkpt>
      <trkpt lat="43.58658" lon="3.90762">
        <ele>9.8697864106494</ele>
        <time>2020-08-02T08:50:53.000Z</time>
      </trkpt>
      <trkpt lat="43.58661" lon="3.90765">
        <ele>9.7680570439692</ele>
        <time>2020-08-02T08:50:54.000Z</time>
      </trkpt>
      <trkpt lat="43.58665" lon="3.90769">
        <ele>9.6663276772891</ele>
        <time>2020-08-02T08:50:55.000Z</time>
      </trkpt>
      <trkpt lat="43.5867" lon="3.90772">
        <ele>9.5645983106089</ele>
        <time>2020-08-02T08:50:56.000Z</time>
      </trkpt>
      <trkpt lat="43.58676" lon="3.90774">
        <ele>9.4628689439287</ele>
        <time>2020-08-02T08:50:57.000Z</time>
      </trkpt>
      <trkpt lat="43.58682" lon="3.90776">
        <ele>9.3611395772486</ele>
        <time>2020-08-02T08:50:58.000Z</time>
      </trkpt>
      <trkpt lat="43.58687" lon="3.90777">
        <ele>9.2594102105684</ele>
        <time>2020-08-02T08:50:59.000Z</time>
      </trkpt>
      <trkpt lat="43.58693" lon="3.90778">
        <ele>9.1576808438882</ele>
        <time>2020-08-02T08:51:00.000Z</time>
      </trkpt>
      <trkpt lat="43.58698" lon="3.9078">
        <ele>9.0559514772081</ele>
        <time>2020-08-02T08:51:01.000Z</time>
      </trkpt>
      <trkpt lat="43.58703" lon="3.90781">
        <ele>9</ele>
        <time>2020-08-02T08:51:02.000Z</time>
      </trkpt>
      <trkpt lat="43.58707" lon="3.90782">
        <ele>9</ele>
        <time>2020-08-02T08:51:03.000Z</time>
      </trkpt>
      <trkpt lat="43.58712" lon="3.90783">
        <ele>9</ele>
        <time>2020-08-02T08:51:04.000Z</time>
      </trkpt>
      <trkpt lat="43.58716" lon="3.90785">
        <ele>9</ele>
        <time>2020-08-02T08:51:05.000Z</time>
      </trkpt>
      <trkpt lat="43.5872" lon="3.90787">
        <ele>9</ele>
        <time>2020-08-02T08:51:06.000Z</time>
      </trkpt>
      <trkpt lat="43.58724" lon="3.90788">
        <ele>9</ele>
        <time>2020-08-02T08:51:07.000Z</time>
      </trkpt>
      <trkpt lat="43.58728" lon="3.90789">
        <ele>9</ele>
        <time>2020-08-02T08:51:08.000Z</time>
      </trkpt>
      <trkpt lat="43.58732" lon="3.90789">
        <ele>9</ele>
        <time>2020-08-02T08:51:09.000Z</time>
      </trkpt>
      <trkpt lat="43.58737" lon="3.90789">
        <ele>9</ele>
        <time>2020-08-02T08:51:10.000Z</time>
      </trkpt>
      <trkpt lat="43.58741" lon="3.9079">
        <ele>9</ele>
        <time>2020-08-02T08:51:11.000Z</time>
      </trkpt>
      <trkpt lat="43.58745" lon="3.90791">
        <ele>9</ele>
        <time>2020-08-02T08:51:12.000Z</time>
      </trkpt>
      <trkpt lat="43.58749" lon="3.90792">
        <ele>9</ele>
        <time>2020-08-02T08:51:13.000Z</time>
      </trkpt>
      <trkpt lat="43.58753" lon="3.90794">
        <ele>9</ele>
        <time>2020-08-02T08:51:14.000Z</time>
      </trkpt>
      <trkpt lat="43.58757" lon="3.90795">
        <ele>9</ele>
        <time>2020-08-02T08:51:15.000Z</time>
      </trkpt>
      <trkpt lat="43.58762" lon="3.90797">
        <ele>9</ele>
        <time>2020-08-02T08:51:16.000Z</time>
      </trkpt>
      <trkpt lat="43.58766" lon="3.90798">
        <ele>9</ele>
        <time>2020-08-02T08:51:17.000Z</time>
      </trkpt>
      <trkpt lat="43.5877" lon="3.90799">
        <ele>9</ele>
        <time>2020-08-02T08:51:18.000Z</time>
      </trkpt>
      <trkpt lat="43.58774" lon="3.908">
        <ele>9</ele>
        <time>2020-08-02T08:51:19.000Z</time>
      </trkpt>
      <trkpt lat="43.58778" lon="3.90801">
        <ele>9</ele>
        <time>2020-08-02T08:51:20.000Z</time>
      </trkpt>
      <trkpt lat="43.58782" lon="3.90802">
        <ele>9</ele>
        <time>2020-08-02T08:51:21.000Z</time>
      </trkpt>
      <trkpt lat="43.58787" lon="3.90803">
        <ele>9.04499968</ele>
        <time>2020-08-02T08:51:22.000Z</time>
      </trkpt>
      <trkpt lat="43.58791" lon="3.90804">
        <ele>9.14499968</ele>
        <time>2020-08-02T08:51:23.000Z</time>
      </trkpt>
      <trkpt lat="43.58795" lon="3.90805">
        <ele>9.24499968</ele>
        <time>2020-08-02T08:51:24.000Z</time>
      </trkpt>
      <trkpt lat="43.58799" lon="3.90804">
        <ele>9.34499968</ele>
        <time>2020-08-02T08:51:25.000Z</time>
      </trkpt>
      <trkpt lat="43.58803" lon="3.90803">
        <ele>9.44499968</ele>
        <time>2020-08-02T08:51:26.000Z</time>
      </trkpt>
      <trkpt lat="43.58807" lon="3.908">
        <ele>9.54499968</ele>
        <time>2020-08-02T08:51:27.000Z</time>
      </trkpt>
      <trkpt lat="43.5881" lon="3.90798">
        <ele>9.64499968</ele>
        <time>2020-08-02T08:51:28.000Z</time>
      </trkpt>
      <trkpt lat="43.58813" lon="3.90796">
        <ele>9.74499968</ele>
        <time>2020-08-02T08:51:29.000Z</time>
      </trkpt>
      <trkpt lat="43.58816" lon="3.90794">
        <ele>9.84499968</ele>
        <time>2020-08-02T08:51:30.000Z</time>
      </trkpt>
      <trkpt lat="43.5882" lon="3.90794">
        <ele>9.94499968</ele>
        <time>2020-08-02T08:51:31.000Z</time>
      </trkpt>
      <trkpt lat="43.58823" lon="3.90794">
        <ele>10</ele>
        <time>2020-08-02T08:51:32.000Z</time>
      </trkpt>
      <trkpt lat="43.58827" lon="3.90795">
        <ele>10</ele>
        <time>2020-08-02T08:51:33.000Z</time>
      </trkpt>
      <trkpt lat="43.58831" lon="3.90795">
        <ele>10</ele>
        <time>2020-08-02T08:51:34.000Z</time>
      </trkpt>
      <trkpt lat="43.58834" lon="3.90796">
        <ele>10</ele>
        <time>2020-08-02T08:51:35.000Z</time>
      </trkpt>
      <trkpt lat="43.58838" lon="3.90796">
        <ele>10</ele>
        <time>2020-08-02T08:51:36.000Z</time>
      </trkpt>
      <trkpt lat="43.58842" lon="3.90794">
        <ele>10</ele>
        <time>2020-08-02T08:51:37.000Z</time>
      </trkpt>
      <trkpt lat="43.58846" lon="3.90792">
        <ele>10</ele>
        <time>2020-08-02T08:51:38.000Z</time>
      </trkpt>
      <trkpt lat="43.5885" lon="3.9079">
        <ele>10</ele>
        <time>2020-08-02T08:51:39.000Z</time>
      </trkpt>
      <trkpt lat="43.58854" lon="3.90789">
        <ele>10</ele>
        <time>2020-08-02T08:51:40.000Z</time>
      </trkpt>
      <trkpt lat="43.58858" lon="3.90787">
        <ele>10</ele>
        <time>2020-08-02T08:51:41.000Z</time>
      </trkpt>
      <trkpt lat="43.58862" lon="3.90786">
        <ele>10.04499968</ele>
        <time>2020-08-02T08:51:42.000Z</time>
      </trkpt>
      <trkpt lat="43.58866" lon="3.90786">
        <ele>10.14499968</ele>
        <time>2020-08-02T08:51:43.000Z</time>
      </trkpt>
      <trkpt lat="43.5887" lon="3.90785">
        <ele>10.24499968</ele>
        <time>2020-08-02T08:51:44.000Z</time>
      </trkpt>
      <trkpt lat="43.58874" lon="3.90784">
        <ele>10.34499968</ele>
        <time>2020-08-02T08:51:45.000Z</time>
      </trkpt>
      <trkpt lat="43.58878" lon="3.90783">
        <ele>10.44499968</ele>
        <time>2020-08-02T08:51:46.000Z</time>
      </trkpt>
      <trkpt lat="43.58882" lon="3.90782">
        <ele>10.54499968</ele>
        <time>2020-08-02T08:51:47.000Z</time>
      </trkpt>
      <trkpt lat="43.58886" lon="3.90781">
        <ele>10.64499968</ele>
        <time>2020-08-02T08:51:48.000Z</time>
      </trkpt>
      <trkpt lat="43.58889" lon="3.9078">
        <ele>10.74499968</ele>
        <time>2020-08-02T08:51:49.000Z</time>
      </trkpt>
      <trkpt lat="43.58893" lon="3.90779">
        <ele>10.84499968</ele>
        <time>2020-08-02T08:51:50.000Z</time>
      </trkpt>
      <trkpt lat="43.58896" lon="3.90779">
        <ele>10.94499968</ele>
        <time>2020-08-02T08:51:51.000Z</time>
      </trkpt>
      <trkpt lat="43.58898" lon="3.90779">
        <ele>11.0430207529</ele>
        <time>2020-08-02T08:51:52.000Z</time>
      </trkpt>
      <trkpt lat="43.58901" lon="3.90778">
        <ele>11.13862310585</ele>
        <time>2020-08-02T08:51:53.000Z</time>
      </trkpt>
      <trkpt lat="43.58903" lon="3.90777">
        <ele>11.2342254588</ele>
        <time>2020-08-02T08:51:54.000Z</time>
      </trkpt>
      <trkpt lat="43.58906" lon="3.90776">
        <ele>11.329827811749</ele>
        <time>2020-08-02T08:51:55.000Z</time>
      </trkpt>
      <trkpt lat="43.58908" lon="3.90775">
        <ele>11.425430164699</ele>
        <time>2020-08-02T08:51:56.000Z</time>
      </trkpt>
      <trkpt lat="43.58912" lon="3.90775">
        <ele>11.521032517649</ele>
        <time>2020-08-02T08:51:57.000Z</time>
      </trkpt>
      <trkpt lat="43.58915" lon="3.90775">
        <ele>11.616634870599</ele>
        <time>2020-08-02T08:51:58.000Z</time>
      </trkpt>
      <trkpt lat="43.58919" lon="3.90774">
        <ele>11.712237223549</ele>
        <time>2020-08-02T08:51:59.000Z</time>
      </trkpt>
      <trkpt lat="43.58924" lon="3.90774">
        <ele>11.807839576498</ele>
        <time>2020-08-02T08:52:00.000Z</time>
      </trkpt>
      <trkpt lat="43.58928" lon="3.90773">
        <ele>11.903441929448</ele>
        <time>2020-08-02T08:52:01.000Z</time>
      </trkpt>
      <trkpt lat="43.58933" lon="3.90772">
        <ele>11.999044282398</ele>
        <time>2020-08-02T08:52:02.000Z</time>
      </trkpt>
      <trkpt lat="43.58937" lon="3.9077">
        <ele>12</ele>
        <time>2020-08-02T08:52:03.000Z</time>
      </trkpt>
      <trkpt lat="43.58942" lon="3.90769">
        <ele>12</ele>
        <time>2020-08-02T08:52:04.000Z</time>
      </trkpt>
      <trkpt lat="43.58947" lon="3.90767">
        <ele>12</ele>
        <time>2020-08-02T08:52:05.000Z</time>
      </trkpt>
      <trkpt lat="43.58951" lon="3.90766">
        <ele>12</ele>
        <time>2020-08-02T08:52:06.000Z</time>
      </trkpt>
      <trkpt lat="43.58956" lon="3.90765">
        <ele>12</ele>
        <time>2020-08-02T08:52:07.000Z</time>
      </trkpt>
      <trkpt lat="43.5896" lon="3.90764">
        <ele>12</ele>
        <time>2020-08-02T08:52:08.000Z</time>
      </trkpt>
      <trkpt lat="43.58965" lon="3.90763">
        <ele>12</ele>
        <time>2020-08-02T08:52:09.000Z</time>
      </trkpt>
      <trkpt lat="43.58969" lon="3.90762">
        <ele>12</ele>
        <time>2020-08-02T08:52:10.000Z</time>
      </trkpt>
      <trkpt lat="43.58974" lon="3.90761">
        <ele>12</ele>
        <time>2020-08-02T08:52:11.000Z</time>
      </trkpt>
      <trkpt lat="43.58979" lon="3.9076">
        <ele>12</ele>
        <time>2020-08-02T08:52:12.000Z</time>
      </trkpt>
      <trkpt lat="43.58983" lon="3.90759">
        <ele>12</ele>
        <time>2020-08-02T08:52:13.000Z</time>
      </trkpt>
      <trkpt lat="43.58988" lon="3.90758">
        <ele>12</ele>
        <time>2020-08-02T08:52:14.000Z</time>
      </trkpt>
      <trkpt lat="43.58993" lon="3.90756">
        <ele>12</ele>
        <time>2020-08-02T08:52:15.000Z</time>
      </trkpt>
      <trkpt lat="43.58997" lon="3.90755">
        <ele>12</ele>
        <time>2020-08-02T08:52:16.000Z</time>
      </trkpt>
      <trkpt lat="43.59002" lon="3.90753">
        <ele>12</ele>
        <time>2020-08-02T08:52:17.000Z</time>
      </trkpt>
      <trkpt lat="43.59006" lon="3.90751">
        <ele>12</ele>
        <time>2020-08-02T08:52:18.000Z</time>
      </trkpt>
      <trkpt lat="43.5901" lon="3.90749">
        <ele>12</ele>
        <time>2020-08-02T08:52:19.000Z</time>
      </trkpt>
      <trkpt lat="43.59015" lon="3.90747">
        <ele>12</ele>
        <time>2020-08-02T08:52:20.000Z</time>
      </trkpt>
      <trkpt lat="43.59019" lon="3.90745">
        <ele>12</ele>
        <time>2020-08-02T08:52:21.000Z</time>
      </trkpt>
      <trkpt lat="43.59023" lon="3.90742">
        <ele>12</ele>
        <time>2020-08-02T08:52:22.000Z</time>
      </trkpt>
      <trkpt lat="43.59027" lon="3.9074">
        <ele>12</ele>
        <time>2020-08-02T08:52:23.000Z</time>
      </trkpt>
      <trkpt lat="43.59032" lon="3.90737">
        <ele>12</ele>
        <time>2020-08-02T08:52:24.000Z</time>
      </trkpt>
      <trkpt lat="43.59036" lon="3.90734">
        <ele>12</ele>
        <time>2020-08-02T08:52:25.000Z</time>
      </trkpt>
      <trkpt lat="43.5904" lon="3.90731">
        <ele>12</ele>
        <time>2020-08-02T08:52:26.000Z</time>
      </trkpt>
      <trkpt lat="43.59044" lon="3.90728">
        <ele>12</ele>
        <time>2020-08-02T08:52:27.000Z</time>
      </trkpt>
      <trkpt lat="43.59048" lon="3.90725">
        <ele>12</ele>
        <time>2020-08-02T08:52:28.000Z</time>
      </trkpt>
      <trkpt lat="43.59052" lon="3.90721">
        <ele>12</ele>
        <time>2020-08-02T08:52:29.000Z</time>
      </trkpt>
      <trkpt lat="43.59056" lon="3.90718">
        <ele>12</ele>
        <time>2020-08-02T08:52:30.000Z</time>
      </trkpt>
      <trkpt lat="43.5906" lon="3.90714">
        <ele>12</ele>
        <time>2020-08-02T08:52:31.000Z</time>
      </trkpt>
      <trkpt lat="43.59064" lon="3.9071">
        <ele>12</ele>
        <time>2020-08-02T08:52:32.000Z</time>
      </trkpt>
      <trkpt lat="43.59067" lon="3.90707">
        <ele>12</ele>
        <time>2020-08-02T08:52:33.000Z</time>
      </trkpt>
      <trkpt lat="43.59071" lon="3.90703">
        <ele>12</ele>
        <time>2020-08-02T08:52:34.000Z</time>
      </trkpt>
      <trkpt lat="43.59075" lon="3.90699">
        <ele>12</ele>
        <time>2020-08-02T08:52:35.000Z</time>
      </trkpt>
      <trkpt lat="43.59079" lon="3.90695">
        <ele>12</ele>
        <time>2020-08-02T08:52:36.000Z</time>
      </trkpt>
      <trkpt lat="43.59082" lon="3.90691">
        <ele>12</ele>
        <time>2020-08-02T08:52:37.000Z</time>
      </trkpt>
      <trkpt lat="43.59086" lon="3.90687">
        <ele>12</ele>
        <time>2020-08-02T08:52:38.000Z</time>
      </trkpt>
      <trkpt lat="43.59089" lon="3.90683">
        <ele>12</ele>
        <time>2020-08-02T08:52:39.000Z</time>
      </trkpt>
      <trkpt lat="43.59093" lon="3.90679">
        <ele>12</ele>
        <time>2020-08-02T08:52:40.000Z</time>
      </trkpt>
      <trkpt lat="43.59096" lon="3.90675">
        <ele>12</ele>
        <time>2020-08-02T08:52:41.000Z</time>
      </trkpt>
      <trkpt lat="43.591" lon="3.90671">
        <ele>12</ele>
        <time>2020-08-02T08:52:42.000Z</time>
      </trkpt>
      <trkpt lat="43.59103" lon="3.90667">
        <ele>12</ele>
        <time>2020-08-02T08:52:43.000Z</time>
      </trkpt>
      <trkpt lat="43.59106" lon="3.90663">
        <ele>12</ele>
        <time>2020-08-02T08:52:44.000Z</time>
      </trkpt>
      <trkpt lat="43.5911" lon="3.90659">
        <ele>12</ele>
        <time>2020-08-02T08:52:45.000Z</time>
      </trkpt>
      <trkpt lat="43.59113" lon="3.90654">
        <ele>12</ele>
        <time>2020-08-02T08:52:46.000Z</time>
      </trkpt>
      <trkpt lat="43.59116" lon="3.9065">
        <ele>12</ele>
        <time>2020-08-02T08:52:47.000Z</time>
      </trkpt>
      <trkpt lat="43.59119" lon="3.90646">
        <ele>12</ele>
        <time>2020-08-02T08:52:48.000Z</time>
      </trkpt>
      <trkpt lat="43.59122" lon="3.90641">
        <ele>12</ele>
        <time>2020-08-02T08:52:49.000Z</time>
      </trkpt>
      <trkpt lat="43.59126" lon="3.90636">
        <ele>12</ele>
        <time>2020-08-02T08:52:50.000Z</time>
      </trkpt>
      <trkpt lat="43.59129" lon="3.90631">
        <ele>12</ele>
        <time>2020-08-02T08:52:51.000Z</time>
      </trkpt>
      <trkpt lat="43.59132" lon="3.90626">
        <ele>12.04499968</ele>
        <time>2020-08-02T08:52:52.000Z</time>
      </trkpt>
      <trkpt lat="43.59135" lon="3.90622">
        <ele>12.14499968</ele>
        <time>2020-08-02T08:52:53.000Z</time>
      </trkpt>
      <trkpt lat="43.59138" lon="3.90617">
        <ele>12.24499968</ele>
        <time>2020-08-02T08:52:54.000Z</time>
      </trkpt>
      <trkpt lat="43.59141" lon="3.90612">
        <ele>12.34499968</ele>
        <time>2020-08-02T08:52:55.000Z</time>
      </trkpt>
      <trkpt lat="43.59144" lon="3.90608">
        <ele>12.44499968</ele>
        <time>2020-08-02T08:52:56.000Z</time>
      </trkpt>
      <trkpt lat="43.59147" lon="3.90603">
        <ele>12.54499968</ele>
        <time>2020-08-02T08:52:57.000Z</time>
      </trkpt>
      <trkpt lat="43.5915" lon="3.90599">
        <ele>12.64499968</ele>
        <time>2020-08-02T08:52:58.000Z</time>
      </trkpt>
      <trkpt lat="43.59153" lon="3.90594">
        <ele>12.74499968</ele>
        <time>2020-08-02T08:52:59.000Z</time>
      </trkpt>
      <trkpt lat="43.59155" lon="3.90589">
        <ele>12.84499968</ele>
        <time>2020-08-02T08:53:00.000Z</time>
      </trkpt>
      <trkpt lat="43.59158" lon="3.90584">
        <ele>12.94499968</ele>
        <time>2020-08-02T08:53:01.000Z</time>
      </trkpt>
      <trkpt lat="43.5916" lon="3.90579">
        <ele>13</ele>
        <time>2020-08-02T08:53:02.000Z</time>
      </trkpt>
      <trkpt lat="43.59163" lon="3.90575">
        <ele>13</ele>
        <time>2020-08-02T08:53:03.000Z</time>
      </trkpt>
      <trkpt lat="43.59166" lon="3.9057">
        <ele>13</ele>
        <time>2020-08-02T08:53:04.000Z</time>
      </trkpt>
      <trkpt lat="43.59168" lon="3.90566">
        <ele>13</ele>
        <time>2020-08-02T08:53:05.000Z</time>
      </trkpt>
      <trkpt lat="43.59171" lon="3.90561">
        <ele>13</ele>
        <time>2020-08-02T08:53:06.000Z</time>
      </trkpt>
      <trkpt lat="43.59174" lon="3.90557">
        <ele>13</ele>
        <time>2020-08-02T08:53:07.000Z</time>
      </trkpt>
      <trkpt lat="43.59177" lon="3.90553">
        <ele>13</ele>
        <time>2020-08-02T08:53:08.000Z</time>
      </trkpt>
      <trkpt lat="43.5918" lon="3.90548">
        <ele>13</ele>
        <time>2020-08-02T08:53:09.000Z</time>
      </trkpt>
      <trkpt lat="43.59183" lon="3.90544">
        <ele>13</ele>
        <time>2020-08-02T08:53:10.000Z</time>
      </trkpt>
      <trkpt lat="43.59186" lon="3.9054">
        <ele>13</ele>
        <time>2020-08-02T08:53:11.000Z</time>
      </trkpt>
      <trkpt lat="43.5919" lon="3.90536">
        <ele>13.014448530577</ele>
        <time>2020-08-02T08:53:12.000Z</time>
      </trkpt>
      <trkpt lat="43.59193" lon="3.90533">
        <ele>13.117647602743</ele>
        <time>2020-08-02T08:53:13.000Z</time>
      </trkpt>
      <trkpt lat="43.59196" lon="3.90529">
        <ele>13.220846674909</ele>
        <time>2020-08-02T08:53:14.000Z</time>
      </trkpt>
      <trkpt lat="43.59199" lon="3.90525">
        <ele>13.324045747075</ele>
        <time>2020-08-02T08:53:15.000Z</time>
      </trkpt>
      <trkpt lat="43.59202" lon="3.90521">
        <ele>13.427244819241</ele>
        <time>2020-08-02T08:53:16.000Z</time>
      </trkpt>
      <trkpt lat="43.59205" lon="3.90517">
        <ele>13.530443891408</ele>
        <time>2020-08-02T08:53:17.000Z</time>
      </trkpt>
      <trkpt lat="43.59208" lon="3.90513">
        <ele>13.633642963574</ele>
        <time>2020-08-02T08:53:18.000Z</time>
      </trkpt>
      <trkpt lat="43.59211" lon="3.9051">
        <ele>13.73684203574</ele>
        <time>2020-08-02T08:53:19.000Z</time>
      </trkpt>
      <trkpt lat="43.59214" lon="3.90506">
        <ele>13.840041107906</ele>
        <time>2020-08-02T08:53:20.000Z</time>
      </trkpt>
      <trkpt lat="43.59218" lon="3.90503">
        <ele>13.943240180072</ele>
        <time>2020-08-02T08:53:21.000Z</time>
      </trkpt>
      <trkpt lat="43.59221" lon="3.90499">
        <ele>14</ele>
        <time>2020-08-02T08:53:22.000Z</time>
      </trkpt>
      <trkpt lat="43.59224" lon="3.90496">
        <ele>14</ele>
        <time>2020-08-02T08:53:23.000Z</time>
      </trkpt>
      <trkpt lat="43.59227" lon="3.90492">
        <ele>14</ele>
        <time>2020-08-02T08:53:24.000Z</time>
      </trkpt>
      <trkpt lat="43.5923" lon="3.9049">
        <ele>14</ele>
        <time>2020-08-02T08:53:25.000Z</time>
      </trkpt>
      <trkpt lat="43.59234" lon="3.90487">
        <ele>14</ele>
        <time>2020-08-02T08:53:26.000Z</time>
      </trkpt>
      <trkpt lat="43.59237" lon="3.90484">
        <ele>14</ele>
        <time>2020-08-02T08:53:27.000Z</time>
      </trkpt>
      <trkpt lat="43.5924" lon="3.90481">
        <ele>14</ele>
        <time>2020-08-02T08:53:28.000Z</time>
      </trkpt>
      <trkpt lat="43.59244" lon="3.90478">
        <ele>14</ele>
        <time>2020-08-02T08:53:29.000Z</time>
      </trkpt>
      <trkpt lat="43.59247" lon="3.90475">
        <ele>14</ele>
        <time>2020-08-02T08:53:30.000Z</time>
      </trkpt>
      <trkpt lat="43.59251" lon="3.90472">
        <ele>14</ele>
        <time>2020-08-02T08:53:31.000Z</time>
      </trkpt>
      <trkpt lat="43.59255" lon="3.9047">
        <ele>14.031440466408</ele>
        <time>2020-08-02T08:53:32.000Z</time>
      </trkpt>
      <trkpt lat="43.59258" lon="3.90468">
        <ele>14.132860278874</ele>
        <time>2020-08-02T08:53:33.000Z</time>
      </trkpt>
      <trkpt lat="43.59262" lon="3.90466">
        <ele>14.234280091339</ele>
        <time>2020-08-02T08:53:34.000Z</time>
      </trkpt>
      <trkpt lat="43.59266" lon="3.90463">
        <ele>14.335699903805</ele>
        <time>2020-08-02T08:53:35.000Z</time>
      </trkpt>
      <trkpt lat="43.59269" lon="3.90462">
        <ele>14.437119716271</ele>
        <time>2020-08-02T08:53:36.000Z</time>
      </trkpt>
      <trkpt lat="43.59273" lon="3.9046">
        <ele>14.538539528737</ele>
        <time>2020-08-02T08:53:37.000Z</time>
      </trkpt>
      <trkpt lat="43.59277" lon="3.90458">
        <ele>14.639959341203</ele>
        <time>2020-08-02T08:53:38.000Z</time>
      </trkpt>
      <trkpt lat="43.59281" lon="3.90456">
        <ele>14.741379153669</ele>
        <time>2020-08-02T08:53:39.000Z</time>
      </trkpt>
      <trkpt lat="43.59285" lon="3.90455">
        <ele>14.842798966135</ele>
        <time>2020-08-02T08:53:40.000Z</time>
      </trkpt>
      <trkpt lat="43.59289" lon="3.90453">
        <ele>14.9442187786</ele>
        <time>2020-08-02T08:53:41.000Z</time>
      </trkpt>
      <trkpt lat="43.59293" lon="3.90451">
        <ele>14.95500032</ele>
        <time>2020-08-02T08:53:42.000Z</time>
      </trkpt>
      <trkpt lat="43.59298" lon="3.90449">
        <ele>14.85500032</ele>
        <time>2020-08-02T08:53:43.000Z</time>
      </trkpt>
      <trkpt lat="43.59302" lon="3.90447">
        <ele>14.75500032</ele>
        <time>2020-08-02T08:53:44.000Z</time>
      </trkpt>
      <trkpt lat="43.59306" lon="3.90445">
        <ele>14.65500032</ele>
        <time>2020-08-02T08:53:45.000Z</time>
      </trkpt>
      <trkpt lat="43.59311" lon="3.90442">
        <ele>14.55500032</ele>
        <time>2020-08-02T08:53:46.000Z</time>
      </trkpt>
      <trkpt lat="43.59316" lon="3.9044">
        <ele>14.45500032</ele>
        <time>2020-08-02T08:53:47.000Z</time>
      </trkpt>
      <trkpt lat="43.5932" lon="3.90438">
        <ele>14.35500032</ele>
        <time>2020-08-02T08:53:48.000Z</time>
      </trkpt>
      <trkpt lat="43.59323" lon="3.90436">
        <ele>14.25500032</ele>
        <time>2020-08-02T08:53:49.000Z</time>
      </trkpt>
      <trkpt lat="43.59327" lon="3.90435">
        <ele>14.15500032</ele>
        <time>2020-08-02T08:53:50.000Z</time>
      </trkpt>
      <trkpt lat="43.59331" lon="3.90433">
        <ele>14.05500032</ele>
        <time>2020-08-02T08:53:51.000Z</time>
      </trkpt>
      <trkpt lat="43.59335" lon="3.90431">
        <ele>14</ele>
        <time>2020-08-02T08:53:52.000Z</time>
      </trkpt>
      <trkpt lat="43.59339" lon="3.9043">
        <ele>14</ele>
        <time>2020-08-02T08:53:53.000Z</time>
      </trkpt>
      <trkpt lat="43.59344" lon="3.90427">
        <ele>14</ele>
        <time>2020-08-02T08:53:54.000Z</time>
      </trkpt>
      <trkpt lat="43.59351" lon="3.90425">
        <ele>14</ele>
        <time>2020-08-02T08:53:56.000Z</time>
      </trkpt>
      <trkpt lat="43.59355" lon="3.90423">
        <ele>14</ele>
        <time>2020-08-02T08:53:57.000Z</time>
      </trkpt>
      <trkpt lat="43.59358" lon="3.90422">
        <ele>14</ele>
        <time>2020-08-02T08:53:58.000Z</time>
      </trkpt>
      <trkpt lat="43.59361" lon="3.9042">
        <ele>14</ele>
        <time>2020-08-02T08:53:59.000Z</time>
      </trkpt>
      <trkpt lat="43.59363" lon="3.90419">
        <ele>14</ele>
        <time>2020-08-02T08:54:00.000Z</time>
      </trkpt>
      <trkpt lat="43.59365" lon="3.90419">
        <ele>14</ele>
        <time>2020-08-02T08:54:01.000Z</time>
      </trkpt>
      <trkpt lat="43.59367" lon="3.90418">
        <ele>14.014344918033</ele>
        <time>2020-08-02T08:54:02.000Z</time>
      </trkpt>
      <trkpt lat="43.59369" lon="3.90417">
        <ele>14.116803934426</ele>
        <time>2020-08-02T08:54:03.000Z</time>
      </trkpt>
      <trkpt lat="43.59371" lon="3.90416">
        <ele>14.21926295082</ele>
        <time>2020-08-02T08:54:04.000Z</time>
      </trkpt>
      <trkpt lat="43.59373" lon="3.90415">
        <ele>14.321721967213</ele>
        <time>2020-08-02T08:54:05.000Z</time>
      </trkpt>
      <trkpt lat="43.59376" lon="3.90414">
        <ele>14.424180983607</ele>
        <time>2020-08-02T08:54:06.000Z</time>
      </trkpt>
      <trkpt lat="43.59379" lon="3.90412">
        <ele>14.52664</ele>
        <time>2020-08-02T08:54:07.000Z</time>
      </trkpt>
      <trkpt lat="43.59383" lon="3.90411">
        <ele>14.629099016393</ele>
        <time>2020-08-02T08:54:08.000Z</time>
      </trkpt>
      <trkpt lat="43.59386" lon="3.90409">
        <ele>14.731558032787</ele>
        <time>2020-08-02T08:54:09.000Z</time>
      </trkpt>
      <trkpt lat="43.5939" lon="3.90407">
        <ele>14.83401704918</ele>
        <time>2020-08-02T08:54:10.000Z</time>
      </trkpt>
      <trkpt lat="43.59394" lon="3.90405">
        <ele>14.936476065574</ele>
        <time>2020-08-02T08:54:11.000Z</time>
      </trkpt>
      <trkpt lat="43.59398" lon="3.90402">
        <ele>14.961731517359</ele>
        <time>2020-08-02T08:54:12.000Z</time>
      </trkpt>
      <trkpt lat="43.59402" lon="3.904">
        <ele>14.861026680176</ele>
        <time>2020-08-02T08:54:13.000Z</time>
      </trkpt>
      <trkpt lat="43.59407" lon="3.90397">
        <ele>14.760321842992</ele>
        <time>2020-08-02T08:54:14.000Z</time>
      </trkpt>
      <trkpt lat="43.59411" lon="3.90393">
        <ele>14.659617005808</ele>
        <time>2020-08-02T08:54:15.000Z</time>
      </trkpt>
      <trkpt lat="43.59415" lon="3.9039">
        <ele>14.558912168625</ele>
        <time>2020-08-02T08:54:16.000Z</time>
      </trkpt>
      <trkpt lat="43.5942" lon="3.90387">
        <ele>14.458207331441</ele>
        <time>2020-08-02T08:54:17.000Z</time>
      </trkpt>
      <trkpt lat="43.59424" lon="3.90383">
        <ele>14.357502494257</ele>
        <time>2020-08-02T08:54:18.000Z</time>
      </trkpt>
      <trkpt lat="43.59428" lon="3.90379">
        <ele>14.256797657074</ele>
        <time>2020-08-02T08:54:19.000Z</time>
      </trkpt>
      <trkpt lat="43.59432" lon="3.90375">
        <ele>14.15609281989</ele>
        <time>2020-08-02T08:54:20.000Z</time>
      </trkpt>
      <trkpt lat="43.59436" lon="3.90372">
        <ele>14.055387982707</ele>
        <time>2020-08-02T08:54:21.000Z</time>
      </trkpt>
      <trkpt lat="43.59439" lon="3.90368">
        <ele>14.04499968</ele>
        <time>2020-08-02T08:54:22.000Z</time>
      </trkpt>
      <trkpt lat="43.59443" lon="3.90364">
        <ele>14.14499968</ele>
        <time>2020-08-02T08:54:23.000Z</time>
      </trkpt>
      <trkpt lat="43.59447" lon="3.90361">
        <ele>14.24499968</ele>
        <time>2020-08-02T08:54:24.000Z</time>
      </trkpt>
      <trkpt lat="43.59451" lon="3.90358">
        <ele>14.34499968</ele>
        <time>2020-08-02T08:54:25.000Z</time>
      </trkpt>
      <trkpt lat="43.59454" lon="3.90354">
        <ele>14.44499968</ele>
        <time>2020-08-02T08:54:26.000Z</time>
      </trkpt>
      <trkpt lat="43.59458" lon="3.90351">
        <ele>14.54499968</ele>
        <time>2020-08-02T08:54:27.000Z</time>
      </trkpt>
      <trkpt lat="43.59462" lon="3.90348">
        <ele>14.64499968</ele>
        <time>2020-08-02T08:54:28.000Z</time>
      </trkpt>
      <trkpt lat="43.59465" lon="3.90344">
        <ele>14.74499968</ele>
        <time>2020-08-02T08:54:29.000Z</time>
      </trkpt>
      <trkpt lat="43.59469" lon="3.9034">
        <ele>14.84499968</ele>
        <time>2020-08-02T08:54:30.000Z</time>
      </trkpt>
      <trkpt lat="43.59473" lon="3.90336">
        <ele>14.94499968</ele>
        <time>2020-08-02T08:54:31.000Z</time>
      </trkpt>
      <trkpt lat="43.59477" lon="3.90332">
        <ele>15.044775815252</ele>
        <time>2020-08-02T08:54:32.000Z</time>
      </trkpt>
      <trkpt lat="43.5948" lon="3.90329">
        <ele>15.144278334497</ele>
        <time>2020-08-02T08:54:33.000Z</time>
      </trkpt>
      <trkpt lat="43.59484" lon="3.90325">
        <ele>15.243780853741</ele>
        <time>2020-08-02T08:54:34.000Z</time>
      </trkpt>
      <trkpt lat="43.59487" lon="3.90321">
        <ele>15.343283372986</ele>
        <time>2020-08-02T08:54:35.000Z</time>
      </trkpt>
      <trkpt lat="43.5949" lon="3.90317">
        <ele>15.44278589223</ele>
        <time>2020-08-02T08:54:36.000Z</time>
      </trkpt>
      <trkpt lat="43.59493" lon="3.90312">
        <ele>15.542288411475</ele>
        <time>2020-08-02T08:54:37.000Z</time>
      </trkpt>
      <trkpt lat="43.59496" lon="3.90308">
        <ele>15.641790930719</ele>
        <time>2020-08-02T08:54:38.000Z</time>
      </trkpt>
      <trkpt lat="43.595" lon="3.90304">
        <ele>15.741293449964</ele>
        <time>2020-08-02T08:54:39.000Z</time>
      </trkpt>
      <trkpt lat="43.59502" lon="3.903">
        <ele>15.840795969209</ele>
        <time>2020-08-02T08:54:40.000Z</time>
      </trkpt>
      <trkpt lat="43.59505" lon="3.90296">
        <ele>15.940298488453</ele>
        <time>2020-08-02T08:54:41.000Z</time>
      </trkpt>
      <trkpt lat="43.59507" lon="3.90293">
        <ele>16</ele>
        <time>2020-08-02T08:54:42.000Z</time>
      </trkpt>
      <trkpt lat="43.59509" lon="3.9029">
        <ele>16</ele>
        <time>2020-08-02T08:54:43.000Z</time>
      </trkpt>
      <trkpt lat="43.5951" lon="3.90287">
        <ele>16</ele>
        <time>2020-08-02T08:54:44.000Z</time>
      </trkpt>
      <trkpt lat="43.59512" lon="3.90285">
        <ele>16</ele>
        <time>2020-08-02T08:54:45.000Z</time>
      </trkpt>
      <trkpt lat="43.59514" lon="3.90282">
        <ele>16</ele>
        <time>2020-08-02T08:54:46.000Z</time>
      </trkpt>
      <trkpt lat="43.59516" lon="3.90279">
        <ele>16</ele>
        <time>2020-08-02T08:54:47.000Z</time>
      </trkpt>
      <trkpt lat="43.59518" lon="3.90276">
        <ele>16</ele>
        <time>2020-08-02T08:54:48.000Z</time>
      </trkpt>
      <trkpt lat="43.5952" lon="3.90273">
        <ele>16</ele>
        <time>2020-08-02T08:54:49.000Z</time>
      </trkpt>
      <trkpt lat="43.59522" lon="3.9027">
        <ele>16</ele>
        <time>2020-08-02T08:54:50.000Z</time>
      </trkpt>
      <trkpt lat="43.59525" lon="3.90267">
        <ele>16</ele>
        <time>2020-08-02T08:54:51.000Z</time>
      </trkpt>
      <trkpt lat="43.59527" lon="3.90264">
        <ele>16.04499968</ele>
        <time>2020-08-02T08:54:52.000Z</time>
      </trkpt>
      <trkpt lat="43.59529" lon="3.9026">
        <ele>16.14499968</ele>
        <time>2020-08-02T08:54:53.000Z</time>
      </trkpt>
      <trkpt lat="43.59532" lon="3.90256">
        <ele>16.24499968</ele>
        <time>2020-08-02T08:54:54.000Z</time>
      </trkpt>
      <trkpt lat="43.59534" lon="3.90252">
        <ele>16.34499968</ele>
        <time>2020-08-02T08:54:55.000Z</time>
      </trkpt>
      <trkpt lat="43.59537" lon="3.90248">
        <ele>16.44499968</ele>
        <time>2020-08-02T08:54:56.000Z</time>
      </trkpt>
      <trkpt lat="43.59539" lon="3.90244">
        <ele>16.54499968</ele>
        <time>2020-08-02T08:54:57.000Z</time>
      </trkpt>
      <trkpt lat="43.59541" lon="3.9024">
        <ele>16.64499968</ele>
        <time>2020-08-02T08:54:58.000Z</time>
      </trkpt>
      <trkpt lat="43.59543" lon="3.90237">
        <ele>16.74499968</ele>
        <time>2020-08-02T08:54:59.000Z</time>
      </trkpt>
      <trkpt lat="43.59545" lon="3.90233">
        <ele>16.84499968</ele>
        <time>2020-08-02T08:55:00.000Z</time>
      </trkpt>
      <trkpt lat="43.59547" lon="3.90229">
        <ele>16.94499968</ele>
        <time>2020-08-02T08:55:01.000Z</time>
      </trkpt>
      <trkpt lat="43.59549" lon="3.90225">
        <ele>17</ele>
        <time>2020-08-02T08:55:02.000Z</time>
      </trkpt>
      <trkpt lat="43.59552" lon="3.9022">
        <ele>17</ele>
        <time>2020-08-02T08:55:03.000Z</time>
      </trkpt>
      <trkpt lat="43.59554" lon="3.90217">
        <ele>17</ele>
        <time>2020-08-02T08:55:04.000Z</time>
      </trkpt>
      <trkpt lat="43.59557" lon="3.90213">
        <ele>17</ele>
        <time>2020-08-02T08:55:05.000Z</time>
      </trkpt>
      <trkpt lat="43.59559" lon="3.90209">
        <ele>17</ele>
        <time>2020-08-02T08:55:06.000Z</time>
      </trkpt>
      <trkpt lat="43.59562" lon="3.90206">
        <ele>17</ele>
        <time>2020-08-02T08:55:07.000Z</time>
      </trkpt>
      <trkpt lat="43.59566" lon="3.90203">
        <ele>17</ele>
        <time>2020-08-02T08:55:08.000Z</time>
      </trkpt>
      <trkpt lat="43.59569" lon="3.902">
        <ele>17</ele>
        <time>2020-08-02T08:55:09.000Z</time>
      </trkpt>
      <trkpt lat="43.59572" lon="3.90197">
        <ele>17</ele>
        <time>2020-08-02T08:55:10.000Z</time>
      </trkpt>
      <trkpt lat="43.59575" lon="3.90193">
        <ele>17</ele>
        <time>2020-08-02T08:55:11.000Z</time>
      </trkpt>
      <trkpt lat="43.59578" lon="3.90189">
        <ele>17</ele>
        <time>2020-08-02T08:55:12.000Z</time>
      </trkpt>
      <trkpt lat="43.59581" lon="3.90185">
        <ele>17</ele>
        <time>2020-08-02T08:55:13.000Z</time>
      </trkpt>
      <trkpt lat="43.59584" lon="3.90181">
        <ele>17</ele>
        <time>2020-08-02T08:55:14.000Z</time>
      </trkpt>
      <trkpt lat="43.59587" lon="3.90177">
        <ele>17</ele>
        <time>2020-08-02T08:55:15.000Z</time>
      </trkpt>
      <trkpt lat="43.5959" lon="3.90173">
        <ele>17</ele>
        <time>2020-08-02T08:55:16.000Z</time>
      </trkpt>
      <trkpt lat="43.59594" lon="3.90169">
        <ele>17</ele>
        <time>2020-08-02T08:55:17.000Z</time>
      </trkpt>
      <trkpt lat="43.59597" lon="3.90165">
        <ele>17</ele>
        <time>2020-08-02T08:55:18.000Z</time>
      </trkpt>
      <trkpt lat="43.596" lon="3.90161">
        <ele>17</ele>
        <time>2020-08-02T08:55:19.000Z</time>
      </trkpt>
      <trkpt lat="43.59603" lon="3.90156">
        <ele>17</ele>
        <time>2020-08-02T08:55:20.000Z</time>
      </trkpt>
      <trkpt lat="43.59606" lon="3.90152">
        <ele>17</ele>
        <time>2020-08-02T08:55:21.000Z</time>
      </trkpt>
      <trkpt lat="43.59608" lon="3.90148">
        <ele>17.044731320704</ele>
        <time>2020-08-02T08:55:22.000Z</time>
      </trkpt>
      <trkpt lat="43.59611" lon="3.90144">
        <ele>17.144134962472</ele>
        <time>2020-08-02T08:55:23.000Z</time>
      </trkpt>
      <trkpt lat="43.59614" lon="3.9014">
        <ele>17.243538604239</ele>
        <time>2020-08-02T08:55:24.000Z</time>
      </trkpt>
      <trkpt lat="43.59617" lon="3.90135">
        <ele>17.342942246007</ele>
        <time>2020-08-02T08:55:25.000Z</time>
      </trkpt>
      <trkpt lat="43.5962" lon="3.90131">
        <ele>17.442345887775</ele>
        <time>2020-08-02T08:55:26.000Z</time>
      </trkpt>
      <trkpt lat="43.59623" lon="3.90127">
        <ele>17.541749529542</ele>
        <time>2020-08-02T08:55:27.000Z</time>
      </trkpt>
      <trkpt lat="43.59626" lon="3.90123">
        <ele>17.64115317131</ele>
        <time>2020-08-02T08:55:28.000Z</time>
      </trkpt>
      <trkpt lat="43.59629" lon="3.90118">
        <ele>17.740556813078</ele>
        <time>2020-08-02T08:55:29.000Z</time>
      </trkpt>
      <trkpt lat="43.59632" lon="3.90114">
        <ele>17.839960454846</ele>
        <time>2020-08-02T08:55:30.000Z</time>
      </trkpt>
      <trkpt lat="43.59635" lon="3.90109">
        <ele>17.939364096613</ele>
        <time>2020-08-02T08:55:31.000Z</time>
      </trkpt>
      <trkpt lat="43.59637" lon="3.90105">
        <ele>18</ele>
        <time>2020-08-02T08:55:32.000Z</time>
      </trkpt>
      <trkpt lat="43.5964" lon="3.901">
        <ele>18</ele>
        <time>2020-08-02T08:55:33.000Z</time>
      </trkpt>
      <trkpt lat="43.59643" lon="3.90096">
        <ele>18</ele>
        <time>2020-08-02T08:55:34.000Z</time>
      </trkpt>
      <trkpt lat="43.59646" lon="3.90092">
        <ele>18</ele>
        <time>2020-08-02T08:55:35.000Z</time>
      </trkpt>
      <trkpt lat="43.59649" lon="3.90088">
        <ele>18</ele>
        <time>2020-08-02T08:55:36.000Z</time>
      </trkpt>
      <trkpt lat="43.59652" lon="3.90083">
        <ele>18</ele>
        <time>2020-08-02T08:55:37.000Z</time>
      </trkpt>
      <trkpt lat="43.59655" lon="3.90079">
        <ele>18</ele>
        <time>2020-08-02T08:55:38.000Z</time>
      </trkpt>
      <trkpt lat="43.59658" lon="3.90074">
        <ele>18</ele>
        <time>2020-08-02T08:55:39.000Z</time>
      </trkpt>
      <trkpt lat="43.59661" lon="3.9007">
        <ele>18</ele>
        <time>2020-08-02T08:55:40.000Z</time>
      </trkpt>
      <trkpt lat="43.59663" lon="3.90066">
        <ele>18</ele>
        <time>2020-08-02T08:55:41.000Z</time>
      </trkpt>
      <trkpt lat="43.59666" lon="3.90062">
        <ele>18</ele>
        <time>2020-08-02T08:55:42.000Z</time>
      </trkpt>
      <trkpt lat="43.59669" lon="3.90058">
        <ele>18</ele>
        <time>2020-08-02T08:55:43.000Z</time>
      </trkpt>
      <trkpt lat="43.59672" lon="3.90053">
        <ele>18</ele>
        <time>2020-08-02T08:55:44.000Z</time>
      </trkpt>
      <trkpt lat="43.59674" lon="3.90049">
        <ele>18</ele>
        <time>2020-08-02T08:55:45.000Z</time>
      </trkpt>
      <trkpt lat="43.59677" lon="3.90045">
        <ele>18</ele>
        <time>2020-08-02T08:55:46.000Z</time>
      </trkpt>
      <trkpt lat="43.5968" lon="3.90041">
        <ele>18</ele>
        <time>2020-08-02T08:55:47.000Z</time>
      </trkpt>
      <trkpt lat="43.59683" lon="3.90037">
        <ele>18</ele>
        <time>2020-08-02T08:55:48.000Z</time>
      </trkpt>
      <trkpt lat="43.59686" lon="3.90032">
        <ele>18</ele>
        <time>2020-08-02T08:55:49.000Z</time>
      </trkpt>
      <trkpt lat="43.59689" lon="3.90028">
        <ele>18</ele>
        <time>2020-08-02T08:55:50.000Z</time>
      </trkpt>
      <trkpt lat="43.59692" lon="3.90024">
        <ele>18</ele>
        <time>2020-08-02T08:55:51.000Z</time>
      </trkpt>
      <trkpt lat="43.59695" lon="3.90019">
        <ele>17.955179601594</ele>
        <time>2020-08-02T08:55:52.000Z</time>
      </trkpt>
      <trkpt lat="43.59697" lon="3.90015">
        <ele>17.855578007968</ele>
        <time>2020-08-02T08:55:53.000Z</time>
      </trkpt>
      <trkpt lat="43.597" lon="3.9001">
        <ele>17.755976414343</ele>
        <time>2020-08-02T08:55:54.000Z</time>
      </trkpt>
      <trkpt lat="43.59703" lon="3.90005">
        <ele>17.656374820717</ele>
        <time>2020-08-02T08:55:55.000Z</time>
      </trkpt>
      <trkpt lat="43.59706" lon="3.89999">
        <ele>17.556773227092</ele>
        <time>2020-08-02T08:55:56.000Z</time>
      </trkpt>
      <trkpt lat="43.59709" lon="3.89994">
        <ele>17.457171633466</ele>
        <time>2020-08-02T08:55:57.000Z</time>
      </trkpt>
      <trkpt lat="43.59713" lon="3.89988">
        <ele>17.357570039841</ele>
        <time>2020-08-02T08:55:58.000Z</time>
      </trkpt>
      <trkpt lat="43.59716" lon="3.89983">
        <ele>17.257968446215</ele>
        <time>2020-08-02T08:55:59.000Z</time>
      </trkpt>
      <trkpt lat="43.5972" lon="3.89978">
        <ele>17.15836685259</ele>
        <time>2020-08-02T08:56:00.000Z</time>
      </trkpt>
      <trkpt lat="43.59724" lon="3.89975">
        <ele>17.058765258964</ele>
        <time>2020-08-02T08:56:01.000Z</time>
      </trkpt>
      <trkpt lat="43.59727" lon="3.89972">
        <ele>17</ele>
        <time>2020-08-02T08:56:02.000Z</time>
      </trkpt>
      <trkpt lat="43.59729" lon="3.89968">
        <ele>17</ele>
        <time>2020-08-02T08:56:03.000Z</time>
      </trkpt>
      <trkpt lat="43.59732" lon="3.89965">
        <ele>17</ele>
        <time>2020-08-02T08:56:04.000Z</time>
      </trkpt>
      <trkpt lat="43.59734" lon="3.89962">
        <ele>17</ele>
        <time>2020-08-02T08:56:05.000Z</time>
      </trkpt>
      <trkpt lat="43.59737" lon="3.8996">
        <ele>17</ele>
        <time>2020-08-02T08:56:06.000Z</time>
      </trkpt>
      <trkpt lat="43.59739" lon="3.89957">
        <ele>17</ele>
        <time>2020-08-02T08:56:07.000Z</time>
      </trkpt>
      <trkpt lat="43.59742" lon="3.89955">
        <ele>17</ele>
        <time>2020-08-02T08:56:08.000Z</time>
      </trkpt>
      <trkpt lat="43.59746" lon="3.89952">
        <ele>17</ele>
        <time>2020-08-02T08:56:09.000Z</time>
      </trkpt>
      <trkpt lat="43.59749" lon="3.89949">
        <ele>17</ele>
        <time>2020-08-02T08:56:10.000Z</time>
      </trkpt>
      <trkpt lat="43.59752" lon="3.89946">
        <ele>17</ele>
        <time>2020-08-02T08:56:11.000Z</time>
      </trkpt>
      <trkpt lat="43.59755" lon="3.89944">
        <ele>17</ele>
        <time>2020-08-02T08:56:12.000Z</time>
      </trkpt>
      <trkpt lat="43.59759" lon="3.89942">
        <ele>17</ele>
        <time>2020-08-02T08:56:13.000Z</time>
      </trkpt>
      <trkpt lat="43.59762" lon="3.89939">
        <ele>17</ele>
        <time>2020-08-02T08:56:14.000Z</time>
      </trkpt>
      <trkpt lat="43.59765" lon="3.89936">
        <ele>17</ele>
        <time>2020-08-02T08:56:15.000Z</time>
      </trkpt>
      <trkpt lat="43.59768" lon="3.89933">
        <ele>17</ele>
        <time>2020-08-02T08:56:16.000Z</time>
      </trkpt>
      <trkpt lat="43.59771" lon="3.8993">
        <ele>17</ele>
        <time>2020-08-02T08:56:17.000Z</time>
      </trkpt>
      <trkpt lat="43.59774" lon="3.89928">
        <ele>17</ele>
        <time>2020-08-02T08:56:18.000Z</time>
      </trkpt>
      <trkpt lat="43.59778" lon="3.89925">
        <ele>17</ele>
        <time>2020-08-02T08:56:19.000Z</time>
      </trkpt>
      <trkpt lat="43.59781" lon="3.89923">
        <ele>17</ele>
        <time>2020-08-02T08:56:20.000Z</time>
      </trkpt>
      <trkpt lat="43.59785" lon="3.8992">
        <ele>17</ele>
        <time>2020-08-02T08:56:21.000Z</time>
      </trkpt>
      <trkpt lat="43.59789" lon="3.89918">
        <ele>17.04499968</ele>
        <time>2020-08-02T08:56:22.000Z</time>
      </trkpt>
      <trkpt lat="43.59793" lon="3.89916">
        <ele>17.14499968</ele>
        <time>2020-08-02T08:56:23.000Z</time>
      </trkpt>
      <trkpt lat="43.59797" lon="3.89913">
        <ele>17.24499968</ele>
        <time>2020-08-02T08:56:24.000Z</time>
      </trkpt>
      <trkpt lat="43.59801" lon="3.89911">
        <ele>17.34499968</ele>
        <time>2020-08-02T08:56:25.000Z</time>
      </trkpt>
      <trkpt lat="43.59805" lon="3.89909">
        <ele>17.44499968</ele>
        <time>2020-08-02T08:56:26.000Z</time>
      </trkpt>
      <trkpt lat="43.59809" lon="3.89906">
        <ele>17.54499968</ele>
        <time>2020-08-02T08:56:27.000Z</time>
      </trkpt>
      <trkpt lat="43.59813" lon="3.89905">
        <ele>17.64499968</ele>
        <time>2020-08-02T08:56:28.000Z</time>
      </trkpt>
      <trkpt lat="43.59817" lon="3.89903">
        <ele>17.74499968</ele>
        <time>2020-08-02T08:56:29.000Z</time>
      </trkpt>
      <trkpt lat="43.59821" lon="3.899">
        <ele>17.84499968</ele>
        <time>2020-08-02T08:56:30.000Z</time>
      </trkpt>
      <trkpt lat="43.59825" lon="3.89898">
        <ele>17.94499968</ele>
        <time>2020-08-02T08:56:31.000Z</time>
      </trkpt>
      <trkpt lat="43.59829" lon="3.89896">
        <ele>18</ele>
        <time>2020-08-02T08:56:32.000Z</time>
      </trkpt>
      <trkpt lat="43.59833" lon="3.89894">
        <ele>18</ele>
        <time>2020-08-02T08:56:33.000Z</time>
      </trkpt>
      <trkpt lat="43.59837" lon="3.89892">
        <ele>18</ele>
        <time>2020-08-02T08:56:34.000Z</time>
      </trkpt>
      <trkpt lat="43.59841" lon="3.8989">
        <ele>18</ele>
        <time>2020-08-02T08:56:35.000Z</time>
      </trkpt>
      <trkpt lat="43.59845" lon="3.89888">
        <ele>18</ele>
        <time>2020-08-02T08:56:36.000Z</time>
      </trkpt>
      <trkpt lat="43.59849" lon="3.89885">
        <ele>18</ele>
        <time>2020-08-02T08:56:37.000Z</time>
      </trkpt>
      <trkpt lat="43.59853" lon="3.89883">
        <ele>18</ele>
        <time>2020-08-02T08:56:38.000Z</time>
      </trkpt>
      <trkpt lat="43.59857" lon="3.8988">
        <ele>18</ele>
        <time>2020-08-02T08:56:39.000Z</time>
      </trkpt>
      <trkpt lat="43.59861" lon="3.89878">
        <ele>18</ele>
        <time>2020-08-02T08:56:40.000Z</time>
      </trkpt>
      <trkpt lat="43.59865" lon="3.89876">
        <ele>18</ele>
        <time>2020-08-02T08:56:41.000Z</time>
      </trkpt>
      <trkpt lat="43.59869" lon="3.89874">
        <ele>17.966068481321</ele>
        <time>2020-08-02T08:56:42.000Z</time>
      </trkpt>
      <trkpt lat="43.59874" lon="3.89872">
        <ele>17.766467555428</ele>
        <time>2020-08-02T08:56:43.000Z</time>
      </trkpt>
      <trkpt lat="43.59879" lon="3.8987">
        <ele>17.566866629536</ele>
        <time>2020-08-02T08:56:44.000Z</time>
      </trkpt>
      <trkpt lat="43.59884" lon="3.89868">
        <ele>17.367265703643</ele>
        <time>2020-08-02T08:56:45.000Z</time>
      </trkpt>
      <trkpt lat="43.59889" lon="3.89866">
        <ele>17.16766477775</ele>
        <time>2020-08-02T08:56:46.000Z</time>
      </trkpt>
      <trkpt lat="43.59894" lon="3.89864">
        <ele>16.968063851857</ele>
        <time>2020-08-02T08:56:47.000Z</time>
      </trkpt>
      <trkpt lat="43.59899" lon="3.89862">
        <ele>16.768462925964</ele>
        <time>2020-08-02T08:56:48.000Z</time>
      </trkpt>
      <trkpt lat="43.59904" lon="3.8986">
        <ele>16.568862000072</ele>
        <time>2020-08-02T08:56:49.000Z</time>
      </trkpt>
      <trkpt lat="43.59909" lon="3.89857">
        <ele>16.369261074179</ele>
        <time>2020-08-02T08:56:50.000Z</time>
      </trkpt>
      <trkpt lat="43.59914" lon="3.89855">
        <ele>16.169660148286</ele>
        <time>2020-08-02T08:56:51.000Z</time>
      </trkpt>
      <trkpt lat="43.59919" lon="3.89851">
        <ele>16</ele>
        <time>2020-08-02T08:56:52.000Z</time>
      </trkpt>
      <trkpt lat="43.59924" lon="3.89848">
        <ele>16</ele>
        <time>2020-08-02T08:56:53.000Z</time>
      </trkpt>
      <trkpt lat="43.59928" lon="3.89845">
        <ele>16</ele>
        <time>2020-08-02T08:56:54.000Z</time>
      </trkpt>
      <trkpt lat="43.59933" lon="3.89842">
        <ele>16</ele>
        <time>2020-08-02T08:56:55.000Z</time>
      </trkpt>
      <trkpt lat="43.59938" lon="3.89839">
        <ele>16</ele>
        <time>2020-08-02T08:56:56.000Z</time>
      </trkpt>
      <trkpt lat="43.59943" lon="3.89836">
        <ele>16</ele>
        <time>2020-08-02T08:56:57.000Z</time>
      </trkpt>
      <trkpt lat="43.59947" lon="3.89833">
        <ele>16</ele>
        <time>2020-08-02T08:56:58.000Z</time>
      </trkpt>
      <trkpt lat="43.59952" lon="3.89829">
        <ele>16</ele>
        <time>2020-08-02T08:56:59.000Z</time>
      </trkpt>
      <trkpt lat="43.59956" lon="3.89826">
        <ele>16</ele>
        <time>2020-08-02T08:57:00.000Z</time>
      </trkpt>
      <trkpt lat="43.5996" lon="3.89822">
        <ele>16</ele>
        <time>2020-08-02T08:57:01.000Z</time>
      </trkpt>
      <trkpt lat="43.59964" lon="3.89819">
        <ele>16.086788223503</ele>
        <time>2020-08-02T08:57:02.000Z</time>
      </trkpt>
      <trkpt lat="43.59968" lon="3.89816">
        <ele>16.279652313875</ele>
        <time>2020-08-02T08:57:03.000Z</time>
      </trkpt>
      <trkpt lat="43.59972" lon="3.89812">
        <ele>16.472516404248</ele>
        <time>2020-08-02T08:57:04.000Z</time>
      </trkpt>
      <trkpt lat="43.59976" lon="3.89809">
        <ele>16.665380494621</ele>
        <time>2020-08-02T08:57:05.000Z</time>
      </trkpt>
      <trkpt lat="43.5998" lon="3.89805">
        <ele>16.858244584993</ele>
        <time>2020-08-02T08:57:06.000Z</time>
      </trkpt>
      <trkpt lat="43.59984" lon="3.89802">
        <ele>17.051108675366</ele>
        <time>2020-08-02T08:57:07.000Z</time>
      </trkpt>
      <trkpt lat="43.59988" lon="3.89799">
        <ele>17.243972765739</ele>
        <time>2020-08-02T08:57:08.000Z</time>
      </trkpt>
      <trkpt lat="43.59992" lon="3.89795">
        <ele>17.436836856112</ele>
        <time>2020-08-02T08:57:09.000Z</time>
      </trkpt>
      <trkpt lat="43.59996" lon="3.89792">
        <ele>17.629700946484</ele>
        <time>2020-08-02T08:57:10.000Z</time>
      </trkpt>
      <trkpt lat="43.6" lon="3.89789">
        <ele>17.822565036857</ele>
        <time>2020-08-02T08:57:11.000Z</time>
      </trkpt>
      <trkpt lat="43.60004" lon="3.89785">
        <ele>18</ele>
        <time>2020-08-02T08:57:12.000Z</time>
      </trkpt>
      <trkpt lat="43.60007" lon="3.89781">
        <ele>18</ele>
        <time>2020-08-02T08:57:13.000Z</time>
      </trkpt>
      <trkpt lat="43.6001" lon="3.89777">
        <ele>18</ele>
        <time>2020-08-02T08:57:14.000Z</time>
      </trkpt>
      <trkpt lat="43.60014" lon="3.89773">
        <ele>18</ele>
        <time>2020-08-02T08:57:15.000Z</time>
      </trkpt>
      <trkpt lat="43.60018" lon="3.89769">
        <ele>18</ele>
        <time>2020-08-02T08:57:16.000Z</time>
      </trkpt>
      <trkpt lat="43.60022" lon="3.89764">
        <ele>18</ele>
        <time>2020-08-02T08:57:17.000Z</time>
      </trkpt>
      <trkpt lat="43.60026" lon="3.89757">
        <ele>18</ele>
        <time>2020-08-02T08:57:18.000Z</time>
      </trkpt>
      <trkpt lat="43.6003" lon="3.8975">
        <ele>18</ele>
        <time>2020-08-02T08:57:19.000Z</time>
      </trkpt>
      <trkpt lat="43.60035" lon="3.8974">
        <ele>18</ele>
        <time>2020-08-02T08:57:20.000Z</time>
      </trkpt>
      <trkpt lat="43.6004" lon="3.8973">
        <ele>18</ele>
        <time>2020-08-02T08:57:21.000Z</time>
      </trkpt>
      <trkpt lat="43.60045" lon="3.8972">
        <ele>17.95699968</ele>
        <time>2020-08-02T08:57:22.000Z</time>
      </trkpt>
      <trkpt lat="43.60051" lon="3.89711">
        <ele>17.85699968</ele>
        <time>2020-08-02T08:57:23.000Z</time>
      </trkpt>
      <trkpt lat="43.60056" lon="3.89703">
        <ele>17.75699968</ele>
        <time>2020-08-02T08:57:24.000Z</time>
      </trkpt>
      <trkpt lat="43.60061" lon="3.89695">
        <ele>17.65699968</ele>
        <time>2020-08-02T08:57:25.000Z</time>
      </trkpt>
      <trkpt lat="43.60066" lon="3.89688">
        <ele>17.55699968</ele>
        <time>2020-08-02T08:57:26.000Z</time>
      </trkpt>
      <trkpt lat="43.60072" lon="3.89682">
        <ele>17.45699968</ele>
        <time>2020-08-02T08:57:27.000Z</time>
      </trkpt>
      <trkpt lat="43.60076" lon="3.89677">
        <ele>17.35699968</ele>
        <time>2020-08-02T08:57:28.000Z</time>
      </trkpt>
      <trkpt lat="43.60081" lon="3.89671">
        <ele>17.25699968</ele>
        <time>2020-08-02T08:57:29.000Z</time>
      </trkpt>
      <trkpt lat="43.60085" lon="3.89664">
        <ele>17.15699968</ele>
        <time>2020-08-02T08:57:30.000Z</time>
      </trkpt>
      <trkpt lat="43.60088" lon="3.89658">
        <ele>17.05699968</ele>
        <time>2020-08-02T08:57:31.000Z</time>
      </trkpt>
      <trkpt lat="43.60091" lon="3.89652">
        <ele>16.873404396968</ele>
        <time>2020-08-02T08:57:32.000Z</time>
      </trkpt>
      <trkpt lat="43.60095" lon="3.89648">
        <ele>16.578998208754</ele>
        <time>2020-08-02T08:57:33.000Z</time>
      </trkpt>
      <trkpt lat="43.60099" lon="3.89644">
        <ele>16.28459202054</ele>
        <time>2020-08-02T08:57:34.000Z</time>
      </trkpt>
      <trkpt lat="43.60103" lon="3.8964">
        <ele>15.990185832326</ele>
        <time>2020-08-02T08:57:35.000Z</time>
      </trkpt>
      <trkpt lat="43.60107" lon="3.89635">
        <ele>15.695779644112</ele>
        <time>2020-08-02T08:57:36.000Z</time>
      </trkpt>
      <trkpt lat="43.60112" lon="3.89631">
        <ele>15.401373455898</ele>
        <time>2020-08-02T08:57:37.000Z</time>
      </trkpt>
      <trkpt lat="43.60116" lon="3.89626">
        <ele>15.106967267684</ele>
        <time>2020-08-02T08:57:38.000Z</time>
      </trkpt>
      <trkpt lat="43.60121" lon="3.89622">
        <ele>14.812561079471</ele>
        <time>2020-08-02T08:57:39.000Z</time>
      </trkpt>
      <trkpt lat="43.60125" lon="3.89619">
        <ele>14.518154891257</ele>
        <time>2020-08-02T08:57:40.000Z</time>
      </trkpt>
      <trkpt lat="43.6013" lon="3.89615">
        <ele>14.223748703043</ele>
        <time>2020-08-02T08:57:41.000Z</time>
      </trkpt>
      <trkpt lat="43.60136" lon="3.89612">
        <ele>14</ele>
        <time>2020-08-02T08:57:42.000Z</time>
      </trkpt>
      <trkpt lat="43.60141" lon="3.8961">
        <ele>14</ele>
        <time>2020-08-02T08:57:43.000Z</time>
      </trkpt>
      <trkpt lat="43.60147" lon="3.89608">
        <ele>14</ele>
        <time>2020-08-02T08:57:44.000Z</time>
      </trkpt>
      <trkpt lat="43.60152" lon="3.89607">
        <ele>14</ele>
        <time>2020-08-02T08:57:45.000Z</time>
      </trkpt>
      <trkpt lat="43.60158" lon="3.89607">
        <ele>14</ele>
        <time>2020-08-02T08:57:46.000Z</time>
      </trkpt>
      <trkpt lat="43.60163" lon="3.89607">
        <ele>14</ele>
        <time>2020-08-02T08:57:47.000Z</time>
      </trkpt>
      <trkpt lat="43.60169" lon="3.89608">
        <ele>14</ele>
        <time>2020-08-02T08:57:48.000Z</time>
      </trkpt>
      <trkpt lat="43.60174" lon="3.89609">
        <ele>14</ele>
        <time>2020-08-02T08:57:49.000Z</time>
      </trkpt>
      <trkpt lat="43.6018" lon="3.8961">
        <ele>14</ele>
        <time>2020-08-02T08:57:50.000Z</time>
      </trkpt>
      <trkpt lat="43.60185" lon="3.89611">
        <ele>14</ele>
        <time>2020-08-02T08:57:51.000Z</time>
      </trkpt>
      <trkpt lat="43.60191" lon="3.89613">
        <ele>13.956913534645</ele>
        <time>2020-08-02T08:57:52.000Z</time>
      </trkpt>
      <trkpt lat="43.60196" lon="3.89615">
        <ele>13.8567131981</ele>
        <time>2020-08-02T08:57:53.000Z</time>
      </trkpt>
      <trkpt lat="43.60201" lon="3.89617">
        <ele>13.756512861555</ele>
        <time>2020-08-02T08:57:54.000Z</time>
      </trkpt>
      <trkpt lat="43.60206" lon="3.89619">
        <ele>13.65631252501</ele>
        <time>2020-08-02T08:57:55.000Z</time>
      </trkpt>
      <trkpt lat="43.60212" lon="3.8962">
        <ele>13.556112188465</ele>
        <time>2020-08-02T08:57:56.000Z</time>
      </trkpt>
      <trkpt lat="43.60217" lon="3.89622">
        <ele>13.45591185192</ele>
        <time>2020-08-02T08:57:57.000Z</time>
      </trkpt>
      <trkpt lat="43.60222" lon="3.89624">
        <ele>13.355711515375</ele>
        <time>2020-08-02T08:57:58.000Z</time>
      </trkpt>
      <trkpt lat="43.60228" lon="3.89625">
        <ele>13.25551117883</ele>
        <time>2020-08-02T08:57:59.000Z</time>
      </trkpt>
      <trkpt lat="43.60234" lon="3.89627">
        <ele>13.155310842286</ele>
        <time>2020-08-02T08:58:00.000Z</time>
      </trkpt>
      <trkpt lat="43.60239" lon="3.89629">
        <ele>13.055110505741</ele>
        <time>2020-08-02T08:58:01.000Z</time>
      </trkpt>
      <trkpt lat="43.60245" lon="3.89631">
        <ele>12.95500032</ele>
        <time>2020-08-02T08:58:02.000Z</time>
      </trkpt>
      <trkpt lat="43.6025" lon="3.89633">
        <ele>12.85500032</ele>
        <time>2020-08-02T08:58:03.000Z</time>
      </trkpt>
      <trkpt lat="43.60255" lon="3.89635">
        <ele>12.75500032</ele>
        <time>2020-08-02T08:58:04.000Z</time>
      </trkpt>
      <trkpt lat="43.60261" lon="3.89637">
        <ele>12.65500032</ele>
        <time>2020-08-02T08:58:05.000Z</time>
      </trkpt>
      <trkpt lat="43.60266" lon="3.89639">
        <ele>12.55500032</ele>
        <time>2020-08-02T08:58:06.000Z</time>
      </trkpt>
      <trkpt lat="43.60271" lon="3.89641">
        <ele>12.45500032</ele>
        <time>2020-08-02T08:58:07.000Z</time>
      </trkpt>
      <trkpt lat="43.60275" lon="3.89643">
        <ele>12.35500032</ele>
        <time>2020-08-02T08:58:08.000Z</time>
      </trkpt>
      <trkpt lat="43.6028" lon="3.89645">
        <ele>12.25500032</ele>
        <time>2020-08-02T08:58:09.000Z</time>
      </trkpt>
      <trkpt lat="43.60285" lon="3.89646">
        <ele>12.15500032</ele>
        <time>2020-08-02T08:58:10.000Z</time>
      </trkpt>
      <trkpt lat="43.6029" lon="3.89648">
        <ele>12.05500032</ele>
        <time>2020-08-02T08:58:11.000Z</time>
      </trkpt>
      <trkpt lat="43.60295" lon="3.8965">
        <ele>12</ele>
        <time>2020-08-02T08:58:12.000Z</time>
      </trkpt>
      <trkpt lat="43.60299" lon="3.89652">
        <ele>12</ele>
        <time>2020-08-02T08:58:13.000Z</time>
      </trkpt>
      <trkpt lat="43.60304" lon="3.89654">
        <ele>12</ele>
        <time>2020-08-02T08:58:14.000Z</time>
      </trkpt>
      <trkpt lat="43.60309" lon="3.89656">
        <ele>12</ele>
        <time>2020-08-02T08:58:15.000Z</time>
      </trkpt>
      <trkpt lat="43.60313" lon="3.89659">
        <ele>12</ele>
        <time>2020-08-02T08:58:16.000Z</time>
      </trkpt>
      <trkpt lat="43.60318" lon="3.89662">
        <ele>12</ele>
        <time>2020-08-02T08:58:17.000Z</time>
      </trkpt>
      <trkpt lat="43.60322" lon="3.89665">
        <ele>12</ele>
        <time>2020-08-02T08:58:18.000Z</time>
      </trkpt>
      <trkpt lat="43.60326" lon="3.89668">
        <ele>12</ele>
        <time>2020-08-02T08:58:19.000Z</time>
      </trkpt>
      <trkpt lat="43.6033" lon="3.8967">
        <ele>12</ele>
        <time>2020-08-02T08:58:20.000Z</time>
      </trkpt>
      <trkpt lat="43.60333" lon="3.89673">
        <ele>12</ele>
        <time>2020-08-02T08:58:21.000Z</time>
      </trkpt>
      <trkpt lat="43.60337" lon="3.89676">
        <ele>12</ele>
        <time>2020-08-02T08:58:22.000Z</time>
      </trkpt>
      <trkpt lat="43.60341" lon="3.89679">
        <ele>12</ele>
        <time>2020-08-02T08:58:23.000Z</time>
      </trkpt>
      <trkpt lat="43.60344" lon="3.89682">
        <ele>12</ele>
        <time>2020-08-02T08:58:24.000Z</time>
      </trkpt>
      <trkpt lat="43.60348" lon="3.89686">
        <ele>12</ele>
        <time>2020-08-02T08:58:25.000Z</time>
      </trkpt>
      <trkpt lat="43.60352" lon="3.89689">
        <ele>12</ele>
        <time>2020-08-02T08:58:26.000Z</time>
      </trkpt>
      <trkpt lat="43.60356" lon="3.89693">
        <ele>12</ele>
        <time>2020-08-02T08:58:27.000Z</time>
      </trkpt>
      <trkpt lat="43.60359" lon="3.89697">
        <ele>12</ele>
        <time>2020-08-02T08:58:28.000Z</time>
      </trkpt>
      <trkpt lat="43.60363" lon="3.89701">
        <ele>12</ele>
        <time>2020-08-02T08:58:29.000Z</time>
      </trkpt>
      <trkpt lat="43.60366" lon="3.89705">
        <ele>12</ele>
        <time>2020-08-02T08:58:30.000Z</time>
      </trkpt>
      <trkpt lat="43.6037" lon="3.89709">
        <ele>12</ele>
        <time>2020-08-02T08:58:31.000Z</time>
      </trkpt>
      <trkpt lat="43.60374" lon="3.89713">
        <ele>12</ele>
        <time>2020-08-02T08:58:32.000Z</time>
      </trkpt>
      <trkpt lat="43.60377" lon="3.89716">
        <ele>12</ele>
        <time>2020-08-02T08:58:33.000Z</time>
      </trkpt>
      <trkpt lat="43.60381" lon="3.8972">
        <ele>12</ele>
        <time>2020-08-02T08:58:34.000Z</time>
      </trkpt>
      <trkpt lat="43.60385" lon="3.89723">
        <ele>12</ele>
        <time>2020-08-02T08:58:35.000Z</time>
      </trkpt>
      <trkpt lat="43.6039" lon="3.89726">
        <ele>12</ele>
        <time>2020-08-02T08:58:36.000Z</time>
      </trkpt>
      <trkpt lat="43.60394" lon="3.89728">
        <ele>12</ele>
        <time>2020-08-02T08:58:37.000Z</time>
      </trkpt>
      <trkpt lat="43.60399" lon="3.89731">
        <ele>12</ele>
        <time>2020-08-02T08:58:38.000Z</time>
      </trkpt>
      <trkpt lat="43.60405" lon="3.89733">
        <ele>12</ele>
        <time>2020-08-02T08:58:39.000Z</time>
      </trkpt>
      <trkpt lat="43.6041" lon="3.89737">
        <ele>12</ele>
        <time>2020-08-02T08:58:40.000Z</time>
      </trkpt>
      <trkpt lat="43.60414" lon="3.8974">
        <ele>12</ele>
        <time>2020-08-02T08:58:41.000Z</time>
      </trkpt>
      <trkpt lat="43.60419" lon="3.89742">
        <ele>11.970825252845</ele>
        <time>2020-08-02T08:58:42.000Z</time>
      </trkpt>
      <trkpt lat="43.60425" lon="3.89741">
        <ele>11.87022156634</ele>
        <time>2020-08-02T08:58:43.000Z</time>
      </trkpt>
      <trkpt lat="43.60431" lon="3.8974">
        <ele>11.769617879834</ele>
        <time>2020-08-02T08:58:44.000Z</time>
      </trkpt>
      <trkpt lat="43.60437" lon="3.89739">
        <ele>11.669014193329</ele>
        <time>2020-08-02T08:58:45.000Z</time>
      </trkpt>
      <trkpt lat="43.60442" lon="3.89739">
        <ele>11.568410506824</ele>
        <time>2020-08-02T08:58:46.000Z</time>
      </trkpt>
      <trkpt lat="43.60447" lon="3.89738">
        <ele>11.467806820318</ele>
        <time>2020-08-02T08:58:47.000Z</time>
      </trkpt>
      <trkpt lat="43.60453" lon="3.89738">
        <ele>11.367203133813</ele>
        <time>2020-08-02T08:58:48.000Z</time>
      </trkpt>
      <trkpt lat="43.60457" lon="3.89737">
        <ele>11.266599447308</ele>
        <time>2020-08-02T08:58:49.000Z</time>
      </trkpt>
      <trkpt lat="43.60462" lon="3.89737">
        <ele>11.165995760802</ele>
        <time>2020-08-02T08:58:50.000Z</time>
      </trkpt>
      <trkpt lat="43.60466" lon="3.89736">
        <ele>11.065392074297</ele>
        <time>2020-08-02T08:58:51.000Z</time>
      </trkpt>
      <trkpt lat="43.6047" lon="3.89736">
        <ele>11.035353835731</ele>
        <time>2020-08-02T08:58:52.000Z</time>
      </trkpt>
      <trkpt lat="43.60474" lon="3.89737">
        <ele>11.136363871441</ele>
        <time>2020-08-02T08:58:53.000Z</time>
      </trkpt>
      <trkpt lat="43.60479" lon="3.89737">
        <ele>11.237373907152</ele>
        <time>2020-08-02T08:58:54.000Z</time>
      </trkpt>
      <trkpt lat="43.60483" lon="3.89737">
        <ele>11.338383942863</ele>
        <time>2020-08-02T08:58:55.000Z</time>
      </trkpt>
      <trkpt lat="43.60488" lon="3.89737">
        <ele>11.439393978574</ele>
        <time>2020-08-02T08:58:56.000Z</time>
      </trkpt>
      <trkpt lat="43.60492" lon="3.89736">
        <ele>11.540404014284</ele>
        <time>2020-08-02T08:58:57.000Z</time>
      </trkpt>
      <trkpt lat="43.60497" lon="3.89736">
        <ele>11.641414049995</ele>
        <time>2020-08-02T08:58:58.000Z</time>
      </trkpt>
      <trkpt lat="43.60501" lon="3.89736">
        <ele>11.742424085706</ele>
        <time>2020-08-02T08:58:59.000Z</time>
      </trkpt>
      <trkpt lat="43.60506" lon="3.89736">
        <ele>11.843434121416</ele>
        <time>2020-08-02T08:59:00.000Z</time>
      </trkpt>
      <trkpt lat="43.6051" lon="3.89735">
        <ele>11.944444157127</ele>
        <time>2020-08-02T08:59:01.000Z</time>
      </trkpt>
      <trkpt lat="43.60515" lon="3.89735">
        <ele>11.95500032</ele>
        <time>2020-08-02T08:59:02.000Z</time>
      </trkpt>
      <trkpt lat="43.60519" lon="3.89735">
        <ele>11.85500032</ele>
        <time>2020-08-02T08:59:03.000Z</time>
      </trkpt>
      <trkpt lat="43.60524" lon="3.89736">
        <ele>11.75500032</ele>
        <time>2020-08-02T08:59:04.000Z</time>
      </trkpt>
      <trkpt lat="43.60528" lon="3.89735">
        <ele>11.65500032</ele>
        <time>2020-08-02T08:59:05.000Z</time>
      </trkpt>
      <trkpt lat="43.60533" lon="3.89735">
        <ele>11.55500032</ele>
        <time>2020-08-02T08:59:06.000Z</time>
      </trkpt>
      <trkpt lat="43.60537" lon="3.89736">
        <ele>11.45500032</ele>
        <time>2020-08-02T08:59:07.000Z</time>
      </trkpt>
      <trkpt lat="43.60541" lon="3.89736">
        <ele>11.35500032</ele>
        <time>2020-08-02T08:59:08.000Z</time>
      </trkpt>
      <trkpt lat="43.60545" lon="3.89738">
        <ele>11.25500032</ele>
        <time>2020-08-02T08:59:09.000Z</time>
      </trkpt>
      <trkpt lat="43.6055" lon="3.89739">
        <ele>11.15500032</ele>
        <time>2020-08-02T08:59:10.000Z</time>
      </trkpt>
      <trkpt lat="43.60554" lon="3.89738">
        <ele>11.05500032</ele>
        <time>2020-08-02T08:59:11.000Z</time>
      </trkpt>
      <trkpt lat="43.60558" lon="3.89737">
        <ele>11</ele>
        <time>2020-08-02T08:59:12.000Z</time>
      </trkpt>
      <trkpt lat="43.60563" lon="3.89737">
        <ele>11</ele>
        <time>2020-08-02T08:59:13.000Z</time>
      </trkpt>
      <trkpt lat="43.60567" lon="3.89737">
        <ele>11</ele>
        <time>2020-08-02T08:59:14.000Z</time>
      </trkpt>
      <trkpt lat="43.60571" lon="3.89736">
        <ele>11</ele>
        <time>2020-08-02T08:59:15.000Z</time>
      </trkpt>
      <trkpt lat="43.60575" lon="3.89737">
        <ele>11</ele>
        <time>2020-08-02T08:59:16.000Z</time>
      </trkpt>
      <trkpt lat="43.6058" lon="3.89738">
        <ele>11</ele>
        <time>2020-08-02T08:59:17.000Z</time>
      </trkpt>
      <trkpt lat="43.60583" lon="3.89739">
        <ele>11</ele>
        <time>2020-08-02T08:59:18.000Z</time>
      </trkpt>
      <trkpt lat="43.60587" lon="3.8974">
        <ele>11</ele>
        <time>2020-08-02T08:59:19.000Z</time>
      </trkpt>
      <trkpt lat="43.60591" lon="3.8974">
        <ele>11</ele>
        <time>2020-08-02T08:59:20.000Z</time>
      </trkpt>
      <trkpt lat="43.60595" lon="3.89739">
        <ele>11</ele>
        <time>2020-08-02T08:59:21.000Z</time>
      </trkpt>
      <trkpt lat="43.60598" lon="3.89738">
        <ele>11.043774007782</ele>
        <time>2020-08-02T08:59:22.000Z</time>
      </trkpt>
      <trkpt lat="43.60601" lon="3.89739">
        <ele>11.141050272373</ele>
        <time>2020-08-02T08:59:23.000Z</time>
      </trkpt>
      <trkpt lat="43.60604" lon="3.8974">
        <ele>11.238326536965</ele>
        <time>2020-08-02T08:59:24.000Z</time>
      </trkpt>
      <trkpt lat="43.60605" lon="3.89741">
        <ele>11.335602801556</ele>
        <time>2020-08-02T08:59:25.000Z</time>
      </trkpt>
      <trkpt lat="43.60608" lon="3.89742">
        <ele>11.432879066148</ele>
        <time>2020-08-02T08:59:26.000Z</time>
      </trkpt>
      <trkpt lat="43.6061" lon="3.89743">
        <ele>11.530155330739</ele>
        <time>2020-08-02T08:59:27.000Z</time>
      </trkpt>
      <trkpt lat="43.60613" lon="3.89744">
        <ele>11.627431595331</ele>
        <time>2020-08-02T08:59:28.000Z</time>
      </trkpt>
      <trkpt lat="43.60617" lon="3.89746">
        <ele>11.724707859922</ele>
        <time>2020-08-02T08:59:29.000Z</time>
      </trkpt>
      <trkpt lat="43.6062" lon="3.89747">
        <ele>11.821984124514</ele>
        <time>2020-08-02T08:59:30.000Z</time>
      </trkpt>
      <trkpt lat="43.60624" lon="3.89749">
        <ele>11.919260389105</ele>
        <time>2020-08-02T08:59:31.000Z</time>
      </trkpt>
      <trkpt lat="43.60627" lon="3.8975">
        <ele>12</ele>
        <time>2020-08-02T08:59:32.000Z</time>
      </trkpt>
      <trkpt lat="43.6063" lon="3.89751">
        <ele>12</ele>
        <time>2020-08-02T08:59:33.000Z</time>
      </trkpt>
      <trkpt lat="43.60632" lon="3.89752">
        <ele>12</ele>
        <time>2020-08-02T08:59:34.000Z</time>
      </trkpt>
      <trkpt lat="43.60635" lon="3.89752">
        <ele>12</ele>
        <time>2020-08-02T08:59:35.000Z</time>
      </trkpt>
      <trkpt lat="43.60638" lon="3.89753">
        <ele>12</ele>
        <time>2020-08-02T08:59:36.000Z</time>
      </trkpt>
      <trkpt lat="43.6064" lon="3.89753">
        <ele>12</ele>
        <time>2020-08-02T08:59:37.000Z</time>
      </trkpt>
      <trkpt lat="43.60643" lon="3.89753">
        <ele>12</ele>
        <time>2020-08-02T08:59:38.000Z</time>
      </trkpt>
      <trkpt lat="43.60647" lon="3.89753">
        <ele>12</ele>
        <time>2020-08-02T08:59:39.000Z</time>
      </trkpt>
      <trkpt lat="43.6065" lon="3.89752">
        <ele>12</ele>
        <time>2020-08-02T08:59:40.000Z</time>
      </trkpt>
      <trkpt lat="43.60653" lon="3.89751">
        <ele>12</ele>
        <time>2020-08-02T08:59:41.000Z</time>
      </trkpt>
      <trkpt lat="43.60657" lon="3.8975">
        <ele>12.04499968</ele>
        <time>2020-08-02T08:59:42.000Z</time>
      </trkpt>
      <trkpt lat="43.6066" lon="3.89749">
        <ele>12.14499968</ele>
        <time>2020-08-02T08:59:43.000Z</time>
      </trkpt>
      <trkpt lat="43.60664" lon="3.89749">
        <ele>12.24499968</ele>
        <time>2020-08-02T08:59:44.000Z</time>
      </trkpt>
      <trkpt lat="43.60667" lon="3.89748">
        <ele>12.34499968</ele>
        <time>2020-08-02T08:59:45.000Z</time>
      </trkpt>
      <trkpt lat="43.6067" lon="3.89746">
        <ele>12.44499968</ele>
        <time>2020-08-02T08:59:46.000Z</time>
      </trkpt>
      <trkpt lat="43.60673" lon="3.89744">
        <ele>12.54499968</ele>
        <time>2020-08-02T08:59:47.000Z</time>
      </trkpt>
      <trkpt lat="43.60675" lon="3.8974">
        <ele>12.64499968</ele>
        <time>2020-08-02T08:59:48.000Z</time>
      </trkpt>
      <trkpt lat="43.60676" lon="3.89734">
        <ele>12.74499968</ele>
        <time>2020-08-02T08:59:49.000Z</time>
      </trkpt>
      <trkpt lat="43.60676" lon="3.89727">
        <ele>12.84499968</ele>
        <time>2020-08-02T08:59:50.000Z</time>
      </trkpt>
      <trkpt lat="43.60677" lon="3.89721">
        <ele>12.94499968</ele>
        <time>2020-08-02T08:59:51.000Z</time>
      </trkpt>
      <trkpt lat="43.60677" lon="3.89714">
        <ele>13.04451005515</ele>
        <time>2020-08-02T08:59:52.000Z</time>
      </trkpt>
      <trkpt lat="43.60678" lon="3.89708">
        <ele>13.143421992191</ele>
        <time>2020-08-02T08:59:53.000Z</time>
      </trkpt>
      <trkpt lat="43.60678" lon="3.89702">
        <ele>13.242333929232</ele>
        <time>2020-08-02T08:59:54.000Z</time>
      </trkpt>
      <trkpt lat="43.60679" lon="3.89696">
        <ele>13.341245866272</ele>
        <time>2020-08-02T08:59:55.000Z</time>
      </trkpt>
      <trkpt lat="43.6068" lon="3.8969">
        <ele>13.440157803313</ele>
        <time>2020-08-02T08:59:56.000Z</time>
      </trkpt>
      <trkpt lat="43.6068" lon="3.89685">
        <ele>13.539069740354</ele>
        <time>2020-08-02T08:59:57.000Z</time>
      </trkpt>
      <trkpt lat="43.60681" lon="3.8968">
        <ele>13.637981677394</ele>
        <time>2020-08-02T08:59:58.000Z</time>
      </trkpt>
      <trkpt lat="43.60684" lon="3.89676">
        <ele>13.736893614435</ele>
        <time>2020-08-02T08:59:59.000Z</time>
      </trkpt>
      <trkpt lat="43.60686" lon="3.89674">
        <ele>13.835805551476</ele>
        <time>2020-08-02T09:00:00.000Z</time>
      </trkpt>
      <trkpt lat="43.60688" lon="3.89673">
        <ele>13.934717488517</ele>
        <time>2020-08-02T09:00:01.000Z</time>
      </trkpt>
      <trkpt lat="43.6069" lon="3.89673">
        <ele>14</ele>
        <time>2020-08-02T09:00:02.000Z</time>
      </trkpt>
      <trkpt lat="43.60693" lon="3.89674">
        <ele>14</ele>
        <time>2020-08-02T09:00:03.000Z</time>
      </trkpt>
      <trkpt lat="43.60697" lon="3.89674">
        <ele>14</ele>
        <time>2020-08-02T09:00:04.000Z</time>
      </trkpt>
      <trkpt lat="43.60701" lon="3.89674">
        <ele>14</ele>
        <time>2020-08-02T09:00:05.000Z</time>
      </trkpt>
      <trkpt lat="43.60705" lon="3.89674">
        <ele>14</ele>
        <time>2020-08-02T09:00:06.000Z</time>
      </trkpt>
      <trkpt lat="43.60709" lon="3.89675">
        <ele>14</ele>
        <time>2020-08-02T09:00:07.000Z</time>
      </trkpt>
      <trkpt lat="43.60712" lon="3.89675">
        <ele>14</ele>
        <time>2020-08-02T09:00:08.000Z</time>
      </trkpt>
      <trkpt lat="43.60715" lon="3.89676">
        <ele>14</ele>
        <time>2020-08-02T09:00:09.000Z</time>
      </trkpt>
      <trkpt lat="43.60718" lon="3.89676">
        <ele>14</ele>
        <time>2020-08-02T09:00:10.000Z</time>
      </trkpt>
      <trkpt lat="43.60722" lon="3.89677">
        <ele>14</ele>
        <time>2020-08-02T09:00:11.000Z</time>
      </trkpt>
      <trkpt lat="43.60725" lon="3.89678">
        <ele>14</ele>
        <time>2020-08-02T09:00:12.000Z</time>
      </trkpt>
      <trkpt lat="43.60728" lon="3.89678">
        <ele>14</ele>
        <time>2020-08-02T09:00:13.000Z</time>
      </trkpt>
      <trkpt lat="43.60732" lon="3.89677">
        <ele>14</ele>
        <time>2020-08-02T09:00:14.000Z</time>
      </trkpt>
      <trkpt lat="43.60735" lon="3.89677">
        <ele>14</ele>
        <time>2020-08-02T09:00:15.000Z</time>
      </trkpt>
      <trkpt lat="43.60738" lon="3.89676">
        <ele>14</ele>
        <time>2020-08-02T09:00:16.000Z</time>
      </trkpt>
      <trkpt lat="43.60742" lon="3.89676">
        <ele>14</ele>
        <time>2020-08-02T09:00:17.000Z</time>
      </trkpt>
      <trkpt lat="43.60746" lon="3.89677">
        <ele>14</ele>
        <time>2020-08-02T09:00:18.000Z</time>
      </trkpt>
      <trkpt lat="43.6075" lon="3.89678">
        <ele>14</ele>
        <time>2020-08-02T09:00:19.000Z</time>
      </trkpt>
      <trkpt lat="43.60754" lon="3.89678">
        <ele>14</ele>
        <time>2020-08-02T09:00:20.000Z</time>
      </trkpt>
      <trkpt lat="43.60758" lon="3.89679">
        <ele>14</ele>
        <time>2020-08-02T09:00:21.000Z</time>
      </trkpt>
      <trkpt lat="43.60762" lon="3.8968">
        <ele>14.04499968</ele>
        <time>2020-08-02T09:00:22.000Z</time>
      </trkpt>
      <trkpt lat="43.60766" lon="3.8968">
        <ele>14.14499968</ele>
        <time>2020-08-02T09:00:23.000Z</time>
      </trkpt>
      <trkpt lat="43.6077" lon="3.8968">
        <ele>14.24499968</ele>
        <time>2020-08-02T09:00:24.000Z</time>
      </trkpt>
      <trkpt lat="43.60774" lon="3.89681">
        <ele>14.34499968</ele>
        <time>2020-08-02T09:00:25.000Z</time>
      </trkpt>
      <trkpt lat="43.60778" lon="3.89681">
        <ele>14.44499968</ele>
        <time>2020-08-02T09:00:26.000Z</time>
      </trkpt>
      <trkpt lat="43.60782" lon="3.89682">
        <ele>14.54499968</ele>
        <time>2020-08-02T09:00:27.000Z</time>
      </trkpt>
      <trkpt lat="43.60786" lon="3.89682">
        <ele>14.64499968</ele>
        <time>2020-08-02T09:00:28.000Z</time>
      </trkpt>
      <trkpt lat="43.6079" lon="3.89682">
        <ele>14.74499968</ele>
        <time>2020-08-02T09:00:29.000Z</time>
      </trkpt>
      <trkpt lat="43.60794" lon="3.89683">
        <ele>14.84499968</ele>
        <time>2020-08-02T09:00:30.000Z</time>
      </trkpt>
      <trkpt lat="43.60797" lon="3.89683">
        <ele>14.94499968</ele>
        <time>2020-08-02T09:00:31.000Z</time>
      </trkpt>
      <trkpt lat="43.60801" lon="3.89684">
        <ele>15.04499968</ele>
        <time>2020-08-02T09:00:32.000Z</time>
      </trkpt>
      <trkpt lat="43.60806" lon="3.89685">
        <ele>15.14499968</ele>
        <time>2020-08-02T09:00:33.000Z</time>
      </trkpt>
      <trkpt lat="43.6081" lon="3.89685">
        <ele>15.24499968</ele>
        <time>2020-08-02T09:00:34.000Z</time>
      </trkpt>
      <trkpt lat="43.60814" lon="3.89686">
        <ele>15.34499968</ele>
        <time>2020-08-02T09:00:35.000Z</time>
      </trkpt>
      <trkpt lat="43.60818" lon="3.89687">
        <ele>15.44499968</ele>
        <time>2020-08-02T09:00:36.000Z</time>
      </trkpt>
      <trkpt lat="43.60822" lon="3.89688">
        <ele>15.54499968</ele>
        <time>2020-08-02T09:00:37.000Z</time>
      </trkpt>
      <trkpt lat="43.60826" lon="3.89688">
        <ele>15.64499968</ele>
        <time>2020-08-02T09:00:38.000Z</time>
      </trkpt>
      <trkpt lat="43.6083" lon="3.89688">
        <ele>15.74499968</ele>
        <time>2020-08-02T09:00:39.000Z</time>
      </trkpt>
      <trkpt lat="43.60834" lon="3.89689">
        <ele>15.84499968</ele>
        <time>2020-08-02T09:00:40.000Z</time>
      </trkpt>
      <trkpt lat="43.60838" lon="3.8969">
        <ele>15.94499968</ele>
        <time>2020-08-02T09:00:41.000Z</time>
      </trkpt>
      <trkpt lat="43.60842" lon="3.8969">
        <ele>16.04499968</ele>
        <time>2020-08-02T09:00:42.000Z</time>
      </trkpt>
      <trkpt lat="43.60846" lon="3.89691">
        <ele>16.14499968</ele>
        <time>2020-08-02T09:00:43.000Z</time>
      </trkpt>
      <trkpt lat="43.6085" lon="3.89692">
        <ele>16.24499968</ele>
        <time>2020-08-02T09:00:44.000Z</time>
      </trkpt>
      <trkpt lat="43.60854" lon="3.89692">
        <ele>16.34499968</ele>
        <time>2020-08-02T09:00:45.000Z</time>
      </trkpt>
      <trkpt lat="43.60857" lon="3.89692">
        <ele>16.44499968</ele>
        <time>2020-08-02T09:00:46.000Z</time>
      </trkpt>
      <trkpt lat="43.6086" lon="3.89692">
        <ele>16.54499968</ele>
        <time>2020-08-02T09:00:47.000Z</time>
      </trkpt>
      <trkpt lat="43.60863" lon="3.89693">
        <ele>16.64499968</ele>
        <time>2020-08-02T09:00:48.000Z</time>
      </trkpt>
      <trkpt lat="43.60867" lon="3.89693">
        <ele>16.74499968</ele>
        <time>2020-08-02T09:00:49.000Z</time>
      </trkpt>
      <trkpt lat="43.6087" lon="3.89692">
        <ele>16.84499968</ele>
        <time>2020-08-02T09:00:50.000Z</time>
      </trkpt>
      <trkpt lat="43.60873" lon="3.89692">
        <ele>16.94499968</ele>
        <time>2020-08-02T09:00:51.000Z</time>
      </trkpt>
      <trkpt lat="43.60876" lon="3.89692">
        <ele>17.043689036855</ele>
        <time>2020-08-02T09:00:52.000Z</time>
      </trkpt>
      <trkpt lat="43.60878" lon="3.89691">
        <ele>17.140776475822</ele>
        <time>2020-08-02T09:00:53.000Z</time>
      </trkpt>
      <trkpt lat="43.6088" lon="3.89689">
        <ele>17.237863914789</ele>
        <time>2020-08-02T09:00:54.000Z</time>
      </trkpt>
      <trkpt lat="43.60881" lon="3.89687">
        <ele>17.334951353756</ele>
        <time>2020-08-02T09:00:55.000Z</time>
      </trkpt>
      <trkpt lat="43.60882" lon="3.89684">
        <ele>17.432038792723</ele>
        <time>2020-08-02T09:00:56.000Z</time>
      </trkpt>
      <trkpt lat="43.60881" lon="3.8968">
        <ele>17.52912623169</ele>
        <time>2020-08-02T09:00:57.000Z</time>
      </trkpt>
      <trkpt lat="43.60881" lon="3.89675">
        <ele>17.626213670657</ele>
        <time>2020-08-02T09:00:58.000Z</time>
      </trkpt>
      <trkpt lat="43.60881" lon="3.8967">
        <ele>17.723301109624</ele>
        <time>2020-08-02T09:00:59.000Z</time>
      </trkpt>
      <trkpt lat="43.60881" lon="3.89665">
        <ele>17.820388548591</ele>
        <time>2020-08-02T09:01:00.000Z</time>
      </trkpt>
      <trkpt lat="43.60882" lon="3.89661">
        <ele>17.917475987558</ele>
        <time>2020-08-02T09:01:01.000Z</time>
      </trkpt>
      <trkpt lat="43.60882" lon="3.89656">
        <ele>18.01546423722</ele>
        <time>2020-08-02T09:01:02.000Z</time>
      </trkpt>
      <trkpt lat="43.60882" lon="3.89652">
        <ele>18.118556952705</ele>
        <time>2020-08-02T09:01:03.000Z</time>
      </trkpt>
      <trkpt lat="43.60883" lon="3.89647">
        <ele>18.22164966819</ele>
        <time>2020-08-02T09:01:04.000Z</time>
      </trkpt>
      <trkpt lat="43.60883" lon="3.89643">
        <ele>18.324742383675</ele>
        <time>2020-08-02T09:01:05.000Z</time>
      </trkpt>
      <trkpt lat="43.60883" lon="3.89639">
        <ele>18.42783509916</ele>
        <time>2020-08-02T09:01:06.000Z</time>
      </trkpt>
      <trkpt lat="43.60883" lon="3.89635">
        <ele>18.530927814646</ele>
        <time>2020-08-02T09:01:07.000Z</time>
      </trkpt>
      <trkpt lat="43.60882" lon="3.89632">
        <ele>18.634020530131</ele>
        <time>2020-08-02T09:01:08.000Z</time>
      </trkpt>
      <trkpt lat="43.6088" lon="3.89629">
        <ele>18.737113245616</ele>
        <time>2020-08-02T09:01:09.000Z</time>
      </trkpt>
      <trkpt lat="43.60877" lon="3.89628">
        <ele>18.840205961101</ele>
        <time>2020-08-02T09:01:10.000Z</time>
      </trkpt>
      <trkpt lat="43.60874" lon="3.89627">
        <ele>18.943298676586</ele>
        <time>2020-08-02T09:01:11.000Z</time>
      </trkpt>
      <trkpt lat="43.60871" lon="3.89626">
        <ele>19.04499968</ele>
        <time>2020-08-02T09:01:12.000Z</time>
      </trkpt>
      <trkpt lat="43.60867" lon="3.89625">
        <ele>19.14499968</ele>
        <time>2020-08-02T09:01:13.000Z</time>
      </trkpt>
      <trkpt lat="43.60864" lon="3.89624">
        <ele>19.24499968</ele>
        <time>2020-08-02T09:01:14.000Z</time>
      </trkpt>
      <trkpt lat="43.6086" lon="3.89623">
        <ele>19.34499968</ele>
        <time>2020-08-02T09:01:15.000Z</time>
      </trkpt>
      <trkpt lat="43.60856" lon="3.89622">
        <ele>19.44499968</ele>
        <time>2020-08-02T09:01:16.000Z</time>
      </trkpt>
      <trkpt lat="43.60852" lon="3.8962">
        <ele>19.54499968</ele>
        <time>2020-08-02T09:01:17.000Z</time>
      </trkpt>
      <trkpt lat="43.60849" lon="3.89618">
        <ele>19.64499968</ele>
        <time>2020-08-02T09:01:18.000Z</time>
      </trkpt>
      <trkpt lat="43.60845" lon="3.89617">
        <ele>19.74499968</ele>
        <time>2020-08-02T09:01:19.000Z</time>
      </trkpt>
      <trkpt lat="43.6084" lon="3.89615">
        <ele>19.84499968</ele>
        <time>2020-08-02T09:01:20.000Z</time>
      </trkpt>
      <trkpt lat="43.60836" lon="3.89614">
        <ele>19.94499968</ele>
        <time>2020-08-02T09:01:21.000Z</time>
      </trkpt>
      <trkpt lat="43.60832" lon="3.89613">
        <ele>20</ele>
        <time>2020-08-02T09:01:22.000Z</time>
      </trkpt>
      <trkpt lat="43.60828" lon="3.89613">
        <ele>20</ele>
        <time>2020-08-02T09:01:23.000Z</time>
      </trkpt>
      <trkpt lat="43.60824" lon="3.89612">
        <ele>20</ele>
        <time>2020-08-02T09:01:24.000Z</time>
      </trkpt>
      <trkpt lat="43.6082" lon="3.89612">
        <ele>20</ele>
        <time>2020-08-02T09:01:25.000Z</time>
      </trkpt>
      <trkpt lat="43.60816" lon="3.89611">
        <ele>20</ele>
        <time>2020-08-02T09:01:26.000Z</time>
      </trkpt>
      <trkpt lat="43.60812" lon="3.8961">
        <ele>20</ele>
        <time>2020-08-02T09:01:27.000Z</time>
      </trkpt>
      <trkpt lat="43.60808" lon="3.89607">
        <ele>20</ele>
        <time>2020-08-02T09:01:28.000Z</time>
      </trkpt>
      <trkpt lat="43.60805" lon="3.89604">
        <ele>20</ele>
        <time>2020-08-02T09:01:29.000Z</time>
      </trkpt>
      <trkpt lat="43.60802" lon="3.89601">
        <ele>20</ele>
        <time>2020-08-02T09:01:30.000Z</time>
      </trkpt>
      <trkpt lat="43.60798" lon="3.89598">
        <ele>20</ele>
        <time>2020-08-02T09:01:31.000Z</time>
      </trkpt>
      <trkpt lat="43.60795" lon="3.89596">
        <ele>20.080401984192</ele>
        <time>2020-08-02T09:01:32.000Z</time>
      </trkpt>
      <trkpt lat="43.60791" lon="3.89595">
        <ele>20.281406944673</ele>
        <time>2020-08-02T09:01:33.000Z</time>
      </trkpt>
      <trkpt lat="43.60788" lon="3.89593">
        <ele>20.482411905154</ele>
        <time>2020-08-02T09:01:34.000Z</time>
      </trkpt>
      <trkpt lat="43.60785" lon="3.89592">
        <ele>20.683416865635</ele>
        <time>2020-08-02T09:01:35.000Z</time>
      </trkpt>
      <trkpt lat="43.60781" lon="3.8959">
        <ele>20.884421826116</ele>
        <time>2020-08-02T09:01:36.000Z</time>
      </trkpt>
      <trkpt lat="43.60778" lon="3.89589">
        <ele>21.085426786596</ele>
        <time>2020-08-02T09:01:37.000Z</time>
      </trkpt>
      <trkpt lat="43.60775" lon="3.89588">
        <ele>21.286431747077</ele>
        <time>2020-08-02T09:01:38.000Z</time>
      </trkpt>
      <trkpt lat="43.60772" lon="3.89588">
        <ele>21.487436707558</ele>
        <time>2020-08-02T09:01:39.000Z</time>
      </trkpt>
      <trkpt lat="43.60769" lon="3.89587">
        <ele>21.688441668039</ele>
        <time>2020-08-02T09:01:40.000Z</time>
      </trkpt>
      <trkpt lat="43.60767" lon="3.89585">
        <ele>21.88944662852</ele>
        <time>2020-08-02T09:01:41.000Z</time>
      </trkpt>
      <trkpt lat="43.60766" lon="3.89582">
        <ele>21.95500032</ele>
        <time>2020-08-02T09:01:42.000Z</time>
      </trkpt>
      <trkpt lat="43.60765" lon="3.89578">
        <ele>21.85500032</ele>
        <time>2020-08-02T09:01:43.000Z</time>
      </trkpt>
      <trkpt lat="43.60766" lon="3.89573">
        <ele>21.75500032</ele>
        <time>2020-08-02T09:01:44.000Z</time>
      </trkpt>
      <trkpt lat="43.60766" lon="3.89569">
        <ele>21.65500032</ele>
        <time>2020-08-02T09:01:45.000Z</time>
      </trkpt>
      <trkpt lat="43.60766" lon="3.89564">
        <ele>21.55500032</ele>
        <time>2020-08-02T09:01:46.000Z</time>
      </trkpt>
      <trkpt lat="43.60767" lon="3.89558">
        <ele>21.45500032</ele>
        <time>2020-08-02T09:01:47.000Z</time>
      </trkpt>
      <trkpt lat="43.60767" lon="3.89553">
        <ele>21.35500032</ele>
        <time>2020-08-02T09:01:48.000Z</time>
      </trkpt>
      <trkpt lat="43.60767" lon="3.89547">
        <ele>21.25500032</ele>
        <time>2020-08-02T09:01:49.000Z</time>
      </trkpt>
      <trkpt lat="43.60767" lon="3.8954">
        <ele>21.15500032</ele>
        <time>2020-08-02T09:01:50.000Z</time>
      </trkpt>
      <trkpt lat="43.60768" lon="3.89534">
        <ele>21.05500032</ele>
        <time>2020-08-02T09:01:51.000Z</time>
      </trkpt>
      <trkpt lat="43.60768" lon="3.89528">
        <ele>21.04499968</ele>
        <time>2020-08-02T09:01:52.000Z</time>
      </trkpt>
      <trkpt lat="43.60769" lon="3.89522">
        <ele>21.14499968</ele>
        <time>2020-08-02T09:01:53.000Z</time>
      </trkpt>
      <trkpt lat="43.60769" lon="3.89516">
        <ele>21.24499968</ele>
        <time>2020-08-02T09:01:54.000Z</time>
      </trkpt>
      <trkpt lat="43.6077" lon="3.8951">
        <ele>21.34499968</ele>
        <time>2020-08-02T09:01:55.000Z</time>
      </trkpt>
      <trkpt lat="43.60771" lon="3.89504">
        <ele>21.44499968</ele>
        <time>2020-08-02T09:01:56.000Z</time>
      </trkpt>
      <trkpt lat="43.60771" lon="3.89497">
        <ele>21.54499968</ele>
        <time>2020-08-02T09:01:57.000Z</time>
      </trkpt>
      <trkpt lat="43.60772" lon="3.89491">
        <ele>21.64499968</ele>
        <time>2020-08-02T09:01:58.000Z</time>
      </trkpt>
      <trkpt lat="43.60772" lon="3.89485">
        <ele>21.74499968</ele>
        <time>2020-08-02T09:01:59.000Z</time>
      </trkpt>
      <trkpt lat="43.60773" lon="3.89479">
        <ele>21.84499968</ele>
        <time>2020-08-02T09:02:00.000Z</time>
      </trkpt>
      <trkpt lat="43.60773" lon="3.89473">
        <ele>21.94499968</ele>
        <time>2020-08-02T09:02:01.000Z</time>
      </trkpt>
      <trkpt lat="43.60774" lon="3.89467">
        <ele>22</ele>
        <time>2020-08-02T09:02:02.000Z</time>
      </trkpt>
      <trkpt lat="43.60774" lon="3.89462">
        <ele>22</ele>
        <time>2020-08-02T09:02:03.000Z</time>
      </trkpt>
      <trkpt lat="43.60774" lon="3.89456">
        <ele>22</ele>
        <time>2020-08-02T09:02:04.000Z</time>
      </trkpt>
      <trkpt lat="43.60775" lon="3.8945">
        <ele>22</ele>
        <time>2020-08-02T09:02:05.000Z</time>
      </trkpt>
      <trkpt lat="43.60776" lon="3.89445">
        <ele>22</ele>
        <time>2020-08-02T09:02:06.000Z</time>
      </trkpt>
      <trkpt lat="43.60776" lon="3.89439">
        <ele>22</ele>
        <time>2020-08-02T09:02:07.000Z</time>
      </trkpt>
      <trkpt lat="43.60777" lon="3.89434">
        <ele>22</ele>
        <time>2020-08-02T09:02:08.000Z</time>
      </trkpt>
      <trkpt lat="43.60777" lon="3.89429">
        <ele>22</ele>
        <time>2020-08-02T09:02:09.000Z</time>
      </trkpt>
      <trkpt lat="43.60778" lon="3.89425">
        <ele>22</ele>
        <time>2020-08-02T09:02:10.000Z</time>
      </trkpt>
      <trkpt lat="43.60778" lon="3.89422">
        <ele>22</ele>
        <time>2020-08-02T09:02:11.000Z</time>
      </trkpt>
      <trkpt lat="43.60779" lon="3.89418">
        <ele>22</ele>
        <time>2020-08-02T09:02:15.000Z</time>
      </trkpt>
      <trkpt lat="43.60779" lon="3.89415">
        <ele>22</ele>
        <time>2020-08-02T09:02:16.000Z</time>
      </trkpt>
      <trkpt lat="43.6078" lon="3.89412">
        <ele>22</ele>
        <time>2020-08-02T09:02:17.000Z</time>
      </trkpt>
      <trkpt lat="43.6078" lon="3.89407">
        <ele>22</ele>
        <time>2020-08-02T09:02:18.000Z</time>
      </trkpt>
      <trkpt lat="43.6078" lon="3.89403">
        <ele>22</ele>
        <time>2020-08-02T09:02:19.000Z</time>
      </trkpt>
      <trkpt lat="43.60781" lon="3.89399">
        <ele>22</ele>
        <time>2020-08-02T09:02:20.000Z</time>
      </trkpt>
      <trkpt lat="43.60781" lon="3.89394">
        <ele>22</ele>
        <time>2020-08-02T09:02:21.000Z</time>
      </trkpt>
      <trkpt lat="43.60781" lon="3.89389">
        <ele>22</ele>
        <time>2020-08-02T09:02:22.000Z</time>
      </trkpt>
      <trkpt lat="43.60782" lon="3.89384">
        <ele>22</ele>
        <time>2020-08-02T09:02:23.000Z</time>
      </trkpt>
      <trkpt lat="43.60782" lon="3.89379">
        <ele>22</ele>
        <time>2020-08-02T09:02:24.000Z</time>
      </trkpt>
      <trkpt lat="43.60783" lon="3.89374">
        <ele>22</ele>
        <time>2020-08-02T09:02:25.000Z</time>
      </trkpt>
      <trkpt lat="43.60783" lon="3.89368">
        <ele>22</ele>
        <time>2020-08-02T09:02:26.000Z</time>
      </trkpt>
      <trkpt lat="43.60783" lon="3.89363">
        <ele>22</ele>
        <time>2020-08-02T09:02:27.000Z</time>
      </trkpt>
      <trkpt lat="43.60784" lon="3.89357">
        <ele>22</ele>
        <time>2020-08-02T09:02:28.000Z</time>
      </trkpt>
      <trkpt lat="43.60785" lon="3.89352">
        <ele>22</ele>
        <time>2020-08-02T09:02:29.000Z</time>
      </trkpt>
      <trkpt lat="43.60785" lon="3.89347">
        <ele>22</ele>
        <time>2020-08-02T09:02:30.000Z</time>
      </trkpt>
      <trkpt lat="43.60786" lon="3.89341">
        <ele>22</ele>
        <time>2020-08-02T09:02:31.000Z</time>
      </trkpt>
      <trkpt lat="43.60787" lon="3.89336">
        <ele>22.04499968</ele>
        <time>2020-08-02T09:02:32.000Z</time>
      </trkpt>
      <trkpt lat="43.60787" lon="3.89331">
        <ele>22.14499968</ele>
        <time>2020-08-02T09:02:33.000Z</time>
      </trkpt>
      <trkpt lat="43.60787" lon="3.89325">
        <ele>22.24499968</ele>
        <time>2020-08-02T09:02:34.000Z</time>
      </trkpt>
      <trkpt lat="43.60788" lon="3.8932">
        <ele>22.34499968</ele>
        <time>2020-08-02T09:02:35.000Z</time>
      </trkpt>
      <trkpt lat="43.60788" lon="3.89315">
        <ele>22.44499968</ele>
        <time>2020-08-02T09:02:36.000Z</time>
      </trkpt>
      <trkpt lat="43.60788" lon="3.89309">
        <ele>22.54499968</ele>
        <time>2020-08-02T09:02:37.000Z</time>
      </trkpt>
      <trkpt lat="43.60788" lon="3.89304">
        <ele>22.64499968</ele>
        <time>2020-08-02T09:02:38.000Z</time>
      </trkpt>
      <trkpt lat="43.60789" lon="3.89298">
        <ele>22.74499968</ele>
        <time>2020-08-02T09:02:39.000Z</time>
      </trkpt>
      <trkpt lat="43.60789" lon="3.89293">
        <ele>22.84499968</ele>
        <time>2020-08-02T09:02:40.000Z</time>
      </trkpt>
      <trkpt lat="43.6079" lon="3.89287">
        <ele>22.94499968</ele>
        <time>2020-08-02T09:02:41.000Z</time>
      </trkpt>
      <trkpt lat="43.6079" lon="3.89282">
        <ele>23.04499968</ele>
        <time>2020-08-02T09:02:42.000Z</time>
      </trkpt>
      <trkpt lat="43.60791" lon="3.89276">
        <ele>23.14499968</ele>
        <time>2020-08-02T09:02:43.000Z</time>
      </trkpt>
      <trkpt lat="43.60791" lon="3.8927">
        <ele>23.24499968</ele>
        <time>2020-08-02T09:02:44.000Z</time>
      </trkpt>
      <trkpt lat="43.60791" lon="3.89265">
        <ele>23.34499968</ele>
        <time>2020-08-02T09:02:45.000Z</time>
      </trkpt>
      <trkpt lat="43.60791" lon="3.89259">
        <ele>23.44499968</ele>
        <time>2020-08-02T09:02:46.000Z</time>
      </trkpt>
      <trkpt lat="43.60791" lon="3.89253">
        <ele>23.54499968</ele>
        <time>2020-08-02T09:02:47.000Z</time>
      </trkpt>
      <trkpt lat="43.60792" lon="3.89248">
        <ele>23.64499968</ele>
        <time>2020-08-02T09:02:48.000Z</time>
      </trkpt>
      <trkpt lat="43.60792" lon="3.89242">
        <ele>23.74499968</ele>
        <time>2020-08-02T09:02:49.000Z</time>
      </trkpt>
      <trkpt lat="43.60792" lon="3.89236">
        <ele>23.84499968</ele>
        <time>2020-08-02T09:02:50.000Z</time>
      </trkpt>
      <trkpt lat="43.60792" lon="3.89231">
        <ele>23.94499968</ele>
        <time>2020-08-02T09:02:51.000Z</time>
      </trkpt>
      <trkpt lat="43.60793" lon="3.89225">
        <ele>24</ele>
        <time>2020-08-02T09:02:52.000Z</time>
      </trkpt>
      <trkpt lat="43.60793" lon="3.89219">
        <ele>24</ele>
        <time>2020-08-02T09:02:53.000Z</time>
      </trkpt>
      <trkpt lat="43.60793" lon="3.89214">
        <ele>24</ele>
        <time>2020-08-02T09:02:54.000Z</time>
      </trkpt>
      <trkpt lat="43.60793" lon="3.89208">
        <ele>24</ele>
        <time>2020-08-02T09:02:55.000Z</time>
      </trkpt>
      <trkpt lat="43.60793" lon="3.89202">
        <ele>24</ele>
        <time>2020-08-02T09:02:56.000Z</time>
      </trkpt>
      <trkpt lat="43.60794" lon="3.89196">
        <ele>24</ele>
        <time>2020-08-02T09:02:57.000Z</time>
      </trkpt>
      <trkpt lat="43.60794" lon="3.89191">
        <ele>24</ele>
        <time>2020-08-02T09:02:58.000Z</time>
      </trkpt>
      <trkpt lat="43.60795" lon="3.89185">
        <ele>24</ele>
        <time>2020-08-02T09:02:59.000Z</time>
      </trkpt>
      <trkpt lat="43.60796" lon="3.89179">
        <ele>24</ele>
        <time>2020-08-02T09:03:00.000Z</time>
      </trkpt>
      <trkpt lat="43.60797" lon="3.89174">
        <ele>24</ele>
        <time>2020-08-02T09:03:01.000Z</time>
      </trkpt>
      <trkpt lat="43.60799" lon="3.89168">
        <ele>24</ele>
        <time>2020-08-02T09:03:02.000Z</time>
      </trkpt>
      <trkpt lat="43.60801" lon="3.89164">
        <ele>24</ele>
        <time>2020-08-02T09:03:03.000Z</time>
      </trkpt>
      <trkpt lat="43.60803" lon="3.89159">
        <ele>24</ele>
        <time>2020-08-02T09:03:04.000Z</time>
      </trkpt>
      <trkpt lat="43.60805" lon="3.89154">
        <ele>24</ele>
        <time>2020-08-02T09:03:05.000Z</time>
      </trkpt>
      <trkpt lat="43.60805" lon="3.89148">
        <ele>24</ele>
        <time>2020-08-02T09:03:06.000Z</time>
      </trkpt>
      <trkpt lat="43.60804" lon="3.89143">
        <ele>24</ele>
        <time>2020-08-02T09:03:07.000Z</time>
      </trkpt>
      <trkpt lat="43.60802" lon="3.89137">
        <ele>24</ele>
        <time>2020-08-02T09:03:08.000Z</time>
      </trkpt>
      <trkpt lat="43.608" lon="3.89132">
        <ele>24</ele>
        <time>2020-08-02T09:03:09.000Z</time>
      </trkpt>
      <trkpt lat="43.60798" lon="3.89126">
        <ele>24</ele>
        <time>2020-08-02T09:03:10.000Z</time>
      </trkpt>
      <trkpt lat="43.60798" lon="3.8912">
        <ele>24</ele>
        <time>2020-08-02T09:03:11.000Z</time>
      </trkpt>
      <trkpt lat="43.60798" lon="3.89114">
        <ele>24</ele>
        <time>2020-08-02T09:03:12.000Z</time>
      </trkpt>
      <trkpt lat="43.60798" lon="3.89108">
        <ele>24</ele>
        <time>2020-08-02T09:03:13.000Z</time>
      </trkpt>
      <trkpt lat="43.60798" lon="3.89102">
        <ele>24</ele>
        <time>2020-08-02T09:03:14.000Z</time>
      </trkpt>
      <trkpt lat="43.60798" lon="3.89096">
        <ele>24</ele>
        <time>2020-08-02T09:03:15.000Z</time>
      </trkpt>
      <trkpt lat="43.60799" lon="3.89091">
        <ele>24</ele>
        <time>2020-08-02T09:03:16.000Z</time>
      </trkpt>
      <trkpt lat="43.60799" lon="3.89085">
        <ele>24</ele>
        <time>2020-08-02T09:03:17.000Z</time>
      </trkpt>
      <trkpt lat="43.608" lon="3.89081">
        <ele>24</ele>
        <time>2020-08-02T09:03:18.000Z</time>
      </trkpt>
      <trkpt lat="43.608" lon="3.89077">
        <ele>24</ele>
        <time>2020-08-02T09:03:19.000Z</time>
      </trkpt>
      <trkpt lat="43.60802" lon="3.89073">
        <ele>24</ele>
        <time>2020-08-02T09:03:21.000Z</time>
      </trkpt>
      <trkpt lat="43.60802" lon="3.8907">
        <ele>24</ele>
        <time>2020-08-02T09:03:22.000Z</time>
      </trkpt>
      <trkpt lat="43.60803" lon="3.89068">
        <ele>24</ele>
        <time>2020-08-02T09:03:23.000Z</time>
      </trkpt>
      <trkpt lat="43.60804" lon="3.89065">
        <ele>24</ele>
        <time>2020-08-02T09:03:28.000Z</time>
      </trkpt>
      <trkpt lat="43.60804" lon="3.89064">
        <ele>24.042253521127</ele>
        <time>2020-08-02T09:03:29.000Z</time>
      </trkpt>
      <trkpt lat="43.60803" lon="3.89053">
        <ele>25.027495216296</ele>
        <time>2020-08-02T09:03:32.000Z</time>
      </trkpt>
      <trkpt lat="43.60803" lon="3.89049">
        <ele>25.129328143819</ele>
        <time>2020-08-02T09:03:33.000Z</time>
      </trkpt>
      <trkpt lat="43.60803" lon="3.89045">
        <ele>25.231161071341</ele>
        <time>2020-08-02T09:03:34.000Z</time>
      </trkpt>
      <trkpt lat="43.60803" lon="3.89041">
        <ele>25.332993998863</ele>
        <time>2020-08-02T09:03:35.000Z</time>
      </trkpt>
      <trkpt lat="43.60803" lon="3.89036">
        <ele>25.434826926386</ele>
        <time>2020-08-02T09:03:36.000Z</time>
      </trkpt>
      <trkpt lat="43.60803" lon="3.89032">
        <ele>25.536659853908</ele>
        <time>2020-08-02T09:03:37.000Z</time>
      </trkpt>
      <trkpt lat="43.60804" lon="3.89026">
        <ele>25.63849278143</ele>
        <time>2020-08-02T09:03:38.000Z</time>
      </trkpt>
      <trkpt lat="43.60804" lon="3.89021">
        <ele>25.740325708953</ele>
        <time>2020-08-02T09:03:39.000Z</time>
      </trkpt>
      <trkpt lat="43.60804" lon="3.89016">
        <ele>25.842158636475</ele>
        <time>2020-08-02T09:03:40.000Z</time>
      </trkpt>
      <trkpt lat="43.60804" lon="3.8901">
        <ele>25.943991563997</ele>
        <time>2020-08-02T09:03:41.000Z</time>
      </trkpt>
      <trkpt lat="43.60804" lon="3.89005">
        <ele>25.956268518956</ele>
        <time>2020-08-02T09:03:42.000Z</time>
      </trkpt>
      <trkpt lat="43.60804" lon="3.88999">
        <ele>25.8590867589</ele>
        <time>2020-08-02T09:03:43.000Z</time>
      </trkpt>
      <trkpt lat="43.60805" lon="3.88994">
        <ele>25.761904998843</ele>
        <time>2020-08-02T09:03:44.000Z</time>
      </trkpt>
      <trkpt lat="43.60805" lon="3.88988">
        <ele>25.664723238787</ele>
        <time>2020-08-02T09:03:45.000Z</time>
      </trkpt>
      <trkpt lat="43.60805" lon="3.88982">
        <ele>25.56754147873</ele>
        <time>2020-08-02T09:03:46.000Z</time>
      </trkpt>
      <trkpt lat="43.60806" lon="3.88977">
        <ele>25.470359718674</ele>
        <time>2020-08-02T09:03:47.000Z</time>
      </trkpt>
      <trkpt lat="43.60806" lon="3.88971">
        <ele>25.373177958617</ele>
        <time>2020-08-02T09:03:48.000Z</time>
      </trkpt>
      <trkpt lat="43.60806" lon="3.88966">
        <ele>25.27599619856</ele>
        <time>2020-08-02T09:03:49.000Z</time>
      </trkpt>
      <trkpt lat="43.60807" lon="3.8896">
        <ele>25.178814438504</ele>
        <time>2020-08-02T09:03:50.000Z</time>
      </trkpt>
      <trkpt lat="43.60807" lon="3.88954">
        <ele>25.081632678448</ele>
        <time>2020-08-02T09:03:51.000Z</time>
      </trkpt>
      <trkpt lat="43.60808" lon="3.88949">
        <ele>25</ele>
        <time>2020-08-02T09:03:52.000Z</time>
      </trkpt>
      <trkpt lat="43.60808" lon="3.88943">
        <ele>25</ele>
        <time>2020-08-02T09:03:53.000Z</time>
      </trkpt>
      <trkpt lat="43.60809" lon="3.88938">
        <ele>25</ele>
        <time>2020-08-02T09:03:54.000Z</time>
      </trkpt>
      <trkpt lat="43.60809" lon="3.88932">
        <ele>25</ele>
        <time>2020-08-02T09:03:55.000Z</time>
      </trkpt>
      <trkpt lat="43.60809" lon="3.88926">
        <ele>25</ele>
        <time>2020-08-02T09:03:56.000Z</time>
      </trkpt>
      <trkpt lat="43.6081" lon="3.88921">
        <ele>25</ele>
        <time>2020-08-02T09:03:57.000Z</time>
      </trkpt>
      <trkpt lat="43.6081" lon="3.88915">
        <ele>25</ele>
        <time>2020-08-02T09:03:58.000Z</time>
      </trkpt>
      <trkpt lat="43.6081" lon="3.88909">
        <ele>25</ele>
        <time>2020-08-02T09:03:59.000Z</time>
      </trkpt>
      <trkpt lat="43.6081" lon="3.88904">
        <ele>25</ele>
        <time>2020-08-02T09:04:00.000Z</time>
      </trkpt>
      <trkpt lat="43.6081" lon="3.88899">
        <ele>25</ele>
        <time>2020-08-02T09:04:01.000Z</time>
      </trkpt>
      <trkpt lat="43.6081" lon="3.88894">
        <ele>25.044204035649</ele>
        <time>2020-08-02T09:04:02.000Z</time>
      </trkpt>
      <trkpt lat="43.60811" lon="3.88889">
        <ele>25.142435924518</ele>
        <time>2020-08-02T09:04:03.000Z</time>
      </trkpt>
      <trkpt lat="43.60811" lon="3.88885">
        <ele>25.240667813386</ele>
        <time>2020-08-02T09:04:04.000Z</time>
      </trkpt>
      <trkpt lat="43.60811" lon="3.8888">
        <ele>25.338899702255</ele>
        <time>2020-08-02T09:04:05.000Z</time>
      </trkpt>
      <trkpt lat="43.60811" lon="3.88875">
        <ele>25.437131591124</ele>
        <time>2020-08-02T09:04:06.000Z</time>
      </trkpt>
      <trkpt lat="43.60812" lon="3.8887">
        <ele>25.535363479993</ele>
        <time>2020-08-02T09:04:07.000Z</time>
      </trkpt>
      <trkpt lat="43.60812" lon="3.88865">
        <ele>25.633595368861</ele>
        <time>2020-08-02T09:04:08.000Z</time>
      </trkpt>
      <trkpt lat="43.60812" lon="3.8886">
        <ele>25.73182725773</ele>
        <time>2020-08-02T09:04:09.000Z</time>
      </trkpt>
      <trkpt lat="43.60812" lon="3.88855">
        <ele>25.830059146599</ele>
        <time>2020-08-02T09:04:10.000Z</time>
      </trkpt>
      <trkpt lat="43.60813" lon="3.8885">
        <ele>25.928291035468</ele>
        <time>2020-08-02T09:04:11.000Z</time>
      </trkpt>
      <trkpt lat="43.60814" lon="3.88845">
        <ele>26</ele>
        <time>2020-08-02T09:04:12.000Z</time>
      </trkpt>
      <trkpt lat="43.60814" lon="3.88841">
        <ele>26</ele>
        <time>2020-08-02T09:04:13.000Z</time>
      </trkpt>
      <trkpt lat="43.60815" lon="3.88836">
        <ele>26</ele>
        <time>2020-08-02T09:04:14.000Z</time>
      </trkpt>
      <trkpt lat="43.60815" lon="3.88831">
        <ele>26</ele>
        <time>2020-08-02T09:04:15.000Z</time>
      </trkpt>
      <trkpt lat="43.60816" lon="3.88825">
        <ele>26</ele>
        <time>2020-08-02T09:04:16.000Z</time>
      </trkpt>
      <trkpt lat="43.60817" lon="3.8882">
        <ele>26</ele>
        <time>2020-08-02T09:04:17.000Z</time>
      </trkpt>
      <trkpt lat="43.60817" lon="3.88814">
        <ele>26</ele>
        <time>2020-08-02T09:04:18.000Z</time>
      </trkpt>
      <trkpt lat="43.60817" lon="3.88809">
        <ele>26</ele>
        <time>2020-08-02T09:04:19.000Z</time>
      </trkpt>
      <trkpt lat="43.60818" lon="3.88803">
        <ele>26</ele>
        <time>2020-08-02T09:04:20.000Z</time>
      </trkpt>
      <trkpt lat="43.60818" lon="3.88798">
        <ele>26</ele>
        <time>2020-08-02T09:04:21.000Z</time>
      </trkpt>
      <trkpt lat="43.60818" lon="3.88794">
        <ele>26.04499968</ele>
        <time>2020-08-02T09:04:22.000Z</time>
      </trkpt>
      <trkpt lat="43.60819" lon="3.88789">
        <ele>26.14499968</ele>
        <time>2020-08-02T09:04:23.000Z</time>
      </trkpt>
      <trkpt lat="43.60819" lon="3.88784">
        <ele>26.24499968</ele>
        <time>2020-08-02T09:04:24.000Z</time>
      </trkpt>
      <trkpt lat="43.6082" lon="3.88779">
        <ele>26.34499968</ele>
        <time>2020-08-02T09:04:25.000Z</time>
      </trkpt>
      <trkpt lat="43.6082" lon="3.88774">
        <ele>26.44499968</ele>
        <time>2020-08-02T09:04:26.000Z</time>
      </trkpt>
      <trkpt lat="43.6082" lon="3.88768">
        <ele>26.54499968</ele>
        <time>2020-08-02T09:04:27.000Z</time>
      </trkpt>
      <trkpt lat="43.6082" lon="3.88763">
        <ele>26.64499968</ele>
        <time>2020-08-02T09:04:28.000Z</time>
      </trkpt>
      <trkpt lat="43.6082" lon="3.88758">
        <ele>26.74499968</ele>
        <time>2020-08-02T09:04:29.000Z</time>
      </trkpt>
      <trkpt lat="43.60819" lon="3.88753">
        <ele>26.84499968</ele>
        <time>2020-08-02T09:04:30.000Z</time>
      </trkpt>
      <trkpt lat="43.60818" lon="3.88748">
        <ele>26.94499968</ele>
        <time>2020-08-02T09:04:31.000Z</time>
      </trkpt>
      <trkpt lat="43.60816" lon="3.88744">
        <ele>26.95500032</ele>
        <time>2020-08-02T09:04:32.000Z</time>
      </trkpt>
      <trkpt lat="43.60813" lon="3.8874">
        <ele>26.85500032</ele>
        <time>2020-08-02T09:04:33.000Z</time>
      </trkpt>
      <trkpt lat="43.60812" lon="3.88737">
        <ele>26.75500032</ele>
        <time>2020-08-02T09:04:34.000Z</time>
      </trkpt>
      <trkpt lat="43.60811" lon="3.88734">
        <ele>26.55500032</ele>
        <time>2020-08-02T09:04:36.000Z</time>
      </trkpt>
      <trkpt lat="43.60809" lon="3.88731">
        <ele>26.35500032</ele>
        <time>2020-08-02T09:04:38.000Z</time>
      </trkpt>
      <trkpt lat="43.60807" lon="3.88729">
        <ele>26.25500032</ele>
        <time>2020-08-02T09:04:39.000Z</time>
      </trkpt>
      <trkpt lat="43.60806" lon="3.88727">
        <ele>26.05500032</ele>
        <time>2020-08-02T09:04:41.000Z</time>
      </trkpt>
      <trkpt lat="43.60803" lon="3.88726">
        <ele>26</ele>
        <time>2020-08-02T09:04:42.000Z</time>
      </trkpt>
      <trkpt lat="43.60801" lon="3.88725">
        <ele>26</ele>
        <time>2020-08-02T09:04:43.000Z</time>
      </trkpt>
      <trkpt lat="43.60797" lon="3.88723">
        <ele>26</ele>
        <time>2020-08-02T09:04:45.000Z</time>
      </trkpt>
      <trkpt lat="43.60795" lon="3.88721">
        <ele>26</ele>
        <time>2020-08-02T09:04:47.000Z</time>
      </trkpt>
      <trkpt lat="43.60792" lon="3.88709">
        <ele>26.28999936</ele>
        <time>2020-08-02T09:04:53.000Z</time>
      </trkpt>
      <trkpt lat="43.60798" lon="3.887">
        <ele>27.48999936</ele>
        <time>2020-08-02T09:04:59.000Z</time>
      </trkpt>
      <trkpt lat="43.60796" lon="3.88687">
        <ele>27.88999936</ele>
        <time>2020-08-02T09:05:01.000Z</time>
      </trkpt>
      <trkpt lat="43.60788" lon="3.88671">
        <ele>28</ele>
        <time>2020-08-02T09:05:03.000Z</time>
      </trkpt>
      <trkpt lat="43.60784" lon="3.88666">
        <ele>28</ele>
        <time>2020-08-02T09:05:04.000Z</time>
      </trkpt>
      <trkpt lat="43.60781" lon="3.88661">
        <ele>28</ele>
        <time>2020-08-02T09:05:05.000Z</time>
      </trkpt>
      <trkpt lat="43.60777" lon="3.88656">
        <ele>28</ele>
        <time>2020-08-02T09:05:06.000Z</time>
      </trkpt>
      <trkpt lat="43.60773" lon="3.88652">
        <ele>28</ele>
        <time>2020-08-02T09:05:07.000Z</time>
      </trkpt>
      <trkpt lat="43.6077" lon="3.88648">
        <ele>28</ele>
        <time>2020-08-02T09:05:08.000Z</time>
      </trkpt>
      <trkpt lat="43.60767" lon="3.88644">
        <ele>28</ele>
        <time>2020-08-02T09:05:09.000Z</time>
      </trkpt>
      <trkpt lat="43.60764" lon="3.8864">
        <ele>28</ele>
        <time>2020-08-02T09:05:10.000Z</time>
      </trkpt>
      <trkpt lat="43.60762" lon="3.88636">
        <ele>28</ele>
        <time>2020-08-02T09:05:11.000Z</time>
      </trkpt>
      <trkpt lat="43.6076" lon="3.88632">
        <ele>28.08999936</ele>
        <time>2020-08-02T09:05:12.000Z</time>
      </trkpt>
      <trkpt lat="43.60759" lon="3.88628">
        <ele>28.28999936</ele>
        <time>2020-08-02T09:05:13.000Z</time>
      </trkpt>
      <trkpt lat="43.60758" lon="3.88624">
        <ele>28.48999936</ele>
        <time>2020-08-02T09:05:14.000Z</time>
      </trkpt>
      <trkpt lat="43.60758" lon="3.8862">
        <ele>28.68999936</ele>
        <time>2020-08-02T09:05:15.000Z</time>
      </trkpt>
      <trkpt lat="43.60757" lon="3.88616">
        <ele>28.88999936</ele>
        <time>2020-08-02T09:05:16.000Z</time>
      </trkpt>
      <trkpt lat="43.60757" lon="3.88612">
        <ele>29.08999936</ele>
        <time>2020-08-02T09:05:17.000Z</time>
      </trkpt>
      <trkpt lat="43.60757" lon="3.88608">
        <ele>29.28999936</ele>
        <time>2020-08-02T09:05:18.000Z</time>
      </trkpt>
      <trkpt lat="43.60757" lon="3.88605">
        <ele>29.48999936</ele>
        <time>2020-08-02T09:05:19.000Z</time>
      </trkpt>
      <trkpt lat="43.60757" lon="3.88601">
        <ele>29.68999936</ele>
        <time>2020-08-02T09:05:20.000Z</time>
      </trkpt>
      <trkpt lat="43.60757" lon="3.88597">
        <ele>29.88999936</ele>
        <time>2020-08-02T09:05:21.000Z</time>
      </trkpt>
      <trkpt lat="43.60757" lon="3.88594">
        <ele>30.044820398406</ele>
        <time>2020-08-02T09:05:22.000Z</time>
      </trkpt>
      <trkpt lat="43.60757" lon="3.8859">
        <ele>30.144421992032</ele>
        <time>2020-08-02T09:05:23.000Z</time>
      </trkpt>
      <trkpt lat="43.60757" lon="3.88587">
        <ele>30.244023585657</ele>
        <time>2020-08-02T09:05:24.000Z</time>
      </trkpt>
      <trkpt lat="43.60757" lon="3.88583">
        <ele>30.343625179283</ele>
        <time>2020-08-02T09:05:25.000Z</time>
      </trkpt>
      <trkpt lat="43.60757" lon="3.8858">
        <ele>30.443226772908</ele>
        <time>2020-08-02T09:05:26.000Z</time>
      </trkpt>
      <trkpt lat="43.60757" lon="3.88576">
        <ele>30.542828366534</ele>
        <time>2020-08-02T09:05:27.000Z</time>
      </trkpt>
      <trkpt lat="43.60756" lon="3.88573">
        <ele>30.642429960159</ele>
        <time>2020-08-02T09:05:28.000Z</time>
      </trkpt>
      <trkpt lat="43.60756" lon="3.88569">
        <ele>30.742031553785</ele>
        <time>2020-08-02T09:05:29.000Z</time>
      </trkpt>
      <trkpt lat="43.60756" lon="3.88566">
        <ele>30.84163314741</ele>
        <time>2020-08-02T09:05:30.000Z</time>
      </trkpt>
      <trkpt lat="43.60755" lon="3.88562">
        <ele>30.941234741036</ele>
        <time>2020-08-02T09:05:31.000Z</time>
      </trkpt>
      <trkpt lat="43.60755" lon="3.88559">
        <ele>31.041164337349</ele>
        <time>2020-08-02T09:05:32.000Z</time>
      </trkpt>
      <trkpt lat="43.60755" lon="3.88556">
        <ele>31.141565943775</ele>
        <time>2020-08-02T09:05:33.000Z</time>
      </trkpt>
      <trkpt lat="43.60755" lon="3.88552">
        <ele>31.241967550201</ele>
        <time>2020-08-02T09:05:34.000Z</time>
      </trkpt>
      <trkpt lat="43.60755" lon="3.88548">
        <ele>31.342369156626</ele>
        <time>2020-08-02T09:05:35.000Z</time>
      </trkpt>
      <trkpt lat="43.60755" lon="3.88545">
        <ele>31.442770763052</ele>
        <time>2020-08-02T09:05:36.000Z</time>
      </trkpt>
      <trkpt lat="43.60754" lon="3.88541">
        <ele>31.543172369478</ele>
        <time>2020-08-02T09:05:37.000Z</time>
      </trkpt>
      <trkpt lat="43.60754" lon="3.88537">
        <ele>31.643573975904</ele>
        <time>2020-08-02T09:05:38.000Z</time>
      </trkpt>
      <trkpt lat="43.60754" lon="3.88533">
        <ele>31.743975582329</ele>
        <time>2020-08-02T09:05:39.000Z</time>
      </trkpt>
      <trkpt lat="43.60754" lon="3.88529">
        <ele>31.844377188755</ele>
        <time>2020-08-02T09:05:40.000Z</time>
      </trkpt>
      <trkpt lat="43.60755" lon="3.88525">
        <ele>31.944778795181</ele>
        <time>2020-08-02T09:05:41.000Z</time>
      </trkpt>
      <trkpt lat="43.60755" lon="3.88522">
        <ele>32.08999936</ele>
        <time>2020-08-02T09:05:42.000Z</time>
      </trkpt>
      <trkpt lat="43.60755" lon="3.88518">
        <ele>32.28999936</ele>
        <time>2020-08-02T09:05:43.000Z</time>
      </trkpt>
      <trkpt lat="43.60756" lon="3.88515">
        <ele>32.48999936</ele>
        <time>2020-08-02T09:05:44.000Z</time>
      </trkpt>
      <trkpt lat="43.60757" lon="3.88511">
        <ele>32.68999936</ele>
        <time>2020-08-02T09:05:45.000Z</time>
      </trkpt>
      <trkpt lat="43.60758" lon="3.88508">
        <ele>32.88999936</ele>
        <time>2020-08-02T09:05:46.000Z</time>
      </trkpt>
      <trkpt lat="43.60759" lon="3.88504">
        <ele>33.08999936</ele>
        <time>2020-08-02T09:05:47.000Z</time>
      </trkpt>
      <trkpt lat="43.6076" lon="3.88501">
        <ele>33.28999936</ele>
        <time>2020-08-02T09:05:48.000Z</time>
      </trkpt>
      <trkpt lat="43.60761" lon="3.88498">
        <ele>33.48999936</ele>
        <time>2020-08-02T09:05:49.000Z</time>
      </trkpt>
      <trkpt lat="43.60761" lon="3.88494">
        <ele>33.68999936</ele>
        <time>2020-08-02T09:05:50.000Z</time>
      </trkpt>
      <trkpt lat="43.60762" lon="3.88491">
        <ele>33.88999936</ele>
        <time>2020-08-02T09:05:51.000Z</time>
      </trkpt>
      <trkpt lat="43.60764" lon="3.88487">
        <ele>34.088408071298</ele>
        <time>2020-08-02T09:05:52.000Z</time>
      </trkpt>
      <trkpt lat="43.60765" lon="3.88484">
        <ele>34.284871849035</ele>
        <time>2020-08-02T09:05:53.000Z</time>
      </trkpt>
      <trkpt lat="43.60766" lon="3.88481">
        <ele>34.481335626773</ele>
        <time>2020-08-02T09:05:54.000Z</time>
      </trkpt>
      <trkpt lat="43.60767" lon="3.88477">
        <ele>34.67779940451</ele>
        <time>2020-08-02T09:05:55.000Z</time>
      </trkpt>
      <trkpt lat="43.60769" lon="3.88474">
        <ele>34.874263182248</ele>
        <time>2020-08-02T09:05:56.000Z</time>
      </trkpt>
      <trkpt lat="43.6077" lon="3.88471">
        <ele>35.070726959985</ele>
        <time>2020-08-02T09:05:57.000Z</time>
      </trkpt>
      <trkpt lat="43.60772" lon="3.88467">
        <ele>35.267190737723</ele>
        <time>2020-08-02T09:05:58.000Z</time>
      </trkpt>
      <trkpt lat="43.60773" lon="3.88464">
        <ele>35.463654515461</ele>
        <time>2020-08-02T09:05:59.000Z</time>
      </trkpt>
      <trkpt lat="43.60775" lon="3.88461">
        <ele>35.660118293198</ele>
        <time>2020-08-02T09:06:00.000Z</time>
      </trkpt>
      <trkpt lat="43.60777" lon="3.88458">
        <ele>35.856582070936</ele>
        <time>2020-08-02T09:06:01.000Z</time>
      </trkpt>
      <trkpt lat="43.60778" lon="3.88455">
        <ele>36.054934509075</ele>
        <time>2020-08-02T09:06:02.000Z</time>
      </trkpt>
      <trkpt lat="43.6078" lon="3.88452">
        <ele>36.258393242436</ele>
        <time>2020-08-02T09:06:03.000Z</time>
      </trkpt>
      <trkpt lat="43.60781" lon="3.88449">
        <ele>36.461851975796</ele>
        <time>2020-08-02T09:06:04.000Z</time>
      </trkpt>
      <trkpt lat="43.60783" lon="3.88446">
        <ele>36.665310709156</ele>
        <time>2020-08-02T09:06:05.000Z</time>
      </trkpt>
      <trkpt lat="43.60784" lon="3.88443">
        <ele>36.868769442517</ele>
        <time>2020-08-02T09:06:06.000Z</time>
      </trkpt>
      <trkpt lat="43.60786" lon="3.8844">
        <ele>37.072228175877</ele>
        <time>2020-08-02T09:06:07.000Z</time>
      </trkpt>
      <trkpt lat="43.60788" lon="3.88437">
        <ele>37.275686909237</ele>
        <time>2020-08-02T09:06:08.000Z</time>
      </trkpt>
      <trkpt lat="43.6079" lon="3.88434">
        <ele>37.479145642598</ele>
        <time>2020-08-02T09:06:09.000Z</time>
      </trkpt>
      <trkpt lat="43.60792" lon="3.88431">
        <ele>37.682604375958</ele>
        <time>2020-08-02T09:06:10.000Z</time>
      </trkpt>
      <trkpt lat="43.60794" lon="3.88428">
        <ele>37.886063109318</ele>
        <time>2020-08-02T09:06:11.000Z</time>
      </trkpt>
      <trkpt lat="43.60796" lon="3.88425">
        <ele>38.044044029936</ele>
        <time>2020-08-02T09:06:12.000Z</time>
      </trkpt>
      <trkpt lat="43.60798" lon="3.88422">
        <ele>38.144144097972</ele>
        <time>2020-08-02T09:06:13.000Z</time>
      </trkpt>
      <trkpt lat="43.608" lon="3.88419">
        <ele>38.244244166008</ele>
        <time>2020-08-02T09:06:14.000Z</time>
      </trkpt>
      <trkpt lat="43.60802" lon="3.88416">
        <ele>38.344344234044</ele>
        <time>2020-08-02T09:06:15.000Z</time>
      </trkpt>
      <trkpt lat="43.60804" lon="3.88412">
        <ele>38.44444430208</ele>
        <time>2020-08-02T09:06:16.000Z</time>
      </trkpt>
      <trkpt lat="43.60805" lon="3.88409">
        <ele>38.544544370116</ele>
        <time>2020-08-02T09:06:17.000Z</time>
      </trkpt>
      <trkpt lat="43.60807" lon="3.88405">
        <ele>38.644644438152</ele>
        <time>2020-08-02T09:06:18.000Z</time>
      </trkpt>
      <trkpt lat="43.60808" lon="3.88401">
        <ele>38.744744506188</ele>
        <time>2020-08-02T09:06:19.000Z</time>
      </trkpt>
      <trkpt lat="43.60809" lon="3.88397">
        <ele>38.844844574224</ele>
        <time>2020-08-02T09:06:20.000Z</time>
      </trkpt>
      <trkpt lat="43.6081" lon="3.88393">
        <ele>38.94494464226</ele>
        <time>2020-08-02T09:06:21.000Z</time>
      </trkpt>
      <trkpt lat="43.60811" lon="3.88389">
        <ele>39</ele>
        <time>2020-08-02T09:06:22.000Z</time>
      </trkpt>
      <trkpt lat="43.60812" lon="3.88385">
        <ele>39</ele>
        <time>2020-08-02T09:06:23.000Z</time>
      </trkpt>
      <trkpt lat="43.60813" lon="3.88381">
        <ele>39</ele>
        <time>2020-08-02T09:06:24.000Z</time>
      </trkpt>
      <trkpt lat="43.60814" lon="3.88377">
        <ele>39</ele>
        <time>2020-08-02T09:06:25.000Z</time>
      </trkpt>
      <trkpt lat="43.60815" lon="3.88373">
        <ele>39</ele>
        <time>2020-08-02T09:06:26.000Z</time>
      </trkpt>
      <trkpt lat="43.60816" lon="3.88368">
        <ele>39</ele>
        <time>2020-08-02T09:06:27.000Z</time>
      </trkpt>
      <trkpt lat="43.60816" lon="3.88364">
        <ele>39</ele>
        <time>2020-08-02T09:06:28.000Z</time>
      </trkpt>
      <trkpt lat="43.60817" lon="3.8836">
        <ele>39</ele>
        <time>2020-08-02T09:06:29.000Z</time>
      </trkpt>
      <trkpt lat="43.60818" lon="3.88356">
        <ele>39</ele>
        <time>2020-08-02T09:06:30.000Z</time>
      </trkpt>
      <trkpt lat="43.60821" lon="3.88354">
        <ele>39</ele>
        <time>2020-08-02T09:06:31.000Z</time>
      </trkpt>
      <trkpt lat="43.60823" lon="3.88353">
        <ele>39</ele>
        <time>2020-08-02T09:06:32.000Z</time>
      </trkpt>
      <trkpt lat="43.60825" lon="3.88352">
        <ele>39</ele>
        <time>2020-08-02T09:06:33.000Z</time>
      </trkpt>
      <trkpt lat="43.60835" lon="3.88353">
        <ele>39</ele>
        <time>2020-08-02T09:06:38.000Z</time>
      </trkpt>
      <trkpt lat="43.60844" lon="3.88354">
        <ele>39</ele>
        <time>2020-08-02T09:06:41.000Z</time>
      </trkpt>
      <trkpt lat="43.60859" lon="3.88354">
        <ele>39.73499904</ele>
        <time>2020-08-02T09:06:44.000Z</time>
      </trkpt>
      <trkpt lat="43.60869" lon="3.88357">
        <ele>40.33499904</ele>
        <time>2020-08-02T09:06:46.000Z</time>
      </trkpt>
      <trkpt lat="43.60878" lon="3.88345">
        <ele>41.23499904</ele>
        <time>2020-08-02T09:06:49.000Z</time>
      </trkpt>
      <trkpt lat="43.60881" lon="3.88339">
        <ele>41.53499904</ele>
        <time>2020-08-02T09:06:50.000Z</time>
      </trkpt>
      <trkpt lat="43.60883" lon="3.88333">
        <ele>41.83499904</ele>
        <time>2020-08-02T09:06:51.000Z</time>
      </trkpt>
      <trkpt lat="43.60884" lon="3.88328">
        <ele>41.912537037912</ele>
        <time>2020-08-02T09:06:52.000Z</time>
      </trkpt>
      <trkpt lat="43.60885" lon="3.88323">
        <ele>41.718173517799</ele>
        <time>2020-08-02T09:06:53.000Z</time>
      </trkpt>
      <trkpt lat="43.60886" lon="3.88317">
        <ele>41.523809997686</ele>
        <time>2020-08-02T09:06:54.000Z</time>
      </trkpt>
      <trkpt lat="43.60887" lon="3.88312">
        <ele>41.329446477573</ele>
        <time>2020-08-02T09:06:55.000Z</time>
      </trkpt>
      <trkpt lat="43.60888" lon="3.88306">
        <ele>41.13508295746</ele>
        <time>2020-08-02T09:06:56.000Z</time>
      </trkpt>
      <trkpt lat="43.6089" lon="3.88302">
        <ele>40.940719437347</ele>
        <time>2020-08-02T09:06:57.000Z</time>
      </trkpt>
      <trkpt lat="43.60891" lon="3.88298">
        <ele>40.746355917234</ele>
        <time>2020-08-02T09:06:58.000Z</time>
      </trkpt>
      <trkpt lat="43.60892" lon="3.88293">
        <ele>40.551992397121</ele>
        <time>2020-08-02T09:06:59.000Z</time>
      </trkpt>
      <trkpt lat="43.60893" lon="3.88289">
        <ele>40.357628877008</ele>
        <time>2020-08-02T09:07:00.000Z</time>
      </trkpt>
      <trkpt lat="43.60893" lon="3.88286">
        <ele>40.163265356895</ele>
        <time>2020-08-02T09:07:01.000Z</time>
      </trkpt>
      <trkpt lat="43.60893" lon="3.88282">
        <ele>39.983589748976</ele>
        <time>2020-08-02T09:07:02.000Z</time>
      </trkpt>
      <trkpt lat="43.60894" lon="3.88278">
        <ele>39.881025680074</ele>
        <time>2020-08-02T09:07:03.000Z</time>
      </trkpt>
      <trkpt lat="43.60894" lon="3.88273">
        <ele>39.778461611172</ele>
        <time>2020-08-02T09:07:04.000Z</time>
      </trkpt>
      <trkpt lat="43.60895" lon="3.88269">
        <ele>39.67589754227</ele>
        <time>2020-08-02T09:07:05.000Z</time>
      </trkpt>
      <trkpt lat="43.60896" lon="3.88264">
        <ele>39.573333473367</ele>
        <time>2020-08-02T09:07:06.000Z</time>
      </trkpt>
      <trkpt lat="43.60896" lon="3.8826">
        <ele>39.470769404465</ele>
        <time>2020-08-02T09:07:07.000Z</time>
      </trkpt>
      <trkpt lat="43.60897" lon="3.88255">
        <ele>39.368205335563</ele>
        <time>2020-08-02T09:07:08.000Z</time>
      </trkpt>
      <trkpt lat="43.60898" lon="3.8825">
        <ele>39.265641266661</ele>
        <time>2020-08-02T09:07:09.000Z</time>
      </trkpt>
      <trkpt lat="43.60899" lon="3.88246">
        <ele>39.163077197759</ele>
        <time>2020-08-02T09:07:10.000Z</time>
      </trkpt>
      <trkpt lat="43.609" lon="3.88241">
        <ele>39.060513128857</ele>
        <time>2020-08-02T09:07:11.000Z</time>
      </trkpt>
      <trkpt lat="43.60901" lon="3.88236">
        <ele>39.040593768297</ele>
        <time>2020-08-02T09:07:12.000Z</time>
      </trkpt>
      <trkpt lat="43.60902" lon="3.88231">
        <ele>39.139603732026</ele>
        <time>2020-08-02T09:07:13.000Z</time>
      </trkpt>
      <trkpt lat="43.60903" lon="3.88226">
        <ele>39.238613695755</ele>
        <time>2020-08-02T09:07:14.000Z</time>
      </trkpt>
      <trkpt lat="43.60904" lon="3.88221">
        <ele>39.337623659484</ele>
        <time>2020-08-02T09:07:15.000Z</time>
      </trkpt>
      <trkpt lat="43.60905" lon="3.88215">
        <ele>39.436633623213</ele>
        <time>2020-08-02T09:07:16.000Z</time>
      </trkpt>
      <trkpt lat="43.60906" lon="3.88206">
        <ele>39.634653550672</ele>
        <time>2020-08-02T09:07:18.000Z</time>
      </trkpt>
      <trkpt lat="43.60907" lon="3.88201">
        <ele>39.733663514401</ele>
        <time>2020-08-02T09:07:19.000Z</time>
      </trkpt>
      <trkpt lat="43.60908" lon="3.88196">
        <ele>39.83267347813</ele>
        <time>2020-08-02T09:07:20.000Z</time>
      </trkpt>
      <trkpt lat="43.6091" lon="3.88191">
        <ele>39.931683441859</ele>
        <time>2020-08-02T09:07:21.000Z</time>
      </trkpt>
      <trkpt lat="43.60912" lon="3.88187">
        <ele>40</ele>
        <time>2020-08-02T09:07:22.000Z</time>
      </trkpt>
      <trkpt lat="43.60915" lon="3.88183">
        <ele>40</ele>
        <time>2020-08-02T09:07:23.000Z</time>
      </trkpt>
      <trkpt lat="43.60918" lon="3.88179">
        <ele>40</ele>
        <time>2020-08-02T09:07:24.000Z</time>
      </trkpt>
      <trkpt lat="43.6092" lon="3.88175">
        <ele>40</ele>
        <time>2020-08-02T09:07:25.000Z</time>
      </trkpt>
      <trkpt lat="43.60922" lon="3.88171">
        <ele>40</ele>
        <time>2020-08-02T09:07:26.000Z</time>
      </trkpt>
      <trkpt lat="43.60924" lon="3.88166">
        <ele>40</ele>
        <time>2020-08-02T09:07:27.000Z</time>
      </trkpt>
      <trkpt lat="43.60927" lon="3.88162">
        <ele>40</ele>
        <time>2020-08-02T09:07:28.000Z</time>
      </trkpt>
      <trkpt lat="43.60929" lon="3.88157">
        <ele>40</ele>
        <time>2020-08-02T09:07:29.000Z</time>
      </trkpt>
      <trkpt lat="43.60931" lon="3.88152">
        <ele>40</ele>
        <time>2020-08-02T09:07:30.000Z</time>
      </trkpt>
      <trkpt lat="43.60933" lon="3.88148">
        <ele>40</ele>
        <time>2020-08-02T09:07:31.000Z</time>
      </trkpt>
      <trkpt lat="43.60935" lon="3.88143">
        <ele>40.04499968</ele>
        <time>2020-08-02T09:07:32.000Z</time>
      </trkpt>
      <trkpt lat="43.60937" lon="3.88139">
        <ele>40.14499968</ele>
        <time>2020-08-02T09:07:33.000Z</time>
      </trkpt>
      <trkpt lat="43.60939" lon="3.88134">
        <ele>40.24499968</ele>
        <time>2020-08-02T09:07:34.000Z</time>
      </trkpt>
      <trkpt lat="43.6094" lon="3.88129">
        <ele>40.34499968</ele>
        <time>2020-08-02T09:07:35.000Z</time>
      </trkpt>
      <trkpt lat="43.60943" lon="3.88125">
        <ele>40.44499968</ele>
        <time>2020-08-02T09:07:36.000Z</time>
      </trkpt>
      <trkpt lat="43.60946" lon="3.88121">
        <ele>40.54499968</ele>
        <time>2020-08-02T09:07:37.000Z</time>
      </trkpt>
      <trkpt lat="43.60949" lon="3.88118">
        <ele>40.64499968</ele>
        <time>2020-08-02T09:07:38.000Z</time>
      </trkpt>
      <trkpt lat="43.60952" lon="3.88114">
        <ele>40.74499968</ele>
        <time>2020-08-02T09:07:39.000Z</time>
      </trkpt>
      <trkpt lat="43.60956" lon="3.88112">
        <ele>40.84499968</ele>
        <time>2020-08-02T09:07:40.000Z</time>
      </trkpt>
      <trkpt lat="43.6096" lon="3.88111">
        <ele>40.94499968</ele>
        <time>2020-08-02T09:07:41.000Z</time>
      </trkpt>
      <trkpt lat="43.60963" lon="3.8811">
        <ele>41.043731481044</ele>
        <time>2020-08-02T09:07:42.000Z</time>
      </trkpt>
      <trkpt lat="43.60967" lon="3.88109">
        <ele>41.1409132411</ele>
        <time>2020-08-02T09:07:43.000Z</time>
      </trkpt>
      <trkpt lat="43.60971" lon="3.88109">
        <ele>41.238095001157</ele>
        <time>2020-08-02T09:07:44.000Z</time>
      </trkpt>
      <trkpt lat="43.60975" lon="3.88108">
        <ele>41.335276761213</ele>
        <time>2020-08-02T09:07:45.000Z</time>
      </trkpt>
      <trkpt lat="43.6098" lon="3.88109">
        <ele>41.43245852127</ele>
        <time>2020-08-02T09:07:46.000Z</time>
      </trkpt>
      <trkpt lat="43.60984" lon="3.88109">
        <ele>41.529640281326</ele>
        <time>2020-08-02T09:07:47.000Z</time>
      </trkpt>
      <trkpt lat="43.60988" lon="3.8811">
        <ele>41.626822041383</ele>
        <time>2020-08-02T09:07:48.000Z</time>
      </trkpt>
      <trkpt lat="43.60992" lon="3.88111">
        <ele>41.72400380144</ele>
        <time>2020-08-02T09:07:49.000Z</time>
      </trkpt>
      <trkpt lat="43.60996" lon="3.88111">
        <ele>41.821185561496</ele>
        <time>2020-08-02T09:07:50.000Z</time>
      </trkpt>
      <trkpt lat="43.61001" lon="3.88112">
        <ele>41.918367321553</ele>
        <time>2020-08-02T09:07:51.000Z</time>
      </trkpt>
      <trkpt lat="43.61005" lon="3.88113">
        <ele>41.983522147552</ele>
        <time>2020-08-02T09:07:52.000Z</time>
      </trkpt>
      <trkpt lat="43.61009" lon="3.88113">
        <ele>41.880535569751</ele>
        <time>2020-08-02T09:07:53.000Z</time>
      </trkpt>
      <trkpt lat="43.61013" lon="3.88113">
        <ele>41.777548991951</ele>
        <time>2020-08-02T09:07:54.000Z</time>
      </trkpt>
      <trkpt lat="43.61018" lon="3.88113">
        <ele>41.67456241415</ele>
        <time>2020-08-02T09:07:55.000Z</time>
      </trkpt>
      <trkpt lat="43.61022" lon="3.88113">
        <ele>41.57157583635</ele>
        <time>2020-08-02T09:07:56.000Z</time>
      </trkpt>
      <trkpt lat="43.61025" lon="3.88114">
        <ele>41.468589258549</ele>
        <time>2020-08-02T09:07:57.000Z</time>
      </trkpt>
      <trkpt lat="43.61029" lon="3.88115">
        <ele>41.365602680749</ele>
        <time>2020-08-02T09:07:58.000Z</time>
      </trkpt>
      <trkpt lat="43.61033" lon="3.88116">
        <ele>41.262616102948</ele>
        <time>2020-08-02T09:07:59.000Z</time>
      </trkpt>
      <trkpt lat="43.61038" lon="3.88117">
        <ele>41.159629525148</ele>
        <time>2020-08-02T09:08:00.000Z</time>
      </trkpt>
      <trkpt lat="43.61042" lon="3.88117">
        <ele>41.056642947347</ele>
        <time>2020-08-02T09:08:01.000Z</time>
      </trkpt>
      <trkpt lat="43.61051" lon="3.8812">
        <ele>41.14499968</ele>
        <time>2020-08-02T09:08:03.000Z</time>
      </trkpt>
      <trkpt lat="43.61056" lon="3.88121">
        <ele>41.24499968</ele>
        <time>2020-08-02T09:08:04.000Z</time>
      </trkpt>
      <trkpt lat="43.6106" lon="3.88122">
        <ele>41.34499968</ele>
        <time>2020-08-02T09:08:05.000Z</time>
      </trkpt>
      <trkpt lat="43.61064" lon="3.88124">
        <ele>41.44499968</ele>
        <time>2020-08-02T09:08:06.000Z</time>
      </trkpt>
      <trkpt lat="43.61068" lon="3.88124">
        <ele>41.54499968</ele>
        <time>2020-08-02T09:08:07.000Z</time>
      </trkpt>
      <trkpt lat="43.61071" lon="3.88123">
        <ele>41.64499968</ele>
        <time>2020-08-02T09:08:08.000Z</time>
      </trkpt>
      <trkpt lat="43.61074" lon="3.8812">
        <ele>41.74499968</ele>
        <time>2020-08-02T09:08:09.000Z</time>
      </trkpt>
      <trkpt lat="43.61076" lon="3.88116">
        <ele>41.84499968</ele>
        <time>2020-08-02T09:08:10.000Z</time>
      </trkpt>
      <trkpt lat="43.61078" lon="3.88111">
        <ele>41.94499968</ele>
        <time>2020-08-02T09:08:11.000Z</time>
      </trkpt>
      <trkpt lat="43.61079" lon="3.88107">
        <ele>42.08999936</ele>
        <time>2020-08-02T09:08:12.000Z</time>
      </trkpt>
      <trkpt lat="43.6108" lon="3.88103">
        <ele>42.28999936</ele>
        <time>2020-08-02T09:08:13.000Z</time>
      </trkpt>
      <trkpt lat="43.61082" lon="3.88099">
        <ele>42.48999936</ele>
        <time>2020-08-02T09:08:14.000Z</time>
      </trkpt>
      <trkpt lat="43.61083" lon="3.88095">
        <ele>42.68999936</ele>
        <time>2020-08-02T09:08:15.000Z</time>
      </trkpt>
      <trkpt lat="43.61085" lon="3.88092">
        <ele>42.88999936</ele>
        <time>2020-08-02T09:08:16.000Z</time>
      </trkpt>
      <trkpt lat="43.61088" lon="3.8809">
        <ele>43.08999936</ele>
        <time>2020-08-02T09:08:17.000Z</time>
      </trkpt>
      <trkpt lat="43.61091" lon="3.8809">
        <ele>43.28999936</ele>
        <time>2020-08-02T09:08:18.000Z</time>
      </trkpt>
      <trkpt lat="43.61094" lon="3.88091">
        <ele>43.48999936</ele>
        <time>2020-08-02T09:08:19.000Z</time>
      </trkpt>
      <trkpt lat="43.61098" lon="3.88092">
        <ele>43.68999936</ele>
        <time>2020-08-02T09:08:20.000Z</time>
      </trkpt>
      <trkpt lat="43.61102" lon="3.88092">
        <ele>43.88999936</ele>
        <time>2020-08-02T09:08:21.000Z</time>
      </trkpt>
      <trkpt lat="43.61105" lon="3.88092">
        <ele>44.044909888964</ele>
        <time>2020-08-02T09:08:22.000Z</time>
      </trkpt>
      <trkpt lat="43.61109" lon="3.88093">
        <ele>44.144710351911</ele>
        <time>2020-08-02T09:08:23.000Z</time>
      </trkpt>
      <trkpt lat="43.61112" lon="3.88094">
        <ele>44.244510814857</ele>
        <time>2020-08-02T09:08:24.000Z</time>
      </trkpt>
      <trkpt lat="43.61116" lon="3.88095">
        <ele>44.344311277804</ele>
        <time>2020-08-02T09:08:25.000Z</time>
      </trkpt>
      <trkpt lat="43.61119" lon="3.88095">
        <ele>44.44411174075</ele>
        <time>2020-08-02T09:08:26.000Z</time>
      </trkpt>
      <trkpt lat="43.61122" lon="3.88095">
        <ele>44.543912203696</ele>
        <time>2020-08-02T09:08:27.000Z</time>
      </trkpt>
      <trkpt lat="43.61123" lon="3.88093">
        <ele>44.643712666643</ele>
        <time>2020-08-02T09:08:28.000Z</time>
      </trkpt>
      <trkpt lat="43.61125" lon="3.8809">
        <ele>44.743513129589</ele>
        <time>2020-08-02T09:08:29.000Z</time>
      </trkpt>
      <trkpt lat="43.61126" lon="3.88086">
        <ele>44.843313592536</ele>
        <time>2020-08-02T09:08:30.000Z</time>
      </trkpt>
      <trkpt lat="43.61126" lon="3.88082">
        <ele>44.943114055482</ele>
        <time>2020-08-02T09:08:31.000Z</time>
      </trkpt>
      <trkpt lat="43.61127" lon="3.88078">
        <ele>45.043086465355</ele>
        <time>2020-08-02T09:08:32.000Z</time>
      </trkpt>
      <trkpt lat="43.61127" lon="3.88075">
        <ele>45.1432868019</ele>
        <time>2020-08-02T09:08:33.000Z</time>
      </trkpt>
      <trkpt lat="43.61126" lon="3.8807">
        <ele>45.243487138445</ele>
        <time>2020-08-02T09:08:34.000Z</time>
      </trkpt>
      <trkpt lat="43.61125" lon="3.88066">
        <ele>45.34368747499</ele>
        <time>2020-08-02T09:08:35.000Z</time>
      </trkpt>
      <trkpt lat="43.61125" lon="3.88061">
        <ele>45.443887811535</ele>
        <time>2020-08-02T09:08:36.000Z</time>
      </trkpt>
      <trkpt lat="43.61125" lon="3.88057">
        <ele>45.54408814808</ele>
        <time>2020-08-02T09:08:37.000Z</time>
      </trkpt>
      <trkpt lat="43.61125" lon="3.88052">
        <ele>45.644288484625</ele>
        <time>2020-08-02T09:08:38.000Z</time>
      </trkpt>
      <trkpt lat="43.61124" lon="3.88047">
        <ele>45.744488821169</ele>
        <time>2020-08-02T09:08:39.000Z</time>
      </trkpt>
      <trkpt lat="43.61124" lon="3.88042">
        <ele>45.844689157714</ele>
        <time>2020-08-02T09:08:40.000Z</time>
      </trkpt>
      <trkpt lat="43.61123" lon="3.88035">
        <ele>45.944889494259</ele>
        <time>2020-08-02T09:08:41.000Z</time>
      </trkpt>
      <trkpt lat="43.61122" lon="3.88029">
        <ele>46.08999936</ele>
        <time>2020-08-02T09:08:42.000Z</time>
      </trkpt>
      <trkpt lat="43.61122" lon="3.88023">
        <ele>46.28999936</ele>
        <time>2020-08-02T09:08:43.000Z</time>
      </trkpt>
      <trkpt lat="43.61122" lon="3.88017">
        <ele>46.48999936</ele>
        <time>2020-08-02T09:08:44.000Z</time>
      </trkpt>
      <trkpt lat="43.61121" lon="3.88011">
        <ele>46.68999936</ele>
        <time>2020-08-02T09:08:45.000Z</time>
      </trkpt>
      <trkpt lat="43.6112" lon="3.88">
        <ele>47.08999936</ele>
        <time>2020-08-02T09:08:47.000Z</time>
      </trkpt>
      <trkpt lat="43.6112" lon="3.87984">
        <ele>47.68999936</ele>
        <time>2020-08-02T09:08:50.000Z</time>
      </trkpt>
      <trkpt lat="43.6112" lon="3.87979">
        <ele>47.88999936</ele>
        <time>2020-08-02T09:08:51.000Z</time>
      </trkpt>
      <trkpt lat="43.6112" lon="3.87964">
        <ele>48.24499968</ele>
        <time>2020-08-02T09:08:54.000Z</time>
      </trkpt>
      <trkpt lat="43.61119" lon="3.87947">
        <ele>48.54499968</ele>
        <time>2020-08-02T09:08:57.000Z</time>
      </trkpt>
      <trkpt lat="43.61116" lon="3.87935">
        <ele>48.84499968</ele>
        <time>2020-08-02T09:09:00.000Z</time>
      </trkpt>
      <trkpt lat="43.61113" lon="3.87925">
        <ele>49.281552951644</ele>
        <time>2020-08-02T09:09:03.000Z</time>
      </trkpt>
      <trkpt lat="43.61113" lon="3.8792">
        <ele>49.475727829579</ele>
        <time>2020-08-02T09:09:04.000Z</time>
      </trkpt>
      <trkpt lat="43.61113" lon="3.87916">
        <ele>49.669902707512</ele>
        <time>2020-08-02T09:09:05.000Z</time>
      </trkpt>
      <trkpt lat="43.61113" lon="3.87911">
        <ele>49.864077585446</ele>
        <time>2020-08-02T09:09:06.000Z</time>
      </trkpt>
      <trkpt lat="43.61114" lon="3.87908">
        <ele>50.05825246338</ele>
        <time>2020-08-02T09:09:07.000Z</time>
      </trkpt>
      <trkpt lat="43.61115" lon="3.87903">
        <ele>50.252427341314</ele>
        <time>2020-08-02T09:09:08.000Z</time>
      </trkpt>
      <trkpt lat="43.61116" lon="3.87899">
        <ele>50.446602219248</ele>
        <time>2020-08-02T09:09:09.000Z</time>
      </trkpt>
      <trkpt lat="43.61117" lon="3.87895">
        <ele>50.640777097182</ele>
        <time>2020-08-02T09:09:10.000Z</time>
      </trkpt>
      <trkpt lat="43.61119" lon="3.87892">
        <ele>50.834951975116</ele>
        <time>2020-08-02T09:09:11.000Z</time>
      </trkpt>
      <trkpt lat="43.61121" lon="3.87889">
        <ele>51</ele>
        <time>2020-08-02T09:09:12.000Z</time>
      </trkpt>
      <trkpt lat="43.61123" lon="3.87887">
        <ele>51</ele>
        <time>2020-08-02T09:09:13.000Z</time>
      </trkpt>
      <trkpt lat="43.61127" lon="3.87882">
        <ele>51</ele>
        <time>2020-08-02T09:09:15.000Z</time>
      </trkpt>
      <trkpt lat="43.61129" lon="3.8788">
        <ele>51</ele>
        <time>2020-08-02T09:09:16.000Z</time>
      </trkpt>
      <trkpt lat="43.61133" lon="3.87876">
        <ele>51</ele>
        <time>2020-08-02T09:09:18.000Z</time>
      </trkpt>
      <trkpt lat="43.61137" lon="3.87872">
        <ele>51</ele>
        <time>2020-08-02T09:09:20.000Z</time>
      </trkpt>
      <trkpt lat="43.61131" lon="3.8786">
        <ele>51.88999936</ele>
        <time>2020-08-02T09:09:26.000Z</time>
      </trkpt>
      <trkpt lat="43.61122" lon="3.8785">
        <ele>52.88999936</ele>
        <time>2020-08-02T09:09:31.000Z</time>
      </trkpt>
      <trkpt lat="43.61113" lon="3.87842">
        <ele>53.34499968</ele>
        <time>2020-08-02T09:09:35.000Z</time>
      </trkpt>
      <trkpt lat="43.61104" lon="3.87835">
        <ele>53.74499968</ele>
        <time>2020-08-02T09:09:39.000Z</time>
      </trkpt>
      <trkpt lat="43.61098" lon="3.87826">
        <ele>54</ele>
        <time>2020-08-02T09:09:42.000Z</time>
      </trkpt>
      <trkpt lat="43.61089" lon="3.87819">
        <ele>54</ele>
        <time>2020-08-02T09:09:45.000Z</time>
      </trkpt>
      <trkpt lat="43.61083" lon="3.87807">
        <ele>54</ele>
        <time>2020-08-02T09:09:48.000Z</time>
      </trkpt>
      <trkpt lat="43.61077" lon="3.87796">
        <ele>54</ele>
        <time>2020-08-02T09:09:51.000Z</time>
      </trkpt>
      <trkpt lat="43.61076" lon="3.87792">
        <ele>54.04499968</ele>
        <time>2020-08-02T09:09:52.000Z</time>
      </trkpt>
      <trkpt lat="43.61075" lon="3.87788">
        <ele>54.14499968</ele>
        <time>2020-08-02T09:09:53.000Z</time>
      </trkpt>
      <trkpt lat="43.61074" lon="3.87785">
        <ele>54.24499968</ele>
        <time>2020-08-02T09:09:54.000Z</time>
      </trkpt>
      <trkpt lat="43.61071" lon="3.87782">
        <ele>54.34499968</ele>
        <time>2020-08-02T09:09:55.000Z</time>
      </trkpt>
      <trkpt lat="43.61069" lon="3.87781">
        <ele>54.44499968</ele>
        <time>2020-08-02T09:09:56.000Z</time>
      </trkpt>
      <trkpt lat="43.61066" lon="3.87779">
        <ele>54.54499968</ele>
        <time>2020-08-02T09:09:57.000Z</time>
      </trkpt>
      <trkpt lat="43.61057" lon="3.87773">
        <ele>54.84499968</ele>
        <time>2020-08-02T09:10:00.000Z</time>
      </trkpt>
      <trkpt lat="43.61048" lon="3.87765">
        <ele>55.288556668993</ele>
        <time>2020-08-02T09:10:03.000Z</time>
      </trkpt>
      <trkpt lat="43.61039" lon="3.87758">
        <ele>56.08457682295</ele>
        <time>2020-08-02T09:10:07.000Z</time>
      </trkpt>
      <trkpt lat="43.61028" lon="3.87748">
        <ele>56.681591938417</ele>
        <time>2020-08-02T09:10:10.000Z</time>
      </trkpt>
      <trkpt lat="43.6102" lon="3.87739">
        <ele>57.281406944673</ele>
        <time>2020-08-02T09:10:13.000Z</time>
      </trkpt>
      <trkpt lat="43.61011" lon="3.8773">
        <ele>58.085426786596</ele>
        <time>2020-08-02T09:10:17.000Z</time>
      </trkpt>
      <trkpt lat="43.61007" lon="3.87724">
        <ele>58.487436707558</ele>
        <time>2020-08-02T09:10:19.000Z</time>
      </trkpt>
      <trkpt lat="43.61004" lon="3.87722">
        <ele>58.688441668039</ele>
        <time>2020-08-02T09:10:20.000Z</time>
      </trkpt>
      <trkpt lat="43.61001" lon="3.8772">
        <ele>58.88944662852</ele>
        <time>2020-08-02T09:10:21.000Z</time>
      </trkpt>
      <trkpt lat="43.60998" lon="3.87717">
        <ele>59.044247486882</ele>
        <time>2020-08-02T09:10:22.000Z</time>
      </trkpt>
      <trkpt lat="43.60996" lon="3.87714">
        <ele>59.142575934734</ele>
        <time>2020-08-02T09:10:23.000Z</time>
      </trkpt>
      <trkpt lat="43.60993" lon="3.87711">
        <ele>59.240904382585</ele>
        <time>2020-08-02T09:10:24.000Z</time>
      </trkpt>
      <trkpt lat="43.6099" lon="3.87708">
        <ele>59.339232830437</ele>
        <time>2020-08-02T09:10:25.000Z</time>
      </trkpt>
      <trkpt lat="43.60988" lon="3.87703">
        <ele>59.437561278289</ele>
        <time>2020-08-02T09:10:26.000Z</time>
      </trkpt>
      <trkpt lat="43.60988" lon="3.87699">
        <ele>59.53588972614</ele>
        <time>2020-08-02T09:10:27.000Z</time>
      </trkpt>
      <trkpt lat="43.60989" lon="3.87694">
        <ele>59.634218173992</ele>
        <time>2020-08-02T09:10:28.000Z</time>
      </trkpt>
      <trkpt lat="43.60992" lon="3.87689">
        <ele>59.732546621844</ele>
        <time>2020-08-02T09:10:29.000Z</time>
      </trkpt>
      <trkpt lat="43.60995" lon="3.87685">
        <ele>59.830875069695</ele>
        <time>2020-08-02T09:10:30.000Z</time>
      </trkpt>
      <trkpt lat="43.60997" lon="3.8768">
        <ele>59.929203517547</ele>
        <time>2020-08-02T09:10:31.000Z</time>
      </trkpt>
      <trkpt lat="43.61" lon="3.87676">
        <ele>60</ele>
        <time>2020-08-02T09:10:32.000Z</time>
      </trkpt>
      <trkpt lat="43.61002" lon="3.87672">
        <ele>60</ele>
        <time>2020-08-02T09:10:33.000Z</time>
      </trkpt>
      <trkpt lat="43.61004" lon="3.87669">
        <ele>60</ele>
        <time>2020-08-02T09:10:34.000Z</time>
      </trkpt>
      <trkpt lat="43.61006" lon="3.87666">
        <ele>60</ele>
        <time>2020-08-02T09:10:35.000Z</time>
      </trkpt>
      <trkpt lat="43.61007" lon="3.87664">
        <ele>60</ele>
        <time>2020-08-02T09:10:36.000Z</time>
      </trkpt>
      <trkpt lat="43.61009" lon="3.87661">
        <ele>60</ele>
        <time>2020-08-02T09:10:37.000Z</time>
      </trkpt>
      <trkpt lat="43.6101" lon="3.87658">
        <ele>60</ele>
        <time>2020-08-02T09:10:38.000Z</time>
      </trkpt>
      <trkpt lat="43.61011" lon="3.87654">
        <ele>60</ele>
        <time>2020-08-02T09:10:40.000Z</time>
      </trkpt>
      <trkpt lat="43.61013" lon="3.8765">
        <ele>60.0329218107</ele>
        <time>2020-08-02T09:10:42.000Z</time>
      </trkpt>
      <trkpt lat="43.61015" lon="3.87645">
        <ele>60.650205761317</ele>
        <time>2020-08-02T09:10:45.000Z</time>
      </trkpt>
      <trkpt lat="43.61019" lon="3.87642">
        <ele>61.267489711934</ele>
        <time>2020-08-02T09:10:48.000Z</time>
      </trkpt>
      <trkpt lat="43.61022" lon="3.87633">
        <ele>62.244244166008</ele>
        <time>2020-08-02T09:10:54.000Z</time>
      </trkpt>
      <trkpt lat="43.61022" lon="3.8763">
        <ele>62.44444430208</ele>
        <time>2020-08-02T09:10:56.000Z</time>
      </trkpt>
      <trkpt lat="43.6102" lon="3.87628">
        <ele>62.844844574224</ele>
        <time>2020-08-02T09:11:00.000Z</time>
      </trkpt>
      <trkpt lat="43.61018" lon="3.87626">
        <ele>63</ele>
        <time>2020-08-02T09:11:02.000Z</time>
      </trkpt>
      <trkpt lat="43.61016" lon="3.87624">
        <ele>63</ele>
        <time>2020-08-02T09:11:04.000Z</time>
      </trkpt>
      <trkpt lat="43.61016" lon="3.87624">
        <ele>63</ele>
        <time>2020-08-02T09:11:09.000Z</time>
      </trkpt>
      <trkpt lat="43.61013" lon="3.87625">
        <ele>65</ele>
        <time>2020-08-02T09:11:24.000Z</time>
      </trkpt>
      <trkpt lat="43.61012" lon="3.87624">
        <ele>64.896226149282</ele>
        <time>2020-08-02T09:11:25.000Z</time>
      </trkpt>
      <trkpt lat="43.61013" lon="3.87622">
        <ele>64.37211748621</ele>
        <time>2020-08-02T09:11:30.000Z</time>
      </trkpt>
      <trkpt lat="43.61014" lon="3.8762">
        <ele>63</ele>
        <time>2020-08-02T09:11:35.000Z</time>
      </trkpt>
      <trkpt lat="43.61015" lon="3.8762">
        <ele>63</ele>
        <time>2020-08-02T09:11:38.000Z</time>
      </trkpt>
      <trkpt lat="43.61015" lon="3.87619">
        <ele>63</ele>
        <time>2020-08-02T09:11:41.000Z</time>
      </trkpt>
      <trkpt lat="43.6101" lon="3.87627">
        <ele>63.999662164207</ele>
        <time>2020-08-02T09:13:10.000Z</time>
      </trkpt>
      <trkpt lat="43.6101" lon="3.87627">
        <ele>63</ele>
        <time>2020-08-02T09:13:15.000Z</time>
      </trkpt>
      <trkpt lat="43.61006" lon="3.87624">
        <ele>63</ele>
        <time>2020-08-02T09:13:36.000Z</time>
      </trkpt>
      <trkpt lat="43.61007" lon="3.87626">
        <ele>62.999781036039</ele>
        <time>2020-08-02T09:13:43.000Z</time>
      </trkpt>
      <trkpt lat="43.61006" lon="3.87622">
        <ele>61.006571161745</ele>
        <time>2020-08-02T09:15:14.000Z</time>
      </trkpt>
      <trkpt lat="43.61006" lon="3.87622">
        <ele>61</ele>
        <time>2020-08-02T09:15:19.000Z</time>
      </trkpt>
    </trkseg>
  </trk>
</gpx>